<?xml version="1.0" encoding="UTF-8" standalone="no" ?>
<gpx xmlns="http://www.topografix.com/GPX/1/1" xmlns:xsi="http://www.w3.org/2001/XMLSchema-instance" xsi:schemaLocation="http://www.topografix.com/GPX/1/1 http://www.topografix.com/GPX/1/1/gpx.xsd" version="1.1" creator="VisuGPX - https://www.visugpx.com">
  <metadata>
    <name>2017-12-07 Bike ride-Dombes O-Medium</name>
    <desc><![CDATA[2017-12-07 Bike ride-Dombes O-Medium]]></desc>
  </metadata>
  <wpt lat="45.92452" lon="4.73705">
    <ele>174</ele>
    <name><![CDATA[2017-12-07 10:32 (Start)]]></name>
  </wpt>
  <wpt lat="45.92464" lon="4.73712">
    <ele>174</ele>
    <name><![CDATA[2017-12-07 10:32 (End)]]></name>
    <desc><![CDATA[Created by Google My Tracks on Android  Name: 2017-12-07 10:32 Activity type: biking Description: - Total distance: 56.47 km (35.1 mi) Total time: 3:04:49 Moving time: 2:51:55 Average speed: 18.33 km/h (11.4 mi/h) Average moving speed: 19.71 km/h (12.2 mi/h) Max speed: 47.38 km/h (29.4 mi/h) Average pace: 3:16 min/km (5:16 min/mi) Average moving pace: 3:03 min/km (4:54 min/mi) Fastest pace: 1:16 min/km (2:02 min/mi) Max elevation: 365 m (1197 ft) Min elevation: 209 m (685 ft) Elevation gain: 715 m (2345 ft) Max grade: 30 % Min grade: -27 % Recorded: 07/12/2017 10:32]]></desc>
  </wpt>
  <trk>
    <name><![CDATA[2017-12-07 10:32]]></name>
    <trkseg>
      <trkpt lat="45.92452" lon="4.73705">
        <ele>174</ele>
        <time>2017-12-07T09:32:12.335Z</time>
      </trkpt>
      <trkpt lat="45.92454" lon="4.73708">
        <ele>174</ele>
        <time>2017-12-07T09:32:34Z</time>
      </trkpt>
      <trkpt lat="45.92454" lon="4.73708">
        <ele>174</ele>
        <time>2017-12-07T09:32:35Z</time>
      </trkpt>
      <trkpt lat="45.92455" lon="4.73707">
        <ele>174</ele>
        <time>2017-12-07T09:32:36Z</time>
      </trkpt>
      <trkpt lat="45.92461" lon="4.73701">
        <ele>174</ele>
        <time>2017-12-07T09:32:41Z</time>
      </trkpt>
      <trkpt lat="45.92462" lon="4.73698">
        <ele>174</ele>
        <time>2017-12-07T09:32:42Z</time>
      </trkpt>
      <trkpt lat="45.92464" lon="4.73686">
        <ele>174</ele>
        <time>2017-12-07T09:32:46Z</time>
      </trkpt>
      <trkpt lat="45.92464" lon="4.73683">
        <ele>174</ele>
        <time>2017-12-07T09:32:47Z</time>
      </trkpt>
      <trkpt lat="45.92465" lon="4.73671">
        <ele>174</ele>
        <time>2017-12-07T09:32:50Z</time>
      </trkpt>
      <trkpt lat="45.92466" lon="4.73667">
        <ele>174</ele>
        <time>2017-12-07T09:32:51Z</time>
      </trkpt>
      <trkpt lat="45.92467" lon="4.73658">
        <ele>174</ele>
        <time>2017-12-07T09:32:53Z</time>
      </trkpt>
      <trkpt lat="45.92467" lon="4.73654">
        <ele>174</ele>
        <time>2017-12-07T09:32:54Z</time>
      </trkpt>
      <trkpt lat="45.92469" lon="4.73646">
        <ele>174</ele>
        <time>2017-12-07T09:32:56Z</time>
      </trkpt>
      <trkpt lat="45.92471" lon="4.73642">
        <ele>174</ele>
        <time>2017-12-07T09:32:57Z</time>
      </trkpt>
      <trkpt lat="45.92477" lon="4.73636">
        <ele>174</ele>
        <time>2017-12-07T09:32:59Z</time>
      </trkpt>
      <trkpt lat="45.9248" lon="4.73635">
        <ele>174</ele>
        <time>2017-12-07T09:33:00Z</time>
      </trkpt>
      <trkpt lat="45.92488" lon="4.73636">
        <ele>174</ele>
        <time>2017-12-07T09:33:02Z</time>
      </trkpt>
      <trkpt lat="45.92491" lon="4.73637">
        <ele>174</ele>
        <time>2017-12-07T09:33:03Z</time>
      </trkpt>
      <trkpt lat="45.92499" lon="4.73637">
        <ele>174</ele>
        <time>2017-12-07T09:33:05Z</time>
      </trkpt>
      <trkpt lat="45.92503" lon="4.73637">
        <ele>174</ele>
        <time>2017-12-07T09:33:06Z</time>
      </trkpt>
      <trkpt lat="45.92512" lon="4.73635">
        <ele>173</ele>
        <time>2017-12-07T09:33:08Z</time>
      </trkpt>
      <trkpt lat="45.92516" lon="4.73635">
        <ele>173</ele>
        <time>2017-12-07T09:33:09Z</time>
      </trkpt>
      <trkpt lat="45.92521" lon="4.73634">
        <ele>173</ele>
        <time>2017-12-07T09:33:10Z</time>
      </trkpt>
      <trkpt lat="45.92526" lon="4.73634">
        <ele>173</ele>
        <time>2017-12-07T09:33:11Z</time>
      </trkpt>
      <trkpt lat="45.9253" lon="4.73633">
        <ele>173</ele>
        <time>2017-12-07T09:33:12Z</time>
      </trkpt>
      <trkpt lat="45.92535" lon="4.73631">
        <ele>173</ele>
        <time>2017-12-07T09:33:13Z</time>
      </trkpt>
      <trkpt lat="45.92543" lon="4.73631">
        <ele>173</ele>
        <time>2017-12-07T09:33:15Z</time>
      </trkpt>
      <trkpt lat="45.92547" lon="4.73629">
        <ele>173</ele>
        <time>2017-12-07T09:33:16Z</time>
      </trkpt>
      <trkpt lat="45.92552" lon="4.73628">
        <ele>173</ele>
        <time>2017-12-07T09:33:17Z</time>
      </trkpt>
      <trkpt lat="45.92556" lon="4.73626">
        <ele>173</ele>
        <time>2017-12-07T09:33:18Z</time>
      </trkpt>
      <trkpt lat="45.92561" lon="4.73626">
        <ele>173</ele>
        <time>2017-12-07T09:33:19Z</time>
      </trkpt>
      <trkpt lat="45.92566" lon="4.73625">
        <ele>173</ele>
        <time>2017-12-07T09:33:20Z</time>
      </trkpt>
      <trkpt lat="45.9257" lon="4.73624">
        <ele>173</ele>
        <time>2017-12-07T09:33:21Z</time>
      </trkpt>
      <trkpt lat="45.92575" lon="4.73623">
        <ele>173</ele>
        <time>2017-12-07T09:33:22Z</time>
      </trkpt>
      <trkpt lat="45.9258" lon="4.73623">
        <ele>173</ele>
        <time>2017-12-07T09:33:23Z</time>
      </trkpt>
      <trkpt lat="45.92585" lon="4.73622">
        <ele>173</ele>
        <time>2017-12-07T09:33:24Z</time>
      </trkpt>
      <trkpt lat="45.9259" lon="4.73621">
        <ele>173</ele>
        <time>2017-12-07T09:33:25Z</time>
      </trkpt>
      <trkpt lat="45.92594" lon="4.73621">
        <ele>173</ele>
        <time>2017-12-07T09:33:26Z</time>
      </trkpt>
      <trkpt lat="45.92599" lon="4.7362">
        <ele>173</ele>
        <time>2017-12-07T09:33:27Z</time>
      </trkpt>
      <trkpt lat="45.92604" lon="4.73621">
        <ele>173</ele>
        <time>2017-12-07T09:33:28Z</time>
      </trkpt>
      <trkpt lat="45.92608" lon="4.73623">
        <ele>173</ele>
        <time>2017-12-07T09:33:29Z</time>
      </trkpt>
      <trkpt lat="45.92612" lon="4.73625">
        <ele>173</ele>
        <time>2017-12-07T09:33:30Z</time>
      </trkpt>
      <trkpt lat="45.92616" lon="4.73629">
        <ele>173</ele>
        <time>2017-12-07T09:33:31Z</time>
      </trkpt>
      <trkpt lat="45.92619" lon="4.73635">
        <ele>173</ele>
        <time>2017-12-07T09:33:32Z</time>
      </trkpt>
      <trkpt lat="45.92624" lon="4.73645">
        <ele>173</ele>
        <time>2017-12-07T09:33:34Z</time>
      </trkpt>
      <trkpt lat="45.92627" lon="4.73651">
        <ele>173</ele>
        <time>2017-12-07T09:33:35Z</time>
      </trkpt>
      <trkpt lat="45.9263" lon="4.73657">
        <ele>173</ele>
        <time>2017-12-07T09:33:36Z</time>
      </trkpt>
      <trkpt lat="45.92633" lon="4.73663">
        <ele>173</ele>
        <time>2017-12-07T09:33:37Z</time>
      </trkpt>
      <trkpt lat="45.92636" lon="4.73669">
        <ele>173</ele>
        <time>2017-12-07T09:33:38Z</time>
      </trkpt>
      <trkpt lat="45.9264" lon="4.73675">
        <ele>173</ele>
        <time>2017-12-07T09:33:39Z</time>
      </trkpt>
      <trkpt lat="45.92643" lon="4.7368">
        <ele>173</ele>
        <time>2017-12-07T09:33:40Z</time>
      </trkpt>
      <trkpt lat="45.92648" lon="4.73684">
        <ele>173</ele>
        <time>2017-12-07T09:33:41Z</time>
      </trkpt>
      <trkpt lat="45.92653" lon="4.73689">
        <ele>173</ele>
        <time>2017-12-07T09:33:42Z</time>
      </trkpt>
      <trkpt lat="45.92658" lon="4.73693">
        <ele>173</ele>
        <time>2017-12-07T09:33:43Z</time>
      </trkpt>
      <trkpt lat="45.92662" lon="4.73697">
        <ele>173</ele>
        <time>2017-12-07T09:33:44Z</time>
      </trkpt>
      <trkpt lat="45.92666" lon="4.737">
        <ele>173</ele>
        <time>2017-12-07T09:33:45Z</time>
      </trkpt>
      <trkpt lat="45.92671" lon="4.73702">
        <ele>174</ele>
        <time>2017-12-07T09:33:46Z</time>
      </trkpt>
      <trkpt lat="45.92675" lon="4.73703">
        <ele>174</ele>
        <time>2017-12-07T09:33:47Z</time>
      </trkpt>
      <trkpt lat="45.9268" lon="4.73705">
        <ele>173</ele>
        <time>2017-12-07T09:33:48Z</time>
      </trkpt>
      <trkpt lat="45.92685" lon="4.73706">
        <ele>173</ele>
        <time>2017-12-07T09:33:49Z</time>
      </trkpt>
      <trkpt lat="45.92689" lon="4.73708">
        <ele>173</ele>
        <time>2017-12-07T09:33:50Z</time>
      </trkpt>
      <trkpt lat="45.92694" lon="4.73709">
        <ele>173</ele>
        <time>2017-12-07T09:33:51Z</time>
      </trkpt>
      <trkpt lat="45.92698" lon="4.7371">
        <ele>173</ele>
        <time>2017-12-07T09:33:52Z</time>
      </trkpt>
      <trkpt lat="45.92702" lon="4.73712">
        <ele>173</ele>
        <time>2017-12-07T09:33:53Z</time>
      </trkpt>
      <trkpt lat="45.92711" lon="4.73714">
        <ele>173</ele>
        <time>2017-12-07T09:33:55Z</time>
      </trkpt>
      <trkpt lat="45.92715" lon="4.73715">
        <ele>173</ele>
        <time>2017-12-07T09:33:56Z</time>
      </trkpt>
      <trkpt lat="45.9272" lon="4.73715">
        <ele>173</ele>
        <time>2017-12-07T09:33:57Z</time>
      </trkpt>
      <trkpt lat="45.92725" lon="4.73716">
        <ele>173</ele>
        <time>2017-12-07T09:33:58Z</time>
      </trkpt>
      <trkpt lat="45.9273" lon="4.73717">
        <ele>173</ele>
        <time>2017-12-07T09:33:59Z</time>
      </trkpt>
      <trkpt lat="45.92735" lon="4.73718">
        <ele>173</ele>
        <time>2017-12-07T09:34:00Z</time>
      </trkpt>
      <trkpt lat="45.9274" lon="4.73719">
        <ele>173</ele>
        <time>2017-12-07T09:34:01Z</time>
      </trkpt>
      <trkpt lat="45.92745" lon="4.73721">
        <ele>173</ele>
        <time>2017-12-07T09:34:02Z</time>
      </trkpt>
      <trkpt lat="45.9275" lon="4.73722">
        <ele>173</ele>
        <time>2017-12-07T09:34:03Z</time>
      </trkpt>
      <trkpt lat="45.92754" lon="4.73724">
        <ele>172</ele>
        <time>2017-12-07T09:34:04Z</time>
      </trkpt>
      <trkpt lat="45.92759" lon="4.73726">
        <ele>172</ele>
        <time>2017-12-07T09:34:05Z</time>
      </trkpt>
      <trkpt lat="45.92763" lon="4.73728">
        <ele>172</ele>
        <time>2017-12-07T09:34:06Z</time>
      </trkpt>
      <trkpt lat="45.92771" lon="4.73731">
        <ele>172</ele>
        <time>2017-12-07T09:34:08Z</time>
      </trkpt>
      <trkpt lat="45.92775" lon="4.73734">
        <ele>172</ele>
        <time>2017-12-07T09:34:09Z</time>
      </trkpt>
      <trkpt lat="45.92781" lon="4.73743">
        <ele>172</ele>
        <time>2017-12-07T09:34:12Z</time>
      </trkpt>
      <trkpt lat="45.92784" lon="4.73745">
        <ele>172</ele>
        <time>2017-12-07T09:34:13Z</time>
      </trkpt>
      <trkpt lat="45.92791" lon="4.73752">
        <ele>173</ele>
        <time>2017-12-07T09:34:15Z</time>
      </trkpt>
      <trkpt lat="45.92795" lon="4.73756">
        <ele>173</ele>
        <time>2017-12-07T09:34:16Z</time>
      </trkpt>
      <trkpt lat="45.928" lon="4.73759">
        <ele>173</ele>
        <time>2017-12-07T09:34:17Z</time>
      </trkpt>
      <trkpt lat="45.92804" lon="4.73761">
        <ele>173</ele>
        <time>2017-12-07T09:34:18Z</time>
      </trkpt>
      <trkpt lat="45.92809" lon="4.73764">
        <ele>173</ele>
        <time>2017-12-07T09:34:19Z</time>
      </trkpt>
      <trkpt lat="45.92814" lon="4.73768">
        <ele>173</ele>
        <time>2017-12-07T09:34:20Z</time>
      </trkpt>
      <trkpt lat="45.9282" lon="4.73771">
        <ele>173</ele>
        <time>2017-12-07T09:34:21Z</time>
      </trkpt>
      <trkpt lat="45.92825" lon="4.73774">
        <ele>173</ele>
        <time>2017-12-07T09:34:22Z</time>
      </trkpt>
      <trkpt lat="45.92829" lon="4.73778">
        <ele>173</ele>
        <time>2017-12-07T09:34:23Z</time>
      </trkpt>
      <trkpt lat="45.92834" lon="4.73781">
        <ele>173</ele>
        <time>2017-12-07T09:34:24Z</time>
      </trkpt>
      <trkpt lat="45.9284" lon="4.73785">
        <ele>173</ele>
        <time>2017-12-07T09:34:25Z</time>
      </trkpt>
      <trkpt lat="45.92844" lon="4.7379">
        <ele>173</ele>
        <time>2017-12-07T09:34:26Z</time>
      </trkpt>
      <trkpt lat="45.92848" lon="4.73795">
        <ele>173</ele>
        <time>2017-12-07T09:34:27Z</time>
      </trkpt>
      <trkpt lat="45.92852" lon="4.73801">
        <ele>173</ele>
        <time>2017-12-07T09:34:28Z</time>
      </trkpt>
      <trkpt lat="45.92854" lon="4.73808">
        <ele>173</ele>
        <time>2017-12-07T09:34:29Z</time>
      </trkpt>
      <trkpt lat="45.92857" lon="4.73815">
        <ele>173</ele>
        <time>2017-12-07T09:34:30Z</time>
      </trkpt>
      <trkpt lat="45.92858" lon="4.73822">
        <ele>173</ele>
        <time>2017-12-07T09:34:31Z</time>
      </trkpt>
      <trkpt lat="45.92861" lon="4.73829">
        <ele>173</ele>
        <time>2017-12-07T09:34:32Z</time>
      </trkpt>
      <trkpt lat="45.92862" lon="4.73835">
        <ele>173</ele>
        <time>2017-12-07T09:34:33Z</time>
      </trkpt>
      <trkpt lat="45.92864" lon="4.73842">
        <ele>173</ele>
        <time>2017-12-07T09:34:34Z</time>
      </trkpt>
      <trkpt lat="45.92865" lon="4.73848">
        <ele>173</ele>
        <time>2017-12-07T09:34:35Z</time>
      </trkpt>
      <trkpt lat="45.92868" lon="4.73856">
        <ele>173</ele>
        <time>2017-12-07T09:34:36Z</time>
      </trkpt>
      <trkpt lat="45.9287" lon="4.73864">
        <ele>173</ele>
        <time>2017-12-07T09:34:37Z</time>
      </trkpt>
      <trkpt lat="45.92872" lon="4.7387">
        <ele>173</ele>
        <time>2017-12-07T09:34:38Z</time>
      </trkpt>
      <trkpt lat="45.92875" lon="4.73878">
        <ele>173</ele>
        <time>2017-12-07T09:34:39Z</time>
      </trkpt>
      <trkpt lat="45.92877" lon="4.73886">
        <ele>173</ele>
        <time>2017-12-07T09:34:40Z</time>
      </trkpt>
      <trkpt lat="45.92878" lon="4.73894">
        <ele>173</ele>
        <time>2017-12-07T09:34:41Z</time>
      </trkpt>
      <trkpt lat="45.92878" lon="4.73902">
        <ele>173</ele>
        <time>2017-12-07T09:34:42Z</time>
      </trkpt>
      <trkpt lat="45.9288" lon="4.7391">
        <ele>173</ele>
        <time>2017-12-07T09:34:43Z</time>
      </trkpt>
      <trkpt lat="45.9288" lon="4.73918">
        <ele>172</ele>
        <time>2017-12-07T09:34:44Z</time>
      </trkpt>
      <trkpt lat="45.9288" lon="4.73925">
        <ele>172</ele>
        <time>2017-12-07T09:34:45Z</time>
      </trkpt>
      <trkpt lat="45.92881" lon="4.73933">
        <ele>172</ele>
        <time>2017-12-07T09:34:46Z</time>
      </trkpt>
      <trkpt lat="45.92881" lon="4.7394">
        <ele>172</ele>
        <time>2017-12-07T09:34:47Z</time>
      </trkpt>
      <trkpt lat="45.9288" lon="4.73946">
        <ele>172</ele>
        <time>2017-12-07T09:34:48Z</time>
      </trkpt>
      <trkpt lat="45.9288" lon="4.73954">
        <ele>172</ele>
        <time>2017-12-07T09:34:49Z</time>
      </trkpt>
      <trkpt lat="45.9288" lon="4.73961">
        <ele>172</ele>
        <time>2017-12-07T09:34:50Z</time>
      </trkpt>
      <trkpt lat="45.92879" lon="4.73966">
        <ele>172</ele>
        <time>2017-12-07T09:34:51Z</time>
      </trkpt>
      <trkpt lat="45.9288" lon="4.73976">
        <ele>172</ele>
        <time>2017-12-07T09:34:52Z</time>
      </trkpt>
      <trkpt lat="45.92879" lon="4.73983">
        <ele>172</ele>
        <time>2017-12-07T09:34:53Z</time>
      </trkpt>
      <trkpt lat="45.92878" lon="4.73991">
        <ele>172</ele>
        <time>2017-12-07T09:34:54Z</time>
      </trkpt>
      <trkpt lat="45.92876" lon="4.73996">
        <ele>172</ele>
        <time>2017-12-07T09:34:55Z</time>
      </trkpt>
      <trkpt lat="45.92874" lon="4.74003">
        <ele>172</ele>
        <time>2017-12-07T09:34:56Z</time>
      </trkpt>
      <trkpt lat="45.92873" lon="4.7401">
        <ele>172</ele>
        <time>2017-12-07T09:34:57Z</time>
      </trkpt>
      <trkpt lat="45.92871" lon="4.74018">
        <ele>172</ele>
        <time>2017-12-07T09:34:58Z</time>
      </trkpt>
      <trkpt lat="45.9287" lon="4.74025">
        <ele>172</ele>
        <time>2017-12-07T09:34:59Z</time>
      </trkpt>
      <trkpt lat="45.92868" lon="4.74032">
        <ele>172</ele>
        <time>2017-12-07T09:35:00Z</time>
      </trkpt>
      <trkpt lat="45.92864" lon="4.74042">
        <ele>172</ele>
        <time>2017-12-07T09:35:02Z</time>
      </trkpt>
      <trkpt lat="45.9286" lon="4.74047">
        <ele>172</ele>
        <time>2017-12-07T09:35:03Z</time>
      </trkpt>
      <trkpt lat="45.92856" lon="4.74051">
        <ele>172</ele>
        <time>2017-12-07T09:35:04Z</time>
      </trkpt>
      <trkpt lat="45.92853" lon="4.74056">
        <ele>172</ele>
        <time>2017-12-07T09:35:05Z</time>
      </trkpt>
      <trkpt lat="45.92849" lon="4.74061">
        <ele>172</ele>
        <time>2017-12-07T09:35:06Z</time>
      </trkpt>
      <trkpt lat="45.92846" lon="4.74067">
        <ele>172</ele>
        <time>2017-12-07T09:35:07Z</time>
      </trkpt>
      <trkpt lat="45.92841" lon="4.74073">
        <ele>172</ele>
        <time>2017-12-07T09:35:08Z</time>
      </trkpt>
      <trkpt lat="45.92837" lon="4.74077">
        <ele>171</ele>
        <time>2017-12-07T09:35:09Z</time>
      </trkpt>
      <trkpt lat="45.92833" lon="4.74082">
        <ele>171</ele>
        <time>2017-12-07T09:35:10Z</time>
      </trkpt>
      <trkpt lat="45.92828" lon="4.74088">
        <ele>171</ele>
        <time>2017-12-07T09:35:11Z</time>
      </trkpt>
      <trkpt lat="45.92824" lon="4.74092">
        <ele>171</ele>
        <time>2017-12-07T09:35:12Z</time>
      </trkpt>
      <trkpt lat="45.9282" lon="4.74098">
        <ele>171</ele>
        <time>2017-12-07T09:35:13Z</time>
      </trkpt>
      <trkpt lat="45.92816" lon="4.74103">
        <ele>172</ele>
        <time>2017-12-07T09:35:14Z</time>
      </trkpt>
      <trkpt lat="45.92811" lon="4.74108">
        <ele>172</ele>
        <time>2017-12-07T09:35:15Z</time>
      </trkpt>
      <trkpt lat="45.92807" lon="4.74112">
        <ele>172</ele>
        <time>2017-12-07T09:35:16Z</time>
      </trkpt>
      <trkpt lat="45.92803" lon="4.74116">
        <ele>172</ele>
        <time>2017-12-07T09:35:17Z</time>
      </trkpt>
      <trkpt lat="45.92799" lon="4.74119">
        <ele>172</ele>
        <time>2017-12-07T09:35:18Z</time>
      </trkpt>
      <trkpt lat="45.92795" lon="4.74123">
        <ele>172</ele>
        <time>2017-12-07T09:35:19Z</time>
      </trkpt>
      <trkpt lat="45.92791" lon="4.74127">
        <ele>172</ele>
        <time>2017-12-07T09:35:20Z</time>
      </trkpt>
      <trkpt lat="45.92787" lon="4.74131">
        <ele>172</ele>
        <time>2017-12-07T09:35:21Z</time>
      </trkpt>
      <trkpt lat="45.92782" lon="4.74134">
        <ele>172</ele>
        <time>2017-12-07T09:35:22Z</time>
      </trkpt>
      <trkpt lat="45.92778" lon="4.74138">
        <ele>172</ele>
        <time>2017-12-07T09:35:23Z</time>
      </trkpt>
      <trkpt lat="45.92773" lon="4.74142">
        <ele>172</ele>
        <time>2017-12-07T09:35:24Z</time>
      </trkpt>
      <trkpt lat="45.92769" lon="4.74146">
        <ele>172</ele>
        <time>2017-12-07T09:35:25Z</time>
      </trkpt>
      <trkpt lat="45.92766" lon="4.74151">
        <ele>172</ele>
        <time>2017-12-07T09:35:26Z</time>
      </trkpt>
      <trkpt lat="45.92762" lon="4.74156">
        <ele>172</ele>
        <time>2017-12-07T09:35:27Z</time>
      </trkpt>
      <trkpt lat="45.92758" lon="4.7416">
        <ele>172</ele>
        <time>2017-12-07T09:35:28Z</time>
      </trkpt>
      <trkpt lat="45.92754" lon="4.74165">
        <ele>172</ele>
        <time>2017-12-07T09:35:29Z</time>
      </trkpt>
      <trkpt lat="45.9275" lon="4.74168">
        <ele>172</ele>
        <time>2017-12-07T09:35:30Z</time>
      </trkpt>
      <trkpt lat="45.92746" lon="4.74173">
        <ele>172</ele>
        <time>2017-12-07T09:35:31Z</time>
      </trkpt>
      <trkpt lat="45.92743" lon="4.74178">
        <ele>172</ele>
        <time>2017-12-07T09:35:32Z</time>
      </trkpt>
      <trkpt lat="45.92739" lon="4.74183">
        <ele>172</ele>
        <time>2017-12-07T09:35:33Z</time>
      </trkpt>
      <trkpt lat="45.92736" lon="4.74188">
        <ele>171</ele>
        <time>2017-12-07T09:35:34Z</time>
      </trkpt>
      <trkpt lat="45.92732" lon="4.74193">
        <ele>171</ele>
        <time>2017-12-07T09:35:35Z</time>
      </trkpt>
      <trkpt lat="45.92728" lon="4.74199">
        <ele>171</ele>
        <time>2017-12-07T09:35:36Z</time>
      </trkpt>
      <trkpt lat="45.92724" lon="4.74204">
        <ele>171</ele>
        <time>2017-12-07T09:35:37Z</time>
      </trkpt>
      <trkpt lat="45.92721" lon="4.74209">
        <ele>171</ele>
        <time>2017-12-07T09:35:38Z</time>
      </trkpt>
      <trkpt lat="45.92717" lon="4.74216">
        <ele>171</ele>
        <time>2017-12-07T09:35:39Z</time>
      </trkpt>
      <trkpt lat="45.92714" lon="4.74221">
        <ele>171</ele>
        <time>2017-12-07T09:35:40Z</time>
      </trkpt>
      <trkpt lat="45.92711" lon="4.74226">
        <ele>171</ele>
        <time>2017-12-07T09:35:41Z</time>
      </trkpt>
      <trkpt lat="45.92707" lon="4.74231">
        <ele>171</ele>
        <time>2017-12-07T09:35:42Z</time>
      </trkpt>
      <trkpt lat="45.92703" lon="4.74237">
        <ele>171</ele>
        <time>2017-12-07T09:35:43Z</time>
      </trkpt>
      <trkpt lat="45.927" lon="4.74243">
        <ele>171</ele>
        <time>2017-12-07T09:35:44Z</time>
      </trkpt>
      <trkpt lat="45.92696" lon="4.74248">
        <ele>171</ele>
        <time>2017-12-07T09:35:45Z</time>
      </trkpt>
      <trkpt lat="45.92692" lon="4.74254">
        <ele>171</ele>
        <time>2017-12-07T09:35:46Z</time>
      </trkpt>
      <trkpt lat="45.9269" lon="4.7426">
        <ele>171</ele>
        <time>2017-12-07T09:35:47Z</time>
      </trkpt>
      <trkpt lat="45.92686" lon="4.74266">
        <ele>171</ele>
        <time>2017-12-07T09:35:48Z</time>
      </trkpt>
      <trkpt lat="45.92684" lon="4.74272">
        <ele>171</ele>
        <time>2017-12-07T09:35:49Z</time>
      </trkpt>
      <trkpt lat="45.92681" lon="4.74278">
        <ele>171</ele>
        <time>2017-12-07T09:35:50Z</time>
      </trkpt>
      <trkpt lat="45.92677" lon="4.74285">
        <ele>171</ele>
        <time>2017-12-07T09:35:51Z</time>
      </trkpt>
      <trkpt lat="45.92674" lon="4.74292">
        <ele>171</ele>
        <time>2017-12-07T09:35:52Z</time>
      </trkpt>
      <trkpt lat="45.9267" lon="4.74298">
        <ele>171</ele>
        <time>2017-12-07T09:35:53Z</time>
      </trkpt>
      <trkpt lat="45.92667" lon="4.74304">
        <ele>171</ele>
        <time>2017-12-07T09:35:54Z</time>
      </trkpt>
      <trkpt lat="45.92664" lon="4.74309">
        <ele>171</ele>
        <time>2017-12-07T09:35:55Z</time>
      </trkpt>
      <trkpt lat="45.9266" lon="4.74315">
        <ele>171</ele>
        <time>2017-12-07T09:35:56Z</time>
      </trkpt>
      <trkpt lat="45.92657" lon="4.74322">
        <ele>171</ele>
        <time>2017-12-07T09:35:57Z</time>
      </trkpt>
      <trkpt lat="45.92653" lon="4.74329">
        <ele>171</ele>
        <time>2017-12-07T09:35:58Z</time>
      </trkpt>
      <trkpt lat="45.9265" lon="4.74336">
        <ele>171</ele>
        <time>2017-12-07T09:35:59Z</time>
      </trkpt>
      <trkpt lat="45.92646" lon="4.74343">
        <ele>171</ele>
        <time>2017-12-07T09:36:00Z</time>
      </trkpt>
      <trkpt lat="45.92642" lon="4.74349">
        <ele>171</ele>
        <time>2017-12-07T09:36:01Z</time>
      </trkpt>
      <trkpt lat="45.92639" lon="4.74354">
        <ele>171</ele>
        <time>2017-12-07T09:36:02Z</time>
      </trkpt>
      <trkpt lat="45.92635" lon="4.74361">
        <ele>171</ele>
        <time>2017-12-07T09:36:03Z</time>
      </trkpt>
      <trkpt lat="45.92632" lon="4.74367">
        <ele>171</ele>
        <time>2017-12-07T09:36:04Z</time>
      </trkpt>
      <trkpt lat="45.92629" lon="4.74373">
        <ele>171</ele>
        <time>2017-12-07T09:36:05Z</time>
      </trkpt>
      <trkpt lat="45.92625" lon="4.74379">
        <ele>170</ele>
        <time>2017-12-07T09:36:06Z</time>
      </trkpt>
      <trkpt lat="45.9262" lon="4.74385">
        <ele>170</ele>
        <time>2017-12-07T09:36:07Z</time>
      </trkpt>
      <trkpt lat="45.92617" lon="4.74391">
        <ele>170</ele>
        <time>2017-12-07T09:36:08Z</time>
      </trkpt>
      <trkpt lat="45.92615" lon="4.74398">
        <ele>170</ele>
        <time>2017-12-07T09:36:09Z</time>
      </trkpt>
      <trkpt lat="45.92612" lon="4.74404">
        <ele>170</ele>
        <time>2017-12-07T09:36:10Z</time>
      </trkpt>
      <trkpt lat="45.92609" lon="4.7441">
        <ele>170</ele>
        <time>2017-12-07T09:36:11Z</time>
      </trkpt>
      <trkpt lat="45.92604" lon="4.74416">
        <ele>170</ele>
        <time>2017-12-07T09:36:12Z</time>
      </trkpt>
      <trkpt lat="45.92601" lon="4.74423">
        <ele>170</ele>
        <time>2017-12-07T09:36:13Z</time>
      </trkpt>
      <trkpt lat="45.92597" lon="4.74429">
        <ele>170</ele>
        <time>2017-12-07T09:36:14Z</time>
      </trkpt>
      <trkpt lat="45.92594" lon="4.74435">
        <ele>170</ele>
        <time>2017-12-07T09:36:15Z</time>
      </trkpt>
      <trkpt lat="45.92592" lon="4.74442">
        <ele>170</ele>
        <time>2017-12-07T09:36:16Z</time>
      </trkpt>
      <trkpt lat="45.92589" lon="4.74447">
        <ele>170</ele>
        <time>2017-12-07T09:36:17Z</time>
      </trkpt>
      <trkpt lat="45.92585" lon="4.74453">
        <ele>170</ele>
        <time>2017-12-07T09:36:18Z</time>
      </trkpt>
      <trkpt lat="45.92581" lon="4.74458">
        <ele>170</ele>
        <time>2017-12-07T09:36:19Z</time>
      </trkpt>
      <trkpt lat="45.92577" lon="4.74465">
        <ele>170</ele>
        <time>2017-12-07T09:36:20Z</time>
      </trkpt>
      <trkpt lat="45.92574" lon="4.74472">
        <ele>170</ele>
        <time>2017-12-07T09:36:21Z</time>
      </trkpt>
      <trkpt lat="45.92571" lon="4.74479">
        <ele>170</ele>
        <time>2017-12-07T09:36:22Z</time>
      </trkpt>
      <trkpt lat="45.92567" lon="4.74485">
        <ele>170</ele>
        <time>2017-12-07T09:36:23Z</time>
      </trkpt>
      <trkpt lat="45.92564" lon="4.74491">
        <ele>170</ele>
        <time>2017-12-07T09:36:24Z</time>
      </trkpt>
      <trkpt lat="45.92561" lon="4.74498">
        <ele>170</ele>
        <time>2017-12-07T09:36:25Z</time>
      </trkpt>
      <trkpt lat="45.92557" lon="4.74504">
        <ele>170</ele>
        <time>2017-12-07T09:36:26Z</time>
      </trkpt>
      <trkpt lat="45.92554" lon="4.7451">
        <ele>170</ele>
        <time>2017-12-07T09:36:27Z</time>
      </trkpt>
      <trkpt lat="45.9255" lon="4.74516">
        <ele>170</ele>
        <time>2017-12-07T09:36:28Z</time>
      </trkpt>
      <trkpt lat="45.92546" lon="4.74523">
        <ele>170</ele>
        <time>2017-12-07T09:36:29Z</time>
      </trkpt>
      <trkpt lat="45.92542" lon="4.7453">
        <ele>170</ele>
        <time>2017-12-07T09:36:30Z</time>
      </trkpt>
      <trkpt lat="45.92537" lon="4.74536">
        <ele>171</ele>
        <time>2017-12-07T09:36:31Z</time>
      </trkpt>
      <trkpt lat="45.92534" lon="4.74543">
        <ele>171</ele>
        <time>2017-12-07T09:36:32Z</time>
      </trkpt>
      <trkpt lat="45.9253" lon="4.74548">
        <ele>171</ele>
        <time>2017-12-07T09:36:33Z</time>
      </trkpt>
      <trkpt lat="45.92527" lon="4.74555">
        <ele>171</ele>
        <time>2017-12-07T09:36:34Z</time>
      </trkpt>
      <trkpt lat="45.92522" lon="4.74559">
        <ele>171</ele>
        <time>2017-12-07T09:36:35Z</time>
      </trkpt>
      <trkpt lat="45.92519" lon="4.74564">
        <ele>171</ele>
        <time>2017-12-07T09:36:36Z</time>
      </trkpt>
      <trkpt lat="45.92515" lon="4.74569">
        <ele>171</ele>
        <time>2017-12-07T09:36:37Z</time>
      </trkpt>
      <trkpt lat="45.9251" lon="4.74573">
        <ele>171</ele>
        <time>2017-12-07T09:36:38Z</time>
      </trkpt>
      <trkpt lat="45.92506" lon="4.74578">
        <ele>171</ele>
        <time>2017-12-07T09:36:39Z</time>
      </trkpt>
      <trkpt lat="45.92502" lon="4.74583">
        <ele>171</ele>
        <time>2017-12-07T09:36:40Z</time>
      </trkpt>
      <trkpt lat="45.92498" lon="4.74588">
        <ele>171</ele>
        <time>2017-12-07T09:36:41Z</time>
      </trkpt>
      <trkpt lat="45.92494" lon="4.74592">
        <ele>171</ele>
        <time>2017-12-07T09:36:42Z</time>
      </trkpt>
      <trkpt lat="45.92489" lon="4.74596">
        <ele>171</ele>
        <time>2017-12-07T09:36:43Z</time>
      </trkpt>
      <trkpt lat="45.92484" lon="4.74601">
        <ele>171</ele>
        <time>2017-12-07T09:36:44Z</time>
      </trkpt>
      <trkpt lat="45.9248" lon="4.74606">
        <ele>171</ele>
        <time>2017-12-07T09:36:45Z</time>
      </trkpt>
      <trkpt lat="45.92477" lon="4.74612">
        <ele>171</ele>
        <time>2017-12-07T09:36:46Z</time>
      </trkpt>
      <trkpt lat="45.92473" lon="4.74617">
        <ele>171</ele>
        <time>2017-12-07T09:36:47Z</time>
      </trkpt>
      <trkpt lat="45.92469" lon="4.74623">
        <ele>171</ele>
        <time>2017-12-07T09:36:48Z</time>
      </trkpt>
      <trkpt lat="45.92466" lon="4.74629">
        <ele>171</ele>
        <time>2017-12-07T09:36:49Z</time>
      </trkpt>
      <trkpt lat="45.92462" lon="4.74635">
        <ele>171</ele>
        <time>2017-12-07T09:36:50Z</time>
      </trkpt>
      <trkpt lat="45.92459" lon="4.74641">
        <ele>171</ele>
        <time>2017-12-07T09:36:51Z</time>
      </trkpt>
      <trkpt lat="45.92456" lon="4.74648">
        <ele>171</ele>
        <time>2017-12-07T09:36:52Z</time>
      </trkpt>
      <trkpt lat="45.92452" lon="4.74654">
        <ele>171</ele>
        <time>2017-12-07T09:36:53Z</time>
      </trkpt>
      <trkpt lat="45.92449" lon="4.74659">
        <ele>171</ele>
        <time>2017-12-07T09:36:54Z</time>
      </trkpt>
      <trkpt lat="45.92445" lon="4.74666">
        <ele>171</ele>
        <time>2017-12-07T09:36:55Z</time>
      </trkpt>
      <trkpt lat="45.9244" lon="4.74673">
        <ele>171</ele>
        <time>2017-12-07T09:36:56Z</time>
      </trkpt>
      <trkpt lat="45.92438" lon="4.7468">
        <ele>171</ele>
        <time>2017-12-07T09:36:57Z</time>
      </trkpt>
      <trkpt lat="45.92437" lon="4.74686">
        <ele>171</ele>
        <time>2017-12-07T09:36:58Z</time>
      </trkpt>
      <trkpt lat="45.92434" lon="4.74692">
        <ele>171</ele>
        <time>2017-12-07T09:36:59Z</time>
      </trkpt>
      <trkpt lat="45.92432" lon="4.74698">
        <ele>171</ele>
        <time>2017-12-07T09:37:00Z</time>
      </trkpt>
      <trkpt lat="45.92429" lon="4.74705">
        <ele>171</ele>
        <time>2017-12-07T09:37:01Z</time>
      </trkpt>
      <trkpt lat="45.92427" lon="4.74712">
        <ele>171</ele>
        <time>2017-12-07T09:37:02Z</time>
      </trkpt>
      <trkpt lat="45.92424" lon="4.74719">
        <ele>171</ele>
        <time>2017-12-07T09:37:03Z</time>
      </trkpt>
      <trkpt lat="45.92422" lon="4.74726">
        <ele>171</ele>
        <time>2017-12-07T09:37:04Z</time>
      </trkpt>
      <trkpt lat="45.9242" lon="4.74734">
        <ele>171</ele>
        <time>2017-12-07T09:37:05Z</time>
      </trkpt>
      <trkpt lat="45.92417" lon="4.74741">
        <ele>172</ele>
        <time>2017-12-07T09:37:06Z</time>
      </trkpt>
      <trkpt lat="45.92415" lon="4.74748">
        <ele>172</ele>
        <time>2017-12-07T09:37:07Z</time>
      </trkpt>
      <trkpt lat="45.92413" lon="4.74756">
        <ele>172</ele>
        <time>2017-12-07T09:37:08Z</time>
      </trkpt>
      <trkpt lat="45.92411" lon="4.74764">
        <ele>172</ele>
        <time>2017-12-07T09:37:09Z</time>
      </trkpt>
      <trkpt lat="45.9241" lon="4.74772">
        <ele>172</ele>
        <time>2017-12-07T09:37:10Z</time>
      </trkpt>
      <trkpt lat="45.92408" lon="4.74779">
        <ele>171</ele>
        <time>2017-12-07T09:37:11Z</time>
      </trkpt>
      <trkpt lat="45.92407" lon="4.74787">
        <ele>171</ele>
        <time>2017-12-07T09:37:12Z</time>
      </trkpt>
      <trkpt lat="45.92404" lon="4.74794">
        <ele>171</ele>
        <time>2017-12-07T09:37:13Z</time>
      </trkpt>
      <trkpt lat="45.92403" lon="4.74801">
        <ele>171</ele>
        <time>2017-12-07T09:37:14Z</time>
      </trkpt>
      <trkpt lat="45.92401" lon="4.7481">
        <ele>171</ele>
        <time>2017-12-07T09:37:15Z</time>
      </trkpt>
      <trkpt lat="45.92399" lon="4.74818">
        <ele>171</ele>
        <time>2017-12-07T09:37:16Z</time>
      </trkpt>
      <trkpt lat="45.92396" lon="4.74826">
        <ele>171</ele>
        <time>2017-12-07T09:37:17Z</time>
      </trkpt>
      <trkpt lat="45.92394" lon="4.74836">
        <ele>171</ele>
        <time>2017-12-07T09:37:18Z</time>
      </trkpt>
      <trkpt lat="45.92392" lon="4.74844">
        <ele>171</ele>
        <time>2017-12-07T09:37:19Z</time>
      </trkpt>
      <trkpt lat="45.92389" lon="4.74853">
        <ele>171</ele>
        <time>2017-12-07T09:37:20Z</time>
      </trkpt>
      <trkpt lat="45.92386" lon="4.74861">
        <ele>171</ele>
        <time>2017-12-07T09:37:21Z</time>
      </trkpt>
      <trkpt lat="45.92383" lon="4.74868">
        <ele>171</ele>
        <time>2017-12-07T09:37:22Z</time>
      </trkpt>
      <trkpt lat="45.9238" lon="4.74876">
        <ele>171</ele>
        <time>2017-12-07T09:37:23Z</time>
      </trkpt>
      <trkpt lat="45.92378" lon="4.74882">
        <ele>171</ele>
        <time>2017-12-07T09:37:24Z</time>
      </trkpt>
      <trkpt lat="45.92374" lon="4.74889">
        <ele>171</ele>
        <time>2017-12-07T09:37:25Z</time>
      </trkpt>
      <trkpt lat="45.92372" lon="4.74896">
        <ele>171</ele>
        <time>2017-12-07T09:37:26Z</time>
      </trkpt>
      <trkpt lat="45.92369" lon="4.74902">
        <ele>171</ele>
        <time>2017-12-07T09:37:27Z</time>
      </trkpt>
      <trkpt lat="45.92366" lon="4.74909">
        <ele>171</ele>
        <time>2017-12-07T09:37:28Z</time>
      </trkpt>
      <trkpt lat="45.92364" lon="4.74916">
        <ele>171</ele>
        <time>2017-12-07T09:37:29Z</time>
      </trkpt>
      <trkpt lat="45.92362" lon="4.74922">
        <ele>170</ele>
        <time>2017-12-07T09:37:30Z</time>
      </trkpt>
      <trkpt lat="45.9236" lon="4.7493">
        <ele>170</ele>
        <time>2017-12-07T09:37:31Z</time>
      </trkpt>
      <trkpt lat="45.92357" lon="4.74937">
        <ele>170</ele>
        <time>2017-12-07T09:37:32Z</time>
      </trkpt>
      <trkpt lat="45.92354" lon="4.74943">
        <ele>170</ele>
        <time>2017-12-07T09:37:33Z</time>
      </trkpt>
      <trkpt lat="45.92352" lon="4.74951">
        <ele>170</ele>
        <time>2017-12-07T09:37:34Z</time>
      </trkpt>
      <trkpt lat="45.92349" lon="4.74958">
        <ele>170</ele>
        <time>2017-12-07T09:37:35Z</time>
      </trkpt>
      <trkpt lat="45.92345" lon="4.74965">
        <ele>170</ele>
        <time>2017-12-07T09:37:36Z</time>
      </trkpt>
      <trkpt lat="45.92344" lon="4.74973">
        <ele>170</ele>
        <time>2017-12-07T09:37:37Z</time>
      </trkpt>
      <trkpt lat="45.92341" lon="4.7498">
        <ele>170</ele>
        <time>2017-12-07T09:37:38Z</time>
      </trkpt>
      <trkpt lat="45.92339" lon="4.74986">
        <ele>170</ele>
        <time>2017-12-07T09:37:39Z</time>
      </trkpt>
      <trkpt lat="45.92336" lon="4.74993">
        <ele>170</ele>
        <time>2017-12-07T09:37:40Z</time>
      </trkpt>
      <trkpt lat="45.92334" lon="4.75">
        <ele>170</ele>
        <time>2017-12-07T09:37:41Z</time>
      </trkpt>
      <trkpt lat="45.92331" lon="4.75006">
        <ele>170</ele>
        <time>2017-12-07T09:37:42Z</time>
      </trkpt>
      <trkpt lat="45.92328" lon="4.75013">
        <ele>171</ele>
        <time>2017-12-07T09:37:43Z</time>
      </trkpt>
      <trkpt lat="45.92325" lon="4.75019">
        <ele>171</ele>
        <time>2017-12-07T09:37:44Z</time>
      </trkpt>
      <trkpt lat="45.92322" lon="4.75026">
        <ele>171</ele>
        <time>2017-12-07T09:37:45Z</time>
      </trkpt>
      <trkpt lat="45.92319" lon="4.75032">
        <ele>171</ele>
        <time>2017-12-07T09:37:46Z</time>
      </trkpt>
      <trkpt lat="45.92315" lon="4.75039">
        <ele>172</ele>
        <time>2017-12-07T09:37:47Z</time>
      </trkpt>
      <trkpt lat="45.92312" lon="4.75045">
        <ele>172</ele>
        <time>2017-12-07T09:37:48Z</time>
      </trkpt>
      <trkpt lat="45.92309" lon="4.75051">
        <ele>172</ele>
        <time>2017-12-07T09:37:49Z</time>
      </trkpt>
      <trkpt lat="45.92305" lon="4.75056">
        <ele>172</ele>
        <time>2017-12-07T09:37:50Z</time>
      </trkpt>
      <trkpt lat="45.923" lon="4.75061">
        <ele>172</ele>
        <time>2017-12-07T09:37:51Z</time>
      </trkpt>
      <trkpt lat="45.92296" lon="4.75066">
        <ele>172</ele>
        <time>2017-12-07T09:37:52Z</time>
      </trkpt>
      <trkpt lat="45.92292" lon="4.75071">
        <ele>172</ele>
        <time>2017-12-07T09:37:53Z</time>
      </trkpt>
      <trkpt lat="45.92287" lon="4.75077">
        <ele>172</ele>
        <time>2017-12-07T09:37:54Z</time>
      </trkpt>
      <trkpt lat="45.92283" lon="4.75082">
        <ele>172</ele>
        <time>2017-12-07T09:37:55Z</time>
      </trkpt>
      <trkpt lat="45.92279" lon="4.75086">
        <ele>173</ele>
        <time>2017-12-07T09:37:56Z</time>
      </trkpt>
      <trkpt lat="45.92274" lon="4.75091">
        <ele>173</ele>
        <time>2017-12-07T09:37:57Z</time>
      </trkpt>
      <trkpt lat="45.9227" lon="4.75095">
        <ele>173</ele>
        <time>2017-12-07T09:37:58Z</time>
      </trkpt>
      <trkpt lat="45.92266" lon="4.75099">
        <ele>173</ele>
        <time>2017-12-07T09:37:59Z</time>
      </trkpt>
      <trkpt lat="45.92262" lon="4.75104">
        <ele>173</ele>
        <time>2017-12-07T09:38:00Z</time>
      </trkpt>
      <trkpt lat="45.92258" lon="4.75109">
        <ele>174</ele>
        <time>2017-12-07T09:38:01Z</time>
      </trkpt>
      <trkpt lat="45.92252" lon="4.75113">
        <ele>174</ele>
        <time>2017-12-07T09:38:02Z</time>
      </trkpt>
      <trkpt lat="45.92249" lon="4.75118">
        <ele>174</ele>
        <time>2017-12-07T09:38:03Z</time>
      </trkpt>
      <trkpt lat="45.92244" lon="4.75123">
        <ele>174</ele>
        <time>2017-12-07T09:38:04Z</time>
      </trkpt>
      <trkpt lat="45.9224" lon="4.75128">
        <ele>174</ele>
        <time>2017-12-07T09:38:05Z</time>
      </trkpt>
      <trkpt lat="45.92236" lon="4.75132">
        <ele>174</ele>
        <time>2017-12-07T09:38:06Z</time>
      </trkpt>
      <trkpt lat="45.92232" lon="4.75139">
        <ele>174</ele>
        <time>2017-12-07T09:38:07Z</time>
      </trkpt>
      <trkpt lat="45.92228" lon="4.75143">
        <ele>174</ele>
        <time>2017-12-07T09:38:08Z</time>
      </trkpt>
      <trkpt lat="45.92225" lon="4.7515">
        <ele>174</ele>
        <time>2017-12-07T09:38:09Z</time>
      </trkpt>
      <trkpt lat="45.92222" lon="4.75156">
        <ele>174</ele>
        <time>2017-12-07T09:38:10Z</time>
      </trkpt>
      <trkpt lat="45.9222" lon="4.75164">
        <ele>174</ele>
        <time>2017-12-07T09:38:11Z</time>
      </trkpt>
      <trkpt lat="45.92217" lon="4.75171">
        <ele>175</ele>
        <time>2017-12-07T09:38:12Z</time>
      </trkpt>
      <trkpt lat="45.92215" lon="4.75177">
        <ele>175</ele>
        <time>2017-12-07T09:38:13Z</time>
      </trkpt>
      <trkpt lat="45.92213" lon="4.75184">
        <ele>175</ele>
        <time>2017-12-07T09:38:14Z</time>
      </trkpt>
      <trkpt lat="45.92212" lon="4.75189">
        <ele>175</ele>
        <time>2017-12-07T09:38:15Z</time>
      </trkpt>
      <trkpt lat="45.92211" lon="4.75197">
        <ele>175</ele>
        <time>2017-12-07T09:38:16Z</time>
      </trkpt>
      <trkpt lat="45.92209" lon="4.75203">
        <ele>175</ele>
        <time>2017-12-07T09:38:17Z</time>
      </trkpt>
      <trkpt lat="45.92208" lon="4.7521">
        <ele>175</ele>
        <time>2017-12-07T09:38:18Z</time>
      </trkpt>
      <trkpt lat="45.92208" lon="4.75216">
        <ele>175</ele>
        <time>2017-12-07T09:38:19Z</time>
      </trkpt>
      <trkpt lat="45.92207" lon="4.75223">
        <ele>175</ele>
        <time>2017-12-07T09:38:20Z</time>
      </trkpt>
      <trkpt lat="45.92207" lon="4.75231">
        <ele>175</ele>
        <time>2017-12-07T09:38:21Z</time>
      </trkpt>
      <trkpt lat="45.92207" lon="4.75237">
        <ele>175</ele>
        <time>2017-12-07T09:38:22Z</time>
      </trkpt>
      <trkpt lat="45.92207" lon="4.75245">
        <ele>175</ele>
        <time>2017-12-07T09:38:23Z</time>
      </trkpt>
      <trkpt lat="45.92207" lon="4.75252">
        <ele>175</ele>
        <time>2017-12-07T09:38:24Z</time>
      </trkpt>
      <trkpt lat="45.92206" lon="4.75258">
        <ele>175</ele>
        <time>2017-12-07T09:38:25Z</time>
      </trkpt>
      <trkpt lat="45.92206" lon="4.75266">
        <ele>176</ele>
        <time>2017-12-07T09:38:26Z</time>
      </trkpt>
      <trkpt lat="45.92205" lon="4.75273">
        <ele>176</ele>
        <time>2017-12-07T09:38:27Z</time>
      </trkpt>
      <trkpt lat="45.92205" lon="4.7528">
        <ele>176</ele>
        <time>2017-12-07T09:38:28Z</time>
      </trkpt>
      <trkpt lat="45.92205" lon="4.75287">
        <ele>176</ele>
        <time>2017-12-07T09:38:29Z</time>
      </trkpt>
      <trkpt lat="45.92205" lon="4.75294">
        <ele>176</ele>
        <time>2017-12-07T09:38:30Z</time>
      </trkpt>
      <trkpt lat="45.92205" lon="4.75301">
        <ele>176</ele>
        <time>2017-12-07T09:38:31Z</time>
      </trkpt>
      <trkpt lat="45.92202" lon="4.75313">
        <ele>176</ele>
        <time>2017-12-07T09:38:33Z</time>
      </trkpt>
      <trkpt lat="45.92201" lon="4.75319">
        <ele>176</ele>
        <time>2017-12-07T09:38:34Z</time>
      </trkpt>
      <trkpt lat="45.922" lon="4.75326">
        <ele>176</ele>
        <time>2017-12-07T09:38:35Z</time>
      </trkpt>
      <trkpt lat="45.92199" lon="4.75333">
        <ele>176</ele>
        <time>2017-12-07T09:38:36Z</time>
      </trkpt>
      <trkpt lat="45.92198" lon="4.7534">
        <ele>177</ele>
        <time>2017-12-07T09:38:37Z</time>
      </trkpt>
      <trkpt lat="45.92196" lon="4.75346">
        <ele>177</ele>
        <time>2017-12-07T09:38:38Z</time>
      </trkpt>
      <trkpt lat="45.92194" lon="4.75352">
        <ele>177</ele>
        <time>2017-12-07T09:38:39Z</time>
      </trkpt>
      <trkpt lat="45.92191" lon="4.75359">
        <ele>177</ele>
        <time>2017-12-07T09:38:40Z</time>
      </trkpt>
      <trkpt lat="45.9219" lon="4.75365">
        <ele>177</ele>
        <time>2017-12-07T09:38:41Z</time>
      </trkpt>
      <trkpt lat="45.92188" lon="4.75372">
        <ele>177</ele>
        <time>2017-12-07T09:38:42Z</time>
      </trkpt>
      <trkpt lat="45.92185" lon="4.75379">
        <ele>177</ele>
        <time>2017-12-07T09:38:43Z</time>
      </trkpt>
      <trkpt lat="45.92183" lon="4.75386">
        <ele>177</ele>
        <time>2017-12-07T09:38:44Z</time>
      </trkpt>
      <trkpt lat="45.92181" lon="4.75393">
        <ele>177</ele>
        <time>2017-12-07T09:38:45Z</time>
      </trkpt>
      <trkpt lat="45.92178" lon="4.75399">
        <ele>177</ele>
        <time>2017-12-07T09:38:46Z</time>
      </trkpt>
      <trkpt lat="45.92175" lon="4.75406">
        <ele>177</ele>
        <time>2017-12-07T09:38:47Z</time>
      </trkpt>
      <trkpt lat="45.92173" lon="4.75412">
        <ele>178</ele>
        <time>2017-12-07T09:38:48Z</time>
      </trkpt>
      <trkpt lat="45.9217" lon="4.75419">
        <ele>178</ele>
        <time>2017-12-07T09:38:49Z</time>
      </trkpt>
      <trkpt lat="45.92167" lon="4.75426">
        <ele>177</ele>
        <time>2017-12-07T09:38:50Z</time>
      </trkpt>
      <trkpt lat="45.92165" lon="4.75432">
        <ele>177</ele>
        <time>2017-12-07T09:38:51Z</time>
      </trkpt>
      <trkpt lat="45.92162" lon="4.75439">
        <ele>177</ele>
        <time>2017-12-07T09:38:52Z</time>
      </trkpt>
      <trkpt lat="45.92159" lon="4.75447">
        <ele>176</ele>
        <time>2017-12-07T09:38:53Z</time>
      </trkpt>
      <trkpt lat="45.92157" lon="4.75455">
        <ele>176</ele>
        <time>2017-12-07T09:38:54Z</time>
      </trkpt>
      <trkpt lat="45.92155" lon="4.75463">
        <ele>176</ele>
        <time>2017-12-07T09:38:55Z</time>
      </trkpt>
      <trkpt lat="45.92152" lon="4.75471">
        <ele>176</ele>
        <time>2017-12-07T09:38:56Z</time>
      </trkpt>
      <trkpt lat="45.92149" lon="4.75479">
        <ele>176</ele>
        <time>2017-12-07T09:38:57Z</time>
      </trkpt>
      <trkpt lat="45.92145" lon="4.75487">
        <ele>176</ele>
        <time>2017-12-07T09:38:58Z</time>
      </trkpt>
      <trkpt lat="45.92143" lon="4.75494">
        <ele>176</ele>
        <time>2017-12-07T09:38:59Z</time>
      </trkpt>
      <trkpt lat="45.9214" lon="4.75501">
        <ele>174</ele>
        <time>2017-12-07T09:39:00Z</time>
      </trkpt>
      <trkpt lat="45.92136" lon="4.75508">
        <ele>174</ele>
        <time>2017-12-07T09:39:01Z</time>
      </trkpt>
      <trkpt lat="45.92131" lon="4.75516">
        <ele>174</ele>
        <time>2017-12-07T09:39:02Z</time>
      </trkpt>
      <trkpt lat="45.92127" lon="4.75522">
        <ele>174</ele>
        <time>2017-12-07T09:39:03Z</time>
      </trkpt>
      <trkpt lat="45.92123" lon="4.75528">
        <ele>174</ele>
        <time>2017-12-07T09:39:04Z</time>
      </trkpt>
      <trkpt lat="45.9212" lon="4.75535">
        <ele>174</ele>
        <time>2017-12-07T09:39:05Z</time>
      </trkpt>
      <trkpt lat="45.92116" lon="4.75541">
        <ele>174</ele>
        <time>2017-12-07T09:39:06Z</time>
      </trkpt>
      <trkpt lat="45.92113" lon="4.75548">
        <ele>174</ele>
        <time>2017-12-07T09:39:07Z</time>
      </trkpt>
      <trkpt lat="45.9211" lon="4.75555">
        <ele>174</ele>
        <time>2017-12-07T09:39:08Z</time>
      </trkpt>
      <trkpt lat="45.92108" lon="4.75561">
        <ele>174</ele>
        <time>2017-12-07T09:39:09Z</time>
      </trkpt>
      <trkpt lat="45.92106" lon="4.75567">
        <ele>174</ele>
        <time>2017-12-07T09:39:10Z</time>
      </trkpt>
      <trkpt lat="45.92108" lon="4.75575">
        <ele>174</ele>
        <time>2017-12-07T09:39:11Z</time>
      </trkpt>
      <trkpt lat="45.9211" lon="4.75581">
        <ele>174</ele>
        <time>2017-12-07T09:39:12Z</time>
      </trkpt>
      <trkpt lat="45.92113" lon="4.75587">
        <ele>174</ele>
        <time>2017-12-07T09:39:13Z</time>
      </trkpt>
      <trkpt lat="45.92116" lon="4.75591">
        <ele>174</ele>
        <time>2017-12-07T09:39:14Z</time>
      </trkpt>
      <trkpt lat="45.92121" lon="4.75595">
        <ele>174</ele>
        <time>2017-12-07T09:39:15Z</time>
      </trkpt>
      <trkpt lat="45.92125" lon="4.75599">
        <ele>174</ele>
        <time>2017-12-07T09:39:16Z</time>
      </trkpt>
      <trkpt lat="45.9213" lon="4.75602">
        <ele>174</ele>
        <time>2017-12-07T09:39:17Z</time>
      </trkpt>
      <trkpt lat="45.92135" lon="4.75606">
        <ele>174</ele>
        <time>2017-12-07T09:39:18Z</time>
      </trkpt>
      <trkpt lat="45.9214" lon="4.7561">
        <ele>174</ele>
        <time>2017-12-07T09:39:19Z</time>
      </trkpt>
      <trkpt lat="45.92144" lon="4.75615">
        <ele>174</ele>
        <time>2017-12-07T09:39:20Z</time>
      </trkpt>
      <trkpt lat="45.92149" lon="4.7562">
        <ele>174</ele>
        <time>2017-12-07T09:39:21Z</time>
      </trkpt>
      <trkpt lat="45.92154" lon="4.75624">
        <ele>174</ele>
        <time>2017-12-07T09:39:22Z</time>
      </trkpt>
      <trkpt lat="45.92159" lon="4.7563">
        <ele>174</ele>
        <time>2017-12-07T09:39:23Z</time>
      </trkpt>
      <trkpt lat="45.92163" lon="4.75634">
        <ele>174</ele>
        <time>2017-12-07T09:39:24Z</time>
      </trkpt>
      <trkpt lat="45.92168" lon="4.7564">
        <ele>174</ele>
        <time>2017-12-07T09:39:25Z</time>
      </trkpt>
      <trkpt lat="45.92173" lon="4.75644">
        <ele>174</ele>
        <time>2017-12-07T09:39:26Z</time>
      </trkpt>
      <trkpt lat="45.92179" lon="4.75649">
        <ele>174</ele>
        <time>2017-12-07T09:39:27Z</time>
      </trkpt>
      <trkpt lat="45.92184" lon="4.75654">
        <ele>174</ele>
        <time>2017-12-07T09:39:28Z</time>
      </trkpt>
      <trkpt lat="45.92189" lon="4.75659">
        <ele>174</ele>
        <time>2017-12-07T09:39:29Z</time>
      </trkpt>
      <trkpt lat="45.92194" lon="4.75664">
        <ele>174</ele>
        <time>2017-12-07T09:39:30Z</time>
      </trkpt>
      <trkpt lat="45.92198" lon="4.75669">
        <ele>174</ele>
        <time>2017-12-07T09:39:31Z</time>
      </trkpt>
      <trkpt lat="45.92202" lon="4.75674">
        <ele>174</ele>
        <time>2017-12-07T09:39:32Z</time>
      </trkpt>
      <trkpt lat="45.92206" lon="4.75678">
        <ele>174</ele>
        <time>2017-12-07T09:39:33Z</time>
      </trkpt>
      <trkpt lat="45.92211" lon="4.75682">
        <ele>174</ele>
        <time>2017-12-07T09:39:34Z</time>
      </trkpt>
      <trkpt lat="45.92216" lon="4.75687">
        <ele>174</ele>
        <time>2017-12-07T09:39:35Z</time>
      </trkpt>
      <trkpt lat="45.92221" lon="4.75692">
        <ele>174</ele>
        <time>2017-12-07T09:39:36Z</time>
      </trkpt>
      <trkpt lat="45.92224" lon="4.75697">
        <ele>174</ele>
        <time>2017-12-07T09:39:37Z</time>
      </trkpt>
      <trkpt lat="45.92229" lon="4.75701">
        <ele>174</ele>
        <time>2017-12-07T09:39:38Z</time>
      </trkpt>
      <trkpt lat="45.92232" lon="4.75706">
        <ele>174</ele>
        <time>2017-12-07T09:39:39Z</time>
      </trkpt>
      <trkpt lat="45.92235" lon="4.75712">
        <ele>174</ele>
        <time>2017-12-07T09:39:40Z</time>
      </trkpt>
      <trkpt lat="45.92238" lon="4.75719">
        <ele>174</ele>
        <time>2017-12-07T09:39:41Z</time>
      </trkpt>
      <trkpt lat="45.92241" lon="4.75726">
        <ele>174</ele>
        <time>2017-12-07T09:39:42Z</time>
      </trkpt>
      <trkpt lat="45.92243" lon="4.75733">
        <ele>174</ele>
        <time>2017-12-07T09:39:43Z</time>
      </trkpt>
      <trkpt lat="45.92244" lon="4.7574">
        <ele>174</ele>
        <time>2017-12-07T09:39:44Z</time>
      </trkpt>
      <trkpt lat="45.92245" lon="4.75748">
        <ele>174</ele>
        <time>2017-12-07T09:39:45Z</time>
      </trkpt>
      <trkpt lat="45.92247" lon="4.75756">
        <ele>174</ele>
        <time>2017-12-07T09:39:46Z</time>
      </trkpt>
      <trkpt lat="45.92248" lon="4.75764">
        <ele>174</ele>
        <time>2017-12-07T09:39:47Z</time>
      </trkpt>
      <trkpt lat="45.92249" lon="4.7577">
        <ele>174</ele>
        <time>2017-12-07T09:39:48Z</time>
      </trkpt>
      <trkpt lat="45.92251" lon="4.75779">
        <ele>174</ele>
        <time>2017-12-07T09:39:49Z</time>
      </trkpt>
      <trkpt lat="45.92254" lon="4.75784">
        <ele>174</ele>
        <time>2017-12-07T09:39:50Z</time>
      </trkpt>
      <trkpt lat="45.92256" lon="4.75791">
        <ele>174</ele>
        <time>2017-12-07T09:39:51Z</time>
      </trkpt>
      <trkpt lat="45.92258" lon="4.75798">
        <ele>174</ele>
        <time>2017-12-07T09:39:52Z</time>
      </trkpt>
      <trkpt lat="45.92261" lon="4.75806">
        <ele>174</ele>
        <time>2017-12-07T09:39:53Z</time>
      </trkpt>
      <trkpt lat="45.92265" lon="4.75812">
        <ele>174</ele>
        <time>2017-12-07T09:39:54Z</time>
      </trkpt>
      <trkpt lat="45.92269" lon="4.75819">
        <ele>174</ele>
        <time>2017-12-07T09:39:55Z</time>
      </trkpt>
      <trkpt lat="45.92274" lon="4.75824">
        <ele>174</ele>
        <time>2017-12-07T09:39:56Z</time>
      </trkpt>
      <trkpt lat="45.9228" lon="4.75829">
        <ele>174</ele>
        <time>2017-12-07T09:39:57Z</time>
      </trkpt>
      <trkpt lat="45.92286" lon="4.75833">
        <ele>174</ele>
        <time>2017-12-07T09:39:58Z</time>
      </trkpt>
      <trkpt lat="45.92292" lon="4.75838">
        <ele>173</ele>
        <time>2017-12-07T09:39:59Z</time>
      </trkpt>
      <trkpt lat="45.92297" lon="4.75841">
        <ele>173</ele>
        <time>2017-12-07T09:40:00Z</time>
      </trkpt>
      <trkpt lat="45.92302" lon="4.75843">
        <ele>173</ele>
        <time>2017-12-07T09:40:01Z</time>
      </trkpt>
      <trkpt lat="45.92308" lon="4.75847">
        <ele>173</ele>
        <time>2017-12-07T09:40:02Z</time>
      </trkpt>
      <trkpt lat="45.92314" lon="4.7585">
        <ele>173</ele>
        <time>2017-12-07T09:40:03Z</time>
      </trkpt>
      <trkpt lat="45.9232" lon="4.75854">
        <ele>173</ele>
        <time>2017-12-07T09:40:04Z</time>
      </trkpt>
      <trkpt lat="45.92326" lon="4.75858">
        <ele>173</ele>
        <time>2017-12-07T09:40:05Z</time>
      </trkpt>
      <trkpt lat="45.92332" lon="4.75862">
        <ele>173</ele>
        <time>2017-12-07T09:40:06Z</time>
      </trkpt>
      <trkpt lat="45.92337" lon="4.75867">
        <ele>173</ele>
        <time>2017-12-07T09:40:07Z</time>
      </trkpt>
      <trkpt lat="45.92343" lon="4.75871">
        <ele>173</ele>
        <time>2017-12-07T09:40:08Z</time>
      </trkpt>
      <trkpt lat="45.92348" lon="4.75875">
        <ele>173</ele>
        <time>2017-12-07T09:40:09Z</time>
      </trkpt>
      <trkpt lat="45.92353" lon="4.7588">
        <ele>173</ele>
        <time>2017-12-07T09:40:10Z</time>
      </trkpt>
      <trkpt lat="45.92358" lon="4.75883">
        <ele>173</ele>
        <time>2017-12-07T09:40:11Z</time>
      </trkpt>
      <trkpt lat="45.92363" lon="4.75887">
        <ele>173</ele>
        <time>2017-12-07T09:40:12Z</time>
      </trkpt>
      <trkpt lat="45.92368" lon="4.75891">
        <ele>173</ele>
        <time>2017-12-07T09:40:13Z</time>
      </trkpt>
      <trkpt lat="45.92373" lon="4.75893">
        <ele>173</ele>
        <time>2017-12-07T09:40:14Z</time>
      </trkpt>
      <trkpt lat="45.92379" lon="4.75896">
        <ele>173</ele>
        <time>2017-12-07T09:40:15Z</time>
      </trkpt>
      <trkpt lat="45.92384" lon="4.759">
        <ele>173</ele>
        <time>2017-12-07T09:40:16Z</time>
      </trkpt>
      <trkpt lat="45.9239" lon="4.75902">
        <ele>173</ele>
        <time>2017-12-07T09:40:17Z</time>
      </trkpt>
      <trkpt lat="45.92396" lon="4.75905">
        <ele>173</ele>
        <time>2017-12-07T09:40:18Z</time>
      </trkpt>
      <trkpt lat="45.92401" lon="4.75909">
        <ele>173</ele>
        <time>2017-12-07T09:40:19Z</time>
      </trkpt>
      <trkpt lat="45.92406" lon="4.75912">
        <ele>172</ele>
        <time>2017-12-07T09:40:20Z</time>
      </trkpt>
      <trkpt lat="45.92411" lon="4.75915">
        <ele>172</ele>
        <time>2017-12-07T09:40:21Z</time>
      </trkpt>
      <trkpt lat="45.92417" lon="4.75919">
        <ele>172</ele>
        <time>2017-12-07T09:40:22Z</time>
      </trkpt>
      <trkpt lat="45.92421" lon="4.75923">
        <ele>172</ele>
        <time>2017-12-07T09:40:23Z</time>
      </trkpt>
      <trkpt lat="45.92426" lon="4.75927">
        <ele>172</ele>
        <time>2017-12-07T09:40:24Z</time>
      </trkpt>
      <trkpt lat="45.92431" lon="4.75931">
        <ele>172</ele>
        <time>2017-12-07T09:40:25Z</time>
      </trkpt>
      <trkpt lat="45.92436" lon="4.75935">
        <ele>172</ele>
        <time>2017-12-07T09:40:26Z</time>
      </trkpt>
      <trkpt lat="45.9244" lon="4.75939">
        <ele>172</ele>
        <time>2017-12-07T09:40:27Z</time>
      </trkpt>
      <trkpt lat="45.92444" lon="4.75943">
        <ele>172</ele>
        <time>2017-12-07T09:40:28Z</time>
      </trkpt>
      <trkpt lat="45.92449" lon="4.75947">
        <ele>172</ele>
        <time>2017-12-07T09:40:29Z</time>
      </trkpt>
      <trkpt lat="45.92453" lon="4.75951">
        <ele>172</ele>
        <time>2017-12-07T09:40:30Z</time>
      </trkpt>
      <trkpt lat="45.92458" lon="4.75955">
        <ele>172</ele>
        <time>2017-12-07T09:40:31Z</time>
      </trkpt>
      <trkpt lat="45.92463" lon="4.75958">
        <ele>172</ele>
        <time>2017-12-07T09:40:32Z</time>
      </trkpt>
      <trkpt lat="45.92467" lon="4.75961">
        <ele>172</ele>
        <time>2017-12-07T09:40:33Z</time>
      </trkpt>
      <trkpt lat="45.92471" lon="4.75965">
        <ele>172</ele>
        <time>2017-12-07T09:40:34Z</time>
      </trkpt>
      <trkpt lat="45.92476" lon="4.75968">
        <ele>172</ele>
        <time>2017-12-07T09:40:35Z</time>
      </trkpt>
      <trkpt lat="45.9248" lon="4.75972">
        <ele>172</ele>
        <time>2017-12-07T09:40:36Z</time>
      </trkpt>
      <trkpt lat="45.92484" lon="4.75976">
        <ele>172</ele>
        <time>2017-12-07T09:40:37Z</time>
      </trkpt>
      <trkpt lat="45.92488" lon="4.7598">
        <ele>172</ele>
        <time>2017-12-07T09:40:38Z</time>
      </trkpt>
      <trkpt lat="45.92493" lon="4.75984">
        <ele>172</ele>
        <time>2017-12-07T09:40:39Z</time>
      </trkpt>
      <trkpt lat="45.92497" lon="4.75987">
        <ele>172</ele>
        <time>2017-12-07T09:40:40Z</time>
      </trkpt>
      <trkpt lat="45.92504" lon="4.7599">
        <ele>172</ele>
        <time>2017-12-07T09:40:41Z</time>
      </trkpt>
      <trkpt lat="45.92508" lon="4.75993">
        <ele>172</ele>
        <time>2017-12-07T09:40:42Z</time>
      </trkpt>
      <trkpt lat="45.92513" lon="4.75997">
        <ele>172</ele>
        <time>2017-12-07T09:40:43Z</time>
      </trkpt>
      <trkpt lat="45.92518" lon="4.76001">
        <ele>172</ele>
        <time>2017-12-07T09:40:44Z</time>
      </trkpt>
      <trkpt lat="45.92523" lon="4.76005">
        <ele>172</ele>
        <time>2017-12-07T09:40:45Z</time>
      </trkpt>
      <trkpt lat="45.92528" lon="4.76008">
        <ele>172</ele>
        <time>2017-12-07T09:40:46Z</time>
      </trkpt>
      <trkpt lat="45.92532" lon="4.76012">
        <ele>172</ele>
        <time>2017-12-07T09:40:47Z</time>
      </trkpt>
      <trkpt lat="45.92537" lon="4.76016">
        <ele>172</ele>
        <time>2017-12-07T09:40:48Z</time>
      </trkpt>
      <trkpt lat="45.92544" lon="4.76022">
        <ele>172</ele>
        <time>2017-12-07T09:40:50Z</time>
      </trkpt>
      <trkpt lat="45.92549" lon="4.76024">
        <ele>172</ele>
        <time>2017-12-07T09:40:51Z</time>
      </trkpt>
      <trkpt lat="45.92556" lon="4.7603">
        <ele>172</ele>
        <time>2017-12-07T09:40:53Z</time>
      </trkpt>
      <trkpt lat="45.9256" lon="4.76034">
        <ele>172</ele>
        <time>2017-12-07T09:40:54Z</time>
      </trkpt>
      <trkpt lat="45.92564" lon="4.76037">
        <ele>172</ele>
        <time>2017-12-07T09:40:55Z</time>
      </trkpt>
      <trkpt lat="45.92568" lon="4.7604">
        <ele>172</ele>
        <time>2017-12-07T09:40:56Z</time>
      </trkpt>
      <trkpt lat="45.92572" lon="4.76043">
        <ele>171</ele>
        <time>2017-12-07T09:40:57Z</time>
      </trkpt>
      <trkpt lat="45.92577" lon="4.76047">
        <ele>171</ele>
        <time>2017-12-07T09:40:58Z</time>
      </trkpt>
      <trkpt lat="45.92582" lon="4.76051">
        <ele>171</ele>
        <time>2017-12-07T09:40:59Z</time>
      </trkpt>
      <trkpt lat="45.92587" lon="4.76053">
        <ele>171</ele>
        <time>2017-12-07T09:41:00Z</time>
      </trkpt>
      <trkpt lat="45.92592" lon="4.76057">
        <ele>171</ele>
        <time>2017-12-07T09:41:01Z</time>
      </trkpt>
      <trkpt lat="45.92597" lon="4.76061">
        <ele>171</ele>
        <time>2017-12-07T09:41:02Z</time>
      </trkpt>
      <trkpt lat="45.92602" lon="4.76064">
        <ele>171</ele>
        <time>2017-12-07T09:41:03Z</time>
      </trkpt>
      <trkpt lat="45.92607" lon="4.76068">
        <ele>171</ele>
        <time>2017-12-07T09:41:04Z</time>
      </trkpt>
      <trkpt lat="45.92612" lon="4.76072">
        <ele>171</ele>
        <time>2017-12-07T09:41:05Z</time>
      </trkpt>
      <trkpt lat="45.92618" lon="4.76076">
        <ele>171</ele>
        <time>2017-12-07T09:41:06Z</time>
      </trkpt>
      <trkpt lat="45.92625" lon="4.76079">
        <ele>171</ele>
        <time>2017-12-07T09:41:07Z</time>
      </trkpt>
      <trkpt lat="45.92631" lon="4.76083">
        <ele>170</ele>
        <time>2017-12-07T09:41:08Z</time>
      </trkpt>
      <trkpt lat="45.92636" lon="4.76087">
        <ele>170</ele>
        <time>2017-12-07T09:41:09Z</time>
      </trkpt>
      <trkpt lat="45.92642" lon="4.76092">
        <ele>170</ele>
        <time>2017-12-07T09:41:10Z</time>
      </trkpt>
      <trkpt lat="45.92648" lon="4.76096">
        <ele>170</ele>
        <time>2017-12-07T09:41:11Z</time>
      </trkpt>
      <trkpt lat="45.92654" lon="4.76099">
        <ele>170</ele>
        <time>2017-12-07T09:41:12Z</time>
      </trkpt>
      <trkpt lat="45.92661" lon="4.76102">
        <ele>170</ele>
        <time>2017-12-07T09:41:13Z</time>
      </trkpt>
      <trkpt lat="45.92667" lon="4.76106">
        <ele>169</ele>
        <time>2017-12-07T09:41:14Z</time>
      </trkpt>
      <trkpt lat="45.92672" lon="4.76111">
        <ele>169</ele>
        <time>2017-12-07T09:41:15Z</time>
      </trkpt>
      <trkpt lat="45.92679" lon="4.76116">
        <ele>169</ele>
        <time>2017-12-07T09:41:16Z</time>
      </trkpt>
      <trkpt lat="45.92685" lon="4.7612">
        <ele>169</ele>
        <time>2017-12-07T09:41:17Z</time>
      </trkpt>
      <trkpt lat="45.92692" lon="4.76124">
        <ele>169</ele>
        <time>2017-12-07T09:41:18Z</time>
      </trkpt>
      <trkpt lat="45.92698" lon="4.76129">
        <ele>169</ele>
        <time>2017-12-07T09:41:19Z</time>
      </trkpt>
      <trkpt lat="45.92705" lon="4.76134">
        <ele>169</ele>
        <time>2017-12-07T09:41:20Z</time>
      </trkpt>
      <trkpt lat="45.92712" lon="4.76139">
        <ele>168</ele>
        <time>2017-12-07T09:41:21Z</time>
      </trkpt>
      <trkpt lat="45.92718" lon="4.76143">
        <ele>168</ele>
        <time>2017-12-07T09:41:22Z</time>
      </trkpt>
      <trkpt lat="45.92724" lon="4.76148">
        <ele>168</ele>
        <time>2017-12-07T09:41:23Z</time>
      </trkpt>
      <trkpt lat="45.92731" lon="4.76152">
        <ele>168</ele>
        <time>2017-12-07T09:41:24Z</time>
      </trkpt>
      <trkpt lat="45.92737" lon="4.76157">
        <ele>168</ele>
        <time>2017-12-07T09:41:25Z</time>
      </trkpt>
      <trkpt lat="45.92743" lon="4.7616">
        <ele>167</ele>
        <time>2017-12-07T09:41:26Z</time>
      </trkpt>
      <trkpt lat="45.92749" lon="4.76165">
        <ele>167</ele>
        <time>2017-12-07T09:41:27Z</time>
      </trkpt>
      <trkpt lat="45.92754" lon="4.7617">
        <ele>167</ele>
        <time>2017-12-07T09:41:28Z</time>
      </trkpt>
      <trkpt lat="45.92759" lon="4.76173">
        <ele>167</ele>
        <time>2017-12-07T09:41:29Z</time>
      </trkpt>
      <trkpt lat="45.92765" lon="4.76177">
        <ele>167</ele>
        <time>2017-12-07T09:41:30Z</time>
      </trkpt>
      <trkpt lat="45.92769" lon="4.76182">
        <ele>167</ele>
        <time>2017-12-07T09:41:31Z</time>
      </trkpt>
      <trkpt lat="45.92774" lon="4.76186">
        <ele>168</ele>
        <time>2017-12-07T09:41:32Z</time>
      </trkpt>
      <trkpt lat="45.92778" lon="4.7619">
        <ele>168</ele>
        <time>2017-12-07T09:41:33Z</time>
      </trkpt>
      <trkpt lat="45.92783" lon="4.76194">
        <ele>168</ele>
        <time>2017-12-07T09:41:34Z</time>
      </trkpt>
      <trkpt lat="45.92788" lon="4.76198">
        <ele>168</ele>
        <time>2017-12-07T09:41:35Z</time>
      </trkpt>
      <trkpt lat="45.92791" lon="4.76203">
        <ele>168</ele>
        <time>2017-12-07T09:41:36Z</time>
      </trkpt>
      <trkpt lat="45.92795" lon="4.76207">
        <ele>168</ele>
        <time>2017-12-07T09:41:37Z</time>
      </trkpt>
      <trkpt lat="45.92801" lon="4.76212">
        <ele>168</ele>
        <time>2017-12-07T09:41:38Z</time>
      </trkpt>
      <trkpt lat="45.92806" lon="4.76218">
        <ele>168</ele>
        <time>2017-12-07T09:41:39Z</time>
      </trkpt>
      <trkpt lat="45.9281" lon="4.76224">
        <ele>168</ele>
        <time>2017-12-07T09:41:40Z</time>
      </trkpt>
      <trkpt lat="45.92815" lon="4.7623">
        <ele>168</ele>
        <time>2017-12-07T09:41:41Z</time>
      </trkpt>
      <trkpt lat="45.92821" lon="4.76235">
        <ele>168</ele>
        <time>2017-12-07T09:41:42Z</time>
      </trkpt>
      <trkpt lat="45.92826" lon="4.76241">
        <ele>169</ele>
        <time>2017-12-07T09:41:43Z</time>
      </trkpt>
      <trkpt lat="45.92832" lon="4.76246">
        <ele>169</ele>
        <time>2017-12-07T09:41:44Z</time>
      </trkpt>
      <trkpt lat="45.92837" lon="4.76252">
        <ele>169</ele>
        <time>2017-12-07T09:41:45Z</time>
      </trkpt>
      <trkpt lat="45.92841" lon="4.76257">
        <ele>169</ele>
        <time>2017-12-07T09:41:46Z</time>
      </trkpt>
      <trkpt lat="45.92845" lon="4.7626">
        <ele>169</ele>
        <time>2017-12-07T09:41:47Z</time>
      </trkpt>
      <trkpt lat="45.92851" lon="4.76264">
        <ele>169</ele>
        <time>2017-12-07T09:41:48Z</time>
      </trkpt>
      <trkpt lat="45.92858" lon="4.76269">
        <ele>169</ele>
        <time>2017-12-07T09:41:49Z</time>
      </trkpt>
      <trkpt lat="45.92862" lon="4.76273">
        <ele>169</ele>
        <time>2017-12-07T09:41:50Z</time>
      </trkpt>
      <trkpt lat="45.92868" lon="4.76279">
        <ele>169</ele>
        <time>2017-12-07T09:41:51Z</time>
      </trkpt>
      <trkpt lat="45.92873" lon="4.76283">
        <ele>169</ele>
        <time>2017-12-07T09:41:52Z</time>
      </trkpt>
      <trkpt lat="45.92879" lon="4.76289">
        <ele>169</ele>
        <time>2017-12-07T09:41:53Z</time>
      </trkpt>
      <trkpt lat="45.92884" lon="4.76295">
        <ele>169</ele>
        <time>2017-12-07T09:41:54Z</time>
      </trkpt>
      <trkpt lat="45.92888" lon="4.76299">
        <ele>169</ele>
        <time>2017-12-07T09:41:55Z</time>
      </trkpt>
      <trkpt lat="45.92893" lon="4.76304">
        <ele>169</ele>
        <time>2017-12-07T09:41:56Z</time>
      </trkpt>
      <trkpt lat="45.92898" lon="4.76308">
        <ele>169</ele>
        <time>2017-12-07T09:41:57Z</time>
      </trkpt>
      <trkpt lat="45.92902" lon="4.76314">
        <ele>169</ele>
        <time>2017-12-07T09:41:58Z</time>
      </trkpt>
      <trkpt lat="45.92907" lon="4.76318">
        <ele>169</ele>
        <time>2017-12-07T09:41:59Z</time>
      </trkpt>
      <trkpt lat="45.92911" lon="4.76323">
        <ele>169</ele>
        <time>2017-12-07T09:42:00Z</time>
      </trkpt>
      <trkpt lat="45.92915" lon="4.76327">
        <ele>169</ele>
        <time>2017-12-07T09:42:01Z</time>
      </trkpt>
      <trkpt lat="45.9292" lon="4.76331">
        <ele>169</ele>
        <time>2017-12-07T09:42:02Z</time>
      </trkpt>
      <trkpt lat="45.92925" lon="4.76335">
        <ele>169</ele>
        <time>2017-12-07T09:42:03Z</time>
      </trkpt>
      <trkpt lat="45.92929" lon="4.7634">
        <ele>169</ele>
        <time>2017-12-07T09:42:04Z</time>
      </trkpt>
      <trkpt lat="45.92934" lon="4.76345">
        <ele>169</ele>
        <time>2017-12-07T09:42:05Z</time>
      </trkpt>
      <trkpt lat="45.9294" lon="4.7635">
        <ele>169</ele>
        <time>2017-12-07T09:42:06Z</time>
      </trkpt>
      <trkpt lat="45.92945" lon="4.76356">
        <ele>169</ele>
        <time>2017-12-07T09:42:07Z</time>
      </trkpt>
      <trkpt lat="45.9295" lon="4.7636">
        <ele>169</ele>
        <time>2017-12-07T09:42:08Z</time>
      </trkpt>
      <trkpt lat="45.92955" lon="4.76365">
        <ele>169</ele>
        <time>2017-12-07T09:42:09Z</time>
      </trkpt>
      <trkpt lat="45.9296" lon="4.76369">
        <ele>169</ele>
        <time>2017-12-07T09:42:10Z</time>
      </trkpt>
      <trkpt lat="45.92964" lon="4.76372">
        <ele>169</ele>
        <time>2017-12-07T09:42:11Z</time>
      </trkpt>
      <trkpt lat="45.92968" lon="4.76376">
        <ele>169</ele>
        <time>2017-12-07T09:42:12Z</time>
      </trkpt>
      <trkpt lat="45.92972" lon="4.76381">
        <ele>169</ele>
        <time>2017-12-07T09:42:13Z</time>
      </trkpt>
      <trkpt lat="45.92975" lon="4.76385">
        <ele>169</ele>
        <time>2017-12-07T09:42:14Z</time>
      </trkpt>
      <trkpt lat="45.92979" lon="4.76388">
        <ele>169</ele>
        <time>2017-12-07T09:42:15Z</time>
      </trkpt>
      <trkpt lat="45.92984" lon="4.76393">
        <ele>169</ele>
        <time>2017-12-07T09:42:16Z</time>
      </trkpt>
      <trkpt lat="45.92989" lon="4.76396">
        <ele>169</ele>
        <time>2017-12-07T09:42:17Z</time>
      </trkpt>
      <trkpt lat="45.92994" lon="4.76401">
        <ele>169</ele>
        <time>2017-12-07T09:42:18Z</time>
      </trkpt>
      <trkpt lat="45.92998" lon="4.76406">
        <ele>169</ele>
        <time>2017-12-07T09:42:19Z</time>
      </trkpt>
      <trkpt lat="45.93003" lon="4.76411">
        <ele>169</ele>
        <time>2017-12-07T09:42:20Z</time>
      </trkpt>
      <trkpt lat="45.93008" lon="4.76417">
        <ele>169</ele>
        <time>2017-12-07T09:42:21Z</time>
      </trkpt>
      <trkpt lat="45.93013" lon="4.76421">
        <ele>169</ele>
        <time>2017-12-07T09:42:22Z</time>
      </trkpt>
      <trkpt lat="45.93019" lon="4.76425">
        <ele>169</ele>
        <time>2017-12-07T09:42:23Z</time>
      </trkpt>
      <trkpt lat="45.93023" lon="4.7643">
        <ele>169</ele>
        <time>2017-12-07T09:42:24Z</time>
      </trkpt>
      <trkpt lat="45.93028" lon="4.76435">
        <ele>169</ele>
        <time>2017-12-07T09:42:25Z</time>
      </trkpt>
      <trkpt lat="45.93032" lon="4.7644">
        <ele>169</ele>
        <time>2017-12-07T09:42:26Z</time>
      </trkpt>
      <trkpt lat="45.93037" lon="4.76446">
        <ele>169</ele>
        <time>2017-12-07T09:42:27Z</time>
      </trkpt>
      <trkpt lat="45.93041" lon="4.76452">
        <ele>169</ele>
        <time>2017-12-07T09:42:28Z</time>
      </trkpt>
      <trkpt lat="45.93046" lon="4.76455">
        <ele>169</ele>
        <time>2017-12-07T09:42:29Z</time>
      </trkpt>
      <trkpt lat="45.93051" lon="4.76459">
        <ele>169</ele>
        <time>2017-12-07T09:42:30Z</time>
      </trkpt>
      <trkpt lat="45.93054" lon="4.76463">
        <ele>169</ele>
        <time>2017-12-07T09:42:31Z</time>
      </trkpt>
      <trkpt lat="45.93058" lon="4.76466">
        <ele>169</ele>
        <time>2017-12-07T09:42:32Z</time>
      </trkpt>
      <trkpt lat="45.93062" lon="4.7647">
        <ele>169</ele>
        <time>2017-12-07T09:42:33Z</time>
      </trkpt>
      <trkpt lat="45.93067" lon="4.76474">
        <ele>169</ele>
        <time>2017-12-07T09:42:34Z</time>
      </trkpt>
      <trkpt lat="45.93072" lon="4.76478">
        <ele>169</ele>
        <time>2017-12-07T09:42:35Z</time>
      </trkpt>
      <trkpt lat="45.93076" lon="4.76483">
        <ele>169</ele>
        <time>2017-12-07T09:42:36Z</time>
      </trkpt>
      <trkpt lat="45.93081" lon="4.76488">
        <ele>170</ele>
        <time>2017-12-07T09:42:37Z</time>
      </trkpt>
      <trkpt lat="45.93085" lon="4.76493">
        <ele>170</ele>
        <time>2017-12-07T09:42:38Z</time>
      </trkpt>
      <trkpt lat="45.9309" lon="4.76498">
        <ele>170</ele>
        <time>2017-12-07T09:42:39Z</time>
      </trkpt>
      <trkpt lat="45.93095" lon="4.76502">
        <ele>170</ele>
        <time>2017-12-07T09:42:40Z</time>
      </trkpt>
      <trkpt lat="45.931" lon="4.76506">
        <ele>170</ele>
        <time>2017-12-07T09:42:41Z</time>
      </trkpt>
      <trkpt lat="45.93105" lon="4.76512">
        <ele>170</ele>
        <time>2017-12-07T09:42:42Z</time>
      </trkpt>
      <trkpt lat="45.93109" lon="4.76516">
        <ele>170</ele>
        <time>2017-12-07T09:42:43Z</time>
      </trkpt>
      <trkpt lat="45.93115" lon="4.7652">
        <ele>170</ele>
        <time>2017-12-07T09:42:44Z</time>
      </trkpt>
      <trkpt lat="45.9312" lon="4.76525">
        <ele>170</ele>
        <time>2017-12-07T09:42:45Z</time>
      </trkpt>
      <trkpt lat="45.93124" lon="4.7653">
        <ele>170</ele>
        <time>2017-12-07T09:42:46Z</time>
      </trkpt>
      <trkpt lat="45.93128" lon="4.76535">
        <ele>170</ele>
        <time>2017-12-07T09:42:47Z</time>
      </trkpt>
      <trkpt lat="45.93133" lon="4.7654">
        <ele>170</ele>
        <time>2017-12-07T09:42:48Z</time>
      </trkpt>
      <trkpt lat="45.93137" lon="4.76544">
        <ele>170</ele>
        <time>2017-12-07T09:42:49Z</time>
      </trkpt>
      <trkpt lat="45.93141" lon="4.76547">
        <ele>170</ele>
        <time>2017-12-07T09:42:50Z</time>
      </trkpt>
      <trkpt lat="45.93146" lon="4.7655">
        <ele>170</ele>
        <time>2017-12-07T09:42:51Z</time>
      </trkpt>
      <trkpt lat="45.93151" lon="4.76553">
        <ele>170</ele>
        <time>2017-12-07T09:42:52Z</time>
      </trkpt>
      <trkpt lat="45.93154" lon="4.76556">
        <ele>170</ele>
        <time>2017-12-07T09:42:53Z</time>
      </trkpt>
      <trkpt lat="45.93159" lon="4.76562">
        <ele>170</ele>
        <time>2017-12-07T09:42:54Z</time>
      </trkpt>
      <trkpt lat="45.93164" lon="4.76572">
        <ele>170</ele>
        <time>2017-12-07T09:42:56Z</time>
      </trkpt>
      <trkpt lat="45.93171" lon="4.76578">
        <ele>170</ele>
        <time>2017-12-07T09:42:57Z</time>
      </trkpt>
      <trkpt lat="45.93177" lon="4.76582">
        <ele>170</ele>
        <time>2017-12-07T09:42:58Z</time>
      </trkpt>
      <trkpt lat="45.93182" lon="4.76588">
        <ele>171</ele>
        <time>2017-12-07T09:42:59Z</time>
      </trkpt>
      <trkpt lat="45.93187" lon="4.76594">
        <ele>171</ele>
        <time>2017-12-07T09:43:00Z</time>
      </trkpt>
      <trkpt lat="45.93193" lon="4.766">
        <ele>170</ele>
        <time>2017-12-07T09:43:01Z</time>
      </trkpt>
      <trkpt lat="45.93198" lon="4.76605">
        <ele>170</ele>
        <time>2017-12-07T09:43:02Z</time>
      </trkpt>
      <trkpt lat="45.93202" lon="4.76611">
        <ele>170</ele>
        <time>2017-12-07T09:43:03Z</time>
      </trkpt>
      <trkpt lat="45.93207" lon="4.76615">
        <ele>170</ele>
        <time>2017-12-07T09:43:04Z</time>
      </trkpt>
      <trkpt lat="45.93211" lon="4.76619">
        <ele>170</ele>
        <time>2017-12-07T09:43:05Z</time>
      </trkpt>
      <trkpt lat="45.93217" lon="4.76623">
        <ele>170</ele>
        <time>2017-12-07T09:43:06Z</time>
      </trkpt>
      <trkpt lat="45.93222" lon="4.76627">
        <ele>170</ele>
        <time>2017-12-07T09:43:07Z</time>
      </trkpt>
      <trkpt lat="45.93225" lon="4.76632">
        <ele>170</ele>
        <time>2017-12-07T09:43:08Z</time>
      </trkpt>
      <trkpt lat="45.93229" lon="4.76635">
        <ele>171</ele>
        <time>2017-12-07T09:43:09Z</time>
      </trkpt>
      <trkpt lat="45.93236" lon="4.76642">
        <ele>171</ele>
        <time>2017-12-07T09:43:11Z</time>
      </trkpt>
      <trkpt lat="45.9324" lon="4.76646">
        <ele>171</ele>
        <time>2017-12-07T09:43:12Z</time>
      </trkpt>
      <trkpt lat="45.93244" lon="4.76649">
        <ele>171</ele>
        <time>2017-12-07T09:43:13Z</time>
      </trkpt>
      <trkpt lat="45.93248" lon="4.76655">
        <ele>171</ele>
        <time>2017-12-07T09:43:14Z</time>
      </trkpt>
      <trkpt lat="45.93252" lon="4.7666">
        <ele>171</ele>
        <time>2017-12-07T09:43:15Z</time>
      </trkpt>
      <trkpt lat="45.93256" lon="4.76663">
        <ele>171</ele>
        <time>2017-12-07T09:43:16Z</time>
      </trkpt>
      <trkpt lat="45.93261" lon="4.76669">
        <ele>172</ele>
        <time>2017-12-07T09:43:17Z</time>
      </trkpt>
      <trkpt lat="45.93265" lon="4.76674">
        <ele>172</ele>
        <time>2017-12-07T09:43:18Z</time>
      </trkpt>
      <trkpt lat="45.93271" lon="4.76678">
        <ele>172</ele>
        <time>2017-12-07T09:43:19Z</time>
      </trkpt>
      <trkpt lat="45.93274" lon="4.76682">
        <ele>172</ele>
        <time>2017-12-07T09:43:20Z</time>
      </trkpt>
      <trkpt lat="45.93278" lon="4.76688">
        <ele>172</ele>
        <time>2017-12-07T09:43:21Z</time>
      </trkpt>
      <trkpt lat="45.93282" lon="4.76694">
        <ele>172</ele>
        <time>2017-12-07T09:43:22Z</time>
      </trkpt>
      <trkpt lat="45.93286" lon="4.76698">
        <ele>172</ele>
        <time>2017-12-07T09:43:23Z</time>
      </trkpt>
      <trkpt lat="45.93291" lon="4.76701">
        <ele>172</ele>
        <time>2017-12-07T09:43:24Z</time>
      </trkpt>
      <trkpt lat="45.93296" lon="4.76705">
        <ele>172</ele>
        <time>2017-12-07T09:43:25Z</time>
      </trkpt>
      <trkpt lat="45.933" lon="4.76709">
        <ele>172</ele>
        <time>2017-12-07T09:43:26Z</time>
      </trkpt>
      <trkpt lat="45.93304" lon="4.76714">
        <ele>172</ele>
        <time>2017-12-07T09:43:27Z</time>
      </trkpt>
      <trkpt lat="45.93308" lon="4.76717">
        <ele>172</ele>
        <time>2017-12-07T09:43:28Z</time>
      </trkpt>
      <trkpt lat="45.93312" lon="4.76721">
        <ele>172</ele>
        <time>2017-12-07T09:43:29Z</time>
      </trkpt>
      <trkpt lat="45.93316" lon="4.76725">
        <ele>172</ele>
        <time>2017-12-07T09:43:30Z</time>
      </trkpt>
      <trkpt lat="45.93321" lon="4.76728">
        <ele>172</ele>
        <time>2017-12-07T09:43:31Z</time>
      </trkpt>
      <trkpt lat="45.93325" lon="4.76732">
        <ele>172</ele>
        <time>2017-12-07T09:43:32Z</time>
      </trkpt>
      <trkpt lat="45.93331" lon="4.76741">
        <ele>173</ele>
        <time>2017-12-07T09:43:34Z</time>
      </trkpt>
      <trkpt lat="45.93336" lon="4.76745">
        <ele>173</ele>
        <time>2017-12-07T09:43:35Z</time>
      </trkpt>
      <trkpt lat="45.9334" lon="4.7675">
        <ele>173</ele>
        <time>2017-12-07T09:43:36Z</time>
      </trkpt>
      <trkpt lat="45.93345" lon="4.76755">
        <ele>172</ele>
        <time>2017-12-07T09:43:37Z</time>
      </trkpt>
      <trkpt lat="45.9335" lon="4.7676">
        <ele>172</ele>
        <time>2017-12-07T09:43:38Z</time>
      </trkpt>
      <trkpt lat="45.93354" lon="4.76764">
        <ele>172</ele>
        <time>2017-12-07T09:43:39Z</time>
      </trkpt>
      <trkpt lat="45.93358" lon="4.76769">
        <ele>172</ele>
        <time>2017-12-07T09:43:40Z</time>
      </trkpt>
      <trkpt lat="45.93362" lon="4.76774">
        <ele>172</ele>
        <time>2017-12-07T09:43:41Z</time>
      </trkpt>
      <trkpt lat="45.93365" lon="4.76778">
        <ele>172</ele>
        <time>2017-12-07T09:43:42Z</time>
      </trkpt>
      <trkpt lat="45.9337" lon="4.76783">
        <ele>172</ele>
        <time>2017-12-07T09:43:43Z</time>
      </trkpt>
      <trkpt lat="45.93375" lon="4.76788">
        <ele>172</ele>
        <time>2017-12-07T09:43:44Z</time>
      </trkpt>
      <trkpt lat="45.93379" lon="4.76792">
        <ele>172</ele>
        <time>2017-12-07T09:43:45Z</time>
      </trkpt>
      <trkpt lat="45.93384" lon="4.76796">
        <ele>172</ele>
        <time>2017-12-07T09:43:46Z</time>
      </trkpt>
      <trkpt lat="45.93389" lon="4.76801">
        <ele>172</ele>
        <time>2017-12-07T09:43:47Z</time>
      </trkpt>
      <trkpt lat="45.93394" lon="4.76806">
        <ele>172</ele>
        <time>2017-12-07T09:43:48Z</time>
      </trkpt>
      <trkpt lat="45.93399" lon="4.76811">
        <ele>172</ele>
        <time>2017-12-07T09:43:49Z</time>
      </trkpt>
      <trkpt lat="45.93403" lon="4.76817">
        <ele>172</ele>
        <time>2017-12-07T09:43:50Z</time>
      </trkpt>
      <trkpt lat="45.93407" lon="4.76824">
        <ele>172</ele>
        <time>2017-12-07T09:43:51Z</time>
      </trkpt>
      <trkpt lat="45.9341" lon="4.7683">
        <ele>172</ele>
        <time>2017-12-07T09:43:52Z</time>
      </trkpt>
      <trkpt lat="45.93414" lon="4.76837">
        <ele>172</ele>
        <time>2017-12-07T09:43:53Z</time>
      </trkpt>
      <trkpt lat="45.93418" lon="4.76843">
        <ele>171</ele>
        <time>2017-12-07T09:43:54Z</time>
      </trkpt>
      <trkpt lat="45.93421" lon="4.76848">
        <ele>171</ele>
        <time>2017-12-07T09:43:55Z</time>
      </trkpt>
      <trkpt lat="45.93424" lon="4.76854">
        <ele>171</ele>
        <time>2017-12-07T09:43:56Z</time>
      </trkpt>
      <trkpt lat="45.93427" lon="4.7686">
        <ele>171</ele>
        <time>2017-12-07T09:43:57Z</time>
      </trkpt>
      <trkpt lat="45.9343" lon="4.76866">
        <ele>171</ele>
        <time>2017-12-07T09:43:58Z</time>
      </trkpt>
      <trkpt lat="45.93432" lon="4.76872">
        <ele>171</ele>
        <time>2017-12-07T09:43:59Z</time>
      </trkpt>
      <trkpt lat="45.93435" lon="4.76878">
        <ele>171</ele>
        <time>2017-12-07T09:44:00Z</time>
      </trkpt>
      <trkpt lat="45.93437" lon="4.76886">
        <ele>171</ele>
        <time>2017-12-07T09:44:01Z</time>
      </trkpt>
      <trkpt lat="45.93439" lon="4.76892">
        <ele>170</ele>
        <time>2017-12-07T09:44:02Z</time>
      </trkpt>
      <trkpt lat="45.93441" lon="4.76899">
        <ele>170</ele>
        <time>2017-12-07T09:44:03Z</time>
      </trkpt>
      <trkpt lat="45.93443" lon="4.76907">
        <ele>170</ele>
        <time>2017-12-07T09:44:04Z</time>
      </trkpt>
      <trkpt lat="45.93444" lon="4.76915">
        <ele>170</ele>
        <time>2017-12-07T09:44:05Z</time>
      </trkpt>
      <trkpt lat="45.93446" lon="4.76922">
        <ele>170</ele>
        <time>2017-12-07T09:44:06Z</time>
      </trkpt>
      <trkpt lat="45.93447" lon="4.7693">
        <ele>170</ele>
        <time>2017-12-07T09:44:07Z</time>
      </trkpt>
      <trkpt lat="45.93448" lon="4.76937">
        <ele>170</ele>
        <time>2017-12-07T09:44:08Z</time>
      </trkpt>
      <trkpt lat="45.9345" lon="4.76945">
        <ele>170</ele>
        <time>2017-12-07T09:44:09Z</time>
      </trkpt>
      <trkpt lat="45.93451" lon="4.76951">
        <ele>170</ele>
        <time>2017-12-07T09:44:10Z</time>
      </trkpt>
      <trkpt lat="45.93453" lon="4.76958">
        <ele>170</ele>
        <time>2017-12-07T09:44:11Z</time>
      </trkpt>
      <trkpt lat="45.93454" lon="4.76965">
        <ele>170</ele>
        <time>2017-12-07T09:44:12Z</time>
      </trkpt>
      <trkpt lat="45.93455" lon="4.76972">
        <ele>170</ele>
        <time>2017-12-07T09:44:13Z</time>
      </trkpt>
      <trkpt lat="45.93456" lon="4.76979">
        <ele>170</ele>
        <time>2017-12-07T09:44:14Z</time>
      </trkpt>
      <trkpt lat="45.93457" lon="4.76987">
        <ele>170</ele>
        <time>2017-12-07T09:44:15Z</time>
      </trkpt>
      <trkpt lat="45.93458" lon="4.76994">
        <ele>170</ele>
        <time>2017-12-07T09:44:16Z</time>
      </trkpt>
      <trkpt lat="45.93459" lon="4.77003">
        <ele>170</ele>
        <time>2017-12-07T09:44:17Z</time>
      </trkpt>
      <trkpt lat="45.9346" lon="4.77011">
        <ele>170</ele>
        <time>2017-12-07T09:44:18Z</time>
      </trkpt>
      <trkpt lat="45.93463" lon="4.7702">
        <ele>170</ele>
        <time>2017-12-07T09:44:19Z</time>
      </trkpt>
      <trkpt lat="45.93464" lon="4.77028">
        <ele>170</ele>
        <time>2017-12-07T09:44:20Z</time>
      </trkpt>
      <trkpt lat="45.93465" lon="4.77036">
        <ele>170</ele>
        <time>2017-12-07T09:44:21Z</time>
      </trkpt>
      <trkpt lat="45.93467" lon="4.77044">
        <ele>170</ele>
        <time>2017-12-07T09:44:22Z</time>
      </trkpt>
      <trkpt lat="45.93468" lon="4.77052">
        <ele>170</ele>
        <time>2017-12-07T09:44:23Z</time>
      </trkpt>
      <trkpt lat="45.93469" lon="4.7706">
        <ele>170</ele>
        <time>2017-12-07T09:44:24Z</time>
      </trkpt>
      <trkpt lat="45.9347" lon="4.77068">
        <ele>170</ele>
        <time>2017-12-07T09:44:25Z</time>
      </trkpt>
      <trkpt lat="45.93472" lon="4.77075">
        <ele>170</ele>
        <time>2017-12-07T09:44:26Z</time>
      </trkpt>
      <trkpt lat="45.93473" lon="4.77082">
        <ele>170</ele>
        <time>2017-12-07T09:44:27Z</time>
      </trkpt>
      <trkpt lat="45.93474" lon="4.7709">
        <ele>169</ele>
        <time>2017-12-07T09:44:28Z</time>
      </trkpt>
      <trkpt lat="45.93475" lon="4.77097">
        <ele>169</ele>
        <time>2017-12-07T09:44:29Z</time>
      </trkpt>
      <trkpt lat="45.93477" lon="4.77103">
        <ele>169</ele>
        <time>2017-12-07T09:44:30Z</time>
      </trkpt>
      <trkpt lat="45.93479" lon="4.77109">
        <ele>169</ele>
        <time>2017-12-07T09:44:31Z</time>
      </trkpt>
      <trkpt lat="45.9348" lon="4.77116">
        <ele>169</ele>
        <time>2017-12-07T09:44:32Z</time>
      </trkpt>
      <trkpt lat="45.93481" lon="4.77124">
        <ele>169</ele>
        <time>2017-12-07T09:44:33Z</time>
      </trkpt>
      <trkpt lat="45.93483" lon="4.77132">
        <ele>169</ele>
        <time>2017-12-07T09:44:34Z</time>
      </trkpt>
      <trkpt lat="45.93484" lon="4.77139">
        <ele>169</ele>
        <time>2017-12-07T09:44:35Z</time>
      </trkpt>
      <trkpt lat="45.93485" lon="4.77147">
        <ele>169</ele>
        <time>2017-12-07T09:44:36Z</time>
      </trkpt>
      <trkpt lat="45.93486" lon="4.77155">
        <ele>169</ele>
        <time>2017-12-07T09:44:37Z</time>
      </trkpt>
      <trkpt lat="45.93488" lon="4.77163">
        <ele>169</ele>
        <time>2017-12-07T09:44:38Z</time>
      </trkpt>
      <trkpt lat="45.93489" lon="4.7717">
        <ele>169</ele>
        <time>2017-12-07T09:44:39Z</time>
      </trkpt>
      <trkpt lat="45.93491" lon="4.77178">
        <ele>169</ele>
        <time>2017-12-07T09:44:40Z</time>
      </trkpt>
      <trkpt lat="45.93493" lon="4.77187">
        <ele>169</ele>
        <time>2017-12-07T09:44:41Z</time>
      </trkpt>
      <trkpt lat="45.93495" lon="4.77195">
        <ele>169</ele>
        <time>2017-12-07T09:44:42Z</time>
      </trkpt>
      <trkpt lat="45.93497" lon="4.77203">
        <ele>169</ele>
        <time>2017-12-07T09:44:43Z</time>
      </trkpt>
      <trkpt lat="45.93499" lon="4.7721">
        <ele>169</ele>
        <time>2017-12-07T09:44:44Z</time>
      </trkpt>
      <trkpt lat="45.935" lon="4.77218">
        <ele>169</ele>
        <time>2017-12-07T09:44:45Z</time>
      </trkpt>
      <trkpt lat="45.93501" lon="4.77225">
        <ele>169</ele>
        <time>2017-12-07T09:44:46Z</time>
      </trkpt>
      <trkpt lat="45.93503" lon="4.77232">
        <ele>169</ele>
        <time>2017-12-07T09:44:47Z</time>
      </trkpt>
      <trkpt lat="45.93504" lon="4.77239">
        <ele>169</ele>
        <time>2017-12-07T09:44:48Z</time>
      </trkpt>
      <trkpt lat="45.93506" lon="4.77247">
        <ele>170</ele>
        <time>2017-12-07T09:44:49Z</time>
      </trkpt>
      <trkpt lat="45.93508" lon="4.77254">
        <ele>170</ele>
        <time>2017-12-07T09:44:50Z</time>
      </trkpt>
      <trkpt lat="45.9351" lon="4.77262">
        <ele>170</ele>
        <time>2017-12-07T09:44:51Z</time>
      </trkpt>
      <trkpt lat="45.93511" lon="4.77269">
        <ele>170</ele>
        <time>2017-12-07T09:44:52Z</time>
      </trkpt>
      <trkpt lat="45.93512" lon="4.77277">
        <ele>170</ele>
        <time>2017-12-07T09:44:53Z</time>
      </trkpt>
      <trkpt lat="45.93515" lon="4.77286">
        <ele>170</ele>
        <time>2017-12-07T09:44:54Z</time>
      </trkpt>
      <trkpt lat="45.93516" lon="4.77294">
        <ele>170</ele>
        <time>2017-12-07T09:44:55Z</time>
      </trkpt>
      <trkpt lat="45.93518" lon="4.77302">
        <ele>170</ele>
        <time>2017-12-07T09:44:56Z</time>
      </trkpt>
      <trkpt lat="45.93519" lon="4.7731">
        <ele>170</ele>
        <time>2017-12-07T09:44:57Z</time>
      </trkpt>
      <trkpt lat="45.93521" lon="4.77318">
        <ele>170</ele>
        <time>2017-12-07T09:44:58Z</time>
      </trkpt>
      <trkpt lat="45.93523" lon="4.77326">
        <ele>170</ele>
        <time>2017-12-07T09:44:59Z</time>
      </trkpt>
      <trkpt lat="45.93525" lon="4.77333">
        <ele>170</ele>
        <time>2017-12-07T09:45:00Z</time>
      </trkpt>
      <trkpt lat="45.93526" lon="4.77342">
        <ele>170</ele>
        <time>2017-12-07T09:45:01Z</time>
      </trkpt>
      <trkpt lat="45.93528" lon="4.77349">
        <ele>170</ele>
        <time>2017-12-07T09:45:02Z</time>
      </trkpt>
      <trkpt lat="45.9353" lon="4.77356">
        <ele>170</ele>
        <time>2017-12-07T09:45:03Z</time>
      </trkpt>
      <trkpt lat="45.93531" lon="4.77363">
        <ele>170</ele>
        <time>2017-12-07T09:45:04Z</time>
      </trkpt>
      <trkpt lat="45.93533" lon="4.7737">
        <ele>170</ele>
        <time>2017-12-07T09:45:05Z</time>
      </trkpt>
      <trkpt lat="45.93534" lon="4.77376">
        <ele>170</ele>
        <time>2017-12-07T09:45:06Z</time>
      </trkpt>
      <trkpt lat="45.93536" lon="4.77382">
        <ele>170</ele>
        <time>2017-12-07T09:45:07Z</time>
      </trkpt>
      <trkpt lat="45.93537" lon="4.77389">
        <ele>170</ele>
        <time>2017-12-07T09:45:08Z</time>
      </trkpt>
      <trkpt lat="45.93538" lon="4.77396">
        <ele>170</ele>
        <time>2017-12-07T09:45:09Z</time>
      </trkpt>
      <trkpt lat="45.93539" lon="4.77403">
        <ele>170</ele>
        <time>2017-12-07T09:45:10Z</time>
      </trkpt>
      <trkpt lat="45.93541" lon="4.7741">
        <ele>170</ele>
        <time>2017-12-07T09:45:11Z</time>
      </trkpt>
      <trkpt lat="45.93542" lon="4.77417">
        <ele>170</ele>
        <time>2017-12-07T09:45:12Z</time>
      </trkpt>
      <trkpt lat="45.93544" lon="4.77424">
        <ele>170</ele>
        <time>2017-12-07T09:45:13Z</time>
      </trkpt>
      <trkpt lat="45.93547" lon="4.77436">
        <ele>169</ele>
        <time>2017-12-07T09:45:15Z</time>
      </trkpt>
      <trkpt lat="45.93548" lon="4.77444">
        <ele>169</ele>
        <time>2017-12-07T09:45:16Z</time>
      </trkpt>
      <trkpt lat="45.9355" lon="4.77451">
        <ele>169</ele>
        <time>2017-12-07T09:45:17Z</time>
      </trkpt>
      <trkpt lat="45.93552" lon="4.77459">
        <ele>169</ele>
        <time>2017-12-07T09:45:18Z</time>
      </trkpt>
      <trkpt lat="45.93554" lon="4.77467">
        <ele>169</ele>
        <time>2017-12-07T09:45:19Z</time>
      </trkpt>
      <trkpt lat="45.93556" lon="4.77474">
        <ele>169</ele>
        <time>2017-12-07T09:45:20Z</time>
      </trkpt>
      <trkpt lat="45.93558" lon="4.77483">
        <ele>169</ele>
        <time>2017-12-07T09:45:21Z</time>
      </trkpt>
      <trkpt lat="45.9356" lon="4.7749">
        <ele>169</ele>
        <time>2017-12-07T09:45:22Z</time>
      </trkpt>
      <trkpt lat="45.93562" lon="4.77497">
        <ele>169</ele>
        <time>2017-12-07T09:45:23Z</time>
      </trkpt>
      <trkpt lat="45.93564" lon="4.77505">
        <ele>169</ele>
        <time>2017-12-07T09:45:24Z</time>
      </trkpt>
      <trkpt lat="45.93566" lon="4.77512">
        <ele>169</ele>
        <time>2017-12-07T09:45:25Z</time>
      </trkpt>
      <trkpt lat="45.93567" lon="4.77518">
        <ele>169</ele>
        <time>2017-12-07T09:45:26Z</time>
      </trkpt>
      <trkpt lat="45.93568" lon="4.77526">
        <ele>169</ele>
        <time>2017-12-07T09:45:27Z</time>
      </trkpt>
      <trkpt lat="45.9357" lon="4.77532">
        <ele>169</ele>
        <time>2017-12-07T09:45:28Z</time>
      </trkpt>
      <trkpt lat="45.93572" lon="4.77539">
        <ele>169</ele>
        <time>2017-12-07T09:45:29Z</time>
      </trkpt>
      <trkpt lat="45.93574" lon="4.77547">
        <ele>169</ele>
        <time>2017-12-07T09:45:30Z</time>
      </trkpt>
      <trkpt lat="45.93576" lon="4.77555">
        <ele>169</ele>
        <time>2017-12-07T09:45:31Z</time>
      </trkpt>
      <trkpt lat="45.93578" lon="4.77563">
        <ele>169</ele>
        <time>2017-12-07T09:45:32Z</time>
      </trkpt>
      <trkpt lat="45.9358" lon="4.77571">
        <ele>170</ele>
        <time>2017-12-07T09:45:33Z</time>
      </trkpt>
      <trkpt lat="45.93583" lon="4.77578">
        <ele>170</ele>
        <time>2017-12-07T09:45:34Z</time>
      </trkpt>
      <trkpt lat="45.93586" lon="4.77586">
        <ele>170</ele>
        <time>2017-12-07T09:45:35Z</time>
      </trkpt>
      <trkpt lat="45.93588" lon="4.77593">
        <ele>170</ele>
        <time>2017-12-07T09:45:36Z</time>
      </trkpt>
      <trkpt lat="45.9359" lon="4.77601">
        <ele>170</ele>
        <time>2017-12-07T09:45:37Z</time>
      </trkpt>
      <trkpt lat="45.93593" lon="4.77608">
        <ele>170</ele>
        <time>2017-12-07T09:45:38Z</time>
      </trkpt>
      <trkpt lat="45.93595" lon="4.77616">
        <ele>170</ele>
        <time>2017-12-07T09:45:39Z</time>
      </trkpt>
      <trkpt lat="45.93598" lon="4.77625">
        <ele>170</ele>
        <time>2017-12-07T09:45:40Z</time>
      </trkpt>
      <trkpt lat="45.93601" lon="4.77633">
        <ele>169</ele>
        <time>2017-12-07T09:45:41Z</time>
      </trkpt>
      <trkpt lat="45.93603" lon="4.7764">
        <ele>169</ele>
        <time>2017-12-07T09:45:42Z</time>
      </trkpt>
      <trkpt lat="45.93606" lon="4.77648">
        <ele>169</ele>
        <time>2017-12-07T09:45:43Z</time>
      </trkpt>
      <trkpt lat="45.93609" lon="4.77654">
        <ele>169</ele>
        <time>2017-12-07T09:45:44Z</time>
      </trkpt>
      <trkpt lat="45.93612" lon="4.77661">
        <ele>169</ele>
        <time>2017-12-07T09:45:45Z</time>
      </trkpt>
      <trkpt lat="45.93615" lon="4.77667">
        <ele>169</ele>
        <time>2017-12-07T09:45:46Z</time>
      </trkpt>
      <trkpt lat="45.93618" lon="4.77673">
        <ele>169</ele>
        <time>2017-12-07T09:45:47Z</time>
      </trkpt>
      <trkpt lat="45.93621" lon="4.77679">
        <ele>169</ele>
        <time>2017-12-07T09:45:48Z</time>
      </trkpt>
      <trkpt lat="45.93623" lon="4.77684">
        <ele>169</ele>
        <time>2017-12-07T09:45:49Z</time>
      </trkpt>
      <trkpt lat="45.93626" lon="4.7769">
        <ele>169</ele>
        <time>2017-12-07T09:45:50Z</time>
      </trkpt>
      <trkpt lat="45.93629" lon="4.77696">
        <ele>169</ele>
        <time>2017-12-07T09:45:51Z</time>
      </trkpt>
      <trkpt lat="45.93632" lon="4.77702">
        <ele>169</ele>
        <time>2017-12-07T09:45:52Z</time>
      </trkpt>
      <trkpt lat="45.93635" lon="4.77708">
        <ele>170</ele>
        <time>2017-12-07T09:45:53Z</time>
      </trkpt>
      <trkpt lat="45.93638" lon="4.77713">
        <ele>170</ele>
        <time>2017-12-07T09:45:54Z</time>
      </trkpt>
      <trkpt lat="45.93644" lon="4.77723">
        <ele>170</ele>
        <time>2017-12-07T09:45:56Z</time>
      </trkpt>
      <trkpt lat="45.93648" lon="4.77728">
        <ele>170</ele>
        <time>2017-12-07T09:45:57Z</time>
      </trkpt>
      <trkpt lat="45.93653" lon="4.77737">
        <ele>170</ele>
        <time>2017-12-07T09:45:59Z</time>
      </trkpt>
      <trkpt lat="45.93656" lon="4.77742">
        <ele>170</ele>
        <time>2017-12-07T09:46:00Z</time>
      </trkpt>
      <trkpt lat="45.93661" lon="4.77749">
        <ele>171</ele>
        <time>2017-12-07T09:46:02Z</time>
      </trkpt>
      <trkpt lat="45.93664" lon="4.77754">
        <ele>171</ele>
        <time>2017-12-07T09:46:03Z</time>
      </trkpt>
      <trkpt lat="45.93669" lon="4.77762">
        <ele>170</ele>
        <time>2017-12-07T09:46:05Z</time>
      </trkpt>
      <trkpt lat="45.93672" lon="4.77766">
        <ele>170</ele>
        <time>2017-12-07T09:46:06Z</time>
      </trkpt>
      <trkpt lat="45.93678" lon="4.77775">
        <ele>170</ele>
        <time>2017-12-07T09:46:08Z</time>
      </trkpt>
      <trkpt lat="45.93681" lon="4.77779">
        <ele>170</ele>
        <time>2017-12-07T09:46:09Z</time>
      </trkpt>
      <trkpt lat="45.93687" lon="4.77788">
        <ele>170</ele>
        <time>2017-12-07T09:46:11Z</time>
      </trkpt>
      <trkpt lat="45.93691" lon="4.77794">
        <ele>169</ele>
        <time>2017-12-07T09:46:12Z</time>
      </trkpt>
      <trkpt lat="45.93695" lon="4.77799">
        <ele>169</ele>
        <time>2017-12-07T09:46:13Z</time>
      </trkpt>
      <trkpt lat="45.93699" lon="4.77802">
        <ele>169</ele>
        <time>2017-12-07T09:46:14Z</time>
      </trkpt>
      <trkpt lat="45.93703" lon="4.77806">
        <ele>169</ele>
        <time>2017-12-07T09:46:15Z</time>
      </trkpt>
      <trkpt lat="45.93707" lon="4.77811">
        <ele>169</ele>
        <time>2017-12-07T09:46:16Z</time>
      </trkpt>
      <trkpt lat="45.9371" lon="4.77816">
        <ele>169</ele>
        <time>2017-12-07T09:46:17Z</time>
      </trkpt>
      <trkpt lat="45.93714" lon="4.77821">
        <ele>169</ele>
        <time>2017-12-07T09:46:18Z</time>
      </trkpt>
      <trkpt lat="45.9372" lon="4.77829">
        <ele>168</ele>
        <time>2017-12-07T09:46:20Z</time>
      </trkpt>
      <trkpt lat="45.93723" lon="4.77833">
        <ele>168</ele>
        <time>2017-12-07T09:46:21Z</time>
      </trkpt>
      <trkpt lat="45.93727" lon="4.77838">
        <ele>167</ele>
        <time>2017-12-07T09:46:22Z</time>
      </trkpt>
      <trkpt lat="45.9373" lon="4.77842">
        <ele>167</ele>
        <time>2017-12-07T09:46:23Z</time>
      </trkpt>
      <trkpt lat="45.93734" lon="4.77846">
        <ele>167</ele>
        <time>2017-12-07T09:46:24Z</time>
      </trkpt>
      <trkpt lat="45.93737" lon="4.7785">
        <ele>167</ele>
        <time>2017-12-07T09:46:25Z</time>
      </trkpt>
      <trkpt lat="45.93743" lon="4.77858">
        <ele>167</ele>
        <time>2017-12-07T09:46:27Z</time>
      </trkpt>
      <trkpt lat="45.93746" lon="4.77862">
        <ele>167</ele>
        <time>2017-12-07T09:46:28Z</time>
      </trkpt>
      <trkpt lat="45.93752" lon="4.77871">
        <ele>166</ele>
        <time>2017-12-07T09:46:30Z</time>
      </trkpt>
      <trkpt lat="45.93756" lon="4.77875">
        <ele>166</ele>
        <time>2017-12-07T09:46:31Z</time>
      </trkpt>
      <trkpt lat="45.93759" lon="4.77879">
        <ele>166</ele>
        <time>2017-12-07T09:46:32Z</time>
      </trkpt>
      <trkpt lat="45.93762" lon="4.77884">
        <ele>166</ele>
        <time>2017-12-07T09:46:33Z</time>
      </trkpt>
      <trkpt lat="45.93769" lon="4.77893">
        <ele>166</ele>
        <time>2017-12-07T09:46:35Z</time>
      </trkpt>
      <trkpt lat="45.93772" lon="4.77897">
        <ele>166</ele>
        <time>2017-12-07T09:46:36Z</time>
      </trkpt>
      <trkpt lat="45.93775" lon="4.77902">
        <ele>166</ele>
        <time>2017-12-07T09:46:37Z</time>
      </trkpt>
      <trkpt lat="45.93779" lon="4.77906">
        <ele>166</ele>
        <time>2017-12-07T09:46:38Z</time>
      </trkpt>
      <trkpt lat="45.93785" lon="4.77913">
        <ele>166</ele>
        <time>2017-12-07T09:46:40Z</time>
      </trkpt>
      <trkpt lat="45.93787" lon="4.77918">
        <ele>168</ele>
        <time>2017-12-07T09:46:41Z</time>
      </trkpt>
      <trkpt lat="45.93791" lon="4.77922">
        <ele>168</ele>
        <time>2017-12-07T09:46:42Z</time>
      </trkpt>
      <trkpt lat="45.93795" lon="4.77927">
        <ele>168</ele>
        <time>2017-12-07T09:46:43Z</time>
      </trkpt>
      <trkpt lat="45.93798" lon="4.77931">
        <ele>168</ele>
        <time>2017-12-07T09:46:44Z</time>
      </trkpt>
      <trkpt lat="45.93801" lon="4.77936">
        <ele>169</ele>
        <time>2017-12-07T09:46:45Z</time>
      </trkpt>
      <trkpt lat="45.93804" lon="4.7794">
        <ele>169</ele>
        <time>2017-12-07T09:46:46Z</time>
      </trkpt>
      <trkpt lat="45.93808" lon="4.77946">
        <ele>169</ele>
        <time>2017-12-07T09:46:47Z</time>
      </trkpt>
      <trkpt lat="45.93812" lon="4.7795">
        <ele>169</ele>
        <time>2017-12-07T09:46:48Z</time>
      </trkpt>
      <trkpt lat="45.93816" lon="4.77955">
        <ele>170</ele>
        <time>2017-12-07T09:46:49Z</time>
      </trkpt>
      <trkpt lat="45.9382" lon="4.7796">
        <ele>170</ele>
        <time>2017-12-07T09:46:50Z</time>
      </trkpt>
      <trkpt lat="45.93824" lon="4.77967">
        <ele>171</ele>
        <time>2017-12-07T09:46:51Z</time>
      </trkpt>
      <trkpt lat="45.93828" lon="4.77972">
        <ele>172</ele>
        <time>2017-12-07T09:46:52Z</time>
      </trkpt>
      <trkpt lat="45.93831" lon="4.77977">
        <ele>173</ele>
        <time>2017-12-07T09:46:53Z</time>
      </trkpt>
      <trkpt lat="45.93834" lon="4.77983">
        <ele>178</ele>
        <time>2017-12-07T09:46:54Z</time>
      </trkpt>
      <trkpt lat="45.93837" lon="4.77989">
        <ele>179</ele>
        <time>2017-12-07T09:46:55Z</time>
      </trkpt>
      <trkpt lat="45.9384" lon="4.77995">
        <ele>179</ele>
        <time>2017-12-07T09:46:56Z</time>
      </trkpt>
      <trkpt lat="45.93841" lon="4.78003">
        <ele>180</ele>
        <time>2017-12-07T09:46:57Z</time>
      </trkpt>
      <trkpt lat="45.93841" lon="4.78011">
        <ele>181</ele>
        <time>2017-12-07T09:46:58Z</time>
      </trkpt>
      <trkpt lat="45.93841" lon="4.78018">
        <ele>181</ele>
        <time>2017-12-07T09:46:59Z</time>
      </trkpt>
      <trkpt lat="45.93842" lon="4.78025">
        <ele>182</ele>
        <time>2017-12-07T09:47:00Z</time>
      </trkpt>
      <trkpt lat="45.93844" lon="4.78032">
        <ele>182</ele>
        <time>2017-12-07T09:47:01Z</time>
      </trkpt>
      <trkpt lat="45.93845" lon="4.78039">
        <ele>182</ele>
        <time>2017-12-07T09:47:02Z</time>
      </trkpt>
      <trkpt lat="45.93846" lon="4.78045">
        <ele>182</ele>
        <time>2017-12-07T09:47:03Z</time>
      </trkpt>
      <trkpt lat="45.93845" lon="4.78051">
        <ele>182</ele>
        <time>2017-12-07T09:47:04Z</time>
      </trkpt>
      <trkpt lat="45.93845" lon="4.78058">
        <ele>182</ele>
        <time>2017-12-07T09:47:05Z</time>
      </trkpt>
      <trkpt lat="45.93843" lon="4.78064">
        <ele>182</ele>
        <time>2017-12-07T09:47:06Z</time>
      </trkpt>
      <trkpt lat="45.93842" lon="4.78071">
        <ele>182</ele>
        <time>2017-12-07T09:47:07Z</time>
      </trkpt>
      <trkpt lat="45.93838" lon="4.7808">
        <ele>181</ele>
        <time>2017-12-07T09:47:09Z</time>
      </trkpt>
      <trkpt lat="45.93837" lon="4.78085">
        <ele>181</ele>
        <time>2017-12-07T09:47:10Z</time>
      </trkpt>
      <trkpt lat="45.93837" lon="4.78092">
        <ele>182</ele>
        <time>2017-12-07T09:47:11Z</time>
      </trkpt>
      <trkpt lat="45.93835" lon="4.78099">
        <ele>183</ele>
        <time>2017-12-07T09:47:12Z</time>
      </trkpt>
      <trkpt lat="45.93834" lon="4.78107">
        <ele>183</ele>
        <time>2017-12-07T09:47:13Z</time>
      </trkpt>
      <trkpt lat="45.93832" lon="4.78113">
        <ele>179</ele>
        <time>2017-12-07T09:47:14Z</time>
      </trkpt>
      <trkpt lat="45.9383" lon="4.78119">
        <ele>179</ele>
        <time>2017-12-07T09:47:15Z</time>
      </trkpt>
      <trkpt lat="45.93828" lon="4.78126">
        <ele>180</ele>
        <time>2017-12-07T09:47:16Z</time>
      </trkpt>
      <trkpt lat="45.93825" lon="4.78138">
        <ele>180</ele>
        <time>2017-12-07T09:47:18Z</time>
      </trkpt>
      <trkpt lat="45.93823" lon="4.78144">
        <ele>180</ele>
        <time>2017-12-07T09:47:19Z</time>
      </trkpt>
      <trkpt lat="45.9382" lon="4.78156">
        <ele>180</ele>
        <time>2017-12-07T09:47:21Z</time>
      </trkpt>
      <trkpt lat="45.93819" lon="4.78162">
        <ele>181</ele>
        <time>2017-12-07T09:47:22Z</time>
      </trkpt>
      <trkpt lat="45.93817" lon="4.7817">
        <ele>182</ele>
        <time>2017-12-07T09:47:23Z</time>
      </trkpt>
      <trkpt lat="45.93815" lon="4.78177">
        <ele>182</ele>
        <time>2017-12-07T09:47:24Z</time>
      </trkpt>
      <trkpt lat="45.93814" lon="4.78183">
        <ele>182</ele>
        <time>2017-12-07T09:47:25Z</time>
      </trkpt>
      <trkpt lat="45.93812" lon="4.7819">
        <ele>182</ele>
        <time>2017-12-07T09:47:26Z</time>
      </trkpt>
      <trkpt lat="45.9381" lon="4.78196">
        <ele>182</ele>
        <time>2017-12-07T09:47:27Z</time>
      </trkpt>
      <trkpt lat="45.93807" lon="4.78202">
        <ele>182</ele>
        <time>2017-12-07T09:47:28Z</time>
      </trkpt>
      <trkpt lat="45.93803" lon="4.78212">
        <ele>182</ele>
        <time>2017-12-07T09:47:30Z</time>
      </trkpt>
      <trkpt lat="45.93801" lon="4.78218">
        <ele>182</ele>
        <time>2017-12-07T09:47:31Z</time>
      </trkpt>
      <trkpt lat="45.93798" lon="4.78223">
        <ele>182</ele>
        <time>2017-12-07T09:47:32Z</time>
      </trkpt>
      <trkpt lat="45.93795" lon="4.7823">
        <ele>182</ele>
        <time>2017-12-07T09:47:33Z</time>
      </trkpt>
      <trkpt lat="45.93793" lon="4.78235">
        <ele>182</ele>
        <time>2017-12-07T09:47:34Z</time>
      </trkpt>
      <trkpt lat="45.9379" lon="4.78241">
        <ele>182</ele>
        <time>2017-12-07T09:47:35Z</time>
      </trkpt>
      <trkpt lat="45.93788" lon="4.78247">
        <ele>182</ele>
        <time>2017-12-07T09:47:36Z</time>
      </trkpt>
      <trkpt lat="45.93787" lon="4.78254">
        <ele>183</ele>
        <time>2017-12-07T09:47:37Z</time>
      </trkpt>
      <trkpt lat="45.93787" lon="4.7826">
        <ele>183</ele>
        <time>2017-12-07T09:47:38Z</time>
      </trkpt>
      <trkpt lat="45.93786" lon="4.78268">
        <ele>183</ele>
        <time>2017-12-07T09:47:39Z</time>
      </trkpt>
      <trkpt lat="45.93783" lon="4.78279">
        <ele>183</ele>
        <time>2017-12-07T09:47:41Z</time>
      </trkpt>
      <trkpt lat="45.9378" lon="4.78284">
        <ele>183</ele>
        <time>2017-12-07T09:47:42Z</time>
      </trkpt>
      <trkpt lat="45.93778" lon="4.78291">
        <ele>183</ele>
        <time>2017-12-07T09:47:43Z</time>
      </trkpt>
      <trkpt lat="45.93777" lon="4.78298">
        <ele>183</ele>
        <time>2017-12-07T09:47:44Z</time>
      </trkpt>
      <trkpt lat="45.93775" lon="4.78306">
        <ele>183</ele>
        <time>2017-12-07T09:47:45Z</time>
      </trkpt>
      <trkpt lat="45.93774" lon="4.78313">
        <ele>183</ele>
        <time>2017-12-07T09:47:46Z</time>
      </trkpt>
      <trkpt lat="45.93773" lon="4.7832">
        <ele>183</ele>
        <time>2017-12-07T09:47:47Z</time>
      </trkpt>
      <trkpt lat="45.9377" lon="4.78327">
        <ele>183</ele>
        <time>2017-12-07T09:47:48Z</time>
      </trkpt>
      <trkpt lat="45.93768" lon="4.78334">
        <ele>183</ele>
        <time>2017-12-07T09:47:49Z</time>
      </trkpt>
      <trkpt lat="45.93766" lon="4.78341">
        <ele>183</ele>
        <time>2017-12-07T09:47:50Z</time>
      </trkpt>
      <trkpt lat="45.93764" lon="4.78347">
        <ele>183</ele>
        <time>2017-12-07T09:47:51Z</time>
      </trkpt>
      <trkpt lat="45.93761" lon="4.78353">
        <ele>183</ele>
        <time>2017-12-07T09:47:52Z</time>
      </trkpt>
      <trkpt lat="45.93758" lon="4.78361">
        <ele>183</ele>
        <time>2017-12-07T09:47:53Z</time>
      </trkpt>
      <trkpt lat="45.93756" lon="4.78367">
        <ele>183</ele>
        <time>2017-12-07T09:47:54Z</time>
      </trkpt>
      <trkpt lat="45.93755" lon="4.78375">
        <ele>183</ele>
        <time>2017-12-07T09:47:55Z</time>
      </trkpt>
      <trkpt lat="45.93753" lon="4.78381">
        <ele>183</ele>
        <time>2017-12-07T09:47:56Z</time>
      </trkpt>
      <trkpt lat="45.93749" lon="4.78392">
        <ele>181</ele>
        <time>2017-12-07T09:47:58Z</time>
      </trkpt>
      <trkpt lat="45.93747" lon="4.78399">
        <ele>181</ele>
        <time>2017-12-07T09:47:59Z</time>
      </trkpt>
      <trkpt lat="45.93745" lon="4.78406">
        <ele>181</ele>
        <time>2017-12-07T09:48:00Z</time>
      </trkpt>
      <trkpt lat="45.93744" lon="4.78413">
        <ele>181</ele>
        <time>2017-12-07T09:48:01Z</time>
      </trkpt>
      <trkpt lat="45.93741" lon="4.78419">
        <ele>180</ele>
        <time>2017-12-07T09:48:02Z</time>
      </trkpt>
      <trkpt lat="45.9374" lon="4.78426">
        <ele>180</ele>
        <time>2017-12-07T09:48:03Z</time>
      </trkpt>
      <trkpt lat="45.93739" lon="4.78438">
        <ele>180</ele>
        <time>2017-12-07T09:48:04Z</time>
      </trkpt>
      <trkpt lat="45.93737" lon="4.78446">
        <ele>180</ele>
        <time>2017-12-07T09:48:05Z</time>
      </trkpt>
      <trkpt lat="45.93734" lon="4.78454">
        <ele>180</ele>
        <time>2017-12-07T09:48:06Z</time>
      </trkpt>
      <trkpt lat="45.93733" lon="4.78463">
        <ele>180</ele>
        <time>2017-12-07T09:48:07Z</time>
      </trkpt>
      <trkpt lat="45.93731" lon="4.78474">
        <ele>180</ele>
        <time>2017-12-07T09:48:08Z</time>
      </trkpt>
      <trkpt lat="45.93729" lon="4.78483">
        <ele>180</ele>
        <time>2017-12-07T09:48:09Z</time>
      </trkpt>
      <trkpt lat="45.93727" lon="4.78491">
        <ele>180</ele>
        <time>2017-12-07T09:48:10Z</time>
      </trkpt>
      <trkpt lat="45.93726" lon="4.78499">
        <ele>180</ele>
        <time>2017-12-07T09:48:11Z</time>
      </trkpt>
      <trkpt lat="45.93724" lon="4.78505">
        <ele>179</ele>
        <time>2017-12-07T09:48:12Z</time>
      </trkpt>
      <trkpt lat="45.93721" lon="4.78513">
        <ele>179</ele>
        <time>2017-12-07T09:48:13Z</time>
      </trkpt>
      <trkpt lat="45.93719" lon="4.78522">
        <ele>178</ele>
        <time>2017-12-07T09:48:14Z</time>
      </trkpt>
      <trkpt lat="45.93717" lon="4.78531">
        <ele>178</ele>
        <time>2017-12-07T09:48:15Z</time>
      </trkpt>
      <trkpt lat="45.93716" lon="4.78539">
        <ele>178</ele>
        <time>2017-12-07T09:48:16Z</time>
      </trkpt>
      <trkpt lat="45.93713" lon="4.78548">
        <ele>178</ele>
        <time>2017-12-07T09:48:17Z</time>
      </trkpt>
      <trkpt lat="45.93711" lon="4.78556">
        <ele>178</ele>
        <time>2017-12-07T09:48:18Z</time>
      </trkpt>
      <trkpt lat="45.93708" lon="4.78564">
        <ele>177</ele>
        <time>2017-12-07T09:48:19Z</time>
      </trkpt>
      <trkpt lat="45.93707" lon="4.78573">
        <ele>177</ele>
        <time>2017-12-07T09:48:20Z</time>
      </trkpt>
      <trkpt lat="45.93705" lon="4.78581">
        <ele>177</ele>
        <time>2017-12-07T09:48:21Z</time>
      </trkpt>
      <trkpt lat="45.93703" lon="4.78588">
        <ele>176</ele>
        <time>2017-12-07T09:48:22Z</time>
      </trkpt>
      <trkpt lat="45.93701" lon="4.78596">
        <ele>176</ele>
        <time>2017-12-07T09:48:23Z</time>
      </trkpt>
      <trkpt lat="45.93698" lon="4.78603">
        <ele>176</ele>
        <time>2017-12-07T09:48:24Z</time>
      </trkpt>
      <trkpt lat="45.93696" lon="4.7861">
        <ele>176</ele>
        <time>2017-12-07T09:48:25Z</time>
      </trkpt>
      <trkpt lat="45.937" lon="4.78621">
        <ele>176</ele>
        <time>2017-12-07T09:48:27Z</time>
      </trkpt>
      <trkpt lat="45.93704" lon="4.78624">
        <ele>176</ele>
        <time>2017-12-07T09:48:28Z</time>
      </trkpt>
      <trkpt lat="45.93712" lon="4.78623">
        <ele>176</ele>
        <time>2017-12-07T09:48:30Z</time>
      </trkpt>
      <trkpt lat="45.93716" lon="4.78623">
        <ele>176</ele>
        <time>2017-12-07T09:48:31Z</time>
      </trkpt>
      <trkpt lat="45.93723" lon="4.7862">
        <ele>177</ele>
        <time>2017-12-07T09:48:33Z</time>
      </trkpt>
      <trkpt lat="45.93727" lon="4.7862">
        <ele>177</ele>
        <time>2017-12-07T09:48:34Z</time>
      </trkpt>
      <trkpt lat="45.93734" lon="4.78618">
        <ele>177</ele>
        <time>2017-12-07T09:48:36Z</time>
      </trkpt>
      <trkpt lat="45.93738" lon="4.78618">
        <ele>177</ele>
        <time>2017-12-07T09:48:37Z</time>
      </trkpt>
      <trkpt lat="45.93745" lon="4.78615">
        <ele>177</ele>
        <time>2017-12-07T09:48:39Z</time>
      </trkpt>
      <trkpt lat="45.93748" lon="4.78614">
        <ele>177</ele>
        <time>2017-12-07T09:48:40Z</time>
      </trkpt>
      <trkpt lat="45.93756" lon="4.78611">
        <ele>181</ele>
        <time>2017-12-07T09:48:42Z</time>
      </trkpt>
      <trkpt lat="45.93759" lon="4.78611">
        <ele>181</ele>
        <time>2017-12-07T09:48:43Z</time>
      </trkpt>
      <trkpt lat="45.93766" lon="4.78609">
        <ele>181</ele>
        <time>2017-12-07T09:48:45Z</time>
      </trkpt>
      <trkpt lat="45.9377" lon="4.78609">
        <ele>181</ele>
        <time>2017-12-07T09:48:46Z</time>
      </trkpt>
      <trkpt lat="45.93777" lon="4.78608">
        <ele>181</ele>
        <time>2017-12-07T09:48:48Z</time>
      </trkpt>
      <trkpt lat="45.9378" lon="4.78607">
        <ele>181</ele>
        <time>2017-12-07T09:48:49Z</time>
      </trkpt>
      <trkpt lat="45.93788" lon="4.78606">
        <ele>182</ele>
        <time>2017-12-07T09:48:51Z</time>
      </trkpt>
      <trkpt lat="45.93792" lon="4.78606">
        <ele>182</ele>
        <time>2017-12-07T09:48:52Z</time>
      </trkpt>
      <trkpt lat="45.938" lon="4.78604">
        <ele>183</ele>
        <time>2017-12-07T09:48:54Z</time>
      </trkpt>
      <trkpt lat="45.93804" lon="4.78603">
        <ele>183</ele>
        <time>2017-12-07T09:48:55Z</time>
      </trkpt>
      <trkpt lat="45.93812" lon="4.78602">
        <ele>183</ele>
        <time>2017-12-07T09:48:57Z</time>
      </trkpt>
      <trkpt lat="45.93816" lon="4.78601">
        <ele>184</ele>
        <time>2017-12-07T09:48:58Z</time>
      </trkpt>
      <trkpt lat="45.93824" lon="4.786">
        <ele>184</ele>
        <time>2017-12-07T09:49:00Z</time>
      </trkpt>
      <trkpt lat="45.93827" lon="4.78599">
        <ele>184</ele>
        <time>2017-12-07T09:49:01Z</time>
      </trkpt>
      <trkpt lat="45.93834" lon="4.78597">
        <ele>187</ele>
        <time>2017-12-07T09:49:03Z</time>
      </trkpt>
      <trkpt lat="45.93837" lon="4.78596">
        <ele>187</ele>
        <time>2017-12-07T09:49:04Z</time>
      </trkpt>
      <trkpt lat="45.93844" lon="4.78595">
        <ele>188</ele>
        <time>2017-12-07T09:49:06Z</time>
      </trkpt>
      <trkpt lat="45.93847" lon="4.78594">
        <ele>188</ele>
        <time>2017-12-07T09:49:07Z</time>
      </trkpt>
      <trkpt lat="45.93854" lon="4.78593">
        <ele>188</ele>
        <time>2017-12-07T09:49:09Z</time>
      </trkpt>
      <trkpt lat="45.93857" lon="4.78592">
        <ele>188</ele>
        <time>2017-12-07T09:49:10Z</time>
      </trkpt>
      <trkpt lat="45.93863" lon="4.78591">
        <ele>188</ele>
        <time>2017-12-07T09:49:12Z</time>
      </trkpt>
      <trkpt lat="45.93866" lon="4.7859">
        <ele>188</ele>
        <time>2017-12-07T09:49:13Z</time>
      </trkpt>
      <trkpt lat="45.93872" lon="4.78587">
        <ele>189</ele>
        <time>2017-12-07T09:49:15Z</time>
      </trkpt>
      <trkpt lat="45.93875" lon="4.78586">
        <ele>189</ele>
        <time>2017-12-07T09:49:16Z</time>
      </trkpt>
      <trkpt lat="45.93881" lon="4.78585">
        <ele>189</ele>
        <time>2017-12-07T09:49:18Z</time>
      </trkpt>
      <trkpt lat="45.93884" lon="4.78584">
        <ele>189</ele>
        <time>2017-12-07T09:49:19Z</time>
      </trkpt>
      <trkpt lat="45.93892" lon="4.78581">
        <ele>192</ele>
        <time>2017-12-07T09:49:22Z</time>
      </trkpt>
      <trkpt lat="45.93895" lon="4.7858">
        <ele>192</ele>
        <time>2017-12-07T09:49:23Z</time>
      </trkpt>
      <trkpt lat="45.93902" lon="4.78577">
        <ele>192</ele>
        <time>2017-12-07T09:49:26Z</time>
      </trkpt>
      <trkpt lat="45.93905" lon="4.78575">
        <ele>192</ele>
        <time>2017-12-07T09:49:27Z</time>
      </trkpt>
      <trkpt lat="45.93911" lon="4.78571">
        <ele>192</ele>
        <time>2017-12-07T09:49:29Z</time>
      </trkpt>
      <trkpt lat="45.93915" lon="4.78569">
        <ele>192</ele>
        <time>2017-12-07T09:49:30Z</time>
      </trkpt>
      <trkpt lat="45.93922" lon="4.78563">
        <ele>196</ele>
        <time>2017-12-07T09:49:33Z</time>
      </trkpt>
      <trkpt lat="45.93925" lon="4.78563">
        <ele>196</ele>
        <time>2017-12-07T09:49:34Z</time>
      </trkpt>
      <trkpt lat="45.93929" lon="4.78571">
        <ele>196</ele>
        <time>2017-12-07T09:49:36Z</time>
      </trkpt>
      <trkpt lat="45.9393" lon="4.78576">
        <ele>195</ele>
        <time>2017-12-07T09:49:37Z</time>
      </trkpt>
      <trkpt lat="45.93929" lon="4.78588">
        <ele>195</ele>
        <time>2017-12-07T09:49:39Z</time>
      </trkpt>
      <trkpt lat="45.93929" lon="4.78594">
        <ele>195</ele>
        <time>2017-12-07T09:49:40Z</time>
      </trkpt>
      <trkpt lat="45.93929" lon="4.78604">
        <ele>195</ele>
        <time>2017-12-07T09:49:42Z</time>
      </trkpt>
      <trkpt lat="45.9393" lon="4.7861">
        <ele>195</ele>
        <time>2017-12-07T09:49:43Z</time>
      </trkpt>
      <trkpt lat="45.93929" lon="4.7862">
        <ele>195</ele>
        <time>2017-12-07T09:49:45Z</time>
      </trkpt>
      <trkpt lat="45.93929" lon="4.78626">
        <ele>195</ele>
        <time>2017-12-07T09:49:46Z</time>
      </trkpt>
      <trkpt lat="45.9393" lon="4.78636">
        <ele>195</ele>
        <time>2017-12-07T09:49:48Z</time>
      </trkpt>
      <trkpt lat="45.9393" lon="4.78642">
        <ele>194</ele>
        <time>2017-12-07T09:49:49Z</time>
      </trkpt>
      <trkpt lat="45.9393" lon="4.78649">
        <ele>194</ele>
        <time>2017-12-07T09:49:50Z</time>
      </trkpt>
      <trkpt lat="45.93931" lon="4.78656">
        <ele>193</ele>
        <time>2017-12-07T09:49:51Z</time>
      </trkpt>
      <trkpt lat="45.93932" lon="4.78669">
        <ele>192</ele>
        <time>2017-12-07T09:49:53Z</time>
      </trkpt>
      <trkpt lat="45.93932" lon="4.78675">
        <ele>193</ele>
        <time>2017-12-07T09:49:54Z</time>
      </trkpt>
      <trkpt lat="45.93931" lon="4.78687">
        <ele>193</ele>
        <time>2017-12-07T09:49:56Z</time>
      </trkpt>
      <trkpt lat="45.93931" lon="4.78693">
        <ele>193</ele>
        <time>2017-12-07T09:49:57Z</time>
      </trkpt>
      <trkpt lat="45.93931" lon="4.78706">
        <ele>194</ele>
        <time>2017-12-07T09:49:59Z</time>
      </trkpt>
      <trkpt lat="45.93931" lon="4.78713">
        <ele>194</ele>
        <time>2017-12-07T09:50:00Z</time>
      </trkpt>
      <trkpt lat="45.93931" lon="4.78725">
        <ele>193</ele>
        <time>2017-12-07T09:50:02Z</time>
      </trkpt>
      <trkpt lat="45.93932" lon="4.78731">
        <ele>193</ele>
        <time>2017-12-07T09:50:03Z</time>
      </trkpt>
      <trkpt lat="45.93933" lon="4.78743">
        <ele>193</ele>
        <time>2017-12-07T09:50:05Z</time>
      </trkpt>
      <trkpt lat="45.93934" lon="4.78749">
        <ele>193</ele>
        <time>2017-12-07T09:50:06Z</time>
      </trkpt>
      <trkpt lat="45.93934" lon="4.78761">
        <ele>193</ele>
        <time>2017-12-07T09:50:08Z</time>
      </trkpt>
      <trkpt lat="45.93935" lon="4.78767">
        <ele>193</ele>
        <time>2017-12-07T09:50:09Z</time>
      </trkpt>
      <trkpt lat="45.93935" lon="4.7878">
        <ele>194</ele>
        <time>2017-12-07T09:50:11Z</time>
      </trkpt>
      <trkpt lat="45.93935" lon="4.78786">
        <ele>194</ele>
        <time>2017-12-07T09:50:12Z</time>
      </trkpt>
      <trkpt lat="45.93936" lon="4.78798">
        <ele>194</ele>
        <time>2017-12-07T09:50:14Z</time>
      </trkpt>
      <trkpt lat="45.93936" lon="4.78804">
        <ele>194</ele>
        <time>2017-12-07T09:50:15Z</time>
      </trkpt>
      <trkpt lat="45.93936" lon="4.78817">
        <ele>194</ele>
        <time>2017-12-07T09:50:17Z</time>
      </trkpt>
      <trkpt lat="45.93937" lon="4.78823">
        <ele>193</ele>
        <time>2017-12-07T09:50:18Z</time>
      </trkpt>
      <trkpt lat="45.93937" lon="4.7883">
        <ele>193</ele>
        <time>2017-12-07T09:50:19Z</time>
      </trkpt>
      <trkpt lat="45.93936" lon="4.78837">
        <ele>193</ele>
        <time>2017-12-07T09:50:20Z</time>
      </trkpt>
      <trkpt lat="45.93935" lon="4.78843">
        <ele>193</ele>
        <time>2017-12-07T09:50:21Z</time>
      </trkpt>
      <trkpt lat="45.93936" lon="4.7885">
        <ele>193</ele>
        <time>2017-12-07T09:50:22Z</time>
      </trkpt>
      <trkpt lat="45.93937" lon="4.78858">
        <ele>193</ele>
        <time>2017-12-07T09:50:23Z</time>
      </trkpt>
      <trkpt lat="45.93937" lon="4.78865">
        <ele>194</ele>
        <time>2017-12-07T09:50:24Z</time>
      </trkpt>
      <trkpt lat="45.93937" lon="4.78872">
        <ele>194</ele>
        <time>2017-12-07T09:50:25Z</time>
      </trkpt>
      <trkpt lat="45.93937" lon="4.78879">
        <ele>194</ele>
        <time>2017-12-07T09:50:26Z</time>
      </trkpt>
      <trkpt lat="45.93937" lon="4.78886">
        <ele>193</ele>
        <time>2017-12-07T09:50:27Z</time>
      </trkpt>
      <trkpt lat="45.93938" lon="4.78892">
        <ele>193</ele>
        <time>2017-12-07T09:50:28Z</time>
      </trkpt>
      <trkpt lat="45.93938" lon="4.78899">
        <ele>193</ele>
        <time>2017-12-07T09:50:29Z</time>
      </trkpt>
      <trkpt lat="45.93938" lon="4.78905">
        <ele>193</ele>
        <time>2017-12-07T09:50:30Z</time>
      </trkpt>
      <trkpt lat="45.93939" lon="4.78916">
        <ele>193</ele>
        <time>2017-12-07T09:50:32Z</time>
      </trkpt>
      <trkpt lat="45.9394" lon="4.78922">
        <ele>193</ele>
        <time>2017-12-07T09:50:33Z</time>
      </trkpt>
      <trkpt lat="45.93939" lon="4.78934">
        <ele>193</ele>
        <time>2017-12-07T09:50:35Z</time>
      </trkpt>
      <trkpt lat="45.93939" lon="4.78939">
        <ele>193</ele>
        <time>2017-12-07T09:50:36Z</time>
      </trkpt>
      <trkpt lat="45.93938" lon="4.78951">
        <ele>194</ele>
        <time>2017-12-07T09:50:38Z</time>
      </trkpt>
      <trkpt lat="45.93939" lon="4.78958">
        <ele>194</ele>
        <time>2017-12-07T09:50:39Z</time>
      </trkpt>
      <trkpt lat="45.93939" lon="4.78964">
        <ele>194</ele>
        <time>2017-12-07T09:50:40Z</time>
      </trkpt>
      <trkpt lat="45.9394" lon="4.78971">
        <ele>194</ele>
        <time>2017-12-07T09:50:41Z</time>
      </trkpt>
      <trkpt lat="45.93941" lon="4.78978">
        <ele>194</ele>
        <time>2017-12-07T09:50:42Z</time>
      </trkpt>
      <trkpt lat="45.93942" lon="4.78985">
        <ele>194</ele>
        <time>2017-12-07T09:50:43Z</time>
      </trkpt>
      <trkpt lat="45.93942" lon="4.78997">
        <ele>193</ele>
        <time>2017-12-07T09:50:45Z</time>
      </trkpt>
      <trkpt lat="45.93942" lon="4.79003">
        <ele>194</ele>
        <time>2017-12-07T09:50:46Z</time>
      </trkpt>
      <trkpt lat="45.93943" lon="4.7901">
        <ele>195</ele>
        <time>2017-12-07T09:50:47Z</time>
      </trkpt>
      <trkpt lat="45.93943" lon="4.79017">
        <ele>195</ele>
        <time>2017-12-07T09:50:48Z</time>
      </trkpt>
      <trkpt lat="45.93942" lon="4.79024">
        <ele>195</ele>
        <time>2017-12-07T09:50:49Z</time>
      </trkpt>
      <trkpt lat="45.93942" lon="4.7903">
        <ele>195</ele>
        <time>2017-12-07T09:50:50Z</time>
      </trkpt>
      <trkpt lat="45.93941" lon="4.79037">
        <ele>195</ele>
        <time>2017-12-07T09:50:51Z</time>
      </trkpt>
      <trkpt lat="45.93941" lon="4.79044">
        <ele>195</ele>
        <time>2017-12-07T09:50:52Z</time>
      </trkpt>
      <trkpt lat="45.93942" lon="4.79051">
        <ele>195</ele>
        <time>2017-12-07T09:50:53Z</time>
      </trkpt>
      <trkpt lat="45.93943" lon="4.79058">
        <ele>195</ele>
        <time>2017-12-07T09:50:54Z</time>
      </trkpt>
      <trkpt lat="45.93944" lon="4.79066">
        <ele>195</ele>
        <time>2017-12-07T09:50:55Z</time>
      </trkpt>
      <trkpt lat="45.93944" lon="4.79073">
        <ele>195</ele>
        <time>2017-12-07T09:50:56Z</time>
      </trkpt>
      <trkpt lat="45.93944" lon="4.7908">
        <ele>195</ele>
        <time>2017-12-07T09:50:57Z</time>
      </trkpt>
      <trkpt lat="45.93944" lon="4.79086">
        <ele>196</ele>
        <time>2017-12-07T09:50:58Z</time>
      </trkpt>
      <trkpt lat="45.93944" lon="4.79093">
        <ele>196</ele>
        <time>2017-12-07T09:50:59Z</time>
      </trkpt>
      <trkpt lat="45.93945" lon="4.79099">
        <ele>196</ele>
        <time>2017-12-07T09:51:00Z</time>
      </trkpt>
      <trkpt lat="45.93945" lon="4.79112">
        <ele>196</ele>
        <time>2017-12-07T09:51:02Z</time>
      </trkpt>
      <trkpt lat="45.93946" lon="4.79119">
        <ele>196</ele>
        <time>2017-12-07T09:51:03Z</time>
      </trkpt>
      <trkpt lat="45.93946" lon="4.79126">
        <ele>196</ele>
        <time>2017-12-07T09:51:04Z</time>
      </trkpt>
      <trkpt lat="45.93946" lon="4.79133">
        <ele>196</ele>
        <time>2017-12-07T09:51:05Z</time>
      </trkpt>
      <trkpt lat="45.93947" lon="4.79141">
        <ele>196</ele>
        <time>2017-12-07T09:51:06Z</time>
      </trkpt>
      <trkpt lat="45.93947" lon="4.79148">
        <ele>196</ele>
        <time>2017-12-07T09:51:07Z</time>
      </trkpt>
      <trkpt lat="45.93948" lon="4.79155">
        <ele>196</ele>
        <time>2017-12-07T09:51:08Z</time>
      </trkpt>
      <trkpt lat="45.93949" lon="4.79162">
        <ele>196</ele>
        <time>2017-12-07T09:51:09Z</time>
      </trkpt>
      <trkpt lat="45.93949" lon="4.79169">
        <ele>197</ele>
        <time>2017-12-07T09:51:10Z</time>
      </trkpt>
      <trkpt lat="45.9395" lon="4.79176">
        <ele>197</ele>
        <time>2017-12-07T09:51:11Z</time>
      </trkpt>
      <trkpt lat="45.93951" lon="4.79188">
        <ele>197</ele>
        <time>2017-12-07T09:51:13Z</time>
      </trkpt>
      <trkpt lat="45.93951" lon="4.79195">
        <ele>197</ele>
        <time>2017-12-07T09:51:14Z</time>
      </trkpt>
      <trkpt lat="45.93951" lon="4.79201">
        <ele>197</ele>
        <time>2017-12-07T09:51:15Z</time>
      </trkpt>
      <trkpt lat="45.93951" lon="4.79208">
        <ele>197</ele>
        <time>2017-12-07T09:51:16Z</time>
      </trkpt>
      <trkpt lat="45.93951" lon="4.79215">
        <ele>197</ele>
        <time>2017-12-07T09:51:17Z</time>
      </trkpt>
      <trkpt lat="45.93951" lon="4.79221">
        <ele>197</ele>
        <time>2017-12-07T09:51:18Z</time>
      </trkpt>
      <trkpt lat="45.93951" lon="4.79233">
        <ele>197</ele>
        <time>2017-12-07T09:51:20Z</time>
      </trkpt>
      <trkpt lat="45.93951" lon="4.79239">
        <ele>197</ele>
        <time>2017-12-07T09:51:21Z</time>
      </trkpt>
      <trkpt lat="45.9395" lon="4.7925">
        <ele>197</ele>
        <time>2017-12-07T09:51:23Z</time>
      </trkpt>
      <trkpt lat="45.9395" lon="4.79256">
        <ele>197</ele>
        <time>2017-12-07T09:51:24Z</time>
      </trkpt>
      <trkpt lat="45.93951" lon="4.79268">
        <ele>198</ele>
        <time>2017-12-07T09:51:26Z</time>
      </trkpt>
      <trkpt lat="45.93952" lon="4.79275">
        <ele>198</ele>
        <time>2017-12-07T09:51:27Z</time>
      </trkpt>
      <trkpt lat="45.93952" lon="4.79287">
        <ele>198</ele>
        <time>2017-12-07T09:51:29Z</time>
      </trkpt>
      <trkpt lat="45.93953" lon="4.79293">
        <ele>198</ele>
        <time>2017-12-07T09:51:30Z</time>
      </trkpt>
      <trkpt lat="45.93952" lon="4.79305">
        <ele>198</ele>
        <time>2017-12-07T09:51:32Z</time>
      </trkpt>
      <trkpt lat="45.93952" lon="4.79311">
        <ele>198</ele>
        <time>2017-12-07T09:51:33Z</time>
      </trkpt>
      <trkpt lat="45.93951" lon="4.79324">
        <ele>198</ele>
        <time>2017-12-07T09:51:35Z</time>
      </trkpt>
      <trkpt lat="45.9395" lon="4.79329">
        <ele>198</ele>
        <time>2017-12-07T09:51:36Z</time>
      </trkpt>
      <trkpt lat="45.9395" lon="4.79336">
        <ele>200</ele>
        <time>2017-12-07T09:51:37Z</time>
      </trkpt>
      <trkpt lat="45.9395" lon="4.79343">
        <ele>200</ele>
        <time>2017-12-07T09:51:38Z</time>
      </trkpt>
      <trkpt lat="45.93951" lon="4.7935">
        <ele>200</ele>
        <time>2017-12-07T09:51:39Z</time>
      </trkpt>
      <trkpt lat="45.93951" lon="4.79357">
        <ele>200</ele>
        <time>2017-12-07T09:51:40Z</time>
      </trkpt>
      <trkpt lat="45.93951" lon="4.7937">
        <ele>201</ele>
        <time>2017-12-07T09:51:42Z</time>
      </trkpt>
      <trkpt lat="45.93951" lon="4.79376">
        <ele>201</ele>
        <time>2017-12-07T09:51:43Z</time>
      </trkpt>
      <trkpt lat="45.9395" lon="4.79388">
        <ele>201</ele>
        <time>2017-12-07T09:51:45Z</time>
      </trkpt>
      <trkpt lat="45.9395" lon="4.79394">
        <ele>201</ele>
        <time>2017-12-07T09:51:46Z</time>
      </trkpt>
      <trkpt lat="45.9395" lon="4.79401">
        <ele>201</ele>
        <time>2017-12-07T09:51:47Z</time>
      </trkpt>
      <trkpt lat="45.93951" lon="4.79409">
        <ele>201</ele>
        <time>2017-12-07T09:51:48Z</time>
      </trkpt>
      <trkpt lat="45.93951" lon="4.79415">
        <ele>201</ele>
        <time>2017-12-07T09:51:49Z</time>
      </trkpt>
      <trkpt lat="45.9395" lon="4.79422">
        <ele>202</ele>
        <time>2017-12-07T09:51:50Z</time>
      </trkpt>
      <trkpt lat="45.93948" lon="4.79435">
        <ele>202</ele>
        <time>2017-12-07T09:51:52Z</time>
      </trkpt>
      <trkpt lat="45.93947" lon="4.7944">
        <ele>202</ele>
        <time>2017-12-07T09:51:53Z</time>
      </trkpt>
      <trkpt lat="45.93947" lon="4.79447">
        <ele>202</ele>
        <time>2017-12-07T09:51:54Z</time>
      </trkpt>
      <trkpt lat="45.93948" lon="4.79454">
        <ele>202</ele>
        <time>2017-12-07T09:51:55Z</time>
      </trkpt>
      <trkpt lat="45.93948" lon="4.79461">
        <ele>202</ele>
        <time>2017-12-07T09:51:56Z</time>
      </trkpt>
      <trkpt lat="45.93947" lon="4.79468">
        <ele>202</ele>
        <time>2017-12-07T09:51:57Z</time>
      </trkpt>
      <trkpt lat="45.93947" lon="4.79476">
        <ele>202</ele>
        <time>2017-12-07T09:51:58Z</time>
      </trkpt>
      <trkpt lat="45.93947" lon="4.79483">
        <ele>202</ele>
        <time>2017-12-07T09:51:59Z</time>
      </trkpt>
      <trkpt lat="45.93948" lon="4.7949">
        <ele>202</ele>
        <time>2017-12-07T09:52:00Z</time>
      </trkpt>
      <trkpt lat="45.93948" lon="4.79497">
        <ele>202</ele>
        <time>2017-12-07T09:52:01Z</time>
      </trkpt>
      <trkpt lat="45.93949" lon="4.79509">
        <ele>203</ele>
        <time>2017-12-07T09:52:03Z</time>
      </trkpt>
      <trkpt lat="45.93951" lon="4.79514">
        <ele>204</ele>
        <time>2017-12-07T09:52:04Z</time>
      </trkpt>
      <trkpt lat="45.9395" lon="4.79526">
        <ele>204</ele>
        <time>2017-12-07T09:52:06Z</time>
      </trkpt>
      <trkpt lat="45.93951" lon="4.79532">
        <ele>204</ele>
        <time>2017-12-07T09:52:07Z</time>
      </trkpt>
      <trkpt lat="45.93952" lon="4.79545">
        <ele>205</ele>
        <time>2017-12-07T09:52:09Z</time>
      </trkpt>
      <trkpt lat="45.93952" lon="4.7955">
        <ele>205</ele>
        <time>2017-12-07T09:52:10Z</time>
      </trkpt>
      <trkpt lat="45.93952" lon="4.79559">
        <ele>205</ele>
        <time>2017-12-07T09:52:12Z</time>
      </trkpt>
      <trkpt lat="45.93953" lon="4.79565">
        <ele>205</ele>
        <time>2017-12-07T09:52:13Z</time>
      </trkpt>
      <trkpt lat="45.93954" lon="4.79576">
        <ele>205</ele>
        <time>2017-12-07T09:52:15Z</time>
      </trkpt>
      <trkpt lat="45.93954" lon="4.79581">
        <ele>205</ele>
        <time>2017-12-07T09:52:16Z</time>
      </trkpt>
      <trkpt lat="45.93955" lon="4.79593">
        <ele>206</ele>
        <time>2017-12-07T09:52:18Z</time>
      </trkpt>
      <trkpt lat="45.93956" lon="4.79598">
        <ele>206</ele>
        <time>2017-12-07T09:52:19Z</time>
      </trkpt>
      <trkpt lat="45.93957" lon="4.79609">
        <ele>207</ele>
        <time>2017-12-07T09:52:21Z</time>
      </trkpt>
      <trkpt lat="45.93957" lon="4.79615">
        <ele>207</ele>
        <time>2017-12-07T09:52:22Z</time>
      </trkpt>
      <trkpt lat="45.93958" lon="4.79626">
        <ele>207</ele>
        <time>2017-12-07T09:52:24Z</time>
      </trkpt>
      <trkpt lat="45.93958" lon="4.79632">
        <ele>207</ele>
        <time>2017-12-07T09:52:25Z</time>
      </trkpt>
      <trkpt lat="45.93959" lon="4.79643">
        <ele>207</ele>
        <time>2017-12-07T09:52:27Z</time>
      </trkpt>
      <trkpt lat="45.93959" lon="4.79649">
        <ele>207</ele>
        <time>2017-12-07T09:52:28Z</time>
      </trkpt>
      <trkpt lat="45.9396" lon="4.79661">
        <ele>207</ele>
        <time>2017-12-07T09:52:30Z</time>
      </trkpt>
      <trkpt lat="45.93961" lon="4.79667">
        <ele>207</ele>
        <time>2017-12-07T09:52:31Z</time>
      </trkpt>
      <trkpt lat="45.93963" lon="4.79678">
        <ele>207</ele>
        <time>2017-12-07T09:52:33Z</time>
      </trkpt>
      <trkpt lat="45.93964" lon="4.79683">
        <ele>207</ele>
        <time>2017-12-07T09:52:34Z</time>
      </trkpt>
      <trkpt lat="45.93964" lon="4.79694">
        <ele>207</ele>
        <time>2017-12-07T09:52:36Z</time>
      </trkpt>
      <trkpt lat="45.93965" lon="4.797">
        <ele>207</ele>
        <time>2017-12-07T09:52:37Z</time>
      </trkpt>
      <trkpt lat="45.93965" lon="4.79711">
        <ele>207</ele>
        <time>2017-12-07T09:52:39Z</time>
      </trkpt>
      <trkpt lat="45.93966" lon="4.79717">
        <ele>206</ele>
        <time>2017-12-07T09:52:40Z</time>
      </trkpt>
      <trkpt lat="45.93967" lon="4.79729">
        <ele>206</ele>
        <time>2017-12-07T09:52:42Z</time>
      </trkpt>
      <trkpt lat="45.93968" lon="4.79735">
        <ele>206</ele>
        <time>2017-12-07T09:52:43Z</time>
      </trkpt>
      <trkpt lat="45.93969" lon="4.79741">
        <ele>206</ele>
        <time>2017-12-07T09:52:44Z</time>
      </trkpt>
      <trkpt lat="45.9397" lon="4.79748">
        <ele>207</ele>
        <time>2017-12-07T09:52:45Z</time>
      </trkpt>
      <trkpt lat="45.93971" lon="4.79755">
        <ele>206</ele>
        <time>2017-12-07T09:52:46Z</time>
      </trkpt>
      <trkpt lat="45.93972" lon="4.79761">
        <ele>206</ele>
        <time>2017-12-07T09:52:47Z</time>
      </trkpt>
      <trkpt lat="45.93972" lon="4.79769">
        <ele>206</ele>
        <time>2017-12-07T09:52:48Z</time>
      </trkpt>
      <trkpt lat="45.93972" lon="4.79776">
        <ele>206</ele>
        <time>2017-12-07T09:52:49Z</time>
      </trkpt>
      <trkpt lat="45.93972" lon="4.79783">
        <ele>206</ele>
        <time>2017-12-07T09:52:50Z</time>
      </trkpt>
      <trkpt lat="45.93971" lon="4.7979">
        <ele>206</ele>
        <time>2017-12-07T09:52:51Z</time>
      </trkpt>
      <trkpt lat="45.9397" lon="4.79796">
        <ele>206</ele>
        <time>2017-12-07T09:52:52Z</time>
      </trkpt>
      <trkpt lat="45.93969" lon="4.79802">
        <ele>206</ele>
        <time>2017-12-07T09:52:53Z</time>
      </trkpt>
      <trkpt lat="45.93967" lon="4.79814">
        <ele>206</ele>
        <time>2017-12-07T09:52:55Z</time>
      </trkpt>
      <trkpt lat="45.93966" lon="4.7982">
        <ele>206</ele>
        <time>2017-12-07T09:52:56Z</time>
      </trkpt>
      <trkpt lat="45.93965" lon="4.79827">
        <ele>206</ele>
        <time>2017-12-07T09:52:57Z</time>
      </trkpt>
      <trkpt lat="45.93964" lon="4.79834">
        <ele>206</ele>
        <time>2017-12-07T09:52:58Z</time>
      </trkpt>
      <trkpt lat="45.93963" lon="4.79841">
        <ele>206</ele>
        <time>2017-12-07T09:52:59Z</time>
      </trkpt>
      <trkpt lat="45.93962" lon="4.79849">
        <ele>206</ele>
        <time>2017-12-07T09:53:00Z</time>
      </trkpt>
      <trkpt lat="45.93962" lon="4.79857">
        <ele>206</ele>
        <time>2017-12-07T09:53:01Z</time>
      </trkpt>
      <trkpt lat="45.9396" lon="4.79863">
        <ele>206</ele>
        <time>2017-12-07T09:53:02Z</time>
      </trkpt>
      <trkpt lat="45.93958" lon="4.7987">
        <ele>206</ele>
        <time>2017-12-07T09:53:03Z</time>
      </trkpt>
      <trkpt lat="45.93958" lon="4.79877">
        <ele>206</ele>
        <time>2017-12-07T09:53:04Z</time>
      </trkpt>
      <trkpt lat="45.93957" lon="4.79883">
        <ele>206</ele>
        <time>2017-12-07T09:53:05Z</time>
      </trkpt>
      <trkpt lat="45.93955" lon="4.7989">
        <ele>205</ele>
        <time>2017-12-07T09:53:06Z</time>
      </trkpt>
      <trkpt lat="45.93954" lon="4.79897">
        <ele>205</ele>
        <time>2017-12-07T09:53:07Z</time>
      </trkpt>
      <trkpt lat="45.93952" lon="4.79903">
        <ele>205</ele>
        <time>2017-12-07T09:53:08Z</time>
      </trkpt>
      <trkpt lat="45.93951" lon="4.79911">
        <ele>205</ele>
        <time>2017-12-07T09:53:09Z</time>
      </trkpt>
      <trkpt lat="45.9395" lon="4.79917">
        <ele>205</ele>
        <time>2017-12-07T09:53:10Z</time>
      </trkpt>
      <trkpt lat="45.93949" lon="4.79924">
        <ele>205</ele>
        <time>2017-12-07T09:53:11Z</time>
      </trkpt>
      <trkpt lat="45.93947" lon="4.7993">
        <ele>205</ele>
        <time>2017-12-07T09:53:12Z</time>
      </trkpt>
      <trkpt lat="45.93945" lon="4.79941">
        <ele>205</ele>
        <time>2017-12-07T09:53:14Z</time>
      </trkpt>
      <trkpt lat="45.93944" lon="4.79947">
        <ele>205</ele>
        <time>2017-12-07T09:53:15Z</time>
      </trkpt>
      <trkpt lat="45.93942" lon="4.79958">
        <ele>205</ele>
        <time>2017-12-07T09:53:17Z</time>
      </trkpt>
      <trkpt lat="45.93941" lon="4.79964">
        <ele>205</ele>
        <time>2017-12-07T09:53:18Z</time>
      </trkpt>
      <trkpt lat="45.93939" lon="4.79976">
        <ele>204</ele>
        <time>2017-12-07T09:53:20Z</time>
      </trkpt>
      <trkpt lat="45.93939" lon="4.79982">
        <ele>204</ele>
        <time>2017-12-07T09:53:21Z</time>
      </trkpt>
      <trkpt lat="45.93938" lon="4.79989">
        <ele>204</ele>
        <time>2017-12-07T09:53:22Z</time>
      </trkpt>
      <trkpt lat="45.93938" lon="4.79996">
        <ele>204</ele>
        <time>2017-12-07T09:53:23Z</time>
      </trkpt>
      <trkpt lat="45.93936" lon="4.80008">
        <ele>205</ele>
        <time>2017-12-07T09:53:25Z</time>
      </trkpt>
      <trkpt lat="45.93936" lon="4.80015">
        <ele>206</ele>
        <time>2017-12-07T09:53:26Z</time>
      </trkpt>
      <trkpt lat="45.93934" lon="4.80026">
        <ele>206</ele>
        <time>2017-12-07T09:53:28Z</time>
      </trkpt>
      <trkpt lat="45.93935" lon="4.80034">
        <ele>207</ele>
        <time>2017-12-07T09:53:29Z</time>
      </trkpt>
      <trkpt lat="45.93933" lon="4.80046">
        <ele>207</ele>
        <time>2017-12-07T09:53:31Z</time>
      </trkpt>
      <trkpt lat="45.93933" lon="4.80053">
        <ele>207</ele>
        <time>2017-12-07T09:53:32Z</time>
      </trkpt>
      <trkpt lat="45.93933" lon="4.80061">
        <ele>207</ele>
        <time>2017-12-07T09:53:33Z</time>
      </trkpt>
      <trkpt lat="45.93933" lon="4.80068">
        <ele>207</ele>
        <time>2017-12-07T09:53:34Z</time>
      </trkpt>
      <trkpt lat="45.93934" lon="4.80075">
        <ele>207</ele>
        <time>2017-12-07T09:53:35Z</time>
      </trkpt>
      <trkpt lat="45.93934" lon="4.80082">
        <ele>207</ele>
        <time>2017-12-07T09:53:36Z</time>
      </trkpt>
      <trkpt lat="45.93935" lon="4.80089">
        <ele>208</ele>
        <time>2017-12-07T09:53:37Z</time>
      </trkpt>
      <trkpt lat="45.93936" lon="4.80096">
        <ele>208</ele>
        <time>2017-12-07T09:53:38Z</time>
      </trkpt>
      <trkpt lat="45.93938" lon="4.80108">
        <ele>208</ele>
        <time>2017-12-07T09:53:40Z</time>
      </trkpt>
      <trkpt lat="45.93938" lon="4.80114">
        <ele>208</ele>
        <time>2017-12-07T09:53:41Z</time>
      </trkpt>
      <trkpt lat="45.9394" lon="4.80126">
        <ele>208</ele>
        <time>2017-12-07T09:53:43Z</time>
      </trkpt>
      <trkpt lat="45.9394" lon="4.80133">
        <ele>208</ele>
        <time>2017-12-07T09:53:44Z</time>
      </trkpt>
      <trkpt lat="45.93941" lon="4.80139">
        <ele>208</ele>
        <time>2017-12-07T09:53:45Z</time>
      </trkpt>
      <trkpt lat="45.93942" lon="4.80146">
        <ele>208</ele>
        <time>2017-12-07T09:53:46Z</time>
      </trkpt>
      <trkpt lat="45.93944" lon="4.80153">
        <ele>208</ele>
        <time>2017-12-07T09:53:47Z</time>
      </trkpt>
      <trkpt lat="45.93946" lon="4.80159">
        <ele>208</ele>
        <time>2017-12-07T09:53:48Z</time>
      </trkpt>
      <trkpt lat="45.93948" lon="4.80166">
        <ele>208</ele>
        <time>2017-12-07T09:53:49Z</time>
      </trkpt>
      <trkpt lat="45.93949" lon="4.80173">
        <ele>206</ele>
        <time>2017-12-07T09:53:50Z</time>
      </trkpt>
      <trkpt lat="45.93951" lon="4.80181">
        <ele>206</ele>
        <time>2017-12-07T09:53:51Z</time>
      </trkpt>
      <trkpt lat="45.93952" lon="4.80188">
        <ele>206</ele>
        <time>2017-12-07T09:53:52Z</time>
      </trkpt>
      <trkpt lat="45.93953" lon="4.80196">
        <ele>205</ele>
        <time>2017-12-07T09:53:53Z</time>
      </trkpt>
      <trkpt lat="45.93955" lon="4.80203">
        <ele>205</ele>
        <time>2017-12-07T09:53:54Z</time>
      </trkpt>
      <trkpt lat="45.93956" lon="4.8021">
        <ele>205</ele>
        <time>2017-12-07T09:53:55Z</time>
      </trkpt>
      <trkpt lat="45.93958" lon="4.80216">
        <ele>205</ele>
        <time>2017-12-07T09:53:56Z</time>
      </trkpt>
      <trkpt lat="45.9396" lon="4.80223">
        <ele>205</ele>
        <time>2017-12-07T09:53:57Z</time>
      </trkpt>
      <trkpt lat="45.93961" lon="4.80229">
        <ele>205</ele>
        <time>2017-12-07T09:53:58Z</time>
      </trkpt>
      <trkpt lat="45.93962" lon="4.80236">
        <ele>204</ele>
        <time>2017-12-07T09:53:59Z</time>
      </trkpt>
      <trkpt lat="45.93964" lon="4.80242">
        <ele>204</ele>
        <time>2017-12-07T09:54:00Z</time>
      </trkpt>
      <trkpt lat="45.93966" lon="4.80248">
        <ele>204</ele>
        <time>2017-12-07T09:54:01Z</time>
      </trkpt>
      <trkpt lat="45.93968" lon="4.80254">
        <ele>202</ele>
        <time>2017-12-07T09:54:02Z</time>
      </trkpt>
      <trkpt lat="45.9397" lon="4.80261">
        <ele>202</ele>
        <time>2017-12-07T09:54:03Z</time>
      </trkpt>
      <trkpt lat="45.93971" lon="4.80268">
        <ele>202</ele>
        <time>2017-12-07T09:54:04Z</time>
      </trkpt>
      <trkpt lat="45.93972" lon="4.80274">
        <ele>202</ele>
        <time>2017-12-07T09:54:05Z</time>
      </trkpt>
      <trkpt lat="45.93974" lon="4.8028">
        <ele>203</ele>
        <time>2017-12-07T09:54:06Z</time>
      </trkpt>
      <trkpt lat="45.93978" lon="4.80291">
        <ele>203</ele>
        <time>2017-12-07T09:54:08Z</time>
      </trkpt>
      <trkpt lat="45.9398" lon="4.80296">
        <ele>203</ele>
        <time>2017-12-07T09:54:09Z</time>
      </trkpt>
      <trkpt lat="45.93984" lon="4.80306">
        <ele>203</ele>
        <time>2017-12-07T09:54:11Z</time>
      </trkpt>
      <trkpt lat="45.93986" lon="4.8031">
        <ele>203</ele>
        <time>2017-12-07T09:54:12Z</time>
      </trkpt>
      <trkpt lat="45.93988" lon="4.80319">
        <ele>204</ele>
        <time>2017-12-07T09:54:14Z</time>
      </trkpt>
      <trkpt lat="45.93989" lon="4.80324">
        <ele>204</ele>
        <time>2017-12-07T09:54:15Z</time>
      </trkpt>
      <trkpt lat="45.93992" lon="4.80333">
        <ele>205</ele>
        <time>2017-12-07T09:54:17Z</time>
      </trkpt>
      <trkpt lat="45.93993" lon="4.80338">
        <ele>206</ele>
        <time>2017-12-07T09:54:18Z</time>
      </trkpt>
      <trkpt lat="45.93994" lon="4.80346">
        <ele>206</ele>
        <time>2017-12-07T09:54:20Z</time>
      </trkpt>
      <trkpt lat="45.93996" lon="4.80351">
        <ele>206</ele>
        <time>2017-12-07T09:54:21Z</time>
      </trkpt>
      <trkpt lat="45.93998" lon="4.80359">
        <ele>207</ele>
        <time>2017-12-07T09:54:23Z</time>
      </trkpt>
      <trkpt lat="45.94" lon="4.80363">
        <ele>207</ele>
        <time>2017-12-07T09:54:24Z</time>
      </trkpt>
      <trkpt lat="45.94002" lon="4.80371">
        <ele>215</ele>
        <time>2017-12-07T09:54:26Z</time>
      </trkpt>
      <trkpt lat="45.94003" lon="4.80375">
        <ele>216</ele>
        <time>2017-12-07T09:54:27Z</time>
      </trkpt>
      <trkpt lat="45.94005" lon="4.80383">
        <ele>217</ele>
        <time>2017-12-07T09:54:29Z</time>
      </trkpt>
      <trkpt lat="45.94006" lon="4.80388">
        <ele>217</ele>
        <time>2017-12-07T09:54:30Z</time>
      </trkpt>
      <trkpt lat="45.94008" lon="4.80397">
        <ele>217</ele>
        <time>2017-12-07T09:54:32Z</time>
      </trkpt>
      <trkpt lat="45.94009" lon="4.80401">
        <ele>217</ele>
        <time>2017-12-07T09:54:33Z</time>
      </trkpt>
      <trkpt lat="45.94012" lon="4.80413">
        <ele>217</ele>
        <time>2017-12-07T09:54:36Z</time>
      </trkpt>
      <trkpt lat="45.94014" lon="4.80417">
        <ele>220</ele>
        <time>2017-12-07T09:54:37Z</time>
      </trkpt>
      <trkpt lat="45.94016" lon="4.80425">
        <ele>221</ele>
        <time>2017-12-07T09:54:39Z</time>
      </trkpt>
      <trkpt lat="45.94017" lon="4.80429">
        <ele>221</ele>
        <time>2017-12-07T09:54:40Z</time>
      </trkpt>
      <trkpt lat="45.94018" lon="4.80439">
        <ele>222</ele>
        <time>2017-12-07T09:54:42Z</time>
      </trkpt>
      <trkpt lat="45.94019" lon="4.80443">
        <ele>223</ele>
        <time>2017-12-07T09:54:43Z</time>
      </trkpt>
      <trkpt lat="45.94019" lon="4.80452">
        <ele>223</ele>
        <time>2017-12-07T09:54:45Z</time>
      </trkpt>
      <trkpt lat="45.94019" lon="4.80457">
        <ele>223</ele>
        <time>2017-12-07T09:54:46Z</time>
      </trkpt>
      <trkpt lat="45.94019" lon="4.80466">
        <ele>223</ele>
        <time>2017-12-07T09:54:48Z</time>
      </trkpt>
      <trkpt lat="45.94019" lon="4.8047">
        <ele>223</ele>
        <time>2017-12-07T09:54:49Z</time>
      </trkpt>
      <trkpt lat="45.9402" lon="4.80482">
        <ele>223</ele>
        <time>2017-12-07T09:54:52Z</time>
      </trkpt>
      <trkpt lat="45.9402" lon="4.80486">
        <ele>223</ele>
        <time>2017-12-07T09:54:53Z</time>
      </trkpt>
      <trkpt lat="45.94019" lon="4.80497">
        <ele>222</ele>
        <time>2017-12-07T09:54:56Z</time>
      </trkpt>
      <trkpt lat="45.94019" lon="4.80502">
        <ele>223</ele>
        <time>2017-12-07T09:54:57Z</time>
      </trkpt>
      <trkpt lat="45.9402" lon="4.80514">
        <ele>224</ele>
        <time>2017-12-07T09:55:00Z</time>
      </trkpt>
      <trkpt lat="45.9402" lon="4.80517">
        <ele>224</ele>
        <time>2017-12-07T09:55:01Z</time>
      </trkpt>
      <trkpt lat="45.9402" lon="4.80526">
        <ele>224</ele>
        <time>2017-12-07T09:55:03Z</time>
      </trkpt>
      <trkpt lat="45.9402" lon="4.8053">
        <ele>224</ele>
        <time>2017-12-07T09:55:04Z</time>
      </trkpt>
      <trkpt lat="45.94019" lon="4.80539">
        <ele>225</ele>
        <time>2017-12-07T09:55:06Z</time>
      </trkpt>
      <trkpt lat="45.94019" lon="4.80544">
        <ele>225</ele>
        <time>2017-12-07T09:55:07Z</time>
      </trkpt>
      <trkpt lat="45.9402" lon="4.80553">
        <ele>224</ele>
        <time>2017-12-07T09:55:09Z</time>
      </trkpt>
      <trkpt lat="45.94021" lon="4.80557">
        <ele>224</ele>
        <time>2017-12-07T09:55:10Z</time>
      </trkpt>
      <trkpt lat="45.94022" lon="4.8057">
        <ele>224</ele>
        <time>2017-12-07T09:55:14Z</time>
      </trkpt>
      <trkpt lat="45.94022" lon="4.80573">
        <ele>224</ele>
        <time>2017-12-07T09:55:15Z</time>
      </trkpt>
      <trkpt lat="45.94022" lon="4.80582">
        <ele>223</ele>
        <time>2017-12-07T09:55:17Z</time>
      </trkpt>
      <trkpt lat="45.94023" lon="4.80586">
        <ele>223</ele>
        <time>2017-12-07T09:55:18Z</time>
      </trkpt>
      <trkpt lat="45.94024" lon="4.80595">
        <ele>224</ele>
        <time>2017-12-07T09:55:20Z</time>
      </trkpt>
      <trkpt lat="45.94024" lon="4.806">
        <ele>224</ele>
        <time>2017-12-07T09:55:21Z</time>
      </trkpt>
      <trkpt lat="45.94024" lon="4.80608">
        <ele>224</ele>
        <time>2017-12-07T09:55:23Z</time>
      </trkpt>
      <trkpt lat="45.94025" lon="4.80612">
        <ele>225</ele>
        <time>2017-12-07T09:55:24Z</time>
      </trkpt>
      <trkpt lat="45.94026" lon="4.80621">
        <ele>225</ele>
        <time>2017-12-07T09:55:26Z</time>
      </trkpt>
      <trkpt lat="45.94027" lon="4.80626">
        <ele>225</ele>
        <time>2017-12-07T09:55:27Z</time>
      </trkpt>
      <trkpt lat="45.94029" lon="4.80638">
        <ele>225</ele>
        <time>2017-12-07T09:55:30Z</time>
      </trkpt>
      <trkpt lat="45.94029" lon="4.80642">
        <ele>225</ele>
        <time>2017-12-07T09:55:31Z</time>
      </trkpt>
      <trkpt lat="45.9403" lon="4.80654">
        <ele>225</ele>
        <time>2017-12-07T09:55:34Z</time>
      </trkpt>
      <trkpt lat="45.9403" lon="4.80659">
        <ele>224</ele>
        <time>2017-12-07T09:55:35Z</time>
      </trkpt>
      <trkpt lat="45.94032" lon="4.80668">
        <ele>225</ele>
        <time>2017-12-07T09:55:37Z</time>
      </trkpt>
      <trkpt lat="45.94033" lon="4.80672">
        <ele>225</ele>
        <time>2017-12-07T09:55:38Z</time>
      </trkpt>
      <trkpt lat="45.94035" lon="4.80681">
        <ele>225</ele>
        <time>2017-12-07T09:55:40Z</time>
      </trkpt>
      <trkpt lat="45.94035" lon="4.80686">
        <ele>226</ele>
        <time>2017-12-07T09:55:41Z</time>
      </trkpt>
      <trkpt lat="45.94037" lon="4.80698">
        <ele>226</ele>
        <time>2017-12-07T09:55:44Z</time>
      </trkpt>
      <trkpt lat="45.94038" lon="4.80702">
        <ele>226</ele>
        <time>2017-12-07T09:55:45Z</time>
      </trkpt>
      <trkpt lat="45.94038" lon="4.80715">
        <ele>226</ele>
        <time>2017-12-07T09:55:48Z</time>
      </trkpt>
      <trkpt lat="45.94038" lon="4.80719">
        <ele>226</ele>
        <time>2017-12-07T09:55:49Z</time>
      </trkpt>
      <trkpt lat="45.94039" lon="4.80728">
        <ele>227</ele>
        <time>2017-12-07T09:55:51Z</time>
      </trkpt>
      <trkpt lat="45.9404" lon="4.80732">
        <ele>227</ele>
        <time>2017-12-07T09:55:52Z</time>
      </trkpt>
      <trkpt lat="45.94041" lon="4.80741">
        <ele>227</ele>
        <time>2017-12-07T09:55:54Z</time>
      </trkpt>
      <trkpt lat="45.94042" lon="4.80745">
        <ele>227</ele>
        <time>2017-12-07T09:55:55Z</time>
      </trkpt>
      <trkpt lat="45.94042" lon="4.80755">
        <ele>228</ele>
        <time>2017-12-07T09:55:58Z</time>
      </trkpt>
      <trkpt lat="45.94042" lon="4.80759">
        <ele>228</ele>
        <time>2017-12-07T09:55:59Z</time>
      </trkpt>
      <trkpt lat="45.94042" lon="4.80771">
        <ele>228</ele>
        <time>2017-12-07T09:56:02Z</time>
      </trkpt>
      <trkpt lat="45.94043" lon="4.80774">
        <ele>228</ele>
        <time>2017-12-07T09:56:03Z</time>
      </trkpt>
      <trkpt lat="45.94046" lon="4.80785">
        <ele>228</ele>
        <time>2017-12-07T09:56:06Z</time>
      </trkpt>
      <trkpt lat="45.94046" lon="4.80789">
        <ele>229</ele>
        <time>2017-12-07T09:56:07Z</time>
      </trkpt>
      <trkpt lat="45.94048" lon="4.808">
        <ele>229</ele>
        <time>2017-12-07T09:56:10Z</time>
      </trkpt>
      <trkpt lat="45.94048" lon="4.80803">
        <ele>229</ele>
        <time>2017-12-07T09:56:11Z</time>
      </trkpt>
      <trkpt lat="45.9405" lon="4.80815">
        <ele>230</ele>
        <time>2017-12-07T09:56:14Z</time>
      </trkpt>
      <trkpt lat="45.94051" lon="4.80819">
        <ele>230</ele>
        <time>2017-12-07T09:56:15Z</time>
      </trkpt>
      <trkpt lat="45.94052" lon="4.8083">
        <ele>230</ele>
        <time>2017-12-07T09:56:18Z</time>
      </trkpt>
      <trkpt lat="45.94052" lon="4.80834">
        <ele>231</ele>
        <time>2017-12-07T09:56:19Z</time>
      </trkpt>
      <trkpt lat="45.94054" lon="4.80846">
        <ele>231</ele>
        <time>2017-12-07T09:56:22Z</time>
      </trkpt>
      <trkpt lat="45.94055" lon="4.8085">
        <ele>231</ele>
        <time>2017-12-07T09:56:23Z</time>
      </trkpt>
      <trkpt lat="45.94056" lon="4.80859">
        <ele>231</ele>
        <time>2017-12-07T09:56:25Z</time>
      </trkpt>
      <trkpt lat="45.94056" lon="4.80863">
        <ele>231</ele>
        <time>2017-12-07T09:56:26Z</time>
      </trkpt>
      <trkpt lat="45.94057" lon="4.80875">
        <ele>230</ele>
        <time>2017-12-07T09:56:29Z</time>
      </trkpt>
      <trkpt lat="45.94057" lon="4.80878">
        <ele>230</ele>
        <time>2017-12-07T09:56:30Z</time>
      </trkpt>
      <trkpt lat="45.94058" lon="4.80889">
        <ele>231</ele>
        <time>2017-12-07T09:56:33Z</time>
      </trkpt>
      <trkpt lat="45.94058" lon="4.80892">
        <ele>231</ele>
        <time>2017-12-07T09:56:34Z</time>
      </trkpt>
      <trkpt lat="45.94059" lon="4.80904">
        <ele>232</ele>
        <time>2017-12-07T09:56:37Z</time>
      </trkpt>
      <trkpt lat="45.94059" lon="4.80908">
        <ele>232</ele>
        <time>2017-12-07T09:56:38Z</time>
      </trkpt>
      <trkpt lat="45.94061" lon="4.8092">
        <ele>233</ele>
        <time>2017-12-07T09:56:41Z</time>
      </trkpt>
      <trkpt lat="45.94062" lon="4.80923">
        <ele>233</ele>
        <time>2017-12-07T09:56:42Z</time>
      </trkpt>
      <trkpt lat="45.94064" lon="4.80934">
        <ele>233</ele>
        <time>2017-12-07T09:56:45Z</time>
      </trkpt>
      <trkpt lat="45.94065" lon="4.80938">
        <ele>233</ele>
        <time>2017-12-07T09:56:46Z</time>
      </trkpt>
      <trkpt lat="45.94067" lon="4.8095">
        <ele>232</ele>
        <time>2017-12-07T09:56:49Z</time>
      </trkpt>
      <trkpt lat="45.94068" lon="4.80954">
        <ele>232</ele>
        <time>2017-12-07T09:56:50Z</time>
      </trkpt>
      <trkpt lat="45.94069" lon="4.80965">
        <ele>233</ele>
        <time>2017-12-07T09:56:53Z</time>
      </trkpt>
      <trkpt lat="45.9407" lon="4.80969">
        <ele>233</ele>
        <time>2017-12-07T09:56:54Z</time>
      </trkpt>
      <trkpt lat="45.94071" lon="4.80978">
        <ele>234</ele>
        <time>2017-12-07T09:56:56Z</time>
      </trkpt>
      <trkpt lat="45.94072" lon="4.80982">
        <ele>234</ele>
        <time>2017-12-07T09:56:57Z</time>
      </trkpt>
      <trkpt lat="45.94073" lon="4.80994">
        <ele>236</ele>
        <time>2017-12-07T09:57:00Z</time>
      </trkpt>
      <trkpt lat="45.94073" lon="4.80998">
        <ele>236</ele>
        <time>2017-12-07T09:57:01Z</time>
      </trkpt>
      <trkpt lat="45.94074" lon="4.81008">
        <ele>236</ele>
        <time>2017-12-07T09:57:04Z</time>
      </trkpt>
      <trkpt lat="45.94075" lon="4.81012">
        <ele>236</ele>
        <time>2017-12-07T09:57:05Z</time>
      </trkpt>
      <trkpt lat="45.94077" lon="4.81022">
        <ele>235</ele>
        <time>2017-12-07T09:57:08Z</time>
      </trkpt>
      <trkpt lat="45.94078" lon="4.81025">
        <ele>234</ele>
        <time>2017-12-07T09:57:09Z</time>
      </trkpt>
      <trkpt lat="45.94082" lon="4.81036">
        <ele>234</ele>
        <time>2017-12-07T09:57:12Z</time>
      </trkpt>
      <trkpt lat="45.94083" lon="4.8104">
        <ele>234</ele>
        <time>2017-12-07T09:57:13Z</time>
      </trkpt>
      <trkpt lat="45.94086" lon="4.8105">
        <ele>243</ele>
        <time>2017-12-07T09:57:16Z</time>
      </trkpt>
      <trkpt lat="45.94087" lon="4.81053">
        <ele>243</ele>
        <time>2017-12-07T09:57:17Z</time>
      </trkpt>
      <trkpt lat="45.94091" lon="4.81064">
        <ele>242</ele>
        <time>2017-12-07T09:57:20Z</time>
      </trkpt>
      <trkpt lat="45.94093" lon="4.81067">
        <ele>242</ele>
        <time>2017-12-07T09:57:21Z</time>
      </trkpt>
      <trkpt lat="45.94097" lon="4.81076">
        <ele>241</ele>
        <time>2017-12-07T09:57:24Z</time>
      </trkpt>
      <trkpt lat="45.94098" lon="4.81079">
        <ele>241</ele>
        <time>2017-12-07T09:57:25Z</time>
      </trkpt>
      <trkpt lat="45.94104" lon="4.81089">
        <ele>241</ele>
        <time>2017-12-07T09:57:28Z</time>
      </trkpt>
      <trkpt lat="45.94106" lon="4.81093">
        <ele>241</ele>
        <time>2017-12-07T09:57:29Z</time>
      </trkpt>
      <trkpt lat="45.94111" lon="4.81103">
        <ele>242</ele>
        <time>2017-12-07T09:57:32Z</time>
      </trkpt>
      <trkpt lat="45.94113" lon="4.81106">
        <ele>242</ele>
        <time>2017-12-07T09:57:33Z</time>
      </trkpt>
      <trkpt lat="45.94116" lon="4.81114">
        <ele>243</ele>
        <time>2017-12-07T09:57:35Z</time>
      </trkpt>
      <trkpt lat="45.94118" lon="4.81117">
        <ele>243</ele>
        <time>2017-12-07T09:57:36Z</time>
      </trkpt>
      <trkpt lat="45.94123" lon="4.81126">
        <ele>243</ele>
        <time>2017-12-07T09:57:39Z</time>
      </trkpt>
      <trkpt lat="45.94124" lon="4.81129">
        <ele>243</ele>
        <time>2017-12-07T09:57:40Z</time>
      </trkpt>
      <trkpt lat="45.94128" lon="4.81138">
        <ele>243</ele>
        <time>2017-12-07T09:57:43Z</time>
      </trkpt>
      <trkpt lat="45.9413" lon="4.81142">
        <ele>243</ele>
        <time>2017-12-07T09:57:44Z</time>
      </trkpt>
      <trkpt lat="45.94133" lon="4.81149">
        <ele>244</ele>
        <time>2017-12-07T09:57:46Z</time>
      </trkpt>
      <trkpt lat="45.94135" lon="4.81152">
        <ele>244</ele>
        <time>2017-12-07T09:57:47Z</time>
      </trkpt>
      <trkpt lat="45.9414" lon="4.81161">
        <ele>244</ele>
        <time>2017-12-07T09:57:50Z</time>
      </trkpt>
      <trkpt lat="45.94141" lon="4.81165">
        <ele>244</ele>
        <time>2017-12-07T09:57:51Z</time>
      </trkpt>
      <trkpt lat="45.94146" lon="4.81174">
        <ele>245</ele>
        <time>2017-12-07T09:57:54Z</time>
      </trkpt>
      <trkpt lat="45.94148" lon="4.81178">
        <ele>245</ele>
        <time>2017-12-07T09:57:55Z</time>
      </trkpt>
      <trkpt lat="45.94152" lon="4.81188">
        <ele>245</ele>
        <time>2017-12-07T09:57:58Z</time>
      </trkpt>
      <trkpt lat="45.94153" lon="4.81191">
        <ele>245</ele>
        <time>2017-12-07T09:57:59Z</time>
      </trkpt>
      <trkpt lat="45.94156" lon="4.81201">
        <ele>245</ele>
        <time>2017-12-07T09:58:02Z</time>
      </trkpt>
      <trkpt lat="45.94157" lon="4.81205">
        <ele>245</ele>
        <time>2017-12-07T09:58:03Z</time>
      </trkpt>
      <trkpt lat="45.94159" lon="4.81217">
        <ele>245</ele>
        <time>2017-12-07T09:58:06Z</time>
      </trkpt>
      <trkpt lat="45.9416" lon="4.81221">
        <ele>245</ele>
        <time>2017-12-07T09:58:07Z</time>
      </trkpt>
      <trkpt lat="45.94163" lon="4.81232">
        <ele>246</ele>
        <time>2017-12-07T09:58:10Z</time>
      </trkpt>
      <trkpt lat="45.94163" lon="4.81236">
        <ele>247</ele>
        <time>2017-12-07T09:58:11Z</time>
      </trkpt>
      <trkpt lat="45.94164" lon="4.81245">
        <ele>248</ele>
        <time>2017-12-07T09:58:14Z</time>
      </trkpt>
      <trkpt lat="45.94164" lon="4.81249">
        <ele>249</ele>
        <time>2017-12-07T09:58:15Z</time>
      </trkpt>
      <trkpt lat="45.94164" lon="4.81262">
        <ele>248</ele>
        <time>2017-12-07T09:58:18Z</time>
      </trkpt>
      <trkpt lat="45.94165" lon="4.81265">
        <ele>248</ele>
        <time>2017-12-07T09:58:19Z</time>
      </trkpt>
      <trkpt lat="45.94166" lon="4.81277">
        <ele>247</ele>
        <time>2017-12-07T09:58:22Z</time>
      </trkpt>
      <trkpt lat="45.94166" lon="4.81281">
        <ele>247</ele>
        <time>2017-12-07T09:58:23Z</time>
      </trkpt>
      <trkpt lat="45.94167" lon="4.8129">
        <ele>255</ele>
        <time>2017-12-07T09:58:25Z</time>
      </trkpt>
      <trkpt lat="45.94167" lon="4.81295">
        <ele>255</ele>
        <time>2017-12-07T09:58:26Z</time>
      </trkpt>
      <trkpt lat="45.94167" lon="4.81304">
        <ele>248</ele>
        <time>2017-12-07T09:58:28Z</time>
      </trkpt>
      <trkpt lat="45.94166" lon="4.81309">
        <ele>248</ele>
        <time>2017-12-07T09:58:29Z</time>
      </trkpt>
      <trkpt lat="45.94166" lon="4.81321">
        <ele>249</ele>
        <time>2017-12-07T09:58:32Z</time>
      </trkpt>
      <trkpt lat="45.94166" lon="4.81325">
        <ele>250</ele>
        <time>2017-12-07T09:58:33Z</time>
      </trkpt>
      <trkpt lat="45.94165" lon="4.81337">
        <ele>252</ele>
        <time>2017-12-07T09:58:36Z</time>
      </trkpt>
      <trkpt lat="45.94165" lon="4.81341">
        <ele>251</ele>
        <time>2017-12-07T09:58:37Z</time>
      </trkpt>
      <trkpt lat="45.94163" lon="4.81351">
        <ele>251</ele>
        <time>2017-12-07T09:58:40Z</time>
      </trkpt>
      <trkpt lat="45.94163" lon="4.81355">
        <ele>251</ele>
        <time>2017-12-07T09:58:41Z</time>
      </trkpt>
      <trkpt lat="45.94162" lon="4.81367">
        <ele>251</ele>
        <time>2017-12-07T09:58:45Z</time>
      </trkpt>
      <trkpt lat="45.94161" lon="4.81369">
        <ele>251</ele>
        <time>2017-12-07T09:58:46Z</time>
      </trkpt>
      <trkpt lat="45.94158" lon="4.81379">
        <ele>251</ele>
        <time>2017-12-07T09:58:49Z</time>
      </trkpt>
      <trkpt lat="45.94158" lon="4.81383">
        <ele>251</ele>
        <time>2017-12-07T09:58:50Z</time>
      </trkpt>
      <trkpt lat="45.94157" lon="4.81393">
        <ele>252</ele>
        <time>2017-12-07T09:58:53Z</time>
      </trkpt>
      <trkpt lat="45.94156" lon="4.81398">
        <ele>252</ele>
        <time>2017-12-07T09:58:54Z</time>
      </trkpt>
      <trkpt lat="45.94154" lon="4.81409">
        <ele>253</ele>
        <time>2017-12-07T09:58:57Z</time>
      </trkpt>
      <trkpt lat="45.94153" lon="4.81413">
        <ele>253</ele>
        <time>2017-12-07T09:58:58Z</time>
      </trkpt>
      <trkpt lat="45.94151" lon="4.81423">
        <ele>256</ele>
        <time>2017-12-07T09:59:01Z</time>
      </trkpt>
      <trkpt lat="45.94151" lon="4.81426">
        <ele>256</ele>
        <time>2017-12-07T09:59:02Z</time>
      </trkpt>
      <trkpt lat="45.9415" lon="4.81438">
        <ele>256</ele>
        <time>2017-12-07T09:59:05Z</time>
      </trkpt>
      <trkpt lat="45.94151" lon="4.81442">
        <ele>256</ele>
        <time>2017-12-07T09:59:06Z</time>
      </trkpt>
      <trkpt lat="45.94152" lon="4.81454">
        <ele>257</ele>
        <time>2017-12-07T09:59:09Z</time>
      </trkpt>
      <trkpt lat="45.94152" lon="4.81458">
        <ele>257</ele>
        <time>2017-12-07T09:59:10Z</time>
      </trkpt>
      <trkpt lat="45.94151" lon="4.81467">
        <ele>258</ele>
        <time>2017-12-07T09:59:12Z</time>
      </trkpt>
      <trkpt lat="45.94151" lon="4.81471">
        <ele>258</ele>
        <time>2017-12-07T09:59:13Z</time>
      </trkpt>
      <trkpt lat="45.94151" lon="4.81484">
        <ele>259</ele>
        <time>2017-12-07T09:59:16Z</time>
      </trkpt>
      <trkpt lat="45.94151" lon="4.81488">
        <ele>259</ele>
        <time>2017-12-07T09:59:17Z</time>
      </trkpt>
      <trkpt lat="45.94151" lon="4.81496">
        <ele>260</ele>
        <time>2017-12-07T09:59:19Z</time>
      </trkpt>
      <trkpt lat="45.94151" lon="4.81501">
        <ele>263</ele>
        <time>2017-12-07T09:59:20Z</time>
      </trkpt>
      <trkpt lat="45.94151" lon="4.81511">
        <ele>263</ele>
        <time>2017-12-07T09:59:22Z</time>
      </trkpt>
      <trkpt lat="45.94151" lon="4.81515">
        <ele>263</ele>
        <time>2017-12-07T09:59:23Z</time>
      </trkpt>
      <trkpt lat="45.94152" lon="4.81524">
        <ele>263</ele>
        <time>2017-12-07T09:59:25Z</time>
      </trkpt>
      <trkpt lat="45.94153" lon="4.81529">
        <ele>264</ele>
        <time>2017-12-07T09:59:26Z</time>
      </trkpt>
      <trkpt lat="45.94153" lon="4.81541">
        <ele>264</ele>
        <time>2017-12-07T09:59:29Z</time>
      </trkpt>
      <trkpt lat="45.94153" lon="4.81545">
        <ele>264</ele>
        <time>2017-12-07T09:59:30Z</time>
      </trkpt>
      <trkpt lat="45.94153" lon="4.81554">
        <ele>264</ele>
        <time>2017-12-07T09:59:32Z</time>
      </trkpt>
      <trkpt lat="45.94154" lon="4.81558">
        <ele>265</ele>
        <time>2017-12-07T09:59:33Z</time>
      </trkpt>
      <trkpt lat="45.94156" lon="4.81568">
        <ele>265</ele>
        <time>2017-12-07T09:59:35Z</time>
      </trkpt>
      <trkpt lat="45.94157" lon="4.81573">
        <ele>266</ele>
        <time>2017-12-07T09:59:36Z</time>
      </trkpt>
      <trkpt lat="45.94159" lon="4.81582">
        <ele>266</ele>
        <time>2017-12-07T09:59:38Z</time>
      </trkpt>
      <trkpt lat="45.9416" lon="4.81586">
        <ele>267</ele>
        <time>2017-12-07T09:59:39Z</time>
      </trkpt>
      <trkpt lat="45.94161" lon="4.81595">
        <ele>267</ele>
        <time>2017-12-07T09:59:41Z</time>
      </trkpt>
      <trkpt lat="45.94162" lon="4.816">
        <ele>267</ele>
        <time>2017-12-07T09:59:42Z</time>
      </trkpt>
      <trkpt lat="45.94163" lon="4.81611">
        <ele>267</ele>
        <time>2017-12-07T09:59:44Z</time>
      </trkpt>
      <trkpt lat="45.94163" lon="4.81615">
        <ele>268</ele>
        <time>2017-12-07T09:59:45Z</time>
      </trkpt>
      <trkpt lat="45.94165" lon="4.81625">
        <ele>268</ele>
        <time>2017-12-07T09:59:47Z</time>
      </trkpt>
      <trkpt lat="45.94166" lon="4.81629">
        <ele>268</ele>
        <time>2017-12-07T09:59:48Z</time>
      </trkpt>
      <trkpt lat="45.94168" lon="4.81638">
        <ele>268</ele>
        <time>2017-12-07T09:59:50Z</time>
      </trkpt>
      <trkpt lat="45.94168" lon="4.81642">
        <ele>268</ele>
        <time>2017-12-07T09:59:51Z</time>
      </trkpt>
      <trkpt lat="45.9417" lon="4.81652">
        <ele>268</ele>
        <time>2017-12-07T09:59:53Z</time>
      </trkpt>
      <trkpt lat="45.9417" lon="4.81656">
        <ele>268</ele>
        <time>2017-12-07T09:59:54Z</time>
      </trkpt>
      <trkpt lat="45.94171" lon="4.81664">
        <ele>269</ele>
        <time>2017-12-07T09:59:56Z</time>
      </trkpt>
      <trkpt lat="45.94172" lon="4.81669">
        <ele>268</ele>
        <time>2017-12-07T09:59:57Z</time>
      </trkpt>
      <trkpt lat="45.94174" lon="4.81677">
        <ele>268</ele>
        <time>2017-12-07T09:59:59Z</time>
      </trkpt>
      <trkpt lat="45.94175" lon="4.81681">
        <ele>268</ele>
        <time>2017-12-07T10:00:00Z</time>
      </trkpt>
      <trkpt lat="45.94178" lon="4.81689">
        <ele>267</ele>
        <time>2017-12-07T10:00:02Z</time>
      </trkpt>
      <trkpt lat="45.9418" lon="4.81693">
        <ele>267</ele>
        <time>2017-12-07T10:00:03Z</time>
      </trkpt>
      <trkpt lat="45.94183" lon="4.81701">
        <ele>267</ele>
        <time>2017-12-07T10:00:05Z</time>
      </trkpt>
      <trkpt lat="45.94184" lon="4.81705">
        <ele>267</ele>
        <time>2017-12-07T10:00:06Z</time>
      </trkpt>
      <trkpt lat="45.94184" lon="4.81715">
        <ele>267</ele>
        <time>2017-12-07T10:00:08Z</time>
      </trkpt>
      <trkpt lat="45.94184" lon="4.8172">
        <ele>267</ele>
        <time>2017-12-07T10:00:09Z</time>
      </trkpt>
      <trkpt lat="45.94184" lon="4.81729">
        <ele>267</ele>
        <time>2017-12-07T10:00:11Z</time>
      </trkpt>
      <trkpt lat="45.94184" lon="4.81734">
        <ele>267</ele>
        <time>2017-12-07T10:00:12Z</time>
      </trkpt>
      <trkpt lat="45.94186" lon="4.81743">
        <ele>267</ele>
        <time>2017-12-07T10:00:14Z</time>
      </trkpt>
      <trkpt lat="45.94188" lon="4.81748">
        <ele>267</ele>
        <time>2017-12-07T10:00:15Z</time>
      </trkpt>
      <trkpt lat="45.94193" lon="4.81756">
        <ele>266</ele>
        <time>2017-12-07T10:00:17Z</time>
      </trkpt>
      <trkpt lat="45.94194" lon="4.81761">
        <ele>266</ele>
        <time>2017-12-07T10:00:18Z</time>
      </trkpt>
      <trkpt lat="45.94196" lon="4.81771">
        <ele>266</ele>
        <time>2017-12-07T10:00:20Z</time>
      </trkpt>
      <trkpt lat="45.94197" lon="4.81776">
        <ele>266</ele>
        <time>2017-12-07T10:00:21Z</time>
      </trkpt>
      <trkpt lat="45.94196" lon="4.81785">
        <ele>266</ele>
        <time>2017-12-07T10:00:23Z</time>
      </trkpt>
      <trkpt lat="45.94196" lon="4.81791">
        <ele>266</ele>
        <time>2017-12-07T10:00:24Z</time>
      </trkpt>
      <trkpt lat="45.94196" lon="4.81802">
        <ele>266</ele>
        <time>2017-12-07T10:00:26Z</time>
      </trkpt>
      <trkpt lat="45.94197" lon="4.81808">
        <ele>266</ele>
        <time>2017-12-07T10:00:27Z</time>
      </trkpt>
      <trkpt lat="45.94199" lon="4.81818">
        <ele>266</ele>
        <time>2017-12-07T10:00:29Z</time>
      </trkpt>
      <trkpt lat="45.942" lon="4.81823">
        <ele>266</ele>
        <time>2017-12-07T10:00:30Z</time>
      </trkpt>
      <trkpt lat="45.94202" lon="4.81833">
        <ele>266</ele>
        <time>2017-12-07T10:00:32Z</time>
      </trkpt>
      <trkpt lat="45.94203" lon="4.81837">
        <ele>266</ele>
        <time>2017-12-07T10:00:33Z</time>
      </trkpt>
      <trkpt lat="45.94205" lon="4.81849">
        <ele>266</ele>
        <time>2017-12-07T10:00:35Z</time>
      </trkpt>
      <trkpt lat="45.94207" lon="4.81855">
        <ele>265</ele>
        <time>2017-12-07T10:00:36Z</time>
      </trkpt>
      <trkpt lat="45.94209" lon="4.81867">
        <ele>265</ele>
        <time>2017-12-07T10:00:38Z</time>
      </trkpt>
      <trkpt lat="45.9421" lon="4.81872">
        <ele>265</ele>
        <time>2017-12-07T10:00:39Z</time>
      </trkpt>
      <trkpt lat="45.94213" lon="4.81883">
        <ele>265</ele>
        <time>2017-12-07T10:00:41Z</time>
      </trkpt>
      <trkpt lat="45.94214" lon="4.81888">
        <ele>265</ele>
        <time>2017-12-07T10:00:42Z</time>
      </trkpt>
      <trkpt lat="45.94216" lon="4.81898">
        <ele>265</ele>
        <time>2017-12-07T10:00:44Z</time>
      </trkpt>
      <trkpt lat="45.94217" lon="4.81903">
        <ele>265</ele>
        <time>2017-12-07T10:00:45Z</time>
      </trkpt>
      <trkpt lat="45.9422" lon="4.81913">
        <ele>264</ele>
        <time>2017-12-07T10:00:47Z</time>
      </trkpt>
      <trkpt lat="45.94221" lon="4.81919">
        <ele>264</ele>
        <time>2017-12-07T10:00:48Z</time>
      </trkpt>
      <trkpt lat="45.94223" lon="4.81926">
        <ele>264</ele>
        <time>2017-12-07T10:00:49Z</time>
      </trkpt>
      <trkpt lat="45.94225" lon="4.81933">
        <ele>264</ele>
        <time>2017-12-07T10:00:50Z</time>
      </trkpt>
      <trkpt lat="45.94226" lon="4.8194">
        <ele>264</ele>
        <time>2017-12-07T10:00:51Z</time>
      </trkpt>
      <trkpt lat="45.94228" lon="4.81947">
        <ele>264</ele>
        <time>2017-12-07T10:00:52Z</time>
      </trkpt>
      <trkpt lat="45.9423" lon="4.81959">
        <ele>264</ele>
        <time>2017-12-07T10:00:54Z</time>
      </trkpt>
      <trkpt lat="45.94232" lon="4.81965">
        <ele>264</ele>
        <time>2017-12-07T10:00:55Z</time>
      </trkpt>
      <trkpt lat="45.94233" lon="4.81976">
        <ele>263</ele>
        <time>2017-12-07T10:00:57Z</time>
      </trkpt>
      <trkpt lat="45.94235" lon="4.81983">
        <ele>263</ele>
        <time>2017-12-07T10:00:58Z</time>
      </trkpt>
      <trkpt lat="45.94238" lon="4.81995">
        <ele>263</ele>
        <time>2017-12-07T10:01:00Z</time>
      </trkpt>
      <trkpt lat="45.94239" lon="4.82001">
        <ele>263</ele>
        <time>2017-12-07T10:01:01Z</time>
      </trkpt>
      <trkpt lat="45.9424" lon="4.82008">
        <ele>263</ele>
        <time>2017-12-07T10:01:02Z</time>
      </trkpt>
      <trkpt lat="45.94242" lon="4.82015">
        <ele>263</ele>
        <time>2017-12-07T10:01:03Z</time>
      </trkpt>
      <trkpt lat="45.94245" lon="4.82027">
        <ele>263</ele>
        <time>2017-12-07T10:01:05Z</time>
      </trkpt>
      <trkpt lat="45.94245" lon="4.82033">
        <ele>263</ele>
        <time>2017-12-07T10:01:06Z</time>
      </trkpt>
      <trkpt lat="45.94246" lon="4.82044">
        <ele>263</ele>
        <time>2017-12-07T10:01:08Z</time>
      </trkpt>
      <trkpt lat="45.94246" lon="4.82048">
        <ele>263</ele>
        <time>2017-12-07T10:01:09Z</time>
      </trkpt>
      <trkpt lat="45.94248" lon="4.82058">
        <ele>263</ele>
        <time>2017-12-07T10:01:11Z</time>
      </trkpt>
      <trkpt lat="45.9425" lon="4.82063">
        <ele>263</ele>
        <time>2017-12-07T10:01:12Z</time>
      </trkpt>
      <trkpt lat="45.94251" lon="4.8207">
        <ele>262</ele>
        <time>2017-12-07T10:01:13Z</time>
      </trkpt>
      <trkpt lat="45.94252" lon="4.82076">
        <ele>262</ele>
        <time>2017-12-07T10:01:14Z</time>
      </trkpt>
      <trkpt lat="45.94255" lon="4.82088">
        <ele>262</ele>
        <time>2017-12-07T10:01:16Z</time>
      </trkpt>
      <trkpt lat="45.94256" lon="4.82096">
        <ele>262</ele>
        <time>2017-12-07T10:01:17Z</time>
      </trkpt>
      <trkpt lat="45.94258" lon="4.82103">
        <ele>262</ele>
        <time>2017-12-07T10:01:18Z</time>
      </trkpt>
      <trkpt lat="45.9426" lon="4.8211">
        <ele>263</ele>
        <time>2017-12-07T10:01:19Z</time>
      </trkpt>
      <trkpt lat="45.94261" lon="4.82118">
        <ele>263</ele>
        <time>2017-12-07T10:01:20Z</time>
      </trkpt>
      <trkpt lat="45.94263" lon="4.82125">
        <ele>263</ele>
        <time>2017-12-07T10:01:21Z</time>
      </trkpt>
      <trkpt lat="45.94264" lon="4.82131">
        <ele>263</ele>
        <time>2017-12-07T10:01:22Z</time>
      </trkpt>
      <trkpt lat="45.94264" lon="4.82138">
        <ele>263</ele>
        <time>2017-12-07T10:01:23Z</time>
      </trkpt>
      <trkpt lat="45.94266" lon="4.82145">
        <ele>263</ele>
        <time>2017-12-07T10:01:24Z</time>
      </trkpt>
      <trkpt lat="45.94268" lon="4.82151">
        <ele>263</ele>
        <time>2017-12-07T10:01:25Z</time>
      </trkpt>
      <trkpt lat="45.94269" lon="4.82163">
        <ele>263</ele>
        <time>2017-12-07T10:01:27Z</time>
      </trkpt>
      <trkpt lat="45.94271" lon="4.82168">
        <ele>264</ele>
        <time>2017-12-07T10:01:28Z</time>
      </trkpt>
      <trkpt lat="45.94273" lon="4.82179">
        <ele>264</ele>
        <time>2017-12-07T10:01:30Z</time>
      </trkpt>
      <trkpt lat="45.94275" lon="4.82185">
        <ele>264</ele>
        <time>2017-12-07T10:01:31Z</time>
      </trkpt>
      <trkpt lat="45.94277" lon="4.82197">
        <ele>264</ele>
        <time>2017-12-07T10:01:33Z</time>
      </trkpt>
      <trkpt lat="45.94277" lon="4.82202">
        <ele>264</ele>
        <time>2017-12-07T10:01:34Z</time>
      </trkpt>
      <trkpt lat="45.94277" lon="4.82212">
        <ele>264</ele>
        <time>2017-12-07T10:01:36Z</time>
      </trkpt>
      <trkpt lat="45.94277" lon="4.82218">
        <ele>264</ele>
        <time>2017-12-07T10:01:37Z</time>
      </trkpt>
      <trkpt lat="45.94278" lon="4.8223">
        <ele>264</ele>
        <time>2017-12-07T10:01:39Z</time>
      </trkpt>
      <trkpt lat="45.94279" lon="4.82236">
        <ele>264</ele>
        <time>2017-12-07T10:01:40Z</time>
      </trkpt>
      <trkpt lat="45.94279" lon="4.82242">
        <ele>264</ele>
        <time>2017-12-07T10:01:41Z</time>
      </trkpt>
      <trkpt lat="45.9428" lon="4.82249">
        <ele>264</ele>
        <time>2017-12-07T10:01:42Z</time>
      </trkpt>
      <trkpt lat="45.94281" lon="4.82257">
        <ele>265</ele>
        <time>2017-12-07T10:01:43Z</time>
      </trkpt>
      <trkpt lat="45.94281" lon="4.82264">
        <ele>265</ele>
        <time>2017-12-07T10:01:44Z</time>
      </trkpt>
      <trkpt lat="45.94281" lon="4.82271">
        <ele>265</ele>
        <time>2017-12-07T10:01:45Z</time>
      </trkpt>
      <trkpt lat="45.94281" lon="4.82279">
        <ele>265</ele>
        <time>2017-12-07T10:01:46Z</time>
      </trkpt>
      <trkpt lat="45.94281" lon="4.82291">
        <ele>265</ele>
        <time>2017-12-07T10:01:48Z</time>
      </trkpt>
      <trkpt lat="45.94282" lon="4.82296">
        <ele>265</ele>
        <time>2017-12-07T10:01:49Z</time>
      </trkpt>
      <trkpt lat="45.94282" lon="4.82305">
        <ele>265</ele>
        <time>2017-12-07T10:01:51Z</time>
      </trkpt>
      <trkpt lat="45.94283" lon="4.82311">
        <ele>265</ele>
        <time>2017-12-07T10:01:52Z</time>
      </trkpt>
      <trkpt lat="45.94284" lon="4.82323">
        <ele>265</ele>
        <time>2017-12-07T10:01:54Z</time>
      </trkpt>
      <trkpt lat="45.94284" lon="4.82329">
        <ele>265</ele>
        <time>2017-12-07T10:01:55Z</time>
      </trkpt>
      <trkpt lat="45.94284" lon="4.82336">
        <ele>264</ele>
        <time>2017-12-07T10:01:56Z</time>
      </trkpt>
      <trkpt lat="45.94285" lon="4.82343">
        <ele>264</ele>
        <time>2017-12-07T10:01:57Z</time>
      </trkpt>
      <trkpt lat="45.94285" lon="4.8235">
        <ele>264</ele>
        <time>2017-12-07T10:01:58Z</time>
      </trkpt>
      <trkpt lat="45.94285" lon="4.82358">
        <ele>264</ele>
        <time>2017-12-07T10:01:59Z</time>
      </trkpt>
      <trkpt lat="45.94286" lon="4.82366">
        <ele>264</ele>
        <time>2017-12-07T10:02:00Z</time>
      </trkpt>
      <trkpt lat="45.94286" lon="4.82371">
        <ele>264</ele>
        <time>2017-12-07T10:02:01Z</time>
      </trkpt>
      <trkpt lat="45.94286" lon="4.82384">
        <ele>264</ele>
        <time>2017-12-07T10:02:03Z</time>
      </trkpt>
      <trkpt lat="45.94287" lon="4.82391">
        <ele>264</ele>
        <time>2017-12-07T10:02:04Z</time>
      </trkpt>
      <trkpt lat="45.94287" lon="4.82398">
        <ele>264</ele>
        <time>2017-12-07T10:02:05Z</time>
      </trkpt>
      <trkpt lat="45.94288" lon="4.82406">
        <ele>264</ele>
        <time>2017-12-07T10:02:06Z</time>
      </trkpt>
      <trkpt lat="45.94288" lon="4.82414">
        <ele>264</ele>
        <time>2017-12-07T10:02:07Z</time>
      </trkpt>
      <trkpt lat="45.94288" lon="4.8242">
        <ele>264</ele>
        <time>2017-12-07T10:02:08Z</time>
      </trkpt>
      <trkpt lat="45.94288" lon="4.82432">
        <ele>264</ele>
        <time>2017-12-07T10:02:10Z</time>
      </trkpt>
      <trkpt lat="45.94289" lon="4.82437">
        <ele>264</ele>
        <time>2017-12-07T10:02:11Z</time>
      </trkpt>
      <trkpt lat="45.94289" lon="4.82448">
        <ele>264</ele>
        <time>2017-12-07T10:02:13Z</time>
      </trkpt>
      <trkpt lat="45.9429" lon="4.82456">
        <ele>264</ele>
        <time>2017-12-07T10:02:14Z</time>
      </trkpt>
      <trkpt lat="45.94291" lon="4.82469">
        <ele>264</ele>
        <time>2017-12-07T10:02:16Z</time>
      </trkpt>
      <trkpt lat="45.94292" lon="4.82475">
        <ele>264</ele>
        <time>2017-12-07T10:02:17Z</time>
      </trkpt>
      <trkpt lat="45.94292" lon="4.82483">
        <ele>264</ele>
        <time>2017-12-07T10:02:18Z</time>
      </trkpt>
      <trkpt lat="45.94292" lon="4.82489">
        <ele>264</ele>
        <time>2017-12-07T10:02:19Z</time>
      </trkpt>
      <trkpt lat="45.94292" lon="4.82496">
        <ele>264</ele>
        <time>2017-12-07T10:02:20Z</time>
      </trkpt>
      <trkpt lat="45.94292" lon="4.82503">
        <ele>264</ele>
        <time>2017-12-07T10:02:21Z</time>
      </trkpt>
      <trkpt lat="45.94291" lon="4.8251">
        <ele>264</ele>
        <time>2017-12-07T10:02:22Z</time>
      </trkpt>
      <trkpt lat="45.94291" lon="4.82518">
        <ele>264</ele>
        <time>2017-12-07T10:02:23Z</time>
      </trkpt>
      <trkpt lat="45.94292" lon="4.82524">
        <ele>264</ele>
        <time>2017-12-07T10:02:24Z</time>
      </trkpt>
      <trkpt lat="45.94292" lon="4.8253">
        <ele>264</ele>
        <time>2017-12-07T10:02:25Z</time>
      </trkpt>
      <trkpt lat="45.94293" lon="4.82539">
        <ele>264</ele>
        <time>2017-12-07T10:02:26Z</time>
      </trkpt>
      <trkpt lat="45.94293" lon="4.82546">
        <ele>264</ele>
        <time>2017-12-07T10:02:27Z</time>
      </trkpt>
      <trkpt lat="45.94293" lon="4.82558">
        <ele>264</ele>
        <time>2017-12-07T10:02:29Z</time>
      </trkpt>
      <trkpt lat="45.94293" lon="4.82564">
        <ele>264</ele>
        <time>2017-12-07T10:02:30Z</time>
      </trkpt>
      <trkpt lat="45.94292" lon="4.82576">
        <ele>265</ele>
        <time>2017-12-07T10:02:32Z</time>
      </trkpt>
      <trkpt lat="45.94291" lon="4.82582">
        <ele>265</ele>
        <time>2017-12-07T10:02:33Z</time>
      </trkpt>
      <trkpt lat="45.94291" lon="4.82589">
        <ele>265</ele>
        <time>2017-12-07T10:02:34Z</time>
      </trkpt>
      <trkpt lat="45.9429" lon="4.82595">
        <ele>265</ele>
        <time>2017-12-07T10:02:35Z</time>
      </trkpt>
      <trkpt lat="45.94291" lon="4.82607">
        <ele>265</ele>
        <time>2017-12-07T10:02:37Z</time>
      </trkpt>
      <trkpt lat="45.9429" lon="4.82614">
        <ele>265</ele>
        <time>2017-12-07T10:02:38Z</time>
      </trkpt>
      <trkpt lat="45.94291" lon="4.82622">
        <ele>265</ele>
        <time>2017-12-07T10:02:39Z</time>
      </trkpt>
      <trkpt lat="45.9429" lon="4.82629">
        <ele>265</ele>
        <time>2017-12-07T10:02:40Z</time>
      </trkpt>
      <trkpt lat="45.94289" lon="4.82636">
        <ele>265</ele>
        <time>2017-12-07T10:02:41Z</time>
      </trkpt>
      <trkpt lat="45.94289" lon="4.82643">
        <ele>265</ele>
        <time>2017-12-07T10:02:42Z</time>
      </trkpt>
      <trkpt lat="45.94289" lon="4.8265">
        <ele>265</ele>
        <time>2017-12-07T10:02:43Z</time>
      </trkpt>
      <trkpt lat="45.94288" lon="4.82658">
        <ele>265</ele>
        <time>2017-12-07T10:02:44Z</time>
      </trkpt>
      <trkpt lat="45.94289" lon="4.82665">
        <ele>265</ele>
        <time>2017-12-07T10:02:45Z</time>
      </trkpt>
      <trkpt lat="45.94289" lon="4.82671">
        <ele>265</ele>
        <time>2017-12-07T10:02:46Z</time>
      </trkpt>
      <trkpt lat="45.94288" lon="4.82677">
        <ele>265</ele>
        <time>2017-12-07T10:02:47Z</time>
      </trkpt>
      <trkpt lat="45.94288" lon="4.82684">
        <ele>265</ele>
        <time>2017-12-07T10:02:48Z</time>
      </trkpt>
      <trkpt lat="45.94288" lon="4.82692">
        <ele>265</ele>
        <time>2017-12-07T10:02:49Z</time>
      </trkpt>
      <trkpt lat="45.94287" lon="4.82699">
        <ele>265</ele>
        <time>2017-12-07T10:02:50Z</time>
      </trkpt>
      <trkpt lat="45.94287" lon="4.82707">
        <ele>265</ele>
        <time>2017-12-07T10:02:51Z</time>
      </trkpt>
      <trkpt lat="45.94286" lon="4.82714">
        <ele>265</ele>
        <time>2017-12-07T10:02:52Z</time>
      </trkpt>
      <trkpt lat="45.94287" lon="4.82722">
        <ele>265</ele>
        <time>2017-12-07T10:02:53Z</time>
      </trkpt>
      <trkpt lat="45.94286" lon="4.8273">
        <ele>265</ele>
        <time>2017-12-07T10:02:54Z</time>
      </trkpt>
      <trkpt lat="45.94287" lon="4.82741">
        <ele>265</ele>
        <time>2017-12-07T10:02:56Z</time>
      </trkpt>
      <trkpt lat="45.94287" lon="4.82748">
        <ele>265</ele>
        <time>2017-12-07T10:02:57Z</time>
      </trkpt>
      <trkpt lat="45.94286" lon="4.82754">
        <ele>265</ele>
        <time>2017-12-07T10:02:58Z</time>
      </trkpt>
      <trkpt lat="45.94286" lon="4.82763">
        <ele>265</ele>
        <time>2017-12-07T10:02:59Z</time>
      </trkpt>
      <trkpt lat="45.94286" lon="4.8277">
        <ele>265</ele>
        <time>2017-12-07T10:03:00Z</time>
      </trkpt>
      <trkpt lat="45.94287" lon="4.82777">
        <ele>265</ele>
        <time>2017-12-07T10:03:01Z</time>
      </trkpt>
      <trkpt lat="45.94286" lon="4.82784">
        <ele>265</ele>
        <time>2017-12-07T10:03:02Z</time>
      </trkpt>
      <trkpt lat="45.94286" lon="4.8279">
        <ele>265</ele>
        <time>2017-12-07T10:03:03Z</time>
      </trkpt>
      <trkpt lat="45.94287" lon="4.82797">
        <ele>265</ele>
        <time>2017-12-07T10:03:04Z</time>
      </trkpt>
      <trkpt lat="45.94286" lon="4.82804">
        <ele>265</ele>
        <time>2017-12-07T10:03:05Z</time>
      </trkpt>
      <trkpt lat="45.94286" lon="4.82817">
        <ele>265</ele>
        <time>2017-12-07T10:03:07Z</time>
      </trkpt>
      <trkpt lat="45.94286" lon="4.82825">
        <ele>265</ele>
        <time>2017-12-07T10:03:08Z</time>
      </trkpt>
      <trkpt lat="45.94287" lon="4.82833">
        <ele>265</ele>
        <time>2017-12-07T10:03:09Z</time>
      </trkpt>
      <trkpt lat="45.94287" lon="4.8284">
        <ele>265</ele>
        <time>2017-12-07T10:03:10Z</time>
      </trkpt>
      <trkpt lat="45.94286" lon="4.82847">
        <ele>265</ele>
        <time>2017-12-07T10:03:11Z</time>
      </trkpt>
      <trkpt lat="45.94286" lon="4.82854">
        <ele>265</ele>
        <time>2017-12-07T10:03:12Z</time>
      </trkpt>
      <trkpt lat="45.94286" lon="4.82862">
        <ele>265</ele>
        <time>2017-12-07T10:03:13Z</time>
      </trkpt>
      <trkpt lat="45.94285" lon="4.82869">
        <ele>265</ele>
        <time>2017-12-07T10:03:14Z</time>
      </trkpt>
      <trkpt lat="45.94285" lon="4.82877">
        <ele>265</ele>
        <time>2017-12-07T10:03:15Z</time>
      </trkpt>
      <trkpt lat="45.94284" lon="4.82883">
        <ele>265</ele>
        <time>2017-12-07T10:03:16Z</time>
      </trkpt>
      <trkpt lat="45.94283" lon="4.82894">
        <ele>265</ele>
        <time>2017-12-07T10:03:18Z</time>
      </trkpt>
      <trkpt lat="45.94283" lon="4.829">
        <ele>265</ele>
        <time>2017-12-07T10:03:19Z</time>
      </trkpt>
      <trkpt lat="45.94282" lon="4.82906">
        <ele>265</ele>
        <time>2017-12-07T10:03:20Z</time>
      </trkpt>
      <trkpt lat="45.94281" lon="4.82913">
        <ele>265</ele>
        <time>2017-12-07T10:03:21Z</time>
      </trkpt>
      <trkpt lat="45.94282" lon="4.82922">
        <ele>265</ele>
        <time>2017-12-07T10:03:22Z</time>
      </trkpt>
      <trkpt lat="45.94282" lon="4.8293">
        <ele>265</ele>
        <time>2017-12-07T10:03:23Z</time>
      </trkpt>
      <trkpt lat="45.94281" lon="4.82938">
        <ele>265</ele>
        <time>2017-12-07T10:03:24Z</time>
      </trkpt>
      <trkpt lat="45.94282" lon="4.82945">
        <ele>265</ele>
        <time>2017-12-07T10:03:25Z</time>
      </trkpt>
      <trkpt lat="45.94282" lon="4.82954">
        <ele>265</ele>
        <time>2017-12-07T10:03:26Z</time>
      </trkpt>
      <trkpt lat="45.94282" lon="4.82962">
        <ele>265</ele>
        <time>2017-12-07T10:03:27Z</time>
      </trkpt>
      <trkpt lat="45.94283" lon="4.82969">
        <ele>265</ele>
        <time>2017-12-07T10:03:28Z</time>
      </trkpt>
      <trkpt lat="45.94285" lon="4.82978">
        <ele>265</ele>
        <time>2017-12-07T10:03:29Z</time>
      </trkpt>
      <trkpt lat="45.94287" lon="4.82986">
        <ele>265</ele>
        <time>2017-12-07T10:03:30Z</time>
      </trkpt>
      <trkpt lat="45.94288" lon="4.82993">
        <ele>265</ele>
        <time>2017-12-07T10:03:31Z</time>
      </trkpt>
      <trkpt lat="45.9429" lon="4.83">
        <ele>266</ele>
        <time>2017-12-07T10:03:32Z</time>
      </trkpt>
      <trkpt lat="45.94292" lon="4.83009">
        <ele>266</ele>
        <time>2017-12-07T10:03:33Z</time>
      </trkpt>
      <trkpt lat="45.94293" lon="4.83016">
        <ele>266</ele>
        <time>2017-12-07T10:03:34Z</time>
      </trkpt>
      <trkpt lat="45.94294" lon="4.83024">
        <ele>266</ele>
        <time>2017-12-07T10:03:35Z</time>
      </trkpt>
      <trkpt lat="45.94296" lon="4.83031">
        <ele>266</ele>
        <time>2017-12-07T10:03:36Z</time>
      </trkpt>
      <trkpt lat="45.94298" lon="4.83039">
        <ele>266</ele>
        <time>2017-12-07T10:03:37Z</time>
      </trkpt>
      <trkpt lat="45.943" lon="4.83046">
        <ele>266</ele>
        <time>2017-12-07T10:03:38Z</time>
      </trkpt>
      <trkpt lat="45.94301" lon="4.83052">
        <ele>266</ele>
        <time>2017-12-07T10:03:39Z</time>
      </trkpt>
      <trkpt lat="45.94303" lon="4.83059">
        <ele>266</ele>
        <time>2017-12-07T10:03:40Z</time>
      </trkpt>
      <trkpt lat="45.94304" lon="4.83065">
        <ele>266</ele>
        <time>2017-12-07T10:03:41Z</time>
      </trkpt>
      <trkpt lat="45.94306" lon="4.83072">
        <ele>266</ele>
        <time>2017-12-07T10:03:42Z</time>
      </trkpt>
      <trkpt lat="45.94308" lon="4.83078">
        <ele>266</ele>
        <time>2017-12-07T10:03:43Z</time>
      </trkpt>
      <trkpt lat="45.9431" lon="4.83085">
        <ele>266</ele>
        <time>2017-12-07T10:03:44Z</time>
      </trkpt>
      <trkpt lat="45.94311" lon="4.83092">
        <ele>266</ele>
        <time>2017-12-07T10:03:45Z</time>
      </trkpt>
      <trkpt lat="45.94313" lon="4.83099">
        <ele>266</ele>
        <time>2017-12-07T10:03:46Z</time>
      </trkpt>
      <trkpt lat="45.94316" lon="4.83107">
        <ele>266</ele>
        <time>2017-12-07T10:03:47Z</time>
      </trkpt>
      <trkpt lat="45.94318" lon="4.83114">
        <ele>266</ele>
        <time>2017-12-07T10:03:48Z</time>
      </trkpt>
      <trkpt lat="45.9432" lon="4.83121">
        <ele>266</ele>
        <time>2017-12-07T10:03:49Z</time>
      </trkpt>
      <trkpt lat="45.94323" lon="4.83128">
        <ele>266</ele>
        <time>2017-12-07T10:03:50Z</time>
      </trkpt>
      <trkpt lat="45.94326" lon="4.83134">
        <ele>266</ele>
        <time>2017-12-07T10:03:51Z</time>
      </trkpt>
      <trkpt lat="45.94328" lon="4.83141">
        <ele>266</ele>
        <time>2017-12-07T10:03:52Z</time>
      </trkpt>
      <trkpt lat="45.9433" lon="4.83148">
        <ele>266</ele>
        <time>2017-12-07T10:03:53Z</time>
      </trkpt>
      <trkpt lat="45.94333" lon="4.83156">
        <ele>266</ele>
        <time>2017-12-07T10:03:54Z</time>
      </trkpt>
      <trkpt lat="45.94335" lon="4.83162">
        <ele>266</ele>
        <time>2017-12-07T10:03:55Z</time>
      </trkpt>
      <trkpt lat="45.94338" lon="4.83169">
        <ele>266</ele>
        <time>2017-12-07T10:03:56Z</time>
      </trkpt>
      <trkpt lat="45.94341" lon="4.83175">
        <ele>266</ele>
        <time>2017-12-07T10:03:57Z</time>
      </trkpt>
      <trkpt lat="45.94344" lon="4.83182">
        <ele>266</ele>
        <time>2017-12-07T10:03:58Z</time>
      </trkpt>
      <trkpt lat="45.94346" lon="4.83189">
        <ele>266</ele>
        <time>2017-12-07T10:03:59Z</time>
      </trkpt>
      <trkpt lat="45.94348" lon="4.83195">
        <ele>266</ele>
        <time>2017-12-07T10:04:00Z</time>
      </trkpt>
      <trkpt lat="45.94351" lon="4.83202">
        <ele>266</ele>
        <time>2017-12-07T10:04:01Z</time>
      </trkpt>
      <trkpt lat="45.94353" lon="4.83209">
        <ele>266</ele>
        <time>2017-12-07T10:04:02Z</time>
      </trkpt>
      <trkpt lat="45.94355" lon="4.83216">
        <ele>266</ele>
        <time>2017-12-07T10:04:03Z</time>
      </trkpt>
      <trkpt lat="45.94358" lon="4.83222">
        <ele>266</ele>
        <time>2017-12-07T10:04:04Z</time>
      </trkpt>
      <trkpt lat="45.94361" lon="4.83228">
        <ele>266</ele>
        <time>2017-12-07T10:04:05Z</time>
      </trkpt>
      <trkpt lat="45.94363" lon="4.83235">
        <ele>266</ele>
        <time>2017-12-07T10:04:06Z</time>
      </trkpt>
      <trkpt lat="45.94365" lon="4.83242">
        <ele>265</ele>
        <time>2017-12-07T10:04:07Z</time>
      </trkpt>
      <trkpt lat="45.94368" lon="4.83249">
        <ele>265</ele>
        <time>2017-12-07T10:04:08Z</time>
      </trkpt>
      <trkpt lat="45.9437" lon="4.83255">
        <ele>265</ele>
        <time>2017-12-07T10:04:09Z</time>
      </trkpt>
      <trkpt lat="45.94371" lon="4.83262">
        <ele>264</ele>
        <time>2017-12-07T10:04:10Z</time>
      </trkpt>
      <trkpt lat="45.94373" lon="4.8327">
        <ele>264</ele>
        <time>2017-12-07T10:04:11Z</time>
      </trkpt>
      <trkpt lat="45.94376" lon="4.83276">
        <ele>264</ele>
        <time>2017-12-07T10:04:12Z</time>
      </trkpt>
      <trkpt lat="45.94379" lon="4.83284">
        <ele>264</ele>
        <time>2017-12-07T10:04:13Z</time>
      </trkpt>
      <trkpt lat="45.94382" lon="4.83289">
        <ele>264</ele>
        <time>2017-12-07T10:04:14Z</time>
      </trkpt>
      <trkpt lat="45.94384" lon="4.83295">
        <ele>264</ele>
        <time>2017-12-07T10:04:15Z</time>
      </trkpt>
      <trkpt lat="45.94387" lon="4.83302">
        <ele>264</ele>
        <time>2017-12-07T10:04:16Z</time>
      </trkpt>
      <trkpt lat="45.94389" lon="4.83309">
        <ele>264</ele>
        <time>2017-12-07T10:04:17Z</time>
      </trkpt>
      <trkpt lat="45.94391" lon="4.83317">
        <ele>264</ele>
        <time>2017-12-07T10:04:18Z</time>
      </trkpt>
      <trkpt lat="45.94394" lon="4.83326">
        <ele>264</ele>
        <time>2017-12-07T10:04:19Z</time>
      </trkpt>
      <trkpt lat="45.94397" lon="4.83334">
        <ele>263</ele>
        <time>2017-12-07T10:04:20Z</time>
      </trkpt>
      <trkpt lat="45.944" lon="4.83343">
        <ele>263</ele>
        <time>2017-12-07T10:04:21Z</time>
      </trkpt>
      <trkpt lat="45.94403" lon="4.83351">
        <ele>263</ele>
        <time>2017-12-07T10:04:22Z</time>
      </trkpt>
      <trkpt lat="45.94406" lon="4.83359">
        <ele>264</ele>
        <time>2017-12-07T10:04:23Z</time>
      </trkpt>
      <trkpt lat="45.94409" lon="4.83366">
        <ele>264</ele>
        <time>2017-12-07T10:04:24Z</time>
      </trkpt>
      <trkpt lat="45.94412" lon="4.83373">
        <ele>264</ele>
        <time>2017-12-07T10:04:25Z</time>
      </trkpt>
      <trkpt lat="45.94416" lon="4.8338">
        <ele>264</ele>
        <time>2017-12-07T10:04:26Z</time>
      </trkpt>
      <trkpt lat="45.94419" lon="4.83387">
        <ele>264</ele>
        <time>2017-12-07T10:04:27Z</time>
      </trkpt>
      <trkpt lat="45.94423" lon="4.83393">
        <ele>264</ele>
        <time>2017-12-07T10:04:28Z</time>
      </trkpt>
      <trkpt lat="45.94427" lon="4.834">
        <ele>264</ele>
        <time>2017-12-07T10:04:29Z</time>
      </trkpt>
      <trkpt lat="45.9443" lon="4.83407">
        <ele>264</ele>
        <time>2017-12-07T10:04:30Z</time>
      </trkpt>
      <trkpt lat="45.94433" lon="4.83414">
        <ele>264</ele>
        <time>2017-12-07T10:04:31Z</time>
      </trkpt>
      <trkpt lat="45.94436" lon="4.83421">
        <ele>264</ele>
        <time>2017-12-07T10:04:32Z</time>
      </trkpt>
      <trkpt lat="45.9444" lon="4.83428">
        <ele>264</ele>
        <time>2017-12-07T10:04:33Z</time>
      </trkpt>
      <trkpt lat="45.94443" lon="4.83435">
        <ele>263</ele>
        <time>2017-12-07T10:04:34Z</time>
      </trkpt>
      <trkpt lat="45.94446" lon="4.83441">
        <ele>263</ele>
        <time>2017-12-07T10:04:35Z</time>
      </trkpt>
      <trkpt lat="45.9445" lon="4.83447">
        <ele>263</ele>
        <time>2017-12-07T10:04:36Z</time>
      </trkpt>
      <trkpt lat="45.94453" lon="4.83453">
        <ele>263</ele>
        <time>2017-12-07T10:04:37Z</time>
      </trkpt>
      <trkpt lat="45.94457" lon="4.83458">
        <ele>263</ele>
        <time>2017-12-07T10:04:38Z</time>
      </trkpt>
      <trkpt lat="45.9446" lon="4.83465">
        <ele>263</ele>
        <time>2017-12-07T10:04:39Z</time>
      </trkpt>
      <trkpt lat="45.94464" lon="4.83472">
        <ele>263</ele>
        <time>2017-12-07T10:04:40Z</time>
      </trkpt>
      <trkpt lat="45.94467" lon="4.83478">
        <ele>263</ele>
        <time>2017-12-07T10:04:41Z</time>
      </trkpt>
      <trkpt lat="45.94471" lon="4.83485">
        <ele>263</ele>
        <time>2017-12-07T10:04:42Z</time>
      </trkpt>
      <trkpt lat="45.94475" lon="4.83491">
        <ele>263</ele>
        <time>2017-12-07T10:04:43Z</time>
      </trkpt>
      <trkpt lat="45.94479" lon="4.83497">
        <ele>263</ele>
        <time>2017-12-07T10:04:44Z</time>
      </trkpt>
      <trkpt lat="45.94483" lon="4.83503">
        <ele>262</ele>
        <time>2017-12-07T10:04:45Z</time>
      </trkpt>
      <trkpt lat="45.94487" lon="4.83508">
        <ele>262</ele>
        <time>2017-12-07T10:04:46Z</time>
      </trkpt>
      <trkpt lat="45.94491" lon="4.83514">
        <ele>262</ele>
        <time>2017-12-07T10:04:47Z</time>
      </trkpt>
      <trkpt lat="45.94495" lon="4.8352">
        <ele>262</ele>
        <time>2017-12-07T10:04:48Z</time>
      </trkpt>
      <trkpt lat="45.94498" lon="4.83525">
        <ele>262</ele>
        <time>2017-12-07T10:04:49Z</time>
      </trkpt>
      <trkpt lat="45.94501" lon="4.83531">
        <ele>262</ele>
        <time>2017-12-07T10:04:50Z</time>
      </trkpt>
      <trkpt lat="45.94504" lon="4.83536">
        <ele>262</ele>
        <time>2017-12-07T10:04:51Z</time>
      </trkpt>
      <trkpt lat="45.94507" lon="4.83541">
        <ele>262</ele>
        <time>2017-12-07T10:04:52Z</time>
      </trkpt>
      <trkpt lat="45.9451" lon="4.83547">
        <ele>261</ele>
        <time>2017-12-07T10:04:53Z</time>
      </trkpt>
      <trkpt lat="45.94513" lon="4.83553">
        <ele>261</ele>
        <time>2017-12-07T10:04:54Z</time>
      </trkpt>
      <trkpt lat="45.94516" lon="4.8356">
        <ele>261</ele>
        <time>2017-12-07T10:04:55Z</time>
      </trkpt>
      <trkpt lat="45.94518" lon="4.83566">
        <ele>261</ele>
        <time>2017-12-07T10:04:56Z</time>
      </trkpt>
      <trkpt lat="45.9452" lon="4.83573">
        <ele>261</ele>
        <time>2017-12-07T10:04:57Z</time>
      </trkpt>
      <trkpt lat="45.94522" lon="4.83582">
        <ele>261</ele>
        <time>2017-12-07T10:04:58Z</time>
      </trkpt>
      <trkpt lat="45.94524" lon="4.8359">
        <ele>261</ele>
        <time>2017-12-07T10:04:59Z</time>
      </trkpt>
      <trkpt lat="45.94527" lon="4.83599">
        <ele>261</ele>
        <time>2017-12-07T10:05:00Z</time>
      </trkpt>
      <trkpt lat="45.94528" lon="4.83607">
        <ele>261</ele>
        <time>2017-12-07T10:05:01Z</time>
      </trkpt>
      <trkpt lat="45.94529" lon="4.83616">
        <ele>261</ele>
        <time>2017-12-07T10:05:02Z</time>
      </trkpt>
      <trkpt lat="45.9453" lon="4.83625">
        <ele>261</ele>
        <time>2017-12-07T10:05:03Z</time>
      </trkpt>
      <trkpt lat="45.94532" lon="4.83634">
        <ele>261</ele>
        <time>2017-12-07T10:05:04Z</time>
      </trkpt>
      <trkpt lat="45.94533" lon="4.83642">
        <ele>261</ele>
        <time>2017-12-07T10:05:05Z</time>
      </trkpt>
      <trkpt lat="45.94534" lon="4.83651">
        <ele>261</ele>
        <time>2017-12-07T10:05:06Z</time>
      </trkpt>
      <trkpt lat="45.94534" lon="4.8366">
        <ele>261</ele>
        <time>2017-12-07T10:05:07Z</time>
      </trkpt>
      <trkpt lat="45.94535" lon="4.83668">
        <ele>262</ele>
        <time>2017-12-07T10:05:08Z</time>
      </trkpt>
      <trkpt lat="45.94537" lon="4.83676">
        <ele>262</ele>
        <time>2017-12-07T10:05:09Z</time>
      </trkpt>
      <trkpt lat="45.94538" lon="4.83684">
        <ele>262</ele>
        <time>2017-12-07T10:05:10Z</time>
      </trkpt>
      <trkpt lat="45.94539" lon="4.83691">
        <ele>262</ele>
        <time>2017-12-07T10:05:11Z</time>
      </trkpt>
      <trkpt lat="45.9454" lon="4.83698">
        <ele>262</ele>
        <time>2017-12-07T10:05:12Z</time>
      </trkpt>
      <trkpt lat="45.94542" lon="4.83704">
        <ele>262</ele>
        <time>2017-12-07T10:05:13Z</time>
      </trkpt>
      <trkpt lat="45.94544" lon="4.83711">
        <ele>262</ele>
        <time>2017-12-07T10:05:14Z</time>
      </trkpt>
      <trkpt lat="45.94545" lon="4.83718">
        <ele>262</ele>
        <time>2017-12-07T10:05:15Z</time>
      </trkpt>
      <trkpt lat="45.94547" lon="4.83726">
        <ele>262</ele>
        <time>2017-12-07T10:05:16Z</time>
      </trkpt>
      <trkpt lat="45.94548" lon="4.83732">
        <ele>262</ele>
        <time>2017-12-07T10:05:17Z</time>
      </trkpt>
      <trkpt lat="45.94549" lon="4.8374">
        <ele>262</ele>
        <time>2017-12-07T10:05:18Z</time>
      </trkpt>
      <trkpt lat="45.9455" lon="4.83748">
        <ele>262</ele>
        <time>2017-12-07T10:05:19Z</time>
      </trkpt>
      <trkpt lat="45.94552" lon="4.83756">
        <ele>263</ele>
        <time>2017-12-07T10:05:20Z</time>
      </trkpt>
      <trkpt lat="45.94553" lon="4.83765">
        <ele>263</ele>
        <time>2017-12-07T10:05:21Z</time>
      </trkpt>
      <trkpt lat="45.94554" lon="4.83774">
        <ele>264</ele>
        <time>2017-12-07T10:05:22Z</time>
      </trkpt>
      <trkpt lat="45.94555" lon="4.83783">
        <ele>264</ele>
        <time>2017-12-07T10:05:23Z</time>
      </trkpt>
      <trkpt lat="45.94555" lon="4.83792">
        <ele>264</ele>
        <time>2017-12-07T10:05:24Z</time>
      </trkpt>
      <trkpt lat="45.94557" lon="4.838">
        <ele>264</ele>
        <time>2017-12-07T10:05:25Z</time>
      </trkpt>
      <trkpt lat="45.94559" lon="4.83807">
        <ele>264</ele>
        <time>2017-12-07T10:05:26Z</time>
      </trkpt>
      <trkpt lat="45.9456" lon="4.83814">
        <ele>264</ele>
        <time>2017-12-07T10:05:27Z</time>
      </trkpt>
      <trkpt lat="45.94561" lon="4.83821">
        <ele>264</ele>
        <time>2017-12-07T10:05:28Z</time>
      </trkpt>
      <trkpt lat="45.94563" lon="4.83828">
        <ele>265</ele>
        <time>2017-12-07T10:05:29Z</time>
      </trkpt>
      <trkpt lat="45.94564" lon="4.83836">
        <ele>266</ele>
        <time>2017-12-07T10:05:30Z</time>
      </trkpt>
      <trkpt lat="45.94566" lon="4.83843">
        <ele>266</ele>
        <time>2017-12-07T10:05:31Z</time>
      </trkpt>
      <trkpt lat="45.94567" lon="4.83851">
        <ele>266</ele>
        <time>2017-12-07T10:05:32Z</time>
      </trkpt>
      <trkpt lat="45.94567" lon="4.83858">
        <ele>267</ele>
        <time>2017-12-07T10:05:33Z</time>
      </trkpt>
      <trkpt lat="45.94568" lon="4.83865">
        <ele>267</ele>
        <time>2017-12-07T10:05:34Z</time>
      </trkpt>
      <trkpt lat="45.9457" lon="4.83871">
        <ele>267</ele>
        <time>2017-12-07T10:05:35Z</time>
      </trkpt>
      <trkpt lat="45.94571" lon="4.83877">
        <ele>267</ele>
        <time>2017-12-07T10:05:36Z</time>
      </trkpt>
      <trkpt lat="45.94571" lon="4.83885">
        <ele>267</ele>
        <time>2017-12-07T10:05:37Z</time>
      </trkpt>
      <trkpt lat="45.94572" lon="4.83891">
        <ele>267</ele>
        <time>2017-12-07T10:05:38Z</time>
      </trkpt>
      <trkpt lat="45.94573" lon="4.83897">
        <ele>268</ele>
        <time>2017-12-07T10:05:39Z</time>
      </trkpt>
      <trkpt lat="45.94575" lon="4.83904">
        <ele>268</ele>
        <time>2017-12-07T10:05:40Z</time>
      </trkpt>
      <trkpt lat="45.94576" lon="4.83912">
        <ele>268</ele>
        <time>2017-12-07T10:05:41Z</time>
      </trkpt>
      <trkpt lat="45.94576" lon="4.83919">
        <ele>268</ele>
        <time>2017-12-07T10:05:42Z</time>
      </trkpt>
      <trkpt lat="45.94577" lon="4.83924">
        <ele>268</ele>
        <time>2017-12-07T10:05:43Z</time>
      </trkpt>
      <trkpt lat="45.94578" lon="4.83931">
        <ele>268</ele>
        <time>2017-12-07T10:05:44Z</time>
      </trkpt>
      <trkpt lat="45.94578" lon="4.83938">
        <ele>269</ele>
        <time>2017-12-07T10:05:45Z</time>
      </trkpt>
      <trkpt lat="45.94579" lon="4.83945">
        <ele>269</ele>
        <time>2017-12-07T10:05:46Z</time>
      </trkpt>
      <trkpt lat="45.94581" lon="4.83951">
        <ele>269</ele>
        <time>2017-12-07T10:05:47Z</time>
      </trkpt>
      <trkpt lat="45.94582" lon="4.83958">
        <ele>269</ele>
        <time>2017-12-07T10:05:48Z</time>
      </trkpt>
      <trkpt lat="45.94584" lon="4.83965">
        <ele>268</ele>
        <time>2017-12-07T10:05:49Z</time>
      </trkpt>
      <trkpt lat="45.94585" lon="4.83971">
        <ele>268</ele>
        <time>2017-12-07T10:05:50Z</time>
      </trkpt>
      <trkpt lat="45.94586" lon="4.83977">
        <ele>268</ele>
        <time>2017-12-07T10:05:51Z</time>
      </trkpt>
      <trkpt lat="45.94589" lon="4.83989">
        <ele>269</ele>
        <time>2017-12-07T10:05:53Z</time>
      </trkpt>
      <trkpt lat="45.94589" lon="4.83995">
        <ele>269</ele>
        <time>2017-12-07T10:05:54Z</time>
      </trkpt>
      <trkpt lat="45.9459" lon="4.84007">
        <ele>269</ele>
        <time>2017-12-07T10:05:56Z</time>
      </trkpt>
      <trkpt lat="45.94591" lon="4.84014">
        <ele>269</ele>
        <time>2017-12-07T10:05:57Z</time>
      </trkpt>
      <trkpt lat="45.94592" lon="4.84021">
        <ele>269</ele>
        <time>2017-12-07T10:05:58Z</time>
      </trkpt>
      <trkpt lat="45.94593" lon="4.84027">
        <ele>269</ele>
        <time>2017-12-07T10:05:59Z</time>
      </trkpt>
      <trkpt lat="45.94595" lon="4.84039">
        <ele>269</ele>
        <time>2017-12-07T10:06:01Z</time>
      </trkpt>
      <trkpt lat="45.94596" lon="4.84045">
        <ele>269</ele>
        <time>2017-12-07T10:06:02Z</time>
      </trkpt>
      <trkpt lat="45.94598" lon="4.84056">
        <ele>269</ele>
        <time>2017-12-07T10:06:04Z</time>
      </trkpt>
      <trkpt lat="45.94599" lon="4.84063">
        <ele>269</ele>
        <time>2017-12-07T10:06:05Z</time>
      </trkpt>
      <trkpt lat="45.946" lon="4.84071">
        <ele>269</ele>
        <time>2017-12-07T10:06:06Z</time>
      </trkpt>
      <trkpt lat="45.94602" lon="4.84078">
        <ele>269</ele>
        <time>2017-12-07T10:06:07Z</time>
      </trkpt>
      <trkpt lat="45.94603" lon="4.84085">
        <ele>269</ele>
        <time>2017-12-07T10:06:08Z</time>
      </trkpt>
      <trkpt lat="45.94604" lon="4.84093">
        <ele>269</ele>
        <time>2017-12-07T10:06:09Z</time>
      </trkpt>
      <trkpt lat="45.94605" lon="4.84099">
        <ele>269</ele>
        <time>2017-12-07T10:06:10Z</time>
      </trkpt>
      <trkpt lat="45.94607" lon="4.84106">
        <ele>269</ele>
        <time>2017-12-07T10:06:11Z</time>
      </trkpt>
      <trkpt lat="45.94608" lon="4.84112">
        <ele>269</ele>
        <time>2017-12-07T10:06:12Z</time>
      </trkpt>
      <trkpt lat="45.94609" lon="4.84119">
        <ele>269</ele>
        <time>2017-12-07T10:06:13Z</time>
      </trkpt>
      <trkpt lat="45.94611" lon="4.84131">
        <ele>269</ele>
        <time>2017-12-07T10:06:15Z</time>
      </trkpt>
      <trkpt lat="45.94613" lon="4.84137">
        <ele>269</ele>
        <time>2017-12-07T10:06:16Z</time>
      </trkpt>
      <trkpt lat="45.94615" lon="4.84144">
        <ele>269</ele>
        <time>2017-12-07T10:06:17Z</time>
      </trkpt>
      <trkpt lat="45.94615" lon="4.84151">
        <ele>269</ele>
        <time>2017-12-07T10:06:18Z</time>
      </trkpt>
      <trkpt lat="45.94616" lon="4.84158">
        <ele>269</ele>
        <time>2017-12-07T10:06:19Z</time>
      </trkpt>
      <trkpt lat="45.94619" lon="4.84166">
        <ele>269</ele>
        <time>2017-12-07T10:06:20Z</time>
      </trkpt>
      <trkpt lat="45.9462" lon="4.84178">
        <ele>269</ele>
        <time>2017-12-07T10:06:22Z</time>
      </trkpt>
      <trkpt lat="45.94622" lon="4.84184">
        <ele>269</ele>
        <time>2017-12-07T10:06:23Z</time>
      </trkpt>
      <trkpt lat="45.94624" lon="4.84196">
        <ele>269</ele>
        <time>2017-12-07T10:06:25Z</time>
      </trkpt>
      <trkpt lat="45.94625" lon="4.84201">
        <ele>269</ele>
        <time>2017-12-07T10:06:26Z</time>
      </trkpt>
      <trkpt lat="45.94626" lon="4.84212">
        <ele>269</ele>
        <time>2017-12-07T10:06:28Z</time>
      </trkpt>
      <trkpt lat="45.94627" lon="4.84218">
        <ele>269</ele>
        <time>2017-12-07T10:06:29Z</time>
      </trkpt>
      <trkpt lat="45.94628" lon="4.84225">
        <ele>269</ele>
        <time>2017-12-07T10:06:30Z</time>
      </trkpt>
      <trkpt lat="45.94627" lon="4.84232">
        <ele>269</ele>
        <time>2017-12-07T10:06:31Z</time>
      </trkpt>
      <trkpt lat="45.94628" lon="4.84238">
        <ele>269</ele>
        <time>2017-12-07T10:06:32Z</time>
      </trkpt>
      <trkpt lat="45.94628" lon="4.84245">
        <ele>269</ele>
        <time>2017-12-07T10:06:33Z</time>
      </trkpt>
      <trkpt lat="45.94629" lon="4.84253">
        <ele>269</ele>
        <time>2017-12-07T10:06:34Z</time>
      </trkpt>
      <trkpt lat="45.9463" lon="4.8426">
        <ele>269</ele>
        <time>2017-12-07T10:06:35Z</time>
      </trkpt>
      <trkpt lat="45.94631" lon="4.84267">
        <ele>269</ele>
        <time>2017-12-07T10:06:36Z</time>
      </trkpt>
      <trkpt lat="45.94632" lon="4.84272">
        <ele>269</ele>
        <time>2017-12-07T10:06:37Z</time>
      </trkpt>
      <trkpt lat="45.94633" lon="4.84283">
        <ele>269</ele>
        <time>2017-12-07T10:06:39Z</time>
      </trkpt>
      <trkpt lat="45.94633" lon="4.84289">
        <ele>269</ele>
        <time>2017-12-07T10:06:40Z</time>
      </trkpt>
      <trkpt lat="45.94635" lon="4.84294">
        <ele>269</ele>
        <time>2017-12-07T10:06:41Z</time>
      </trkpt>
      <trkpt lat="45.94636" lon="4.84301">
        <ele>269</ele>
        <time>2017-12-07T10:06:42Z</time>
      </trkpt>
      <trkpt lat="45.94637" lon="4.84309">
        <ele>269</ele>
        <time>2017-12-07T10:06:43Z</time>
      </trkpt>
      <trkpt lat="45.94638" lon="4.84315">
        <ele>269</ele>
        <time>2017-12-07T10:06:44Z</time>
      </trkpt>
      <trkpt lat="45.94638" lon="4.84323">
        <ele>269</ele>
        <time>2017-12-07T10:06:45Z</time>
      </trkpt>
      <trkpt lat="45.94639" lon="4.8433">
        <ele>269</ele>
        <time>2017-12-07T10:06:46Z</time>
      </trkpt>
      <trkpt lat="45.9464" lon="4.84339">
        <ele>268</ele>
        <time>2017-12-07T10:06:47Z</time>
      </trkpt>
      <trkpt lat="45.94641" lon="4.84346">
        <ele>268</ele>
        <time>2017-12-07T10:06:48Z</time>
      </trkpt>
      <trkpt lat="45.94642" lon="4.84353">
        <ele>268</ele>
        <time>2017-12-07T10:06:49Z</time>
      </trkpt>
      <trkpt lat="45.94644" lon="4.84361">
        <ele>268</ele>
        <time>2017-12-07T10:06:50Z</time>
      </trkpt>
      <trkpt lat="45.94644" lon="4.84368">
        <ele>268</ele>
        <time>2017-12-07T10:06:51Z</time>
      </trkpt>
      <trkpt lat="45.94645" lon="4.84375">
        <ele>268</ele>
        <time>2017-12-07T10:06:52Z</time>
      </trkpt>
      <trkpt lat="45.94646" lon="4.84382">
        <ele>268</ele>
        <time>2017-12-07T10:06:53Z</time>
      </trkpt>
      <trkpt lat="45.94646" lon="4.84388">
        <ele>268</ele>
        <time>2017-12-07T10:06:54Z</time>
      </trkpt>
      <trkpt lat="45.94648" lon="4.844">
        <ele>268</ele>
        <time>2017-12-07T10:06:56Z</time>
      </trkpt>
      <trkpt lat="45.94649" lon="4.84406">
        <ele>268</ele>
        <time>2017-12-07T10:06:57Z</time>
      </trkpt>
      <trkpt lat="45.9465" lon="4.84413">
        <ele>268</ele>
        <time>2017-12-07T10:06:58Z</time>
      </trkpt>
      <trkpt lat="45.9465" lon="4.84421">
        <ele>268</ele>
        <time>2017-12-07T10:06:59Z</time>
      </trkpt>
      <trkpt lat="45.94651" lon="4.84428">
        <ele>268</ele>
        <time>2017-12-07T10:07:00Z</time>
      </trkpt>
      <trkpt lat="45.94652" lon="4.84435">
        <ele>268</ele>
        <time>2017-12-07T10:07:01Z</time>
      </trkpt>
      <trkpt lat="45.94651" lon="4.84443">
        <ele>268</ele>
        <time>2017-12-07T10:07:02Z</time>
      </trkpt>
      <trkpt lat="45.94652" lon="4.8445">
        <ele>268</ele>
        <time>2017-12-07T10:07:03Z</time>
      </trkpt>
      <trkpt lat="45.94652" lon="4.84458">
        <ele>268</ele>
        <time>2017-12-07T10:07:04Z</time>
      </trkpt>
      <trkpt lat="45.94653" lon="4.84464">
        <ele>268</ele>
        <time>2017-12-07T10:07:05Z</time>
      </trkpt>
      <trkpt lat="45.94654" lon="4.8447">
        <ele>268</ele>
        <time>2017-12-07T10:07:06Z</time>
      </trkpt>
      <trkpt lat="45.94655" lon="4.84478">
        <ele>268</ele>
        <time>2017-12-07T10:07:07Z</time>
      </trkpt>
      <trkpt lat="45.94656" lon="4.84485">
        <ele>268</ele>
        <time>2017-12-07T10:07:08Z</time>
      </trkpt>
      <trkpt lat="45.94657" lon="4.84491">
        <ele>268</ele>
        <time>2017-12-07T10:07:09Z</time>
      </trkpt>
      <trkpt lat="45.94658" lon="4.84504">
        <ele>268</ele>
        <time>2017-12-07T10:07:11Z</time>
      </trkpt>
      <trkpt lat="45.94658" lon="4.84511">
        <ele>268</ele>
        <time>2017-12-07T10:07:12Z</time>
      </trkpt>
      <trkpt lat="45.94659" lon="4.84518">
        <ele>268</ele>
        <time>2017-12-07T10:07:13Z</time>
      </trkpt>
      <trkpt lat="45.9466" lon="4.84525">
        <ele>268</ele>
        <time>2017-12-07T10:07:14Z</time>
      </trkpt>
      <trkpt lat="45.9466" lon="4.84531">
        <ele>268</ele>
        <time>2017-12-07T10:07:15Z</time>
      </trkpt>
      <trkpt lat="45.94661" lon="4.8454">
        <ele>268</ele>
        <time>2017-12-07T10:07:16Z</time>
      </trkpt>
      <trkpt lat="45.94662" lon="4.84548">
        <ele>268</ele>
        <time>2017-12-07T10:07:17Z</time>
      </trkpt>
      <trkpt lat="45.94661" lon="4.84556">
        <ele>268</ele>
        <time>2017-12-07T10:07:18Z</time>
      </trkpt>
      <trkpt lat="45.94662" lon="4.84565">
        <ele>268</ele>
        <time>2017-12-07T10:07:19Z</time>
      </trkpt>
      <trkpt lat="45.94662" lon="4.84573">
        <ele>268</ele>
        <time>2017-12-07T10:07:20Z</time>
      </trkpt>
      <trkpt lat="45.94663" lon="4.84581">
        <ele>268</ele>
        <time>2017-12-07T10:07:21Z</time>
      </trkpt>
      <trkpt lat="45.94663" lon="4.84589">
        <ele>268</ele>
        <time>2017-12-07T10:07:22Z</time>
      </trkpt>
      <trkpt lat="45.94664" lon="4.84598">
        <ele>268</ele>
        <time>2017-12-07T10:07:23Z</time>
      </trkpt>
      <trkpt lat="45.94664" lon="4.84607">
        <ele>268</ele>
        <time>2017-12-07T10:07:24Z</time>
      </trkpt>
      <trkpt lat="45.94664" lon="4.84615">
        <ele>268</ele>
        <time>2017-12-07T10:07:25Z</time>
      </trkpt>
      <trkpt lat="45.94665" lon="4.84622">
        <ele>268</ele>
        <time>2017-12-07T10:07:26Z</time>
      </trkpt>
      <trkpt lat="45.94666" lon="4.84629">
        <ele>268</ele>
        <time>2017-12-07T10:07:27Z</time>
      </trkpt>
      <trkpt lat="45.94666" lon="4.84636">
        <ele>268</ele>
        <time>2017-12-07T10:07:28Z</time>
      </trkpt>
      <trkpt lat="45.94666" lon="4.84644">
        <ele>268</ele>
        <time>2017-12-07T10:07:29Z</time>
      </trkpt>
      <trkpt lat="45.94666" lon="4.84651">
        <ele>269</ele>
        <time>2017-12-07T10:07:30Z</time>
      </trkpt>
      <trkpt lat="45.94667" lon="4.84658">
        <ele>269</ele>
        <time>2017-12-07T10:07:31Z</time>
      </trkpt>
      <trkpt lat="45.94667" lon="4.84666">
        <ele>269</ele>
        <time>2017-12-07T10:07:32Z</time>
      </trkpt>
      <trkpt lat="45.94667" lon="4.84674">
        <ele>269</ele>
        <time>2017-12-07T10:07:33Z</time>
      </trkpt>
      <trkpt lat="45.94668" lon="4.84682">
        <ele>269</ele>
        <time>2017-12-07T10:07:34Z</time>
      </trkpt>
      <trkpt lat="45.94668" lon="4.84691">
        <ele>269</ele>
        <time>2017-12-07T10:07:35Z</time>
      </trkpt>
      <trkpt lat="45.94668" lon="4.847">
        <ele>269</ele>
        <time>2017-12-07T10:07:36Z</time>
      </trkpt>
      <trkpt lat="45.94669" lon="4.84709">
        <ele>269</ele>
        <time>2017-12-07T10:07:37Z</time>
      </trkpt>
      <trkpt lat="45.9467" lon="4.84717">
        <ele>269</ele>
        <time>2017-12-07T10:07:38Z</time>
      </trkpt>
      <trkpt lat="45.9467" lon="4.84725">
        <ele>269</ele>
        <time>2017-12-07T10:07:39Z</time>
      </trkpt>
      <trkpt lat="45.9467" lon="4.84733">
        <ele>269</ele>
        <time>2017-12-07T10:07:40Z</time>
      </trkpt>
      <trkpt lat="45.94668" lon="4.84741">
        <ele>269</ele>
        <time>2017-12-07T10:07:41Z</time>
      </trkpt>
      <trkpt lat="45.94668" lon="4.84748">
        <ele>269</ele>
        <time>2017-12-07T10:07:42Z</time>
      </trkpt>
      <trkpt lat="45.94668" lon="4.84755">
        <ele>269</ele>
        <time>2017-12-07T10:07:43Z</time>
      </trkpt>
      <trkpt lat="45.94669" lon="4.84763">
        <ele>269</ele>
        <time>2017-12-07T10:07:44Z</time>
      </trkpt>
      <trkpt lat="45.94669" lon="4.84776">
        <ele>269</ele>
        <time>2017-12-07T10:07:46Z</time>
      </trkpt>
      <trkpt lat="45.9467" lon="4.84782">
        <ele>269</ele>
        <time>2017-12-07T10:07:47Z</time>
      </trkpt>
      <trkpt lat="45.9467" lon="4.84794">
        <ele>268</ele>
        <time>2017-12-07T10:07:49Z</time>
      </trkpt>
      <trkpt lat="45.94671" lon="4.84801">
        <ele>268</ele>
        <time>2017-12-07T10:07:50Z</time>
      </trkpt>
      <trkpt lat="45.94672" lon="4.84808">
        <ele>268</ele>
        <time>2017-12-07T10:07:51Z</time>
      </trkpt>
      <trkpt lat="45.94672" lon="4.84816">
        <ele>268</ele>
        <time>2017-12-07T10:07:52Z</time>
      </trkpt>
      <trkpt lat="45.94673" lon="4.84823">
        <ele>268</ele>
        <time>2017-12-07T10:07:53Z</time>
      </trkpt>
      <trkpt lat="45.94674" lon="4.84831">
        <ele>268</ele>
        <time>2017-12-07T10:07:54Z</time>
      </trkpt>
      <trkpt lat="45.94675" lon="4.84838">
        <ele>268</ele>
        <time>2017-12-07T10:07:55Z</time>
      </trkpt>
      <trkpt lat="45.94676" lon="4.84845">
        <ele>268</ele>
        <time>2017-12-07T10:07:56Z</time>
      </trkpt>
      <trkpt lat="45.94676" lon="4.84852">
        <ele>268</ele>
        <time>2017-12-07T10:07:57Z</time>
      </trkpt>
      <trkpt lat="45.94677" lon="4.84859">
        <ele>268</ele>
        <time>2017-12-07T10:07:58Z</time>
      </trkpt>
      <trkpt lat="45.94678" lon="4.84866">
        <ele>268</ele>
        <time>2017-12-07T10:07:59Z</time>
      </trkpt>
      <trkpt lat="45.94679" lon="4.84873">
        <ele>268</ele>
        <time>2017-12-07T10:08:00Z</time>
      </trkpt>
      <trkpt lat="45.9468" lon="4.8488">
        <ele>268</ele>
        <time>2017-12-07T10:08:01Z</time>
      </trkpt>
      <trkpt lat="45.94681" lon="4.84886">
        <ele>268</ele>
        <time>2017-12-07T10:08:02Z</time>
      </trkpt>
      <trkpt lat="45.94681" lon="4.84898">
        <ele>269</ele>
        <time>2017-12-07T10:08:04Z</time>
      </trkpt>
      <trkpt lat="45.94683" lon="4.84905">
        <ele>269</ele>
        <time>2017-12-07T10:08:05Z</time>
      </trkpt>
      <trkpt lat="45.94684" lon="4.8491">
        <ele>269</ele>
        <time>2017-12-07T10:08:06Z</time>
      </trkpt>
      <trkpt lat="45.94684" lon="4.84918">
        <ele>269</ele>
        <time>2017-12-07T10:08:07Z</time>
      </trkpt>
      <trkpt lat="45.94684" lon="4.84925">
        <ele>269</ele>
        <time>2017-12-07T10:08:08Z</time>
      </trkpt>
      <trkpt lat="45.94686" lon="4.84933">
        <ele>269</ele>
        <time>2017-12-07T10:08:09Z</time>
      </trkpt>
      <trkpt lat="45.94687" lon="4.8494">
        <ele>269</ele>
        <time>2017-12-07T10:08:10Z</time>
      </trkpt>
      <trkpt lat="45.94686" lon="4.84948">
        <ele>269</ele>
        <time>2017-12-07T10:08:11Z</time>
      </trkpt>
      <trkpt lat="45.94687" lon="4.84955">
        <ele>269</ele>
        <time>2017-12-07T10:08:12Z</time>
      </trkpt>
      <trkpt lat="45.94687" lon="4.84962">
        <ele>269</ele>
        <time>2017-12-07T10:08:13Z</time>
      </trkpt>
      <trkpt lat="45.94688" lon="4.84969">
        <ele>269</ele>
        <time>2017-12-07T10:08:14Z</time>
      </trkpt>
      <trkpt lat="45.94689" lon="4.84975">
        <ele>269</ele>
        <time>2017-12-07T10:08:15Z</time>
      </trkpt>
      <trkpt lat="45.9469" lon="4.84982">
        <ele>269</ele>
        <time>2017-12-07T10:08:16Z</time>
      </trkpt>
      <trkpt lat="45.9469" lon="4.84989">
        <ele>269</ele>
        <time>2017-12-07T10:08:17Z</time>
      </trkpt>
      <trkpt lat="45.94692" lon="4.85001">
        <ele>269</ele>
        <time>2017-12-07T10:08:19Z</time>
      </trkpt>
      <trkpt lat="45.94693" lon="4.85008">
        <ele>269</ele>
        <time>2017-12-07T10:08:20Z</time>
      </trkpt>
      <trkpt lat="45.94694" lon="4.85015">
        <ele>269</ele>
        <time>2017-12-07T10:08:21Z</time>
      </trkpt>
      <trkpt lat="45.94696" lon="4.85024">
        <ele>269</ele>
        <time>2017-12-07T10:08:22Z</time>
      </trkpt>
      <trkpt lat="45.94696" lon="4.85031">
        <ele>269</ele>
        <time>2017-12-07T10:08:23Z</time>
      </trkpt>
      <trkpt lat="45.94698" lon="4.85038">
        <ele>269</ele>
        <time>2017-12-07T10:08:24Z</time>
      </trkpt>
      <trkpt lat="45.94698" lon="4.85045">
        <ele>269</ele>
        <time>2017-12-07T10:08:25Z</time>
      </trkpt>
      <trkpt lat="45.94698" lon="4.85052">
        <ele>269</ele>
        <time>2017-12-07T10:08:26Z</time>
      </trkpt>
      <trkpt lat="45.94698" lon="4.8506">
        <ele>269</ele>
        <time>2017-12-07T10:08:27Z</time>
      </trkpt>
      <trkpt lat="45.94699" lon="4.85067">
        <ele>269</ele>
        <time>2017-12-07T10:08:28Z</time>
      </trkpt>
      <trkpt lat="45.947" lon="4.85079">
        <ele>269</ele>
        <time>2017-12-07T10:08:30Z</time>
      </trkpt>
      <trkpt lat="45.94702" lon="4.85086">
        <ele>269</ele>
        <time>2017-12-07T10:08:31Z</time>
      </trkpt>
      <trkpt lat="45.94703" lon="4.85092">
        <ele>269</ele>
        <time>2017-12-07T10:08:32Z</time>
      </trkpt>
      <trkpt lat="45.94704" lon="4.851">
        <ele>269</ele>
        <time>2017-12-07T10:08:33Z</time>
      </trkpt>
      <trkpt lat="45.94706" lon="4.85108">
        <ele>269</ele>
        <time>2017-12-07T10:08:34Z</time>
      </trkpt>
      <trkpt lat="45.94706" lon="4.85115">
        <ele>269</ele>
        <time>2017-12-07T10:08:35Z</time>
      </trkpt>
      <trkpt lat="45.94707" lon="4.85123">
        <ele>269</ele>
        <time>2017-12-07T10:08:36Z</time>
      </trkpt>
      <trkpt lat="45.94708" lon="4.8513">
        <ele>269</ele>
        <time>2017-12-07T10:08:37Z</time>
      </trkpt>
      <trkpt lat="45.94709" lon="4.85137">
        <ele>269</ele>
        <time>2017-12-07T10:08:38Z</time>
      </trkpt>
      <trkpt lat="45.94709" lon="4.85144">
        <ele>269</ele>
        <time>2017-12-07T10:08:39Z</time>
      </trkpt>
      <trkpt lat="45.9471" lon="4.85151">
        <ele>269</ele>
        <time>2017-12-07T10:08:40Z</time>
      </trkpt>
      <trkpt lat="45.9471" lon="4.85157">
        <ele>269</ele>
        <time>2017-12-07T10:08:41Z</time>
      </trkpt>
      <trkpt lat="45.94711" lon="4.85164">
        <ele>269</ele>
        <time>2017-12-07T10:08:42Z</time>
      </trkpt>
      <trkpt lat="45.94712" lon="4.85171">
        <ele>269</ele>
        <time>2017-12-07T10:08:43Z</time>
      </trkpt>
      <trkpt lat="45.94715" lon="4.8518">
        <ele>269</ele>
        <time>2017-12-07T10:08:45Z</time>
      </trkpt>
      <trkpt lat="45.94715" lon="4.85186">
        <ele>269</ele>
        <time>2017-12-07T10:08:46Z</time>
      </trkpt>
      <trkpt lat="45.94715" lon="4.85199">
        <ele>269</ele>
        <time>2017-12-07T10:08:48Z</time>
      </trkpt>
      <trkpt lat="45.94716" lon="4.85206">
        <ele>269</ele>
        <time>2017-12-07T10:08:49Z</time>
      </trkpt>
      <trkpt lat="45.94717" lon="4.85214">
        <ele>269</ele>
        <time>2017-12-07T10:08:50Z</time>
      </trkpt>
      <trkpt lat="45.94718" lon="4.85223">
        <ele>269</ele>
        <time>2017-12-07T10:08:51Z</time>
      </trkpt>
      <trkpt lat="45.94718" lon="4.85231">
        <ele>269</ele>
        <time>2017-12-07T10:08:52Z</time>
      </trkpt>
      <trkpt lat="45.94719" lon="4.85238">
        <ele>269</ele>
        <time>2017-12-07T10:08:53Z</time>
      </trkpt>
      <trkpt lat="45.94719" lon="4.85245">
        <ele>269</ele>
        <time>2017-12-07T10:08:54Z</time>
      </trkpt>
      <trkpt lat="45.94719" lon="4.85251">
        <ele>269</ele>
        <time>2017-12-07T10:08:55Z</time>
      </trkpt>
      <trkpt lat="45.9472" lon="4.85257">
        <ele>269</ele>
        <time>2017-12-07T10:08:56Z</time>
      </trkpt>
      <trkpt lat="45.94721" lon="4.85264">
        <ele>269</ele>
        <time>2017-12-07T10:08:57Z</time>
      </trkpt>
      <trkpt lat="45.94722" lon="4.8527">
        <ele>269</ele>
        <time>2017-12-07T10:08:58Z</time>
      </trkpt>
      <trkpt lat="45.94723" lon="4.85278">
        <ele>269</ele>
        <time>2017-12-07T10:08:59Z</time>
      </trkpt>
      <trkpt lat="45.94725" lon="4.85287">
        <ele>269</ele>
        <time>2017-12-07T10:09:00Z</time>
      </trkpt>
      <trkpt lat="45.94725" lon="4.85294">
        <ele>270</ele>
        <time>2017-12-07T10:09:01Z</time>
      </trkpt>
      <trkpt lat="45.94726" lon="4.85302">
        <ele>270</ele>
        <time>2017-12-07T10:09:02Z</time>
      </trkpt>
      <trkpt lat="45.94727" lon="4.8531">
        <ele>270</ele>
        <time>2017-12-07T10:09:03Z</time>
      </trkpt>
      <trkpt lat="45.94727" lon="4.85318">
        <ele>270</ele>
        <time>2017-12-07T10:09:04Z</time>
      </trkpt>
      <trkpt lat="45.94729" lon="4.85327">
        <ele>270</ele>
        <time>2017-12-07T10:09:05Z</time>
      </trkpt>
      <trkpt lat="45.94728" lon="4.85335">
        <ele>271</ele>
        <time>2017-12-07T10:09:06Z</time>
      </trkpt>
      <trkpt lat="45.94729" lon="4.85342">
        <ele>271</ele>
        <time>2017-12-07T10:09:07Z</time>
      </trkpt>
      <trkpt lat="45.94731" lon="4.85354">
        <ele>271</ele>
        <time>2017-12-07T10:09:09Z</time>
      </trkpt>
      <trkpt lat="45.94732" lon="4.85362">
        <ele>271</ele>
        <time>2017-12-07T10:09:10Z</time>
      </trkpt>
      <trkpt lat="45.94733" lon="4.85369">
        <ele>271</ele>
        <time>2017-12-07T10:09:11Z</time>
      </trkpt>
      <trkpt lat="45.94734" lon="4.85376">
        <ele>271</ele>
        <time>2017-12-07T10:09:12Z</time>
      </trkpt>
      <trkpt lat="45.94735" lon="4.85383">
        <ele>271</ele>
        <time>2017-12-07T10:09:13Z</time>
      </trkpt>
      <trkpt lat="45.94735" lon="4.8539">
        <ele>272</ele>
        <time>2017-12-07T10:09:14Z</time>
      </trkpt>
      <trkpt lat="45.94736" lon="4.85396">
        <ele>272</ele>
        <time>2017-12-07T10:09:15Z</time>
      </trkpt>
      <trkpt lat="45.94738" lon="4.85404">
        <ele>272</ele>
        <time>2017-12-07T10:09:16Z</time>
      </trkpt>
      <trkpt lat="45.94739" lon="4.8541">
        <ele>272</ele>
        <time>2017-12-07T10:09:17Z</time>
      </trkpt>
      <trkpt lat="45.9474" lon="4.85417">
        <ele>272</ele>
        <time>2017-12-07T10:09:18Z</time>
      </trkpt>
      <trkpt lat="45.94739" lon="4.85423">
        <ele>273</ele>
        <time>2017-12-07T10:09:19Z</time>
      </trkpt>
      <trkpt lat="45.9474" lon="4.8543">
        <ele>273</ele>
        <time>2017-12-07T10:09:20Z</time>
      </trkpt>
      <trkpt lat="45.94739" lon="4.85442">
        <ele>274</ele>
        <time>2017-12-07T10:09:22Z</time>
      </trkpt>
      <trkpt lat="45.94739" lon="4.85448">
        <ele>274</ele>
        <time>2017-12-07T10:09:23Z</time>
      </trkpt>
      <trkpt lat="45.9474" lon="4.85461">
        <ele>274</ele>
        <time>2017-12-07T10:09:25Z</time>
      </trkpt>
      <trkpt lat="45.94741" lon="4.85466">
        <ele>274</ele>
        <time>2017-12-07T10:09:26Z</time>
      </trkpt>
      <trkpt lat="45.94742" lon="4.85472">
        <ele>274</ele>
        <time>2017-12-07T10:09:27Z</time>
      </trkpt>
      <trkpt lat="45.94743" lon="4.85478">
        <ele>275</ele>
        <time>2017-12-07T10:09:28Z</time>
      </trkpt>
      <trkpt lat="45.94744" lon="4.85489">
        <ele>275</ele>
        <time>2017-12-07T10:09:30Z</time>
      </trkpt>
      <trkpt lat="45.94745" lon="4.85495">
        <ele>275</ele>
        <time>2017-12-07T10:09:31Z</time>
      </trkpt>
      <trkpt lat="45.94748" lon="4.85507">
        <ele>276</ele>
        <time>2017-12-07T10:09:33Z</time>
      </trkpt>
      <trkpt lat="45.94748" lon="4.85512">
        <ele>276</ele>
        <time>2017-12-07T10:09:34Z</time>
      </trkpt>
      <trkpt lat="45.9475" lon="4.85523">
        <ele>276</ele>
        <time>2017-12-07T10:09:36Z</time>
      </trkpt>
      <trkpt lat="45.94751" lon="4.85529">
        <ele>278</ele>
        <time>2017-12-07T10:09:37Z</time>
      </trkpt>
      <trkpt lat="45.94753" lon="4.8554">
        <ele>278</ele>
        <time>2017-12-07T10:09:39Z</time>
      </trkpt>
      <trkpt lat="45.94755" lon="4.85545">
        <ele>278</ele>
        <time>2017-12-07T10:09:40Z</time>
      </trkpt>
      <trkpt lat="45.94757" lon="4.85556">
        <ele>278</ele>
        <time>2017-12-07T10:09:42Z</time>
      </trkpt>
      <trkpt lat="45.94758" lon="4.85561">
        <ele>278</ele>
        <time>2017-12-07T10:09:43Z</time>
      </trkpt>
      <trkpt lat="45.9476" lon="4.85571">
        <ele>279</ele>
        <time>2017-12-07T10:09:45Z</time>
      </trkpt>
      <trkpt lat="45.94761" lon="4.85575">
        <ele>279</ele>
        <time>2017-12-07T10:09:46Z</time>
      </trkpt>
      <trkpt lat="45.94764" lon="4.85585">
        <ele>280</ele>
        <time>2017-12-07T10:09:48Z</time>
      </trkpt>
      <trkpt lat="45.94765" lon="4.8559">
        <ele>280</ele>
        <time>2017-12-07T10:09:49Z</time>
      </trkpt>
      <trkpt lat="45.94768" lon="4.856">
        <ele>280</ele>
        <time>2017-12-07T10:09:51Z</time>
      </trkpt>
      <trkpt lat="45.94768" lon="4.85606">
        <ele>280</ele>
        <time>2017-12-07T10:09:52Z</time>
      </trkpt>
      <trkpt lat="45.9477" lon="4.85616">
        <ele>280</ele>
        <time>2017-12-07T10:09:54Z</time>
      </trkpt>
      <trkpt lat="45.94771" lon="4.85622">
        <ele>280</ele>
        <time>2017-12-07T10:09:55Z</time>
      </trkpt>
      <trkpt lat="45.94774" lon="4.85633">
        <ele>280</ele>
        <time>2017-12-07T10:09:57Z</time>
      </trkpt>
      <trkpt lat="45.94775" lon="4.85638">
        <ele>281</ele>
        <time>2017-12-07T10:09:58Z</time>
      </trkpt>
      <trkpt lat="45.94778" lon="4.85648">
        <ele>281</ele>
        <time>2017-12-07T10:10:00Z</time>
      </trkpt>
      <trkpt lat="45.94779" lon="4.85653">
        <ele>281</ele>
        <time>2017-12-07T10:10:01Z</time>
      </trkpt>
      <trkpt lat="45.94782" lon="4.85663">
        <ele>281</ele>
        <time>2017-12-07T10:10:03Z</time>
      </trkpt>
      <trkpt lat="45.94783" lon="4.85668">
        <ele>280</ele>
        <time>2017-12-07T10:10:04Z</time>
      </trkpt>
      <trkpt lat="45.94785" lon="4.85677">
        <ele>280</ele>
        <time>2017-12-07T10:10:06Z</time>
      </trkpt>
      <trkpt lat="45.94786" lon="4.85682">
        <ele>280</ele>
        <time>2017-12-07T10:10:07Z</time>
      </trkpt>
      <trkpt lat="45.94788" lon="4.85693">
        <ele>280</ele>
        <time>2017-12-07T10:10:09Z</time>
      </trkpt>
      <trkpt lat="45.94789" lon="4.85699">
        <ele>280</ele>
        <time>2017-12-07T10:10:10Z</time>
      </trkpt>
      <trkpt lat="45.94791" lon="4.85705">
        <ele>280</ele>
        <time>2017-12-07T10:10:11Z</time>
      </trkpt>
      <trkpt lat="45.94793" lon="4.85711">
        <ele>280</ele>
        <time>2017-12-07T10:10:12Z</time>
      </trkpt>
      <trkpt lat="45.94795" lon="4.85717">
        <ele>280</ele>
        <time>2017-12-07T10:10:13Z</time>
      </trkpt>
      <trkpt lat="45.94796" lon="4.85723">
        <ele>280</ele>
        <time>2017-12-07T10:10:14Z</time>
      </trkpt>
      <trkpt lat="45.94797" lon="4.8573">
        <ele>280</ele>
        <time>2017-12-07T10:10:15Z</time>
      </trkpt>
      <trkpt lat="45.94799" lon="4.85737">
        <ele>280</ele>
        <time>2017-12-07T10:10:16Z</time>
      </trkpt>
      <trkpt lat="45.94801" lon="4.85743">
        <ele>279</ele>
        <time>2017-12-07T10:10:17Z</time>
      </trkpt>
      <trkpt lat="45.94802" lon="4.8575">
        <ele>278</ele>
        <time>2017-12-07T10:10:18Z</time>
      </trkpt>
      <trkpt lat="45.94804" lon="4.85756">
        <ele>278</ele>
        <time>2017-12-07T10:10:19Z</time>
      </trkpt>
      <trkpt lat="45.94806" lon="4.85763">
        <ele>278</ele>
        <time>2017-12-07T10:10:20Z</time>
      </trkpt>
      <trkpt lat="45.94808" lon="4.85769">
        <ele>278</ele>
        <time>2017-12-07T10:10:21Z</time>
      </trkpt>
      <trkpt lat="45.9481" lon="4.85777">
        <ele>278</ele>
        <time>2017-12-07T10:10:22Z</time>
      </trkpt>
      <trkpt lat="45.94812" lon="4.85784">
        <ele>278</ele>
        <time>2017-12-07T10:10:23Z</time>
      </trkpt>
      <trkpt lat="45.94814" lon="4.85791">
        <ele>278</ele>
        <time>2017-12-07T10:10:24Z</time>
      </trkpt>
      <trkpt lat="45.94816" lon="4.85799">
        <ele>278</ele>
        <time>2017-12-07T10:10:25Z</time>
      </trkpt>
      <trkpt lat="45.94818" lon="4.85807">
        <ele>278</ele>
        <time>2017-12-07T10:10:26Z</time>
      </trkpt>
      <trkpt lat="45.9482" lon="4.85814">
        <ele>278</ele>
        <time>2017-12-07T10:10:27Z</time>
      </trkpt>
      <trkpt lat="45.94822" lon="4.85821">
        <ele>278</ele>
        <time>2017-12-07T10:10:28Z</time>
      </trkpt>
      <trkpt lat="45.94824" lon="4.85828">
        <ele>277</ele>
        <time>2017-12-07T10:10:29Z</time>
      </trkpt>
      <trkpt lat="45.94825" lon="4.85836">
        <ele>277</ele>
        <time>2017-12-07T10:10:30Z</time>
      </trkpt>
      <trkpt lat="45.94827" lon="4.85843">
        <ele>277</ele>
        <time>2017-12-07T10:10:31Z</time>
      </trkpt>
      <trkpt lat="45.94829" lon="4.85851">
        <ele>277</ele>
        <time>2017-12-07T10:10:32Z</time>
      </trkpt>
      <trkpt lat="45.9483" lon="4.85857">
        <ele>277</ele>
        <time>2017-12-07T10:10:33Z</time>
      </trkpt>
      <trkpt lat="45.94832" lon="4.85864">
        <ele>277</ele>
        <time>2017-12-07T10:10:34Z</time>
      </trkpt>
      <trkpt lat="45.94834" lon="4.85871">
        <ele>276</ele>
        <time>2017-12-07T10:10:35Z</time>
      </trkpt>
      <trkpt lat="45.94836" lon="4.85879">
        <ele>276</ele>
        <time>2017-12-07T10:10:36Z</time>
      </trkpt>
      <trkpt lat="45.94839" lon="4.85887">
        <ele>276</ele>
        <time>2017-12-07T10:10:37Z</time>
      </trkpt>
      <trkpt lat="45.94841" lon="4.85894">
        <ele>276</ele>
        <time>2017-12-07T10:10:38Z</time>
      </trkpt>
      <trkpt lat="45.94843" lon="4.85903">
        <ele>275</ele>
        <time>2017-12-07T10:10:39Z</time>
      </trkpt>
      <trkpt lat="45.94845" lon="4.85912">
        <ele>275</ele>
        <time>2017-12-07T10:10:40Z</time>
      </trkpt>
      <trkpt lat="45.94848" lon="4.8592">
        <ele>275</ele>
        <time>2017-12-07T10:10:41Z</time>
      </trkpt>
      <trkpt lat="45.9485" lon="4.85926">
        <ele>275</ele>
        <time>2017-12-07T10:10:42Z</time>
      </trkpt>
      <trkpt lat="45.94852" lon="4.85934">
        <ele>275</ele>
        <time>2017-12-07T10:10:43Z</time>
      </trkpt>
      <trkpt lat="45.94854" lon="4.85942">
        <ele>275</ele>
        <time>2017-12-07T10:10:44Z</time>
      </trkpt>
      <trkpt lat="45.94856" lon="4.8595">
        <ele>275</ele>
        <time>2017-12-07T10:10:45Z</time>
      </trkpt>
      <trkpt lat="45.94858" lon="4.85957">
        <ele>275</ele>
        <time>2017-12-07T10:10:46Z</time>
      </trkpt>
      <trkpt lat="45.9486" lon="4.85964">
        <ele>275</ele>
        <time>2017-12-07T10:10:47Z</time>
      </trkpt>
      <trkpt lat="45.94862" lon="4.85971">
        <ele>275</ele>
        <time>2017-12-07T10:10:48Z</time>
      </trkpt>
      <trkpt lat="45.94864" lon="4.85979">
        <ele>275</ele>
        <time>2017-12-07T10:10:49Z</time>
      </trkpt>
      <trkpt lat="45.94867" lon="4.85984">
        <ele>275</ele>
        <time>2017-12-07T10:10:50Z</time>
      </trkpt>
      <trkpt lat="45.94868" lon="4.85991">
        <ele>275</ele>
        <time>2017-12-07T10:10:51Z</time>
      </trkpt>
      <trkpt lat="45.9487" lon="4.85998">
        <ele>275</ele>
        <time>2017-12-07T10:10:52Z</time>
      </trkpt>
      <trkpt lat="45.94872" lon="4.86005">
        <ele>274</ele>
        <time>2017-12-07T10:10:53Z</time>
      </trkpt>
      <trkpt lat="45.94873" lon="4.86012">
        <ele>274</ele>
        <time>2017-12-07T10:10:54Z</time>
      </trkpt>
      <trkpt lat="45.94875" lon="4.8602">
        <ele>274</ele>
        <time>2017-12-07T10:10:55Z</time>
      </trkpt>
      <trkpt lat="45.94877" lon="4.86028">
        <ele>274</ele>
        <time>2017-12-07T10:10:56Z</time>
      </trkpt>
      <trkpt lat="45.94879" lon="4.86036">
        <ele>274</ele>
        <time>2017-12-07T10:10:57Z</time>
      </trkpt>
      <trkpt lat="45.94881" lon="4.86043">
        <ele>274</ele>
        <time>2017-12-07T10:10:58Z</time>
      </trkpt>
      <trkpt lat="45.94883" lon="4.86051">
        <ele>274</ele>
        <time>2017-12-07T10:10:59Z</time>
      </trkpt>
      <trkpt lat="45.94885" lon="4.86059">
        <ele>274</ele>
        <time>2017-12-07T10:11:00Z</time>
      </trkpt>
      <trkpt lat="45.94887" lon="4.86066">
        <ele>274</ele>
        <time>2017-12-07T10:11:01Z</time>
      </trkpt>
      <trkpt lat="45.94889" lon="4.86073">
        <ele>274</ele>
        <time>2017-12-07T10:11:02Z</time>
      </trkpt>
      <trkpt lat="45.94892" lon="4.86081">
        <ele>274</ele>
        <time>2017-12-07T10:11:03Z</time>
      </trkpt>
      <trkpt lat="45.94894" lon="4.86088">
        <ele>274</ele>
        <time>2017-12-07T10:11:04Z</time>
      </trkpt>
      <trkpt lat="45.94897" lon="4.86094">
        <ele>274</ele>
        <time>2017-12-07T10:11:05Z</time>
      </trkpt>
      <trkpt lat="45.949" lon="4.86101">
        <ele>274</ele>
        <time>2017-12-07T10:11:06Z</time>
      </trkpt>
      <trkpt lat="45.94903" lon="4.86107">
        <ele>274</ele>
        <time>2017-12-07T10:11:07Z</time>
      </trkpt>
      <trkpt lat="45.94906" lon="4.86114">
        <ele>274</ele>
        <time>2017-12-07T10:11:08Z</time>
      </trkpt>
      <trkpt lat="45.94908" lon="4.8612">
        <ele>274</ele>
        <time>2017-12-07T10:11:09Z</time>
      </trkpt>
      <trkpt lat="45.94913" lon="4.86129">
        <ele>274</ele>
        <time>2017-12-07T10:11:10Z</time>
      </trkpt>
      <trkpt lat="45.94916" lon="4.86134">
        <ele>274</ele>
        <time>2017-12-07T10:11:11Z</time>
      </trkpt>
      <trkpt lat="45.9492" lon="4.8614">
        <ele>273</ele>
        <time>2017-12-07T10:11:12Z</time>
      </trkpt>
      <trkpt lat="45.94925" lon="4.86146">
        <ele>273</ele>
        <time>2017-12-07T10:11:13Z</time>
      </trkpt>
      <trkpt lat="45.9493" lon="4.86152">
        <ele>273</ele>
        <time>2017-12-07T10:11:14Z</time>
      </trkpt>
      <trkpt lat="45.94934" lon="4.86157">
        <ele>273</ele>
        <time>2017-12-07T10:11:15Z</time>
      </trkpt>
      <trkpt lat="45.94937" lon="4.86162">
        <ele>273</ele>
        <time>2017-12-07T10:11:16Z</time>
      </trkpt>
      <trkpt lat="45.94941" lon="4.86167">
        <ele>273</ele>
        <time>2017-12-07T10:11:17Z</time>
      </trkpt>
      <trkpt lat="45.94945" lon="4.86172">
        <ele>273</ele>
        <time>2017-12-07T10:11:18Z</time>
      </trkpt>
      <trkpt lat="45.9495" lon="4.86177">
        <ele>273</ele>
        <time>2017-12-07T10:11:19Z</time>
      </trkpt>
      <trkpt lat="45.94954" lon="4.86182">
        <ele>273</ele>
        <time>2017-12-07T10:11:20Z</time>
      </trkpt>
      <trkpt lat="45.94959" lon="4.86186">
        <ele>272</ele>
        <time>2017-12-07T10:11:21Z</time>
      </trkpt>
      <trkpt lat="45.94964" lon="4.86192">
        <ele>272</ele>
        <time>2017-12-07T10:11:22Z</time>
      </trkpt>
      <trkpt lat="45.94968" lon="4.86198">
        <ele>272</ele>
        <time>2017-12-07T10:11:23Z</time>
      </trkpt>
      <trkpt lat="45.94972" lon="4.86203">
        <ele>272</ele>
        <time>2017-12-07T10:11:24Z</time>
      </trkpt>
      <trkpt lat="45.94976" lon="4.86209">
        <ele>272</ele>
        <time>2017-12-07T10:11:25Z</time>
      </trkpt>
      <trkpt lat="45.9498" lon="4.86214">
        <ele>272</ele>
        <time>2017-12-07T10:11:26Z</time>
      </trkpt>
      <trkpt lat="45.94985" lon="4.8622">
        <ele>272</ele>
        <time>2017-12-07T10:11:27Z</time>
      </trkpt>
      <trkpt lat="45.94989" lon="4.86226">
        <ele>272</ele>
        <time>2017-12-07T10:11:28Z</time>
      </trkpt>
      <trkpt lat="45.94994" lon="4.86231">
        <ele>272</ele>
        <time>2017-12-07T10:11:29Z</time>
      </trkpt>
      <trkpt lat="45.94999" lon="4.86238">
        <ele>272</ele>
        <time>2017-12-07T10:11:30Z</time>
      </trkpt>
      <trkpt lat="45.95003" lon="4.86244">
        <ele>272</ele>
        <time>2017-12-07T10:11:31Z</time>
      </trkpt>
      <trkpt lat="45.95008" lon="4.8625">
        <ele>272</ele>
        <time>2017-12-07T10:11:32Z</time>
      </trkpt>
      <trkpt lat="45.95013" lon="4.86256">
        <ele>272</ele>
        <time>2017-12-07T10:11:33Z</time>
      </trkpt>
      <trkpt lat="45.95018" lon="4.86263">
        <ele>271</ele>
        <time>2017-12-07T10:11:34Z</time>
      </trkpt>
      <trkpt lat="45.95023" lon="4.86269">
        <ele>271</ele>
        <time>2017-12-07T10:11:35Z</time>
      </trkpt>
      <trkpt lat="45.95028" lon="4.86276">
        <ele>271</ele>
        <time>2017-12-07T10:11:36Z</time>
      </trkpt>
      <trkpt lat="45.95034" lon="4.86282">
        <ele>271</ele>
        <time>2017-12-07T10:11:37Z</time>
      </trkpt>
      <trkpt lat="45.95038" lon="4.8629">
        <ele>271</ele>
        <time>2017-12-07T10:11:38Z</time>
      </trkpt>
      <trkpt lat="45.95043" lon="4.86296">
        <ele>271</ele>
        <time>2017-12-07T10:11:39Z</time>
      </trkpt>
      <trkpt lat="45.95048" lon="4.86302">
        <ele>271</ele>
        <time>2017-12-07T10:11:40Z</time>
      </trkpt>
      <trkpt lat="45.95053" lon="4.86308">
        <ele>271</ele>
        <time>2017-12-07T10:11:41Z</time>
      </trkpt>
      <trkpt lat="45.95058" lon="4.86314">
        <ele>271</ele>
        <time>2017-12-07T10:11:42Z</time>
      </trkpt>
      <trkpt lat="45.95063" lon="4.86321">
        <ele>270</ele>
        <time>2017-12-07T10:11:43Z</time>
      </trkpt>
      <trkpt lat="45.95068" lon="4.86329">
        <ele>270</ele>
        <time>2017-12-07T10:11:44Z</time>
      </trkpt>
      <trkpt lat="45.95073" lon="4.86333">
        <ele>270</ele>
        <time>2017-12-07T10:11:45Z</time>
      </trkpt>
      <trkpt lat="45.95078" lon="4.86339">
        <ele>270</ele>
        <time>2017-12-07T10:11:46Z</time>
      </trkpt>
      <trkpt lat="45.95084" lon="4.86345">
        <ele>269</ele>
        <time>2017-12-07T10:11:47Z</time>
      </trkpt>
      <trkpt lat="45.95088" lon="4.86351">
        <ele>269</ele>
        <time>2017-12-07T10:11:48Z</time>
      </trkpt>
      <trkpt lat="45.95093" lon="4.86358">
        <ele>269</ele>
        <time>2017-12-07T10:11:49Z</time>
      </trkpt>
      <trkpt lat="45.95097" lon="4.86365">
        <ele>269</ele>
        <time>2017-12-07T10:11:50Z</time>
      </trkpt>
      <trkpt lat="45.95102" lon="4.8637">
        <ele>269</ele>
        <time>2017-12-07T10:11:51Z</time>
      </trkpt>
      <trkpt lat="45.95106" lon="4.86376">
        <ele>269</ele>
        <time>2017-12-07T10:11:52Z</time>
      </trkpt>
      <trkpt lat="45.95111" lon="4.86382">
        <ele>269</ele>
        <time>2017-12-07T10:11:53Z</time>
      </trkpt>
      <trkpt lat="45.95116" lon="4.86388">
        <ele>269</ele>
        <time>2017-12-07T10:11:54Z</time>
      </trkpt>
      <trkpt lat="45.95121" lon="4.86393">
        <ele>269</ele>
        <time>2017-12-07T10:11:55Z</time>
      </trkpt>
      <trkpt lat="45.95125" lon="4.86398">
        <ele>268</ele>
        <time>2017-12-07T10:11:56Z</time>
      </trkpt>
      <trkpt lat="45.95129" lon="4.86404">
        <ele>268</ele>
        <time>2017-12-07T10:11:57Z</time>
      </trkpt>
      <trkpt lat="45.95133" lon="4.86409">
        <ele>268</ele>
        <time>2017-12-07T10:11:58Z</time>
      </trkpt>
      <trkpt lat="45.95137" lon="4.86415">
        <ele>268</ele>
        <time>2017-12-07T10:11:59Z</time>
      </trkpt>
      <trkpt lat="45.95141" lon="4.86419">
        <ele>268</ele>
        <time>2017-12-07T10:12:00Z</time>
      </trkpt>
      <trkpt lat="45.95145" lon="4.86425">
        <ele>268</ele>
        <time>2017-12-07T10:12:01Z</time>
      </trkpt>
      <trkpt lat="45.9515" lon="4.86429">
        <ele>268</ele>
        <time>2017-12-07T10:12:02Z</time>
      </trkpt>
      <trkpt lat="45.95156" lon="4.86435">
        <ele>268</ele>
        <time>2017-12-07T10:12:03Z</time>
      </trkpt>
      <trkpt lat="45.9516" lon="4.86441">
        <ele>268</ele>
        <time>2017-12-07T10:12:04Z</time>
      </trkpt>
      <trkpt lat="45.95164" lon="4.86448">
        <ele>269</ele>
        <time>2017-12-07T10:12:05Z</time>
      </trkpt>
      <trkpt lat="45.9517" lon="4.86455">
        <ele>268</ele>
        <time>2017-12-07T10:12:06Z</time>
      </trkpt>
      <trkpt lat="45.95174" lon="4.86463">
        <ele>268</ele>
        <time>2017-12-07T10:12:07Z</time>
      </trkpt>
      <trkpt lat="45.9518" lon="4.86469">
        <ele>268</ele>
        <time>2017-12-07T10:12:08Z</time>
      </trkpt>
      <trkpt lat="45.95185" lon="4.86476">
        <ele>268</ele>
        <time>2017-12-07T10:12:09Z</time>
      </trkpt>
      <trkpt lat="45.95191" lon="4.86482">
        <ele>268</ele>
        <time>2017-12-07T10:12:10Z</time>
      </trkpt>
      <trkpt lat="45.95198" lon="4.86489">
        <ele>268</ele>
        <time>2017-12-07T10:12:11Z</time>
      </trkpt>
      <trkpt lat="45.95204" lon="4.86496">
        <ele>268</ele>
        <time>2017-12-07T10:12:12Z</time>
      </trkpt>
      <trkpt lat="45.95209" lon="4.86503">
        <ele>268</ele>
        <time>2017-12-07T10:12:13Z</time>
      </trkpt>
      <trkpt lat="45.95216" lon="4.8651">
        <ele>268</ele>
        <time>2017-12-07T10:12:14Z</time>
      </trkpt>
      <trkpt lat="45.95223" lon="4.86517">
        <ele>268</ele>
        <time>2017-12-07T10:12:15Z</time>
      </trkpt>
      <trkpt lat="45.95229" lon="4.86524">
        <ele>268</ele>
        <time>2017-12-07T10:12:16Z</time>
      </trkpt>
      <trkpt lat="45.95235" lon="4.86532">
        <ele>268</ele>
        <time>2017-12-07T10:12:17Z</time>
      </trkpt>
      <trkpt lat="45.95241" lon="4.8654">
        <ele>268</ele>
        <time>2017-12-07T10:12:18Z</time>
      </trkpt>
      <trkpt lat="45.95247" lon="4.86548">
        <ele>268</ele>
        <time>2017-12-07T10:12:19Z</time>
      </trkpt>
      <trkpt lat="45.95253" lon="4.86555">
        <ele>267</ele>
        <time>2017-12-07T10:12:20Z</time>
      </trkpt>
      <trkpt lat="45.95259" lon="4.86562">
        <ele>267</ele>
        <time>2017-12-07T10:12:21Z</time>
      </trkpt>
      <trkpt lat="45.95263" lon="4.8657">
        <ele>267</ele>
        <time>2017-12-07T10:12:22Z</time>
      </trkpt>
      <trkpt lat="45.95268" lon="4.86578">
        <ele>267</ele>
        <time>2017-12-07T10:12:23Z</time>
      </trkpt>
      <trkpt lat="45.95273" lon="4.86585">
        <ele>268</ele>
        <time>2017-12-07T10:12:24Z</time>
      </trkpt>
      <trkpt lat="45.95276" lon="4.86592">
        <ele>268</ele>
        <time>2017-12-07T10:12:25Z</time>
      </trkpt>
      <trkpt lat="45.95281" lon="4.86598">
        <ele>268</ele>
        <time>2017-12-07T10:12:26Z</time>
      </trkpt>
      <trkpt lat="45.95285" lon="4.86604">
        <ele>268</ele>
        <time>2017-12-07T10:12:27Z</time>
      </trkpt>
      <trkpt lat="45.95287" lon="4.86611">
        <ele>268</ele>
        <time>2017-12-07T10:12:28Z</time>
      </trkpt>
      <trkpt lat="45.95292" lon="4.86617">
        <ele>268</ele>
        <time>2017-12-07T10:12:29Z</time>
      </trkpt>
      <trkpt lat="45.95295" lon="4.86625">
        <ele>268</ele>
        <time>2017-12-07T10:12:30Z</time>
      </trkpt>
      <trkpt lat="45.95298" lon="4.86631">
        <ele>268</ele>
        <time>2017-12-07T10:12:31Z</time>
      </trkpt>
      <trkpt lat="45.95301" lon="4.86637">
        <ele>268</ele>
        <time>2017-12-07T10:12:32Z</time>
      </trkpt>
      <trkpt lat="45.95304" lon="4.86643">
        <ele>268</ele>
        <time>2017-12-07T10:12:33Z</time>
      </trkpt>
      <trkpt lat="45.95308" lon="4.86649">
        <ele>268</ele>
        <time>2017-12-07T10:12:34Z</time>
      </trkpt>
      <trkpt lat="45.95311" lon="4.86654">
        <ele>268</ele>
        <time>2017-12-07T10:12:35Z</time>
      </trkpt>
      <trkpt lat="45.95315" lon="4.86661">
        <ele>268</ele>
        <time>2017-12-07T10:12:36Z</time>
      </trkpt>
      <trkpt lat="45.95317" lon="4.86667">
        <ele>269</ele>
        <time>2017-12-07T10:12:37Z</time>
      </trkpt>
      <trkpt lat="45.9532" lon="4.86675">
        <ele>269</ele>
        <time>2017-12-07T10:12:38Z</time>
      </trkpt>
      <trkpt lat="45.95323" lon="4.86681">
        <ele>269</ele>
        <time>2017-12-07T10:12:39Z</time>
      </trkpt>
      <trkpt lat="45.95326" lon="4.86687">
        <ele>269</ele>
        <time>2017-12-07T10:12:40Z</time>
      </trkpt>
      <trkpt lat="45.95329" lon="4.86693">
        <ele>269</ele>
        <time>2017-12-07T10:12:41Z</time>
      </trkpt>
      <trkpt lat="45.95331" lon="4.86698">
        <ele>269</ele>
        <time>2017-12-07T10:12:42Z</time>
      </trkpt>
      <trkpt lat="45.95337" lon="4.86707">
        <ele>268</ele>
        <time>2017-12-07T10:12:44Z</time>
      </trkpt>
      <trkpt lat="45.95339" lon="4.86712">
        <ele>268</ele>
        <time>2017-12-07T10:12:45Z</time>
      </trkpt>
      <trkpt lat="45.95342" lon="4.86717">
        <ele>268</ele>
        <time>2017-12-07T10:12:46Z</time>
      </trkpt>
      <trkpt lat="45.95345" lon="4.86722">
        <ele>268</ele>
        <time>2017-12-07T10:12:47Z</time>
      </trkpt>
      <trkpt lat="45.95348" lon="4.86729">
        <ele>268</ele>
        <time>2017-12-07T10:12:48Z</time>
      </trkpt>
      <trkpt lat="45.95351" lon="4.86734">
        <ele>268</ele>
        <time>2017-12-07T10:12:49Z</time>
      </trkpt>
      <trkpt lat="45.95354" lon="4.86741">
        <ele>268</ele>
        <time>2017-12-07T10:12:50Z</time>
      </trkpt>
      <trkpt lat="45.95357" lon="4.86747">
        <ele>268</ele>
        <time>2017-12-07T10:12:51Z</time>
      </trkpt>
      <trkpt lat="45.95359" lon="4.86754">
        <ele>268</ele>
        <time>2017-12-07T10:12:52Z</time>
      </trkpt>
      <trkpt lat="45.95362" lon="4.86762">
        <ele>268</ele>
        <time>2017-12-07T10:12:53Z</time>
      </trkpt>
      <trkpt lat="45.95366" lon="4.8677">
        <ele>268</ele>
        <time>2017-12-07T10:12:54Z</time>
      </trkpt>
      <trkpt lat="45.95369" lon="4.86776">
        <ele>268</ele>
        <time>2017-12-07T10:12:55Z</time>
      </trkpt>
      <trkpt lat="45.95372" lon="4.86783">
        <ele>268</ele>
        <time>2017-12-07T10:12:56Z</time>
      </trkpt>
      <trkpt lat="45.95375" lon="4.86787">
        <ele>268</ele>
        <time>2017-12-07T10:12:57Z</time>
      </trkpt>
      <trkpt lat="45.95378" lon="4.86793">
        <ele>268</ele>
        <time>2017-12-07T10:12:58Z</time>
      </trkpt>
      <trkpt lat="45.95382" lon="4.86798">
        <ele>268</ele>
        <time>2017-12-07T10:12:59Z</time>
      </trkpt>
      <trkpt lat="45.95384" lon="4.86805">
        <ele>268</ele>
        <time>2017-12-07T10:13:00Z</time>
      </trkpt>
      <trkpt lat="45.95387" lon="4.86812">
        <ele>268</ele>
        <time>2017-12-07T10:13:01Z</time>
      </trkpt>
      <trkpt lat="45.9539" lon="4.86817">
        <ele>268</ele>
        <time>2017-12-07T10:13:02Z</time>
      </trkpt>
      <trkpt lat="45.95394" lon="4.86823">
        <ele>268</ele>
        <time>2017-12-07T10:13:03Z</time>
      </trkpt>
      <trkpt lat="45.95398" lon="4.86829">
        <ele>268</ele>
        <time>2017-12-07T10:13:04Z</time>
      </trkpt>
      <trkpt lat="45.95401" lon="4.86836">
        <ele>268</ele>
        <time>2017-12-07T10:13:05Z</time>
      </trkpt>
      <trkpt lat="45.95404" lon="4.86842">
        <ele>268</ele>
        <time>2017-12-07T10:13:06Z</time>
      </trkpt>
      <trkpt lat="45.95408" lon="4.86849">
        <ele>269</ele>
        <time>2017-12-07T10:13:07Z</time>
      </trkpt>
      <trkpt lat="45.95412" lon="4.86857">
        <ele>269</ele>
        <time>2017-12-07T10:13:08Z</time>
      </trkpt>
      <trkpt lat="45.95415" lon="4.86864">
        <ele>269</ele>
        <time>2017-12-07T10:13:09Z</time>
      </trkpt>
      <trkpt lat="45.95418" lon="4.8687">
        <ele>268</ele>
        <time>2017-12-07T10:13:10Z</time>
      </trkpt>
      <trkpt lat="45.95422" lon="4.86878">
        <ele>268</ele>
        <time>2017-12-07T10:13:11Z</time>
      </trkpt>
      <trkpt lat="45.95425" lon="4.86886">
        <ele>268</ele>
        <time>2017-12-07T10:13:12Z</time>
      </trkpt>
      <trkpt lat="45.95429" lon="4.86893">
        <ele>268</ele>
        <time>2017-12-07T10:13:13Z</time>
      </trkpt>
      <trkpt lat="45.95432" lon="4.869">
        <ele>268</ele>
        <time>2017-12-07T10:13:14Z</time>
      </trkpt>
      <trkpt lat="45.95434" lon="4.86905">
        <ele>268</ele>
        <time>2017-12-07T10:13:15Z</time>
      </trkpt>
      <trkpt lat="45.95436" lon="4.86912">
        <ele>268</ele>
        <time>2017-12-07T10:13:16Z</time>
      </trkpt>
      <trkpt lat="45.95438" lon="4.86918">
        <ele>269</ele>
        <time>2017-12-07T10:13:17Z</time>
      </trkpt>
      <trkpt lat="45.95441" lon="4.86924">
        <ele>269</ele>
        <time>2017-12-07T10:13:18Z</time>
      </trkpt>
      <trkpt lat="45.95444" lon="4.86931">
        <ele>269</ele>
        <time>2017-12-07T10:13:19Z</time>
      </trkpt>
      <trkpt lat="45.95448" lon="4.86935">
        <ele>269</ele>
        <time>2017-12-07T10:13:20Z</time>
      </trkpt>
      <trkpt lat="45.95451" lon="4.86941">
        <ele>268</ele>
        <time>2017-12-07T10:13:21Z</time>
      </trkpt>
      <trkpt lat="45.95454" lon="4.86947">
        <ele>268</ele>
        <time>2017-12-07T10:13:22Z</time>
      </trkpt>
      <trkpt lat="45.95457" lon="4.86954">
        <ele>268</ele>
        <time>2017-12-07T10:13:23Z</time>
      </trkpt>
      <trkpt lat="45.9546" lon="4.8696">
        <ele>268</ele>
        <time>2017-12-07T10:13:24Z</time>
      </trkpt>
      <trkpt lat="45.95464" lon="4.86966">
        <ele>268</ele>
        <time>2017-12-07T10:13:25Z</time>
      </trkpt>
      <trkpt lat="45.95466" lon="4.86971">
        <ele>268</ele>
        <time>2017-12-07T10:13:26Z</time>
      </trkpt>
      <trkpt lat="45.9547" lon="4.86976">
        <ele>268</ele>
        <time>2017-12-07T10:13:27Z</time>
      </trkpt>
      <trkpt lat="45.95475" lon="4.86985">
        <ele>268</ele>
        <time>2017-12-07T10:13:29Z</time>
      </trkpt>
      <trkpt lat="45.95479" lon="4.86991">
        <ele>268</ele>
        <time>2017-12-07T10:13:30Z</time>
      </trkpt>
      <trkpt lat="45.95481" lon="4.86996">
        <ele>268</ele>
        <time>2017-12-07T10:13:31Z</time>
      </trkpt>
      <trkpt lat="45.95484" lon="4.87003">
        <ele>268</ele>
        <time>2017-12-07T10:13:32Z</time>
      </trkpt>
      <trkpt lat="45.95486" lon="4.87009">
        <ele>268</ele>
        <time>2017-12-07T10:13:33Z</time>
      </trkpt>
      <trkpt lat="45.9549" lon="4.87015">
        <ele>269</ele>
        <time>2017-12-07T10:13:34Z</time>
      </trkpt>
      <trkpt lat="45.95493" lon="4.87022">
        <ele>269</ele>
        <time>2017-12-07T10:13:35Z</time>
      </trkpt>
      <trkpt lat="45.95496" lon="4.87027">
        <ele>269</ele>
        <time>2017-12-07T10:13:36Z</time>
      </trkpt>
      <trkpt lat="45.95501" lon="4.87031">
        <ele>268</ele>
        <time>2017-12-07T10:13:37Z</time>
      </trkpt>
      <trkpt lat="45.95503" lon="4.87036">
        <ele>268</ele>
        <time>2017-12-07T10:13:38Z</time>
      </trkpt>
      <trkpt lat="45.95506" lon="4.87042">
        <ele>268</ele>
        <time>2017-12-07T10:13:39Z</time>
      </trkpt>
      <trkpt lat="45.95509" lon="4.87048">
        <ele>268</ele>
        <time>2017-12-07T10:13:40Z</time>
      </trkpt>
      <trkpt lat="45.95512" lon="4.87053">
        <ele>268</ele>
        <time>2017-12-07T10:13:41Z</time>
      </trkpt>
      <trkpt lat="45.95516" lon="4.8706">
        <ele>268</ele>
        <time>2017-12-07T10:13:42Z</time>
      </trkpt>
      <trkpt lat="45.95518" lon="4.87067">
        <ele>268</ele>
        <time>2017-12-07T10:13:43Z</time>
      </trkpt>
      <trkpt lat="45.95521" lon="4.87075">
        <ele>268</ele>
        <time>2017-12-07T10:13:44Z</time>
      </trkpt>
      <trkpt lat="45.95524" lon="4.87082">
        <ele>268</ele>
        <time>2017-12-07T10:13:45Z</time>
      </trkpt>
      <trkpt lat="45.95528" lon="4.87088">
        <ele>269</ele>
        <time>2017-12-07T10:13:46Z</time>
      </trkpt>
      <trkpt lat="45.95531" lon="4.87097">
        <ele>269</ele>
        <time>2017-12-07T10:13:47Z</time>
      </trkpt>
      <trkpt lat="45.95534" lon="4.87102">
        <ele>269</ele>
        <time>2017-12-07T10:13:48Z</time>
      </trkpt>
      <trkpt lat="45.95537" lon="4.87108">
        <ele>269</ele>
        <time>2017-12-07T10:13:49Z</time>
      </trkpt>
      <trkpt lat="45.9554" lon="4.87114">
        <ele>269</ele>
        <time>2017-12-07T10:13:50Z</time>
      </trkpt>
      <trkpt lat="45.95543" lon="4.8712">
        <ele>269</ele>
        <time>2017-12-07T10:13:51Z</time>
      </trkpt>
      <trkpt lat="45.95546" lon="4.87125">
        <ele>270</ele>
        <time>2017-12-07T10:13:52Z</time>
      </trkpt>
      <trkpt lat="45.95552" lon="4.87134">
        <ele>270</ele>
        <time>2017-12-07T10:13:54Z</time>
      </trkpt>
      <trkpt lat="45.95553" lon="4.87138">
        <ele>270</ele>
        <time>2017-12-07T10:13:55Z</time>
      </trkpt>
      <trkpt lat="45.95557" lon="4.87148">
        <ele>270</ele>
        <time>2017-12-07T10:13:57Z</time>
      </trkpt>
      <trkpt lat="45.95559" lon="4.87154">
        <ele>270</ele>
        <time>2017-12-07T10:13:58Z</time>
      </trkpt>
      <trkpt lat="45.95563" lon="4.87161">
        <ele>270</ele>
        <time>2017-12-07T10:13:59Z</time>
      </trkpt>
      <trkpt lat="45.95565" lon="4.87165">
        <ele>270</ele>
        <time>2017-12-07T10:14:00Z</time>
      </trkpt>
      <trkpt lat="45.95568" lon="4.8717">
        <ele>271</ele>
        <time>2017-12-07T10:14:01Z</time>
      </trkpt>
      <trkpt lat="45.9557" lon="4.87176">
        <ele>271</ele>
        <time>2017-12-07T10:14:02Z</time>
      </trkpt>
      <trkpt lat="45.95573" lon="4.87184">
        <ele>270</ele>
        <time>2017-12-07T10:14:03Z</time>
      </trkpt>
      <trkpt lat="45.95575" lon="4.8719">
        <ele>270</ele>
        <time>2017-12-07T10:14:04Z</time>
      </trkpt>
      <trkpt lat="45.95578" lon="4.87196">
        <ele>270</ele>
        <time>2017-12-07T10:14:05Z</time>
      </trkpt>
      <trkpt lat="45.95581" lon="4.87202">
        <ele>270</ele>
        <time>2017-12-07T10:14:06Z</time>
      </trkpt>
      <trkpt lat="45.95585" lon="4.87213">
        <ele>272</ele>
        <time>2017-12-07T10:14:08Z</time>
      </trkpt>
      <trkpt lat="45.95589" lon="4.87222">
        <ele>272</ele>
        <time>2017-12-07T10:14:09Z</time>
      </trkpt>
      <trkpt lat="45.95592" lon="4.87227">
        <ele>272</ele>
        <time>2017-12-07T10:14:10Z</time>
      </trkpt>
      <trkpt lat="45.95595" lon="4.87232">
        <ele>272</ele>
        <time>2017-12-07T10:14:11Z</time>
      </trkpt>
      <trkpt lat="45.95601" lon="4.87241">
        <ele>272</ele>
        <time>2017-12-07T10:14:13Z</time>
      </trkpt>
      <trkpt lat="45.95603" lon="4.87247">
        <ele>272</ele>
        <time>2017-12-07T10:14:14Z</time>
      </trkpt>
      <trkpt lat="45.95606" lon="4.87252">
        <ele>271</ele>
        <time>2017-12-07T10:14:15Z</time>
      </trkpt>
      <trkpt lat="45.95608" lon="4.87258">
        <ele>272</ele>
        <time>2017-12-07T10:14:16Z</time>
      </trkpt>
      <trkpt lat="45.95613" lon="4.87269">
        <ele>272</ele>
        <time>2017-12-07T10:14:18Z</time>
      </trkpt>
      <trkpt lat="45.95614" lon="4.87274">
        <ele>272</ele>
        <time>2017-12-07T10:14:19Z</time>
      </trkpt>
      <trkpt lat="45.95619" lon="4.87283">
        <ele>272</ele>
        <time>2017-12-07T10:14:21Z</time>
      </trkpt>
      <trkpt lat="45.95621" lon="4.87287">
        <ele>272</ele>
        <time>2017-12-07T10:14:22Z</time>
      </trkpt>
      <trkpt lat="45.95627" lon="4.87296">
        <ele>272</ele>
        <time>2017-12-07T10:14:24Z</time>
      </trkpt>
      <trkpt lat="45.9563" lon="4.87301">
        <ele>272</ele>
        <time>2017-12-07T10:14:25Z</time>
      </trkpt>
      <trkpt lat="45.95635" lon="4.87311">
        <ele>272</ele>
        <time>2017-12-07T10:14:27Z</time>
      </trkpt>
      <trkpt lat="45.95637" lon="4.87316">
        <ele>272</ele>
        <time>2017-12-07T10:14:28Z</time>
      </trkpt>
      <trkpt lat="45.95641" lon="4.87325">
        <ele>272</ele>
        <time>2017-12-07T10:14:30Z</time>
      </trkpt>
      <trkpt lat="45.95643" lon="4.8733">
        <ele>272</ele>
        <time>2017-12-07T10:14:31Z</time>
      </trkpt>
      <trkpt lat="45.95648" lon="4.8734">
        <ele>272</ele>
        <time>2017-12-07T10:14:33Z</time>
      </trkpt>
      <trkpt lat="45.9565" lon="4.87345">
        <ele>272</ele>
        <time>2017-12-07T10:14:34Z</time>
      </trkpt>
      <trkpt lat="45.95656" lon="4.87353">
        <ele>272</ele>
        <time>2017-12-07T10:14:36Z</time>
      </trkpt>
      <trkpt lat="45.95658" lon="4.87358">
        <ele>272</ele>
        <time>2017-12-07T10:14:37Z</time>
      </trkpt>
      <trkpt lat="45.95661" lon="4.87364">
        <ele>272</ele>
        <time>2017-12-07T10:14:38Z</time>
      </trkpt>
      <trkpt lat="45.95664" lon="4.87368">
        <ele>272</ele>
        <time>2017-12-07T10:14:39Z</time>
      </trkpt>
      <trkpt lat="45.95666" lon="4.87375">
        <ele>272</ele>
        <time>2017-12-07T10:14:40Z</time>
      </trkpt>
      <trkpt lat="45.95668" lon="4.87381">
        <ele>274</ele>
        <time>2017-12-07T10:14:41Z</time>
      </trkpt>
      <trkpt lat="45.95672" lon="4.87391">
        <ele>274</ele>
        <time>2017-12-07T10:14:43Z</time>
      </trkpt>
      <trkpt lat="45.95675" lon="4.87395">
        <ele>274</ele>
        <time>2017-12-07T10:14:44Z</time>
      </trkpt>
      <trkpt lat="45.95678" lon="4.87405">
        <ele>274</ele>
        <time>2017-12-07T10:14:46Z</time>
      </trkpt>
      <trkpt lat="45.9568" lon="4.87411">
        <ele>274</ele>
        <time>2017-12-07T10:14:47Z</time>
      </trkpt>
      <trkpt lat="45.95685" lon="4.87421">
        <ele>274</ele>
        <time>2017-12-07T10:14:49Z</time>
      </trkpt>
      <trkpt lat="45.95688" lon="4.87427">
        <ele>275</ele>
        <time>2017-12-07T10:14:50Z</time>
      </trkpt>
      <trkpt lat="45.95693" lon="4.87436">
        <ele>275</ele>
        <time>2017-12-07T10:14:52Z</time>
      </trkpt>
      <trkpt lat="45.95695" lon="4.87442">
        <ele>275</ele>
        <time>2017-12-07T10:14:53Z</time>
      </trkpt>
      <trkpt lat="45.95701" lon="4.87451">
        <ele>275</ele>
        <time>2017-12-07T10:14:55Z</time>
      </trkpt>
      <trkpt lat="45.95704" lon="4.87455">
        <ele>275</ele>
        <time>2017-12-07T10:14:56Z</time>
      </trkpt>
      <trkpt lat="45.9571" lon="4.87464">
        <ele>276</ele>
        <time>2017-12-07T10:14:58Z</time>
      </trkpt>
      <trkpt lat="45.95712" lon="4.87468">
        <ele>276</ele>
        <time>2017-12-07T10:14:59Z</time>
      </trkpt>
      <trkpt lat="45.95718" lon="4.87478">
        <ele>276</ele>
        <time>2017-12-07T10:15:01Z</time>
      </trkpt>
      <trkpt lat="45.9572" lon="4.87484">
        <ele>276</ele>
        <time>2017-12-07T10:15:02Z</time>
      </trkpt>
      <trkpt lat="45.95725" lon="4.87494">
        <ele>277</ele>
        <time>2017-12-07T10:15:04Z</time>
      </trkpt>
      <trkpt lat="45.95728" lon="4.87499">
        <ele>277</ele>
        <time>2017-12-07T10:15:05Z</time>
      </trkpt>
      <trkpt lat="45.95733" lon="4.87508">
        <ele>277</ele>
        <time>2017-12-07T10:15:07Z</time>
      </trkpt>
      <trkpt lat="45.95735" lon="4.87513">
        <ele>277</ele>
        <time>2017-12-07T10:15:08Z</time>
      </trkpt>
      <trkpt lat="45.9574" lon="4.87523">
        <ele>277</ele>
        <time>2017-12-07T10:15:10Z</time>
      </trkpt>
      <trkpt lat="45.95742" lon="4.87527">
        <ele>277</ele>
        <time>2017-12-07T10:15:11Z</time>
      </trkpt>
      <trkpt lat="45.95747" lon="4.87537">
        <ele>277</ele>
        <time>2017-12-07T10:15:13Z</time>
      </trkpt>
      <trkpt lat="45.95749" lon="4.87541">
        <ele>277</ele>
        <time>2017-12-07T10:15:14Z</time>
      </trkpt>
      <trkpt lat="45.95753" lon="4.8755">
        <ele>281</ele>
        <time>2017-12-07T10:15:16Z</time>
      </trkpt>
      <trkpt lat="45.95755" lon="4.87554">
        <ele>281</ele>
        <time>2017-12-07T10:15:17Z</time>
      </trkpt>
      <trkpt lat="45.9576" lon="4.87564">
        <ele>281</ele>
        <time>2017-12-07T10:15:19Z</time>
      </trkpt>
      <trkpt lat="45.95763" lon="4.87568">
        <ele>280</ele>
        <time>2017-12-07T10:15:20Z</time>
      </trkpt>
      <trkpt lat="45.95767" lon="4.87578">
        <ele>281</ele>
        <time>2017-12-07T10:15:22Z</time>
      </trkpt>
      <trkpt lat="45.95769" lon="4.87583">
        <ele>281</ele>
        <time>2017-12-07T10:15:23Z</time>
      </trkpt>
      <trkpt lat="45.95773" lon="4.87592">
        <ele>281</ele>
        <time>2017-12-07T10:15:25Z</time>
      </trkpt>
      <trkpt lat="45.95775" lon="4.87597">
        <ele>281</ele>
        <time>2017-12-07T10:15:26Z</time>
      </trkpt>
      <trkpt lat="45.9578" lon="4.87607">
        <ele>282</ele>
        <time>2017-12-07T10:15:28Z</time>
      </trkpt>
      <trkpt lat="45.95781" lon="4.87612">
        <ele>282</ele>
        <time>2017-12-07T10:15:29Z</time>
      </trkpt>
      <trkpt lat="45.95785" lon="4.87622">
        <ele>282</ele>
        <time>2017-12-07T10:15:31Z</time>
      </trkpt>
      <trkpt lat="45.95787" lon="4.87627">
        <ele>282</ele>
        <time>2017-12-07T10:15:32Z</time>
      </trkpt>
      <trkpt lat="45.95791" lon="4.87636">
        <ele>282</ele>
        <time>2017-12-07T10:15:34Z</time>
      </trkpt>
      <trkpt lat="45.95792" lon="4.87641">
        <ele>282</ele>
        <time>2017-12-07T10:15:35Z</time>
      </trkpt>
      <trkpt lat="45.95796" lon="4.8765">
        <ele>282</ele>
        <time>2017-12-07T10:15:37Z</time>
      </trkpt>
      <trkpt lat="45.95798" lon="4.87654">
        <ele>283</ele>
        <time>2017-12-07T10:15:38Z</time>
      </trkpt>
      <trkpt lat="45.95801" lon="4.87661">
        <ele>283</ele>
        <time>2017-12-07T10:15:40Z</time>
      </trkpt>
      <trkpt lat="45.95803" lon="4.87666">
        <ele>283</ele>
        <time>2017-12-07T10:15:41Z</time>
      </trkpt>
      <trkpt lat="45.95805" lon="4.87675">
        <ele>283</ele>
        <time>2017-12-07T10:15:43Z</time>
      </trkpt>
      <trkpt lat="45.95807" lon="4.87678">
        <ele>283</ele>
        <time>2017-12-07T10:15:44Z</time>
      </trkpt>
      <trkpt lat="45.95808" lon="4.87687">
        <ele>283</ele>
        <time>2017-12-07T10:15:46Z</time>
      </trkpt>
      <trkpt lat="45.95809" lon="4.87692">
        <ele>283</ele>
        <time>2017-12-07T10:15:47Z</time>
      </trkpt>
      <trkpt lat="45.95811" lon="4.87701">
        <ele>283</ele>
        <time>2017-12-07T10:15:49Z</time>
      </trkpt>
      <trkpt lat="45.95812" lon="4.87706">
        <ele>283</ele>
        <time>2017-12-07T10:15:50Z</time>
      </trkpt>
      <trkpt lat="45.95814" lon="4.87715">
        <ele>283</ele>
        <time>2017-12-07T10:15:52Z</time>
      </trkpt>
      <trkpt lat="45.95815" lon="4.87719">
        <ele>283</ele>
        <time>2017-12-07T10:15:53Z</time>
      </trkpt>
      <trkpt lat="45.95816" lon="4.87729">
        <ele>284</ele>
        <time>2017-12-07T10:15:55Z</time>
      </trkpt>
      <trkpt lat="45.95817" lon="4.87734">
        <ele>284</ele>
        <time>2017-12-07T10:15:56Z</time>
      </trkpt>
      <trkpt lat="45.95819" lon="4.87744">
        <ele>284</ele>
        <time>2017-12-07T10:15:58Z</time>
      </trkpt>
      <trkpt lat="45.95819" lon="4.87748">
        <ele>284</ele>
        <time>2017-12-07T10:15:59Z</time>
      </trkpt>
      <trkpt lat="45.95821" lon="4.87758">
        <ele>285</ele>
        <time>2017-12-07T10:16:01Z</time>
      </trkpt>
      <trkpt lat="45.95822" lon="4.87763">
        <ele>285</ele>
        <time>2017-12-07T10:16:02Z</time>
      </trkpt>
      <trkpt lat="45.95823" lon="4.87772">
        <ele>285</ele>
        <time>2017-12-07T10:16:04Z</time>
      </trkpt>
      <trkpt lat="45.95824" lon="4.87777">
        <ele>285</ele>
        <time>2017-12-07T10:16:05Z</time>
      </trkpt>
      <trkpt lat="45.95825" lon="4.87787">
        <ele>285</ele>
        <time>2017-12-07T10:16:07Z</time>
      </trkpt>
      <trkpt lat="45.95825" lon="4.87793">
        <ele>285</ele>
        <time>2017-12-07T10:16:08Z</time>
      </trkpt>
      <trkpt lat="45.95825" lon="4.87804">
        <ele>285</ele>
        <time>2017-12-07T10:16:10Z</time>
      </trkpt>
      <trkpt lat="45.95825" lon="4.87809">
        <ele>286</ele>
        <time>2017-12-07T10:16:11Z</time>
      </trkpt>
      <trkpt lat="45.95827" lon="4.87821">
        <ele>286</ele>
        <time>2017-12-07T10:16:13Z</time>
      </trkpt>
      <trkpt lat="45.95827" lon="4.87827">
        <ele>287</ele>
        <time>2017-12-07T10:16:14Z</time>
      </trkpt>
      <trkpt lat="45.95828" lon="4.87839">
        <ele>288</ele>
        <time>2017-12-07T10:16:16Z</time>
      </trkpt>
      <trkpt lat="45.95828" lon="4.87845">
        <ele>287</ele>
        <time>2017-12-07T10:16:17Z</time>
      </trkpt>
      <trkpt lat="45.95829" lon="4.87856">
        <ele>287</ele>
        <time>2017-12-07T10:16:19Z</time>
      </trkpt>
      <trkpt lat="45.95829" lon="4.87862">
        <ele>287</ele>
        <time>2017-12-07T10:16:20Z</time>
      </trkpt>
      <trkpt lat="45.95831" lon="4.87874">
        <ele>287</ele>
        <time>2017-12-07T10:16:22Z</time>
      </trkpt>
      <trkpt lat="45.95832" lon="4.87879">
        <ele>287</ele>
        <time>2017-12-07T10:16:23Z</time>
      </trkpt>
      <trkpt lat="45.95834" lon="4.87891">
        <ele>289</ele>
        <time>2017-12-07T10:16:25Z</time>
      </trkpt>
      <trkpt lat="45.95835" lon="4.87896">
        <ele>289</ele>
        <time>2017-12-07T10:16:26Z</time>
      </trkpt>
      <trkpt lat="45.95836" lon="4.87908">
        <ele>289</ele>
        <time>2017-12-07T10:16:28Z</time>
      </trkpt>
      <trkpt lat="45.95836" lon="4.87913">
        <ele>289</ele>
        <time>2017-12-07T10:16:29Z</time>
      </trkpt>
      <trkpt lat="45.95836" lon="4.87925">
        <ele>289</ele>
        <time>2017-12-07T10:16:31Z</time>
      </trkpt>
      <trkpt lat="45.95837" lon="4.87931">
        <ele>289</ele>
        <time>2017-12-07T10:16:32Z</time>
      </trkpt>
      <trkpt lat="45.95838" lon="4.87943">
        <ele>289</ele>
        <time>2017-12-07T10:16:34Z</time>
      </trkpt>
      <trkpt lat="45.95838" lon="4.87949">
        <ele>289</ele>
        <time>2017-12-07T10:16:35Z</time>
      </trkpt>
      <trkpt lat="45.95839" lon="4.87961">
        <ele>289</ele>
        <time>2017-12-07T10:16:37Z</time>
      </trkpt>
      <trkpt lat="45.9584" lon="4.87967">
        <ele>289</ele>
        <time>2017-12-07T10:16:38Z</time>
      </trkpt>
      <trkpt lat="45.9584" lon="4.87979">
        <ele>289</ele>
        <time>2017-12-07T10:16:40Z</time>
      </trkpt>
      <trkpt lat="45.9584" lon="4.87984">
        <ele>289</ele>
        <time>2017-12-07T10:16:41Z</time>
      </trkpt>
      <trkpt lat="45.9584" lon="4.87995">
        <ele>288</ele>
        <time>2017-12-07T10:16:43Z</time>
      </trkpt>
      <trkpt lat="45.95839" lon="4.88001">
        <ele>288</ele>
        <time>2017-12-07T10:16:44Z</time>
      </trkpt>
      <trkpt lat="45.95839" lon="4.88012">
        <ele>288</ele>
        <time>2017-12-07T10:16:46Z</time>
      </trkpt>
      <trkpt lat="45.95839" lon="4.88018">
        <ele>288</ele>
        <time>2017-12-07T10:16:47Z</time>
      </trkpt>
      <trkpt lat="45.95839" lon="4.8803">
        <ele>289</ele>
        <time>2017-12-07T10:16:49Z</time>
      </trkpt>
      <trkpt lat="45.95841" lon="4.88037">
        <ele>289</ele>
        <time>2017-12-07T10:16:50Z</time>
      </trkpt>
      <trkpt lat="45.95841" lon="4.88043">
        <ele>289</ele>
        <time>2017-12-07T10:16:51Z</time>
      </trkpt>
      <trkpt lat="45.95841" lon="4.8805">
        <ele>289</ele>
        <time>2017-12-07T10:16:52Z</time>
      </trkpt>
      <trkpt lat="45.95841" lon="4.88057">
        <ele>289</ele>
        <time>2017-12-07T10:16:53Z</time>
      </trkpt>
      <trkpt lat="45.95842" lon="4.88064">
        <ele>289</ele>
        <time>2017-12-07T10:16:54Z</time>
      </trkpt>
      <trkpt lat="45.95843" lon="4.88075">
        <ele>288</ele>
        <time>2017-12-07T10:16:56Z</time>
      </trkpt>
      <trkpt lat="45.95843" lon="4.88081">
        <ele>288</ele>
        <time>2017-12-07T10:16:57Z</time>
      </trkpt>
      <trkpt lat="45.95843" lon="4.88092">
        <ele>288</ele>
        <time>2017-12-07T10:16:59Z</time>
      </trkpt>
      <trkpt lat="45.95843" lon="4.88099">
        <ele>288</ele>
        <time>2017-12-07T10:17:00Z</time>
      </trkpt>
      <trkpt lat="45.95842" lon="4.88106">
        <ele>288</ele>
        <time>2017-12-07T10:17:01Z</time>
      </trkpt>
      <trkpt lat="45.95842" lon="4.88114">
        <ele>288</ele>
        <time>2017-12-07T10:17:02Z</time>
      </trkpt>
      <trkpt lat="45.95842" lon="4.88122">
        <ele>289</ele>
        <time>2017-12-07T10:17:03Z</time>
      </trkpt>
      <trkpt lat="45.95842" lon="4.88128">
        <ele>288</ele>
        <time>2017-12-07T10:17:04Z</time>
      </trkpt>
      <trkpt lat="45.95843" lon="4.88141">
        <ele>288</ele>
        <time>2017-12-07T10:17:06Z</time>
      </trkpt>
      <trkpt lat="45.95844" lon="4.88148">
        <ele>288</ele>
        <time>2017-12-07T10:17:07Z</time>
      </trkpt>
      <trkpt lat="45.95844" lon="4.88154">
        <ele>288</ele>
        <time>2017-12-07T10:17:08Z</time>
      </trkpt>
      <trkpt lat="45.95844" lon="4.88162">
        <ele>288</ele>
        <time>2017-12-07T10:17:09Z</time>
      </trkpt>
      <trkpt lat="45.95845" lon="4.88169">
        <ele>288</ele>
        <time>2017-12-07T10:17:10Z</time>
      </trkpt>
      <trkpt lat="45.95845" lon="4.88175">
        <ele>288</ele>
        <time>2017-12-07T10:17:11Z</time>
      </trkpt>
      <trkpt lat="45.95847" lon="4.88182">
        <ele>288</ele>
        <time>2017-12-07T10:17:12Z</time>
      </trkpt>
      <trkpt lat="45.95847" lon="4.88188">
        <ele>288</ele>
        <time>2017-12-07T10:17:13Z</time>
      </trkpt>
      <trkpt lat="45.95847" lon="4.88201">
        <ele>288</ele>
        <time>2017-12-07T10:17:15Z</time>
      </trkpt>
      <trkpt lat="45.95848" lon="4.88207">
        <ele>288</ele>
        <time>2017-12-07T10:17:16Z</time>
      </trkpt>
      <trkpt lat="45.95848" lon="4.88214">
        <ele>288</ele>
        <time>2017-12-07T10:17:17Z</time>
      </trkpt>
      <trkpt lat="45.95849" lon="4.88221">
        <ele>288</ele>
        <time>2017-12-07T10:17:18Z</time>
      </trkpt>
      <trkpt lat="45.95849" lon="4.88228">
        <ele>288</ele>
        <time>2017-12-07T10:17:19Z</time>
      </trkpt>
      <trkpt lat="45.95849" lon="4.88236">
        <ele>288</ele>
        <time>2017-12-07T10:17:20Z</time>
      </trkpt>
      <trkpt lat="45.9585" lon="4.88243">
        <ele>288</ele>
        <time>2017-12-07T10:17:21Z</time>
      </trkpt>
      <trkpt lat="45.9585" lon="4.88252">
        <ele>287</ele>
        <time>2017-12-07T10:17:22Z</time>
      </trkpt>
      <trkpt lat="45.9585" lon="4.88259">
        <ele>287</ele>
        <time>2017-12-07T10:17:23Z</time>
      </trkpt>
      <trkpt lat="45.9585" lon="4.88267">
        <ele>287</ele>
        <time>2017-12-07T10:17:24Z</time>
      </trkpt>
      <trkpt lat="45.9585" lon="4.88274">
        <ele>287</ele>
        <time>2017-12-07T10:17:25Z</time>
      </trkpt>
      <trkpt lat="45.9585" lon="4.8828">
        <ele>288</ele>
        <time>2017-12-07T10:17:26Z</time>
      </trkpt>
      <trkpt lat="45.95849" lon="4.88287">
        <ele>288</ele>
        <time>2017-12-07T10:17:27Z</time>
      </trkpt>
      <trkpt lat="45.9585" lon="4.88294">
        <ele>288</ele>
        <time>2017-12-07T10:17:28Z</time>
      </trkpt>
      <trkpt lat="45.95851" lon="4.88305">
        <ele>288</ele>
        <time>2017-12-07T10:17:30Z</time>
      </trkpt>
      <trkpt lat="45.95851" lon="4.88312">
        <ele>288</ele>
        <time>2017-12-07T10:17:31Z</time>
      </trkpt>
      <trkpt lat="45.95852" lon="4.88319">
        <ele>287</ele>
        <time>2017-12-07T10:17:32Z</time>
      </trkpt>
      <trkpt lat="45.95852" lon="4.88326">
        <ele>287</ele>
        <time>2017-12-07T10:17:33Z</time>
      </trkpt>
      <trkpt lat="45.95853" lon="4.88335">
        <ele>287</ele>
        <time>2017-12-07T10:17:34Z</time>
      </trkpt>
      <trkpt lat="45.95854" lon="4.88342">
        <ele>287</ele>
        <time>2017-12-07T10:17:35Z</time>
      </trkpt>
      <trkpt lat="45.95854" lon="4.88351">
        <ele>287</ele>
        <time>2017-12-07T10:17:36Z</time>
      </trkpt>
      <trkpt lat="45.95855" lon="4.88359">
        <ele>287</ele>
        <time>2017-12-07T10:17:37Z</time>
      </trkpt>
      <trkpt lat="45.95855" lon="4.88366">
        <ele>287</ele>
        <time>2017-12-07T10:17:38Z</time>
      </trkpt>
      <trkpt lat="45.95856" lon="4.88374">
        <ele>287</ele>
        <time>2017-12-07T10:17:39Z</time>
      </trkpt>
      <trkpt lat="45.95857" lon="4.88383">
        <ele>287</ele>
        <time>2017-12-07T10:17:40Z</time>
      </trkpt>
      <trkpt lat="45.95857" lon="4.8839">
        <ele>287</ele>
        <time>2017-12-07T10:17:41Z</time>
      </trkpt>
      <trkpt lat="45.95857" lon="4.88396">
        <ele>287</ele>
        <time>2017-12-07T10:17:42Z</time>
      </trkpt>
      <trkpt lat="45.95857" lon="4.88404">
        <ele>287</ele>
        <time>2017-12-07T10:17:43Z</time>
      </trkpt>
      <trkpt lat="45.95857" lon="4.88411">
        <ele>287</ele>
        <time>2017-12-07T10:17:44Z</time>
      </trkpt>
      <trkpt lat="45.95857" lon="4.88417">
        <ele>287</ele>
        <time>2017-12-07T10:17:45Z</time>
      </trkpt>
      <trkpt lat="45.95858" lon="4.88425">
        <ele>287</ele>
        <time>2017-12-07T10:17:46Z</time>
      </trkpt>
      <trkpt lat="45.95859" lon="4.88433">
        <ele>287</ele>
        <time>2017-12-07T10:17:47Z</time>
      </trkpt>
      <trkpt lat="45.95859" lon="4.88441">
        <ele>287</ele>
        <time>2017-12-07T10:17:48Z</time>
      </trkpt>
      <trkpt lat="45.9586" lon="4.88448">
        <ele>287</ele>
        <time>2017-12-07T10:17:49Z</time>
      </trkpt>
      <trkpt lat="45.95861" lon="4.88455">
        <ele>287</ele>
        <time>2017-12-07T10:17:50Z</time>
      </trkpt>
      <trkpt lat="45.95861" lon="4.88464">
        <ele>287</ele>
        <time>2017-12-07T10:17:51Z</time>
      </trkpt>
      <trkpt lat="45.9586" lon="4.88471">
        <ele>287</ele>
        <time>2017-12-07T10:17:52Z</time>
      </trkpt>
      <trkpt lat="45.9586" lon="4.88479">
        <ele>287</ele>
        <time>2017-12-07T10:17:53Z</time>
      </trkpt>
      <trkpt lat="45.9586" lon="4.88492">
        <ele>287</ele>
        <time>2017-12-07T10:17:55Z</time>
      </trkpt>
      <trkpt lat="45.9586" lon="4.885">
        <ele>287</ele>
        <time>2017-12-07T10:17:56Z</time>
      </trkpt>
      <trkpt lat="45.95861" lon="4.88508">
        <ele>288</ele>
        <time>2017-12-07T10:17:57Z</time>
      </trkpt>
      <trkpt lat="45.95862" lon="4.88515">
        <ele>288</ele>
        <time>2017-12-07T10:17:58Z</time>
      </trkpt>
      <trkpt lat="45.95862" lon="4.88522">
        <ele>288</ele>
        <time>2017-12-07T10:17:59Z</time>
      </trkpt>
      <trkpt lat="45.95863" lon="4.88531">
        <ele>288</ele>
        <time>2017-12-07T10:18:00Z</time>
      </trkpt>
      <trkpt lat="45.95863" lon="4.88537">
        <ele>288</ele>
        <time>2017-12-07T10:18:01Z</time>
      </trkpt>
      <trkpt lat="45.95864" lon="4.88546">
        <ele>288</ele>
        <time>2017-12-07T10:18:02Z</time>
      </trkpt>
      <trkpt lat="45.95865" lon="4.88554">
        <ele>288</ele>
        <time>2017-12-07T10:18:03Z</time>
      </trkpt>
      <trkpt lat="45.95865" lon="4.88561">
        <ele>288</ele>
        <time>2017-12-07T10:18:04Z</time>
      </trkpt>
      <trkpt lat="45.95865" lon="4.88569">
        <ele>288</ele>
        <time>2017-12-07T10:18:05Z</time>
      </trkpt>
      <trkpt lat="45.95866" lon="4.88576">
        <ele>288</ele>
        <time>2017-12-07T10:18:06Z</time>
      </trkpt>
      <trkpt lat="45.95866" lon="4.88583">
        <ele>288</ele>
        <time>2017-12-07T10:18:07Z</time>
      </trkpt>
      <trkpt lat="45.95866" lon="4.88589">
        <ele>288</ele>
        <time>2017-12-07T10:18:08Z</time>
      </trkpt>
      <trkpt lat="45.95866" lon="4.88596">
        <ele>288</ele>
        <time>2017-12-07T10:18:09Z</time>
      </trkpt>
      <trkpt lat="45.95867" lon="4.88602">
        <ele>288</ele>
        <time>2017-12-07T10:18:10Z</time>
      </trkpt>
      <trkpt lat="45.95867" lon="4.8861">
        <ele>288</ele>
        <time>2017-12-07T10:18:11Z</time>
      </trkpt>
      <trkpt lat="45.95866" lon="4.88618">
        <ele>288</ele>
        <time>2017-12-07T10:18:12Z</time>
      </trkpt>
      <trkpt lat="45.95865" lon="4.88625">
        <ele>288</ele>
        <time>2017-12-07T10:18:13Z</time>
      </trkpt>
      <trkpt lat="45.95866" lon="4.88635">
        <ele>288</ele>
        <time>2017-12-07T10:18:14Z</time>
      </trkpt>
      <trkpt lat="45.95866" lon="4.88642">
        <ele>288</ele>
        <time>2017-12-07T10:18:15Z</time>
      </trkpt>
      <trkpt lat="45.95867" lon="4.8865">
        <ele>288</ele>
        <time>2017-12-07T10:18:16Z</time>
      </trkpt>
      <trkpt lat="45.95867" lon="4.88659">
        <ele>288</ele>
        <time>2017-12-07T10:18:17Z</time>
      </trkpt>
      <trkpt lat="45.95868" lon="4.88665">
        <ele>288</ele>
        <time>2017-12-07T10:18:18Z</time>
      </trkpt>
      <trkpt lat="45.9587" lon="4.88674">
        <ele>288</ele>
        <time>2017-12-07T10:18:19Z</time>
      </trkpt>
      <trkpt lat="45.9587" lon="4.8868">
        <ele>288</ele>
        <time>2017-12-07T10:18:20Z</time>
      </trkpt>
      <trkpt lat="45.95869" lon="4.88692">
        <ele>288</ele>
        <time>2017-12-07T10:18:22Z</time>
      </trkpt>
      <trkpt lat="45.95869" lon="4.88699">
        <ele>288</ele>
        <time>2017-12-07T10:18:23Z</time>
      </trkpt>
      <trkpt lat="45.9587" lon="4.8871">
        <ele>288</ele>
        <time>2017-12-07T10:18:25Z</time>
      </trkpt>
      <trkpt lat="45.9587" lon="4.88716">
        <ele>288</ele>
        <time>2017-12-07T10:18:26Z</time>
      </trkpt>
      <trkpt lat="45.95871" lon="4.88729">
        <ele>288</ele>
        <time>2017-12-07T10:18:28Z</time>
      </trkpt>
      <trkpt lat="45.95871" lon="4.88736">
        <ele>288</ele>
        <time>2017-12-07T10:18:29Z</time>
      </trkpt>
      <trkpt lat="45.95871" lon="4.88741">
        <ele>288</ele>
        <time>2017-12-07T10:18:30Z</time>
      </trkpt>
      <trkpt lat="45.95873" lon="4.88749">
        <ele>288</ele>
        <time>2017-12-07T10:18:31Z</time>
      </trkpt>
      <trkpt lat="45.95872" lon="4.88756">
        <ele>288</ele>
        <time>2017-12-07T10:18:32Z</time>
      </trkpt>
      <trkpt lat="45.95872" lon="4.88764">
        <ele>288</ele>
        <time>2017-12-07T10:18:33Z</time>
      </trkpt>
      <trkpt lat="45.95872" lon="4.88771">
        <ele>288</ele>
        <time>2017-12-07T10:18:34Z</time>
      </trkpt>
      <trkpt lat="45.95873" lon="4.88779">
        <ele>288</ele>
        <time>2017-12-07T10:18:35Z</time>
      </trkpt>
      <trkpt lat="45.95873" lon="4.88785">
        <ele>288</ele>
        <time>2017-12-07T10:18:36Z</time>
      </trkpt>
      <trkpt lat="45.95874" lon="4.88792">
        <ele>288</ele>
        <time>2017-12-07T10:18:37Z</time>
      </trkpt>
      <trkpt lat="45.95873" lon="4.88804">
        <ele>288</ele>
        <time>2017-12-07T10:18:39Z</time>
      </trkpt>
      <trkpt lat="45.95873" lon="4.8881">
        <ele>288</ele>
        <time>2017-12-07T10:18:40Z</time>
      </trkpt>
      <trkpt lat="45.95873" lon="4.88823">
        <ele>288</ele>
        <time>2017-12-07T10:18:42Z</time>
      </trkpt>
      <trkpt lat="45.95874" lon="4.88829">
        <ele>288</ele>
        <time>2017-12-07T10:18:43Z</time>
      </trkpt>
      <trkpt lat="45.95874" lon="4.88837">
        <ele>289</ele>
        <time>2017-12-07T10:18:44Z</time>
      </trkpt>
      <trkpt lat="45.95874" lon="4.88844">
        <ele>289</ele>
        <time>2017-12-07T10:18:45Z</time>
      </trkpt>
      <trkpt lat="45.95874" lon="4.88857">
        <ele>289</ele>
        <time>2017-12-07T10:18:47Z</time>
      </trkpt>
      <trkpt lat="45.95875" lon="4.88864">
        <ele>289</ele>
        <time>2017-12-07T10:18:48Z</time>
      </trkpt>
      <trkpt lat="45.95875" lon="4.8887">
        <ele>289</ele>
        <time>2017-12-07T10:18:49Z</time>
      </trkpt>
      <trkpt lat="45.95875" lon="4.88877">
        <ele>289</ele>
        <time>2017-12-07T10:18:50Z</time>
      </trkpt>
      <trkpt lat="45.95875" lon="4.88884">
        <ele>289</ele>
        <time>2017-12-07T10:18:51Z</time>
      </trkpt>
      <trkpt lat="45.95874" lon="4.8889">
        <ele>289</ele>
        <time>2017-12-07T10:18:52Z</time>
      </trkpt>
      <trkpt lat="45.95874" lon="4.88898">
        <ele>289</ele>
        <time>2017-12-07T10:18:53Z</time>
      </trkpt>
      <trkpt lat="45.95874" lon="4.88907">
        <ele>289</ele>
        <time>2017-12-07T10:18:54Z</time>
      </trkpt>
      <trkpt lat="45.95875" lon="4.88914">
        <ele>289</ele>
        <time>2017-12-07T10:18:55Z</time>
      </trkpt>
      <trkpt lat="45.95875" lon="4.88921">
        <ele>289</ele>
        <time>2017-12-07T10:18:56Z</time>
      </trkpt>
      <trkpt lat="45.95875" lon="4.88929">
        <ele>289</ele>
        <time>2017-12-07T10:18:57Z</time>
      </trkpt>
      <trkpt lat="45.95875" lon="4.88934">
        <ele>289</ele>
        <time>2017-12-07T10:18:58Z</time>
      </trkpt>
      <trkpt lat="45.95876" lon="4.88941">
        <ele>289</ele>
        <time>2017-12-07T10:18:59Z</time>
      </trkpt>
      <trkpt lat="45.95876" lon="4.88947">
        <ele>289</ele>
        <time>2017-12-07T10:19:00Z</time>
      </trkpt>
      <trkpt lat="45.95877" lon="4.88955">
        <ele>289</ele>
        <time>2017-12-07T10:19:01Z</time>
      </trkpt>
      <trkpt lat="45.95878" lon="4.88961">
        <ele>289</ele>
        <time>2017-12-07T10:19:02Z</time>
      </trkpt>
      <trkpt lat="45.95878" lon="4.88968">
        <ele>289</ele>
        <time>2017-12-07T10:19:03Z</time>
      </trkpt>
      <trkpt lat="45.95879" lon="4.88974">
        <ele>289</ele>
        <time>2017-12-07T10:19:04Z</time>
      </trkpt>
      <trkpt lat="45.9588" lon="4.88981">
        <ele>289</ele>
        <time>2017-12-07T10:19:05Z</time>
      </trkpt>
      <trkpt lat="45.95882" lon="4.88989">
        <ele>289</ele>
        <time>2017-12-07T10:19:06Z</time>
      </trkpt>
      <trkpt lat="45.95883" lon="4.88995">
        <ele>289</ele>
        <time>2017-12-07T10:19:07Z</time>
      </trkpt>
      <trkpt lat="45.95884" lon="4.89002">
        <ele>289</ele>
        <time>2017-12-07T10:19:08Z</time>
      </trkpt>
      <trkpt lat="45.95887" lon="4.89015">
        <ele>289</ele>
        <time>2017-12-07T10:19:10Z</time>
      </trkpt>
      <trkpt lat="45.95888" lon="4.89021">
        <ele>289</ele>
        <time>2017-12-07T10:19:11Z</time>
      </trkpt>
      <trkpt lat="45.95892" lon="4.89033">
        <ele>289</ele>
        <time>2017-12-07T10:19:13Z</time>
      </trkpt>
      <trkpt lat="45.95893" lon="4.89039">
        <ele>289</ele>
        <time>2017-12-07T10:19:14Z</time>
      </trkpt>
      <trkpt lat="45.95892" lon="4.89051">
        <ele>289</ele>
        <time>2017-12-07T10:19:16Z</time>
      </trkpt>
      <trkpt lat="45.9589" lon="4.89057">
        <ele>289</ele>
        <time>2017-12-07T10:19:17Z</time>
      </trkpt>
      <trkpt lat="45.95887" lon="4.89069">
        <ele>289</ele>
        <time>2017-12-07T10:19:19Z</time>
      </trkpt>
      <trkpt lat="45.95886" lon="4.89074">
        <ele>289</ele>
        <time>2017-12-07T10:19:20Z</time>
      </trkpt>
      <trkpt lat="45.95882" lon="4.89081">
        <ele>289</ele>
        <time>2017-12-07T10:19:22Z</time>
      </trkpt>
      <trkpt lat="45.95878" lon="4.89085">
        <ele>288</ele>
        <time>2017-12-07T10:19:23Z</time>
      </trkpt>
      <trkpt lat="45.95873" lon="4.89095">
        <ele>288</ele>
        <time>2017-12-07T10:19:25Z</time>
      </trkpt>
      <trkpt lat="45.95871" lon="4.891">
        <ele>288</ele>
        <time>2017-12-07T10:19:26Z</time>
      </trkpt>
      <trkpt lat="45.9587" lon="4.89107">
        <ele>288</ele>
        <time>2017-12-07T10:19:27Z</time>
      </trkpt>
      <trkpt lat="45.9587" lon="4.89115">
        <ele>288</ele>
        <time>2017-12-07T10:19:28Z</time>
      </trkpt>
      <trkpt lat="45.95869" lon="4.89122">
        <ele>288</ele>
        <time>2017-12-07T10:19:29Z</time>
      </trkpt>
      <trkpt lat="45.95869" lon="4.89129">
        <ele>288</ele>
        <time>2017-12-07T10:19:30Z</time>
      </trkpt>
      <trkpt lat="45.9587" lon="4.89137">
        <ele>288</ele>
        <time>2017-12-07T10:19:31Z</time>
      </trkpt>
      <trkpt lat="45.95871" lon="4.89144">
        <ele>288</ele>
        <time>2017-12-07T10:19:32Z</time>
      </trkpt>
      <trkpt lat="45.95873" lon="4.89152">
        <ele>288</ele>
        <time>2017-12-07T10:19:33Z</time>
      </trkpt>
      <trkpt lat="45.95874" lon="4.8916">
        <ele>288</ele>
        <time>2017-12-07T10:19:34Z</time>
      </trkpt>
      <trkpt lat="45.95876" lon="4.89167">
        <ele>288</ele>
        <time>2017-12-07T10:19:35Z</time>
      </trkpt>
      <trkpt lat="45.95877" lon="4.89173">
        <ele>288</ele>
        <time>2017-12-07T10:19:36Z</time>
      </trkpt>
      <trkpt lat="45.95878" lon="4.8918">
        <ele>288</ele>
        <time>2017-12-07T10:19:37Z</time>
      </trkpt>
      <trkpt lat="45.95878" lon="4.89187">
        <ele>288</ele>
        <time>2017-12-07T10:19:38Z</time>
      </trkpt>
      <trkpt lat="45.9588" lon="4.89196">
        <ele>288</ele>
        <time>2017-12-07T10:19:39Z</time>
      </trkpt>
      <trkpt lat="45.9588" lon="4.89203">
        <ele>288</ele>
        <time>2017-12-07T10:19:40Z</time>
      </trkpt>
      <trkpt lat="45.95881" lon="4.89211">
        <ele>288</ele>
        <time>2017-12-07T10:19:41Z</time>
      </trkpt>
      <trkpt lat="45.95881" lon="4.89218">
        <ele>288</ele>
        <time>2017-12-07T10:19:42Z</time>
      </trkpt>
      <trkpt lat="45.9588" lon="4.89225">
        <ele>288</ele>
        <time>2017-12-07T10:19:43Z</time>
      </trkpt>
      <trkpt lat="45.9588" lon="4.89231">
        <ele>288</ele>
        <time>2017-12-07T10:19:44Z</time>
      </trkpt>
      <trkpt lat="45.95879" lon="4.89237">
        <ele>288</ele>
        <time>2017-12-07T10:19:45Z</time>
      </trkpt>
      <trkpt lat="45.9588" lon="4.89244">
        <ele>288</ele>
        <time>2017-12-07T10:19:46Z</time>
      </trkpt>
      <trkpt lat="45.9588" lon="4.89252">
        <ele>289</ele>
        <time>2017-12-07T10:19:47Z</time>
      </trkpt>
      <trkpt lat="45.9588" lon="4.89259">
        <ele>289</ele>
        <time>2017-12-07T10:19:48Z</time>
      </trkpt>
      <trkpt lat="45.9588" lon="4.89272">
        <ele>289</ele>
        <time>2017-12-07T10:19:50Z</time>
      </trkpt>
      <trkpt lat="45.9588" lon="4.89279">
        <ele>289</ele>
        <time>2017-12-07T10:19:51Z</time>
      </trkpt>
      <trkpt lat="45.95879" lon="4.89286">
        <ele>289</ele>
        <time>2017-12-07T10:19:52Z</time>
      </trkpt>
      <trkpt lat="45.9588" lon="4.89294">
        <ele>289</ele>
        <time>2017-12-07T10:19:53Z</time>
      </trkpt>
      <trkpt lat="45.95879" lon="4.89301">
        <ele>289</ele>
        <time>2017-12-07T10:19:54Z</time>
      </trkpt>
      <trkpt lat="45.95879" lon="4.89308">
        <ele>289</ele>
        <time>2017-12-07T10:19:55Z</time>
      </trkpt>
      <trkpt lat="45.95879" lon="4.89315">
        <ele>289</ele>
        <time>2017-12-07T10:19:56Z</time>
      </trkpt>
      <trkpt lat="45.9588" lon="4.89324">
        <ele>289</ele>
        <time>2017-12-07T10:19:57Z</time>
      </trkpt>
      <trkpt lat="45.9588" lon="4.89332">
        <ele>289</ele>
        <time>2017-12-07T10:19:58Z</time>
      </trkpt>
      <trkpt lat="45.95879" lon="4.8934">
        <ele>289</ele>
        <time>2017-12-07T10:19:59Z</time>
      </trkpt>
      <trkpt lat="45.95879" lon="4.89348">
        <ele>289</ele>
        <time>2017-12-07T10:20:00Z</time>
      </trkpt>
      <trkpt lat="45.95878" lon="4.89354">
        <ele>289</ele>
        <time>2017-12-07T10:20:01Z</time>
      </trkpt>
      <trkpt lat="45.95877" lon="4.89362">
        <ele>289</ele>
        <time>2017-12-07T10:20:02Z</time>
      </trkpt>
      <trkpt lat="45.95878" lon="4.89369">
        <ele>289</ele>
        <time>2017-12-07T10:20:03Z</time>
      </trkpt>
      <trkpt lat="45.9588" lon="4.89379">
        <ele>289</ele>
        <time>2017-12-07T10:20:04Z</time>
      </trkpt>
      <trkpt lat="45.95881" lon="4.89387">
        <ele>289</ele>
        <time>2017-12-07T10:20:05Z</time>
      </trkpt>
      <trkpt lat="45.95881" lon="4.89394">
        <ele>289</ele>
        <time>2017-12-07T10:20:06Z</time>
      </trkpt>
      <trkpt lat="45.95882" lon="4.89401">
        <ele>289</ele>
        <time>2017-12-07T10:20:07Z</time>
      </trkpt>
      <trkpt lat="45.95882" lon="4.89408">
        <ele>289</ele>
        <time>2017-12-07T10:20:08Z</time>
      </trkpt>
      <trkpt lat="45.95881" lon="4.89414">
        <ele>289</ele>
        <time>2017-12-07T10:20:09Z</time>
      </trkpt>
      <trkpt lat="45.95881" lon="4.89421">
        <ele>289</ele>
        <time>2017-12-07T10:20:10Z</time>
      </trkpt>
      <trkpt lat="45.95882" lon="4.89427">
        <ele>289</ele>
        <time>2017-12-07T10:20:11Z</time>
      </trkpt>
      <trkpt lat="45.95881" lon="4.8944">
        <ele>289</ele>
        <time>2017-12-07T10:20:13Z</time>
      </trkpt>
      <trkpt lat="45.95881" lon="4.89445">
        <ele>289</ele>
        <time>2017-12-07T10:20:14Z</time>
      </trkpt>
      <trkpt lat="45.9588" lon="4.89452">
        <ele>289</ele>
        <time>2017-12-07T10:20:15Z</time>
      </trkpt>
      <trkpt lat="45.95882" lon="4.8946">
        <ele>289</ele>
        <time>2017-12-07T10:20:16Z</time>
      </trkpt>
      <trkpt lat="45.95881" lon="4.89467">
        <ele>289</ele>
        <time>2017-12-07T10:20:17Z</time>
      </trkpt>
      <trkpt lat="45.95882" lon="4.89474">
        <ele>289</ele>
        <time>2017-12-07T10:20:18Z</time>
      </trkpt>
      <trkpt lat="45.95882" lon="4.89481">
        <ele>288</ele>
        <time>2017-12-07T10:20:19Z</time>
      </trkpt>
      <trkpt lat="45.95882" lon="4.89488">
        <ele>288</ele>
        <time>2017-12-07T10:20:20Z</time>
      </trkpt>
      <trkpt lat="45.95883" lon="4.89495">
        <ele>288</ele>
        <time>2017-12-07T10:20:21Z</time>
      </trkpt>
      <trkpt lat="45.95883" lon="4.89502">
        <ele>288</ele>
        <time>2017-12-07T10:20:22Z</time>
      </trkpt>
      <trkpt lat="45.95883" lon="4.89514">
        <ele>288</ele>
        <time>2017-12-07T10:20:24Z</time>
      </trkpt>
      <trkpt lat="45.95883" lon="4.8952">
        <ele>288</ele>
        <time>2017-12-07T10:20:25Z</time>
      </trkpt>
      <trkpt lat="45.95883" lon="4.89531">
        <ele>288</ele>
        <time>2017-12-07T10:20:27Z</time>
      </trkpt>
      <trkpt lat="45.95883" lon="4.89538">
        <ele>288</ele>
        <time>2017-12-07T10:20:28Z</time>
      </trkpt>
      <trkpt lat="45.95883" lon="4.8955">
        <ele>288</ele>
        <time>2017-12-07T10:20:30Z</time>
      </trkpt>
      <trkpt lat="45.95882" lon="4.89557">
        <ele>288</ele>
        <time>2017-12-07T10:20:31Z</time>
      </trkpt>
      <trkpt lat="45.95882" lon="4.89563">
        <ele>288</ele>
        <time>2017-12-07T10:20:32Z</time>
      </trkpt>
      <trkpt lat="45.95882" lon="4.89571">
        <ele>288</ele>
        <time>2017-12-07T10:20:33Z</time>
      </trkpt>
      <trkpt lat="45.95882" lon="4.89578">
        <ele>288</ele>
        <time>2017-12-07T10:20:34Z</time>
      </trkpt>
      <trkpt lat="45.95883" lon="4.89584">
        <ele>289</ele>
        <time>2017-12-07T10:20:35Z</time>
      </trkpt>
      <trkpt lat="45.95883" lon="4.89597">
        <ele>289</ele>
        <time>2017-12-07T10:20:37Z</time>
      </trkpt>
      <trkpt lat="45.95883" lon="4.89604">
        <ele>289</ele>
        <time>2017-12-07T10:20:38Z</time>
      </trkpt>
      <trkpt lat="45.95882" lon="4.89611">
        <ele>289</ele>
        <time>2017-12-07T10:20:39Z</time>
      </trkpt>
      <trkpt lat="45.95882" lon="4.89618">
        <ele>289</ele>
        <time>2017-12-07T10:20:40Z</time>
      </trkpt>
      <trkpt lat="45.95882" lon="4.89625">
        <ele>289</ele>
        <time>2017-12-07T10:20:41Z</time>
      </trkpt>
      <trkpt lat="45.95882" lon="4.89631">
        <ele>289</ele>
        <time>2017-12-07T10:20:42Z</time>
      </trkpt>
      <trkpt lat="45.95883" lon="4.89637">
        <ele>289</ele>
        <time>2017-12-07T10:20:43Z</time>
      </trkpt>
      <trkpt lat="45.95883" lon="4.89644">
        <ele>289</ele>
        <time>2017-12-07T10:20:44Z</time>
      </trkpt>
      <trkpt lat="45.95882" lon="4.89656">
        <ele>289</ele>
        <time>2017-12-07T10:20:46Z</time>
      </trkpt>
      <trkpt lat="45.95883" lon="4.89662">
        <ele>289</ele>
        <time>2017-12-07T10:20:47Z</time>
      </trkpt>
      <trkpt lat="45.95883" lon="4.89674">
        <ele>289</ele>
        <time>2017-12-07T10:20:49Z</time>
      </trkpt>
      <trkpt lat="45.95883" lon="4.89679">
        <ele>289</ele>
        <time>2017-12-07T10:20:50Z</time>
      </trkpt>
      <trkpt lat="45.95883" lon="4.89687">
        <ele>289</ele>
        <time>2017-12-07T10:20:51Z</time>
      </trkpt>
      <trkpt lat="45.95883" lon="4.89693">
        <ele>289</ele>
        <time>2017-12-07T10:20:52Z</time>
      </trkpt>
      <trkpt lat="45.95883" lon="4.897">
        <ele>289</ele>
        <time>2017-12-07T10:20:53Z</time>
      </trkpt>
      <trkpt lat="45.95883" lon="4.89707">
        <ele>289</ele>
        <time>2017-12-07T10:20:54Z</time>
      </trkpt>
      <trkpt lat="45.95884" lon="4.89714">
        <ele>289</ele>
        <time>2017-12-07T10:20:55Z</time>
      </trkpt>
      <trkpt lat="45.95885" lon="4.8972">
        <ele>289</ele>
        <time>2017-12-07T10:20:56Z</time>
      </trkpt>
      <trkpt lat="45.95884" lon="4.89727">
        <ele>289</ele>
        <time>2017-12-07T10:20:57Z</time>
      </trkpt>
      <trkpt lat="45.95884" lon="4.89733">
        <ele>289</ele>
        <time>2017-12-07T10:20:58Z</time>
      </trkpt>
      <trkpt lat="45.95884" lon="4.8974">
        <ele>289</ele>
        <time>2017-12-07T10:20:59Z</time>
      </trkpt>
      <trkpt lat="45.95883" lon="4.89746">
        <ele>289</ele>
        <time>2017-12-07T10:21:00Z</time>
      </trkpt>
      <trkpt lat="45.95882" lon="4.89759">
        <ele>289</ele>
        <time>2017-12-07T10:21:02Z</time>
      </trkpt>
      <trkpt lat="45.95882" lon="4.89768">
        <ele>289</ele>
        <time>2017-12-07T10:21:03Z</time>
      </trkpt>
      <trkpt lat="45.95882" lon="4.89775">
        <ele>289</ele>
        <time>2017-12-07T10:21:04Z</time>
      </trkpt>
      <trkpt lat="45.95881" lon="4.89782">
        <ele>289</ele>
        <time>2017-12-07T10:21:05Z</time>
      </trkpt>
      <trkpt lat="45.95882" lon="4.89791">
        <ele>289</ele>
        <time>2017-12-07T10:21:06Z</time>
      </trkpt>
      <trkpt lat="45.95882" lon="4.89798">
        <ele>289</ele>
        <time>2017-12-07T10:21:07Z</time>
      </trkpt>
      <trkpt lat="45.95882" lon="4.89805">
        <ele>289</ele>
        <time>2017-12-07T10:21:08Z</time>
      </trkpt>
      <trkpt lat="45.95882" lon="4.89811">
        <ele>289</ele>
        <time>2017-12-07T10:21:09Z</time>
      </trkpt>
      <trkpt lat="45.95882" lon="4.89824">
        <ele>289</ele>
        <time>2017-12-07T10:21:11Z</time>
      </trkpt>
      <trkpt lat="45.95882" lon="4.89829">
        <ele>289</ele>
        <time>2017-12-07T10:21:12Z</time>
      </trkpt>
      <trkpt lat="45.95883" lon="4.89836">
        <ele>290</ele>
        <time>2017-12-07T10:21:13Z</time>
      </trkpt>
      <trkpt lat="45.95883" lon="4.89842">
        <ele>290</ele>
        <time>2017-12-07T10:21:14Z</time>
      </trkpt>
      <trkpt lat="45.95884" lon="4.89849">
        <ele>290</ele>
        <time>2017-12-07T10:21:15Z</time>
      </trkpt>
      <trkpt lat="45.95885" lon="4.89859">
        <ele>290</ele>
        <time>2017-12-07T10:21:16Z</time>
      </trkpt>
      <trkpt lat="45.95884" lon="4.89867">
        <ele>290</ele>
        <time>2017-12-07T10:21:17Z</time>
      </trkpt>
      <trkpt lat="45.95885" lon="4.89875">
        <ele>290</ele>
        <time>2017-12-07T10:21:18Z</time>
      </trkpt>
      <trkpt lat="45.95885" lon="4.89882">
        <ele>290</ele>
        <time>2017-12-07T10:21:19Z</time>
      </trkpt>
      <trkpt lat="45.95885" lon="4.89889">
        <ele>290</ele>
        <time>2017-12-07T10:21:20Z</time>
      </trkpt>
      <trkpt lat="45.95886" lon="4.89895">
        <ele>290</ele>
        <time>2017-12-07T10:21:21Z</time>
      </trkpt>
      <trkpt lat="45.95886" lon="4.89902">
        <ele>290</ele>
        <time>2017-12-07T10:21:22Z</time>
      </trkpt>
      <trkpt lat="45.95886" lon="4.89908">
        <ele>290</ele>
        <time>2017-12-07T10:21:23Z</time>
      </trkpt>
      <trkpt lat="45.95886" lon="4.89915">
        <ele>290</ele>
        <time>2017-12-07T10:21:24Z</time>
      </trkpt>
      <trkpt lat="45.95887" lon="4.89922">
        <ele>290</ele>
        <time>2017-12-07T10:21:25Z</time>
      </trkpt>
      <trkpt lat="45.95886" lon="4.89928">
        <ele>290</ele>
        <time>2017-12-07T10:21:26Z</time>
      </trkpt>
      <trkpt lat="45.95886" lon="4.89936">
        <ele>290</ele>
        <time>2017-12-07T10:21:27Z</time>
      </trkpt>
      <trkpt lat="45.95887" lon="4.89943">
        <ele>290</ele>
        <time>2017-12-07T10:21:28Z</time>
      </trkpt>
      <trkpt lat="45.95886" lon="4.89949">
        <ele>290</ele>
        <time>2017-12-07T10:21:29Z</time>
      </trkpt>
      <trkpt lat="45.95887" lon="4.89958">
        <ele>290</ele>
        <time>2017-12-07T10:21:30Z</time>
      </trkpt>
      <trkpt lat="45.95888" lon="4.89965">
        <ele>290</ele>
        <time>2017-12-07T10:21:31Z</time>
      </trkpt>
      <trkpt lat="45.95888" lon="4.89971">
        <ele>290</ele>
        <time>2017-12-07T10:21:32Z</time>
      </trkpt>
      <trkpt lat="45.95887" lon="4.89983">
        <ele>290</ele>
        <time>2017-12-07T10:21:34Z</time>
      </trkpt>
      <trkpt lat="45.95887" lon="4.89989">
        <ele>290</ele>
        <time>2017-12-07T10:21:35Z</time>
      </trkpt>
      <trkpt lat="45.95888" lon="4.89997">
        <ele>290</ele>
        <time>2017-12-07T10:21:36Z</time>
      </trkpt>
      <trkpt lat="45.95888" lon="4.90003">
        <ele>290</ele>
        <time>2017-12-07T10:21:37Z</time>
      </trkpt>
      <trkpt lat="45.95888" lon="4.9001">
        <ele>290</ele>
        <time>2017-12-07T10:21:38Z</time>
      </trkpt>
      <trkpt lat="45.95889" lon="4.90018">
        <ele>290</ele>
        <time>2017-12-07T10:21:39Z</time>
      </trkpt>
      <trkpt lat="45.95889" lon="4.90025">
        <ele>290</ele>
        <time>2017-12-07T10:21:40Z</time>
      </trkpt>
      <trkpt lat="45.95888" lon="4.90033">
        <ele>290</ele>
        <time>2017-12-07T10:21:41Z</time>
      </trkpt>
      <trkpt lat="45.95889" lon="4.90041">
        <ele>290</ele>
        <time>2017-12-07T10:21:42Z</time>
      </trkpt>
      <trkpt lat="45.95889" lon="4.90048">
        <ele>290</ele>
        <time>2017-12-07T10:21:43Z</time>
      </trkpt>
      <trkpt lat="45.95889" lon="4.90056">
        <ele>290</ele>
        <time>2017-12-07T10:21:44Z</time>
      </trkpt>
      <trkpt lat="45.9589" lon="4.90064">
        <ele>290</ele>
        <time>2017-12-07T10:21:45Z</time>
      </trkpt>
      <trkpt lat="45.9589" lon="4.90071">
        <ele>290</ele>
        <time>2017-12-07T10:21:46Z</time>
      </trkpt>
      <trkpt lat="45.9589" lon="4.90078">
        <ele>290</ele>
        <time>2017-12-07T10:21:47Z</time>
      </trkpt>
      <trkpt lat="45.9589" lon="4.90086">
        <ele>290</ele>
        <time>2017-12-07T10:21:48Z</time>
      </trkpt>
      <trkpt lat="45.95891" lon="4.90092">
        <ele>290</ele>
        <time>2017-12-07T10:21:49Z</time>
      </trkpt>
      <trkpt lat="45.95891" lon="4.90098">
        <ele>290</ele>
        <time>2017-12-07T10:21:50Z</time>
      </trkpt>
      <trkpt lat="45.95891" lon="4.90106">
        <ele>290</ele>
        <time>2017-12-07T10:21:51Z</time>
      </trkpt>
      <trkpt lat="45.9589" lon="4.90114">
        <ele>290</ele>
        <time>2017-12-07T10:21:52Z</time>
      </trkpt>
      <trkpt lat="45.95889" lon="4.9012">
        <ele>290</ele>
        <time>2017-12-07T10:21:53Z</time>
      </trkpt>
      <trkpt lat="45.95889" lon="4.90127">
        <ele>290</ele>
        <time>2017-12-07T10:21:54Z</time>
      </trkpt>
      <trkpt lat="45.95888" lon="4.90133">
        <ele>290</ele>
        <time>2017-12-07T10:21:55Z</time>
      </trkpt>
      <trkpt lat="45.95889" lon="4.9014">
        <ele>290</ele>
        <time>2017-12-07T10:21:56Z</time>
      </trkpt>
      <trkpt lat="45.9589" lon="4.90146">
        <ele>290</ele>
        <time>2017-12-07T10:21:57Z</time>
      </trkpt>
      <trkpt lat="45.95889" lon="4.90154">
        <ele>290</ele>
        <time>2017-12-07T10:21:58Z</time>
      </trkpt>
      <trkpt lat="45.95889" lon="4.9016">
        <ele>290</ele>
        <time>2017-12-07T10:21:59Z</time>
      </trkpt>
      <trkpt lat="45.95889" lon="4.90167">
        <ele>290</ele>
        <time>2017-12-07T10:22:00Z</time>
      </trkpt>
      <trkpt lat="45.95889" lon="4.90176">
        <ele>291</ele>
        <time>2017-12-07T10:22:01Z</time>
      </trkpt>
      <trkpt lat="45.9589" lon="4.90183">
        <ele>291</ele>
        <time>2017-12-07T10:22:02Z</time>
      </trkpt>
      <trkpt lat="45.95889" lon="4.90191">
        <ele>291</ele>
        <time>2017-12-07T10:22:03Z</time>
      </trkpt>
      <trkpt lat="45.95889" lon="4.90199">
        <ele>291</ele>
        <time>2017-12-07T10:22:04Z</time>
      </trkpt>
      <trkpt lat="45.95889" lon="4.90206">
        <ele>291</ele>
        <time>2017-12-07T10:22:05Z</time>
      </trkpt>
      <trkpt lat="45.95888" lon="4.90219">
        <ele>291</ele>
        <time>2017-12-07T10:22:07Z</time>
      </trkpt>
      <trkpt lat="45.95888" lon="4.90227">
        <ele>292</ele>
        <time>2017-12-07T10:22:08Z</time>
      </trkpt>
      <trkpt lat="45.95887" lon="4.90234">
        <ele>292</ele>
        <time>2017-12-07T10:22:09Z</time>
      </trkpt>
      <trkpt lat="45.95888" lon="4.90241">
        <ele>292</ele>
        <time>2017-12-07T10:22:10Z</time>
      </trkpt>
      <trkpt lat="45.95886" lon="4.90248">
        <ele>292</ele>
        <time>2017-12-07T10:22:11Z</time>
      </trkpt>
      <trkpt lat="45.95887" lon="4.90254">
        <ele>292</ele>
        <time>2017-12-07T10:22:12Z</time>
      </trkpt>
      <trkpt lat="45.95887" lon="4.90267">
        <ele>292</ele>
        <time>2017-12-07T10:22:14Z</time>
      </trkpt>
      <trkpt lat="45.95887" lon="4.90272">
        <ele>292</ele>
        <time>2017-12-07T10:22:15Z</time>
      </trkpt>
      <trkpt lat="45.95888" lon="4.90279">
        <ele>292</ele>
        <time>2017-12-07T10:22:16Z</time>
      </trkpt>
      <trkpt lat="45.95888" lon="4.90287">
        <ele>292</ele>
        <time>2017-12-07T10:22:17Z</time>
      </trkpt>
      <trkpt lat="45.95889" lon="4.90295">
        <ele>292</ele>
        <time>2017-12-07T10:22:18Z</time>
      </trkpt>
      <trkpt lat="45.95888" lon="4.90302">
        <ele>292</ele>
        <time>2017-12-07T10:22:19Z</time>
      </trkpt>
      <trkpt lat="45.95888" lon="4.90314">
        <ele>292</ele>
        <time>2017-12-07T10:22:21Z</time>
      </trkpt>
      <trkpt lat="45.95888" lon="4.9032">
        <ele>292</ele>
        <time>2017-12-07T10:22:22Z</time>
      </trkpt>
      <trkpt lat="45.95887" lon="4.90326">
        <ele>292</ele>
        <time>2017-12-07T10:22:23Z</time>
      </trkpt>
      <trkpt lat="45.95886" lon="4.90333">
        <ele>292</ele>
        <time>2017-12-07T10:22:24Z</time>
      </trkpt>
      <trkpt lat="45.95886" lon="4.9034">
        <ele>292</ele>
        <time>2017-12-07T10:22:25Z</time>
      </trkpt>
      <trkpt lat="45.95885" lon="4.90347">
        <ele>292</ele>
        <time>2017-12-07T10:22:26Z</time>
      </trkpt>
      <trkpt lat="45.95884" lon="4.90359">
        <ele>292</ele>
        <time>2017-12-07T10:22:28Z</time>
      </trkpt>
      <trkpt lat="45.95883" lon="4.90364">
        <ele>292</ele>
        <time>2017-12-07T10:22:29Z</time>
      </trkpt>
      <trkpt lat="45.95883" lon="4.90371">
        <ele>292</ele>
        <time>2017-12-07T10:22:30Z</time>
      </trkpt>
      <trkpt lat="45.95884" lon="4.90378">
        <ele>292</ele>
        <time>2017-12-07T10:22:31Z</time>
      </trkpt>
      <trkpt lat="45.95882" lon="4.9039">
        <ele>292</ele>
        <time>2017-12-07T10:22:33Z</time>
      </trkpt>
      <trkpt lat="45.95881" lon="4.90395">
        <ele>292</ele>
        <time>2017-12-07T10:22:34Z</time>
      </trkpt>
      <trkpt lat="45.95881" lon="4.90406">
        <ele>292</ele>
        <time>2017-12-07T10:22:36Z</time>
      </trkpt>
      <trkpt lat="45.9588" lon="4.90413">
        <ele>292</ele>
        <time>2017-12-07T10:22:37Z</time>
      </trkpt>
      <trkpt lat="45.95879" lon="4.90425">
        <ele>292</ele>
        <time>2017-12-07T10:22:39Z</time>
      </trkpt>
      <trkpt lat="45.95878" lon="4.90432">
        <ele>292</ele>
        <time>2017-12-07T10:22:40Z</time>
      </trkpt>
      <trkpt lat="45.95878" lon="4.90444">
        <ele>292</ele>
        <time>2017-12-07T10:22:42Z</time>
      </trkpt>
      <trkpt lat="45.95878" lon="4.90452">
        <ele>292</ele>
        <time>2017-12-07T10:22:43Z</time>
      </trkpt>
      <trkpt lat="45.95878" lon="4.90458">
        <ele>292</ele>
        <time>2017-12-07T10:22:44Z</time>
      </trkpt>
      <trkpt lat="45.95878" lon="4.90465">
        <ele>292</ele>
        <time>2017-12-07T10:22:45Z</time>
      </trkpt>
      <trkpt lat="45.95878" lon="4.90472">
        <ele>292</ele>
        <time>2017-12-07T10:22:46Z</time>
      </trkpt>
      <trkpt lat="45.95877" lon="4.90479">
        <ele>292</ele>
        <time>2017-12-07T10:22:47Z</time>
      </trkpt>
      <trkpt lat="45.95876" lon="4.90486">
        <ele>292</ele>
        <time>2017-12-07T10:22:48Z</time>
      </trkpt>
      <trkpt lat="45.95876" lon="4.90493">
        <ele>292</ele>
        <time>2017-12-07T10:22:49Z</time>
      </trkpt>
      <trkpt lat="45.95876" lon="4.905">
        <ele>292</ele>
        <time>2017-12-07T10:22:50Z</time>
      </trkpt>
      <trkpt lat="45.95877" lon="4.90507">
        <ele>292</ele>
        <time>2017-12-07T10:22:51Z</time>
      </trkpt>
      <trkpt lat="45.95878" lon="4.90514">
        <ele>292</ele>
        <time>2017-12-07T10:22:52Z</time>
      </trkpt>
      <trkpt lat="45.95878" lon="4.90521">
        <ele>292</ele>
        <time>2017-12-07T10:22:53Z</time>
      </trkpt>
      <trkpt lat="45.95878" lon="4.90527">
        <ele>292</ele>
        <time>2017-12-07T10:22:54Z</time>
      </trkpt>
      <trkpt lat="45.95878" lon="4.90534">
        <ele>292</ele>
        <time>2017-12-07T10:22:55Z</time>
      </trkpt>
      <trkpt lat="45.95879" lon="4.9054">
        <ele>292</ele>
        <time>2017-12-07T10:22:56Z</time>
      </trkpt>
      <trkpt lat="45.95879" lon="4.90547">
        <ele>292</ele>
        <time>2017-12-07T10:22:57Z</time>
      </trkpt>
      <trkpt lat="45.95878" lon="4.90553">
        <ele>292</ele>
        <time>2017-12-07T10:22:58Z</time>
      </trkpt>
      <trkpt lat="45.95878" lon="4.90561">
        <ele>292</ele>
        <time>2017-12-07T10:22:59Z</time>
      </trkpt>
      <trkpt lat="45.95878" lon="4.90569">
        <ele>292</ele>
        <time>2017-12-07T10:23:00Z</time>
      </trkpt>
      <trkpt lat="45.95878" lon="4.90575">
        <ele>292</ele>
        <time>2017-12-07T10:23:01Z</time>
      </trkpt>
      <trkpt lat="45.95877" lon="4.90587">
        <ele>293</ele>
        <time>2017-12-07T10:23:03Z</time>
      </trkpt>
      <trkpt lat="45.95877" lon="4.90593">
        <ele>293</ele>
        <time>2017-12-07T10:23:04Z</time>
      </trkpt>
      <trkpt lat="45.95876" lon="4.90605">
        <ele>293</ele>
        <time>2017-12-07T10:23:06Z</time>
      </trkpt>
      <trkpt lat="45.95876" lon="4.90612">
        <ele>293</ele>
        <time>2017-12-07T10:23:07Z</time>
      </trkpt>
      <trkpt lat="45.95875" lon="4.9062">
        <ele>293</ele>
        <time>2017-12-07T10:23:08Z</time>
      </trkpt>
      <trkpt lat="45.95876" lon="4.90628">
        <ele>293</ele>
        <time>2017-12-07T10:23:09Z</time>
      </trkpt>
      <trkpt lat="45.95875" lon="4.90634">
        <ele>293</ele>
        <time>2017-12-07T10:23:10Z</time>
      </trkpt>
      <trkpt lat="45.95875" lon="4.90641">
        <ele>293</ele>
        <time>2017-12-07T10:23:11Z</time>
      </trkpt>
      <trkpt lat="45.95874" lon="4.90647">
        <ele>293</ele>
        <time>2017-12-07T10:23:12Z</time>
      </trkpt>
      <trkpt lat="45.95872" lon="4.90654">
        <ele>293</ele>
        <time>2017-12-07T10:23:13Z</time>
      </trkpt>
      <trkpt lat="45.95871" lon="4.90661">
        <ele>293</ele>
        <time>2017-12-07T10:23:14Z</time>
      </trkpt>
      <trkpt lat="45.9587" lon="4.90667">
        <ele>292</ele>
        <time>2017-12-07T10:23:15Z</time>
      </trkpt>
      <trkpt lat="45.9587" lon="4.90675">
        <ele>292</ele>
        <time>2017-12-07T10:23:16Z</time>
      </trkpt>
      <trkpt lat="45.9587" lon="4.90682">
        <ele>292</ele>
        <time>2017-12-07T10:23:17Z</time>
      </trkpt>
      <trkpt lat="45.9587" lon="4.90689">
        <ele>292</ele>
        <time>2017-12-07T10:23:18Z</time>
      </trkpt>
      <trkpt lat="45.9587" lon="4.90697">
        <ele>292</ele>
        <time>2017-12-07T10:23:19Z</time>
      </trkpt>
      <trkpt lat="45.95869" lon="4.90704">
        <ele>292</ele>
        <time>2017-12-07T10:23:20Z</time>
      </trkpt>
      <trkpt lat="45.95869" lon="4.90712">
        <ele>292</ele>
        <time>2017-12-07T10:23:21Z</time>
      </trkpt>
      <trkpt lat="45.95868" lon="4.9072">
        <ele>292</ele>
        <time>2017-12-07T10:23:22Z</time>
      </trkpt>
      <trkpt lat="45.95868" lon="4.90728">
        <ele>292</ele>
        <time>2017-12-07T10:23:23Z</time>
      </trkpt>
      <trkpt lat="45.95868" lon="4.9074">
        <ele>292</ele>
        <time>2017-12-07T10:23:25Z</time>
      </trkpt>
      <trkpt lat="45.95867" lon="4.90747">
        <ele>292</ele>
        <time>2017-12-07T10:23:26Z</time>
      </trkpt>
      <trkpt lat="45.95867" lon="4.90758">
        <ele>291</ele>
        <time>2017-12-07T10:23:28Z</time>
      </trkpt>
      <trkpt lat="45.95866" lon="4.90763">
        <ele>291</ele>
        <time>2017-12-07T10:23:29Z</time>
      </trkpt>
      <trkpt lat="45.95865" lon="4.90775">
        <ele>291</ele>
        <time>2017-12-07T10:23:31Z</time>
      </trkpt>
      <trkpt lat="45.95863" lon="4.9078">
        <ele>291</ele>
        <time>2017-12-07T10:23:32Z</time>
      </trkpt>
      <trkpt lat="45.95863" lon="4.90788">
        <ele>291</ele>
        <time>2017-12-07T10:23:33Z</time>
      </trkpt>
      <trkpt lat="45.95863" lon="4.90795">
        <ele>291</ele>
        <time>2017-12-07T10:23:34Z</time>
      </trkpt>
      <trkpt lat="45.95863" lon="4.90804">
        <ele>292</ele>
        <time>2017-12-07T10:23:35Z</time>
      </trkpt>
      <trkpt lat="45.95863" lon="4.90812">
        <ele>292</ele>
        <time>2017-12-07T10:23:36Z</time>
      </trkpt>
      <trkpt lat="45.95863" lon="4.9082">
        <ele>292</ele>
        <time>2017-12-07T10:23:37Z</time>
      </trkpt>
      <trkpt lat="45.95863" lon="4.90826">
        <ele>292</ele>
        <time>2017-12-07T10:23:38Z</time>
      </trkpt>
      <trkpt lat="45.95863" lon="4.90833">
        <ele>292</ele>
        <time>2017-12-07T10:23:39Z</time>
      </trkpt>
      <trkpt lat="45.95862" lon="4.9084">
        <ele>292</ele>
        <time>2017-12-07T10:23:40Z</time>
      </trkpt>
      <trkpt lat="45.9586" lon="4.90852">
        <ele>292</ele>
        <time>2017-12-07T10:23:42Z</time>
      </trkpt>
      <trkpt lat="45.9586" lon="4.90859">
        <ele>292</ele>
        <time>2017-12-07T10:23:43Z</time>
      </trkpt>
      <trkpt lat="45.95859" lon="4.90871">
        <ele>292</ele>
        <time>2017-12-07T10:23:45Z</time>
      </trkpt>
      <trkpt lat="45.95858" lon="4.90878">
        <ele>292</ele>
        <time>2017-12-07T10:23:46Z</time>
      </trkpt>
      <trkpt lat="45.95858" lon="4.90886">
        <ele>292</ele>
        <time>2017-12-07T10:23:47Z</time>
      </trkpt>
      <trkpt lat="45.95859" lon="4.90894">
        <ele>292</ele>
        <time>2017-12-07T10:23:48Z</time>
      </trkpt>
      <trkpt lat="45.95859" lon="4.90907">
        <ele>292</ele>
        <time>2017-12-07T10:23:50Z</time>
      </trkpt>
      <trkpt lat="45.9586" lon="4.90915">
        <ele>292</ele>
        <time>2017-12-07T10:23:51Z</time>
      </trkpt>
      <trkpt lat="45.95859" lon="4.90927">
        <ele>293</ele>
        <time>2017-12-07T10:23:53Z</time>
      </trkpt>
      <trkpt lat="45.95858" lon="4.90934">
        <ele>294</ele>
        <time>2017-12-07T10:23:54Z</time>
      </trkpt>
      <trkpt lat="45.95859" lon="4.90945">
        <ele>294</ele>
        <time>2017-12-07T10:23:56Z</time>
      </trkpt>
      <trkpt lat="45.95859" lon="4.90951">
        <ele>294</ele>
        <time>2017-12-07T10:23:57Z</time>
      </trkpt>
      <trkpt lat="45.95859" lon="4.90957">
        <ele>294</ele>
        <time>2017-12-07T10:23:58Z</time>
      </trkpt>
      <trkpt lat="45.95859" lon="4.90964">
        <ele>294</ele>
        <time>2017-12-07T10:23:59Z</time>
      </trkpt>
      <trkpt lat="45.95859" lon="4.90977">
        <ele>294</ele>
        <time>2017-12-07T10:24:01Z</time>
      </trkpt>
      <trkpt lat="45.95859" lon="4.90984">
        <ele>294</ele>
        <time>2017-12-07T10:24:02Z</time>
      </trkpt>
      <trkpt lat="45.9586" lon="4.90995">
        <ele>294</ele>
        <time>2017-12-07T10:24:04Z</time>
      </trkpt>
      <trkpt lat="45.95859" lon="4.91001">
        <ele>296</ele>
        <time>2017-12-07T10:24:05Z</time>
      </trkpt>
      <trkpt lat="45.95859" lon="4.91013">
        <ele>296</ele>
        <time>2017-12-07T10:24:07Z</time>
      </trkpt>
      <trkpt lat="45.95859" lon="4.91019">
        <ele>296</ele>
        <time>2017-12-07T10:24:08Z</time>
      </trkpt>
      <trkpt lat="45.95859" lon="4.91025">
        <ele>296</ele>
        <time>2017-12-07T10:24:09Z</time>
      </trkpt>
      <trkpt lat="45.95858" lon="4.91033">
        <ele>296</ele>
        <time>2017-12-07T10:24:10Z</time>
      </trkpt>
      <trkpt lat="45.95859" lon="4.91045">
        <ele>297</ele>
        <time>2017-12-07T10:24:12Z</time>
      </trkpt>
      <trkpt lat="45.95859" lon="4.91052">
        <ele>297</ele>
        <time>2017-12-07T10:24:13Z</time>
      </trkpt>
      <trkpt lat="45.95861" lon="4.91064">
        <ele>297</ele>
        <time>2017-12-07T10:24:15Z</time>
      </trkpt>
      <trkpt lat="45.9586" lon="4.91072">
        <ele>297</ele>
        <time>2017-12-07T10:24:16Z</time>
      </trkpt>
      <trkpt lat="45.95859" lon="4.91084">
        <ele>297</ele>
        <time>2017-12-07T10:24:18Z</time>
      </trkpt>
      <trkpt lat="45.95859" lon="4.91091">
        <ele>297</ele>
        <time>2017-12-07T10:24:19Z</time>
      </trkpt>
      <trkpt lat="45.95858" lon="4.91099">
        <ele>297</ele>
        <time>2017-12-07T10:24:20Z</time>
      </trkpt>
      <trkpt lat="45.95858" lon="4.91106">
        <ele>297</ele>
        <time>2017-12-07T10:24:21Z</time>
      </trkpt>
      <trkpt lat="45.95856" lon="4.91113">
        <ele>297</ele>
        <time>2017-12-07T10:24:22Z</time>
      </trkpt>
      <trkpt lat="45.95856" lon="4.91122">
        <ele>297</ele>
        <time>2017-12-07T10:24:23Z</time>
      </trkpt>
      <trkpt lat="45.95858" lon="4.91129">
        <ele>297</ele>
        <time>2017-12-07T10:24:24Z</time>
      </trkpt>
      <trkpt lat="45.95856" lon="4.91136">
        <ele>297</ele>
        <time>2017-12-07T10:24:25Z</time>
      </trkpt>
      <trkpt lat="45.95856" lon="4.91144">
        <ele>297</ele>
        <time>2017-12-07T10:24:26Z</time>
      </trkpt>
      <trkpt lat="45.95855" lon="4.91152">
        <ele>297</ele>
        <time>2017-12-07T10:24:27Z</time>
      </trkpt>
      <trkpt lat="45.95856" lon="4.91159">
        <ele>297</ele>
        <time>2017-12-07T10:24:28Z</time>
      </trkpt>
      <trkpt lat="45.95855" lon="4.91167">
        <ele>296</ele>
        <time>2017-12-07T10:24:29Z</time>
      </trkpt>
      <trkpt lat="45.95855" lon="4.91174">
        <ele>296</ele>
        <time>2017-12-07T10:24:30Z</time>
      </trkpt>
      <trkpt lat="45.95855" lon="4.91181">
        <ele>296</ele>
        <time>2017-12-07T10:24:31Z</time>
      </trkpt>
      <trkpt lat="45.95856" lon="4.91193">
        <ele>297</ele>
        <time>2017-12-07T10:24:33Z</time>
      </trkpt>
      <trkpt lat="45.95855" lon="4.91198">
        <ele>297</ele>
        <time>2017-12-07T10:24:34Z</time>
      </trkpt>
      <trkpt lat="45.95852" lon="4.91209">
        <ele>297</ele>
        <time>2017-12-07T10:24:36Z</time>
      </trkpt>
      <trkpt lat="45.95852" lon="4.91217">
        <ele>297</ele>
        <time>2017-12-07T10:24:37Z</time>
      </trkpt>
      <trkpt lat="45.95851" lon="4.91229">
        <ele>297</ele>
        <time>2017-12-07T10:24:39Z</time>
      </trkpt>
      <trkpt lat="45.9585" lon="4.91235">
        <ele>297</ele>
        <time>2017-12-07T10:24:40Z</time>
      </trkpt>
      <trkpt lat="45.9585" lon="4.91243">
        <ele>297</ele>
        <time>2017-12-07T10:24:41Z</time>
      </trkpt>
      <trkpt lat="45.9585" lon="4.91249">
        <ele>296</ele>
        <time>2017-12-07T10:24:42Z</time>
      </trkpt>
      <trkpt lat="45.9585" lon="4.91262">
        <ele>297</ele>
        <time>2017-12-07T10:24:44Z</time>
      </trkpt>
      <trkpt lat="45.95851" lon="4.91267">
        <ele>297</ele>
        <time>2017-12-07T10:24:45Z</time>
      </trkpt>
      <trkpt lat="45.95852" lon="4.91278">
        <ele>297</ele>
        <time>2017-12-07T10:24:47Z</time>
      </trkpt>
      <trkpt lat="45.95852" lon="4.91283">
        <ele>298</ele>
        <time>2017-12-07T10:24:48Z</time>
      </trkpt>
      <trkpt lat="45.95852" lon="4.9129">
        <ele>298</ele>
        <time>2017-12-07T10:24:49Z</time>
      </trkpt>
      <trkpt lat="45.95849" lon="4.91297">
        <ele>298</ele>
        <time>2017-12-07T10:24:50Z</time>
      </trkpt>
      <trkpt lat="45.95847" lon="4.91304">
        <ele>298</ele>
        <time>2017-12-07T10:24:51Z</time>
      </trkpt>
      <trkpt lat="45.95848" lon="4.9131">
        <ele>298</ele>
        <time>2017-12-07T10:24:52Z</time>
      </trkpt>
      <trkpt lat="45.95848" lon="4.91319">
        <ele>298</ele>
        <time>2017-12-07T10:24:53Z</time>
      </trkpt>
      <trkpt lat="45.95848" lon="4.91326">
        <ele>298</ele>
        <time>2017-12-07T10:24:54Z</time>
      </trkpt>
      <trkpt lat="45.95848" lon="4.91338">
        <ele>298</ele>
        <time>2017-12-07T10:24:56Z</time>
      </trkpt>
      <trkpt lat="45.95849" lon="4.91345">
        <ele>298</ele>
        <time>2017-12-07T10:24:57Z</time>
      </trkpt>
      <trkpt lat="45.95849" lon="4.91358">
        <ele>298</ele>
        <time>2017-12-07T10:24:59Z</time>
      </trkpt>
      <trkpt lat="45.95848" lon="4.91364">
        <ele>298</ele>
        <time>2017-12-07T10:25:00Z</time>
      </trkpt>
      <trkpt lat="45.95847" lon="4.91377">
        <ele>298</ele>
        <time>2017-12-07T10:25:02Z</time>
      </trkpt>
      <trkpt lat="45.95847" lon="4.91383">
        <ele>298</ele>
        <time>2017-12-07T10:25:03Z</time>
      </trkpt>
      <trkpt lat="45.95846" lon="4.91395">
        <ele>298</ele>
        <time>2017-12-07T10:25:05Z</time>
      </trkpt>
      <trkpt lat="45.95846" lon="4.914">
        <ele>298</ele>
        <time>2017-12-07T10:25:06Z</time>
      </trkpt>
      <trkpt lat="45.95846" lon="4.91413">
        <ele>297</ele>
        <time>2017-12-07T10:25:08Z</time>
      </trkpt>
      <trkpt lat="45.95846" lon="4.91419">
        <ele>297</ele>
        <time>2017-12-07T10:25:09Z</time>
      </trkpt>
      <trkpt lat="45.95846" lon="4.91425">
        <ele>297</ele>
        <time>2017-12-07T10:25:10Z</time>
      </trkpt>
      <trkpt lat="45.95845" lon="4.91433">
        <ele>298</ele>
        <time>2017-12-07T10:25:11Z</time>
      </trkpt>
      <trkpt lat="45.95844" lon="4.91439">
        <ele>298</ele>
        <time>2017-12-07T10:25:12Z</time>
      </trkpt>
      <trkpt lat="45.95844" lon="4.91446">
        <ele>298</ele>
        <time>2017-12-07T10:25:13Z</time>
      </trkpt>
      <trkpt lat="45.95843" lon="4.91452">
        <ele>298</ele>
        <time>2017-12-07T10:25:14Z</time>
      </trkpt>
      <trkpt lat="45.95842" lon="4.9146">
        <ele>299</ele>
        <time>2017-12-07T10:25:15Z</time>
      </trkpt>
      <trkpt lat="45.95842" lon="4.91467">
        <ele>299</ele>
        <time>2017-12-07T10:25:16Z</time>
      </trkpt>
      <trkpt lat="45.95843" lon="4.91475">
        <ele>299</ele>
        <time>2017-12-07T10:25:17Z</time>
      </trkpt>
      <trkpt lat="45.95842" lon="4.91482">
        <ele>299</ele>
        <time>2017-12-07T10:25:18Z</time>
      </trkpt>
      <trkpt lat="45.95841" lon="4.91489">
        <ele>298</ele>
        <time>2017-12-07T10:25:19Z</time>
      </trkpt>
      <trkpt lat="45.9584" lon="4.91495">
        <ele>298</ele>
        <time>2017-12-07T10:25:20Z</time>
      </trkpt>
      <trkpt lat="45.9584" lon="4.91502">
        <ele>299</ele>
        <time>2017-12-07T10:25:21Z</time>
      </trkpt>
      <trkpt lat="45.95841" lon="4.91509">
        <ele>299</ele>
        <time>2017-12-07T10:25:22Z</time>
      </trkpt>
      <trkpt lat="45.9584" lon="4.91515">
        <ele>299</ele>
        <time>2017-12-07T10:25:23Z</time>
      </trkpt>
      <trkpt lat="45.9584" lon="4.91528">
        <ele>300</ele>
        <time>2017-12-07T10:25:25Z</time>
      </trkpt>
      <trkpt lat="45.95841" lon="4.91534">
        <ele>300</ele>
        <time>2017-12-07T10:25:26Z</time>
      </trkpt>
      <trkpt lat="45.95841" lon="4.91545">
        <ele>300</ele>
        <time>2017-12-07T10:25:28Z</time>
      </trkpt>
      <trkpt lat="45.95841" lon="4.9155">
        <ele>300</ele>
        <time>2017-12-07T10:25:29Z</time>
      </trkpt>
      <trkpt lat="45.95841" lon="4.91561">
        <ele>300</ele>
        <time>2017-12-07T10:25:31Z</time>
      </trkpt>
      <trkpt lat="45.95841" lon="4.91567">
        <ele>300</ele>
        <time>2017-12-07T10:25:32Z</time>
      </trkpt>
      <trkpt lat="45.95841" lon="4.91578">
        <ele>300</ele>
        <time>2017-12-07T10:25:34Z</time>
      </trkpt>
      <trkpt lat="45.95841" lon="4.91584">
        <ele>300</ele>
        <time>2017-12-07T10:25:35Z</time>
      </trkpt>
      <trkpt lat="45.95841" lon="4.91594">
        <ele>300</ele>
        <time>2017-12-07T10:25:37Z</time>
      </trkpt>
      <trkpt lat="45.95842" lon="4.916">
        <ele>301</ele>
        <time>2017-12-07T10:25:38Z</time>
      </trkpt>
      <trkpt lat="45.95841" lon="4.91612">
        <ele>301</ele>
        <time>2017-12-07T10:25:40Z</time>
      </trkpt>
      <trkpt lat="45.95841" lon="4.91618">
        <ele>301</ele>
        <time>2017-12-07T10:25:41Z</time>
      </trkpt>
      <trkpt lat="45.95841" lon="4.91624">
        <ele>301</ele>
        <time>2017-12-07T10:25:42Z</time>
      </trkpt>
      <trkpt lat="45.95839" lon="4.91631">
        <ele>301</ele>
        <time>2017-12-07T10:25:43Z</time>
      </trkpt>
      <trkpt lat="45.95839" lon="4.91638">
        <ele>301</ele>
        <time>2017-12-07T10:25:44Z</time>
      </trkpt>
      <trkpt lat="45.95839" lon="4.91644">
        <ele>301</ele>
        <time>2017-12-07T10:25:45Z</time>
      </trkpt>
      <trkpt lat="45.95839" lon="4.9165">
        <ele>301</ele>
        <time>2017-12-07T10:25:46Z</time>
      </trkpt>
      <trkpt lat="45.95838" lon="4.91658">
        <ele>301</ele>
        <time>2017-12-07T10:25:47Z</time>
      </trkpt>
      <trkpt lat="45.95837" lon="4.91664">
        <ele>301</ele>
        <time>2017-12-07T10:25:48Z</time>
      </trkpt>
      <trkpt lat="45.95835" lon="4.91672">
        <ele>301</ele>
        <time>2017-12-07T10:25:49Z</time>
      </trkpt>
      <trkpt lat="45.95835" lon="4.91679">
        <ele>302</ele>
        <time>2017-12-07T10:25:50Z</time>
      </trkpt>
      <trkpt lat="45.95837" lon="4.91685">
        <ele>302</ele>
        <time>2017-12-07T10:25:51Z</time>
      </trkpt>
      <trkpt lat="45.95837" lon="4.91692">
        <ele>302</ele>
        <time>2017-12-07T10:25:52Z</time>
      </trkpt>
      <trkpt lat="45.95837" lon="4.91698">
        <ele>302</ele>
        <time>2017-12-07T10:25:53Z</time>
      </trkpt>
      <trkpt lat="45.95837" lon="4.91711">
        <ele>302</ele>
        <time>2017-12-07T10:25:55Z</time>
      </trkpt>
      <trkpt lat="45.95834" lon="4.91716">
        <ele>302</ele>
        <time>2017-12-07T10:25:56Z</time>
      </trkpt>
      <trkpt lat="45.95831" lon="4.91721">
        <ele>301</ele>
        <time>2017-12-07T10:25:57Z</time>
      </trkpt>
      <trkpt lat="45.95828" lon="4.91728">
        <ele>301</ele>
        <time>2017-12-07T10:25:58Z</time>
      </trkpt>
      <trkpt lat="45.95826" lon="4.91734">
        <ele>301</ele>
        <time>2017-12-07T10:25:59Z</time>
      </trkpt>
      <trkpt lat="45.95822" lon="4.91738">
        <ele>301</ele>
        <time>2017-12-07T10:26:00Z</time>
      </trkpt>
      <trkpt lat="45.95818" lon="4.91745">
        <ele>301</ele>
        <time>2017-12-07T10:26:01Z</time>
      </trkpt>
      <trkpt lat="45.95816" lon="4.91752">
        <ele>302</ele>
        <time>2017-12-07T10:26:02Z</time>
      </trkpt>
      <trkpt lat="45.9581" lon="4.91758">
        <ele>301</ele>
        <time>2017-12-07T10:26:04Z</time>
      </trkpt>
      <trkpt lat="45.95809" lon="4.91764">
        <ele>301</ele>
        <time>2017-12-07T10:26:05Z</time>
      </trkpt>
      <trkpt lat="45.95804" lon="4.91771">
        <ele>301</ele>
        <time>2017-12-07T10:26:06Z</time>
      </trkpt>
      <trkpt lat="45.958" lon="4.91777">
        <ele>301</ele>
        <time>2017-12-07T10:26:07Z</time>
      </trkpt>
      <trkpt lat="45.95798" lon="4.91782">
        <ele>300</ele>
        <time>2017-12-07T10:26:08Z</time>
      </trkpt>
      <trkpt lat="45.95795" lon="4.91789">
        <ele>300</ele>
        <time>2017-12-07T10:26:09Z</time>
      </trkpt>
      <trkpt lat="45.9579" lon="4.91799">
        <ele>300</ele>
        <time>2017-12-07T10:26:11Z</time>
      </trkpt>
      <trkpt lat="45.95786" lon="4.91805">
        <ele>300</ele>
        <time>2017-12-07T10:26:12Z</time>
      </trkpt>
      <trkpt lat="45.95781" lon="4.9181">
        <ele>300</ele>
        <time>2017-12-07T10:26:13Z</time>
      </trkpt>
      <trkpt lat="45.95778" lon="4.91816">
        <ele>300</ele>
        <time>2017-12-07T10:26:14Z</time>
      </trkpt>
      <trkpt lat="45.95774" lon="4.91824">
        <ele>300</ele>
        <time>2017-12-07T10:26:15Z</time>
      </trkpt>
      <trkpt lat="45.95771" lon="4.91833">
        <ele>299</ele>
        <time>2017-12-07T10:26:16Z</time>
      </trkpt>
      <trkpt lat="45.95768" lon="4.9184">
        <ele>300</ele>
        <time>2017-12-07T10:26:17Z</time>
      </trkpt>
      <trkpt lat="45.95763" lon="4.91844">
        <ele>299</ele>
        <time>2017-12-07T10:26:18Z</time>
      </trkpt>
      <trkpt lat="45.95758" lon="4.91853">
        <ele>300</ele>
        <time>2017-12-07T10:26:20Z</time>
      </trkpt>
      <trkpt lat="45.95756" lon="4.91858">
        <ele>300</ele>
        <time>2017-12-07T10:26:21Z</time>
      </trkpt>
      <trkpt lat="45.95753" lon="4.91865">
        <ele>300</ele>
        <time>2017-12-07T10:26:22Z</time>
      </trkpt>
      <trkpt lat="45.95751" lon="4.91869">
        <ele>300</ele>
        <time>2017-12-07T10:26:23Z</time>
      </trkpt>
      <trkpt lat="45.95748" lon="4.91874">
        <ele>298</ele>
        <time>2017-12-07T10:26:24Z</time>
      </trkpt>
      <trkpt lat="45.95741" lon="4.91883">
        <ele>298</ele>
        <time>2017-12-07T10:26:25Z</time>
      </trkpt>
      <trkpt lat="45.95738" lon="4.91891">
        <ele>298</ele>
        <time>2017-12-07T10:26:26Z</time>
      </trkpt>
      <trkpt lat="45.95734" lon="4.91898">
        <ele>298</ele>
        <time>2017-12-07T10:26:27Z</time>
      </trkpt>
      <trkpt lat="45.95733" lon="4.91904">
        <ele>299</ele>
        <time>2017-12-07T10:26:28Z</time>
      </trkpt>
      <trkpt lat="45.95729" lon="4.91911">
        <ele>298</ele>
        <time>2017-12-07T10:26:29Z</time>
      </trkpt>
      <trkpt lat="45.95727" lon="4.91917">
        <ele>298</ele>
        <time>2017-12-07T10:26:30Z</time>
      </trkpt>
      <trkpt lat="45.95722" lon="4.91919">
        <ele>300</ele>
        <time>2017-12-07T10:26:31Z</time>
      </trkpt>
      <trkpt lat="45.95719" lon="4.91925">
        <ele>300</ele>
        <time>2017-12-07T10:26:32Z</time>
      </trkpt>
      <trkpt lat="45.95716" lon="4.91931">
        <ele>299</ele>
        <time>2017-12-07T10:26:33Z</time>
      </trkpt>
      <trkpt lat="45.95714" lon="4.91938">
        <ele>299</ele>
        <time>2017-12-07T10:26:34Z</time>
      </trkpt>
      <trkpt lat="45.95711" lon="4.91943">
        <ele>299</ele>
        <time>2017-12-07T10:26:35Z</time>
      </trkpt>
      <trkpt lat="45.9571" lon="4.91948">
        <ele>299</ele>
        <time>2017-12-07T10:26:36Z</time>
      </trkpt>
      <trkpt lat="45.95707" lon="4.91954">
        <ele>299</ele>
        <time>2017-12-07T10:26:37Z</time>
      </trkpt>
      <trkpt lat="45.95705" lon="4.91963">
        <ele>299</ele>
        <time>2017-12-07T10:26:39Z</time>
      </trkpt>
      <trkpt lat="45.95699" lon="4.91966">
        <ele>299</ele>
        <time>2017-12-07T10:26:40Z</time>
      </trkpt>
      <trkpt lat="45.95693" lon="4.91976">
        <ele>299</ele>
        <time>2017-12-07T10:26:42Z</time>
      </trkpt>
      <trkpt lat="45.9569" lon="4.9198">
        <ele>299</ele>
        <time>2017-12-07T10:26:43Z</time>
      </trkpt>
      <trkpt lat="45.95683" lon="4.91987">
        <ele>299</ele>
        <time>2017-12-07T10:26:45Z</time>
      </trkpt>
      <trkpt lat="45.95682" lon="4.91994">
        <ele>299</ele>
        <time>2017-12-07T10:26:46Z</time>
      </trkpt>
      <trkpt lat="45.95677" lon="4.92001">
        <ele>299</ele>
        <time>2017-12-07T10:26:47Z</time>
      </trkpt>
      <trkpt lat="45.95673" lon="4.92008">
        <ele>299</ele>
        <time>2017-12-07T10:26:48Z</time>
      </trkpt>
      <trkpt lat="45.95668" lon="4.92019">
        <ele>300</ele>
        <time>2017-12-07T10:26:49Z</time>
      </trkpt>
      <trkpt lat="45.95666" lon="4.92027">
        <ele>297</ele>
        <time>2017-12-07T10:26:50Z</time>
      </trkpt>
      <trkpt lat="45.95665" lon="4.92034">
        <ele>297</ele>
        <time>2017-12-07T10:26:51Z</time>
      </trkpt>
      <trkpt lat="45.95664" lon="4.92044">
        <ele>297</ele>
        <time>2017-12-07T10:26:52Z</time>
      </trkpt>
      <trkpt lat="45.95665" lon="4.92052">
        <ele>297</ele>
        <time>2017-12-07T10:26:53Z</time>
      </trkpt>
      <trkpt lat="45.95663" lon="4.9206">
        <ele>297</ele>
        <time>2017-12-07T10:26:54Z</time>
      </trkpt>
      <trkpt lat="45.95663" lon="4.92067">
        <ele>297</ele>
        <time>2017-12-07T10:26:55Z</time>
      </trkpt>
      <trkpt lat="45.95663" lon="4.92075">
        <ele>298</ele>
        <time>2017-12-07T10:26:56Z</time>
      </trkpt>
      <trkpt lat="45.95662" lon="4.92083">
        <ele>298</ele>
        <time>2017-12-07T10:26:57Z</time>
      </trkpt>
      <trkpt lat="45.95662" lon="4.92095">
        <ele>297</ele>
        <time>2017-12-07T10:26:59Z</time>
      </trkpt>
      <trkpt lat="45.95661" lon="4.92107">
        <ele>297</ele>
        <time>2017-12-07T10:27:00Z</time>
      </trkpt>
      <trkpt lat="45.95661" lon="4.92115">
        <ele>296</ele>
        <time>2017-12-07T10:27:01Z</time>
      </trkpt>
      <trkpt lat="45.9566" lon="4.92122">
        <ele>296</ele>
        <time>2017-12-07T10:27:02Z</time>
      </trkpt>
      <trkpt lat="45.95659" lon="4.9213">
        <ele>296</ele>
        <time>2017-12-07T10:27:03Z</time>
      </trkpt>
      <trkpt lat="45.95659" lon="4.92138">
        <ele>296</ele>
        <time>2017-12-07T10:27:04Z</time>
      </trkpt>
      <trkpt lat="45.95658" lon="4.92146">
        <ele>296</ele>
        <time>2017-12-07T10:27:05Z</time>
      </trkpt>
      <trkpt lat="45.95658" lon="4.92154">
        <ele>296</ele>
        <time>2017-12-07T10:27:06Z</time>
      </trkpt>
      <trkpt lat="45.95656" lon="4.92159">
        <ele>296</ele>
        <time>2017-12-07T10:27:07Z</time>
      </trkpt>
      <trkpt lat="45.95657" lon="4.9217">
        <ele>296</ele>
        <time>2017-12-07T10:27:08Z</time>
      </trkpt>
      <trkpt lat="45.95655" lon="4.92178">
        <ele>295</ele>
        <time>2017-12-07T10:27:09Z</time>
      </trkpt>
      <trkpt lat="45.95657" lon="4.92189">
        <ele>295</ele>
        <time>2017-12-07T10:27:10Z</time>
      </trkpt>
      <trkpt lat="45.95656" lon="4.922">
        <ele>295</ele>
        <time>2017-12-07T10:27:11Z</time>
      </trkpt>
      <trkpt lat="45.95655" lon="4.9221">
        <ele>294</ele>
        <time>2017-12-07T10:27:12Z</time>
      </trkpt>
      <trkpt lat="45.95654" lon="4.92219">
        <ele>294</ele>
        <time>2017-12-07T10:27:13Z</time>
      </trkpt>
      <trkpt lat="45.95654" lon="4.92227">
        <ele>294</ele>
        <time>2017-12-07T10:27:14Z</time>
      </trkpt>
      <trkpt lat="45.95654" lon="4.92234">
        <ele>294</ele>
        <time>2017-12-07T10:27:15Z</time>
      </trkpt>
      <trkpt lat="45.95653" lon="4.92242">
        <ele>294</ele>
        <time>2017-12-07T10:27:16Z</time>
      </trkpt>
      <trkpt lat="45.95653" lon="4.9225">
        <ele>294</ele>
        <time>2017-12-07T10:27:17Z</time>
      </trkpt>
      <trkpt lat="45.95654" lon="4.92259">
        <ele>294</ele>
        <time>2017-12-07T10:27:18Z</time>
      </trkpt>
      <trkpt lat="45.95654" lon="4.92267">
        <ele>294</ele>
        <time>2017-12-07T10:27:19Z</time>
      </trkpt>
      <trkpt lat="45.95653" lon="4.92275">
        <ele>293</ele>
        <time>2017-12-07T10:27:20Z</time>
      </trkpt>
      <trkpt lat="45.95653" lon="4.92283">
        <ele>293</ele>
        <time>2017-12-07T10:27:21Z</time>
      </trkpt>
      <trkpt lat="45.95652" lon="4.92291">
        <ele>293</ele>
        <time>2017-12-07T10:27:22Z</time>
      </trkpt>
      <trkpt lat="45.95652" lon="4.923">
        <ele>293</ele>
        <time>2017-12-07T10:27:23Z</time>
      </trkpt>
      <trkpt lat="45.95652" lon="4.92309">
        <ele>293</ele>
        <time>2017-12-07T10:27:24Z</time>
      </trkpt>
      <trkpt lat="45.95651" lon="4.92318">
        <ele>293</ele>
        <time>2017-12-07T10:27:25Z</time>
      </trkpt>
      <trkpt lat="45.95651" lon="4.92326">
        <ele>293</ele>
        <time>2017-12-07T10:27:26Z</time>
      </trkpt>
      <trkpt lat="45.95648" lon="4.92335">
        <ele>293</ele>
        <time>2017-12-07T10:27:27Z</time>
      </trkpt>
      <trkpt lat="45.95648" lon="4.92343">
        <ele>293</ele>
        <time>2017-12-07T10:27:28Z</time>
      </trkpt>
      <trkpt lat="45.95647" lon="4.9235">
        <ele>293</ele>
        <time>2017-12-07T10:27:29Z</time>
      </trkpt>
      <trkpt lat="45.95646" lon="4.92359">
        <ele>293</ele>
        <time>2017-12-07T10:27:30Z</time>
      </trkpt>
      <trkpt lat="45.95645" lon="4.92366">
        <ele>293</ele>
        <time>2017-12-07T10:27:31Z</time>
      </trkpt>
      <trkpt lat="45.95645" lon="4.92373">
        <ele>293</ele>
        <time>2017-12-07T10:27:32Z</time>
      </trkpt>
      <trkpt lat="45.95644" lon="4.92381">
        <ele>293</ele>
        <time>2017-12-07T10:27:33Z</time>
      </trkpt>
      <trkpt lat="45.95642" lon="4.92388">
        <ele>293</ele>
        <time>2017-12-07T10:27:34Z</time>
      </trkpt>
      <trkpt lat="45.95642" lon="4.92396">
        <ele>293</ele>
        <time>2017-12-07T10:27:35Z</time>
      </trkpt>
      <trkpt lat="45.95641" lon="4.92405">
        <ele>293</ele>
        <time>2017-12-07T10:27:36Z</time>
      </trkpt>
      <trkpt lat="45.95639" lon="4.92413">
        <ele>293</ele>
        <time>2017-12-07T10:27:37Z</time>
      </trkpt>
      <trkpt lat="45.95638" lon="4.92422">
        <ele>293</ele>
        <time>2017-12-07T10:27:38Z</time>
      </trkpt>
      <trkpt lat="45.95636" lon="4.9243">
        <ele>293</ele>
        <time>2017-12-07T10:27:39Z</time>
      </trkpt>
      <trkpt lat="45.95637" lon="4.92439">
        <ele>293</ele>
        <time>2017-12-07T10:27:40Z</time>
      </trkpt>
      <trkpt lat="45.95636" lon="4.92447">
        <ele>293</ele>
        <time>2017-12-07T10:27:41Z</time>
      </trkpt>
      <trkpt lat="45.95635" lon="4.92455">
        <ele>293</ele>
        <time>2017-12-07T10:27:42Z</time>
      </trkpt>
      <trkpt lat="45.95634" lon="4.92462">
        <ele>293</ele>
        <time>2017-12-07T10:27:43Z</time>
      </trkpt>
      <trkpt lat="45.95633" lon="4.9247">
        <ele>293</ele>
        <time>2017-12-07T10:27:44Z</time>
      </trkpt>
      <trkpt lat="45.95633" lon="4.92477">
        <ele>293</ele>
        <time>2017-12-07T10:27:45Z</time>
      </trkpt>
      <trkpt lat="45.95631" lon="4.92484">
        <ele>293</ele>
        <time>2017-12-07T10:27:46Z</time>
      </trkpt>
      <trkpt lat="45.9563" lon="4.92491">
        <ele>293</ele>
        <time>2017-12-07T10:27:47Z</time>
      </trkpt>
      <trkpt lat="45.95627" lon="4.92498">
        <ele>293</ele>
        <time>2017-12-07T10:27:48Z</time>
      </trkpt>
      <trkpt lat="45.95627" lon="4.92505">
        <ele>294</ele>
        <time>2017-12-07T10:27:49Z</time>
      </trkpt>
      <trkpt lat="45.95626" lon="4.92512">
        <ele>294</ele>
        <time>2017-12-07T10:27:50Z</time>
      </trkpt>
      <trkpt lat="45.95625" lon="4.92519">
        <ele>294</ele>
        <time>2017-12-07T10:27:51Z</time>
      </trkpt>
      <trkpt lat="45.95624" lon="4.92527">
        <ele>294</ele>
        <time>2017-12-07T10:27:52Z</time>
      </trkpt>
      <trkpt lat="45.95624" lon="4.92536">
        <ele>294</ele>
        <time>2017-12-07T10:27:53Z</time>
      </trkpt>
      <trkpt lat="45.95623" lon="4.92544">
        <ele>294</ele>
        <time>2017-12-07T10:27:54Z</time>
      </trkpt>
      <trkpt lat="45.95623" lon="4.92552">
        <ele>294</ele>
        <time>2017-12-07T10:27:55Z</time>
      </trkpt>
      <trkpt lat="45.95621" lon="4.92558">
        <ele>294</ele>
        <time>2017-12-07T10:27:56Z</time>
      </trkpt>
      <trkpt lat="45.95618" lon="4.92565">
        <ele>294</ele>
        <time>2017-12-07T10:27:57Z</time>
      </trkpt>
      <trkpt lat="45.95617" lon="4.92573">
        <ele>294</ele>
        <time>2017-12-07T10:27:58Z</time>
      </trkpt>
      <trkpt lat="45.95615" lon="4.9258">
        <ele>294</ele>
        <time>2017-12-07T10:27:59Z</time>
      </trkpt>
      <trkpt lat="45.95613" lon="4.92587">
        <ele>294</ele>
        <time>2017-12-07T10:28:00Z</time>
      </trkpt>
      <trkpt lat="45.95612" lon="4.92594">
        <ele>294</ele>
        <time>2017-12-07T10:28:01Z</time>
      </trkpt>
      <trkpt lat="45.95612" lon="4.92601">
        <ele>294</ele>
        <time>2017-12-07T10:28:02Z</time>
      </trkpt>
      <trkpt lat="45.95611" lon="4.92608">
        <ele>294</ele>
        <time>2017-12-07T10:28:03Z</time>
      </trkpt>
      <trkpt lat="45.9561" lon="4.92615">
        <ele>294</ele>
        <time>2017-12-07T10:28:04Z</time>
      </trkpt>
      <trkpt lat="45.95609" lon="4.92628">
        <ele>294</ele>
        <time>2017-12-07T10:28:06Z</time>
      </trkpt>
      <trkpt lat="45.95608" lon="4.92635">
        <ele>294</ele>
        <time>2017-12-07T10:28:07Z</time>
      </trkpt>
      <trkpt lat="45.95605" lon="4.92642">
        <ele>294</ele>
        <time>2017-12-07T10:28:08Z</time>
      </trkpt>
      <trkpt lat="45.95604" lon="4.92651">
        <ele>294</ele>
        <time>2017-12-07T10:28:09Z</time>
      </trkpt>
      <trkpt lat="45.95602" lon="4.92658">
        <ele>294</ele>
        <time>2017-12-07T10:28:10Z</time>
      </trkpt>
      <trkpt lat="45.95602" lon="4.92666">
        <ele>294</ele>
        <time>2017-12-07T10:28:11Z</time>
      </trkpt>
      <trkpt lat="45.956" lon="4.92674">
        <ele>294</ele>
        <time>2017-12-07T10:28:12Z</time>
      </trkpt>
      <trkpt lat="45.95598" lon="4.92681">
        <ele>294</ele>
        <time>2017-12-07T10:28:13Z</time>
      </trkpt>
      <trkpt lat="45.95596" lon="4.92687">
        <ele>294</ele>
        <time>2017-12-07T10:28:14Z</time>
      </trkpt>
      <trkpt lat="45.95594" lon="4.92694">
        <ele>295</ele>
        <time>2017-12-07T10:28:15Z</time>
      </trkpt>
      <trkpt lat="45.95592" lon="4.92704">
        <ele>295</ele>
        <time>2017-12-07T10:28:17Z</time>
      </trkpt>
      <trkpt lat="45.95591" lon="4.9271">
        <ele>295</ele>
        <time>2017-12-07T10:28:18Z</time>
      </trkpt>
      <trkpt lat="45.9559" lon="4.92717">
        <ele>295</ele>
        <time>2017-12-07T10:28:19Z</time>
      </trkpt>
      <trkpt lat="45.95588" lon="4.92724">
        <ele>295</ele>
        <time>2017-12-07T10:28:20Z</time>
      </trkpt>
      <trkpt lat="45.95587" lon="4.92731">
        <ele>295</ele>
        <time>2017-12-07T10:28:21Z</time>
      </trkpt>
      <trkpt lat="45.95586" lon="4.92738">
        <ele>295</ele>
        <time>2017-12-07T10:28:22Z</time>
      </trkpt>
      <trkpt lat="45.95585" lon="4.92745">
        <ele>295</ele>
        <time>2017-12-07T10:28:23Z</time>
      </trkpt>
      <trkpt lat="45.95584" lon="4.92751">
        <ele>295</ele>
        <time>2017-12-07T10:28:24Z</time>
      </trkpt>
      <trkpt lat="45.95583" lon="4.92758">
        <ele>295</ele>
        <time>2017-12-07T10:28:25Z</time>
      </trkpt>
      <trkpt lat="45.95582" lon="4.92766">
        <ele>295</ele>
        <time>2017-12-07T10:28:26Z</time>
      </trkpt>
      <trkpt lat="45.95582" lon="4.92773">
        <ele>294</ele>
        <time>2017-12-07T10:28:27Z</time>
      </trkpt>
      <trkpt lat="45.95581" lon="4.9278">
        <ele>294</ele>
        <time>2017-12-07T10:28:28Z</time>
      </trkpt>
      <trkpt lat="45.95579" lon="4.92786">
        <ele>294</ele>
        <time>2017-12-07T10:28:29Z</time>
      </trkpt>
      <trkpt lat="45.95578" lon="4.92793">
        <ele>294</ele>
        <time>2017-12-07T10:28:30Z</time>
      </trkpt>
      <trkpt lat="45.95577" lon="4.928">
        <ele>294</ele>
        <time>2017-12-07T10:28:31Z</time>
      </trkpt>
      <trkpt lat="45.95575" lon="4.92807">
        <ele>294</ele>
        <time>2017-12-07T10:28:32Z</time>
      </trkpt>
      <trkpt lat="45.95574" lon="4.92816">
        <ele>294</ele>
        <time>2017-12-07T10:28:33Z</time>
      </trkpt>
      <trkpt lat="45.95573" lon="4.92825">
        <ele>295</ele>
        <time>2017-12-07T10:28:34Z</time>
      </trkpt>
      <trkpt lat="45.95572" lon="4.92833">
        <ele>295</ele>
        <time>2017-12-07T10:28:35Z</time>
      </trkpt>
      <trkpt lat="45.9557" lon="4.92841">
        <ele>294</ele>
        <time>2017-12-07T10:28:36Z</time>
      </trkpt>
      <trkpt lat="45.9557" lon="4.92848">
        <ele>294</ele>
        <time>2017-12-07T10:28:37Z</time>
      </trkpt>
      <trkpt lat="45.95568" lon="4.92855">
        <ele>294</ele>
        <time>2017-12-07T10:28:38Z</time>
      </trkpt>
      <trkpt lat="45.95567" lon="4.92863">
        <ele>294</ele>
        <time>2017-12-07T10:28:39Z</time>
      </trkpt>
      <trkpt lat="45.95565" lon="4.9287">
        <ele>294</ele>
        <time>2017-12-07T10:28:40Z</time>
      </trkpt>
      <trkpt lat="45.95563" lon="4.92877">
        <ele>294</ele>
        <time>2017-12-07T10:28:41Z</time>
      </trkpt>
      <trkpt lat="45.95563" lon="4.92884">
        <ele>293</ele>
        <time>2017-12-07T10:28:42Z</time>
      </trkpt>
      <trkpt lat="45.95561" lon="4.92891">
        <ele>293</ele>
        <time>2017-12-07T10:28:43Z</time>
      </trkpt>
      <trkpt lat="45.9556" lon="4.92898">
        <ele>293</ele>
        <time>2017-12-07T10:28:44Z</time>
      </trkpt>
      <trkpt lat="45.95558" lon="4.92909">
        <ele>293</ele>
        <time>2017-12-07T10:28:46Z</time>
      </trkpt>
      <trkpt lat="45.95558" lon="4.92917">
        <ele>293</ele>
        <time>2017-12-07T10:28:47Z</time>
      </trkpt>
      <trkpt lat="45.95557" lon="4.92924">
        <ele>292</ele>
        <time>2017-12-07T10:28:48Z</time>
      </trkpt>
      <trkpt lat="45.95556" lon="4.92931">
        <ele>292</ele>
        <time>2017-12-07T10:28:49Z</time>
      </trkpt>
      <trkpt lat="45.95554" lon="4.92939">
        <ele>292</ele>
        <time>2017-12-07T10:28:50Z</time>
      </trkpt>
      <trkpt lat="45.95553" lon="4.92945">
        <ele>292</ele>
        <time>2017-12-07T10:28:51Z</time>
      </trkpt>
      <trkpt lat="45.95552" lon="4.92954">
        <ele>292</ele>
        <time>2017-12-07T10:28:52Z</time>
      </trkpt>
      <trkpt lat="45.9555" lon="4.92962">
        <ele>292</ele>
        <time>2017-12-07T10:28:53Z</time>
      </trkpt>
      <trkpt lat="45.95549" lon="4.92969">
        <ele>292</ele>
        <time>2017-12-07T10:28:54Z</time>
      </trkpt>
      <trkpt lat="45.95547" lon="4.92976">
        <ele>292</ele>
        <time>2017-12-07T10:28:55Z</time>
      </trkpt>
      <trkpt lat="45.95547" lon="4.92984">
        <ele>292</ele>
        <time>2017-12-07T10:28:56Z</time>
      </trkpt>
      <trkpt lat="45.95546" lon="4.92991">
        <ele>292</ele>
        <time>2017-12-07T10:28:57Z</time>
      </trkpt>
      <trkpt lat="45.95546" lon="4.93">
        <ele>292</ele>
        <time>2017-12-07T10:28:58Z</time>
      </trkpt>
      <trkpt lat="45.95546" lon="4.93007">
        <ele>291</ele>
        <time>2017-12-07T10:28:59Z</time>
      </trkpt>
      <trkpt lat="45.95545" lon="4.93014">
        <ele>291</ele>
        <time>2017-12-07T10:29:00Z</time>
      </trkpt>
      <trkpt lat="45.95545" lon="4.93021">
        <ele>291</ele>
        <time>2017-12-07T10:29:01Z</time>
      </trkpt>
      <trkpt lat="45.95544" lon="4.93028">
        <ele>291</ele>
        <time>2017-12-07T10:29:02Z</time>
      </trkpt>
      <trkpt lat="45.95543" lon="4.93035">
        <ele>291</ele>
        <time>2017-12-07T10:29:03Z</time>
      </trkpt>
      <trkpt lat="45.95542" lon="4.93043">
        <ele>290</ele>
        <time>2017-12-07T10:29:04Z</time>
      </trkpt>
      <trkpt lat="45.95541" lon="4.93051">
        <ele>290</ele>
        <time>2017-12-07T10:29:05Z</time>
      </trkpt>
      <trkpt lat="45.95541" lon="4.93057">
        <ele>290</ele>
        <time>2017-12-07T10:29:06Z</time>
      </trkpt>
      <trkpt lat="45.9554" lon="4.93064">
        <ele>290</ele>
        <time>2017-12-07T10:29:07Z</time>
      </trkpt>
      <trkpt lat="45.95539" lon="4.93072">
        <ele>290</ele>
        <time>2017-12-07T10:29:08Z</time>
      </trkpt>
      <trkpt lat="45.95536" lon="4.9308">
        <ele>290</ele>
        <time>2017-12-07T10:29:09Z</time>
      </trkpt>
      <trkpt lat="45.95533" lon="4.93088">
        <ele>290</ele>
        <time>2017-12-07T10:29:10Z</time>
      </trkpt>
      <trkpt lat="45.95529" lon="4.93094">
        <ele>290</ele>
        <time>2017-12-07T10:29:11Z</time>
      </trkpt>
      <trkpt lat="45.95525" lon="4.931">
        <ele>290</ele>
        <time>2017-12-07T10:29:12Z</time>
      </trkpt>
      <trkpt lat="45.95521" lon="4.93105">
        <ele>289</ele>
        <time>2017-12-07T10:29:13Z</time>
      </trkpt>
      <trkpt lat="45.95517" lon="4.9311">
        <ele>289</ele>
        <time>2017-12-07T10:29:14Z</time>
      </trkpt>
      <trkpt lat="45.95512" lon="4.93115">
        <ele>289</ele>
        <time>2017-12-07T10:29:15Z</time>
      </trkpt>
      <trkpt lat="45.95508" lon="4.93118">
        <ele>289</ele>
        <time>2017-12-07T10:29:16Z</time>
      </trkpt>
      <trkpt lat="45.95502" lon="4.9312">
        <ele>289</ele>
        <time>2017-12-07T10:29:17Z</time>
      </trkpt>
      <trkpt lat="45.95498" lon="4.93123">
        <ele>290</ele>
        <time>2017-12-07T10:29:18Z</time>
      </trkpt>
      <trkpt lat="45.95494" lon="4.93127">
        <ele>290</ele>
        <time>2017-12-07T10:29:19Z</time>
      </trkpt>
      <trkpt lat="45.95488" lon="4.9313">
        <ele>290</ele>
        <time>2017-12-07T10:29:21Z</time>
      </trkpt>
      <trkpt lat="45.95482" lon="4.93137">
        <ele>290</ele>
        <time>2017-12-07T10:29:22Z</time>
      </trkpt>
      <trkpt lat="45.95478" lon="4.93148">
        <ele>290</ele>
        <time>2017-12-07T10:29:24Z</time>
      </trkpt>
      <trkpt lat="45.95476" lon="4.93151">
        <ele>290</ele>
        <time>2017-12-07T10:29:25Z</time>
      </trkpt>
      <trkpt lat="45.95463" lon="4.93157">
        <ele>290</ele>
        <time>2017-12-07T10:29:26Z</time>
      </trkpt>
      <trkpt lat="45.95459" lon="4.93163">
        <ele>290</ele>
        <time>2017-12-07T10:29:28Z</time>
      </trkpt>
      <trkpt lat="45.95453" lon="4.93166">
        <ele>291</ele>
        <time>2017-12-07T10:29:29Z</time>
      </trkpt>
      <trkpt lat="45.95449" lon="4.93174">
        <ele>291</ele>
        <time>2017-12-07T10:29:30Z</time>
      </trkpt>
      <trkpt lat="45.95446" lon="4.9318">
        <ele>291</ele>
        <time>2017-12-07T10:29:31Z</time>
      </trkpt>
      <trkpt lat="45.95443" lon="4.93187">
        <ele>291</ele>
        <time>2017-12-07T10:29:32Z</time>
      </trkpt>
      <trkpt lat="45.95441" lon="4.93196">
        <ele>291</ele>
        <time>2017-12-07T10:29:33Z</time>
      </trkpt>
      <trkpt lat="45.95441" lon="4.93205">
        <ele>291</ele>
        <time>2017-12-07T10:29:34Z</time>
      </trkpt>
      <trkpt lat="45.95442" lon="4.93214">
        <ele>291</ele>
        <time>2017-12-07T10:29:35Z</time>
      </trkpt>
      <trkpt lat="45.95444" lon="4.93221">
        <ele>291</ele>
        <time>2017-12-07T10:29:36Z</time>
      </trkpt>
      <trkpt lat="45.95446" lon="4.93228">
        <ele>291</ele>
        <time>2017-12-07T10:29:37Z</time>
      </trkpt>
      <trkpt lat="45.9545" lon="4.93235">
        <ele>291</ele>
        <time>2017-12-07T10:29:38Z</time>
      </trkpt>
      <trkpt lat="45.95453" lon="4.93242">
        <ele>291</ele>
        <time>2017-12-07T10:29:39Z</time>
      </trkpt>
      <trkpt lat="45.95457" lon="4.93249">
        <ele>291</ele>
        <time>2017-12-07T10:29:40Z</time>
      </trkpt>
      <trkpt lat="45.9546" lon="4.93257">
        <ele>290</ele>
        <time>2017-12-07T10:29:41Z</time>
      </trkpt>
      <trkpt lat="45.95464" lon="4.93264">
        <ele>290</ele>
        <time>2017-12-07T10:29:42Z</time>
      </trkpt>
      <trkpt lat="45.95467" lon="4.93272">
        <ele>290</ele>
        <time>2017-12-07T10:29:43Z</time>
      </trkpt>
      <trkpt lat="45.9547" lon="4.93279">
        <ele>290</ele>
        <time>2017-12-07T10:29:44Z</time>
      </trkpt>
      <trkpt lat="45.95473" lon="4.93285">
        <ele>290</ele>
        <time>2017-12-07T10:29:45Z</time>
      </trkpt>
      <trkpt lat="45.95476" lon="4.93292">
        <ele>290</ele>
        <time>2017-12-07T10:29:46Z</time>
      </trkpt>
      <trkpt lat="45.95479" lon="4.933">
        <ele>290</ele>
        <time>2017-12-07T10:29:47Z</time>
      </trkpt>
      <trkpt lat="45.95482" lon="4.93308">
        <ele>290</ele>
        <time>2017-12-07T10:29:48Z</time>
      </trkpt>
      <trkpt lat="45.95484" lon="4.93316">
        <ele>290</ele>
        <time>2017-12-07T10:29:49Z</time>
      </trkpt>
      <trkpt lat="45.95487" lon="4.93322">
        <ele>290</ele>
        <time>2017-12-07T10:29:50Z</time>
      </trkpt>
      <trkpt lat="45.9549" lon="4.9333">
        <ele>289</ele>
        <time>2017-12-07T10:29:51Z</time>
      </trkpt>
      <trkpt lat="45.95493" lon="4.93337">
        <ele>289</ele>
        <time>2017-12-07T10:29:52Z</time>
      </trkpt>
      <trkpt lat="45.95497" lon="4.93345">
        <ele>289</ele>
        <time>2017-12-07T10:29:53Z</time>
      </trkpt>
      <trkpt lat="45.95501" lon="4.93352">
        <ele>289</ele>
        <time>2017-12-07T10:29:54Z</time>
      </trkpt>
      <trkpt lat="45.95504" lon="4.93361">
        <ele>289</ele>
        <time>2017-12-07T10:29:55Z</time>
      </trkpt>
      <trkpt lat="45.95507" lon="4.93369">
        <ele>289</ele>
        <time>2017-12-07T10:29:56Z</time>
      </trkpt>
      <trkpt lat="45.95511" lon="4.93376">
        <ele>289</ele>
        <time>2017-12-07T10:29:57Z</time>
      </trkpt>
      <trkpt lat="45.95513" lon="4.93384">
        <ele>289</ele>
        <time>2017-12-07T10:29:58Z</time>
      </trkpt>
      <trkpt lat="45.95517" lon="4.93391">
        <ele>289</ele>
        <time>2017-12-07T10:29:59Z</time>
      </trkpt>
      <trkpt lat="45.9552" lon="4.93397">
        <ele>289</ele>
        <time>2017-12-07T10:30:00Z</time>
      </trkpt>
      <trkpt lat="45.95523" lon="4.93405">
        <ele>289</ele>
        <time>2017-12-07T10:30:01Z</time>
      </trkpt>
      <trkpt lat="45.95526" lon="4.93411">
        <ele>289</ele>
        <time>2017-12-07T10:30:02Z</time>
      </trkpt>
      <trkpt lat="45.95529" lon="4.93417">
        <ele>289</ele>
        <time>2017-12-07T10:30:03Z</time>
      </trkpt>
      <trkpt lat="45.9553" lon="4.93424">
        <ele>289</ele>
        <time>2017-12-07T10:30:04Z</time>
      </trkpt>
      <trkpt lat="45.95533" lon="4.9343">
        <ele>289</ele>
        <time>2017-12-07T10:30:05Z</time>
      </trkpt>
      <trkpt lat="45.95536" lon="4.93437">
        <ele>289</ele>
        <time>2017-12-07T10:30:06Z</time>
      </trkpt>
      <trkpt lat="45.95539" lon="4.93444">
        <ele>289</ele>
        <time>2017-12-07T10:30:07Z</time>
      </trkpt>
      <trkpt lat="45.95542" lon="4.93451">
        <ele>289</ele>
        <time>2017-12-07T10:30:08Z</time>
      </trkpt>
      <trkpt lat="45.95545" lon="4.93458">
        <ele>289</ele>
        <time>2017-12-07T10:30:09Z</time>
      </trkpt>
      <trkpt lat="45.95549" lon="4.93466">
        <ele>289</ele>
        <time>2017-12-07T10:30:10Z</time>
      </trkpt>
      <trkpt lat="45.95554" lon="4.93475">
        <ele>289</ele>
        <time>2017-12-07T10:30:11Z</time>
      </trkpt>
      <trkpt lat="45.95557" lon="4.93482">
        <ele>289</ele>
        <time>2017-12-07T10:30:12Z</time>
      </trkpt>
      <trkpt lat="45.9556" lon="4.93489">
        <ele>289</ele>
        <time>2017-12-07T10:30:13Z</time>
      </trkpt>
      <trkpt lat="45.95563" lon="4.93498">
        <ele>290</ele>
        <time>2017-12-07T10:30:14Z</time>
      </trkpt>
      <trkpt lat="45.95565" lon="4.93505">
        <ele>290</ele>
        <time>2017-12-07T10:30:15Z</time>
      </trkpt>
      <trkpt lat="45.95567" lon="4.93513">
        <ele>290</ele>
        <time>2017-12-07T10:30:16Z</time>
      </trkpt>
      <trkpt lat="45.95567" lon="4.93522">
        <ele>290</ele>
        <time>2017-12-07T10:30:17Z</time>
      </trkpt>
      <trkpt lat="45.95568" lon="4.9353">
        <ele>290</ele>
        <time>2017-12-07T10:30:18Z</time>
      </trkpt>
      <trkpt lat="45.95568" lon="4.93538">
        <ele>290</ele>
        <time>2017-12-07T10:30:19Z</time>
      </trkpt>
      <trkpt lat="45.95567" lon="4.93546">
        <ele>289</ele>
        <time>2017-12-07T10:30:20Z</time>
      </trkpt>
      <trkpt lat="45.95567" lon="4.93554">
        <ele>289</ele>
        <time>2017-12-07T10:30:21Z</time>
      </trkpt>
      <trkpt lat="45.95565" lon="4.93564">
        <ele>289</ele>
        <time>2017-12-07T10:30:22Z</time>
      </trkpt>
      <trkpt lat="45.95565" lon="4.93572">
        <ele>289</ele>
        <time>2017-12-07T10:30:23Z</time>
      </trkpt>
      <trkpt lat="45.95564" lon="4.93581">
        <ele>289</ele>
        <time>2017-12-07T10:30:24Z</time>
      </trkpt>
      <trkpt lat="45.95563" lon="4.93591">
        <ele>289</ele>
        <time>2017-12-07T10:30:25Z</time>
      </trkpt>
      <trkpt lat="45.95561" lon="4.93599">
        <ele>289</ele>
        <time>2017-12-07T10:30:26Z</time>
      </trkpt>
      <trkpt lat="45.95561" lon="4.93607">
        <ele>289</ele>
        <time>2017-12-07T10:30:27Z</time>
      </trkpt>
      <trkpt lat="45.95559" lon="4.93616">
        <ele>290</ele>
        <time>2017-12-07T10:30:28Z</time>
      </trkpt>
      <trkpt lat="45.95559" lon="4.93623">
        <ele>290</ele>
        <time>2017-12-07T10:30:29Z</time>
      </trkpt>
      <trkpt lat="45.95559" lon="4.93631">
        <ele>289</ele>
        <time>2017-12-07T10:30:30Z</time>
      </trkpt>
      <trkpt lat="45.95558" lon="4.93638">
        <ele>289</ele>
        <time>2017-12-07T10:30:31Z</time>
      </trkpt>
      <trkpt lat="45.95558" lon="4.93645">
        <ele>289</ele>
        <time>2017-12-07T10:30:32Z</time>
      </trkpt>
      <trkpt lat="45.95557" lon="4.93654">
        <ele>289</ele>
        <time>2017-12-07T10:30:33Z</time>
      </trkpt>
      <trkpt lat="45.95557" lon="4.93662">
        <ele>289</ele>
        <time>2017-12-07T10:30:34Z</time>
      </trkpt>
      <trkpt lat="45.95556" lon="4.9367">
        <ele>290</ele>
        <time>2017-12-07T10:30:35Z</time>
      </trkpt>
      <trkpt lat="45.95555" lon="4.93677">
        <ele>290</ele>
        <time>2017-12-07T10:30:36Z</time>
      </trkpt>
      <trkpt lat="45.95555" lon="4.93685">
        <ele>290</ele>
        <time>2017-12-07T10:30:37Z</time>
      </trkpt>
      <trkpt lat="45.95555" lon="4.93693">
        <ele>290</ele>
        <time>2017-12-07T10:30:38Z</time>
      </trkpt>
      <trkpt lat="45.95555" lon="4.937">
        <ele>290</ele>
        <time>2017-12-07T10:30:39Z</time>
      </trkpt>
      <trkpt lat="45.95554" lon="4.93706">
        <ele>290</ele>
        <time>2017-12-07T10:30:40Z</time>
      </trkpt>
      <trkpt lat="45.95554" lon="4.93713">
        <ele>290</ele>
        <time>2017-12-07T10:30:41Z</time>
      </trkpt>
      <trkpt lat="45.95555" lon="4.9372">
        <ele>290</ele>
        <time>2017-12-07T10:30:42Z</time>
      </trkpt>
      <trkpt lat="45.95555" lon="4.93726">
        <ele>290</ele>
        <time>2017-12-07T10:30:43Z</time>
      </trkpt>
      <trkpt lat="45.95556" lon="4.93733">
        <ele>290</ele>
        <time>2017-12-07T10:30:44Z</time>
      </trkpt>
      <trkpt lat="45.95558" lon="4.93741">
        <ele>290</ele>
        <time>2017-12-07T10:30:45Z</time>
      </trkpt>
      <trkpt lat="45.95558" lon="4.93748">
        <ele>290</ele>
        <time>2017-12-07T10:30:46Z</time>
      </trkpt>
      <trkpt lat="45.95559" lon="4.93757">
        <ele>290</ele>
        <time>2017-12-07T10:30:47Z</time>
      </trkpt>
      <trkpt lat="45.95559" lon="4.93765">
        <ele>290</ele>
        <time>2017-12-07T10:30:48Z</time>
      </trkpt>
      <trkpt lat="45.95559" lon="4.93772">
        <ele>290</ele>
        <time>2017-12-07T10:30:49Z</time>
      </trkpt>
      <trkpt lat="45.95559" lon="4.93778">
        <ele>290</ele>
        <time>2017-12-07T10:30:50Z</time>
      </trkpt>
      <trkpt lat="45.95558" lon="4.93785">
        <ele>290</ele>
        <time>2017-12-07T10:30:51Z</time>
      </trkpt>
      <trkpt lat="45.95557" lon="4.93791">
        <ele>290</ele>
        <time>2017-12-07T10:30:52Z</time>
      </trkpt>
      <trkpt lat="45.95554" lon="4.93796">
        <ele>290</ele>
        <time>2017-12-07T10:30:53Z</time>
      </trkpt>
      <trkpt lat="45.95549" lon="4.93805">
        <ele>290</ele>
        <time>2017-12-07T10:30:55Z</time>
      </trkpt>
      <trkpt lat="45.95545" lon="4.93808">
        <ele>290</ele>
        <time>2017-12-07T10:30:56Z</time>
      </trkpt>
      <trkpt lat="45.95541" lon="4.93812">
        <ele>291</ele>
        <time>2017-12-07T10:30:57Z</time>
      </trkpt>
      <trkpt lat="45.95537" lon="4.93816">
        <ele>291</ele>
        <time>2017-12-07T10:30:58Z</time>
      </trkpt>
      <trkpt lat="45.95535" lon="4.93824">
        <ele>291</ele>
        <time>2017-12-07T10:30:59Z</time>
      </trkpt>
      <trkpt lat="45.95532" lon="4.93831">
        <ele>291</ele>
        <time>2017-12-07T10:31:00Z</time>
      </trkpt>
      <trkpt lat="45.95531" lon="4.93839">
        <ele>290</ele>
        <time>2017-12-07T10:31:01Z</time>
      </trkpt>
      <trkpt lat="45.9553" lon="4.93847">
        <ele>290</ele>
        <time>2017-12-07T10:31:02Z</time>
      </trkpt>
      <trkpt lat="45.9553" lon="4.93856">
        <ele>290</ele>
        <time>2017-12-07T10:31:03Z</time>
      </trkpt>
      <trkpt lat="45.9553" lon="4.93865">
        <ele>290</ele>
        <time>2017-12-07T10:31:04Z</time>
      </trkpt>
      <trkpt lat="45.9553" lon="4.93872">
        <ele>290</ele>
        <time>2017-12-07T10:31:05Z</time>
      </trkpt>
      <trkpt lat="45.9553" lon="4.9388">
        <ele>290</ele>
        <time>2017-12-07T10:31:06Z</time>
      </trkpt>
      <trkpt lat="45.95527" lon="4.93888">
        <ele>290</ele>
        <time>2017-12-07T10:31:07Z</time>
      </trkpt>
      <trkpt lat="45.95527" lon="4.93896">
        <ele>290</ele>
        <time>2017-12-07T10:31:08Z</time>
      </trkpt>
      <trkpt lat="45.95526" lon="4.93903">
        <ele>290</ele>
        <time>2017-12-07T10:31:09Z</time>
      </trkpt>
      <trkpt lat="45.95526" lon="4.9391">
        <ele>290</ele>
        <time>2017-12-07T10:31:10Z</time>
      </trkpt>
      <trkpt lat="45.95526" lon="4.93917">
        <ele>290</ele>
        <time>2017-12-07T10:31:11Z</time>
      </trkpt>
      <trkpt lat="45.95525" lon="4.93924">
        <ele>290</ele>
        <time>2017-12-07T10:31:12Z</time>
      </trkpt>
      <trkpt lat="45.95525" lon="4.93932">
        <ele>290</ele>
        <time>2017-12-07T10:31:13Z</time>
      </trkpt>
      <trkpt lat="45.95525" lon="4.93939">
        <ele>290</ele>
        <time>2017-12-07T10:31:14Z</time>
      </trkpt>
      <trkpt lat="45.95525" lon="4.93946">
        <ele>290</ele>
        <time>2017-12-07T10:31:15Z</time>
      </trkpt>
      <trkpt lat="45.95524" lon="4.93953">
        <ele>290</ele>
        <time>2017-12-07T10:31:16Z</time>
      </trkpt>
      <trkpt lat="45.95524" lon="4.9396">
        <ele>290</ele>
        <time>2017-12-07T10:31:17Z</time>
      </trkpt>
      <trkpt lat="45.95523" lon="4.93966">
        <ele>290</ele>
        <time>2017-12-07T10:31:18Z</time>
      </trkpt>
      <trkpt lat="45.95523" lon="4.93972">
        <ele>290</ele>
        <time>2017-12-07T10:31:19Z</time>
      </trkpt>
      <trkpt lat="45.95524" lon="4.93979">
        <ele>290</ele>
        <time>2017-12-07T10:31:20Z</time>
      </trkpt>
      <trkpt lat="45.9552" lon="4.93988">
        <ele>290</ele>
        <time>2017-12-07T10:31:22Z</time>
      </trkpt>
      <trkpt lat="45.95517" lon="4.93992">
        <ele>290</ele>
        <time>2017-12-07T10:31:23Z</time>
      </trkpt>
      <trkpt lat="45.95511" lon="4.93992">
        <ele>290</ele>
        <time>2017-12-07T10:31:25Z</time>
      </trkpt>
      <trkpt lat="45.95507" lon="4.93992">
        <ele>290</ele>
        <time>2017-12-07T10:31:26Z</time>
      </trkpt>
      <trkpt lat="45.95498" lon="4.9399">
        <ele>289</ele>
        <time>2017-12-07T10:31:28Z</time>
      </trkpt>
      <trkpt lat="45.95494" lon="4.9399">
        <ele>289</ele>
        <time>2017-12-07T10:31:29Z</time>
      </trkpt>
      <trkpt lat="45.95486" lon="4.93987">
        <ele>289</ele>
        <time>2017-12-07T10:31:31Z</time>
      </trkpt>
      <trkpt lat="45.95481" lon="4.93987">
        <ele>289</ele>
        <time>2017-12-07T10:31:32Z</time>
      </trkpt>
      <trkpt lat="45.95477" lon="4.93987">
        <ele>289</ele>
        <time>2017-12-07T10:31:33Z</time>
      </trkpt>
      <trkpt lat="45.95472" lon="4.93987">
        <ele>289</ele>
        <time>2017-12-07T10:31:34Z</time>
      </trkpt>
      <trkpt lat="45.95467" lon="4.93987">
        <ele>289</ele>
        <time>2017-12-07T10:31:35Z</time>
      </trkpt>
      <trkpt lat="45.95462" lon="4.93988">
        <ele>289</ele>
        <time>2017-12-07T10:31:36Z</time>
      </trkpt>
      <trkpt lat="45.95457" lon="4.9399">
        <ele>289</ele>
        <time>2017-12-07T10:31:37Z</time>
      </trkpt>
      <trkpt lat="45.95451" lon="4.93992">
        <ele>289</ele>
        <time>2017-12-07T10:31:38Z</time>
      </trkpt>
      <trkpt lat="45.95445" lon="4.93995">
        <ele>289</ele>
        <time>2017-12-07T10:31:39Z</time>
      </trkpt>
      <trkpt lat="45.95439" lon="4.93997">
        <ele>289</ele>
        <time>2017-12-07T10:31:40Z</time>
      </trkpt>
      <trkpt lat="45.95433" lon="4.94">
        <ele>290</ele>
        <time>2017-12-07T10:31:41Z</time>
      </trkpt>
      <trkpt lat="45.95428" lon="4.94">
        <ele>289</ele>
        <time>2017-12-07T10:31:42Z</time>
      </trkpt>
      <trkpt lat="45.95424" lon="4.94003">
        <ele>290</ele>
        <time>2017-12-07T10:31:43Z</time>
      </trkpt>
      <trkpt lat="45.95418" lon="4.94004">
        <ele>290</ele>
        <time>2017-12-07T10:31:44Z</time>
      </trkpt>
      <trkpt lat="45.95413" lon="4.94005">
        <ele>290</ele>
        <time>2017-12-07T10:31:45Z</time>
      </trkpt>
      <trkpt lat="45.95408" lon="4.94005">
        <ele>289</ele>
        <time>2017-12-07T10:31:46Z</time>
      </trkpt>
      <trkpt lat="45.95404" lon="4.94007">
        <ele>289</ele>
        <time>2017-12-07T10:31:47Z</time>
      </trkpt>
      <trkpt lat="45.954" lon="4.94009">
        <ele>289</ele>
        <time>2017-12-07T10:31:48Z</time>
      </trkpt>
      <trkpt lat="45.95395" lon="4.94011">
        <ele>289</ele>
        <time>2017-12-07T10:31:49Z</time>
      </trkpt>
      <trkpt lat="45.9539" lon="4.94011">
        <ele>289</ele>
        <time>2017-12-07T10:31:50Z</time>
      </trkpt>
      <trkpt lat="45.95381" lon="4.94015">
        <ele>289</ele>
        <time>2017-12-07T10:31:52Z</time>
      </trkpt>
      <trkpt lat="45.95377" lon="4.94017">
        <ele>288</ele>
        <time>2017-12-07T10:31:53Z</time>
      </trkpt>
      <trkpt lat="45.95368" lon="4.94021">
        <ele>288</ele>
        <time>2017-12-07T10:31:55Z</time>
      </trkpt>
      <trkpt lat="45.95364" lon="4.9402">
        <ele>288</ele>
        <time>2017-12-07T10:31:56Z</time>
      </trkpt>
      <trkpt lat="45.95359" lon="4.94022">
        <ele>288</ele>
        <time>2017-12-07T10:31:57Z</time>
      </trkpt>
      <trkpt lat="45.95355" lon="4.94021">
        <ele>288</ele>
        <time>2017-12-07T10:31:58Z</time>
      </trkpt>
      <trkpt lat="45.95347" lon="4.94021">
        <ele>288</ele>
        <time>2017-12-07T10:32:00Z</time>
      </trkpt>
      <trkpt lat="45.95341" lon="4.94022">
        <ele>288</ele>
        <time>2017-12-07T10:32:01Z</time>
      </trkpt>
      <trkpt lat="45.95336" lon="4.94021">
        <ele>288</ele>
        <time>2017-12-07T10:32:02Z</time>
      </trkpt>
      <trkpt lat="45.95331" lon="4.94021">
        <ele>288</ele>
        <time>2017-12-07T10:32:03Z</time>
      </trkpt>
      <trkpt lat="45.95326" lon="4.94022">
        <ele>288</ele>
        <time>2017-12-07T10:32:04Z</time>
      </trkpt>
      <trkpt lat="45.95322" lon="4.94022">
        <ele>288</ele>
        <time>2017-12-07T10:32:05Z</time>
      </trkpt>
      <trkpt lat="45.95317" lon="4.94023">
        <ele>288</ele>
        <time>2017-12-07T10:32:06Z</time>
      </trkpt>
      <trkpt lat="45.95313" lon="4.94026">
        <ele>288</ele>
        <time>2017-12-07T10:32:07Z</time>
      </trkpt>
      <trkpt lat="45.95308" lon="4.94031">
        <ele>288</ele>
        <time>2017-12-07T10:32:08Z</time>
      </trkpt>
      <trkpt lat="45.95304" lon="4.94035">
        <ele>288</ele>
        <time>2017-12-07T10:32:09Z</time>
      </trkpt>
      <trkpt lat="45.953" lon="4.94042">
        <ele>288</ele>
        <time>2017-12-07T10:32:10Z</time>
      </trkpt>
      <trkpt lat="45.95297" lon="4.94048">
        <ele>288</ele>
        <time>2017-12-07T10:32:11Z</time>
      </trkpt>
      <trkpt lat="45.95295" lon="4.94055">
        <ele>288</ele>
        <time>2017-12-07T10:32:12Z</time>
      </trkpt>
      <trkpt lat="45.95293" lon="4.94061">
        <ele>288</ele>
        <time>2017-12-07T10:32:13Z</time>
      </trkpt>
      <trkpt lat="45.95291" lon="4.94069">
        <ele>288</ele>
        <time>2017-12-07T10:32:14Z</time>
      </trkpt>
      <trkpt lat="45.95288" lon="4.94075">
        <ele>288</ele>
        <time>2017-12-07T10:32:15Z</time>
      </trkpt>
      <trkpt lat="45.95285" lon="4.9408">
        <ele>288</ele>
        <time>2017-12-07T10:32:16Z</time>
      </trkpt>
      <trkpt lat="45.95282" lon="4.94086">
        <ele>288</ele>
        <time>2017-12-07T10:32:17Z</time>
      </trkpt>
      <trkpt lat="45.95279" lon="4.94093">
        <ele>288</ele>
        <time>2017-12-07T10:32:18Z</time>
      </trkpt>
      <trkpt lat="45.95277" lon="4.94099">
        <ele>288</ele>
        <time>2017-12-07T10:32:19Z</time>
      </trkpt>
      <trkpt lat="45.95275" lon="4.94104">
        <ele>288</ele>
        <time>2017-12-07T10:32:20Z</time>
      </trkpt>
      <trkpt lat="45.95272" lon="4.9411">
        <ele>288</ele>
        <time>2017-12-07T10:32:21Z</time>
      </trkpt>
      <trkpt lat="45.95269" lon="4.94116">
        <ele>288</ele>
        <time>2017-12-07T10:32:22Z</time>
      </trkpt>
      <trkpt lat="45.95268" lon="4.94123">
        <ele>288</ele>
        <time>2017-12-07T10:32:23Z</time>
      </trkpt>
      <trkpt lat="45.95266" lon="4.94129">
        <ele>288</ele>
        <time>2017-12-07T10:32:24Z</time>
      </trkpt>
      <trkpt lat="45.95265" lon="4.94135">
        <ele>288</ele>
        <time>2017-12-07T10:32:25Z</time>
      </trkpt>
      <trkpt lat="45.95262" lon="4.94141">
        <ele>288</ele>
        <time>2017-12-07T10:32:26Z</time>
      </trkpt>
      <trkpt lat="45.9526" lon="4.94146">
        <ele>288</ele>
        <time>2017-12-07T10:32:27Z</time>
      </trkpt>
      <trkpt lat="45.95257" lon="4.94153">
        <ele>289</ele>
        <time>2017-12-07T10:32:28Z</time>
      </trkpt>
      <trkpt lat="45.95253" lon="4.94158">
        <ele>289</ele>
        <time>2017-12-07T10:32:29Z</time>
      </trkpt>
      <trkpt lat="45.9525" lon="4.94165">
        <ele>289</ele>
        <time>2017-12-07T10:32:30Z</time>
      </trkpt>
      <trkpt lat="45.95248" lon="4.9417">
        <ele>289</ele>
        <time>2017-12-07T10:32:31Z</time>
      </trkpt>
      <trkpt lat="45.95244" lon="4.94182">
        <ele>289</ele>
        <time>2017-12-07T10:32:33Z</time>
      </trkpt>
      <trkpt lat="45.95242" lon="4.94188">
        <ele>289</ele>
        <time>2017-12-07T10:32:34Z</time>
      </trkpt>
      <trkpt lat="45.95239" lon="4.94199">
        <ele>289</ele>
        <time>2017-12-07T10:32:36Z</time>
      </trkpt>
      <trkpt lat="45.95238" lon="4.94204">
        <ele>289</ele>
        <time>2017-12-07T10:32:37Z</time>
      </trkpt>
      <trkpt lat="45.95236" lon="4.94216">
        <ele>289</ele>
        <time>2017-12-07T10:32:39Z</time>
      </trkpt>
      <trkpt lat="45.95235" lon="4.94222">
        <ele>289</ele>
        <time>2017-12-07T10:32:40Z</time>
      </trkpt>
      <trkpt lat="45.95234" lon="4.94229">
        <ele>289</ele>
        <time>2017-12-07T10:32:41Z</time>
      </trkpt>
      <trkpt lat="45.95234" lon="4.94236">
        <ele>289</ele>
        <time>2017-12-07T10:32:42Z</time>
      </trkpt>
      <trkpt lat="45.95234" lon="4.94245">
        <ele>289</ele>
        <time>2017-12-07T10:32:43Z</time>
      </trkpt>
      <trkpt lat="45.95233" lon="4.94252">
        <ele>288</ele>
        <time>2017-12-07T10:32:44Z</time>
      </trkpt>
      <trkpt lat="45.95232" lon="4.94259">
        <ele>288</ele>
        <time>2017-12-07T10:32:45Z</time>
      </trkpt>
      <trkpt lat="45.95232" lon="4.94267">
        <ele>289</ele>
        <time>2017-12-07T10:32:46Z</time>
      </trkpt>
      <trkpt lat="45.95231" lon="4.94274">
        <ele>289</ele>
        <time>2017-12-07T10:32:47Z</time>
      </trkpt>
      <trkpt lat="45.95231" lon="4.94281">
        <ele>289</ele>
        <time>2017-12-07T10:32:48Z</time>
      </trkpt>
      <trkpt lat="45.95229" lon="4.94288">
        <ele>289</ele>
        <time>2017-12-07T10:32:49Z</time>
      </trkpt>
      <trkpt lat="45.95229" lon="4.94296">
        <ele>289</ele>
        <time>2017-12-07T10:32:50Z</time>
      </trkpt>
      <trkpt lat="45.95228" lon="4.94304">
        <ele>289</ele>
        <time>2017-12-07T10:32:51Z</time>
      </trkpt>
      <trkpt lat="45.95229" lon="4.94311">
        <ele>289</ele>
        <time>2017-12-07T10:32:52Z</time>
      </trkpt>
      <trkpt lat="45.95229" lon="4.94319">
        <ele>288</ele>
        <time>2017-12-07T10:32:53Z</time>
      </trkpt>
      <trkpt lat="45.95228" lon="4.94325">
        <ele>288</ele>
        <time>2017-12-07T10:32:54Z</time>
      </trkpt>
      <trkpt lat="45.95227" lon="4.94333">
        <ele>288</ele>
        <time>2017-12-07T10:32:55Z</time>
      </trkpt>
      <trkpt lat="45.95226" lon="4.94339">
        <ele>289</ele>
        <time>2017-12-07T10:32:56Z</time>
      </trkpt>
      <trkpt lat="45.95225" lon="4.94345">
        <ele>289</ele>
        <time>2017-12-07T10:32:57Z</time>
      </trkpt>
      <trkpt lat="45.95223" lon="4.94351">
        <ele>289</ele>
        <time>2017-12-07T10:32:58Z</time>
      </trkpt>
      <trkpt lat="45.95221" lon="4.94357">
        <ele>289</ele>
        <time>2017-12-07T10:32:59Z</time>
      </trkpt>
      <trkpt lat="45.95219" lon="4.94362">
        <ele>289</ele>
        <time>2017-12-07T10:33:00Z</time>
      </trkpt>
      <trkpt lat="45.95216" lon="4.94368">
        <ele>289</ele>
        <time>2017-12-07T10:33:01Z</time>
      </trkpt>
      <trkpt lat="45.95212" lon="4.94374">
        <ele>289</ele>
        <time>2017-12-07T10:33:02Z</time>
      </trkpt>
      <trkpt lat="45.9521" lon="4.9438">
        <ele>289</ele>
        <time>2017-12-07T10:33:03Z</time>
      </trkpt>
      <trkpt lat="45.95208" lon="4.94386">
        <ele>289</ele>
        <time>2017-12-07T10:33:04Z</time>
      </trkpt>
      <trkpt lat="45.95205" lon="4.94392">
        <ele>289</ele>
        <time>2017-12-07T10:33:05Z</time>
      </trkpt>
      <trkpt lat="45.95203" lon="4.94398">
        <ele>289</ele>
        <time>2017-12-07T10:33:06Z</time>
      </trkpt>
      <trkpt lat="45.95198" lon="4.94408">
        <ele>289</ele>
        <time>2017-12-07T10:33:08Z</time>
      </trkpt>
      <trkpt lat="45.95197" lon="4.94414">
        <ele>289</ele>
        <time>2017-12-07T10:33:09Z</time>
      </trkpt>
      <trkpt lat="45.95195" lon="4.94423">
        <ele>290</ele>
        <time>2017-12-07T10:33:11Z</time>
      </trkpt>
      <trkpt lat="45.95194" lon="4.9443">
        <ele>290</ele>
        <time>2017-12-07T10:33:12Z</time>
      </trkpt>
      <trkpt lat="45.95193" lon="4.94436">
        <ele>290</ele>
        <time>2017-12-07T10:33:13Z</time>
      </trkpt>
      <trkpt lat="45.95192" lon="4.94443">
        <ele>290</ele>
        <time>2017-12-07T10:33:14Z</time>
      </trkpt>
      <trkpt lat="45.95191" lon="4.94449">
        <ele>290</ele>
        <time>2017-12-07T10:33:15Z</time>
      </trkpt>
      <trkpt lat="45.95191" lon="4.94458">
        <ele>290</ele>
        <time>2017-12-07T10:33:16Z</time>
      </trkpt>
      <trkpt lat="45.95189" lon="4.94466">
        <ele>289</ele>
        <time>2017-12-07T10:33:17Z</time>
      </trkpt>
      <trkpt lat="45.95189" lon="4.94473">
        <ele>289</ele>
        <time>2017-12-07T10:33:18Z</time>
      </trkpt>
      <trkpt lat="45.9519" lon="4.94481">
        <ele>289</ele>
        <time>2017-12-07T10:33:19Z</time>
      </trkpt>
      <trkpt lat="45.95189" lon="4.94488">
        <ele>289</ele>
        <time>2017-12-07T10:33:20Z</time>
      </trkpt>
      <trkpt lat="45.95189" lon="4.94496">
        <ele>289</ele>
        <time>2017-12-07T10:33:21Z</time>
      </trkpt>
      <trkpt lat="45.95189" lon="4.94504">
        <ele>289</ele>
        <time>2017-12-07T10:33:22Z</time>
      </trkpt>
      <trkpt lat="45.95189" lon="4.94512">
        <ele>289</ele>
        <time>2017-12-07T10:33:23Z</time>
      </trkpt>
      <trkpt lat="45.95189" lon="4.94519">
        <ele>289</ele>
        <time>2017-12-07T10:33:24Z</time>
      </trkpt>
      <trkpt lat="45.95186" lon="4.94526">
        <ele>289</ele>
        <time>2017-12-07T10:33:25Z</time>
      </trkpt>
      <trkpt lat="45.95185" lon="4.94533">
        <ele>289</ele>
        <time>2017-12-07T10:33:26Z</time>
      </trkpt>
      <trkpt lat="45.95184" lon="4.94541">
        <ele>289</ele>
        <time>2017-12-07T10:33:27Z</time>
      </trkpt>
      <trkpt lat="45.95183" lon="4.94547">
        <ele>289</ele>
        <time>2017-12-07T10:33:28Z</time>
      </trkpt>
      <trkpt lat="45.95183" lon="4.94556">
        <ele>289</ele>
        <time>2017-12-07T10:33:29Z</time>
      </trkpt>
      <trkpt lat="45.95182" lon="4.94563">
        <ele>289</ele>
        <time>2017-12-07T10:33:30Z</time>
      </trkpt>
      <trkpt lat="45.95182" lon="4.9457">
        <ele>289</ele>
        <time>2017-12-07T10:33:31Z</time>
      </trkpt>
      <trkpt lat="45.95181" lon="4.94576">
        <ele>289</ele>
        <time>2017-12-07T10:33:32Z</time>
      </trkpt>
      <trkpt lat="45.95181" lon="4.94584">
        <ele>289</ele>
        <time>2017-12-07T10:33:33Z</time>
      </trkpt>
      <trkpt lat="45.95179" lon="4.9459">
        <ele>289</ele>
        <time>2017-12-07T10:33:34Z</time>
      </trkpt>
      <trkpt lat="45.95177" lon="4.94602">
        <ele>289</ele>
        <time>2017-12-07T10:33:36Z</time>
      </trkpt>
      <trkpt lat="45.95176" lon="4.94609">
        <ele>289</ele>
        <time>2017-12-07T10:33:37Z</time>
      </trkpt>
      <trkpt lat="45.95174" lon="4.94616">
        <ele>289</ele>
        <time>2017-12-07T10:33:38Z</time>
      </trkpt>
      <trkpt lat="45.95172" lon="4.94624">
        <ele>289</ele>
        <time>2017-12-07T10:33:39Z</time>
      </trkpt>
      <trkpt lat="45.95168" lon="4.94631">
        <ele>289</ele>
        <time>2017-12-07T10:33:40Z</time>
      </trkpt>
      <trkpt lat="45.95165" lon="4.94638">
        <ele>290</ele>
        <time>2017-12-07T10:33:41Z</time>
      </trkpt>
      <trkpt lat="45.95161" lon="4.94645">
        <ele>290</ele>
        <time>2017-12-07T10:33:42Z</time>
      </trkpt>
      <trkpt lat="45.95157" lon="4.94651">
        <ele>290</ele>
        <time>2017-12-07T10:33:43Z</time>
      </trkpt>
      <trkpt lat="45.95154" lon="4.94658">
        <ele>290</ele>
        <time>2017-12-07T10:33:44Z</time>
      </trkpt>
      <trkpt lat="45.9515" lon="4.94664">
        <ele>290</ele>
        <time>2017-12-07T10:33:45Z</time>
      </trkpt>
      <trkpt lat="45.95148" lon="4.94671">
        <ele>290</ele>
        <time>2017-12-07T10:33:46Z</time>
      </trkpt>
      <trkpt lat="45.95146" lon="4.94678">
        <ele>290</ele>
        <time>2017-12-07T10:33:47Z</time>
      </trkpt>
      <trkpt lat="45.95146" lon="4.94686">
        <ele>290</ele>
        <time>2017-12-07T10:33:48Z</time>
      </trkpt>
      <trkpt lat="45.95148" lon="4.94692">
        <ele>290</ele>
        <time>2017-12-07T10:33:49Z</time>
      </trkpt>
      <trkpt lat="45.95153" lon="4.94702">
        <ele>290</ele>
        <time>2017-12-07T10:33:51Z</time>
      </trkpt>
      <trkpt lat="45.95157" lon="4.94707">
        <ele>290</ele>
        <time>2017-12-07T10:33:52Z</time>
      </trkpt>
      <trkpt lat="45.95161" lon="4.94713">
        <ele>290</ele>
        <time>2017-12-07T10:33:53Z</time>
      </trkpt>
      <trkpt lat="45.95166" lon="4.94719">
        <ele>290</ele>
        <time>2017-12-07T10:33:54Z</time>
      </trkpt>
      <trkpt lat="45.95172" lon="4.94727">
        <ele>288</ele>
        <time>2017-12-07T10:33:55Z</time>
      </trkpt>
      <trkpt lat="45.95176" lon="4.94732">
        <ele>288</ele>
        <time>2017-12-07T10:33:56Z</time>
      </trkpt>
      <trkpt lat="45.95181" lon="4.94737">
        <ele>288</ele>
        <time>2017-12-07T10:33:57Z</time>
      </trkpt>
      <trkpt lat="45.95186" lon="4.94742">
        <ele>288</ele>
        <time>2017-12-07T10:33:58Z</time>
      </trkpt>
      <trkpt lat="45.9519" lon="4.94747">
        <ele>288</ele>
        <time>2017-12-07T10:33:59Z</time>
      </trkpt>
      <trkpt lat="45.95195" lon="4.94753">
        <ele>287</ele>
        <time>2017-12-07T10:34:00Z</time>
      </trkpt>
      <trkpt lat="45.95198" lon="4.94759">
        <ele>287</ele>
        <time>2017-12-07T10:34:01Z</time>
      </trkpt>
      <trkpt lat="45.95199" lon="4.94767">
        <ele>287</ele>
        <time>2017-12-07T10:34:02Z</time>
      </trkpt>
      <trkpt lat="45.95198" lon="4.94775">
        <ele>287</ele>
        <time>2017-12-07T10:34:03Z</time>
      </trkpt>
      <trkpt lat="45.95195" lon="4.9478">
        <ele>287</ele>
        <time>2017-12-07T10:34:04Z</time>
      </trkpt>
      <trkpt lat="45.9519" lon="4.94785">
        <ele>287</ele>
        <time>2017-12-07T10:34:05Z</time>
      </trkpt>
      <trkpt lat="45.95186" lon="4.94786">
        <ele>287</ele>
        <time>2017-12-07T10:34:06Z</time>
      </trkpt>
      <trkpt lat="45.95177" lon="4.94788">
        <ele>287</ele>
        <time>2017-12-07T10:34:08Z</time>
      </trkpt>
      <trkpt lat="45.95172" lon="4.94791">
        <ele>287</ele>
        <time>2017-12-07T10:34:09Z</time>
      </trkpt>
      <trkpt lat="45.95167" lon="4.94793">
        <ele>287</ele>
        <time>2017-12-07T10:34:10Z</time>
      </trkpt>
      <trkpt lat="45.95163" lon="4.94794">
        <ele>289</ele>
        <time>2017-12-07T10:34:11Z</time>
      </trkpt>
      <trkpt lat="45.95159" lon="4.94796">
        <ele>289</ele>
        <time>2017-12-07T10:34:12Z</time>
      </trkpt>
      <trkpt lat="45.95155" lon="4.94799">
        <ele>289</ele>
        <time>2017-12-07T10:34:13Z</time>
      </trkpt>
      <trkpt lat="45.9515" lon="4.948">
        <ele>289</ele>
        <time>2017-12-07T10:34:14Z</time>
      </trkpt>
      <trkpt lat="45.95145" lon="4.94802">
        <ele>289</ele>
        <time>2017-12-07T10:34:15Z</time>
      </trkpt>
      <trkpt lat="45.95141" lon="4.94807">
        <ele>289</ele>
        <time>2017-12-07T10:34:16Z</time>
      </trkpt>
      <trkpt lat="45.95136" lon="4.9481">
        <ele>289</ele>
        <time>2017-12-07T10:34:17Z</time>
      </trkpt>
      <trkpt lat="45.95131" lon="4.94814">
        <ele>289</ele>
        <time>2017-12-07T10:34:18Z</time>
      </trkpt>
      <trkpt lat="45.95127" lon="4.94818">
        <ele>289</ele>
        <time>2017-12-07T10:34:19Z</time>
      </trkpt>
      <trkpt lat="45.95123" lon="4.94821">
        <ele>289</ele>
        <time>2017-12-07T10:34:20Z</time>
      </trkpt>
      <trkpt lat="45.95119" lon="4.94825">
        <ele>289</ele>
        <time>2017-12-07T10:34:21Z</time>
      </trkpt>
      <trkpt lat="45.95115" lon="4.94829">
        <ele>289</ele>
        <time>2017-12-07T10:34:22Z</time>
      </trkpt>
      <trkpt lat="45.95111" lon="4.94834">
        <ele>289</ele>
        <time>2017-12-07T10:34:23Z</time>
      </trkpt>
      <trkpt lat="45.95106" lon="4.94837">
        <ele>289</ele>
        <time>2017-12-07T10:34:24Z</time>
      </trkpt>
      <trkpt lat="45.951" lon="4.94841">
        <ele>289</ele>
        <time>2017-12-07T10:34:25Z</time>
      </trkpt>
      <trkpt lat="45.95095" lon="4.94845">
        <ele>289</ele>
        <time>2017-12-07T10:34:26Z</time>
      </trkpt>
      <trkpt lat="45.95091" lon="4.9485">
        <ele>289</ele>
        <time>2017-12-07T10:34:27Z</time>
      </trkpt>
      <trkpt lat="45.95088" lon="4.94855">
        <ele>289</ele>
        <time>2017-12-07T10:34:28Z</time>
      </trkpt>
      <trkpt lat="45.95083" lon="4.94861">
        <ele>289</ele>
        <time>2017-12-07T10:34:29Z</time>
      </trkpt>
      <trkpt lat="45.95079" lon="4.94865">
        <ele>289</ele>
        <time>2017-12-07T10:34:30Z</time>
      </trkpt>
      <trkpt lat="45.95076" lon="4.94871">
        <ele>289</ele>
        <time>2017-12-07T10:34:31Z</time>
      </trkpt>
      <trkpt lat="45.95069" lon="4.94878">
        <ele>289</ele>
        <time>2017-12-07T10:34:33Z</time>
      </trkpt>
      <trkpt lat="45.95066" lon="4.94882">
        <ele>289</ele>
        <time>2017-12-07T10:34:34Z</time>
      </trkpt>
      <trkpt lat="45.95061" lon="4.94886">
        <ele>289</ele>
        <time>2017-12-07T10:34:35Z</time>
      </trkpt>
      <trkpt lat="45.95057" lon="4.94889">
        <ele>289</ele>
        <time>2017-12-07T10:34:36Z</time>
      </trkpt>
      <trkpt lat="45.95054" lon="4.94893">
        <ele>289</ele>
        <time>2017-12-07T10:34:37Z</time>
      </trkpt>
      <trkpt lat="45.9505" lon="4.94898">
        <ele>289</ele>
        <time>2017-12-07T10:34:38Z</time>
      </trkpt>
      <trkpt lat="45.95044" lon="4.94906">
        <ele>289</ele>
        <time>2017-12-07T10:34:40Z</time>
      </trkpt>
      <trkpt lat="45.95038" lon="4.9491">
        <ele>289</ele>
        <time>2017-12-07T10:34:41Z</time>
      </trkpt>
      <trkpt lat="45.95032" lon="4.94919">
        <ele>289</ele>
        <time>2017-12-07T10:34:43Z</time>
      </trkpt>
      <trkpt lat="45.95028" lon="4.94923">
        <ele>289</ele>
        <time>2017-12-07T10:34:44Z</time>
      </trkpt>
      <trkpt lat="45.95024" lon="4.94928">
        <ele>289</ele>
        <time>2017-12-07T10:34:45Z</time>
      </trkpt>
      <trkpt lat="45.9502" lon="4.94932">
        <ele>289</ele>
        <time>2017-12-07T10:34:46Z</time>
      </trkpt>
      <trkpt lat="45.95016" lon="4.94938">
        <ele>289</ele>
        <time>2017-12-07T10:34:47Z</time>
      </trkpt>
      <trkpt lat="45.95013" lon="4.94943">
        <ele>289</ele>
        <time>2017-12-07T10:34:48Z</time>
      </trkpt>
      <trkpt lat="45.95007" lon="4.94952">
        <ele>289</ele>
        <time>2017-12-07T10:34:50Z</time>
      </trkpt>
      <trkpt lat="45.95002" lon="4.94956">
        <ele>289</ele>
        <time>2017-12-07T10:34:51Z</time>
      </trkpt>
      <trkpt lat="45.94996" lon="4.94964">
        <ele>289</ele>
        <time>2017-12-07T10:34:53Z</time>
      </trkpt>
      <trkpt lat="45.94993" lon="4.94969">
        <ele>289</ele>
        <time>2017-12-07T10:34:54Z</time>
      </trkpt>
      <trkpt lat="45.94991" lon="4.94981">
        <ele>289</ele>
        <time>2017-12-07T10:34:56Z</time>
      </trkpt>
      <trkpt lat="45.94992" lon="4.94988">
        <ele>289</ele>
        <time>2017-12-07T10:34:57Z</time>
      </trkpt>
      <trkpt lat="45.94993" lon="4.94994">
        <ele>289</ele>
        <time>2017-12-07T10:34:58Z</time>
      </trkpt>
      <trkpt lat="45.94994" lon="4.95001">
        <ele>289</ele>
        <time>2017-12-07T10:34:59Z</time>
      </trkpt>
      <trkpt lat="45.94996" lon="4.95008">
        <ele>289</ele>
        <time>2017-12-07T10:35:00Z</time>
      </trkpt>
      <trkpt lat="45.94997" lon="4.95015">
        <ele>289</ele>
        <time>2017-12-07T10:35:01Z</time>
      </trkpt>
      <trkpt lat="45.94999" lon="4.95022">
        <ele>289</ele>
        <time>2017-12-07T10:35:02Z</time>
      </trkpt>
      <trkpt lat="45.95001" lon="4.95029">
        <ele>290</ele>
        <time>2017-12-07T10:35:03Z</time>
      </trkpt>
      <trkpt lat="45.95002" lon="4.95037">
        <ele>290</ele>
        <time>2017-12-07T10:35:04Z</time>
      </trkpt>
      <trkpt lat="45.95002" lon="4.95046">
        <ele>290</ele>
        <time>2017-12-07T10:35:05Z</time>
      </trkpt>
      <trkpt lat="45.95003" lon="4.95052">
        <ele>290</ele>
        <time>2017-12-07T10:35:06Z</time>
      </trkpt>
      <trkpt lat="45.95003" lon="4.95059">
        <ele>290</ele>
        <time>2017-12-07T10:35:07Z</time>
      </trkpt>
      <trkpt lat="45.95003" lon="4.95067">
        <ele>290</ele>
        <time>2017-12-07T10:35:08Z</time>
      </trkpt>
      <trkpt lat="45.95004" lon="4.95074">
        <ele>290</ele>
        <time>2017-12-07T10:35:09Z</time>
      </trkpt>
      <trkpt lat="45.95003" lon="4.95086">
        <ele>290</ele>
        <time>2017-12-07T10:35:11Z</time>
      </trkpt>
      <trkpt lat="45.95003" lon="4.95091">
        <ele>290</ele>
        <time>2017-12-07T10:35:12Z</time>
      </trkpt>
      <trkpt lat="45.95001" lon="4.95103">
        <ele>290</ele>
        <time>2017-12-07T10:35:14Z</time>
      </trkpt>
      <trkpt lat="45.95" lon="4.95109">
        <ele>290</ele>
        <time>2017-12-07T10:35:15Z</time>
      </trkpt>
      <trkpt lat="45.95" lon="4.95116">
        <ele>290</ele>
        <time>2017-12-07T10:35:16Z</time>
      </trkpt>
      <trkpt lat="45.94999" lon="4.95124">
        <ele>290</ele>
        <time>2017-12-07T10:35:17Z</time>
      </trkpt>
      <trkpt lat="45.94998" lon="4.95131">
        <ele>290</ele>
        <time>2017-12-07T10:35:18Z</time>
      </trkpt>
      <trkpt lat="45.94997" lon="4.9514">
        <ele>290</ele>
        <time>2017-12-07T10:35:19Z</time>
      </trkpt>
      <trkpt lat="45.94997" lon="4.95147">
        <ele>290</ele>
        <time>2017-12-07T10:35:20Z</time>
      </trkpt>
      <trkpt lat="45.94997" lon="4.95154">
        <ele>290</ele>
        <time>2017-12-07T10:35:21Z</time>
      </trkpt>
      <trkpt lat="45.94996" lon="4.95161">
        <ele>290</ele>
        <time>2017-12-07T10:35:22Z</time>
      </trkpt>
      <trkpt lat="45.94996" lon="4.95169">
        <ele>290</ele>
        <time>2017-12-07T10:35:23Z</time>
      </trkpt>
      <trkpt lat="45.94996" lon="4.95175">
        <ele>290</ele>
        <time>2017-12-07T10:35:24Z</time>
      </trkpt>
      <trkpt lat="45.94996" lon="4.95182">
        <ele>290</ele>
        <time>2017-12-07T10:35:25Z</time>
      </trkpt>
      <trkpt lat="45.94997" lon="4.9519">
        <ele>290</ele>
        <time>2017-12-07T10:35:26Z</time>
      </trkpt>
      <trkpt lat="45.94997" lon="4.95196">
        <ele>290</ele>
        <time>2017-12-07T10:35:27Z</time>
      </trkpt>
      <trkpt lat="45.94999" lon="4.95203">
        <ele>290</ele>
        <time>2017-12-07T10:35:28Z</time>
      </trkpt>
      <trkpt lat="45.95" lon="4.95209">
        <ele>290</ele>
        <time>2017-12-07T10:35:29Z</time>
      </trkpt>
      <trkpt lat="45.95002" lon="4.95218">
        <ele>290</ele>
        <time>2017-12-07T10:35:30Z</time>
      </trkpt>
      <trkpt lat="45.95003" lon="4.95225">
        <ele>290</ele>
        <time>2017-12-07T10:35:31Z</time>
      </trkpt>
      <trkpt lat="45.95005" lon="4.95232">
        <ele>290</ele>
        <time>2017-12-07T10:35:32Z</time>
      </trkpt>
      <trkpt lat="45.95006" lon="4.9524">
        <ele>290</ele>
        <time>2017-12-07T10:35:33Z</time>
      </trkpt>
      <trkpt lat="45.95007" lon="4.95248">
        <ele>290</ele>
        <time>2017-12-07T10:35:34Z</time>
      </trkpt>
      <trkpt lat="45.95008" lon="4.95255">
        <ele>290</ele>
        <time>2017-12-07T10:35:35Z</time>
      </trkpt>
      <trkpt lat="45.95008" lon="4.95263">
        <ele>289</ele>
        <time>2017-12-07T10:35:36Z</time>
      </trkpt>
      <trkpt lat="45.95009" lon="4.95272">
        <ele>289</ele>
        <time>2017-12-07T10:35:37Z</time>
      </trkpt>
      <trkpt lat="45.95009" lon="4.95279">
        <ele>289</ele>
        <time>2017-12-07T10:35:38Z</time>
      </trkpt>
      <trkpt lat="45.9501" lon="4.95286">
        <ele>289</ele>
        <time>2017-12-07T10:35:39Z</time>
      </trkpt>
      <trkpt lat="45.95012" lon="4.95293">
        <ele>289</ele>
        <time>2017-12-07T10:35:40Z</time>
      </trkpt>
      <trkpt lat="45.95014" lon="4.953">
        <ele>289</ele>
        <time>2017-12-07T10:35:41Z</time>
      </trkpt>
      <trkpt lat="45.95015" lon="4.95306">
        <ele>289</ele>
        <time>2017-12-07T10:35:42Z</time>
      </trkpt>
      <trkpt lat="45.95015" lon="4.95312">
        <ele>289</ele>
        <time>2017-12-07T10:35:43Z</time>
      </trkpt>
      <trkpt lat="45.95016" lon="4.9532">
        <ele>289</ele>
        <time>2017-12-07T10:35:44Z</time>
      </trkpt>
      <trkpt lat="45.95015" lon="4.95329">
        <ele>289</ele>
        <time>2017-12-07T10:35:45Z</time>
      </trkpt>
      <trkpt lat="45.95014" lon="4.95336">
        <ele>289</ele>
        <time>2017-12-07T10:35:46Z</time>
      </trkpt>
      <trkpt lat="45.95015" lon="4.95343">
        <ele>289</ele>
        <time>2017-12-07T10:35:47Z</time>
      </trkpt>
      <trkpt lat="45.95015" lon="4.95351">
        <ele>289</ele>
        <time>2017-12-07T10:35:48Z</time>
      </trkpt>
      <trkpt lat="45.95015" lon="4.95357">
        <ele>289</ele>
        <time>2017-12-07T10:35:49Z</time>
      </trkpt>
      <trkpt lat="45.95016" lon="4.95364">
        <ele>289</ele>
        <time>2017-12-07T10:35:50Z</time>
      </trkpt>
      <trkpt lat="45.95016" lon="4.95371">
        <ele>288</ele>
        <time>2017-12-07T10:35:51Z</time>
      </trkpt>
      <trkpt lat="45.95016" lon="4.95378">
        <ele>288</ele>
        <time>2017-12-07T10:35:52Z</time>
      </trkpt>
      <trkpt lat="45.95016" lon="4.95386">
        <ele>288</ele>
        <time>2017-12-07T10:35:53Z</time>
      </trkpt>
      <trkpt lat="45.95016" lon="4.95394">
        <ele>288</ele>
        <time>2017-12-07T10:35:54Z</time>
      </trkpt>
      <trkpt lat="45.95016" lon="4.95403">
        <ele>288</ele>
        <time>2017-12-07T10:35:55Z</time>
      </trkpt>
      <trkpt lat="45.95016" lon="4.95412">
        <ele>288</ele>
        <time>2017-12-07T10:35:56Z</time>
      </trkpt>
      <trkpt lat="45.95015" lon="4.9542">
        <ele>288</ele>
        <time>2017-12-07T10:35:57Z</time>
      </trkpt>
      <trkpt lat="45.95014" lon="4.95427">
        <ele>288</ele>
        <time>2017-12-07T10:35:58Z</time>
      </trkpt>
      <trkpt lat="45.95013" lon="4.95435">
        <ele>288</ele>
        <time>2017-12-07T10:35:59Z</time>
      </trkpt>
      <trkpt lat="45.95013" lon="4.95442">
        <ele>288</ele>
        <time>2017-12-07T10:36:00Z</time>
      </trkpt>
      <trkpt lat="45.95011" lon="4.95449">
        <ele>288</ele>
        <time>2017-12-07T10:36:01Z</time>
      </trkpt>
      <trkpt lat="45.95011" lon="4.95457">
        <ele>288</ele>
        <time>2017-12-07T10:36:02Z</time>
      </trkpt>
      <trkpt lat="45.95011" lon="4.95465">
        <ele>288</ele>
        <time>2017-12-07T10:36:03Z</time>
      </trkpt>
      <trkpt lat="45.95012" lon="4.95472">
        <ele>288</ele>
        <time>2017-12-07T10:36:04Z</time>
      </trkpt>
      <trkpt lat="45.95012" lon="4.95481">
        <ele>288</ele>
        <time>2017-12-07T10:36:05Z</time>
      </trkpt>
      <trkpt lat="45.95012" lon="4.95487">
        <ele>288</ele>
        <time>2017-12-07T10:36:06Z</time>
      </trkpt>
      <trkpt lat="45.95013" lon="4.95495">
        <ele>288</ele>
        <time>2017-12-07T10:36:07Z</time>
      </trkpt>
      <trkpt lat="45.95013" lon="4.95503">
        <ele>287</ele>
        <time>2017-12-07T10:36:08Z</time>
      </trkpt>
      <trkpt lat="45.95014" lon="4.95511">
        <ele>287</ele>
        <time>2017-12-07T10:36:09Z</time>
      </trkpt>
      <trkpt lat="45.95016" lon="4.9552">
        <ele>287</ele>
        <time>2017-12-07T10:36:10Z</time>
      </trkpt>
      <trkpt lat="45.95017" lon="4.95528">
        <ele>287</ele>
        <time>2017-12-07T10:36:11Z</time>
      </trkpt>
      <trkpt lat="45.95019" lon="4.95535">
        <ele>287</ele>
        <time>2017-12-07T10:36:12Z</time>
      </trkpt>
      <trkpt lat="45.95019" lon="4.95544">
        <ele>287</ele>
        <time>2017-12-07T10:36:13Z</time>
      </trkpt>
      <trkpt lat="45.95021" lon="4.95551">
        <ele>287</ele>
        <time>2017-12-07T10:36:14Z</time>
      </trkpt>
      <trkpt lat="45.95023" lon="4.9556">
        <ele>287</ele>
        <time>2017-12-07T10:36:15Z</time>
      </trkpt>
      <trkpt lat="45.95025" lon="4.95568">
        <ele>287</ele>
        <time>2017-12-07T10:36:16Z</time>
      </trkpt>
      <trkpt lat="45.95028" lon="4.95575">
        <ele>286</ele>
        <time>2017-12-07T10:36:17Z</time>
      </trkpt>
      <trkpt lat="45.95031" lon="4.95583">
        <ele>286</ele>
        <time>2017-12-07T10:36:18Z</time>
      </trkpt>
      <trkpt lat="45.95033" lon="4.95592">
        <ele>286</ele>
        <time>2017-12-07T10:36:19Z</time>
      </trkpt>
      <trkpt lat="45.95037" lon="4.95602">
        <ele>286</ele>
        <time>2017-12-07T10:36:20Z</time>
      </trkpt>
      <trkpt lat="45.95038" lon="4.9561">
        <ele>286</ele>
        <time>2017-12-07T10:36:21Z</time>
      </trkpt>
      <trkpt lat="45.95043" lon="4.9562">
        <ele>286</ele>
        <time>2017-12-07T10:36:22Z</time>
      </trkpt>
      <trkpt lat="45.95047" lon="4.95627">
        <ele>286</ele>
        <time>2017-12-07T10:36:23Z</time>
      </trkpt>
      <trkpt lat="45.9505" lon="4.95635">
        <ele>286</ele>
        <time>2017-12-07T10:36:24Z</time>
      </trkpt>
      <trkpt lat="45.95053" lon="4.95642">
        <ele>286</ele>
        <time>2017-12-07T10:36:25Z</time>
      </trkpt>
      <trkpt lat="45.95056" lon="4.9565">
        <ele>286</ele>
        <time>2017-12-07T10:36:26Z</time>
      </trkpt>
      <trkpt lat="45.9506" lon="4.95658">
        <ele>286</ele>
        <time>2017-12-07T10:36:27Z</time>
      </trkpt>
      <trkpt lat="45.95062" lon="4.95667">
        <ele>286</ele>
        <time>2017-12-07T10:36:28Z</time>
      </trkpt>
      <trkpt lat="45.95065" lon="4.95675">
        <ele>286</ele>
        <time>2017-12-07T10:36:29Z</time>
      </trkpt>
      <trkpt lat="45.95069" lon="4.95682">
        <ele>286</ele>
        <time>2017-12-07T10:36:30Z</time>
      </trkpt>
      <trkpt lat="45.95072" lon="4.9569">
        <ele>286</ele>
        <time>2017-12-07T10:36:31Z</time>
      </trkpt>
      <trkpt lat="45.95074" lon="4.95696">
        <ele>286</ele>
        <time>2017-12-07T10:36:32Z</time>
      </trkpt>
      <trkpt lat="45.95077" lon="4.95704">
        <ele>286</ele>
        <time>2017-12-07T10:36:33Z</time>
      </trkpt>
      <trkpt lat="45.95079" lon="4.9571">
        <ele>286</ele>
        <time>2017-12-07T10:36:34Z</time>
      </trkpt>
      <trkpt lat="45.95081" lon="4.95716">
        <ele>286</ele>
        <time>2017-12-07T10:36:35Z</time>
      </trkpt>
      <trkpt lat="45.95084" lon="4.95723">
        <ele>285</ele>
        <time>2017-12-07T10:36:36Z</time>
      </trkpt>
      <trkpt lat="45.95085" lon="4.95732">
        <ele>285</ele>
        <time>2017-12-07T10:36:37Z</time>
      </trkpt>
      <trkpt lat="45.95087" lon="4.9574">
        <ele>285</ele>
        <time>2017-12-07T10:36:38Z</time>
      </trkpt>
      <trkpt lat="45.95087" lon="4.95748">
        <ele>286</ele>
        <time>2017-12-07T10:36:39Z</time>
      </trkpt>
      <trkpt lat="45.9509" lon="4.95758">
        <ele>285</ele>
        <time>2017-12-07T10:36:40Z</time>
      </trkpt>
      <trkpt lat="45.95092" lon="4.95767">
        <ele>285</ele>
        <time>2017-12-07T10:36:41Z</time>
      </trkpt>
      <trkpt lat="45.95095" lon="4.95776">
        <ele>285</ele>
        <time>2017-12-07T10:36:42Z</time>
      </trkpt>
      <trkpt lat="45.95098" lon="4.95785">
        <ele>285</ele>
        <time>2017-12-07T10:36:43Z</time>
      </trkpt>
      <trkpt lat="45.951" lon="4.95793">
        <ele>285</ele>
        <time>2017-12-07T10:36:44Z</time>
      </trkpt>
      <trkpt lat="45.95101" lon="4.95801">
        <ele>285</ele>
        <time>2017-12-07T10:36:45Z</time>
      </trkpt>
      <trkpt lat="45.95102" lon="4.9581">
        <ele>285</ele>
        <time>2017-12-07T10:36:46Z</time>
      </trkpt>
      <trkpt lat="45.95104" lon="4.95818">
        <ele>285</ele>
        <time>2017-12-07T10:36:47Z</time>
      </trkpt>
      <trkpt lat="45.95106" lon="4.95827">
        <ele>285</ele>
        <time>2017-12-07T10:36:48Z</time>
      </trkpt>
      <trkpt lat="45.95108" lon="4.95834">
        <ele>285</ele>
        <time>2017-12-07T10:36:49Z</time>
      </trkpt>
      <trkpt lat="45.95109" lon="4.95842">
        <ele>285</ele>
        <time>2017-12-07T10:36:50Z</time>
      </trkpt>
      <trkpt lat="45.95111" lon="4.95849">
        <ele>285</ele>
        <time>2017-12-07T10:36:51Z</time>
      </trkpt>
      <trkpt lat="45.95113" lon="4.95857">
        <ele>285</ele>
        <time>2017-12-07T10:36:52Z</time>
      </trkpt>
      <trkpt lat="45.95115" lon="4.95865">
        <ele>285</ele>
        <time>2017-12-07T10:36:53Z</time>
      </trkpt>
      <trkpt lat="45.95117" lon="4.95873">
        <ele>285</ele>
        <time>2017-12-07T10:36:54Z</time>
      </trkpt>
      <trkpt lat="45.95119" lon="4.95881">
        <ele>285</ele>
        <time>2017-12-07T10:36:55Z</time>
      </trkpt>
      <trkpt lat="45.9512" lon="4.95891">
        <ele>285</ele>
        <time>2017-12-07T10:36:56Z</time>
      </trkpt>
      <trkpt lat="45.95122" lon="4.959">
        <ele>285</ele>
        <time>2017-12-07T10:36:57Z</time>
      </trkpt>
      <trkpt lat="45.95123" lon="4.95907">
        <ele>285</ele>
        <time>2017-12-07T10:36:58Z</time>
      </trkpt>
      <trkpt lat="45.95125" lon="4.95915">
        <ele>285</ele>
        <time>2017-12-07T10:36:59Z</time>
      </trkpt>
      <trkpt lat="45.95127" lon="4.95923">
        <ele>284</ele>
        <time>2017-12-07T10:37:00Z</time>
      </trkpt>
      <trkpt lat="45.95129" lon="4.95931">
        <ele>284</ele>
        <time>2017-12-07T10:37:01Z</time>
      </trkpt>
      <trkpt lat="45.9513" lon="4.95939">
        <ele>284</ele>
        <time>2017-12-07T10:37:02Z</time>
      </trkpt>
      <trkpt lat="45.95132" lon="4.95948">
        <ele>284</ele>
        <time>2017-12-07T10:37:03Z</time>
      </trkpt>
      <trkpt lat="45.95133" lon="4.95955">
        <ele>284</ele>
        <time>2017-12-07T10:37:04Z</time>
      </trkpt>
      <trkpt lat="45.95135" lon="4.95963">
        <ele>285</ele>
        <time>2017-12-07T10:37:05Z</time>
      </trkpt>
      <trkpt lat="45.95137" lon="4.9597">
        <ele>285</ele>
        <time>2017-12-07T10:37:06Z</time>
      </trkpt>
      <trkpt lat="45.95139" lon="4.95977">
        <ele>285</ele>
        <time>2017-12-07T10:37:07Z</time>
      </trkpt>
      <trkpt lat="45.95139" lon="4.95984">
        <ele>285</ele>
        <time>2017-12-07T10:37:08Z</time>
      </trkpt>
      <trkpt lat="45.95141" lon="4.95992">
        <ele>285</ele>
        <time>2017-12-07T10:37:09Z</time>
      </trkpt>
      <trkpt lat="45.95143" lon="4.95998">
        <ele>285</ele>
        <time>2017-12-07T10:37:10Z</time>
      </trkpt>
      <trkpt lat="45.95144" lon="4.96005">
        <ele>285</ele>
        <time>2017-12-07T10:37:11Z</time>
      </trkpt>
      <trkpt lat="45.95145" lon="4.96011">
        <ele>285</ele>
        <time>2017-12-07T10:37:12Z</time>
      </trkpt>
      <trkpt lat="45.95148" lon="4.96018">
        <ele>285</ele>
        <time>2017-12-07T10:37:13Z</time>
      </trkpt>
      <trkpt lat="45.95149" lon="4.96024">
        <ele>285</ele>
        <time>2017-12-07T10:37:14Z</time>
      </trkpt>
      <trkpt lat="45.9515" lon="4.9603">
        <ele>285</ele>
        <time>2017-12-07T10:37:15Z</time>
      </trkpt>
      <trkpt lat="45.95153" lon="4.96041">
        <ele>285</ele>
        <time>2017-12-07T10:37:17Z</time>
      </trkpt>
      <trkpt lat="45.95154" lon="4.96046">
        <ele>285</ele>
        <time>2017-12-07T10:37:18Z</time>
      </trkpt>
      <trkpt lat="45.95156" lon="4.96054">
        <ele>285</ele>
        <time>2017-12-07T10:37:19Z</time>
      </trkpt>
      <trkpt lat="45.95159" lon="4.96061">
        <ele>285</ele>
        <time>2017-12-07T10:37:20Z</time>
      </trkpt>
      <trkpt lat="45.95161" lon="4.96073">
        <ele>286</ele>
        <time>2017-12-07T10:37:22Z</time>
      </trkpt>
      <trkpt lat="45.95161" lon="4.96077">
        <ele>286</ele>
        <time>2017-12-07T10:37:23Z</time>
      </trkpt>
      <trkpt lat="45.95163" lon="4.96086">
        <ele>286</ele>
        <time>2017-12-07T10:37:24Z</time>
      </trkpt>
      <trkpt lat="45.95164" lon="4.96091">
        <ele>286</ele>
        <time>2017-12-07T10:37:25Z</time>
      </trkpt>
      <trkpt lat="45.95164" lon="4.96098">
        <ele>286</ele>
        <time>2017-12-07T10:37:26Z</time>
      </trkpt>
      <trkpt lat="45.95164" lon="4.96106">
        <ele>286</ele>
        <time>2017-12-07T10:37:27Z</time>
      </trkpt>
      <trkpt lat="45.95164" lon="4.96112">
        <ele>286</ele>
        <time>2017-12-07T10:37:28Z</time>
      </trkpt>
      <trkpt lat="45.95163" lon="4.96119">
        <ele>286</ele>
        <time>2017-12-07T10:37:29Z</time>
      </trkpt>
      <trkpt lat="45.95163" lon="4.96127">
        <ele>286</ele>
        <time>2017-12-07T10:37:30Z</time>
      </trkpt>
      <trkpt lat="45.95161" lon="4.96135">
        <ele>286</ele>
        <time>2017-12-07T10:37:31Z</time>
      </trkpt>
      <trkpt lat="45.95161" lon="4.96143">
        <ele>286</ele>
        <time>2017-12-07T10:37:32Z</time>
      </trkpt>
      <trkpt lat="45.95161" lon="4.96151">
        <ele>286</ele>
        <time>2017-12-07T10:37:33Z</time>
      </trkpt>
      <trkpt lat="45.95161" lon="4.96159">
        <ele>286</ele>
        <time>2017-12-07T10:37:34Z</time>
      </trkpt>
      <trkpt lat="45.95161" lon="4.96166">
        <ele>286</ele>
        <time>2017-12-07T10:37:35Z</time>
      </trkpt>
      <trkpt lat="45.95161" lon="4.96174">
        <ele>286</ele>
        <time>2017-12-07T10:37:36Z</time>
      </trkpt>
      <trkpt lat="45.95162" lon="4.96181">
        <ele>286</ele>
        <time>2017-12-07T10:37:37Z</time>
      </trkpt>
      <trkpt lat="45.95162" lon="4.96193">
        <ele>286</ele>
        <time>2017-12-07T10:37:39Z</time>
      </trkpt>
      <trkpt lat="45.95162" lon="4.962">
        <ele>286</ele>
        <time>2017-12-07T10:37:40Z</time>
      </trkpt>
      <trkpt lat="45.95161" lon="4.96207">
        <ele>286</ele>
        <time>2017-12-07T10:37:41Z</time>
      </trkpt>
      <trkpt lat="45.9516" lon="4.96214">
        <ele>286</ele>
        <time>2017-12-07T10:37:42Z</time>
      </trkpt>
      <trkpt lat="45.95161" lon="4.96221">
        <ele>286</ele>
        <time>2017-12-07T10:37:43Z</time>
      </trkpt>
      <trkpt lat="45.9516" lon="4.96229">
        <ele>286</ele>
        <time>2017-12-07T10:37:44Z</time>
      </trkpt>
      <trkpt lat="45.9516" lon="4.96236">
        <ele>286</ele>
        <time>2017-12-07T10:37:45Z</time>
      </trkpt>
      <trkpt lat="45.9516" lon="4.96243">
        <ele>286</ele>
        <time>2017-12-07T10:37:46Z</time>
      </trkpt>
      <trkpt lat="45.95158" lon="4.96249">
        <ele>286</ele>
        <time>2017-12-07T10:37:47Z</time>
      </trkpt>
      <trkpt lat="45.95156" lon="4.96255">
        <ele>286</ele>
        <time>2017-12-07T10:37:48Z</time>
      </trkpt>
      <trkpt lat="45.95155" lon="4.96261">
        <ele>286</ele>
        <time>2017-12-07T10:37:49Z</time>
      </trkpt>
      <trkpt lat="45.95153" lon="4.96268">
        <ele>285</ele>
        <time>2017-12-07T10:37:50Z</time>
      </trkpt>
      <trkpt lat="45.9515" lon="4.96279">
        <ele>285</ele>
        <time>2017-12-07T10:37:52Z</time>
      </trkpt>
      <trkpt lat="45.95148" lon="4.96285">
        <ele>285</ele>
        <time>2017-12-07T10:37:53Z</time>
      </trkpt>
      <trkpt lat="45.95145" lon="4.96291">
        <ele>285</ele>
        <time>2017-12-07T10:37:54Z</time>
      </trkpt>
      <trkpt lat="45.95143" lon="4.96297">
        <ele>285</ele>
        <time>2017-12-07T10:37:55Z</time>
      </trkpt>
      <trkpt lat="45.95139" lon="4.96306">
        <ele>285</ele>
        <time>2017-12-07T10:37:57Z</time>
      </trkpt>
      <trkpt lat="45.95138" lon="4.96313">
        <ele>285</ele>
        <time>2017-12-07T10:37:58Z</time>
      </trkpt>
      <trkpt lat="45.95136" lon="4.96318">
        <ele>285</ele>
        <time>2017-12-07T10:37:59Z</time>
      </trkpt>
      <trkpt lat="45.95134" lon="4.96326">
        <ele>285</ele>
        <time>2017-12-07T10:38:00Z</time>
      </trkpt>
      <trkpt lat="45.95132" lon="4.96331">
        <ele>285</ele>
        <time>2017-12-07T10:38:01Z</time>
      </trkpt>
      <trkpt lat="45.9513" lon="4.96338">
        <ele>286</ele>
        <time>2017-12-07T10:38:02Z</time>
      </trkpt>
      <trkpt lat="45.95128" lon="4.96345">
        <ele>286</ele>
        <time>2017-12-07T10:38:03Z</time>
      </trkpt>
      <trkpt lat="45.95125" lon="4.96351">
        <ele>286</ele>
        <time>2017-12-07T10:38:04Z</time>
      </trkpt>
      <trkpt lat="45.95123" lon="4.96356">
        <ele>286</ele>
        <time>2017-12-07T10:38:05Z</time>
      </trkpt>
      <trkpt lat="45.9512" lon="4.96363">
        <ele>286</ele>
        <time>2017-12-07T10:38:06Z</time>
      </trkpt>
      <trkpt lat="45.95118" lon="4.9637">
        <ele>286</ele>
        <time>2017-12-07T10:38:07Z</time>
      </trkpt>
      <trkpt lat="45.95116" lon="4.96376">
        <ele>286</ele>
        <time>2017-12-07T10:38:08Z</time>
      </trkpt>
      <trkpt lat="45.95113" lon="4.96383">
        <ele>286</ele>
        <time>2017-12-07T10:38:09Z</time>
      </trkpt>
      <trkpt lat="45.95111" lon="4.96389">
        <ele>286</ele>
        <time>2017-12-07T10:38:10Z</time>
      </trkpt>
      <trkpt lat="45.95107" lon="4.964">
        <ele>286</ele>
        <time>2017-12-07T10:38:12Z</time>
      </trkpt>
      <trkpt lat="45.95105" lon="4.96406">
        <ele>286</ele>
        <time>2017-12-07T10:38:13Z</time>
      </trkpt>
      <trkpt lat="45.95101" lon="4.96412">
        <ele>286</ele>
        <time>2017-12-07T10:38:14Z</time>
      </trkpt>
      <trkpt lat="45.95099" lon="4.96418">
        <ele>286</ele>
        <time>2017-12-07T10:38:15Z</time>
      </trkpt>
      <trkpt lat="45.95097" lon="4.96424">
        <ele>286</ele>
        <time>2017-12-07T10:38:16Z</time>
      </trkpt>
      <trkpt lat="45.95096" lon="4.96431">
        <ele>286</ele>
        <time>2017-12-07T10:38:17Z</time>
      </trkpt>
      <trkpt lat="45.95094" lon="4.96437">
        <ele>287</ele>
        <time>2017-12-07T10:38:18Z</time>
      </trkpt>
      <trkpt lat="45.95092" lon="4.96443">
        <ele>287</ele>
        <time>2017-12-07T10:38:19Z</time>
      </trkpt>
      <trkpt lat="45.95089" lon="4.96447">
        <ele>287</ele>
        <time>2017-12-07T10:38:20Z</time>
      </trkpt>
      <trkpt lat="45.95087" lon="4.96454">
        <ele>287</ele>
        <time>2017-12-07T10:38:21Z</time>
      </trkpt>
      <trkpt lat="45.95083" lon="4.96466">
        <ele>287</ele>
        <time>2017-12-07T10:38:23Z</time>
      </trkpt>
      <trkpt lat="45.95081" lon="4.96472">
        <ele>287</ele>
        <time>2017-12-07T10:38:24Z</time>
      </trkpt>
      <trkpt lat="45.95078" lon="4.96478">
        <ele>287</ele>
        <time>2017-12-07T10:38:25Z</time>
      </trkpt>
      <trkpt lat="45.95076" lon="4.96487">
        <ele>287</ele>
        <time>2017-12-07T10:38:26Z</time>
      </trkpt>
      <trkpt lat="45.95074" lon="4.96494">
        <ele>287</ele>
        <time>2017-12-07T10:38:27Z</time>
      </trkpt>
      <trkpt lat="45.95072" lon="4.96501">
        <ele>288</ele>
        <time>2017-12-07T10:38:28Z</time>
      </trkpt>
      <trkpt lat="45.95069" lon="4.96513">
        <ele>288</ele>
        <time>2017-12-07T10:38:30Z</time>
      </trkpt>
      <trkpt lat="45.95067" lon="4.9652">
        <ele>288</ele>
        <time>2017-12-07T10:38:31Z</time>
      </trkpt>
      <trkpt lat="45.95065" lon="4.96527">
        <ele>287</ele>
        <time>2017-12-07T10:38:32Z</time>
      </trkpt>
      <trkpt lat="45.95063" lon="4.96533">
        <ele>287</ele>
        <time>2017-12-07T10:38:33Z</time>
      </trkpt>
      <trkpt lat="45.95061" lon="4.9654">
        <ele>287</ele>
        <time>2017-12-07T10:38:34Z</time>
      </trkpt>
      <trkpt lat="45.95058" lon="4.96546">
        <ele>287</ele>
        <time>2017-12-07T10:38:35Z</time>
      </trkpt>
      <trkpt lat="45.95056" lon="4.96551">
        <ele>287</ele>
        <time>2017-12-07T10:38:36Z</time>
      </trkpt>
      <trkpt lat="45.95054" lon="4.96558">
        <ele>287</ele>
        <time>2017-12-07T10:38:37Z</time>
      </trkpt>
      <trkpt lat="45.95053" lon="4.96564">
        <ele>287</ele>
        <time>2017-12-07T10:38:38Z</time>
      </trkpt>
      <trkpt lat="45.95051" lon="4.9657">
        <ele>287</ele>
        <time>2017-12-07T10:38:39Z</time>
      </trkpt>
      <trkpt lat="45.95049" lon="4.96581">
        <ele>287</ele>
        <time>2017-12-07T10:38:41Z</time>
      </trkpt>
      <trkpt lat="45.95048" lon="4.96587">
        <ele>288</ele>
        <time>2017-12-07T10:38:42Z</time>
      </trkpt>
      <trkpt lat="45.95046" lon="4.96594">
        <ele>288</ele>
        <time>2017-12-07T10:38:43Z</time>
      </trkpt>
      <trkpt lat="45.95045" lon="4.966">
        <ele>288</ele>
        <time>2017-12-07T10:38:44Z</time>
      </trkpt>
      <trkpt lat="45.95045" lon="4.96607">
        <ele>288</ele>
        <time>2017-12-07T10:38:45Z</time>
      </trkpt>
      <trkpt lat="45.95045" lon="4.96614">
        <ele>288</ele>
        <time>2017-12-07T10:38:46Z</time>
      </trkpt>
      <trkpt lat="45.95045" lon="4.96621">
        <ele>288</ele>
        <time>2017-12-07T10:38:47Z</time>
      </trkpt>
      <trkpt lat="45.95044" lon="4.9663">
        <ele>287</ele>
        <time>2017-12-07T10:38:48Z</time>
      </trkpt>
      <trkpt lat="45.95044" lon="4.96637">
        <ele>287</ele>
        <time>2017-12-07T10:38:49Z</time>
      </trkpt>
      <trkpt lat="45.95044" lon="4.96644">
        <ele>287</ele>
        <time>2017-12-07T10:38:50Z</time>
      </trkpt>
      <trkpt lat="45.95044" lon="4.9665">
        <ele>287</ele>
        <time>2017-12-07T10:38:51Z</time>
      </trkpt>
      <trkpt lat="45.95042" lon="4.96658">
        <ele>287</ele>
        <time>2017-12-07T10:38:52Z</time>
      </trkpt>
      <trkpt lat="45.9504" lon="4.96671">
        <ele>287</ele>
        <time>2017-12-07T10:38:54Z</time>
      </trkpt>
      <trkpt lat="45.95041" lon="4.96677">
        <ele>287</ele>
        <time>2017-12-07T10:38:55Z</time>
      </trkpt>
      <trkpt lat="45.95041" lon="4.96684">
        <ele>287</ele>
        <time>2017-12-07T10:38:56Z</time>
      </trkpt>
      <trkpt lat="45.95041" lon="4.96692">
        <ele>287</ele>
        <time>2017-12-07T10:38:57Z</time>
      </trkpt>
      <trkpt lat="45.95041" lon="4.967">
        <ele>287</ele>
        <time>2017-12-07T10:38:58Z</time>
      </trkpt>
      <trkpt lat="45.95041" lon="4.96709">
        <ele>287</ele>
        <time>2017-12-07T10:38:59Z</time>
      </trkpt>
      <trkpt lat="45.95041" lon="4.96716">
        <ele>287</ele>
        <time>2017-12-07T10:39:00Z</time>
      </trkpt>
      <trkpt lat="45.95042" lon="4.96724">
        <ele>287</ele>
        <time>2017-12-07T10:39:01Z</time>
      </trkpt>
      <trkpt lat="45.95042" lon="4.96732">
        <ele>287</ele>
        <time>2017-12-07T10:39:02Z</time>
      </trkpt>
      <trkpt lat="45.95042" lon="4.96739">
        <ele>287</ele>
        <time>2017-12-07T10:39:03Z</time>
      </trkpt>
      <trkpt lat="45.95042" lon="4.96746">
        <ele>287</ele>
        <time>2017-12-07T10:39:04Z</time>
      </trkpt>
      <trkpt lat="45.95043" lon="4.96755">
        <ele>287</ele>
        <time>2017-12-07T10:39:05Z</time>
      </trkpt>
      <trkpt lat="45.95043" lon="4.96761">
        <ele>287</ele>
        <time>2017-12-07T10:39:06Z</time>
      </trkpt>
      <trkpt lat="45.95043" lon="4.96768">
        <ele>287</ele>
        <time>2017-12-07T10:39:07Z</time>
      </trkpt>
      <trkpt lat="45.95043" lon="4.9678">
        <ele>287</ele>
        <time>2017-12-07T10:39:09Z</time>
      </trkpt>
      <trkpt lat="45.95042" lon="4.96785">
        <ele>287</ele>
        <time>2017-12-07T10:39:10Z</time>
      </trkpt>
      <trkpt lat="45.95042" lon="4.96796">
        <ele>286</ele>
        <time>2017-12-07T10:39:12Z</time>
      </trkpt>
      <trkpt lat="45.95043" lon="4.96802">
        <ele>286</ele>
        <time>2017-12-07T10:39:13Z</time>
      </trkpt>
      <trkpt lat="45.95043" lon="4.96809">
        <ele>286</ele>
        <time>2017-12-07T10:39:14Z</time>
      </trkpt>
      <trkpt lat="45.95043" lon="4.96816">
        <ele>286</ele>
        <time>2017-12-07T10:39:15Z</time>
      </trkpt>
      <trkpt lat="45.95042" lon="4.96829">
        <ele>286</ele>
        <time>2017-12-07T10:39:17Z</time>
      </trkpt>
      <trkpt lat="45.95041" lon="4.96834">
        <ele>286</ele>
        <time>2017-12-07T10:39:18Z</time>
      </trkpt>
      <trkpt lat="45.95041" lon="4.96842">
        <ele>286</ele>
        <time>2017-12-07T10:39:19Z</time>
      </trkpt>
      <trkpt lat="45.95041" lon="4.9685">
        <ele>286</ele>
        <time>2017-12-07T10:39:20Z</time>
      </trkpt>
      <trkpt lat="45.95042" lon="4.96859">
        <ele>286</ele>
        <time>2017-12-07T10:39:21Z</time>
      </trkpt>
      <trkpt lat="45.95043" lon="4.96866">
        <ele>286</ele>
        <time>2017-12-07T10:39:22Z</time>
      </trkpt>
      <trkpt lat="45.95043" lon="4.96873">
        <ele>286</ele>
        <time>2017-12-07T10:39:23Z</time>
      </trkpt>
      <trkpt lat="45.95043" lon="4.96881">
        <ele>286</ele>
        <time>2017-12-07T10:39:24Z</time>
      </trkpt>
      <trkpt lat="45.95044" lon="4.96888">
        <ele>286</ele>
        <time>2017-12-07T10:39:25Z</time>
      </trkpt>
      <trkpt lat="45.95044" lon="4.96896">
        <ele>286</ele>
        <time>2017-12-07T10:39:26Z</time>
      </trkpt>
      <trkpt lat="45.95045" lon="4.96903">
        <ele>286</ele>
        <time>2017-12-07T10:39:27Z</time>
      </trkpt>
      <trkpt lat="45.95045" lon="4.96909">
        <ele>286</ele>
        <time>2017-12-07T10:39:28Z</time>
      </trkpt>
      <trkpt lat="45.95046" lon="4.96916">
        <ele>286</ele>
        <time>2017-12-07T10:39:29Z</time>
      </trkpt>
      <trkpt lat="45.95046" lon="4.96922">
        <ele>285</ele>
        <time>2017-12-07T10:39:30Z</time>
      </trkpt>
      <trkpt lat="45.95047" lon="4.9693">
        <ele>285</ele>
        <time>2017-12-07T10:39:31Z</time>
      </trkpt>
      <trkpt lat="45.95047" lon="4.96937">
        <ele>285</ele>
        <time>2017-12-07T10:39:32Z</time>
      </trkpt>
      <trkpt lat="45.95047" lon="4.96945">
        <ele>285</ele>
        <time>2017-12-07T10:39:33Z</time>
      </trkpt>
      <trkpt lat="45.95049" lon="4.96952">
        <ele>285</ele>
        <time>2017-12-07T10:39:34Z</time>
      </trkpt>
      <trkpt lat="45.95049" lon="4.9696">
        <ele>285</ele>
        <time>2017-12-07T10:39:35Z</time>
      </trkpt>
      <trkpt lat="45.95049" lon="4.9697">
        <ele>285</ele>
        <time>2017-12-07T10:39:36Z</time>
      </trkpt>
      <trkpt lat="45.9505" lon="4.96977">
        <ele>285</ele>
        <time>2017-12-07T10:39:37Z</time>
      </trkpt>
      <trkpt lat="45.9505" lon="4.96984">
        <ele>285</ele>
        <time>2017-12-07T10:39:38Z</time>
      </trkpt>
      <trkpt lat="45.95051" lon="4.96991">
        <ele>285</ele>
        <time>2017-12-07T10:39:39Z</time>
      </trkpt>
      <trkpt lat="45.95051" lon="4.96998">
        <ele>285</ele>
        <time>2017-12-07T10:39:40Z</time>
      </trkpt>
      <trkpt lat="45.95051" lon="4.97004">
        <ele>285</ele>
        <time>2017-12-07T10:39:41Z</time>
      </trkpt>
      <trkpt lat="45.95052" lon="4.97011">
        <ele>285</ele>
        <time>2017-12-07T10:39:42Z</time>
      </trkpt>
      <trkpt lat="45.95052" lon="4.97023">
        <ele>285</ele>
        <time>2017-12-07T10:39:44Z</time>
      </trkpt>
      <trkpt lat="45.95051" lon="4.97029">
        <ele>285</ele>
        <time>2017-12-07T10:39:45Z</time>
      </trkpt>
      <trkpt lat="45.95052" lon="4.97041">
        <ele>285</ele>
        <time>2017-12-07T10:39:47Z</time>
      </trkpt>
      <trkpt lat="45.95053" lon="4.97048">
        <ele>285</ele>
        <time>2017-12-07T10:39:48Z</time>
      </trkpt>
      <trkpt lat="45.95053" lon="4.97055">
        <ele>285</ele>
        <time>2017-12-07T10:39:49Z</time>
      </trkpt>
      <trkpt lat="45.95053" lon="4.97063">
        <ele>285</ele>
        <time>2017-12-07T10:39:50Z</time>
      </trkpt>
      <trkpt lat="45.95054" lon="4.9707">
        <ele>285</ele>
        <time>2017-12-07T10:39:51Z</time>
      </trkpt>
      <trkpt lat="45.95054" lon="4.97078">
        <ele>285</ele>
        <time>2017-12-07T10:39:52Z</time>
      </trkpt>
      <trkpt lat="45.95054" lon="4.97086">
        <ele>285</ele>
        <time>2017-12-07T10:39:53Z</time>
      </trkpt>
      <trkpt lat="45.95054" lon="4.97094">
        <ele>285</ele>
        <time>2017-12-07T10:39:54Z</time>
      </trkpt>
      <trkpt lat="45.95054" lon="4.97101">
        <ele>285</ele>
        <time>2017-12-07T10:39:55Z</time>
      </trkpt>
      <trkpt lat="45.95055" lon="4.9711">
        <ele>285</ele>
        <time>2017-12-07T10:39:56Z</time>
      </trkpt>
      <trkpt lat="45.95055" lon="4.97117">
        <ele>285</ele>
        <time>2017-12-07T10:39:57Z</time>
      </trkpt>
      <trkpt lat="45.95055" lon="4.97124">
        <ele>285</ele>
        <time>2017-12-07T10:39:58Z</time>
      </trkpt>
      <trkpt lat="45.95056" lon="4.97137">
        <ele>285</ele>
        <time>2017-12-07T10:40:00Z</time>
      </trkpt>
      <trkpt lat="45.95057" lon="4.97143">
        <ele>285</ele>
        <time>2017-12-07T10:40:01Z</time>
      </trkpt>
      <trkpt lat="45.95057" lon="4.9715">
        <ele>285</ele>
        <time>2017-12-07T10:40:02Z</time>
      </trkpt>
      <trkpt lat="45.95057" lon="4.97157">
        <ele>285</ele>
        <time>2017-12-07T10:40:03Z</time>
      </trkpt>
      <trkpt lat="45.95058" lon="4.97164">
        <ele>285</ele>
        <time>2017-12-07T10:40:04Z</time>
      </trkpt>
      <trkpt lat="45.95058" lon="4.97171">
        <ele>285</ele>
        <time>2017-12-07T10:40:05Z</time>
      </trkpt>
      <trkpt lat="45.95059" lon="4.9718">
        <ele>285</ele>
        <time>2017-12-07T10:40:06Z</time>
      </trkpt>
      <trkpt lat="45.95059" lon="4.97187">
        <ele>285</ele>
        <time>2017-12-07T10:40:07Z</time>
      </trkpt>
      <trkpt lat="45.95059" lon="4.97195">
        <ele>285</ele>
        <time>2017-12-07T10:40:08Z</time>
      </trkpt>
      <trkpt lat="45.9506" lon="4.97202">
        <ele>285</ele>
        <time>2017-12-07T10:40:09Z</time>
      </trkpt>
      <trkpt lat="45.9506" lon="4.97209">
        <ele>285</ele>
        <time>2017-12-07T10:40:10Z</time>
      </trkpt>
      <trkpt lat="45.95061" lon="4.97216">
        <ele>285</ele>
        <time>2017-12-07T10:40:11Z</time>
      </trkpt>
      <trkpt lat="45.95061" lon="4.97223">
        <ele>285</ele>
        <time>2017-12-07T10:40:12Z</time>
      </trkpt>
      <trkpt lat="45.95061" lon="4.9723">
        <ele>285</ele>
        <time>2017-12-07T10:40:13Z</time>
      </trkpt>
      <trkpt lat="45.9506" lon="4.97238">
        <ele>285</ele>
        <time>2017-12-07T10:40:14Z</time>
      </trkpt>
      <trkpt lat="45.9506" lon="4.97246">
        <ele>285</ele>
        <time>2017-12-07T10:40:15Z</time>
      </trkpt>
      <trkpt lat="45.9506" lon="4.97253">
        <ele>285</ele>
        <time>2017-12-07T10:40:16Z</time>
      </trkpt>
      <trkpt lat="45.9506" lon="4.9726">
        <ele>285</ele>
        <time>2017-12-07T10:40:17Z</time>
      </trkpt>
      <trkpt lat="45.9506" lon="4.97267">
        <ele>285</ele>
        <time>2017-12-07T10:40:18Z</time>
      </trkpt>
      <trkpt lat="45.95061" lon="4.97274">
        <ele>285</ele>
        <time>2017-12-07T10:40:19Z</time>
      </trkpt>
      <trkpt lat="45.95062" lon="4.97281">
        <ele>285</ele>
        <time>2017-12-07T10:40:20Z</time>
      </trkpt>
      <trkpt lat="45.95063" lon="4.97288">
        <ele>285</ele>
        <time>2017-12-07T10:40:21Z</time>
      </trkpt>
      <trkpt lat="45.95063" lon="4.973">
        <ele>285</ele>
        <time>2017-12-07T10:40:23Z</time>
      </trkpt>
      <trkpt lat="45.95063" lon="4.97306">
        <ele>285</ele>
        <time>2017-12-07T10:40:24Z</time>
      </trkpt>
      <trkpt lat="45.95062" lon="4.97314">
        <ele>286</ele>
        <time>2017-12-07T10:40:25Z</time>
      </trkpt>
      <trkpt lat="45.95062" lon="4.97321">
        <ele>286</ele>
        <time>2017-12-07T10:40:26Z</time>
      </trkpt>
      <trkpt lat="45.95063" lon="4.97329">
        <ele>286</ele>
        <time>2017-12-07T10:40:27Z</time>
      </trkpt>
      <trkpt lat="45.95063" lon="4.97337">
        <ele>286</ele>
        <time>2017-12-07T10:40:28Z</time>
      </trkpt>
      <trkpt lat="45.95064" lon="4.97345">
        <ele>286</ele>
        <time>2017-12-07T10:40:29Z</time>
      </trkpt>
      <trkpt lat="45.95064" lon="4.97351">
        <ele>286</ele>
        <time>2017-12-07T10:40:30Z</time>
      </trkpt>
      <trkpt lat="45.95064" lon="4.97359">
        <ele>286</ele>
        <time>2017-12-07T10:40:31Z</time>
      </trkpt>
      <trkpt lat="45.95064" lon="4.97366">
        <ele>286</ele>
        <time>2017-12-07T10:40:32Z</time>
      </trkpt>
      <trkpt lat="45.95065" lon="4.97378">
        <ele>287</ele>
        <time>2017-12-07T10:40:34Z</time>
      </trkpt>
      <trkpt lat="45.95065" lon="4.97384">
        <ele>287</ele>
        <time>2017-12-07T10:40:35Z</time>
      </trkpt>
      <trkpt lat="45.95067" lon="4.97396">
        <ele>287</ele>
        <time>2017-12-07T10:40:37Z</time>
      </trkpt>
      <trkpt lat="45.95067" lon="4.97403">
        <ele>287</ele>
        <time>2017-12-07T10:40:38Z</time>
      </trkpt>
      <trkpt lat="45.95067" lon="4.97416">
        <ele>287</ele>
        <time>2017-12-07T10:40:40Z</time>
      </trkpt>
      <trkpt lat="45.95068" lon="4.97422">
        <ele>287</ele>
        <time>2017-12-07T10:40:41Z</time>
      </trkpt>
      <trkpt lat="45.95069" lon="4.97429">
        <ele>287</ele>
        <time>2017-12-07T10:40:42Z</time>
      </trkpt>
      <trkpt lat="45.95069" lon="4.97435">
        <ele>287</ele>
        <time>2017-12-07T10:40:43Z</time>
      </trkpt>
      <trkpt lat="45.9507" lon="4.97441">
        <ele>287</ele>
        <time>2017-12-07T10:40:44Z</time>
      </trkpt>
      <trkpt lat="45.95071" lon="4.97448">
        <ele>287</ele>
        <time>2017-12-07T10:40:45Z</time>
      </trkpt>
      <trkpt lat="45.95071" lon="4.97454">
        <ele>287</ele>
        <time>2017-12-07T10:40:46Z</time>
      </trkpt>
      <trkpt lat="45.95072" lon="4.97461">
        <ele>287</ele>
        <time>2017-12-07T10:40:47Z</time>
      </trkpt>
      <trkpt lat="45.95073" lon="4.97468">
        <ele>287</ele>
        <time>2017-12-07T10:40:48Z</time>
      </trkpt>
      <trkpt lat="45.95073" lon="4.97474">
        <ele>287</ele>
        <time>2017-12-07T10:40:49Z</time>
      </trkpt>
      <trkpt lat="45.95074" lon="4.97485">
        <ele>287</ele>
        <time>2017-12-07T10:40:51Z</time>
      </trkpt>
      <trkpt lat="45.95074" lon="4.97492">
        <ele>286</ele>
        <time>2017-12-07T10:40:52Z</time>
      </trkpt>
      <trkpt lat="45.95074" lon="4.97499">
        <ele>286</ele>
        <time>2017-12-07T10:40:53Z</time>
      </trkpt>
      <trkpt lat="45.95074" lon="4.97505">
        <ele>286</ele>
        <time>2017-12-07T10:40:54Z</time>
      </trkpt>
      <trkpt lat="45.95074" lon="4.97512">
        <ele>286</ele>
        <time>2017-12-07T10:40:55Z</time>
      </trkpt>
      <trkpt lat="45.95074" lon="4.97518">
        <ele>286</ele>
        <time>2017-12-07T10:40:56Z</time>
      </trkpt>
      <trkpt lat="45.95074" lon="4.97525">
        <ele>286</ele>
        <time>2017-12-07T10:40:57Z</time>
      </trkpt>
      <trkpt lat="45.95075" lon="4.97532">
        <ele>286</ele>
        <time>2017-12-07T10:40:58Z</time>
      </trkpt>
      <trkpt lat="45.95075" lon="4.97539">
        <ele>286</ele>
        <time>2017-12-07T10:40:59Z</time>
      </trkpt>
      <trkpt lat="45.95075" lon="4.97546">
        <ele>285</ele>
        <time>2017-12-07T10:41:00Z</time>
      </trkpt>
      <trkpt lat="45.95075" lon="4.97558">
        <ele>285</ele>
        <time>2017-12-07T10:41:02Z</time>
      </trkpt>
      <trkpt lat="45.95075" lon="4.97564">
        <ele>285</ele>
        <time>2017-12-07T10:41:03Z</time>
      </trkpt>
      <trkpt lat="45.95074" lon="4.97575">
        <ele>285</ele>
        <time>2017-12-07T10:41:05Z</time>
      </trkpt>
      <trkpt lat="45.95074" lon="4.97581">
        <ele>285</ele>
        <time>2017-12-07T10:41:06Z</time>
      </trkpt>
      <trkpt lat="45.95074" lon="4.97592">
        <ele>285</ele>
        <time>2017-12-07T10:41:08Z</time>
      </trkpt>
      <trkpt lat="45.95073" lon="4.97599">
        <ele>285</ele>
        <time>2017-12-07T10:41:09Z</time>
      </trkpt>
      <trkpt lat="45.95073" lon="4.97606">
        <ele>285</ele>
        <time>2017-12-07T10:41:10Z</time>
      </trkpt>
      <trkpt lat="45.95072" lon="4.97614">
        <ele>285</ele>
        <time>2017-12-07T10:41:11Z</time>
      </trkpt>
      <trkpt lat="45.95072" lon="4.97622">
        <ele>285</ele>
        <time>2017-12-07T10:41:12Z</time>
      </trkpt>
      <trkpt lat="45.95071" lon="4.97628">
        <ele>285</ele>
        <time>2017-12-07T10:41:13Z</time>
      </trkpt>
      <trkpt lat="45.95069" lon="4.9764">
        <ele>285</ele>
        <time>2017-12-07T10:41:15Z</time>
      </trkpt>
      <trkpt lat="45.95069" lon="4.97646">
        <ele>286</ele>
        <time>2017-12-07T10:41:16Z</time>
      </trkpt>
      <trkpt lat="45.95068" lon="4.97652">
        <ele>286</ele>
        <time>2017-12-07T10:41:17Z</time>
      </trkpt>
      <trkpt lat="45.95068" lon="4.97659">
        <ele>286</ele>
        <time>2017-12-07T10:41:18Z</time>
      </trkpt>
      <trkpt lat="45.95067" lon="4.97666">
        <ele>286</ele>
        <time>2017-12-07T10:41:19Z</time>
      </trkpt>
      <trkpt lat="45.95067" lon="4.97673">
        <ele>286</ele>
        <time>2017-12-07T10:41:20Z</time>
      </trkpt>
      <trkpt lat="45.95066" lon="4.9768">
        <ele>286</ele>
        <time>2017-12-07T10:41:21Z</time>
      </trkpt>
      <trkpt lat="45.95066" lon="4.97688">
        <ele>286</ele>
        <time>2017-12-07T10:41:22Z</time>
      </trkpt>
      <trkpt lat="45.95066" lon="4.97695">
        <ele>286</ele>
        <time>2017-12-07T10:41:23Z</time>
      </trkpt>
      <trkpt lat="45.95065" lon="4.97702">
        <ele>286</ele>
        <time>2017-12-07T10:41:24Z</time>
      </trkpt>
      <trkpt lat="45.95065" lon="4.97709">
        <ele>287</ele>
        <time>2017-12-07T10:41:25Z</time>
      </trkpt>
      <trkpt lat="45.95065" lon="4.97716">
        <ele>287</ele>
        <time>2017-12-07T10:41:26Z</time>
      </trkpt>
      <trkpt lat="45.95064" lon="4.97727">
        <ele>287</ele>
        <time>2017-12-07T10:41:28Z</time>
      </trkpt>
      <trkpt lat="45.95064" lon="4.97733">
        <ele>287</ele>
        <time>2017-12-07T10:41:29Z</time>
      </trkpt>
      <trkpt lat="45.95063" lon="4.97745">
        <ele>287</ele>
        <time>2017-12-07T10:41:31Z</time>
      </trkpt>
      <trkpt lat="45.95062" lon="4.97753">
        <ele>287</ele>
        <time>2017-12-07T10:41:32Z</time>
      </trkpt>
      <trkpt lat="45.95061" lon="4.97759">
        <ele>287</ele>
        <time>2017-12-07T10:41:33Z</time>
      </trkpt>
      <trkpt lat="45.95061" lon="4.97766">
        <ele>287</ele>
        <time>2017-12-07T10:41:34Z</time>
      </trkpt>
      <trkpt lat="45.95061" lon="4.97772">
        <ele>287</ele>
        <time>2017-12-07T10:41:35Z</time>
      </trkpt>
      <trkpt lat="45.9506" lon="4.97779">
        <ele>287</ele>
        <time>2017-12-07T10:41:36Z</time>
      </trkpt>
      <trkpt lat="45.9506" lon="4.97787">
        <ele>287</ele>
        <time>2017-12-07T10:41:37Z</time>
      </trkpt>
      <trkpt lat="45.95061" lon="4.97794">
        <ele>287</ele>
        <time>2017-12-07T10:41:38Z</time>
      </trkpt>
      <trkpt lat="45.95062" lon="4.97806">
        <ele>287</ele>
        <time>2017-12-07T10:41:40Z</time>
      </trkpt>
      <trkpt lat="45.95062" lon="4.97812">
        <ele>287</ele>
        <time>2017-12-07T10:41:41Z</time>
      </trkpt>
      <trkpt lat="45.95064" lon="4.97824">
        <ele>287</ele>
        <time>2017-12-07T10:41:43Z</time>
      </trkpt>
      <trkpt lat="45.95066" lon="4.9783">
        <ele>287</ele>
        <time>2017-12-07T10:41:44Z</time>
      </trkpt>
      <trkpt lat="45.95068" lon="4.97836">
        <ele>287</ele>
        <time>2017-12-07T10:41:45Z</time>
      </trkpt>
      <trkpt lat="45.95069" lon="4.97842">
        <ele>287</ele>
        <time>2017-12-07T10:41:46Z</time>
      </trkpt>
      <trkpt lat="45.95072" lon="4.97853">
        <ele>287</ele>
        <time>2017-12-07T10:41:48Z</time>
      </trkpt>
      <trkpt lat="45.95073" lon="4.97859">
        <ele>287</ele>
        <time>2017-12-07T10:41:49Z</time>
      </trkpt>
      <trkpt lat="45.95075" lon="4.97871">
        <ele>287</ele>
        <time>2017-12-07T10:41:51Z</time>
      </trkpt>
      <trkpt lat="45.95077" lon="4.97879">
        <ele>287</ele>
        <time>2017-12-07T10:41:52Z</time>
      </trkpt>
      <trkpt lat="45.9508" lon="4.9789">
        <ele>287</ele>
        <time>2017-12-07T10:41:54Z</time>
      </trkpt>
      <trkpt lat="45.95081" lon="4.97896">
        <ele>288</ele>
        <time>2017-12-07T10:41:55Z</time>
      </trkpt>
      <trkpt lat="45.95083" lon="4.97902">
        <ele>288</ele>
        <time>2017-12-07T10:41:56Z</time>
      </trkpt>
      <trkpt lat="45.95086" lon="4.97908">
        <ele>287</ele>
        <time>2017-12-07T10:41:57Z</time>
      </trkpt>
      <trkpt lat="45.95088" lon="4.97915">
        <ele>288</ele>
        <time>2017-12-07T10:41:58Z</time>
      </trkpt>
      <trkpt lat="45.95089" lon="4.97923">
        <ele>288</ele>
        <time>2017-12-07T10:41:59Z</time>
      </trkpt>
      <trkpt lat="45.95089" lon="4.9793">
        <ele>288</ele>
        <time>2017-12-07T10:42:00Z</time>
      </trkpt>
      <trkpt lat="45.9509" lon="4.97936">
        <ele>288</ele>
        <time>2017-12-07T10:42:01Z</time>
      </trkpt>
      <trkpt lat="45.95092" lon="4.97949">
        <ele>287</ele>
        <time>2017-12-07T10:42:03Z</time>
      </trkpt>
      <trkpt lat="45.95093" lon="4.97956">
        <ele>287</ele>
        <time>2017-12-07T10:42:04Z</time>
      </trkpt>
      <trkpt lat="45.95095" lon="4.97967">
        <ele>288</ele>
        <time>2017-12-07T10:42:06Z</time>
      </trkpt>
      <trkpt lat="45.95095" lon="4.97973">
        <ele>288</ele>
        <time>2017-12-07T10:42:07Z</time>
      </trkpt>
      <trkpt lat="45.95096" lon="4.9798">
        <ele>288</ele>
        <time>2017-12-07T10:42:08Z</time>
      </trkpt>
      <trkpt lat="45.95097" lon="4.97986">
        <ele>288</ele>
        <time>2017-12-07T10:42:09Z</time>
      </trkpt>
      <trkpt lat="45.95098" lon="4.97998">
        <ele>288</ele>
        <time>2017-12-07T10:42:11Z</time>
      </trkpt>
      <trkpt lat="45.95098" lon="4.98006">
        <ele>288</ele>
        <time>2017-12-07T10:42:12Z</time>
      </trkpt>
      <trkpt lat="45.95098" lon="4.98018">
        <ele>288</ele>
        <time>2017-12-07T10:42:14Z</time>
      </trkpt>
      <trkpt lat="45.95097" lon="4.98025">
        <ele>288</ele>
        <time>2017-12-07T10:42:15Z</time>
      </trkpt>
      <trkpt lat="45.95097" lon="4.98031">
        <ele>288</ele>
        <time>2017-12-07T10:42:16Z</time>
      </trkpt>
      <trkpt lat="45.95096" lon="4.98038">
        <ele>287</ele>
        <time>2017-12-07T10:42:17Z</time>
      </trkpt>
      <trkpt lat="45.95095" lon="4.98046">
        <ele>287</ele>
        <time>2017-12-07T10:42:18Z</time>
      </trkpt>
      <trkpt lat="45.95096" lon="4.98054">
        <ele>287</ele>
        <time>2017-12-07T10:42:19Z</time>
      </trkpt>
      <trkpt lat="45.95096" lon="4.98062">
        <ele>287</ele>
        <time>2017-12-07T10:42:20Z</time>
      </trkpt>
      <trkpt lat="45.95096" lon="4.98068">
        <ele>287</ele>
        <time>2017-12-07T10:42:21Z</time>
      </trkpt>
      <trkpt lat="45.95094" lon="4.9808">
        <ele>288</ele>
        <time>2017-12-07T10:42:23Z</time>
      </trkpt>
      <trkpt lat="45.95094" lon="4.98086">
        <ele>287</ele>
        <time>2017-12-07T10:42:24Z</time>
      </trkpt>
      <trkpt lat="45.95093" lon="4.98094">
        <ele>287</ele>
        <time>2017-12-07T10:42:25Z</time>
      </trkpt>
      <trkpt lat="45.95094" lon="4.98101">
        <ele>287</ele>
        <time>2017-12-07T10:42:26Z</time>
      </trkpt>
      <trkpt lat="45.95093" lon="4.98108">
        <ele>287</ele>
        <time>2017-12-07T10:42:27Z</time>
      </trkpt>
      <trkpt lat="45.95091" lon="4.98113">
        <ele>287</ele>
        <time>2017-12-07T10:42:28Z</time>
      </trkpt>
      <trkpt lat="45.9509" lon="4.98119">
        <ele>287</ele>
        <time>2017-12-07T10:42:29Z</time>
      </trkpt>
      <trkpt lat="45.95089" lon="4.98127">
        <ele>287</ele>
        <time>2017-12-07T10:42:30Z</time>
      </trkpt>
      <trkpt lat="45.95088" lon="4.98138">
        <ele>287</ele>
        <time>2017-12-07T10:42:32Z</time>
      </trkpt>
      <trkpt lat="45.95087" lon="4.98145">
        <ele>287</ele>
        <time>2017-12-07T10:42:33Z</time>
      </trkpt>
      <trkpt lat="45.95085" lon="4.98151">
        <ele>287</ele>
        <time>2017-12-07T10:42:34Z</time>
      </trkpt>
      <trkpt lat="45.95084" lon="4.98158">
        <ele>288</ele>
        <time>2017-12-07T10:42:35Z</time>
      </trkpt>
      <trkpt lat="45.95082" lon="4.98169">
        <ele>288</ele>
        <time>2017-12-07T10:42:37Z</time>
      </trkpt>
      <trkpt lat="45.9508" lon="4.98174">
        <ele>288</ele>
        <time>2017-12-07T10:42:38Z</time>
      </trkpt>
      <trkpt lat="45.95078" lon="4.98185">
        <ele>288</ele>
        <time>2017-12-07T10:42:40Z</time>
      </trkpt>
      <trkpt lat="45.95076" lon="4.9819">
        <ele>288</ele>
        <time>2017-12-07T10:42:41Z</time>
      </trkpt>
      <trkpt lat="45.95074" lon="4.98196">
        <ele>288</ele>
        <time>2017-12-07T10:42:42Z</time>
      </trkpt>
      <trkpt lat="45.95072" lon="4.98202">
        <ele>288</ele>
        <time>2017-12-07T10:42:43Z</time>
      </trkpt>
      <trkpt lat="45.95069" lon="4.98213">
        <ele>287</ele>
        <time>2017-12-07T10:42:45Z</time>
      </trkpt>
      <trkpt lat="45.95067" lon="4.9822">
        <ele>287</ele>
        <time>2017-12-07T10:42:46Z</time>
      </trkpt>
      <trkpt lat="45.95064" lon="4.98231">
        <ele>287</ele>
        <time>2017-12-07T10:42:48Z</time>
      </trkpt>
      <trkpt lat="45.95062" lon="4.98236">
        <ele>287</ele>
        <time>2017-12-07T10:42:49Z</time>
      </trkpt>
      <trkpt lat="45.95061" lon="4.98242">
        <ele>287</ele>
        <time>2017-12-07T10:42:50Z</time>
      </trkpt>
      <trkpt lat="45.95058" lon="4.98248">
        <ele>287</ele>
        <time>2017-12-07T10:42:51Z</time>
      </trkpt>
      <trkpt lat="45.95054" lon="4.98259">
        <ele>287</ele>
        <time>2017-12-07T10:42:53Z</time>
      </trkpt>
      <trkpt lat="45.95052" lon="4.98264">
        <ele>287</ele>
        <time>2017-12-07T10:42:54Z</time>
      </trkpt>
      <trkpt lat="45.9505" lon="4.98271">
        <ele>287</ele>
        <time>2017-12-07T10:42:55Z</time>
      </trkpt>
      <trkpt lat="45.95048" lon="4.98278">
        <ele>287</ele>
        <time>2017-12-07T10:42:56Z</time>
      </trkpt>
      <trkpt lat="45.95045" lon="4.98284">
        <ele>287</ele>
        <time>2017-12-07T10:42:57Z</time>
      </trkpt>
      <trkpt lat="45.95042" lon="4.9829">
        <ele>287</ele>
        <time>2017-12-07T10:42:58Z</time>
      </trkpt>
      <trkpt lat="45.95038" lon="4.98296">
        <ele>287</ele>
        <time>2017-12-07T10:42:59Z</time>
      </trkpt>
      <trkpt lat="45.95035" lon="4.98302">
        <ele>287</ele>
        <time>2017-12-07T10:43:00Z</time>
      </trkpt>
      <trkpt lat="45.95032" lon="4.98307">
        <ele>287</ele>
        <time>2017-12-07T10:43:01Z</time>
      </trkpt>
      <trkpt lat="45.95029" lon="4.98314">
        <ele>287</ele>
        <time>2017-12-07T10:43:02Z</time>
      </trkpt>
      <trkpt lat="45.95026" lon="4.9832">
        <ele>287</ele>
        <time>2017-12-07T10:43:03Z</time>
      </trkpt>
      <trkpt lat="45.95022" lon="4.98325">
        <ele>287</ele>
        <time>2017-12-07T10:43:04Z</time>
      </trkpt>
      <trkpt lat="45.95019" lon="4.98331">
        <ele>287</ele>
        <time>2017-12-07T10:43:05Z</time>
      </trkpt>
      <trkpt lat="45.95017" lon="4.98336">
        <ele>287</ele>
        <time>2017-12-07T10:43:06Z</time>
      </trkpt>
      <trkpt lat="45.95014" lon="4.98342">
        <ele>287</ele>
        <time>2017-12-07T10:43:07Z</time>
      </trkpt>
      <trkpt lat="45.95012" lon="4.98347">
        <ele>287</ele>
        <time>2017-12-07T10:43:08Z</time>
      </trkpt>
      <trkpt lat="45.95009" lon="4.98354">
        <ele>287</ele>
        <time>2017-12-07T10:43:09Z</time>
      </trkpt>
      <trkpt lat="45.95007" lon="4.98359">
        <ele>287</ele>
        <time>2017-12-07T10:43:10Z</time>
      </trkpt>
      <trkpt lat="45.95004" lon="4.98364">
        <ele>287</ele>
        <time>2017-12-07T10:43:11Z</time>
      </trkpt>
      <trkpt lat="45.95001" lon="4.98369">
        <ele>287</ele>
        <time>2017-12-07T10:43:12Z</time>
      </trkpt>
      <trkpt lat="45.94996" lon="4.9838">
        <ele>287</ele>
        <time>2017-12-07T10:43:14Z</time>
      </trkpt>
      <trkpt lat="45.94993" lon="4.98383">
        <ele>287</ele>
        <time>2017-12-07T10:43:15Z</time>
      </trkpt>
      <trkpt lat="45.94989" lon="4.98393">
        <ele>288</ele>
        <time>2017-12-07T10:43:17Z</time>
      </trkpt>
      <trkpt lat="45.94987" lon="4.98398">
        <ele>288</ele>
        <time>2017-12-07T10:43:18Z</time>
      </trkpt>
      <trkpt lat="45.94983" lon="4.98406">
        <ele>288</ele>
        <time>2017-12-07T10:43:20Z</time>
      </trkpt>
      <trkpt lat="45.94981" lon="4.98411">
        <ele>288</ele>
        <time>2017-12-07T10:43:21Z</time>
      </trkpt>
      <trkpt lat="45.94976" lon="4.98419">
        <ele>288</ele>
        <time>2017-12-07T10:43:23Z</time>
      </trkpt>
      <trkpt lat="45.94975" lon="4.98423">
        <ele>288</ele>
        <time>2017-12-07T10:43:24Z</time>
      </trkpt>
      <trkpt lat="45.94971" lon="4.9843">
        <ele>288</ele>
        <time>2017-12-07T10:43:26Z</time>
      </trkpt>
      <trkpt lat="45.94969" lon="4.98434">
        <ele>288</ele>
        <time>2017-12-07T10:43:27Z</time>
      </trkpt>
      <trkpt lat="45.94965" lon="4.98443">
        <ele>288</ele>
        <time>2017-12-07T10:43:29Z</time>
      </trkpt>
      <trkpt lat="45.94963" lon="4.98448">
        <ele>288</ele>
        <time>2017-12-07T10:43:30Z</time>
      </trkpt>
      <trkpt lat="45.94958" lon="4.98458">
        <ele>288</ele>
        <time>2017-12-07T10:43:32Z</time>
      </trkpt>
      <trkpt lat="45.94956" lon="4.98464">
        <ele>289</ele>
        <time>2017-12-07T10:43:33Z</time>
      </trkpt>
      <trkpt lat="45.94951" lon="4.98473">
        <ele>289</ele>
        <time>2017-12-07T10:43:35Z</time>
      </trkpt>
      <trkpt lat="45.94949" lon="4.98478">
        <ele>289</ele>
        <time>2017-12-07T10:43:36Z</time>
      </trkpt>
      <trkpt lat="45.94944" lon="4.98488">
        <ele>289</ele>
        <time>2017-12-07T10:43:38Z</time>
      </trkpt>
      <trkpt lat="45.94942" lon="4.98493">
        <ele>289</ele>
        <time>2017-12-07T10:43:39Z</time>
      </trkpt>
      <trkpt lat="45.94937" lon="4.98502">
        <ele>290</ele>
        <time>2017-12-07T10:43:41Z</time>
      </trkpt>
      <trkpt lat="45.94935" lon="4.98507">
        <ele>290</ele>
        <time>2017-12-07T10:43:42Z</time>
      </trkpt>
      <trkpt lat="45.94931" lon="4.98516">
        <ele>290</ele>
        <time>2017-12-07T10:43:44Z</time>
      </trkpt>
      <trkpt lat="45.94929" lon="4.98521">
        <ele>290</ele>
        <time>2017-12-07T10:43:45Z</time>
      </trkpt>
      <trkpt lat="45.94924" lon="4.98529">
        <ele>290</ele>
        <time>2017-12-07T10:43:47Z</time>
      </trkpt>
      <trkpt lat="45.94923" lon="4.98533">
        <ele>290</ele>
        <time>2017-12-07T10:43:48Z</time>
      </trkpt>
      <trkpt lat="45.94919" lon="4.98541">
        <ele>290</ele>
        <time>2017-12-07T10:43:50Z</time>
      </trkpt>
      <trkpt lat="45.94917" lon="4.98544">
        <ele>290</ele>
        <time>2017-12-07T10:43:51Z</time>
      </trkpt>
      <trkpt lat="45.94912" lon="4.98551">
        <ele>292</ele>
        <time>2017-12-07T10:43:53Z</time>
      </trkpt>
      <trkpt lat="45.9491" lon="4.98554">
        <ele>292</ele>
        <time>2017-12-07T10:43:54Z</time>
      </trkpt>
      <trkpt lat="45.94904" lon="4.98561">
        <ele>292</ele>
        <time>2017-12-07T10:43:57Z</time>
      </trkpt>
      <trkpt lat="45.94903" lon="4.98564">
        <ele>292</ele>
        <time>2017-12-07T10:43:58Z</time>
      </trkpt>
      <trkpt lat="45.949" lon="4.98575">
        <ele>292</ele>
        <time>2017-12-07T10:44:01Z</time>
      </trkpt>
      <trkpt lat="45.94899" lon="4.98579">
        <ele>292</ele>
        <time>2017-12-07T10:44:02Z</time>
      </trkpt>
      <trkpt lat="45.94894" lon="4.98588">
        <ele>292</ele>
        <time>2017-12-07T10:44:34Z</time>
      </trkpt>
      <trkpt lat="45.94893" lon="4.9859">
        <ele>292</ele>
        <time>2017-12-07T10:44:35Z</time>
      </trkpt>
      <trkpt lat="45.94889" lon="4.986">
        <ele>293</ele>
        <time>2017-12-07T10:44:38Z</time>
      </trkpt>
      <trkpt lat="45.94888" lon="4.98604">
        <ele>293</ele>
        <time>2017-12-07T10:44:39Z</time>
      </trkpt>
      <trkpt lat="45.94883" lon="4.9861">
        <ele>293</ele>
        <time>2017-12-07T10:44:41Z</time>
      </trkpt>
      <trkpt lat="45.9488" lon="4.98613">
        <ele>293</ele>
        <time>2017-12-07T10:44:42Z</time>
      </trkpt>
      <trkpt lat="45.94873" lon="4.9862">
        <ele>293</ele>
        <time>2017-12-07T10:44:44Z</time>
      </trkpt>
      <trkpt lat="45.94869" lon="4.98623">
        <ele>293</ele>
        <time>2017-12-07T10:44:45Z</time>
      </trkpt>
      <trkpt lat="45.94862" lon="4.98625">
        <ele>293</ele>
        <time>2017-12-07T10:44:47Z</time>
      </trkpt>
      <trkpt lat="45.94858" lon="4.98625">
        <ele>293</ele>
        <time>2017-12-07T10:44:48Z</time>
      </trkpt>
      <trkpt lat="45.94851" lon="4.98628">
        <ele>293</ele>
        <time>2017-12-07T10:44:50Z</time>
      </trkpt>
      <trkpt lat="45.94848" lon="4.98629">
        <ele>293</ele>
        <time>2017-12-07T10:44:51Z</time>
      </trkpt>
      <trkpt lat="45.94841" lon="4.98636">
        <ele>293</ele>
        <time>2017-12-07T10:44:53Z</time>
      </trkpt>
      <trkpt lat="45.94839" lon="4.98642">
        <ele>293</ele>
        <time>2017-12-07T10:44:54Z</time>
      </trkpt>
      <trkpt lat="45.94837" lon="4.98649">
        <ele>294</ele>
        <time>2017-12-07T10:44:55Z</time>
      </trkpt>
      <trkpt lat="45.94837" lon="4.98655">
        <ele>294</ele>
        <time>2017-12-07T10:44:56Z</time>
      </trkpt>
      <trkpt lat="45.94836" lon="4.98668">
        <ele>294</ele>
        <time>2017-12-07T10:44:58Z</time>
      </trkpt>
      <trkpt lat="45.94837" lon="4.98674">
        <ele>294</ele>
        <time>2017-12-07T10:44:59Z</time>
      </trkpt>
      <trkpt lat="45.94835" lon="4.98686">
        <ele>294</ele>
        <time>2017-12-07T10:45:01Z</time>
      </trkpt>
      <trkpt lat="45.94831" lon="4.98694">
        <ele>294</ele>
        <time>2017-12-07T10:45:02Z</time>
      </trkpt>
      <trkpt lat="45.94829" lon="4.987">
        <ele>294</ele>
        <time>2017-12-07T10:45:03Z</time>
      </trkpt>
      <trkpt lat="45.94826" lon="4.98705">
        <ele>294</ele>
        <time>2017-12-07T10:45:04Z</time>
      </trkpt>
      <trkpt lat="45.94821" lon="4.98715">
        <ele>294</ele>
        <time>2017-12-07T10:45:06Z</time>
      </trkpt>
      <trkpt lat="45.94817" lon="4.98722">
        <ele>294</ele>
        <time>2017-12-07T10:45:07Z</time>
      </trkpt>
      <trkpt lat="45.94816" lon="4.98728">
        <ele>294</ele>
        <time>2017-12-07T10:45:08Z</time>
      </trkpt>
      <trkpt lat="45.94815" lon="4.98735">
        <ele>294</ele>
        <time>2017-12-07T10:45:09Z</time>
      </trkpt>
      <trkpt lat="45.94814" lon="4.98742">
        <ele>294</ele>
        <time>2017-12-07T10:45:10Z</time>
      </trkpt>
      <trkpt lat="45.94814" lon="4.98748">
        <ele>294</ele>
        <time>2017-12-07T10:45:11Z</time>
      </trkpt>
      <trkpt lat="45.94814" lon="4.98757">
        <ele>294</ele>
        <time>2017-12-07T10:45:12Z</time>
      </trkpt>
      <trkpt lat="45.94813" lon="4.98765">
        <ele>294</ele>
        <time>2017-12-07T10:45:13Z</time>
      </trkpt>
      <trkpt lat="45.94811" lon="4.98772">
        <ele>294</ele>
        <time>2017-12-07T10:45:14Z</time>
      </trkpt>
      <trkpt lat="45.94811" lon="4.98779">
        <ele>294</ele>
        <time>2017-12-07T10:45:15Z</time>
      </trkpt>
      <trkpt lat="45.94811" lon="4.98787">
        <ele>294</ele>
        <time>2017-12-07T10:45:16Z</time>
      </trkpt>
      <trkpt lat="45.94811" lon="4.98794">
        <ele>294</ele>
        <time>2017-12-07T10:45:17Z</time>
      </trkpt>
      <trkpt lat="45.94811" lon="4.98801">
        <ele>294</ele>
        <time>2017-12-07T10:45:18Z</time>
      </trkpt>
      <trkpt lat="45.9481" lon="4.98807">
        <ele>294</ele>
        <time>2017-12-07T10:45:19Z</time>
      </trkpt>
      <trkpt lat="45.94809" lon="4.9882">
        <ele>294</ele>
        <time>2017-12-07T10:45:21Z</time>
      </trkpt>
      <trkpt lat="45.94809" lon="4.98825">
        <ele>294</ele>
        <time>2017-12-07T10:45:22Z</time>
      </trkpt>
      <trkpt lat="45.94808" lon="4.98832">
        <ele>294</ele>
        <time>2017-12-07T10:45:23Z</time>
      </trkpt>
      <trkpt lat="45.94807" lon="4.98839">
        <ele>293</ele>
        <time>2017-12-07T10:45:24Z</time>
      </trkpt>
      <trkpt lat="45.94805" lon="4.98845">
        <ele>293</ele>
        <time>2017-12-07T10:45:25Z</time>
      </trkpt>
      <trkpt lat="45.94804" lon="4.98852">
        <ele>293</ele>
        <time>2017-12-07T10:45:26Z</time>
      </trkpt>
      <trkpt lat="45.94804" lon="4.9886">
        <ele>293</ele>
        <time>2017-12-07T10:45:27Z</time>
      </trkpt>
      <trkpt lat="45.94803" lon="4.98867">
        <ele>293</ele>
        <time>2017-12-07T10:45:28Z</time>
      </trkpt>
      <trkpt lat="45.94803" lon="4.98875">
        <ele>293</ele>
        <time>2017-12-07T10:45:29Z</time>
      </trkpt>
      <trkpt lat="45.94801" lon="4.98882">
        <ele>293</ele>
        <time>2017-12-07T10:45:30Z</time>
      </trkpt>
      <trkpt lat="45.94801" lon="4.9889">
        <ele>293</ele>
        <time>2017-12-07T10:45:31Z</time>
      </trkpt>
      <trkpt lat="45.94801" lon="4.98898">
        <ele>293</ele>
        <time>2017-12-07T10:45:32Z</time>
      </trkpt>
      <trkpt lat="45.948" lon="4.98906">
        <ele>293</ele>
        <time>2017-12-07T10:45:33Z</time>
      </trkpt>
      <trkpt lat="45.94798" lon="4.98913">
        <ele>293</ele>
        <time>2017-12-07T10:45:34Z</time>
      </trkpt>
      <trkpt lat="45.94798" lon="4.98919">
        <ele>292</ele>
        <time>2017-12-07T10:45:35Z</time>
      </trkpt>
      <trkpt lat="45.94798" lon="4.98926">
        <ele>292</ele>
        <time>2017-12-07T10:45:36Z</time>
      </trkpt>
      <trkpt lat="45.94798" lon="4.98933">
        <ele>292</ele>
        <time>2017-12-07T10:45:37Z</time>
      </trkpt>
      <trkpt lat="45.94797" lon="4.98939">
        <ele>292</ele>
        <time>2017-12-07T10:45:38Z</time>
      </trkpt>
      <trkpt lat="45.94795" lon="4.98947">
        <ele>292</ele>
        <time>2017-12-07T10:45:39Z</time>
      </trkpt>
      <trkpt lat="45.94795" lon="4.98955">
        <ele>292</ele>
        <time>2017-12-07T10:45:40Z</time>
      </trkpt>
      <trkpt lat="45.94795" lon="4.98962">
        <ele>291</ele>
        <time>2017-12-07T10:45:41Z</time>
      </trkpt>
      <trkpt lat="45.94795" lon="4.9897">
        <ele>291</ele>
        <time>2017-12-07T10:45:42Z</time>
      </trkpt>
      <trkpt lat="45.94795" lon="4.98978">
        <ele>291</ele>
        <time>2017-12-07T10:45:43Z</time>
      </trkpt>
      <trkpt lat="45.94794" lon="4.98985">
        <ele>291</ele>
        <time>2017-12-07T10:45:44Z</time>
      </trkpt>
      <trkpt lat="45.94794" lon="4.98992">
        <ele>291</ele>
        <time>2017-12-07T10:45:45Z</time>
      </trkpt>
      <trkpt lat="45.94794" lon="4.99">
        <ele>291</ele>
        <time>2017-12-07T10:45:46Z</time>
      </trkpt>
      <trkpt lat="45.94794" lon="4.99007">
        <ele>291</ele>
        <time>2017-12-07T10:45:47Z</time>
      </trkpt>
      <trkpt lat="45.94793" lon="4.99014">
        <ele>291</ele>
        <time>2017-12-07T10:45:48Z</time>
      </trkpt>
      <trkpt lat="45.94791" lon="4.99021">
        <ele>291</ele>
        <time>2017-12-07T10:45:49Z</time>
      </trkpt>
      <trkpt lat="45.94789" lon="4.99026">
        <ele>291</ele>
        <time>2017-12-07T10:45:50Z</time>
      </trkpt>
      <trkpt lat="45.94785" lon="4.99037">
        <ele>291</ele>
        <time>2017-12-07T10:45:52Z</time>
      </trkpt>
      <trkpt lat="45.94783" lon="4.99043">
        <ele>291</ele>
        <time>2017-12-07T10:45:53Z</time>
      </trkpt>
      <trkpt lat="45.9478" lon="4.99049">
        <ele>291</ele>
        <time>2017-12-07T10:45:54Z</time>
      </trkpt>
      <trkpt lat="45.94777" lon="4.99055">
        <ele>291</ele>
        <time>2017-12-07T10:45:55Z</time>
      </trkpt>
      <trkpt lat="45.94773" lon="4.9906">
        <ele>291</ele>
        <time>2017-12-07T10:45:56Z</time>
      </trkpt>
      <trkpt lat="45.9477" lon="4.99067">
        <ele>291</ele>
        <time>2017-12-07T10:45:57Z</time>
      </trkpt>
      <trkpt lat="45.94766" lon="4.99073">
        <ele>291</ele>
        <time>2017-12-07T10:45:58Z</time>
      </trkpt>
      <trkpt lat="45.94762" lon="4.99078">
        <ele>291</ele>
        <time>2017-12-07T10:45:59Z</time>
      </trkpt>
      <trkpt lat="45.94759" lon="4.99084">
        <ele>290</ele>
        <time>2017-12-07T10:46:00Z</time>
      </trkpt>
      <trkpt lat="45.94756" lon="4.99089">
        <ele>290</ele>
        <time>2017-12-07T10:46:01Z</time>
      </trkpt>
      <trkpt lat="45.94753" lon="4.99094">
        <ele>290</ele>
        <time>2017-12-07T10:46:02Z</time>
      </trkpt>
      <trkpt lat="45.9475" lon="4.991">
        <ele>290</ele>
        <time>2017-12-07T10:46:03Z</time>
      </trkpt>
      <trkpt lat="45.94747" lon="4.99105">
        <ele>290</ele>
        <time>2017-12-07T10:46:04Z</time>
      </trkpt>
      <trkpt lat="45.94742" lon="4.99112">
        <ele>290</ele>
        <time>2017-12-07T10:46:05Z</time>
      </trkpt>
      <trkpt lat="45.94738" lon="4.99117">
        <ele>290</ele>
        <time>2017-12-07T10:46:06Z</time>
      </trkpt>
      <trkpt lat="45.94735" lon="4.99123">
        <ele>290</ele>
        <time>2017-12-07T10:46:07Z</time>
      </trkpt>
      <trkpt lat="45.9473" lon="4.99128">
        <ele>289</ele>
        <time>2017-12-07T10:46:08Z</time>
      </trkpt>
      <trkpt lat="45.94725" lon="4.99134">
        <ele>289</ele>
        <time>2017-12-07T10:46:09Z</time>
      </trkpt>
      <trkpt lat="45.9472" lon="4.99138">
        <ele>289</ele>
        <time>2017-12-07T10:46:10Z</time>
      </trkpt>
      <trkpt lat="45.94716" lon="4.99142">
        <ele>289</ele>
        <time>2017-12-07T10:46:11Z</time>
      </trkpt>
      <trkpt lat="45.9471" lon="4.99147">
        <ele>289</ele>
        <time>2017-12-07T10:46:12Z</time>
      </trkpt>
      <trkpt lat="45.94706" lon="4.99151">
        <ele>289</ele>
        <time>2017-12-07T10:46:13Z</time>
      </trkpt>
      <trkpt lat="45.94702" lon="4.99156">
        <ele>289</ele>
        <time>2017-12-07T10:46:14Z</time>
      </trkpt>
      <trkpt lat="45.94698" lon="4.9916">
        <ele>289</ele>
        <time>2017-12-07T10:46:15Z</time>
      </trkpt>
      <trkpt lat="45.94691" lon="4.99166">
        <ele>289</ele>
        <time>2017-12-07T10:46:17Z</time>
      </trkpt>
      <trkpt lat="45.94687" lon="4.99171">
        <ele>289</ele>
        <time>2017-12-07T10:46:18Z</time>
      </trkpt>
      <trkpt lat="45.94682" lon="4.99174">
        <ele>289</ele>
        <time>2017-12-07T10:46:19Z</time>
      </trkpt>
      <trkpt lat="45.94678" lon="4.99178">
        <ele>289</ele>
        <time>2017-12-07T10:46:20Z</time>
      </trkpt>
      <trkpt lat="45.94672" lon="4.99187">
        <ele>289</ele>
        <time>2017-12-07T10:46:22Z</time>
      </trkpt>
      <trkpt lat="45.94667" lon="4.99191">
        <ele>288</ele>
        <time>2017-12-07T10:46:23Z</time>
      </trkpt>
      <trkpt lat="45.94662" lon="4.99197">
        <ele>288</ele>
        <time>2017-12-07T10:46:24Z</time>
      </trkpt>
      <trkpt lat="45.94658" lon="4.99202">
        <ele>288</ele>
        <time>2017-12-07T10:46:25Z</time>
      </trkpt>
      <trkpt lat="45.94654" lon="4.99208">
        <ele>288</ele>
        <time>2017-12-07T10:46:26Z</time>
      </trkpt>
      <trkpt lat="45.9465" lon="4.99215">
        <ele>288</ele>
        <time>2017-12-07T10:46:27Z</time>
      </trkpt>
      <trkpt lat="45.94646" lon="4.9922">
        <ele>288</ele>
        <time>2017-12-07T10:46:28Z</time>
      </trkpt>
      <trkpt lat="45.94641" lon="4.99226">
        <ele>288</ele>
        <time>2017-12-07T10:46:29Z</time>
      </trkpt>
      <trkpt lat="45.94637" lon="4.99232">
        <ele>288</ele>
        <time>2017-12-07T10:46:30Z</time>
      </trkpt>
      <trkpt lat="45.94633" lon="4.99236">
        <ele>288</ele>
        <time>2017-12-07T10:46:31Z</time>
      </trkpt>
      <trkpt lat="45.94629" lon="4.99241">
        <ele>288</ele>
        <time>2017-12-07T10:46:32Z</time>
      </trkpt>
      <trkpt lat="45.94625" lon="4.99248">
        <ele>288</ele>
        <time>2017-12-07T10:46:33Z</time>
      </trkpt>
      <trkpt lat="45.94622" lon="4.99253">
        <ele>287</ele>
        <time>2017-12-07T10:46:34Z</time>
      </trkpt>
      <trkpt lat="45.94617" lon="4.99258">
        <ele>287</ele>
        <time>2017-12-07T10:46:35Z</time>
      </trkpt>
      <trkpt lat="45.94612" lon="4.99261">
        <ele>287</ele>
        <time>2017-12-07T10:46:36Z</time>
      </trkpt>
      <trkpt lat="45.94607" lon="4.99266">
        <ele>287</ele>
        <time>2017-12-07T10:46:37Z</time>
      </trkpt>
      <trkpt lat="45.94604" lon="4.99272">
        <ele>287</ele>
        <time>2017-12-07T10:46:38Z</time>
      </trkpt>
      <trkpt lat="45.946" lon="4.99278">
        <ele>287</ele>
        <time>2017-12-07T10:46:39Z</time>
      </trkpt>
      <trkpt lat="45.94596" lon="4.99285">
        <ele>287</ele>
        <time>2017-12-07T10:46:40Z</time>
      </trkpt>
      <trkpt lat="45.94592" lon="4.9929">
        <ele>287</ele>
        <time>2017-12-07T10:46:41Z</time>
      </trkpt>
      <trkpt lat="45.94588" lon="4.99297">
        <ele>287</ele>
        <time>2017-12-07T10:46:42Z</time>
      </trkpt>
      <trkpt lat="45.94584" lon="4.99303">
        <ele>287</ele>
        <time>2017-12-07T10:46:43Z</time>
      </trkpt>
      <trkpt lat="45.94581" lon="4.99309">
        <ele>287</ele>
        <time>2017-12-07T10:46:44Z</time>
      </trkpt>
      <trkpt lat="45.94577" lon="4.99314">
        <ele>287</ele>
        <time>2017-12-07T10:46:45Z</time>
      </trkpt>
      <trkpt lat="45.94574" lon="4.9932">
        <ele>287</ele>
        <time>2017-12-07T10:46:46Z</time>
      </trkpt>
      <trkpt lat="45.94571" lon="4.99324">
        <ele>287</ele>
        <time>2017-12-07T10:46:47Z</time>
      </trkpt>
      <trkpt lat="45.94567" lon="4.99329">
        <ele>287</ele>
        <time>2017-12-07T10:46:48Z</time>
      </trkpt>
      <trkpt lat="45.94564" lon="4.99334">
        <ele>287</ele>
        <time>2017-12-07T10:46:49Z</time>
      </trkpt>
      <trkpt lat="45.9456" lon="4.9934">
        <ele>287</ele>
        <time>2017-12-07T10:46:50Z</time>
      </trkpt>
      <trkpt lat="45.94557" lon="4.99346">
        <ele>288</ele>
        <time>2017-12-07T10:46:51Z</time>
      </trkpt>
      <trkpt lat="45.94553" lon="4.99352">
        <ele>288</ele>
        <time>2017-12-07T10:46:52Z</time>
      </trkpt>
      <trkpt lat="45.9455" lon="4.99358">
        <ele>288</ele>
        <time>2017-12-07T10:46:53Z</time>
      </trkpt>
      <trkpt lat="45.94548" lon="4.99365">
        <ele>288</ele>
        <time>2017-12-07T10:46:54Z</time>
      </trkpt>
      <trkpt lat="45.94545" lon="4.99372">
        <ele>288</ele>
        <time>2017-12-07T10:46:55Z</time>
      </trkpt>
      <trkpt lat="45.94541" lon="4.99377">
        <ele>288</ele>
        <time>2017-12-07T10:46:56Z</time>
      </trkpt>
      <trkpt lat="45.94539" lon="4.99382">
        <ele>288</ele>
        <time>2017-12-07T10:46:57Z</time>
      </trkpt>
      <trkpt lat="45.94536" lon="4.99394">
        <ele>288</ele>
        <time>2017-12-07T10:46:59Z</time>
      </trkpt>
      <trkpt lat="45.94534" lon="4.994">
        <ele>288</ele>
        <time>2017-12-07T10:47:00Z</time>
      </trkpt>
      <trkpt lat="45.94533" lon="4.99408">
        <ele>288</ele>
        <time>2017-12-07T10:47:01Z</time>
      </trkpt>
      <trkpt lat="45.94532" lon="4.99414">
        <ele>288</ele>
        <time>2017-12-07T10:47:02Z</time>
      </trkpt>
      <trkpt lat="45.9453" lon="4.9942">
        <ele>288</ele>
        <time>2017-12-07T10:47:03Z</time>
      </trkpt>
      <trkpt lat="45.94528" lon="4.99426">
        <ele>288</ele>
        <time>2017-12-07T10:47:04Z</time>
      </trkpt>
      <trkpt lat="45.94526" lon="4.99432">
        <ele>288</ele>
        <time>2017-12-07T10:47:05Z</time>
      </trkpt>
      <trkpt lat="45.94524" lon="4.99438">
        <ele>288</ele>
        <time>2017-12-07T10:47:06Z</time>
      </trkpt>
      <trkpt lat="45.94522" lon="4.99445">
        <ele>288</ele>
        <time>2017-12-07T10:47:07Z</time>
      </trkpt>
      <trkpt lat="45.9452" lon="4.99452">
        <ele>288</ele>
        <time>2017-12-07T10:47:08Z</time>
      </trkpt>
      <trkpt lat="45.94518" lon="4.99459">
        <ele>288</ele>
        <time>2017-12-07T10:47:09Z</time>
      </trkpt>
      <trkpt lat="45.94515" lon="4.99466">
        <ele>288</ele>
        <time>2017-12-07T10:47:10Z</time>
      </trkpt>
      <trkpt lat="45.94514" lon="4.99473">
        <ele>288</ele>
        <time>2017-12-07T10:47:11Z</time>
      </trkpt>
      <trkpt lat="45.94512" lon="4.9948">
        <ele>288</ele>
        <time>2017-12-07T10:47:12Z</time>
      </trkpt>
      <trkpt lat="45.9451" lon="4.99486">
        <ele>288</ele>
        <time>2017-12-07T10:47:13Z</time>
      </trkpt>
      <trkpt lat="45.94508" lon="4.99491">
        <ele>288</ele>
        <time>2017-12-07T10:47:14Z</time>
      </trkpt>
      <trkpt lat="45.94506" lon="4.99499">
        <ele>288</ele>
        <time>2017-12-07T10:47:15Z</time>
      </trkpt>
      <trkpt lat="45.94504" lon="4.99507">
        <ele>288</ele>
        <time>2017-12-07T10:47:16Z</time>
      </trkpt>
      <trkpt lat="45.94502" lon="4.99514">
        <ele>288</ele>
        <time>2017-12-07T10:47:17Z</time>
      </trkpt>
      <trkpt lat="45.94501" lon="4.99521">
        <ele>287</ele>
        <time>2017-12-07T10:47:18Z</time>
      </trkpt>
      <trkpt lat="45.94499" lon="4.99528">
        <ele>288</ele>
        <time>2017-12-07T10:47:19Z</time>
      </trkpt>
      <trkpt lat="45.94497" lon="4.99536">
        <ele>288</ele>
        <time>2017-12-07T10:47:20Z</time>
      </trkpt>
      <trkpt lat="45.94495" lon="4.99541">
        <ele>288</ele>
        <time>2017-12-07T10:47:21Z</time>
      </trkpt>
      <trkpt lat="45.94494" lon="4.99548">
        <ele>288</ele>
        <time>2017-12-07T10:47:22Z</time>
      </trkpt>
      <trkpt lat="45.94491" lon="4.9956">
        <ele>288</ele>
        <time>2017-12-07T10:47:24Z</time>
      </trkpt>
      <trkpt lat="45.9449" lon="4.99566">
        <ele>288</ele>
        <time>2017-12-07T10:47:25Z</time>
      </trkpt>
      <trkpt lat="45.94489" lon="4.99573">
        <ele>288</ele>
        <time>2017-12-07T10:47:26Z</time>
      </trkpt>
      <trkpt lat="45.94487" lon="4.99579">
        <ele>288</ele>
        <time>2017-12-07T10:47:27Z</time>
      </trkpt>
      <trkpt lat="45.94484" lon="4.99591">
        <ele>289</ele>
        <time>2017-12-07T10:47:29Z</time>
      </trkpt>
      <trkpt lat="45.94482" lon="4.99599">
        <ele>289</ele>
        <time>2017-12-07T10:47:30Z</time>
      </trkpt>
      <trkpt lat="45.9448" lon="4.99606">
        <ele>289</ele>
        <time>2017-12-07T10:47:31Z</time>
      </trkpt>
      <trkpt lat="45.94478" lon="4.99611">
        <ele>289</ele>
        <time>2017-12-07T10:47:32Z</time>
      </trkpt>
      <trkpt lat="45.94476" lon="4.99618">
        <ele>289</ele>
        <time>2017-12-07T10:47:33Z</time>
      </trkpt>
      <trkpt lat="45.94474" lon="4.99625">
        <ele>289</ele>
        <time>2017-12-07T10:47:34Z</time>
      </trkpt>
      <trkpt lat="45.94472" lon="4.99632">
        <ele>289</ele>
        <time>2017-12-07T10:47:35Z</time>
      </trkpt>
      <trkpt lat="45.9447" lon="4.99639">
        <ele>289</ele>
        <time>2017-12-07T10:47:36Z</time>
      </trkpt>
      <trkpt lat="45.94466" lon="4.99649">
        <ele>289</ele>
        <time>2017-12-07T10:47:38Z</time>
      </trkpt>
      <trkpt lat="45.94464" lon="4.99655">
        <ele>289</ele>
        <time>2017-12-07T10:47:39Z</time>
      </trkpt>
      <trkpt lat="45.9446" lon="4.99666">
        <ele>290</ele>
        <time>2017-12-07T10:47:41Z</time>
      </trkpt>
      <trkpt lat="45.94458" lon="4.99672">
        <ele>289</ele>
        <time>2017-12-07T10:47:42Z</time>
      </trkpt>
      <trkpt lat="45.94454" lon="4.99682">
        <ele>289</ele>
        <time>2017-12-07T10:47:44Z</time>
      </trkpt>
      <trkpt lat="45.94452" lon="4.99688">
        <ele>289</ele>
        <time>2017-12-07T10:47:45Z</time>
      </trkpt>
      <trkpt lat="45.9445" lon="4.99699">
        <ele>289</ele>
        <time>2017-12-07T10:47:47Z</time>
      </trkpt>
      <trkpt lat="45.94447" lon="4.99705">
        <ele>289</ele>
        <time>2017-12-07T10:47:48Z</time>
      </trkpt>
      <trkpt lat="45.94443" lon="4.99715">
        <ele>289</ele>
        <time>2017-12-07T10:47:50Z</time>
      </trkpt>
      <trkpt lat="45.9444" lon="4.99721">
        <ele>289</ele>
        <time>2017-12-07T10:47:51Z</time>
      </trkpt>
      <trkpt lat="45.94437" lon="4.99727">
        <ele>289</ele>
        <time>2017-12-07T10:47:52Z</time>
      </trkpt>
      <trkpt lat="45.94433" lon="4.99733">
        <ele>289</ele>
        <time>2017-12-07T10:47:53Z</time>
      </trkpt>
      <trkpt lat="45.94431" lon="4.99739">
        <ele>289</ele>
        <time>2017-12-07T10:47:54Z</time>
      </trkpt>
      <trkpt lat="45.94428" lon="4.99745">
        <ele>289</ele>
        <time>2017-12-07T10:47:55Z</time>
      </trkpt>
      <trkpt lat="45.94426" lon="4.99751">
        <ele>289</ele>
        <time>2017-12-07T10:47:56Z</time>
      </trkpt>
      <trkpt lat="45.94425" lon="4.99758">
        <ele>289</ele>
        <time>2017-12-07T10:47:57Z</time>
      </trkpt>
      <trkpt lat="45.94422" lon="4.99763">
        <ele>289</ele>
        <time>2017-12-07T10:47:58Z</time>
      </trkpt>
      <trkpt lat="45.94419" lon="4.99769">
        <ele>289</ele>
        <time>2017-12-07T10:47:59Z</time>
      </trkpt>
      <trkpt lat="45.94418" lon="4.99776">
        <ele>288</ele>
        <time>2017-12-07T10:48:00Z</time>
      </trkpt>
      <trkpt lat="45.94415" lon="4.99781">
        <ele>290</ele>
        <time>2017-12-07T10:48:01Z</time>
      </trkpt>
      <trkpt lat="45.94409" lon="4.9979">
        <ele>290</ele>
        <time>2017-12-07T10:48:03Z</time>
      </trkpt>
      <trkpt lat="45.94406" lon="4.99793">
        <ele>290</ele>
        <time>2017-12-07T10:48:04Z</time>
      </trkpt>
      <trkpt lat="45.94404" lon="4.99802">
        <ele>290</ele>
        <time>2017-12-07T10:48:06Z</time>
      </trkpt>
      <trkpt lat="45.94401" lon="4.99807">
        <ele>290</ele>
        <time>2017-12-07T10:48:07Z</time>
      </trkpt>
      <trkpt lat="45.94396" lon="4.99817">
        <ele>290</ele>
        <time>2017-12-07T10:48:09Z</time>
      </trkpt>
      <trkpt lat="45.94395" lon="4.99824">
        <ele>290</ele>
        <time>2017-12-07T10:48:10Z</time>
      </trkpt>
      <trkpt lat="45.9439" lon="4.99834">
        <ele>290</ele>
        <time>2017-12-07T10:48:12Z</time>
      </trkpt>
      <trkpt lat="45.94391" lon="4.99843">
        <ele>290</ele>
        <time>2017-12-07T10:48:13Z</time>
      </trkpt>
      <trkpt lat="45.9439" lon="4.99847">
        <ele>290</ele>
        <time>2017-12-07T10:48:14Z</time>
      </trkpt>
      <trkpt lat="45.94384" lon="4.99855">
        <ele>290</ele>
        <time>2017-12-07T10:48:15Z</time>
      </trkpt>
      <trkpt lat="45.94383" lon="4.99867">
        <ele>290</ele>
        <time>2017-12-07T10:48:17Z</time>
      </trkpt>
      <trkpt lat="45.94381" lon="4.99874">
        <ele>290</ele>
        <time>2017-12-07T10:48:18Z</time>
      </trkpt>
      <trkpt lat="45.94377" lon="4.99881">
        <ele>290</ele>
        <time>2017-12-07T10:48:19Z</time>
      </trkpt>
      <trkpt lat="45.94376" lon="4.99888">
        <ele>290</ele>
        <time>2017-12-07T10:48:20Z</time>
      </trkpt>
      <trkpt lat="45.94374" lon="4.99894">
        <ele>290</ele>
        <time>2017-12-07T10:48:21Z</time>
      </trkpt>
      <trkpt lat="45.94372" lon="4.999">
        <ele>290</ele>
        <time>2017-12-07T10:48:22Z</time>
      </trkpt>
      <trkpt lat="45.94368" lon="4.99904">
        <ele>290</ele>
        <time>2017-12-07T10:48:23Z</time>
      </trkpt>
      <trkpt lat="45.94365" lon="4.9991">
        <ele>290</ele>
        <time>2017-12-07T10:48:24Z</time>
      </trkpt>
      <trkpt lat="45.94362" lon="4.99917">
        <ele>290</ele>
        <time>2017-12-07T10:48:25Z</time>
      </trkpt>
      <trkpt lat="45.94357" lon="4.99925">
        <ele>290</ele>
        <time>2017-12-07T10:48:26Z</time>
      </trkpt>
      <trkpt lat="45.94355" lon="4.9993">
        <ele>290</ele>
        <time>2017-12-07T10:48:27Z</time>
      </trkpt>
      <trkpt lat="45.94351" lon="4.99934">
        <ele>290</ele>
        <time>2017-12-07T10:48:28Z</time>
      </trkpt>
      <trkpt lat="45.94348" lon="4.99942">
        <ele>290</ele>
        <time>2017-12-07T10:48:29Z</time>
      </trkpt>
      <trkpt lat="45.94345" lon="4.99947">
        <ele>290</ele>
        <time>2017-12-07T10:48:30Z</time>
      </trkpt>
      <trkpt lat="45.94342" lon="4.99954">
        <ele>290</ele>
        <time>2017-12-07T10:48:31Z</time>
      </trkpt>
      <trkpt lat="45.94339" lon="4.99962">
        <ele>290</ele>
        <time>2017-12-07T10:48:32Z</time>
      </trkpt>
      <trkpt lat="45.94337" lon="4.99968">
        <ele>290</ele>
        <time>2017-12-07T10:48:33Z</time>
      </trkpt>
      <trkpt lat="45.94334" lon="4.99974">
        <ele>290</ele>
        <time>2017-12-07T10:48:34Z</time>
      </trkpt>
      <trkpt lat="45.94331" lon="4.99982">
        <ele>291</ele>
        <time>2017-12-07T10:48:35Z</time>
      </trkpt>
      <trkpt lat="45.94329" lon="4.99989">
        <ele>291</ele>
        <time>2017-12-07T10:48:36Z</time>
      </trkpt>
      <trkpt lat="45.94327" lon="4.99995">
        <ele>291</ele>
        <time>2017-12-07T10:48:37Z</time>
      </trkpt>
      <trkpt lat="45.94323" lon="5">
        <ele>291</ele>
        <time>2017-12-07T10:48:38Z</time>
      </trkpt>
      <trkpt lat="45.9432" lon="5.00007">
        <ele>291</ele>
        <time>2017-12-07T10:48:39Z</time>
      </trkpt>
      <trkpt lat="45.94318" lon="5.00012">
        <ele>291</ele>
        <time>2017-12-07T10:48:40Z</time>
      </trkpt>
      <trkpt lat="45.94316" lon="5.00019">
        <ele>291</ele>
        <time>2017-12-07T10:48:41Z</time>
      </trkpt>
      <trkpt lat="45.94314" lon="5.00026">
        <ele>290</ele>
        <time>2017-12-07T10:48:42Z</time>
      </trkpt>
      <trkpt lat="45.94309" lon="5.00034">
        <ele>290</ele>
        <time>2017-12-07T10:48:44Z</time>
      </trkpt>
      <trkpt lat="45.94307" lon="5.00038">
        <ele>290</ele>
        <time>2017-12-07T10:48:45Z</time>
      </trkpt>
      <trkpt lat="45.94301" lon="5.00047">
        <ele>290</ele>
        <time>2017-12-07T10:48:47Z</time>
      </trkpt>
      <trkpt lat="45.94298" lon="5.00052">
        <ele>290</ele>
        <time>2017-12-07T10:48:48Z</time>
      </trkpt>
      <trkpt lat="45.94292" lon="5.00062">
        <ele>290</ele>
        <time>2017-12-07T10:48:50Z</time>
      </trkpt>
      <trkpt lat="45.94288" lon="5.00067">
        <ele>290</ele>
        <time>2017-12-07T10:48:51Z</time>
      </trkpt>
      <trkpt lat="45.94285" lon="5.00072">
        <ele>290</ele>
        <time>2017-12-07T10:48:52Z</time>
      </trkpt>
      <trkpt lat="45.94282" lon="5.00078">
        <ele>290</ele>
        <time>2017-12-07T10:48:53Z</time>
      </trkpt>
      <trkpt lat="45.94275" lon="5.00085">
        <ele>289</ele>
        <time>2017-12-07T10:48:55Z</time>
      </trkpt>
      <trkpt lat="45.94272" lon="5.00089">
        <ele>289</ele>
        <time>2017-12-07T10:48:56Z</time>
      </trkpt>
      <trkpt lat="45.94266" lon="5.00098">
        <ele>289</ele>
        <time>2017-12-07T10:48:58Z</time>
      </trkpt>
      <trkpt lat="45.94262" lon="5.00102">
        <ele>289</ele>
        <time>2017-12-07T10:48:59Z</time>
      </trkpt>
      <trkpt lat="45.94256" lon="5.00112">
        <ele>289</ele>
        <time>2017-12-07T10:49:01Z</time>
      </trkpt>
      <trkpt lat="45.94253" lon="5.00117">
        <ele>289</ele>
        <time>2017-12-07T10:49:02Z</time>
      </trkpt>
      <trkpt lat="45.94249" lon="5.00122">
        <ele>288</ele>
        <time>2017-12-07T10:49:03Z</time>
      </trkpt>
      <trkpt lat="45.94246" lon="5.00127">
        <ele>288</ele>
        <time>2017-12-07T10:49:04Z</time>
      </trkpt>
      <trkpt lat="45.94242" lon="5.00133">
        <ele>288</ele>
        <time>2017-12-07T10:49:05Z</time>
      </trkpt>
      <trkpt lat="45.94238" lon="5.00138">
        <ele>288</ele>
        <time>2017-12-07T10:49:06Z</time>
      </trkpt>
      <trkpt lat="45.94234" lon="5.00143">
        <ele>288</ele>
        <time>2017-12-07T10:49:07Z</time>
      </trkpt>
      <trkpt lat="45.94231" lon="5.00149">
        <ele>288</ele>
        <time>2017-12-07T10:49:08Z</time>
      </trkpt>
      <trkpt lat="45.94226" lon="5.00153">
        <ele>287</ele>
        <time>2017-12-07T10:49:09Z</time>
      </trkpt>
      <trkpt lat="45.94223" lon="5.00159">
        <ele>287</ele>
        <time>2017-12-07T10:49:10Z</time>
      </trkpt>
      <trkpt lat="45.94219" lon="5.00164">
        <ele>287</ele>
        <time>2017-12-07T10:49:11Z</time>
      </trkpt>
      <trkpt lat="45.94215" lon="5.00169">
        <ele>287</ele>
        <time>2017-12-07T10:49:12Z</time>
      </trkpt>
      <trkpt lat="45.94212" lon="5.00174">
        <ele>287</ele>
        <time>2017-12-07T10:49:13Z</time>
      </trkpt>
      <trkpt lat="45.94209" lon="5.0018">
        <ele>287</ele>
        <time>2017-12-07T10:49:14Z</time>
      </trkpt>
      <trkpt lat="45.94206" lon="5.00184">
        <ele>287</ele>
        <time>2017-12-07T10:49:15Z</time>
      </trkpt>
      <trkpt lat="45.94203" lon="5.00189">
        <ele>287</ele>
        <time>2017-12-07T10:49:16Z</time>
      </trkpt>
      <trkpt lat="45.94199" lon="5.00194">
        <ele>287</ele>
        <time>2017-12-07T10:49:17Z</time>
      </trkpt>
      <trkpt lat="45.94196" lon="5.00199">
        <ele>287</ele>
        <time>2017-12-07T10:49:18Z</time>
      </trkpt>
      <trkpt lat="45.94193" lon="5.00204">
        <ele>287</ele>
        <time>2017-12-07T10:49:19Z</time>
      </trkpt>
      <trkpt lat="45.94188" lon="5.00207">
        <ele>286</ele>
        <time>2017-12-07T10:49:20Z</time>
      </trkpt>
      <trkpt lat="45.94184" lon="5.00213">
        <ele>286</ele>
        <time>2017-12-07T10:49:21Z</time>
      </trkpt>
      <trkpt lat="45.94181" lon="5.00219">
        <ele>286</ele>
        <time>2017-12-07T10:49:22Z</time>
      </trkpt>
      <trkpt lat="45.94177" lon="5.00225">
        <ele>286</ele>
        <time>2017-12-07T10:49:23Z</time>
      </trkpt>
      <trkpt lat="45.94173" lon="5.0023">
        <ele>286</ele>
        <time>2017-12-07T10:49:24Z</time>
      </trkpt>
      <trkpt lat="45.94167" lon="5.00239">
        <ele>286</ele>
        <time>2017-12-07T10:49:26Z</time>
      </trkpt>
      <trkpt lat="45.94165" lon="5.00243">
        <ele>285</ele>
        <time>2017-12-07T10:49:27Z</time>
      </trkpt>
      <trkpt lat="45.94158" lon="5.00252">
        <ele>285</ele>
        <time>2017-12-07T10:49:29Z</time>
      </trkpt>
      <trkpt lat="45.94156" lon="5.00257">
        <ele>285</ele>
        <time>2017-12-07T10:49:30Z</time>
      </trkpt>
      <trkpt lat="45.94153" lon="5.00262">
        <ele>285</ele>
        <time>2017-12-07T10:49:31Z</time>
      </trkpt>
      <trkpt lat="45.9415" lon="5.00267">
        <ele>285</ele>
        <time>2017-12-07T10:49:32Z</time>
      </trkpt>
      <trkpt lat="45.94147" lon="5.00273">
        <ele>285</ele>
        <time>2017-12-07T10:49:33Z</time>
      </trkpt>
      <trkpt lat="45.94144" lon="5.00278">
        <ele>285</ele>
        <time>2017-12-07T10:49:34Z</time>
      </trkpt>
      <trkpt lat="45.9414" lon="5.00283">
        <ele>285</ele>
        <time>2017-12-07T10:49:35Z</time>
      </trkpt>
      <trkpt lat="45.94137" lon="5.00287">
        <ele>285</ele>
        <time>2017-12-07T10:49:36Z</time>
      </trkpt>
      <trkpt lat="45.94131" lon="5.00297">
        <ele>285</ele>
        <time>2017-12-07T10:49:38Z</time>
      </trkpt>
      <trkpt lat="45.94128" lon="5.00303">
        <ele>285</ele>
        <time>2017-12-07T10:49:39Z</time>
      </trkpt>
      <trkpt lat="45.94125" lon="5.0031">
        <ele>285</ele>
        <time>2017-12-07T10:49:40Z</time>
      </trkpt>
      <trkpt lat="45.94121" lon="5.00315">
        <ele>285</ele>
        <time>2017-12-07T10:49:41Z</time>
      </trkpt>
      <trkpt lat="45.94118" lon="5.0032">
        <ele>285</ele>
        <time>2017-12-07T10:49:42Z</time>
      </trkpt>
      <trkpt lat="45.94114" lon="5.00326">
        <ele>285</ele>
        <time>2017-12-07T10:49:43Z</time>
      </trkpt>
      <trkpt lat="45.9411" lon="5.00329">
        <ele>285</ele>
        <time>2017-12-07T10:49:44Z</time>
      </trkpt>
      <trkpt lat="45.94106" lon="5.00334">
        <ele>285</ele>
        <time>2017-12-07T10:49:45Z</time>
      </trkpt>
      <trkpt lat="45.94102" lon="5.0034">
        <ele>285</ele>
        <time>2017-12-07T10:49:46Z</time>
      </trkpt>
      <trkpt lat="45.94098" lon="5.00345">
        <ele>285</ele>
        <time>2017-12-07T10:49:47Z</time>
      </trkpt>
      <trkpt lat="45.94094" lon="5.0035">
        <ele>286</ele>
        <time>2017-12-07T10:49:48Z</time>
      </trkpt>
      <trkpt lat="45.9409" lon="5.00352">
        <ele>286</ele>
        <time>2017-12-07T10:49:49Z</time>
      </trkpt>
      <trkpt lat="45.94086" lon="5.00357">
        <ele>286</ele>
        <time>2017-12-07T10:49:50Z</time>
      </trkpt>
      <trkpt lat="45.94082" lon="5.00361">
        <ele>285</ele>
        <time>2017-12-07T10:49:51Z</time>
      </trkpt>
      <trkpt lat="45.94075" lon="5.00364">
        <ele>285</ele>
        <time>2017-12-07T10:49:53Z</time>
      </trkpt>
      <trkpt lat="45.9407" lon="5.00366">
        <ele>285</ele>
        <time>2017-12-07T10:49:54Z</time>
      </trkpt>
      <trkpt lat="45.94061" lon="5.00366">
        <ele>285</ele>
        <time>2017-12-07T10:49:56Z</time>
      </trkpt>
      <trkpt lat="45.94057" lon="5.00367">
        <ele>285</ele>
        <time>2017-12-07T10:49:57Z</time>
      </trkpt>
      <trkpt lat="45.94052" lon="5.00365">
        <ele>285</ele>
        <time>2017-12-07T10:49:58Z</time>
      </trkpt>
      <trkpt lat="45.94046" lon="5.00363">
        <ele>285</ele>
        <time>2017-12-07T10:49:59Z</time>
      </trkpt>
      <trkpt lat="45.94038" lon="5.00362">
        <ele>285</ele>
        <time>2017-12-07T10:50:00Z</time>
      </trkpt>
      <trkpt lat="45.94034" lon="5.00362">
        <ele>285</ele>
        <time>2017-12-07T10:50:01Z</time>
      </trkpt>
      <trkpt lat="45.94029" lon="5.0036">
        <ele>285</ele>
        <time>2017-12-07T10:50:02Z</time>
      </trkpt>
      <trkpt lat="45.94023" lon="5.00359">
        <ele>285</ele>
        <time>2017-12-07T10:50:03Z</time>
      </trkpt>
      <trkpt lat="45.94018" lon="5.00358">
        <ele>285</ele>
        <time>2017-12-07T10:50:04Z</time>
      </trkpt>
      <trkpt lat="45.94014" lon="5.00356">
        <ele>285</ele>
        <time>2017-12-07T10:50:05Z</time>
      </trkpt>
      <trkpt lat="45.94006" lon="5.00353">
        <ele>285</ele>
        <time>2017-12-07T10:50:07Z</time>
      </trkpt>
      <trkpt lat="45.94002" lon="5.00351">
        <ele>285</ele>
        <time>2017-12-07T10:50:08Z</time>
      </trkpt>
      <trkpt lat="45.93995" lon="5.00349">
        <ele>285</ele>
        <time>2017-12-07T10:50:10Z</time>
      </trkpt>
      <trkpt lat="45.93992" lon="5.00349">
        <ele>285</ele>
        <time>2017-12-07T10:50:11Z</time>
      </trkpt>
      <trkpt lat="45.93986" lon="5.00347">
        <ele>285</ele>
        <time>2017-12-07T10:50:12Z</time>
      </trkpt>
      <trkpt lat="45.93983" lon="5.00343">
        <ele>285</ele>
        <time>2017-12-07T10:50:13Z</time>
      </trkpt>
      <trkpt lat="45.93978" lon="5.00341">
        <ele>285</ele>
        <time>2017-12-07T10:50:14Z</time>
      </trkpt>
      <trkpt lat="45.93974" lon="5.0034">
        <ele>286</ele>
        <time>2017-12-07T10:50:15Z</time>
      </trkpt>
      <trkpt lat="45.93967" lon="5.00341">
        <ele>286</ele>
        <time>2017-12-07T10:50:16Z</time>
      </trkpt>
      <trkpt lat="45.93962" lon="5.00339">
        <ele>286</ele>
        <time>2017-12-07T10:50:17Z</time>
      </trkpt>
      <trkpt lat="45.93957" lon="5.00336">
        <ele>286</ele>
        <time>2017-12-07T10:50:18Z</time>
      </trkpt>
      <trkpt lat="45.93951" lon="5.00335">
        <ele>286</ele>
        <time>2017-12-07T10:50:19Z</time>
      </trkpt>
      <trkpt lat="45.93946" lon="5.00334">
        <ele>286</ele>
        <time>2017-12-07T10:50:20Z</time>
      </trkpt>
      <trkpt lat="45.93941" lon="5.00332">
        <ele>286</ele>
        <time>2017-12-07T10:50:21Z</time>
      </trkpt>
      <trkpt lat="45.93933" lon="5.0033">
        <ele>286</ele>
        <time>2017-12-07T10:50:23Z</time>
      </trkpt>
      <trkpt lat="45.93929" lon="5.00329">
        <ele>286</ele>
        <time>2017-12-07T10:50:24Z</time>
      </trkpt>
      <trkpt lat="45.93924" lon="5.00327">
        <ele>286</ele>
        <time>2017-12-07T10:50:25Z</time>
      </trkpt>
      <trkpt lat="45.93919" lon="5.00325">
        <ele>286</ele>
        <time>2017-12-07T10:50:26Z</time>
      </trkpt>
      <trkpt lat="45.93912" lon="5.00323">
        <ele>287</ele>
        <time>2017-12-07T10:50:28Z</time>
      </trkpt>
      <trkpt lat="45.93907" lon="5.00321">
        <ele>287</ele>
        <time>2017-12-07T10:50:29Z</time>
      </trkpt>
      <trkpt lat="45.93899" lon="5.00319">
        <ele>287</ele>
        <time>2017-12-07T10:50:31Z</time>
      </trkpt>
      <trkpt lat="45.93894" lon="5.00318">
        <ele>287</ele>
        <time>2017-12-07T10:50:32Z</time>
      </trkpt>
      <trkpt lat="45.93886" lon="5.00316">
        <ele>288</ele>
        <time>2017-12-07T10:50:34Z</time>
      </trkpt>
      <trkpt lat="45.93883" lon="5.00315">
        <ele>288</ele>
        <time>2017-12-07T10:50:35Z</time>
      </trkpt>
      <trkpt lat="45.93878" lon="5.00312">
        <ele>288</ele>
        <time>2017-12-07T10:50:36Z</time>
      </trkpt>
      <trkpt lat="45.93874" lon="5.0031">
        <ele>288</ele>
        <time>2017-12-07T10:50:37Z</time>
      </trkpt>
      <trkpt lat="45.93866" lon="5.00306">
        <ele>288</ele>
        <time>2017-12-07T10:50:39Z</time>
      </trkpt>
      <trkpt lat="45.93861" lon="5.00308">
        <ele>288</ele>
        <time>2017-12-07T10:50:40Z</time>
      </trkpt>
      <trkpt lat="45.93854" lon="5.00305">
        <ele>288</ele>
        <time>2017-12-07T10:50:42Z</time>
      </trkpt>
      <trkpt lat="45.9385" lon="5.00304">
        <ele>288</ele>
        <time>2017-12-07T10:50:43Z</time>
      </trkpt>
      <trkpt lat="45.93843" lon="5.00301">
        <ele>288</ele>
        <time>2017-12-07T10:50:45Z</time>
      </trkpt>
      <trkpt lat="45.9384" lon="5.003">
        <ele>288</ele>
        <time>2017-12-07T10:50:46Z</time>
      </trkpt>
      <trkpt lat="45.93833" lon="5.00298">
        <ele>289</ele>
        <time>2017-12-07T10:50:48Z</time>
      </trkpt>
      <trkpt lat="45.9383" lon="5.00297">
        <ele>289</ele>
        <time>2017-12-07T10:50:49Z</time>
      </trkpt>
      <trkpt lat="45.93824" lon="5.00295">
        <ele>289</ele>
        <time>2017-12-07T10:50:51Z</time>
      </trkpt>
      <trkpt lat="45.93821" lon="5.00294">
        <ele>289</ele>
        <time>2017-12-07T10:50:52Z</time>
      </trkpt>
      <trkpt lat="45.93813" lon="5.00293">
        <ele>289</ele>
        <time>2017-12-07T10:50:54Z</time>
      </trkpt>
      <trkpt lat="45.93807" lon="5.00293">
        <ele>289</ele>
        <time>2017-12-07T10:50:55Z</time>
      </trkpt>
      <trkpt lat="45.93798" lon="5.00292">
        <ele>289</ele>
        <time>2017-12-07T10:50:57Z</time>
      </trkpt>
      <trkpt lat="45.93793" lon="5.00292">
        <ele>289</ele>
        <time>2017-12-07T10:50:58Z</time>
      </trkpt>
      <trkpt lat="45.93788" lon="5.00291">
        <ele>289</ele>
        <time>2017-12-07T10:50:59Z</time>
      </trkpt>
      <trkpt lat="45.93784" lon="5.0029">
        <ele>289</ele>
        <time>2017-12-07T10:51:00Z</time>
      </trkpt>
      <trkpt lat="45.93779" lon="5.00288">
        <ele>289</ele>
        <time>2017-12-07T10:51:01Z</time>
      </trkpt>
      <trkpt lat="45.93774" lon="5.00287">
        <ele>289</ele>
        <time>2017-12-07T10:51:02Z</time>
      </trkpt>
      <trkpt lat="45.93769" lon="5.00287">
        <ele>289</ele>
        <time>2017-12-07T10:51:03Z</time>
      </trkpt>
      <trkpt lat="45.93762" lon="5.00286">
        <ele>289</ele>
        <time>2017-12-07T10:51:04Z</time>
      </trkpt>
      <trkpt lat="45.93757" lon="5.00286">
        <ele>289</ele>
        <time>2017-12-07T10:51:05Z</time>
      </trkpt>
      <trkpt lat="45.93752" lon="5.00286">
        <ele>289</ele>
        <time>2017-12-07T10:51:06Z</time>
      </trkpt>
      <trkpt lat="45.93746" lon="5.00286">
        <ele>289</ele>
        <time>2017-12-07T10:51:07Z</time>
      </trkpt>
      <trkpt lat="45.93741" lon="5.00286">
        <ele>289</ele>
        <time>2017-12-07T10:51:08Z</time>
      </trkpt>
      <trkpt lat="45.93735" lon="5.00285">
        <ele>289</ele>
        <time>2017-12-07T10:51:09Z</time>
      </trkpt>
      <trkpt lat="45.9373" lon="5.00285">
        <ele>289</ele>
        <time>2017-12-07T10:51:10Z</time>
      </trkpt>
      <trkpt lat="45.93725" lon="5.00284">
        <ele>289</ele>
        <time>2017-12-07T10:51:11Z</time>
      </trkpt>
      <trkpt lat="45.9372" lon="5.00284">
        <ele>289</ele>
        <time>2017-12-07T10:51:12Z</time>
      </trkpt>
      <trkpt lat="45.93716" lon="5.00282">
        <ele>289</ele>
        <time>2017-12-07T10:51:13Z</time>
      </trkpt>
      <trkpt lat="45.93711" lon="5.00283">
        <ele>289</ele>
        <time>2017-12-07T10:51:14Z</time>
      </trkpt>
      <trkpt lat="45.93707" lon="5.00284">
        <ele>289</ele>
        <time>2017-12-07T10:51:15Z</time>
      </trkpt>
      <trkpt lat="45.93701" lon="5.00287">
        <ele>289</ele>
        <time>2017-12-07T10:51:16Z</time>
      </trkpt>
      <trkpt lat="45.93694" lon="5.00288">
        <ele>289</ele>
        <time>2017-12-07T10:51:17Z</time>
      </trkpt>
      <trkpt lat="45.9369" lon="5.00288">
        <ele>289</ele>
        <time>2017-12-07T10:51:18Z</time>
      </trkpt>
      <trkpt lat="45.93681" lon="5.0029">
        <ele>289</ele>
        <time>2017-12-07T10:51:20Z</time>
      </trkpt>
      <trkpt lat="45.93676" lon="5.00288">
        <ele>289</ele>
        <time>2017-12-07T10:51:21Z</time>
      </trkpt>
      <trkpt lat="45.9367" lon="5.00283">
        <ele>289</ele>
        <time>2017-12-07T10:51:23Z</time>
      </trkpt>
      <trkpt lat="45.93668" lon="5.0028">
        <ele>289</ele>
        <time>2017-12-07T10:51:24Z</time>
      </trkpt>
      <trkpt lat="45.93662" lon="5.00282">
        <ele>290</ele>
        <time>2017-12-07T10:51:25Z</time>
      </trkpt>
      <trkpt lat="45.93658" lon="5.0028">
        <ele>290</ele>
        <time>2017-12-07T10:51:26Z</time>
      </trkpt>
      <trkpt lat="45.93652" lon="5.00282">
        <ele>290</ele>
        <time>2017-12-07T10:51:27Z</time>
      </trkpt>
      <trkpt lat="45.93645" lon="5.00282">
        <ele>290</ele>
        <time>2017-12-07T10:51:28Z</time>
      </trkpt>
      <trkpt lat="45.93641" lon="5.00282">
        <ele>290</ele>
        <time>2017-12-07T10:51:29Z</time>
      </trkpt>
      <trkpt lat="45.93633" lon="5.00283">
        <ele>290</ele>
        <time>2017-12-07T10:51:30Z</time>
      </trkpt>
      <trkpt lat="45.93628" lon="5.00284">
        <ele>290</ele>
        <time>2017-12-07T10:51:31Z</time>
      </trkpt>
      <trkpt lat="45.93622" lon="5.00284">
        <ele>291</ele>
        <time>2017-12-07T10:51:32Z</time>
      </trkpt>
      <trkpt lat="45.93616" lon="5.00285">
        <ele>291</ele>
        <time>2017-12-07T10:51:33Z</time>
      </trkpt>
      <trkpt lat="45.93611" lon="5.00287">
        <ele>291</ele>
        <time>2017-12-07T10:51:34Z</time>
      </trkpt>
      <trkpt lat="45.93606" lon="5.0029">
        <ele>291</ele>
        <time>2017-12-07T10:51:35Z</time>
      </trkpt>
      <trkpt lat="45.93601" lon="5.00293">
        <ele>291</ele>
        <time>2017-12-07T10:51:36Z</time>
      </trkpt>
      <trkpt lat="45.93593" lon="5.00295">
        <ele>291</ele>
        <time>2017-12-07T10:51:38Z</time>
      </trkpt>
      <trkpt lat="45.9359" lon="5.00297">
        <ele>291</ele>
        <time>2017-12-07T10:51:39Z</time>
      </trkpt>
      <trkpt lat="45.93585" lon="5.00298">
        <ele>291</ele>
        <time>2017-12-07T10:51:40Z</time>
      </trkpt>
      <trkpt lat="45.9358" lon="5.003">
        <ele>292</ele>
        <time>2017-12-07T10:51:41Z</time>
      </trkpt>
      <trkpt lat="45.93576" lon="5.003">
        <ele>292</ele>
        <time>2017-12-07T10:51:42Z</time>
      </trkpt>
      <trkpt lat="45.93571" lon="5.00302">
        <ele>292</ele>
        <time>2017-12-07T10:51:43Z</time>
      </trkpt>
      <trkpt lat="45.93564" lon="5.00305">
        <ele>292</ele>
        <time>2017-12-07T10:51:45Z</time>
      </trkpt>
      <trkpt lat="45.93561" lon="5.00306">
        <ele>292</ele>
        <time>2017-12-07T10:51:46Z</time>
      </trkpt>
      <trkpt lat="45.93553" lon="5.00309">
        <ele>292</ele>
        <time>2017-12-07T10:51:48Z</time>
      </trkpt>
      <trkpt lat="45.93549" lon="5.00311">
        <ele>292</ele>
        <time>2017-12-07T10:51:49Z</time>
      </trkpt>
      <trkpt lat="45.93543" lon="5.00313">
        <ele>292</ele>
        <time>2017-12-07T10:51:51Z</time>
      </trkpt>
      <trkpt lat="45.93538" lon="5.00315">
        <ele>292</ele>
        <time>2017-12-07T10:51:52Z</time>
      </trkpt>
      <trkpt lat="45.9353" lon="5.00318">
        <ele>292</ele>
        <time>2017-12-07T10:51:54Z</time>
      </trkpt>
      <trkpt lat="45.93525" lon="5.0032">
        <ele>292</ele>
        <time>2017-12-07T10:51:55Z</time>
      </trkpt>
      <trkpt lat="45.9352" lon="5.00322">
        <ele>292</ele>
        <time>2017-12-07T10:51:56Z</time>
      </trkpt>
      <trkpt lat="45.93516" lon="5.00322">
        <ele>292</ele>
        <time>2017-12-07T10:51:57Z</time>
      </trkpt>
      <trkpt lat="45.93507" lon="5.00323">
        <ele>292</ele>
        <time>2017-12-07T10:51:59Z</time>
      </trkpt>
      <trkpt lat="45.93503" lon="5.00324">
        <ele>293</ele>
        <time>2017-12-07T10:52:00Z</time>
      </trkpt>
      <trkpt lat="45.93498" lon="5.00327">
        <ele>293</ele>
        <time>2017-12-07T10:52:01Z</time>
      </trkpt>
      <trkpt lat="45.93493" lon="5.0033">
        <ele>293</ele>
        <time>2017-12-07T10:52:02Z</time>
      </trkpt>
      <trkpt lat="45.93488" lon="5.00334">
        <ele>294</ele>
        <time>2017-12-07T10:52:03Z</time>
      </trkpt>
      <trkpt lat="45.93484" lon="5.00335">
        <ele>294</ele>
        <time>2017-12-07T10:52:04Z</time>
      </trkpt>
      <trkpt lat="45.93478" lon="5.00342">
        <ele>294</ele>
        <time>2017-12-07T10:52:06Z</time>
      </trkpt>
      <trkpt lat="45.93473" lon="5.00347">
        <ele>295</ele>
        <time>2017-12-07T10:52:07Z</time>
      </trkpt>
      <trkpt lat="45.93466" lon="5.00354">
        <ele>295</ele>
        <time>2017-12-07T10:52:09Z</time>
      </trkpt>
      <trkpt lat="45.93463" lon="5.00355">
        <ele>295</ele>
        <time>2017-12-07T10:52:10Z</time>
      </trkpt>
      <trkpt lat="45.93457" lon="5.00361">
        <ele>295</ele>
        <time>2017-12-07T10:52:12Z</time>
      </trkpt>
      <trkpt lat="45.93453" lon="5.00363">
        <ele>295</ele>
        <time>2017-12-07T10:52:13Z</time>
      </trkpt>
      <trkpt lat="45.93447" lon="5.00367">
        <ele>296</ele>
        <time>2017-12-07T10:52:15Z</time>
      </trkpt>
      <trkpt lat="45.93444" lon="5.00372">
        <ele>296</ele>
        <time>2017-12-07T10:52:16Z</time>
      </trkpt>
      <trkpt lat="45.93441" lon="5.00373">
        <ele>296</ele>
        <time>2017-12-07T10:52:17Z</time>
      </trkpt>
      <trkpt lat="45.93436" lon="5.00376">
        <ele>296</ele>
        <time>2017-12-07T10:52:18Z</time>
      </trkpt>
      <trkpt lat="45.9343" lon="5.00381">
        <ele>296</ele>
        <time>2017-12-07T10:52:20Z</time>
      </trkpt>
      <trkpt lat="45.93424" lon="5.00384">
        <ele>296</ele>
        <time>2017-12-07T10:52:21Z</time>
      </trkpt>
      <trkpt lat="45.93417" lon="5.00389">
        <ele>297</ele>
        <time>2017-12-07T10:52:23Z</time>
      </trkpt>
      <trkpt lat="45.9341" lon="5.00394">
        <ele>297</ele>
        <time>2017-12-07T10:52:24Z</time>
      </trkpt>
      <trkpt lat="45.93405" lon="5.004">
        <ele>297</ele>
        <time>2017-12-07T10:52:25Z</time>
      </trkpt>
      <trkpt lat="45.93399" lon="5.00405">
        <ele>297</ele>
        <time>2017-12-07T10:52:26Z</time>
      </trkpt>
      <trkpt lat="45.93393" lon="5.00412">
        <ele>297</ele>
        <time>2017-12-07T10:52:27Z</time>
      </trkpt>
      <trkpt lat="45.93389" lon="5.00416">
        <ele>297</ele>
        <time>2017-12-07T10:52:28Z</time>
      </trkpt>
      <trkpt lat="45.93386" lon="5.00423">
        <ele>297</ele>
        <time>2017-12-07T10:52:29Z</time>
      </trkpt>
      <trkpt lat="45.93382" lon="5.00427">
        <ele>297</ele>
        <time>2017-12-07T10:52:30Z</time>
      </trkpt>
      <trkpt lat="45.93375" lon="5.00425">
        <ele>297</ele>
        <time>2017-12-07T10:52:31Z</time>
      </trkpt>
      <trkpt lat="45.93373" lon="5.00431">
        <ele>297</ele>
        <time>2017-12-07T10:52:32Z</time>
      </trkpt>
      <trkpt lat="45.93367" lon="5.00436">
        <ele>297</ele>
        <time>2017-12-07T10:52:33Z</time>
      </trkpt>
      <trkpt lat="45.93363" lon="5.00437">
        <ele>297</ele>
        <time>2017-12-07T10:52:34Z</time>
      </trkpt>
      <trkpt lat="45.93357" lon="5.00435">
        <ele>297</ele>
        <time>2017-12-07T10:52:35Z</time>
      </trkpt>
      <trkpt lat="45.93351" lon="5.00443">
        <ele>297</ele>
        <time>2017-12-07T10:52:36Z</time>
      </trkpt>
      <trkpt lat="45.93345" lon="5.00451">
        <ele>297</ele>
        <time>2017-12-07T10:52:38Z</time>
      </trkpt>
      <trkpt lat="45.93341" lon="5.00459">
        <ele>297</ele>
        <time>2017-12-07T10:52:39Z</time>
      </trkpt>
      <trkpt lat="45.93337" lon="5.00465">
        <ele>297</ele>
        <time>2017-12-07T10:52:40Z</time>
      </trkpt>
      <trkpt lat="45.93333" lon="5.00469">
        <ele>295</ele>
        <time>2017-12-07T10:52:41Z</time>
      </trkpt>
      <trkpt lat="45.93329" lon="5.00475">
        <ele>296</ele>
        <time>2017-12-07T10:52:42Z</time>
      </trkpt>
      <trkpt lat="45.93324" lon="5.00479">
        <ele>296</ele>
        <time>2017-12-07T10:52:43Z</time>
      </trkpt>
      <trkpt lat="45.93318" lon="5.00483">
        <ele>296</ele>
        <time>2017-12-07T10:52:45Z</time>
      </trkpt>
      <trkpt lat="45.93315" lon="5.00488">
        <ele>295</ele>
        <time>2017-12-07T10:52:46Z</time>
      </trkpt>
      <trkpt lat="45.93312" lon="5.00494">
        <ele>295</ele>
        <time>2017-12-07T10:52:47Z</time>
      </trkpt>
      <trkpt lat="45.93311" lon="5.00504">
        <ele>296</ele>
        <time>2017-12-07T10:52:48Z</time>
      </trkpt>
      <trkpt lat="45.93303" lon="5.00518">
        <ele>296</ele>
        <time>2017-12-07T10:52:49Z</time>
      </trkpt>
      <trkpt lat="45.93299" lon="5.00524">
        <ele>296</ele>
        <time>2017-12-07T10:52:50Z</time>
      </trkpt>
      <trkpt lat="45.93294" lon="5.00531">
        <ele>296</ele>
        <time>2017-12-07T10:52:51Z</time>
      </trkpt>
      <trkpt lat="45.9329" lon="5.00542">
        <ele>296</ele>
        <time>2017-12-07T10:52:52Z</time>
      </trkpt>
      <trkpt lat="45.93285" lon="5.00549">
        <ele>296</ele>
        <time>2017-12-07T10:52:53Z</time>
      </trkpt>
      <trkpt lat="45.93282" lon="5.00555">
        <ele>296</ele>
        <time>2017-12-07T10:52:54Z</time>
      </trkpt>
      <trkpt lat="45.93277" lon="5.00559">
        <ele>295</ele>
        <time>2017-12-07T10:52:55Z</time>
      </trkpt>
      <trkpt lat="45.93273" lon="5.00564">
        <ele>295</ele>
        <time>2017-12-07T10:52:56Z</time>
      </trkpt>
      <trkpt lat="45.9327" lon="5.0057">
        <ele>295</ele>
        <time>2017-12-07T10:52:57Z</time>
      </trkpt>
      <trkpt lat="45.93265" lon="5.00574">
        <ele>295</ele>
        <time>2017-12-07T10:52:58Z</time>
      </trkpt>
      <trkpt lat="45.93261" lon="5.00578">
        <ele>295</ele>
        <time>2017-12-07T10:52:59Z</time>
      </trkpt>
      <trkpt lat="45.93256" lon="5.00587">
        <ele>295</ele>
        <time>2017-12-07T10:53:01Z</time>
      </trkpt>
      <trkpt lat="45.93252" lon="5.00588">
        <ele>294</ele>
        <time>2017-12-07T10:53:02Z</time>
      </trkpt>
      <trkpt lat="45.93245" lon="5.00594">
        <ele>293</ele>
        <time>2017-12-07T10:53:04Z</time>
      </trkpt>
      <trkpt lat="45.93241" lon="5.00597">
        <ele>293</ele>
        <time>2017-12-07T10:53:05Z</time>
      </trkpt>
      <trkpt lat="45.93237" lon="5.006">
        <ele>292</ele>
        <time>2017-12-07T10:53:06Z</time>
      </trkpt>
      <trkpt lat="45.93232" lon="5.00605">
        <ele>292</ele>
        <time>2017-12-07T10:53:07Z</time>
      </trkpt>
      <trkpt lat="45.93227" lon="5.0061">
        <ele>292</ele>
        <time>2017-12-07T10:53:08Z</time>
      </trkpt>
      <trkpt lat="45.93222" lon="5.00612">
        <ele>292</ele>
        <time>2017-12-07T10:53:09Z</time>
      </trkpt>
      <trkpt lat="45.93217" lon="5.00611">
        <ele>292</ele>
        <time>2017-12-07T10:53:10Z</time>
      </trkpt>
      <trkpt lat="45.93213" lon="5.00611">
        <ele>291</ele>
        <time>2017-12-07T10:53:11Z</time>
      </trkpt>
      <trkpt lat="45.93208" lon="5.00612">
        <ele>291</ele>
        <time>2017-12-07T10:53:12Z</time>
      </trkpt>
      <trkpt lat="45.93204" lon="5.00613">
        <ele>291</ele>
        <time>2017-12-07T10:53:13Z</time>
      </trkpt>
      <trkpt lat="45.932" lon="5.00623">
        <ele>291</ele>
        <time>2017-12-07T10:53:14Z</time>
      </trkpt>
      <trkpt lat="45.93198" lon="5.00624">
        <ele>291</ele>
        <time>2017-12-07T10:53:15Z</time>
      </trkpt>
      <trkpt lat="45.9319" lon="5.00626">
        <ele>291</ele>
        <time>2017-12-07T10:53:16Z</time>
      </trkpt>
      <trkpt lat="45.93186" lon="5.00627">
        <ele>290</ele>
        <time>2017-12-07T10:53:17Z</time>
      </trkpt>
      <trkpt lat="45.93182" lon="5.00631">
        <ele>290</ele>
        <time>2017-12-07T10:53:18Z</time>
      </trkpt>
      <trkpt lat="45.93177" lon="5.00632">
        <ele>290</ele>
        <time>2017-12-07T10:53:19Z</time>
      </trkpt>
      <trkpt lat="45.9317" lon="5.00631">
        <ele>290</ele>
        <time>2017-12-07T10:53:20Z</time>
      </trkpt>
      <trkpt lat="45.93166" lon="5.00632">
        <ele>287</ele>
        <time>2017-12-07T10:53:21Z</time>
      </trkpt>
      <trkpt lat="45.93159" lon="5.00632">
        <ele>287</ele>
        <time>2017-12-07T10:53:24Z</time>
      </trkpt>
      <trkpt lat="45.93154" lon="5.00633">
        <ele>287</ele>
        <time>2017-12-07T10:53:25Z</time>
      </trkpt>
      <trkpt lat="45.93147" lon="5.00629">
        <ele>287</ele>
        <time>2017-12-07T10:53:28Z</time>
      </trkpt>
      <trkpt lat="45.93142" lon="5.00633">
        <ele>287</ele>
        <time>2017-12-07T10:53:29Z</time>
      </trkpt>
      <trkpt lat="45.93136" lon="5.00633">
        <ele>287</ele>
        <time>2017-12-07T10:53:30Z</time>
      </trkpt>
      <trkpt lat="45.93131" lon="5.00633">
        <ele>287</ele>
        <time>2017-12-07T10:53:31Z</time>
      </trkpt>
      <trkpt lat="45.93125" lon="5.00634">
        <ele>287</ele>
        <time>2017-12-07T10:53:32Z</time>
      </trkpt>
      <trkpt lat="45.93118" lon="5.00635">
        <ele>286</ele>
        <time>2017-12-07T10:53:33Z</time>
      </trkpt>
      <trkpt lat="45.93113" lon="5.00636">
        <ele>286</ele>
        <time>2017-12-07T10:53:34Z</time>
      </trkpt>
      <trkpt lat="45.93107" lon="5.00637">
        <ele>286</ele>
        <time>2017-12-07T10:53:35Z</time>
      </trkpt>
      <trkpt lat="45.93101" lon="5.00637">
        <ele>286</ele>
        <time>2017-12-07T10:53:36Z</time>
      </trkpt>
      <trkpt lat="45.93095" lon="5.00639">
        <ele>286</ele>
        <time>2017-12-07T10:53:37Z</time>
      </trkpt>
      <trkpt lat="45.93089" lon="5.0064">
        <ele>286</ele>
        <time>2017-12-07T10:53:38Z</time>
      </trkpt>
      <trkpt lat="45.93084" lon="5.0064">
        <ele>286</ele>
        <time>2017-12-07T10:53:39Z</time>
      </trkpt>
      <trkpt lat="45.9308" lon="5.0064">
        <ele>286</ele>
        <time>2017-12-07T10:53:40Z</time>
      </trkpt>
      <trkpt lat="45.93075" lon="5.00641">
        <ele>286</ele>
        <time>2017-12-07T10:53:41Z</time>
      </trkpt>
      <trkpt lat="45.9307" lon="5.00642">
        <ele>286</ele>
        <time>2017-12-07T10:53:42Z</time>
      </trkpt>
      <trkpt lat="45.93064" lon="5.00643">
        <ele>286</ele>
        <time>2017-12-07T10:53:43Z</time>
      </trkpt>
      <trkpt lat="45.93055" lon="5.00643">
        <ele>286</ele>
        <time>2017-12-07T10:53:45Z</time>
      </trkpt>
      <trkpt lat="45.93049" lon="5.00646">
        <ele>286</ele>
        <time>2017-12-07T10:53:46Z</time>
      </trkpt>
      <trkpt lat="45.93044" lon="5.00645">
        <ele>286</ele>
        <time>2017-12-07T10:53:47Z</time>
      </trkpt>
      <trkpt lat="45.93039" lon="5.00646">
        <ele>286</ele>
        <time>2017-12-07T10:53:48Z</time>
      </trkpt>
      <trkpt lat="45.93031" lon="5.00647">
        <ele>286</ele>
        <time>2017-12-07T10:53:50Z</time>
      </trkpt>
      <trkpt lat="45.93027" lon="5.00648">
        <ele>286</ele>
        <time>2017-12-07T10:53:51Z</time>
      </trkpt>
      <trkpt lat="45.9302" lon="5.00651">
        <ele>286</ele>
        <time>2017-12-07T10:53:52Z</time>
      </trkpt>
      <trkpt lat="45.93014" lon="5.00654">
        <ele>286</ele>
        <time>2017-12-07T10:53:53Z</time>
      </trkpt>
      <trkpt lat="45.93009" lon="5.00656">
        <ele>286</ele>
        <time>2017-12-07T10:53:54Z</time>
      </trkpt>
      <trkpt lat="45.93005" lon="5.00658">
        <ele>287</ele>
        <time>2017-12-07T10:53:55Z</time>
      </trkpt>
      <trkpt lat="45.93" lon="5.00661">
        <ele>287</ele>
        <time>2017-12-07T10:53:56Z</time>
      </trkpt>
      <trkpt lat="45.92996" lon="5.00663">
        <ele>287</ele>
        <time>2017-12-07T10:53:57Z</time>
      </trkpt>
      <trkpt lat="45.92991" lon="5.00667">
        <ele>287</ele>
        <time>2017-12-07T10:53:58Z</time>
      </trkpt>
      <trkpt lat="45.92987" lon="5.00669">
        <ele>287</ele>
        <time>2017-12-07T10:53:59Z</time>
      </trkpt>
      <trkpt lat="45.92979" lon="5.00672">
        <ele>287</ele>
        <time>2017-12-07T10:54:01Z</time>
      </trkpt>
      <trkpt lat="45.92974" lon="5.00675">
        <ele>287</ele>
        <time>2017-12-07T10:54:02Z</time>
      </trkpt>
      <trkpt lat="45.92966" lon="5.0068">
        <ele>287</ele>
        <time>2017-12-07T10:54:04Z</time>
      </trkpt>
      <trkpt lat="45.92962" lon="5.00683">
        <ele>287</ele>
        <time>2017-12-07T10:54:05Z</time>
      </trkpt>
      <trkpt lat="45.92954" lon="5.00687">
        <ele>287</ele>
        <time>2017-12-07T10:54:08Z</time>
      </trkpt>
      <trkpt lat="45.92951" lon="5.00689">
        <ele>287</ele>
        <time>2017-12-07T10:54:09Z</time>
      </trkpt>
      <trkpt lat="45.92945" lon="5.00694">
        <ele>287</ele>
        <time>2017-12-07T10:54:10Z</time>
      </trkpt>
      <trkpt lat="45.92942" lon="5.00696">
        <ele>287</ele>
        <time>2017-12-07T10:54:11Z</time>
      </trkpt>
      <trkpt lat="45.92936" lon="5.00701">
        <ele>287</ele>
        <time>2017-12-07T10:54:13Z</time>
      </trkpt>
      <trkpt lat="45.92933" lon="5.00702">
        <ele>287</ele>
        <time>2017-12-07T10:54:14Z</time>
      </trkpt>
      <trkpt lat="45.92925" lon="5.00704">
        <ele>287</ele>
        <time>2017-12-07T10:54:15Z</time>
      </trkpt>
      <trkpt lat="45.92921" lon="5.00707">
        <ele>287</ele>
        <time>2017-12-07T10:54:16Z</time>
      </trkpt>
      <trkpt lat="45.92914" lon="5.00711">
        <ele>288</ele>
        <time>2017-12-07T10:54:18Z</time>
      </trkpt>
      <trkpt lat="45.9291" lon="5.00713">
        <ele>288</ele>
        <time>2017-12-07T10:54:19Z</time>
      </trkpt>
      <trkpt lat="45.92905" lon="5.00717">
        <ele>288</ele>
        <time>2017-12-07T10:54:20Z</time>
      </trkpt>
      <trkpt lat="45.929" lon="5.00721">
        <ele>288</ele>
        <time>2017-12-07T10:54:21Z</time>
      </trkpt>
      <trkpt lat="45.92896" lon="5.00725">
        <ele>288</ele>
        <time>2017-12-07T10:54:22Z</time>
      </trkpt>
      <trkpt lat="45.92892" lon="5.00728">
        <ele>288</ele>
        <time>2017-12-07T10:54:23Z</time>
      </trkpt>
      <trkpt lat="45.92884" lon="5.00735">
        <ele>288</ele>
        <time>2017-12-07T10:54:25Z</time>
      </trkpt>
      <trkpt lat="45.92881" lon="5.00738">
        <ele>288</ele>
        <time>2017-12-07T10:54:26Z</time>
      </trkpt>
      <trkpt lat="45.92874" lon="5.00745">
        <ele>287</ele>
        <time>2017-12-07T10:54:28Z</time>
      </trkpt>
      <trkpt lat="45.92871" lon="5.00748">
        <ele>287</ele>
        <time>2017-12-07T10:54:29Z</time>
      </trkpt>
      <trkpt lat="45.92867" lon="5.00753">
        <ele>287</ele>
        <time>2017-12-07T10:54:30Z</time>
      </trkpt>
      <trkpt lat="45.92864" lon="5.00757">
        <ele>287</ele>
        <time>2017-12-07T10:54:31Z</time>
      </trkpt>
      <trkpt lat="45.92859" lon="5.00766">
        <ele>287</ele>
        <time>2017-12-07T10:54:32Z</time>
      </trkpt>
      <trkpt lat="45.92856" lon="5.0077">
        <ele>287</ele>
        <time>2017-12-07T10:54:33Z</time>
      </trkpt>
      <trkpt lat="45.92853" lon="5.00775">
        <ele>287</ele>
        <time>2017-12-07T10:54:34Z</time>
      </trkpt>
      <trkpt lat="45.92845" lon="5.00782">
        <ele>287</ele>
        <time>2017-12-07T10:54:35Z</time>
      </trkpt>
      <trkpt lat="45.92839" lon="5.00791">
        <ele>287</ele>
        <time>2017-12-07T10:54:37Z</time>
      </trkpt>
      <trkpt lat="45.92836" lon="5.00797">
        <ele>287</ele>
        <time>2017-12-07T10:54:38Z</time>
      </trkpt>
      <trkpt lat="45.92831" lon="5.00803">
        <ele>287</ele>
        <time>2017-12-07T10:54:39Z</time>
      </trkpt>
      <trkpt lat="45.92828" lon="5.00809">
        <ele>287</ele>
        <time>2017-12-07T10:54:40Z</time>
      </trkpt>
      <trkpt lat="45.92826" lon="5.00815">
        <ele>287</ele>
        <time>2017-12-07T10:54:41Z</time>
      </trkpt>
      <trkpt lat="45.92823" lon="5.00822">
        <ele>287</ele>
        <time>2017-12-07T10:54:42Z</time>
      </trkpt>
      <trkpt lat="45.92819" lon="5.00826">
        <ele>287</ele>
        <time>2017-12-07T10:54:43Z</time>
      </trkpt>
      <trkpt lat="45.92816" lon="5.00832">
        <ele>287</ele>
        <time>2017-12-07T10:54:44Z</time>
      </trkpt>
      <trkpt lat="45.92813" lon="5.00839">
        <ele>287</ele>
        <time>2017-12-07T10:54:45Z</time>
      </trkpt>
      <trkpt lat="45.9281" lon="5.00845">
        <ele>287</ele>
        <time>2017-12-07T10:54:46Z</time>
      </trkpt>
      <trkpt lat="45.92806" lon="5.00849">
        <ele>287</ele>
        <time>2017-12-07T10:54:47Z</time>
      </trkpt>
      <trkpt lat="45.92802" lon="5.00855">
        <ele>287</ele>
        <time>2017-12-07T10:54:48Z</time>
      </trkpt>
      <trkpt lat="45.92799" lon="5.00859">
        <ele>287</ele>
        <time>2017-12-07T10:54:49Z</time>
      </trkpt>
      <trkpt lat="45.92795" lon="5.00865">
        <ele>287</ele>
        <time>2017-12-07T10:54:50Z</time>
      </trkpt>
      <trkpt lat="45.92793" lon="5.00871">
        <ele>287</ele>
        <time>2017-12-07T10:54:51Z</time>
      </trkpt>
      <trkpt lat="45.92789" lon="5.00875">
        <ele>287</ele>
        <time>2017-12-07T10:54:52Z</time>
      </trkpt>
      <trkpt lat="45.92786" lon="5.0088">
        <ele>287</ele>
        <time>2017-12-07T10:54:53Z</time>
      </trkpt>
      <trkpt lat="45.92783" lon="5.00885">
        <ele>287</ele>
        <time>2017-12-07T10:54:54Z</time>
      </trkpt>
      <trkpt lat="45.92781" lon="5.00887">
        <ele>287</ele>
        <time>2017-12-07T10:54:55Z</time>
      </trkpt>
      <trkpt lat="45.92775" lon="5.00893">
        <ele>287</ele>
        <time>2017-12-07T10:54:56Z</time>
      </trkpt>
      <trkpt lat="45.92771" lon="5.00897">
        <ele>287</ele>
        <time>2017-12-07T10:54:57Z</time>
      </trkpt>
      <trkpt lat="45.92767" lon="5.00903">
        <ele>287</ele>
        <time>2017-12-07T10:54:58Z</time>
      </trkpt>
      <trkpt lat="45.92763" lon="5.00908">
        <ele>287</ele>
        <time>2017-12-07T10:54:59Z</time>
      </trkpt>
      <trkpt lat="45.9276" lon="5.00914">
        <ele>287</ele>
        <time>2017-12-07T10:55:00Z</time>
      </trkpt>
      <trkpt lat="45.92757" lon="5.00919">
        <ele>287</ele>
        <time>2017-12-07T10:55:01Z</time>
      </trkpt>
      <trkpt lat="45.92752" lon="5.00923">
        <ele>287</ele>
        <time>2017-12-07T10:55:02Z</time>
      </trkpt>
      <trkpt lat="45.92747" lon="5.00929">
        <ele>287</ele>
        <time>2017-12-07T10:55:04Z</time>
      </trkpt>
      <trkpt lat="45.92744" lon="5.00933">
        <ele>287</ele>
        <time>2017-12-07T10:55:05Z</time>
      </trkpt>
      <trkpt lat="45.9274" lon="5.00942">
        <ele>287</ele>
        <time>2017-12-07T10:55:07Z</time>
      </trkpt>
      <trkpt lat="45.92736" lon="5.00946">
        <ele>287</ele>
        <time>2017-12-07T10:55:08Z</time>
      </trkpt>
      <trkpt lat="45.92732" lon="5.00948">
        <ele>287</ele>
        <time>2017-12-07T10:55:09Z</time>
      </trkpt>
      <trkpt lat="45.92727" lon="5.00951">
        <ele>287</ele>
        <time>2017-12-07T10:55:10Z</time>
      </trkpt>
      <trkpt lat="45.92722" lon="5.0096">
        <ele>287</ele>
        <time>2017-12-07T10:55:12Z</time>
      </trkpt>
      <trkpt lat="45.92718" lon="5.00965">
        <ele>287</ele>
        <time>2017-12-07T10:55:13Z</time>
      </trkpt>
      <trkpt lat="45.92714" lon="5.0097">
        <ele>287</ele>
        <time>2017-12-07T10:55:14Z</time>
      </trkpt>
      <trkpt lat="45.9271" lon="5.00974">
        <ele>287</ele>
        <time>2017-12-07T10:55:15Z</time>
      </trkpt>
      <trkpt lat="45.92706" lon="5.0098">
        <ele>287</ele>
        <time>2017-12-07T10:55:16Z</time>
      </trkpt>
      <trkpt lat="45.92702" lon="5.00985">
        <ele>287</ele>
        <time>2017-12-07T10:55:17Z</time>
      </trkpt>
      <trkpt lat="45.92698" lon="5.0099">
        <ele>287</ele>
        <time>2017-12-07T10:55:18Z</time>
      </trkpt>
      <trkpt lat="45.92694" lon="5.00995">
        <ele>287</ele>
        <time>2017-12-07T10:55:19Z</time>
      </trkpt>
      <trkpt lat="45.9269" lon="5.00998">
        <ele>288</ele>
        <time>2017-12-07T10:55:20Z</time>
      </trkpt>
      <trkpt lat="45.92686" lon="5.01002">
        <ele>288</ele>
        <time>2017-12-07T10:55:21Z</time>
      </trkpt>
      <trkpt lat="45.92678" lon="5.01007">
        <ele>289</ele>
        <time>2017-12-07T10:55:23Z</time>
      </trkpt>
      <trkpt lat="45.92673" lon="5.0101">
        <ele>289</ele>
        <time>2017-12-07T10:55:24Z</time>
      </trkpt>
      <trkpt lat="45.92665" lon="5.01016">
        <ele>289</ele>
        <time>2017-12-07T10:55:26Z</time>
      </trkpt>
      <trkpt lat="45.9266" lon="5.01018">
        <ele>289</ele>
        <time>2017-12-07T10:55:27Z</time>
      </trkpt>
      <trkpt lat="45.92655" lon="5.0102">
        <ele>289</ele>
        <time>2017-12-07T10:55:28Z</time>
      </trkpt>
      <trkpt lat="45.92651" lon="5.01022">
        <ele>289</ele>
        <time>2017-12-07T10:55:29Z</time>
      </trkpt>
      <trkpt lat="45.92644" lon="5.01027">
        <ele>289</ele>
        <time>2017-12-07T10:55:31Z</time>
      </trkpt>
      <trkpt lat="45.92641" lon="5.01028">
        <ele>289</ele>
        <time>2017-12-07T10:55:32Z</time>
      </trkpt>
      <trkpt lat="45.92633" lon="5.01029">
        <ele>288</ele>
        <time>2017-12-07T10:55:34Z</time>
      </trkpt>
      <trkpt lat="45.92629" lon="5.01029">
        <ele>288</ele>
        <time>2017-12-07T10:55:35Z</time>
      </trkpt>
      <trkpt lat="45.92626" lon="5.0103">
        <ele>288</ele>
        <time>2017-12-07T10:55:36Z</time>
      </trkpt>
      <trkpt lat="45.92619" lon="5.01031">
        <ele>288</ele>
        <time>2017-12-07T10:55:37Z</time>
      </trkpt>
      <trkpt lat="45.92611" lon="5.01034">
        <ele>288</ele>
        <time>2017-12-07T10:55:39Z</time>
      </trkpt>
      <trkpt lat="45.92606" lon="5.01038">
        <ele>288</ele>
        <time>2017-12-07T10:55:40Z</time>
      </trkpt>
      <trkpt lat="45.92598" lon="5.01042">
        <ele>288</ele>
        <time>2017-12-07T10:55:42Z</time>
      </trkpt>
      <trkpt lat="45.92595" lon="5.01044">
        <ele>288</ele>
        <time>2017-12-07T10:55:43Z</time>
      </trkpt>
      <trkpt lat="45.92591" lon="5.01044">
        <ele>288</ele>
        <time>2017-12-07T10:55:45Z</time>
      </trkpt>
      <trkpt lat="45.92585" lon="5.01045">
        <ele>288</ele>
        <time>2017-12-07T10:55:46Z</time>
      </trkpt>
      <trkpt lat="45.92578" lon="5.01047">
        <ele>288</ele>
        <time>2017-12-07T10:55:48Z</time>
      </trkpt>
      <trkpt lat="45.92574" lon="5.01049">
        <ele>288</ele>
        <time>2017-12-07T10:55:49Z</time>
      </trkpt>
      <trkpt lat="45.92569" lon="5.01051">
        <ele>288</ele>
        <time>2017-12-07T10:55:50Z</time>
      </trkpt>
      <trkpt lat="45.92565" lon="5.01054">
        <ele>288</ele>
        <time>2017-12-07T10:55:51Z</time>
      </trkpt>
      <trkpt lat="45.92558" lon="5.01054">
        <ele>288</ele>
        <time>2017-12-07T10:55:53Z</time>
      </trkpt>
      <trkpt lat="45.92552" lon="5.01057">
        <ele>288</ele>
        <time>2017-12-07T10:55:54Z</time>
      </trkpt>
      <trkpt lat="45.92544" lon="5.01058">
        <ele>288</ele>
        <time>2017-12-07T10:55:56Z</time>
      </trkpt>
      <trkpt lat="45.92539" lon="5.01059">
        <ele>288</ele>
        <time>2017-12-07T10:55:57Z</time>
      </trkpt>
      <trkpt lat="45.92531" lon="5.01061">
        <ele>288</ele>
        <time>2017-12-07T10:55:59Z</time>
      </trkpt>
      <trkpt lat="45.92527" lon="5.01059">
        <ele>288</ele>
        <time>2017-12-07T10:56:00Z</time>
      </trkpt>
      <trkpt lat="45.92519" lon="5.01061">
        <ele>288</ele>
        <time>2017-12-07T10:56:02Z</time>
      </trkpt>
      <trkpt lat="45.92515" lon="5.01061">
        <ele>288</ele>
        <time>2017-12-07T10:56:03Z</time>
      </trkpt>
      <trkpt lat="45.92508" lon="5.01062">
        <ele>288</ele>
        <time>2017-12-07T10:56:05Z</time>
      </trkpt>
      <trkpt lat="45.92505" lon="5.01062">
        <ele>288</ele>
        <time>2017-12-07T10:56:06Z</time>
      </trkpt>
      <trkpt lat="45.92497" lon="5.01062">
        <ele>288</ele>
        <time>2017-12-07T10:56:08Z</time>
      </trkpt>
      <trkpt lat="45.92493" lon="5.01062">
        <ele>288</ele>
        <time>2017-12-07T10:56:09Z</time>
      </trkpt>
      <trkpt lat="45.92486" lon="5.01063">
        <ele>288</ele>
        <time>2017-12-07T10:56:11Z</time>
      </trkpt>
      <trkpt lat="45.92482" lon="5.01063">
        <ele>288</ele>
        <time>2017-12-07T10:56:12Z</time>
      </trkpt>
      <trkpt lat="45.92475" lon="5.01064">
        <ele>288</ele>
        <time>2017-12-07T10:56:14Z</time>
      </trkpt>
      <trkpt lat="45.92471" lon="5.01064">
        <ele>288</ele>
        <time>2017-12-07T10:56:15Z</time>
      </trkpt>
      <trkpt lat="45.92463" lon="5.01063">
        <ele>288</ele>
        <time>2017-12-07T10:56:17Z</time>
      </trkpt>
      <trkpt lat="45.92459" lon="5.01063">
        <ele>288</ele>
        <time>2017-12-07T10:56:18Z</time>
      </trkpt>
      <trkpt lat="45.92451" lon="5.01064">
        <ele>288</ele>
        <time>2017-12-07T10:56:20Z</time>
      </trkpt>
      <trkpt lat="45.92448" lon="5.01065">
        <ele>288</ele>
        <time>2017-12-07T10:56:21Z</time>
      </trkpt>
      <trkpt lat="45.9244" lon="5.01066">
        <ele>288</ele>
        <time>2017-12-07T10:56:23Z</time>
      </trkpt>
      <trkpt lat="45.92437" lon="5.01065">
        <ele>288</ele>
        <time>2017-12-07T10:56:24Z</time>
      </trkpt>
      <trkpt lat="45.92429" lon="5.01066">
        <ele>289</ele>
        <time>2017-12-07T10:56:26Z</time>
      </trkpt>
      <trkpt lat="45.92425" lon="5.01066">
        <ele>289</ele>
        <time>2017-12-07T10:56:27Z</time>
      </trkpt>
      <trkpt lat="45.92418" lon="5.01068">
        <ele>289</ele>
        <time>2017-12-07T10:56:29Z</time>
      </trkpt>
      <trkpt lat="45.92414" lon="5.01068">
        <ele>288</ele>
        <time>2017-12-07T10:56:30Z</time>
      </trkpt>
      <trkpt lat="45.92408" lon="5.0107">
        <ele>288</ele>
        <time>2017-12-07T10:56:32Z</time>
      </trkpt>
      <trkpt lat="45.92405" lon="5.01071">
        <ele>288</ele>
        <time>2017-12-07T10:56:33Z</time>
      </trkpt>
      <trkpt lat="45.92397" lon="5.01077">
        <ele>288</ele>
        <time>2017-12-07T10:56:35Z</time>
      </trkpt>
      <trkpt lat="45.92394" lon="5.01081">
        <ele>288</ele>
        <time>2017-12-07T10:56:36Z</time>
      </trkpt>
      <trkpt lat="45.92388" lon="5.01087">
        <ele>288</ele>
        <time>2017-12-07T10:56:38Z</time>
      </trkpt>
      <trkpt lat="45.92385" lon="5.01089">
        <ele>288</ele>
        <time>2017-12-07T10:56:39Z</time>
      </trkpt>
      <trkpt lat="45.92379" lon="5.01094">
        <ele>288</ele>
        <time>2017-12-07T10:56:41Z</time>
      </trkpt>
      <trkpt lat="45.92376" lon="5.01097">
        <ele>288</ele>
        <time>2017-12-07T10:56:42Z</time>
      </trkpt>
      <trkpt lat="45.9237" lon="5.01105">
        <ele>288</ele>
        <time>2017-12-07T10:56:44Z</time>
      </trkpt>
      <trkpt lat="45.92367" lon="5.01109">
        <ele>288</ele>
        <time>2017-12-07T10:56:45Z</time>
      </trkpt>
      <trkpt lat="45.92359" lon="5.01114">
        <ele>288</ele>
        <time>2017-12-07T10:56:47Z</time>
      </trkpt>
      <trkpt lat="45.92355" lon="5.01117">
        <ele>287</ele>
        <time>2017-12-07T10:56:48Z</time>
      </trkpt>
      <trkpt lat="45.9235" lon="5.0112">
        <ele>287</ele>
        <time>2017-12-07T10:56:49Z</time>
      </trkpt>
      <trkpt lat="45.92345" lon="5.01122">
        <ele>287</ele>
        <time>2017-12-07T10:56:50Z</time>
      </trkpt>
      <trkpt lat="45.92341" lon="5.01124">
        <ele>287</ele>
        <time>2017-12-07T10:56:51Z</time>
      </trkpt>
      <trkpt lat="45.92335" lon="5.01127">
        <ele>288</ele>
        <time>2017-12-07T10:56:52Z</time>
      </trkpt>
      <trkpt lat="45.92331" lon="5.0113">
        <ele>286</ele>
        <time>2017-12-07T10:56:53Z</time>
      </trkpt>
      <trkpt lat="45.92326" lon="5.01131">
        <ele>286</ele>
        <time>2017-12-07T10:56:54Z</time>
      </trkpt>
      <trkpt lat="45.92321" lon="5.01134">
        <ele>286</ele>
        <time>2017-12-07T10:56:55Z</time>
      </trkpt>
      <trkpt lat="45.92315" lon="5.01137">
        <ele>286</ele>
        <time>2017-12-07T10:56:56Z</time>
      </trkpt>
      <trkpt lat="45.9231" lon="5.01138">
        <ele>286</ele>
        <time>2017-12-07T10:56:57Z</time>
      </trkpt>
      <trkpt lat="45.92305" lon="5.0114">
        <ele>286</ele>
        <time>2017-12-07T10:56:58Z</time>
      </trkpt>
      <trkpt lat="45.92299" lon="5.01144">
        <ele>286</ele>
        <time>2017-12-07T10:56:59Z</time>
      </trkpt>
      <trkpt lat="45.92293" lon="5.01148">
        <ele>286</ele>
        <time>2017-12-07T10:57:00Z</time>
      </trkpt>
      <trkpt lat="45.92288" lon="5.0115">
        <ele>286</ele>
        <time>2017-12-07T10:57:01Z</time>
      </trkpt>
      <trkpt lat="45.92283" lon="5.01151">
        <ele>286</ele>
        <time>2017-12-07T10:57:02Z</time>
      </trkpt>
      <trkpt lat="45.92278" lon="5.01154">
        <ele>286</ele>
        <time>2017-12-07T10:57:03Z</time>
      </trkpt>
      <trkpt lat="45.92273" lon="5.01155">
        <ele>286</ele>
        <time>2017-12-07T10:57:04Z</time>
      </trkpt>
      <trkpt lat="45.92268" lon="5.01155">
        <ele>286</ele>
        <time>2017-12-07T10:57:05Z</time>
      </trkpt>
      <trkpt lat="45.92263" lon="5.01155">
        <ele>286</ele>
        <time>2017-12-07T10:57:06Z</time>
      </trkpt>
      <trkpt lat="45.92258" lon="5.01156">
        <ele>285</ele>
        <time>2017-12-07T10:57:07Z</time>
      </trkpt>
      <trkpt lat="45.92252" lon="5.01156">
        <ele>285</ele>
        <time>2017-12-07T10:57:08Z</time>
      </trkpt>
      <trkpt lat="45.92247" lon="5.01157">
        <ele>285</ele>
        <time>2017-12-07T10:57:09Z</time>
      </trkpt>
      <trkpt lat="45.92243" lon="5.01158">
        <ele>284</ele>
        <time>2017-12-07T10:57:10Z</time>
      </trkpt>
      <trkpt lat="45.92238" lon="5.01159">
        <ele>284</ele>
        <time>2017-12-07T10:57:11Z</time>
      </trkpt>
      <trkpt lat="45.92233" lon="5.0116">
        <ele>284</ele>
        <time>2017-12-07T10:57:12Z</time>
      </trkpt>
      <trkpt lat="45.92228" lon="5.0116">
        <ele>284</ele>
        <time>2017-12-07T10:57:13Z</time>
      </trkpt>
      <trkpt lat="45.92223" lon="5.0116">
        <ele>284</ele>
        <time>2017-12-07T10:57:14Z</time>
      </trkpt>
      <trkpt lat="45.9222" lon="5.01159">
        <ele>284</ele>
        <time>2017-12-07T10:57:15Z</time>
      </trkpt>
      <trkpt lat="45.92214" lon="5.0116">
        <ele>284</ele>
        <time>2017-12-07T10:57:16Z</time>
      </trkpt>
      <trkpt lat="45.92209" lon="5.01159">
        <ele>284</ele>
        <time>2017-12-07T10:57:17Z</time>
      </trkpt>
      <trkpt lat="45.92203" lon="5.0116">
        <ele>283</ele>
        <time>2017-12-07T10:57:18Z</time>
      </trkpt>
      <trkpt lat="45.92198" lon="5.01162">
        <ele>283</ele>
        <time>2017-12-07T10:57:19Z</time>
      </trkpt>
      <trkpt lat="45.92192" lon="5.01163">
        <ele>283</ele>
        <time>2017-12-07T10:57:20Z</time>
      </trkpt>
      <trkpt lat="45.92184" lon="5.01163">
        <ele>283</ele>
        <time>2017-12-07T10:57:22Z</time>
      </trkpt>
      <trkpt lat="45.9218" lon="5.01165">
        <ele>283</ele>
        <time>2017-12-07T10:57:23Z</time>
      </trkpt>
      <trkpt lat="45.92176" lon="5.01166">
        <ele>282</ele>
        <time>2017-12-07T10:57:24Z</time>
      </trkpt>
      <trkpt lat="45.92171" lon="5.0117">
        <ele>282</ele>
        <time>2017-12-07T10:57:25Z</time>
      </trkpt>
      <trkpt lat="45.92163" lon="5.01175">
        <ele>282</ele>
        <time>2017-12-07T10:57:27Z</time>
      </trkpt>
      <trkpt lat="45.92159" lon="5.01178">
        <ele>282</ele>
        <time>2017-12-07T10:57:28Z</time>
      </trkpt>
      <trkpt lat="45.92154" lon="5.01181">
        <ele>282</ele>
        <time>2017-12-07T10:57:29Z</time>
      </trkpt>
      <trkpt lat="45.9215" lon="5.01184">
        <ele>282</ele>
        <time>2017-12-07T10:57:30Z</time>
      </trkpt>
      <trkpt lat="45.92144" lon="5.01189">
        <ele>282</ele>
        <time>2017-12-07T10:57:31Z</time>
      </trkpt>
      <trkpt lat="45.9214" lon="5.01192">
        <ele>282</ele>
        <time>2017-12-07T10:57:32Z</time>
      </trkpt>
      <trkpt lat="45.92133" lon="5.01197">
        <ele>282</ele>
        <time>2017-12-07T10:57:34Z</time>
      </trkpt>
      <trkpt lat="45.9213" lon="5.01199">
        <ele>282</ele>
        <time>2017-12-07T10:57:35Z</time>
      </trkpt>
      <trkpt lat="45.92124" lon="5.01203">
        <ele>282</ele>
        <time>2017-12-07T10:57:36Z</time>
      </trkpt>
      <trkpt lat="45.92121" lon="5.01206">
        <ele>282</ele>
        <time>2017-12-07T10:57:37Z</time>
      </trkpt>
      <trkpt lat="45.92115" lon="5.01211">
        <ele>282</ele>
        <time>2017-12-07T10:57:39Z</time>
      </trkpt>
      <trkpt lat="45.92111" lon="5.01214">
        <ele>282</ele>
        <time>2017-12-07T10:57:40Z</time>
      </trkpt>
      <trkpt lat="45.92104" lon="5.01218">
        <ele>282</ele>
        <time>2017-12-07T10:57:42Z</time>
      </trkpt>
      <trkpt lat="45.921" lon="5.0122">
        <ele>282</ele>
        <time>2017-12-07T10:57:43Z</time>
      </trkpt>
      <trkpt lat="45.92096" lon="5.01223">
        <ele>282</ele>
        <time>2017-12-07T10:57:44Z</time>
      </trkpt>
      <trkpt lat="45.92091" lon="5.01226">
        <ele>282</ele>
        <time>2017-12-07T10:57:45Z</time>
      </trkpt>
      <trkpt lat="45.92085" lon="5.01232">
        <ele>282</ele>
        <time>2017-12-07T10:57:47Z</time>
      </trkpt>
      <trkpt lat="45.92082" lon="5.01235">
        <ele>283</ele>
        <time>2017-12-07T10:57:48Z</time>
      </trkpt>
      <trkpt lat="45.92076" lon="5.01239">
        <ele>283</ele>
        <time>2017-12-07T10:57:50Z</time>
      </trkpt>
      <trkpt lat="45.92074" lon="5.01241">
        <ele>283</ele>
        <time>2017-12-07T10:57:51Z</time>
      </trkpt>
      <trkpt lat="45.92069" lon="5.01246">
        <ele>283</ele>
        <time>2017-12-07T10:57:53Z</time>
      </trkpt>
      <trkpt lat="45.92066" lon="5.01248">
        <ele>283</ele>
        <time>2017-12-07T10:57:54Z</time>
      </trkpt>
      <trkpt lat="45.92058" lon="5.01243">
        <ele>283</ele>
        <time>2017-12-07T10:58:14Z</time>
      </trkpt>
      <trkpt lat="45.92058" lon="5.01242">
        <ele>283</ele>
        <time>2017-12-07T10:58:15Z</time>
      </trkpt>
      <trkpt lat="45.92058" lon="5.01241">
        <ele>283</ele>
        <time>2017-12-07T10:59:15Z</time>
      </trkpt>
      <trkpt lat="45.92058" lon="5.01241">
        <ele>283</ele>
        <time>2017-12-07T10:59:16Z</time>
      </trkpt>
      <trkpt lat="45.92057" lon="5.01241">
        <ele>283</ele>
        <time>2017-12-07T10:59:17Z</time>
      </trkpt>
      <trkpt lat="45.92059" lon="5.01236">
        <ele>283</ele>
        <time>2017-12-07T11:02:44Z</time>
      </trkpt>
      <trkpt lat="45.92059" lon="5.01236">
        <ele>283</ele>
        <time>2017-12-07T11:02:45Z</time>
      </trkpt>
      <trkpt lat="45.92059" lon="5.01239">
        <ele>283</ele>
        <time>2017-12-07T11:03:28Z</time>
      </trkpt>
      <trkpt lat="45.92059" lon="5.01239">
        <ele>283</ele>
        <time>2017-12-07T11:03:29Z</time>
      </trkpt>
      <trkpt lat="45.92058" lon="5.01239">
        <ele>283</ele>
        <time>2017-12-07T11:03:30Z</time>
      </trkpt>
      <trkpt lat="45.92058" lon="5.01239">
        <ele>283</ele>
        <time>2017-12-07T11:03:31Z</time>
      </trkpt>
      <trkpt lat="45.92058" lon="5.01238">
        <ele>283</ele>
        <time>2017-12-07T11:03:32Z</time>
      </trkpt>
      <trkpt lat="45.92058" lon="5.01238">
        <ele>283</ele>
        <time>2017-12-07T11:03:33Z</time>
      </trkpt>
      <trkpt lat="45.92053" lon="5.01233">
        <ele>283</ele>
        <time>2017-12-07T11:04:30Z</time>
      </trkpt>
      <trkpt lat="45.92053" lon="5.01233">
        <ele>283</ele>
        <time>2017-12-07T11:04:31Z</time>
      </trkpt>
      <trkpt lat="45.92054" lon="5.01232">
        <ele>283</ele>
        <time>2017-12-07T11:04:57Z</time>
      </trkpt>
      <trkpt lat="45.92054" lon="5.01232">
        <ele>283</ele>
        <time>2017-12-07T11:04:58Z</time>
      </trkpt>
      <trkpt lat="45.92052" lon="5.01229">
        <ele>283</ele>
        <time>2017-12-07T11:05:41Z</time>
      </trkpt>
      <trkpt lat="45.92052" lon="5.01229">
        <ele>283</ele>
        <time>2017-12-07T11:05:42Z</time>
      </trkpt>
      <trkpt lat="45.92051" lon="5.01228">
        <ele>283</ele>
        <time>2017-12-07T11:06:44Z</time>
      </trkpt>
      <trkpt lat="45.9205" lon="5.01229">
        <ele>283</ele>
        <time>2017-12-07T11:06:45Z</time>
      </trkpt>
      <trkpt lat="45.92051" lon="5.01234">
        <ele>283</ele>
        <time>2017-12-07T11:07:44Z</time>
      </trkpt>
      <trkpt lat="45.92051" lon="5.01234">
        <ele>283</ele>
        <time>2017-12-07T11:07:45Z</time>
      </trkpt>
      <trkpt lat="45.92056" lon="5.01238">
        <ele>283</ele>
        <time>2017-12-07T11:09:27Z</time>
      </trkpt>
      <trkpt lat="45.92055" lon="5.01238">
        <ele>283</ele>
        <time>2017-12-07T11:09:28Z</time>
      </trkpt>
      <trkpt lat="45.92055" lon="5.01238">
        <ele>283</ele>
        <time>2017-12-07T11:09:29Z</time>
      </trkpt>
      <trkpt lat="45.92053" lon="5.01231">
        <ele>283</ele>
        <time>2017-12-07T11:10:24Z</time>
      </trkpt>
      <trkpt lat="45.92053" lon="5.0123">
        <ele>283</ele>
        <time>2017-12-07T11:10:25Z</time>
      </trkpt>
      <trkpt lat="45.92057" lon="5.01233">
        <ele>283</ele>
        <time>2017-12-07T11:10:41Z</time>
      </trkpt>
      <trkpt lat="45.92057" lon="5.01233">
        <ele>283</ele>
        <time>2017-12-07T11:10:42Z</time>
      </trkpt>
      <trkpt lat="45.92057" lon="5.01234">
        <ele>283</ele>
        <time>2017-12-07T11:10:43Z</time>
      </trkpt>
      <trkpt lat="45.92056" lon="5.01237">
        <ele>283</ele>
        <time>2017-12-07T11:10:53Z</time>
      </trkpt>
      <trkpt lat="45.92056" lon="5.01237">
        <ele>283</ele>
        <time>2017-12-07T11:10:54Z</time>
      </trkpt>
      <trkpt lat="45.92055" lon="5.0124">
        <ele>283</ele>
        <time>2017-12-07T11:11:08Z</time>
      </trkpt>
      <trkpt lat="45.92055" lon="5.0124">
        <ele>283</ele>
        <time>2017-12-07T11:11:09Z</time>
      </trkpt>
      <trkpt lat="45.92055" lon="5.01253">
        <ele>283</ele>
        <time>2017-12-07T11:11:25Z</time>
      </trkpt>
      <trkpt lat="45.92055" lon="5.01253">
        <ele>283</ele>
        <time>2017-12-07T11:11:26Z</time>
      </trkpt>
      <trkpt lat="45.92046" lon="5.01257">
        <ele>283</ele>
        <time>2017-12-07T11:11:37Z</time>
      </trkpt>
      <trkpt lat="45.92044" lon="5.01259">
        <ele>283</ele>
        <time>2017-12-07T11:11:38Z</time>
      </trkpt>
      <trkpt lat="45.92039" lon="5.01264">
        <ele>283</ele>
        <time>2017-12-07T11:11:41Z</time>
      </trkpt>
      <trkpt lat="45.92037" lon="5.01266">
        <ele>283</ele>
        <time>2017-12-07T11:11:42Z</time>
      </trkpt>
      <trkpt lat="45.92031" lon="5.01271">
        <ele>284</ele>
        <time>2017-12-07T11:11:44Z</time>
      </trkpt>
      <trkpt lat="45.92028" lon="5.01274">
        <ele>284</ele>
        <time>2017-12-07T11:11:45Z</time>
      </trkpt>
      <trkpt lat="45.92022" lon="5.01278">
        <ele>284</ele>
        <time>2017-12-07T11:11:47Z</time>
      </trkpt>
      <trkpt lat="45.92018" lon="5.01279">
        <ele>284</ele>
        <time>2017-12-07T11:11:48Z</time>
      </trkpt>
      <trkpt lat="45.92012" lon="5.0128">
        <ele>284</ele>
        <time>2017-12-07T11:11:50Z</time>
      </trkpt>
      <trkpt lat="45.92008" lon="5.01282">
        <ele>284</ele>
        <time>2017-12-07T11:11:51Z</time>
      </trkpt>
      <trkpt lat="45.92001" lon="5.01283">
        <ele>284</ele>
        <time>2017-12-07T11:11:53Z</time>
      </trkpt>
      <trkpt lat="45.91997" lon="5.01283">
        <ele>285</ele>
        <time>2017-12-07T11:11:54Z</time>
      </trkpt>
      <trkpt lat="45.9199" lon="5.01284">
        <ele>285</ele>
        <time>2017-12-07T11:11:56Z</time>
      </trkpt>
      <trkpt lat="45.91986" lon="5.01284">
        <ele>285</ele>
        <time>2017-12-07T11:11:57Z</time>
      </trkpt>
      <trkpt lat="45.9198" lon="5.01285">
        <ele>286</ele>
        <time>2017-12-07T11:11:59Z</time>
      </trkpt>
      <trkpt lat="45.91976" lon="5.01286">
        <ele>286</ele>
        <time>2017-12-07T11:12:00Z</time>
      </trkpt>
      <trkpt lat="45.91969" lon="5.01286">
        <ele>286</ele>
        <time>2017-12-07T11:12:02Z</time>
      </trkpt>
      <trkpt lat="45.91966" lon="5.01286">
        <ele>286</ele>
        <time>2017-12-07T11:12:03Z</time>
      </trkpt>
      <trkpt lat="45.91957" lon="5.01286">
        <ele>286</ele>
        <time>2017-12-07T11:12:06Z</time>
      </trkpt>
      <trkpt lat="45.91954" lon="5.01286">
        <ele>286</ele>
        <time>2017-12-07T11:12:07Z</time>
      </trkpt>
      <trkpt lat="45.91946" lon="5.01289">
        <ele>286</ele>
        <time>2017-12-07T11:12:10Z</time>
      </trkpt>
      <trkpt lat="45.91943" lon="5.01291">
        <ele>286</ele>
        <time>2017-12-07T11:12:11Z</time>
      </trkpt>
      <trkpt lat="45.91935" lon="5.01294">
        <ele>286</ele>
        <time>2017-12-07T11:12:13Z</time>
      </trkpt>
      <trkpt lat="45.91932" lon="5.01295">
        <ele>286</ele>
        <time>2017-12-07T11:12:14Z</time>
      </trkpt>
      <trkpt lat="45.91925" lon="5.01297">
        <ele>286</ele>
        <time>2017-12-07T11:12:16Z</time>
      </trkpt>
      <trkpt lat="45.9192" lon="5.01299">
        <ele>286</ele>
        <time>2017-12-07T11:12:17Z</time>
      </trkpt>
      <trkpt lat="45.91912" lon="5.01301">
        <ele>286</ele>
        <time>2017-12-07T11:12:19Z</time>
      </trkpt>
      <trkpt lat="45.91907" lon="5.01301">
        <ele>286</ele>
        <time>2017-12-07T11:12:20Z</time>
      </trkpt>
      <trkpt lat="45.91898" lon="5.01302">
        <ele>286</ele>
        <time>2017-12-07T11:12:21Z</time>
      </trkpt>
      <trkpt lat="45.91893" lon="5.01302">
        <ele>286</ele>
        <time>2017-12-07T11:12:22Z</time>
      </trkpt>
      <trkpt lat="45.91888" lon="5.01303">
        <ele>285</ele>
        <time>2017-12-07T11:12:23Z</time>
      </trkpt>
      <trkpt lat="45.91881" lon="5.01304">
        <ele>285</ele>
        <time>2017-12-07T11:12:25Z</time>
      </trkpt>
      <trkpt lat="45.91876" lon="5.01306">
        <ele>285</ele>
        <time>2017-12-07T11:12:26Z</time>
      </trkpt>
      <trkpt lat="45.91869" lon="5.01307">
        <ele>285</ele>
        <time>2017-12-07T11:12:28Z</time>
      </trkpt>
      <trkpt lat="45.91864" lon="5.01307">
        <ele>285</ele>
        <time>2017-12-07T11:12:29Z</time>
      </trkpt>
      <trkpt lat="45.91858" lon="5.01309">
        <ele>285</ele>
        <time>2017-12-07T11:12:30Z</time>
      </trkpt>
      <trkpt lat="45.91853" lon="5.0131">
        <ele>284</ele>
        <time>2017-12-07T11:12:31Z</time>
      </trkpt>
      <trkpt lat="45.91847" lon="5.01311">
        <ele>284</ele>
        <time>2017-12-07T11:12:32Z</time>
      </trkpt>
      <trkpt lat="45.91842" lon="5.01312">
        <ele>284</ele>
        <time>2017-12-07T11:12:33Z</time>
      </trkpt>
      <trkpt lat="45.91836" lon="5.01312">
        <ele>284</ele>
        <time>2017-12-07T11:12:34Z</time>
      </trkpt>
      <trkpt lat="45.91832" lon="5.01313">
        <ele>283</ele>
        <time>2017-12-07T11:12:35Z</time>
      </trkpt>
      <trkpt lat="45.91826" lon="5.01315">
        <ele>283</ele>
        <time>2017-12-07T11:12:36Z</time>
      </trkpt>
      <trkpt lat="45.9182" lon="5.01315">
        <ele>283</ele>
        <time>2017-12-07T11:12:37Z</time>
      </trkpt>
      <trkpt lat="45.91811" lon="5.01316">
        <ele>283</ele>
        <time>2017-12-07T11:12:39Z</time>
      </trkpt>
      <trkpt lat="45.91805" lon="5.01319">
        <ele>283</ele>
        <time>2017-12-07T11:12:40Z</time>
      </trkpt>
      <trkpt lat="45.91799" lon="5.01322">
        <ele>283</ele>
        <time>2017-12-07T11:12:41Z</time>
      </trkpt>
      <trkpt lat="45.91792" lon="5.01324">
        <ele>283</ele>
        <time>2017-12-07T11:12:42Z</time>
      </trkpt>
      <trkpt lat="45.91787" lon="5.01324">
        <ele>282</ele>
        <time>2017-12-07T11:12:43Z</time>
      </trkpt>
      <trkpt lat="45.91782" lon="5.01325">
        <ele>282</ele>
        <time>2017-12-07T11:12:44Z</time>
      </trkpt>
      <trkpt lat="45.91776" lon="5.01327">
        <ele>282</ele>
        <time>2017-12-07T11:12:45Z</time>
      </trkpt>
      <trkpt lat="45.9177" lon="5.01329">
        <ele>282</ele>
        <time>2017-12-07T11:12:46Z</time>
      </trkpt>
      <trkpt lat="45.91766" lon="5.01331">
        <ele>282</ele>
        <time>2017-12-07T11:12:47Z</time>
      </trkpt>
      <trkpt lat="45.9176" lon="5.01332">
        <ele>282</ele>
        <time>2017-12-07T11:12:48Z</time>
      </trkpt>
      <trkpt lat="45.91756" lon="5.01335">
        <ele>281</ele>
        <time>2017-12-07T11:12:49Z</time>
      </trkpt>
      <trkpt lat="45.91751" lon="5.01337">
        <ele>281</ele>
        <time>2017-12-07T11:12:50Z</time>
      </trkpt>
      <trkpt lat="45.91746" lon="5.0134">
        <ele>281</ele>
        <time>2017-12-07T11:12:51Z</time>
      </trkpt>
      <trkpt lat="45.91742" lon="5.01342">
        <ele>281</ele>
        <time>2017-12-07T11:12:52Z</time>
      </trkpt>
      <trkpt lat="45.91738" lon="5.01344">
        <ele>281</ele>
        <time>2017-12-07T11:12:53Z</time>
      </trkpt>
      <trkpt lat="45.91734" lon="5.01346">
        <ele>281</ele>
        <time>2017-12-07T11:12:54Z</time>
      </trkpt>
      <trkpt lat="45.9173" lon="5.01349">
        <ele>280</ele>
        <time>2017-12-07T11:12:55Z</time>
      </trkpt>
      <trkpt lat="45.91725" lon="5.01351">
        <ele>280</ele>
        <time>2017-12-07T11:12:56Z</time>
      </trkpt>
      <trkpt lat="45.91721" lon="5.01353">
        <ele>280</ele>
        <time>2017-12-07T11:12:57Z</time>
      </trkpt>
      <trkpt lat="45.91716" lon="5.01355">
        <ele>280</ele>
        <time>2017-12-07T11:12:58Z</time>
      </trkpt>
      <trkpt lat="45.91711" lon="5.01358">
        <ele>280</ele>
        <time>2017-12-07T11:12:59Z</time>
      </trkpt>
      <trkpt lat="45.91706" lon="5.01362">
        <ele>280</ele>
        <time>2017-12-07T11:13:00Z</time>
      </trkpt>
      <trkpt lat="45.91701" lon="5.01364">
        <ele>280</ele>
        <time>2017-12-07T11:13:01Z</time>
      </trkpt>
      <trkpt lat="45.91697" lon="5.01366">
        <ele>280</ele>
        <time>2017-12-07T11:13:02Z</time>
      </trkpt>
      <trkpt lat="45.91691" lon="5.01369">
        <ele>280</ele>
        <time>2017-12-07T11:13:03Z</time>
      </trkpt>
      <trkpt lat="45.91686" lon="5.01372">
        <ele>280</ele>
        <time>2017-12-07T11:13:04Z</time>
      </trkpt>
      <trkpt lat="45.91681" lon="5.01374">
        <ele>280</ele>
        <time>2017-12-07T11:13:05Z</time>
      </trkpt>
      <trkpt lat="45.91677" lon="5.01376">
        <ele>280</ele>
        <time>2017-12-07T11:13:06Z</time>
      </trkpt>
      <trkpt lat="45.91668" lon="5.0138">
        <ele>280</ele>
        <time>2017-12-07T11:13:08Z</time>
      </trkpt>
      <trkpt lat="45.91665" lon="5.01382">
        <ele>280</ele>
        <time>2017-12-07T11:13:09Z</time>
      </trkpt>
      <trkpt lat="45.9166" lon="5.01385">
        <ele>280</ele>
        <time>2017-12-07T11:13:10Z</time>
      </trkpt>
      <trkpt lat="45.91655" lon="5.01387">
        <ele>280</ele>
        <time>2017-12-07T11:13:11Z</time>
      </trkpt>
      <trkpt lat="45.9165" lon="5.01389">
        <ele>280</ele>
        <time>2017-12-07T11:13:12Z</time>
      </trkpt>
      <trkpt lat="45.91646" lon="5.01392">
        <ele>280</ele>
        <time>2017-12-07T11:13:13Z</time>
      </trkpt>
      <trkpt lat="45.91641" lon="5.01395">
        <ele>280</ele>
        <time>2017-12-07T11:13:14Z</time>
      </trkpt>
      <trkpt lat="45.91636" lon="5.01397">
        <ele>280</ele>
        <time>2017-12-07T11:13:15Z</time>
      </trkpt>
      <trkpt lat="45.91632" lon="5.01401">
        <ele>280</ele>
        <time>2017-12-07T11:13:16Z</time>
      </trkpt>
      <trkpt lat="45.91627" lon="5.01404">
        <ele>280</ele>
        <time>2017-12-07T11:13:17Z</time>
      </trkpt>
      <trkpt lat="45.91623" lon="5.01408">
        <ele>280</ele>
        <time>2017-12-07T11:13:18Z</time>
      </trkpt>
      <trkpt lat="45.91618" lon="5.01413">
        <ele>280</ele>
        <time>2017-12-07T11:13:19Z</time>
      </trkpt>
      <trkpt lat="45.91613" lon="5.01417">
        <ele>280</ele>
        <time>2017-12-07T11:13:20Z</time>
      </trkpt>
      <trkpt lat="45.91608" lon="5.01421">
        <ele>280</ele>
        <time>2017-12-07T11:13:21Z</time>
      </trkpt>
      <trkpt lat="45.91604" lon="5.01425">
        <ele>280</ele>
        <time>2017-12-07T11:13:22Z</time>
      </trkpt>
      <trkpt lat="45.91599" lon="5.01429">
        <ele>280</ele>
        <time>2017-12-07T11:13:23Z</time>
      </trkpt>
      <trkpt lat="45.91595" lon="5.01434">
        <ele>280</ele>
        <time>2017-12-07T11:13:24Z</time>
      </trkpt>
      <trkpt lat="45.91591" lon="5.01438">
        <ele>280</ele>
        <time>2017-12-07T11:13:25Z</time>
      </trkpt>
      <trkpt lat="45.91587" lon="5.01443">
        <ele>280</ele>
        <time>2017-12-07T11:13:26Z</time>
      </trkpt>
      <trkpt lat="45.91583" lon="5.01447">
        <ele>282</ele>
        <time>2017-12-07T11:13:27Z</time>
      </trkpt>
      <trkpt lat="45.91579" lon="5.01451">
        <ele>282</ele>
        <time>2017-12-07T11:13:28Z</time>
      </trkpt>
      <trkpt lat="45.91575" lon="5.01455">
        <ele>282</ele>
        <time>2017-12-07T11:13:29Z</time>
      </trkpt>
      <trkpt lat="45.91572" lon="5.01459">
        <ele>282</ele>
        <time>2017-12-07T11:13:30Z</time>
      </trkpt>
      <trkpt lat="45.91568" lon="5.01464">
        <ele>282</ele>
        <time>2017-12-07T11:13:31Z</time>
      </trkpt>
      <trkpt lat="45.91564" lon="5.01469">
        <ele>282</ele>
        <time>2017-12-07T11:13:32Z</time>
      </trkpt>
      <trkpt lat="45.91561" lon="5.01474">
        <ele>282</ele>
        <time>2017-12-07T11:13:33Z</time>
      </trkpt>
      <trkpt lat="45.91556" lon="5.01478">
        <ele>282</ele>
        <time>2017-12-07T11:13:34Z</time>
      </trkpt>
      <trkpt lat="45.91553" lon="5.01482">
        <ele>282</ele>
        <time>2017-12-07T11:13:35Z</time>
      </trkpt>
      <trkpt lat="45.91549" lon="5.01487">
        <ele>282</ele>
        <time>2017-12-07T11:13:36Z</time>
      </trkpt>
      <trkpt lat="45.91545" lon="5.01491">
        <ele>282</ele>
        <time>2017-12-07T11:13:37Z</time>
      </trkpt>
      <trkpt lat="45.91541" lon="5.01495">
        <ele>282</ele>
        <time>2017-12-07T11:13:38Z</time>
      </trkpt>
      <trkpt lat="45.91538" lon="5.01499">
        <ele>282</ele>
        <time>2017-12-07T11:13:39Z</time>
      </trkpt>
      <trkpt lat="45.91534" lon="5.01503">
        <ele>281</ele>
        <time>2017-12-07T11:13:40Z</time>
      </trkpt>
      <trkpt lat="45.91531" lon="5.01508">
        <ele>281</ele>
        <time>2017-12-07T11:13:41Z</time>
      </trkpt>
      <trkpt lat="45.91524" lon="5.01516">
        <ele>282</ele>
        <time>2017-12-07T11:13:43Z</time>
      </trkpt>
      <trkpt lat="45.9152" lon="5.0152">
        <ele>282</ele>
        <time>2017-12-07T11:13:44Z</time>
      </trkpt>
      <trkpt lat="45.91514" lon="5.01529">
        <ele>281</ele>
        <time>2017-12-07T11:13:46Z</time>
      </trkpt>
      <trkpt lat="45.9151" lon="5.01532">
        <ele>281</ele>
        <time>2017-12-07T11:13:47Z</time>
      </trkpt>
      <trkpt lat="45.91504" lon="5.01541">
        <ele>281</ele>
        <time>2017-12-07T11:13:49Z</time>
      </trkpt>
      <trkpt lat="45.915" lon="5.01546">
        <ele>283</ele>
        <time>2017-12-07T11:13:50Z</time>
      </trkpt>
      <trkpt lat="45.91494" lon="5.01555">
        <ele>283</ele>
        <time>2017-12-07T11:13:52Z</time>
      </trkpt>
      <trkpt lat="45.91491" lon="5.01559">
        <ele>283</ele>
        <time>2017-12-07T11:13:53Z</time>
      </trkpt>
      <trkpt lat="45.91485" lon="5.01568">
        <ele>283</ele>
        <time>2017-12-07T11:13:55Z</time>
      </trkpt>
      <trkpt lat="45.91482" lon="5.01573">
        <ele>283</ele>
        <time>2017-12-07T11:13:56Z</time>
      </trkpt>
      <trkpt lat="45.91477" lon="5.0158">
        <ele>283</ele>
        <time>2017-12-07T11:13:58Z</time>
      </trkpt>
      <trkpt lat="45.91474" lon="5.01584">
        <ele>281</ele>
        <time>2017-12-07T11:13:59Z</time>
      </trkpt>
      <trkpt lat="45.91468" lon="5.01593">
        <ele>281</ele>
        <time>2017-12-07T11:14:01Z</time>
      </trkpt>
      <trkpt lat="45.91465" lon="5.01597">
        <ele>281</ele>
        <time>2017-12-07T11:14:02Z</time>
      </trkpt>
      <trkpt lat="45.91458" lon="5.01605">
        <ele>281</ele>
        <time>2017-12-07T11:14:04Z</time>
      </trkpt>
      <trkpt lat="45.91454" lon="5.01608">
        <ele>281</ele>
        <time>2017-12-07T11:14:05Z</time>
      </trkpt>
      <trkpt lat="45.9145" lon="5.01611">
        <ele>281</ele>
        <time>2017-12-07T11:14:06Z</time>
      </trkpt>
      <trkpt lat="45.91446" lon="5.01613">
        <ele>281</ele>
        <time>2017-12-07T11:14:07Z</time>
      </trkpt>
      <trkpt lat="45.91441" lon="5.01615">
        <ele>281</ele>
        <time>2017-12-07T11:14:08Z</time>
      </trkpt>
      <trkpt lat="45.91436" lon="5.01616">
        <ele>281</ele>
        <time>2017-12-07T11:14:09Z</time>
      </trkpt>
      <trkpt lat="45.91427" lon="5.01615">
        <ele>281</ele>
        <time>2017-12-07T11:14:11Z</time>
      </trkpt>
      <trkpt lat="45.91423" lon="5.01614">
        <ele>281</ele>
        <time>2017-12-07T11:14:12Z</time>
      </trkpt>
      <trkpt lat="45.91418" lon="5.01613">
        <ele>281</ele>
        <time>2017-12-07T11:14:13Z</time>
      </trkpt>
      <trkpt lat="45.91414" lon="5.01611">
        <ele>280</ele>
        <time>2017-12-07T11:14:14Z</time>
      </trkpt>
      <trkpt lat="45.91409" lon="5.0161">
        <ele>280</ele>
        <time>2017-12-07T11:14:15Z</time>
      </trkpt>
      <trkpt lat="45.91404" lon="5.01608">
        <ele>280</ele>
        <time>2017-12-07T11:14:16Z</time>
      </trkpt>
      <trkpt lat="45.91399" lon="5.01606">
        <ele>280</ele>
        <time>2017-12-07T11:14:17Z</time>
      </trkpt>
      <trkpt lat="45.91395" lon="5.01604">
        <ele>280</ele>
        <time>2017-12-07T11:14:18Z</time>
      </trkpt>
      <trkpt lat="45.9139" lon="5.01602">
        <ele>280</ele>
        <time>2017-12-07T11:14:19Z</time>
      </trkpt>
      <trkpt lat="45.91385" lon="5.016">
        <ele>279</ele>
        <time>2017-12-07T11:14:20Z</time>
      </trkpt>
      <trkpt lat="45.9138" lon="5.01598">
        <ele>279</ele>
        <time>2017-12-07T11:14:21Z</time>
      </trkpt>
      <trkpt lat="45.91375" lon="5.01597">
        <ele>279</ele>
        <time>2017-12-07T11:14:22Z</time>
      </trkpt>
      <trkpt lat="45.91366" lon="5.01594">
        <ele>279</ele>
        <time>2017-12-07T11:14:24Z</time>
      </trkpt>
      <trkpt lat="45.91362" lon="5.01592">
        <ele>279</ele>
        <time>2017-12-07T11:14:25Z</time>
      </trkpt>
      <trkpt lat="45.91357" lon="5.01591">
        <ele>279</ele>
        <time>2017-12-07T11:14:26Z</time>
      </trkpt>
      <trkpt lat="45.91353" lon="5.01589">
        <ele>278</ele>
        <time>2017-12-07T11:14:27Z</time>
      </trkpt>
      <trkpt lat="45.91348" lon="5.01588">
        <ele>278</ele>
        <time>2017-12-07T11:14:28Z</time>
      </trkpt>
      <trkpt lat="45.91343" lon="5.01586">
        <ele>278</ele>
        <time>2017-12-07T11:14:29Z</time>
      </trkpt>
      <trkpt lat="45.91337" lon="5.01585">
        <ele>278</ele>
        <time>2017-12-07T11:14:30Z</time>
      </trkpt>
      <trkpt lat="45.91332" lon="5.01583">
        <ele>278</ele>
        <time>2017-12-07T11:14:31Z</time>
      </trkpt>
      <trkpt lat="45.91327" lon="5.01582">
        <ele>278</ele>
        <time>2017-12-07T11:14:32Z</time>
      </trkpt>
      <trkpt lat="45.91322" lon="5.0158">
        <ele>278</ele>
        <time>2017-12-07T11:14:33Z</time>
      </trkpt>
      <trkpt lat="45.91316" lon="5.01579">
        <ele>277</ele>
        <time>2017-12-07T11:14:34Z</time>
      </trkpt>
      <trkpt lat="45.91311" lon="5.01579">
        <ele>277</ele>
        <time>2017-12-07T11:14:35Z</time>
      </trkpt>
      <trkpt lat="45.91304" lon="5.01578">
        <ele>277</ele>
        <time>2017-12-07T11:14:36Z</time>
      </trkpt>
      <trkpt lat="45.91298" lon="5.01578">
        <ele>277</ele>
        <time>2017-12-07T11:14:37Z</time>
      </trkpt>
      <trkpt lat="45.91292" lon="5.01578">
        <ele>277</ele>
        <time>2017-12-07T11:14:38Z</time>
      </trkpt>
      <trkpt lat="45.91286" lon="5.01578">
        <ele>276</ele>
        <time>2017-12-07T11:14:39Z</time>
      </trkpt>
      <trkpt lat="45.91281" lon="5.01577">
        <ele>276</ele>
        <time>2017-12-07T11:14:40Z</time>
      </trkpt>
      <trkpt lat="45.91275" lon="5.01579">
        <ele>276</ele>
        <time>2017-12-07T11:14:41Z</time>
      </trkpt>
      <trkpt lat="45.9127" lon="5.01579">
        <ele>276</ele>
        <time>2017-12-07T11:14:42Z</time>
      </trkpt>
      <trkpt lat="45.91264" lon="5.01581">
        <ele>275</ele>
        <time>2017-12-07T11:14:43Z</time>
      </trkpt>
      <trkpt lat="45.91259" lon="5.01582">
        <ele>275</ele>
        <time>2017-12-07T11:14:44Z</time>
      </trkpt>
      <trkpt lat="45.91255" lon="5.01583">
        <ele>275</ele>
        <time>2017-12-07T11:14:45Z</time>
      </trkpt>
      <trkpt lat="45.91247" lon="5.01585">
        <ele>274</ele>
        <time>2017-12-07T11:14:47Z</time>
      </trkpt>
      <trkpt lat="45.91242" lon="5.01586">
        <ele>274</ele>
        <time>2017-12-07T11:14:48Z</time>
      </trkpt>
      <trkpt lat="45.91235" lon="5.0159">
        <ele>273</ele>
        <time>2017-12-07T11:14:50Z</time>
      </trkpt>
      <trkpt lat="45.9123" lon="5.01593">
        <ele>273</ele>
        <time>2017-12-07T11:14:51Z</time>
      </trkpt>
      <trkpt lat="45.91226" lon="5.01595">
        <ele>273</ele>
        <time>2017-12-07T11:14:52Z</time>
      </trkpt>
      <trkpt lat="45.91222" lon="5.01597">
        <ele>273</ele>
        <time>2017-12-07T11:14:53Z</time>
      </trkpt>
      <trkpt lat="45.91217" lon="5.01597">
        <ele>273</ele>
        <time>2017-12-07T11:14:54Z</time>
      </trkpt>
      <trkpt lat="45.91211" lon="5.01598">
        <ele>273</ele>
        <time>2017-12-07T11:14:55Z</time>
      </trkpt>
      <trkpt lat="45.91206" lon="5.01601">
        <ele>273</ele>
        <time>2017-12-07T11:14:56Z</time>
      </trkpt>
      <trkpt lat="45.91202" lon="5.01603">
        <ele>273</ele>
        <time>2017-12-07T11:14:57Z</time>
      </trkpt>
      <trkpt lat="45.91198" lon="5.01603">
        <ele>273</ele>
        <time>2017-12-07T11:14:58Z</time>
      </trkpt>
      <trkpt lat="45.91193" lon="5.01606">
        <ele>273</ele>
        <time>2017-12-07T11:14:59Z</time>
      </trkpt>
      <trkpt lat="45.91185" lon="5.01608">
        <ele>273</ele>
        <time>2017-12-07T11:15:01Z</time>
      </trkpt>
      <trkpt lat="45.91181" lon="5.01609">
        <ele>273</ele>
        <time>2017-12-07T11:15:02Z</time>
      </trkpt>
      <trkpt lat="45.91173" lon="5.01614">
        <ele>273</ele>
        <time>2017-12-07T11:15:05Z</time>
      </trkpt>
      <trkpt lat="45.91169" lon="5.01613">
        <ele>273</ele>
        <time>2017-12-07T11:15:06Z</time>
      </trkpt>
      <trkpt lat="45.91162" lon="5.01616">
        <ele>274</ele>
        <time>2017-12-07T11:15:08Z</time>
      </trkpt>
      <trkpt lat="45.91159" lon="5.01616">
        <ele>274</ele>
        <time>2017-12-07T11:15:09Z</time>
      </trkpt>
      <trkpt lat="45.91153" lon="5.01621">
        <ele>274</ele>
        <time>2017-12-07T11:15:10Z</time>
      </trkpt>
      <trkpt lat="45.91149" lon="5.01622">
        <ele>274</ele>
        <time>2017-12-07T11:15:11Z</time>
      </trkpt>
      <trkpt lat="45.91144" lon="5.01623">
        <ele>274</ele>
        <time>2017-12-07T11:15:12Z</time>
      </trkpt>
      <trkpt lat="45.9114" lon="5.01625">
        <ele>274</ele>
        <time>2017-12-07T11:15:13Z</time>
      </trkpt>
      <trkpt lat="45.91131" lon="5.01628">
        <ele>274</ele>
        <time>2017-12-07T11:15:15Z</time>
      </trkpt>
      <trkpt lat="45.91127" lon="5.01631">
        <ele>274</ele>
        <time>2017-12-07T11:15:16Z</time>
      </trkpt>
      <trkpt lat="45.91123" lon="5.01632">
        <ele>274</ele>
        <time>2017-12-07T11:15:17Z</time>
      </trkpt>
      <trkpt lat="45.91118" lon="5.01632">
        <ele>274</ele>
        <time>2017-12-07T11:15:18Z</time>
      </trkpt>
      <trkpt lat="45.9111" lon="5.01634">
        <ele>274</ele>
        <time>2017-12-07T11:15:20Z</time>
      </trkpt>
      <trkpt lat="45.91106" lon="5.01636">
        <ele>274</ele>
        <time>2017-12-07T11:15:21Z</time>
      </trkpt>
      <trkpt lat="45.91099" lon="5.01639">
        <ele>274</ele>
        <time>2017-12-07T11:15:23Z</time>
      </trkpt>
      <trkpt lat="45.91096" lon="5.0164">
        <ele>274</ele>
        <time>2017-12-07T11:15:24Z</time>
      </trkpt>
      <trkpt lat="45.91088" lon="5.01643">
        <ele>274</ele>
        <time>2017-12-07T11:15:26Z</time>
      </trkpt>
      <trkpt lat="45.91085" lon="5.01644">
        <ele>274</ele>
        <time>2017-12-07T11:15:27Z</time>
      </trkpt>
      <trkpt lat="45.91078" lon="5.01647">
        <ele>277</ele>
        <time>2017-12-07T11:15:29Z</time>
      </trkpt>
      <trkpt lat="45.91074" lon="5.01648">
        <ele>277</ele>
        <time>2017-12-07T11:15:30Z</time>
      </trkpt>
      <trkpt lat="45.91067" lon="5.0165">
        <ele>277</ele>
        <time>2017-12-07T11:15:32Z</time>
      </trkpt>
      <trkpt lat="45.91063" lon="5.0165">
        <ele>277</ele>
        <time>2017-12-07T11:15:33Z</time>
      </trkpt>
      <trkpt lat="45.91057" lon="5.01652">
        <ele>278</ele>
        <time>2017-12-07T11:15:35Z</time>
      </trkpt>
      <trkpt lat="45.91054" lon="5.01654">
        <ele>278</ele>
        <time>2017-12-07T11:15:36Z</time>
      </trkpt>
      <trkpt lat="45.91047" lon="5.01657">
        <ele>278</ele>
        <time>2017-12-07T11:15:38Z</time>
      </trkpt>
      <trkpt lat="45.91044" lon="5.01658">
        <ele>278</ele>
        <time>2017-12-07T11:15:39Z</time>
      </trkpt>
      <trkpt lat="45.91037" lon="5.0166">
        <ele>278</ele>
        <time>2017-12-07T11:15:41Z</time>
      </trkpt>
      <trkpt lat="45.91033" lon="5.01661">
        <ele>278</ele>
        <time>2017-12-07T11:15:42Z</time>
      </trkpt>
      <trkpt lat="45.91027" lon="5.01664">
        <ele>278</ele>
        <time>2017-12-07T11:15:44Z</time>
      </trkpt>
      <trkpt lat="45.91023" lon="5.01664">
        <ele>279</ele>
        <time>2017-12-07T11:15:45Z</time>
      </trkpt>
      <trkpt lat="45.91017" lon="5.01667">
        <ele>277</ele>
        <time>2017-12-07T11:15:47Z</time>
      </trkpt>
      <trkpt lat="45.91014" lon="5.01669">
        <ele>277</ele>
        <time>2017-12-07T11:15:48Z</time>
      </trkpt>
      <trkpt lat="45.91007" lon="5.01671">
        <ele>277</ele>
        <time>2017-12-07T11:15:50Z</time>
      </trkpt>
      <trkpt lat="45.91004" lon="5.01672">
        <ele>277</ele>
        <time>2017-12-07T11:15:51Z</time>
      </trkpt>
      <trkpt lat="45.90998" lon="5.01674">
        <ele>278</ele>
        <time>2017-12-07T11:15:53Z</time>
      </trkpt>
      <trkpt lat="45.90995" lon="5.01675">
        <ele>278</ele>
        <time>2017-12-07T11:15:54Z</time>
      </trkpt>
      <trkpt lat="45.90986" lon="5.01678">
        <ele>278</ele>
        <time>2017-12-07T11:15:57Z</time>
      </trkpt>
      <trkpt lat="45.90984" lon="5.0168">
        <ele>278</ele>
        <time>2017-12-07T11:15:58Z</time>
      </trkpt>
      <trkpt lat="45.90978" lon="5.01682">
        <ele>278</ele>
        <time>2017-12-07T11:16:00Z</time>
      </trkpt>
      <trkpt lat="45.90974" lon="5.01683">
        <ele>278</ele>
        <time>2017-12-07T11:16:01Z</time>
      </trkpt>
      <trkpt lat="45.90968" lon="5.01685">
        <ele>278</ele>
        <time>2017-12-07T11:16:03Z</time>
      </trkpt>
      <trkpt lat="45.90965" lon="5.01686">
        <ele>278</ele>
        <time>2017-12-07T11:16:04Z</time>
      </trkpt>
      <trkpt lat="45.90957" lon="5.01689">
        <ele>279</ele>
        <time>2017-12-07T11:16:07Z</time>
      </trkpt>
      <trkpt lat="45.90954" lon="5.0169">
        <ele>279</ele>
        <time>2017-12-07T11:16:08Z</time>
      </trkpt>
      <trkpt lat="45.90946" lon="5.01694">
        <ele>279</ele>
        <time>2017-12-07T11:16:11Z</time>
      </trkpt>
      <trkpt lat="45.90942" lon="5.01695">
        <ele>279</ele>
        <time>2017-12-07T11:16:12Z</time>
      </trkpt>
      <trkpt lat="45.90936" lon="5.01698">
        <ele>279</ele>
        <time>2017-12-07T11:16:14Z</time>
      </trkpt>
      <trkpt lat="45.90933" lon="5.01699">
        <ele>279</ele>
        <time>2017-12-07T11:16:15Z</time>
      </trkpt>
      <trkpt lat="45.90927" lon="5.01701">
        <ele>279</ele>
        <time>2017-12-07T11:16:17Z</time>
      </trkpt>
      <trkpt lat="45.90924" lon="5.01701">
        <ele>279</ele>
        <time>2017-12-07T11:16:18Z</time>
      </trkpt>
      <trkpt lat="45.90918" lon="5.01702">
        <ele>279</ele>
        <time>2017-12-07T11:16:20Z</time>
      </trkpt>
      <trkpt lat="45.90915" lon="5.01702">
        <ele>279</ele>
        <time>2017-12-07T11:16:21Z</time>
      </trkpt>
      <trkpt lat="45.90908" lon="5.01701">
        <ele>279</ele>
        <time>2017-12-07T11:16:23Z</time>
      </trkpt>
      <trkpt lat="45.90905" lon="5.017">
        <ele>279</ele>
        <time>2017-12-07T11:16:24Z</time>
      </trkpt>
      <trkpt lat="45.90898" lon="5.01699">
        <ele>279</ele>
        <time>2017-12-07T11:16:26Z</time>
      </trkpt>
      <trkpt lat="45.90894" lon="5.01699">
        <ele>279</ele>
        <time>2017-12-07T11:16:27Z</time>
      </trkpt>
      <trkpt lat="45.90887" lon="5.01697">
        <ele>279</ele>
        <time>2017-12-07T11:16:29Z</time>
      </trkpt>
      <trkpt lat="45.90883" lon="5.01696">
        <ele>279</ele>
        <time>2017-12-07T11:16:30Z</time>
      </trkpt>
      <trkpt lat="45.90875" lon="5.01693">
        <ele>280</ele>
        <time>2017-12-07T11:16:32Z</time>
      </trkpt>
      <trkpt lat="45.90871" lon="5.01692">
        <ele>280</ele>
        <time>2017-12-07T11:16:33Z</time>
      </trkpt>
      <trkpt lat="45.90862" lon="5.01689">
        <ele>280</ele>
        <time>2017-12-07T11:16:35Z</time>
      </trkpt>
      <trkpt lat="45.90858" lon="5.01687">
        <ele>280</ele>
        <time>2017-12-07T11:16:36Z</time>
      </trkpt>
      <trkpt lat="45.9085" lon="5.01684">
        <ele>280</ele>
        <time>2017-12-07T11:16:38Z</time>
      </trkpt>
      <trkpt lat="45.90845" lon="5.01683">
        <ele>280</ele>
        <time>2017-12-07T11:16:39Z</time>
      </trkpt>
      <trkpt lat="45.90837" lon="5.0168">
        <ele>280</ele>
        <time>2017-12-07T11:16:41Z</time>
      </trkpt>
      <trkpt lat="45.90833" lon="5.01678">
        <ele>280</ele>
        <time>2017-12-07T11:16:42Z</time>
      </trkpt>
      <trkpt lat="45.90825" lon="5.01673">
        <ele>280</ele>
        <time>2017-12-07T11:16:44Z</time>
      </trkpt>
      <trkpt lat="45.90821" lon="5.01671">
        <ele>280</ele>
        <time>2017-12-07T11:16:45Z</time>
      </trkpt>
      <trkpt lat="45.90816" lon="5.0167">
        <ele>280</ele>
        <time>2017-12-07T11:16:46Z</time>
      </trkpt>
      <trkpt lat="45.90811" lon="5.01668">
        <ele>280</ele>
        <time>2017-12-07T11:16:47Z</time>
      </trkpt>
      <trkpt lat="45.90807" lon="5.01667">
        <ele>280</ele>
        <time>2017-12-07T11:16:48Z</time>
      </trkpt>
      <trkpt lat="45.90801" lon="5.01664">
        <ele>281</ele>
        <time>2017-12-07T11:16:49Z</time>
      </trkpt>
      <trkpt lat="45.90796" lon="5.01663">
        <ele>281</ele>
        <time>2017-12-07T11:16:50Z</time>
      </trkpt>
      <trkpt lat="45.90789" lon="5.01663">
        <ele>281</ele>
        <time>2017-12-07T11:16:51Z</time>
      </trkpt>
      <trkpt lat="45.90785" lon="5.01661">
        <ele>280</ele>
        <time>2017-12-07T11:16:52Z</time>
      </trkpt>
      <trkpt lat="45.9078" lon="5.01659">
        <ele>280</ele>
        <time>2017-12-07T11:16:53Z</time>
      </trkpt>
      <trkpt lat="45.90772" lon="5.01656">
        <ele>280</ele>
        <time>2017-12-07T11:16:55Z</time>
      </trkpt>
      <trkpt lat="45.90767" lon="5.01654">
        <ele>280</ele>
        <time>2017-12-07T11:16:56Z</time>
      </trkpt>
      <trkpt lat="45.90759" lon="5.01654">
        <ele>280</ele>
        <time>2017-12-07T11:16:58Z</time>
      </trkpt>
      <trkpt lat="45.90754" lon="5.01652">
        <ele>280</ele>
        <time>2017-12-07T11:16:59Z</time>
      </trkpt>
      <trkpt lat="45.9075" lon="5.01651">
        <ele>280</ele>
        <time>2017-12-07T11:17:00Z</time>
      </trkpt>
      <trkpt lat="45.90744" lon="5.01649">
        <ele>280</ele>
        <time>2017-12-07T11:17:01Z</time>
      </trkpt>
      <trkpt lat="45.90739" lon="5.01648">
        <ele>280</ele>
        <time>2017-12-07T11:17:02Z</time>
      </trkpt>
      <trkpt lat="45.90735" lon="5.01646">
        <ele>280</ele>
        <time>2017-12-07T11:17:03Z</time>
      </trkpt>
      <trkpt lat="45.9073" lon="5.01646">
        <ele>280</ele>
        <time>2017-12-07T11:17:04Z</time>
      </trkpt>
      <trkpt lat="45.90725" lon="5.01644">
        <ele>280</ele>
        <time>2017-12-07T11:17:05Z</time>
      </trkpt>
      <trkpt lat="45.9072" lon="5.01642">
        <ele>280</ele>
        <time>2017-12-07T11:17:06Z</time>
      </trkpt>
      <trkpt lat="45.90715" lon="5.01641">
        <ele>280</ele>
        <time>2017-12-07T11:17:07Z</time>
      </trkpt>
      <trkpt lat="45.90712" lon="5.01639">
        <ele>280</ele>
        <time>2017-12-07T11:17:08Z</time>
      </trkpt>
      <trkpt lat="45.90707" lon="5.01637">
        <ele>280</ele>
        <time>2017-12-07T11:17:09Z</time>
      </trkpt>
      <trkpt lat="45.90699" lon="5.01632">
        <ele>281</ele>
        <time>2017-12-07T11:17:11Z</time>
      </trkpt>
      <trkpt lat="45.90696" lon="5.01628">
        <ele>281</ele>
        <time>2017-12-07T11:17:12Z</time>
      </trkpt>
      <trkpt lat="45.90688" lon="5.01629">
        <ele>281</ele>
        <time>2017-12-07T11:17:13Z</time>
      </trkpt>
      <trkpt lat="45.90682" lon="5.01627">
        <ele>281</ele>
        <time>2017-12-07T11:17:14Z</time>
      </trkpt>
      <trkpt lat="45.90678" lon="5.01626">
        <ele>281</ele>
        <time>2017-12-07T11:17:15Z</time>
      </trkpt>
      <trkpt lat="45.90673" lon="5.01624">
        <ele>281</ele>
        <time>2017-12-07T11:17:16Z</time>
      </trkpt>
      <trkpt lat="45.90669" lon="5.01622">
        <ele>281</ele>
        <time>2017-12-07T11:17:17Z</time>
      </trkpt>
      <trkpt lat="45.90663" lon="5.0162">
        <ele>283</ele>
        <time>2017-12-07T11:17:18Z</time>
      </trkpt>
      <trkpt lat="45.90655" lon="5.01618">
        <ele>283</ele>
        <time>2017-12-07T11:17:20Z</time>
      </trkpt>
      <trkpt lat="45.90651" lon="5.01618">
        <ele>283</ele>
        <time>2017-12-07T11:17:21Z</time>
      </trkpt>
      <trkpt lat="45.90642" lon="5.01615">
        <ele>283</ele>
        <time>2017-12-07T11:17:23Z</time>
      </trkpt>
      <trkpt lat="45.90639" lon="5.01613">
        <ele>283</ele>
        <time>2017-12-07T11:17:24Z</time>
      </trkpt>
      <trkpt lat="45.90632" lon="5.01609">
        <ele>283</ele>
        <time>2017-12-07T11:17:26Z</time>
      </trkpt>
      <trkpt lat="45.90627" lon="5.01608">
        <ele>283</ele>
        <time>2017-12-07T11:17:27Z</time>
      </trkpt>
      <trkpt lat="45.90622" lon="5.01606">
        <ele>283</ele>
        <time>2017-12-07T11:17:28Z</time>
      </trkpt>
      <trkpt lat="45.90618" lon="5.01605">
        <ele>283</ele>
        <time>2017-12-07T11:17:29Z</time>
      </trkpt>
      <trkpt lat="45.90614" lon="5.01603">
        <ele>283</ele>
        <time>2017-12-07T11:17:30Z</time>
      </trkpt>
      <trkpt lat="45.90609" lon="5.01601">
        <ele>283</ele>
        <time>2017-12-07T11:17:31Z</time>
      </trkpt>
      <trkpt lat="45.90605" lon="5.01599">
        <ele>284</ele>
        <time>2017-12-07T11:17:32Z</time>
      </trkpt>
      <trkpt lat="45.906" lon="5.01598">
        <ele>284</ele>
        <time>2017-12-07T11:17:33Z</time>
      </trkpt>
      <trkpt lat="45.90595" lon="5.01596">
        <ele>284</ele>
        <time>2017-12-07T11:17:34Z</time>
      </trkpt>
      <trkpt lat="45.90591" lon="5.01596">
        <ele>284</ele>
        <time>2017-12-07T11:17:35Z</time>
      </trkpt>
      <trkpt lat="45.90587" lon="5.01594">
        <ele>284</ele>
        <time>2017-12-07T11:17:36Z</time>
      </trkpt>
      <trkpt lat="45.90582" lon="5.01591">
        <ele>284</ele>
        <time>2017-12-07T11:17:37Z</time>
      </trkpt>
      <trkpt lat="45.90574" lon="5.01588">
        <ele>285</ele>
        <time>2017-12-07T11:17:39Z</time>
      </trkpt>
      <trkpt lat="45.9057" lon="5.01587">
        <ele>285</ele>
        <time>2017-12-07T11:17:40Z</time>
      </trkpt>
      <trkpt lat="45.90563" lon="5.01586">
        <ele>285</ele>
        <time>2017-12-07T11:17:42Z</time>
      </trkpt>
      <trkpt lat="45.90559" lon="5.01584">
        <ele>285</ele>
        <time>2017-12-07T11:17:43Z</time>
      </trkpt>
      <trkpt lat="45.9055" lon="5.01581">
        <ele>284</ele>
        <time>2017-12-07T11:17:45Z</time>
      </trkpt>
      <trkpt lat="45.90547" lon="5.01579">
        <ele>284</ele>
        <time>2017-12-07T11:17:46Z</time>
      </trkpt>
      <trkpt lat="45.90542" lon="5.01578">
        <ele>284</ele>
        <time>2017-12-07T11:17:47Z</time>
      </trkpt>
      <trkpt lat="45.90537" lon="5.01577">
        <ele>284</ele>
        <time>2017-12-07T11:17:48Z</time>
      </trkpt>
      <trkpt lat="45.90532" lon="5.01577">
        <ele>284</ele>
        <time>2017-12-07T11:17:49Z</time>
      </trkpt>
      <trkpt lat="45.90528" lon="5.01577">
        <ele>284</ele>
        <time>2017-12-07T11:17:50Z</time>
      </trkpt>
      <trkpt lat="45.90519" lon="5.01577">
        <ele>284</ele>
        <time>2017-12-07T11:17:52Z</time>
      </trkpt>
      <trkpt lat="45.90515" lon="5.01578">
        <ele>284</ele>
        <time>2017-12-07T11:17:53Z</time>
      </trkpt>
      <trkpt lat="45.90507" lon="5.01579">
        <ele>285</ele>
        <time>2017-12-07T11:17:55Z</time>
      </trkpt>
      <trkpt lat="45.90502" lon="5.01581">
        <ele>285</ele>
        <time>2017-12-07T11:17:56Z</time>
      </trkpt>
      <trkpt lat="45.90493" lon="5.01583">
        <ele>285</ele>
        <time>2017-12-07T11:17:58Z</time>
      </trkpt>
      <trkpt lat="45.90491" lon="5.01584">
        <ele>285</ele>
        <time>2017-12-07T11:17:59Z</time>
      </trkpt>
      <trkpt lat="45.90484" lon="5.01586">
        <ele>285</ele>
        <time>2017-12-07T11:18:01Z</time>
      </trkpt>
      <trkpt lat="45.90481" lon="5.01587">
        <ele>285</ele>
        <time>2017-12-07T11:18:02Z</time>
      </trkpt>
      <trkpt lat="45.90472" lon="5.01583">
        <ele>284</ele>
        <time>2017-12-07T11:18:05Z</time>
      </trkpt>
      <trkpt lat="45.90472" lon="5.01579">
        <ele>284</ele>
        <time>2017-12-07T11:18:06Z</time>
      </trkpt>
      <trkpt lat="45.90472" lon="5.01568">
        <ele>284</ele>
        <time>2017-12-07T11:18:08Z</time>
      </trkpt>
      <trkpt lat="45.90473" lon="5.01562">
        <ele>283</ele>
        <time>2017-12-07T11:18:09Z</time>
      </trkpt>
      <trkpt lat="45.90472" lon="5.01549">
        <ele>283</ele>
        <time>2017-12-07T11:18:11Z</time>
      </trkpt>
      <trkpt lat="45.90472" lon="5.01544">
        <ele>283</ele>
        <time>2017-12-07T11:18:12Z</time>
      </trkpt>
      <trkpt lat="45.90471" lon="5.01531">
        <ele>283</ele>
        <time>2017-12-07T11:18:14Z</time>
      </trkpt>
      <trkpt lat="45.9047" lon="5.01525">
        <ele>283</ele>
        <time>2017-12-07T11:18:15Z</time>
      </trkpt>
      <trkpt lat="45.90468" lon="5.01518">
        <ele>283</ele>
        <time>2017-12-07T11:18:16Z</time>
      </trkpt>
      <trkpt lat="45.90468" lon="5.0151">
        <ele>283</ele>
        <time>2017-12-07T11:18:17Z</time>
      </trkpt>
      <trkpt lat="45.90467" lon="5.01502">
        <ele>283</ele>
        <time>2017-12-07T11:18:18Z</time>
      </trkpt>
      <trkpt lat="45.90466" lon="5.01495">
        <ele>282</ele>
        <time>2017-12-07T11:18:19Z</time>
      </trkpt>
      <trkpt lat="45.90466" lon="5.01488">
        <ele>282</ele>
        <time>2017-12-07T11:18:20Z</time>
      </trkpt>
      <trkpt lat="45.90465" lon="5.0148">
        <ele>282</ele>
        <time>2017-12-07T11:18:21Z</time>
      </trkpt>
      <trkpt lat="45.90465" lon="5.01474">
        <ele>282</ele>
        <time>2017-12-07T11:18:22Z</time>
      </trkpt>
      <trkpt lat="45.90465" lon="5.01467">
        <ele>282</ele>
        <time>2017-12-07T11:18:23Z</time>
      </trkpt>
      <trkpt lat="45.90464" lon="5.01459">
        <ele>282</ele>
        <time>2017-12-07T11:18:24Z</time>
      </trkpt>
      <trkpt lat="45.90463" lon="5.01452">
        <ele>282</ele>
        <time>2017-12-07T11:18:25Z</time>
      </trkpt>
      <trkpt lat="45.90463" lon="5.01444">
        <ele>282</ele>
        <time>2017-12-07T11:18:26Z</time>
      </trkpt>
      <trkpt lat="45.90462" lon="5.01437">
        <ele>282</ele>
        <time>2017-12-07T11:18:27Z</time>
      </trkpt>
      <trkpt lat="45.9046" lon="5.0143">
        <ele>282</ele>
        <time>2017-12-07T11:18:28Z</time>
      </trkpt>
      <trkpt lat="45.90459" lon="5.01423">
        <ele>282</ele>
        <time>2017-12-07T11:18:29Z</time>
      </trkpt>
      <trkpt lat="45.90459" lon="5.01416">
        <ele>281</ele>
        <time>2017-12-07T11:18:30Z</time>
      </trkpt>
      <trkpt lat="45.90458" lon="5.01409">
        <ele>281</ele>
        <time>2017-12-07T11:18:31Z</time>
      </trkpt>
      <trkpt lat="45.90457" lon="5.01401">
        <ele>281</ele>
        <time>2017-12-07T11:18:32Z</time>
      </trkpt>
      <trkpt lat="45.90457" lon="5.01392">
        <ele>281</ele>
        <time>2017-12-07T11:18:33Z</time>
      </trkpt>
      <trkpt lat="45.90456" lon="5.01384">
        <ele>281</ele>
        <time>2017-12-07T11:18:34Z</time>
      </trkpt>
      <trkpt lat="45.90456" lon="5.01375">
        <ele>281</ele>
        <time>2017-12-07T11:18:35Z</time>
      </trkpt>
      <trkpt lat="45.90455" lon="5.01368">
        <ele>281</ele>
        <time>2017-12-07T11:18:36Z</time>
      </trkpt>
      <trkpt lat="45.90455" lon="5.01359">
        <ele>281</ele>
        <time>2017-12-07T11:18:37Z</time>
      </trkpt>
      <trkpt lat="45.90455" lon="5.01351">
        <ele>281</ele>
        <time>2017-12-07T11:18:38Z</time>
      </trkpt>
      <trkpt lat="45.90454" lon="5.01344">
        <ele>281</ele>
        <time>2017-12-07T11:18:39Z</time>
      </trkpt>
      <trkpt lat="45.90454" lon="5.01337">
        <ele>281</ele>
        <time>2017-12-07T11:18:40Z</time>
      </trkpt>
      <trkpt lat="45.90454" lon="5.01329">
        <ele>281</ele>
        <time>2017-12-07T11:18:41Z</time>
      </trkpt>
      <trkpt lat="45.90452" lon="5.01317">
        <ele>281</ele>
        <time>2017-12-07T11:18:43Z</time>
      </trkpt>
      <trkpt lat="45.90451" lon="5.01308">
        <ele>281</ele>
        <time>2017-12-07T11:18:44Z</time>
      </trkpt>
      <trkpt lat="45.90451" lon="5.01301">
        <ele>281</ele>
        <time>2017-12-07T11:18:45Z</time>
      </trkpt>
      <trkpt lat="45.9045" lon="5.01293">
        <ele>281</ele>
        <time>2017-12-07T11:18:46Z</time>
      </trkpt>
      <trkpt lat="45.90449" lon="5.01285">
        <ele>281</ele>
        <time>2017-12-07T11:18:47Z</time>
      </trkpt>
      <trkpt lat="45.90448" lon="5.01276">
        <ele>281</ele>
        <time>2017-12-07T11:18:48Z</time>
      </trkpt>
      <trkpt lat="45.90448" lon="5.01269">
        <ele>281</ele>
        <time>2017-12-07T11:18:49Z</time>
      </trkpt>
      <trkpt lat="45.90447" lon="5.01262">
        <ele>281</ele>
        <time>2017-12-07T11:18:50Z</time>
      </trkpt>
      <trkpt lat="45.90446" lon="5.01255">
        <ele>281</ele>
        <time>2017-12-07T11:18:51Z</time>
      </trkpt>
      <trkpt lat="45.90446" lon="5.01247">
        <ele>281</ele>
        <time>2017-12-07T11:18:52Z</time>
      </trkpt>
      <trkpt lat="45.90445" lon="5.0124">
        <ele>281</ele>
        <time>2017-12-07T11:18:53Z</time>
      </trkpt>
      <trkpt lat="45.90444" lon="5.01234">
        <ele>281</ele>
        <time>2017-12-07T11:18:54Z</time>
      </trkpt>
      <trkpt lat="45.90443" lon="5.01226">
        <ele>281</ele>
        <time>2017-12-07T11:18:55Z</time>
      </trkpt>
      <trkpt lat="45.90444" lon="5.01218">
        <ele>281</ele>
        <time>2017-12-07T11:18:56Z</time>
      </trkpt>
      <trkpt lat="45.90443" lon="5.01205">
        <ele>281</ele>
        <time>2017-12-07T11:18:58Z</time>
      </trkpt>
      <trkpt lat="45.90442" lon="5.01197">
        <ele>281</ele>
        <time>2017-12-07T11:18:59Z</time>
      </trkpt>
      <trkpt lat="45.90441" lon="5.0119">
        <ele>281</ele>
        <time>2017-12-07T11:19:00Z</time>
      </trkpt>
      <trkpt lat="45.9044" lon="5.01182">
        <ele>282</ele>
        <time>2017-12-07T11:19:01Z</time>
      </trkpt>
      <trkpt lat="45.90439" lon="5.01174">
        <ele>282</ele>
        <time>2017-12-07T11:19:02Z</time>
      </trkpt>
      <trkpt lat="45.90438" lon="5.01166">
        <ele>282</ele>
        <time>2017-12-07T11:19:03Z</time>
      </trkpt>
      <trkpt lat="45.90437" lon="5.01159">
        <ele>282</ele>
        <time>2017-12-07T11:19:04Z</time>
      </trkpt>
      <trkpt lat="45.90437" lon="5.01152">
        <ele>282</ele>
        <time>2017-12-07T11:19:05Z</time>
      </trkpt>
      <trkpt lat="45.90436" lon="5.01145">
        <ele>282</ele>
        <time>2017-12-07T11:19:06Z</time>
      </trkpt>
      <trkpt lat="45.90436" lon="5.01139">
        <ele>282</ele>
        <time>2017-12-07T11:19:07Z</time>
      </trkpt>
      <trkpt lat="45.90435" lon="5.01133">
        <ele>282</ele>
        <time>2017-12-07T11:19:08Z</time>
      </trkpt>
      <trkpt lat="45.90435" lon="5.01125">
        <ele>282</ele>
        <time>2017-12-07T11:19:09Z</time>
      </trkpt>
      <trkpt lat="45.90434" lon="5.01116">
        <ele>282</ele>
        <time>2017-12-07T11:19:10Z</time>
      </trkpt>
      <trkpt lat="45.90433" lon="5.01109">
        <ele>282</ele>
        <time>2017-12-07T11:19:11Z</time>
      </trkpt>
      <trkpt lat="45.90433" lon="5.01101">
        <ele>282</ele>
        <time>2017-12-07T11:19:12Z</time>
      </trkpt>
      <trkpt lat="45.90432" lon="5.01093">
        <ele>282</ele>
        <time>2017-12-07T11:19:13Z</time>
      </trkpt>
      <trkpt lat="45.90431" lon="5.01086">
        <ele>282</ele>
        <time>2017-12-07T11:19:14Z</time>
      </trkpt>
      <trkpt lat="45.9043" lon="5.01079">
        <ele>282</ele>
        <time>2017-12-07T11:19:15Z</time>
      </trkpt>
      <trkpt lat="45.9043" lon="5.01072">
        <ele>282</ele>
        <time>2017-12-07T11:19:16Z</time>
      </trkpt>
      <trkpt lat="45.90429" lon="5.01064">
        <ele>282</ele>
        <time>2017-12-07T11:19:17Z</time>
      </trkpt>
      <trkpt lat="45.90428" lon="5.01058">
        <ele>282</ele>
        <time>2017-12-07T11:19:18Z</time>
      </trkpt>
      <trkpt lat="45.90427" lon="5.01051">
        <ele>282</ele>
        <time>2017-12-07T11:19:19Z</time>
      </trkpt>
      <trkpt lat="45.90426" lon="5.01044">
        <ele>282</ele>
        <time>2017-12-07T11:19:20Z</time>
      </trkpt>
      <trkpt lat="45.90426" lon="5.01035">
        <ele>282</ele>
        <time>2017-12-07T11:19:21Z</time>
      </trkpt>
      <trkpt lat="45.90425" lon="5.01028">
        <ele>282</ele>
        <time>2017-12-07T11:19:22Z</time>
      </trkpt>
      <trkpt lat="45.90425" lon="5.01021">
        <ele>282</ele>
        <time>2017-12-07T11:19:23Z</time>
      </trkpt>
      <trkpt lat="45.90424" lon="5.01013">
        <ele>282</ele>
        <time>2017-12-07T11:19:24Z</time>
      </trkpt>
      <trkpt lat="45.90422" lon="5.01005">
        <ele>282</ele>
        <time>2017-12-07T11:19:25Z</time>
      </trkpt>
      <trkpt lat="45.90422" lon="5.00998">
        <ele>282</ele>
        <time>2017-12-07T11:19:26Z</time>
      </trkpt>
      <trkpt lat="45.90421" lon="5.00991">
        <ele>282</ele>
        <time>2017-12-07T11:19:27Z</time>
      </trkpt>
      <trkpt lat="45.90421" lon="5.00984">
        <ele>282</ele>
        <time>2017-12-07T11:19:28Z</time>
      </trkpt>
      <trkpt lat="45.90421" lon="5.00978">
        <ele>282</ele>
        <time>2017-12-07T11:19:29Z</time>
      </trkpt>
      <trkpt lat="45.90419" lon="5.00966">
        <ele>282</ele>
        <time>2017-12-07T11:19:31Z</time>
      </trkpt>
      <trkpt lat="45.90418" lon="5.00958">
        <ele>282</ele>
        <time>2017-12-07T11:19:32Z</time>
      </trkpt>
      <trkpt lat="45.90417" lon="5.00951">
        <ele>282</ele>
        <time>2017-12-07T11:19:33Z</time>
      </trkpt>
      <trkpt lat="45.90417" lon="5.00944">
        <ele>283</ele>
        <time>2017-12-07T11:19:34Z</time>
      </trkpt>
      <trkpt lat="45.90416" lon="5.00936">
        <ele>284</ele>
        <time>2017-12-07T11:19:35Z</time>
      </trkpt>
      <trkpt lat="45.90416" lon="5.00929">
        <ele>283</ele>
        <time>2017-12-07T11:19:36Z</time>
      </trkpt>
      <trkpt lat="45.90415" lon="5.00921">
        <ele>283</ele>
        <time>2017-12-07T11:19:37Z</time>
      </trkpt>
      <trkpt lat="45.90415" lon="5.00913">
        <ele>283</ele>
        <time>2017-12-07T11:19:38Z</time>
      </trkpt>
      <trkpt lat="45.90414" lon="5.00906">
        <ele>283</ele>
        <time>2017-12-07T11:19:39Z</time>
      </trkpt>
      <trkpt lat="45.90413" lon="5.00899">
        <ele>284</ele>
        <time>2017-12-07T11:19:40Z</time>
      </trkpt>
      <trkpt lat="45.90413" lon="5.00892">
        <ele>284</ele>
        <time>2017-12-07T11:19:41Z</time>
      </trkpt>
      <trkpt lat="45.90413" lon="5.00886">
        <ele>284</ele>
        <time>2017-12-07T11:19:42Z</time>
      </trkpt>
      <trkpt lat="45.90411" lon="5.00874">
        <ele>284</ele>
        <time>2017-12-07T11:19:44Z</time>
      </trkpt>
      <trkpt lat="45.90411" lon="5.00866">
        <ele>284</ele>
        <time>2017-12-07T11:19:45Z</time>
      </trkpt>
      <trkpt lat="45.90411" lon="5.00858">
        <ele>284</ele>
        <time>2017-12-07T11:19:46Z</time>
      </trkpt>
      <trkpt lat="45.9041" lon="5.0085">
        <ele>284</ele>
        <time>2017-12-07T11:19:47Z</time>
      </trkpt>
      <trkpt lat="45.9041" lon="5.00843">
        <ele>283</ele>
        <time>2017-12-07T11:19:48Z</time>
      </trkpt>
      <trkpt lat="45.90409" lon="5.00836">
        <ele>283</ele>
        <time>2017-12-07T11:19:49Z</time>
      </trkpt>
      <trkpt lat="45.90409" lon="5.0083">
        <ele>283</ele>
        <time>2017-12-07T11:19:50Z</time>
      </trkpt>
      <trkpt lat="45.90409" lon="5.0082">
        <ele>283</ele>
        <time>2017-12-07T11:19:51Z</time>
      </trkpt>
      <trkpt lat="45.90408" lon="5.00813">
        <ele>283</ele>
        <time>2017-12-07T11:19:52Z</time>
      </trkpt>
      <trkpt lat="45.90408" lon="5.00804">
        <ele>283</ele>
        <time>2017-12-07T11:19:53Z</time>
      </trkpt>
      <trkpt lat="45.90407" lon="5.00798">
        <ele>283</ele>
        <time>2017-12-07T11:19:54Z</time>
      </trkpt>
      <trkpt lat="45.90406" lon="5.00791">
        <ele>283</ele>
        <time>2017-12-07T11:19:55Z</time>
      </trkpt>
      <trkpt lat="45.90405" lon="5.00783">
        <ele>283</ele>
        <time>2017-12-07T11:19:56Z</time>
      </trkpt>
      <trkpt lat="45.90404" lon="5.00775">
        <ele>283</ele>
        <time>2017-12-07T11:19:57Z</time>
      </trkpt>
      <trkpt lat="45.90403" lon="5.00767">
        <ele>283</ele>
        <time>2017-12-07T11:19:58Z</time>
      </trkpt>
      <trkpt lat="45.90402" lon="5.0076">
        <ele>283</ele>
        <time>2017-12-07T11:19:59Z</time>
      </trkpt>
      <trkpt lat="45.90402" lon="5.00752">
        <ele>283</ele>
        <time>2017-12-07T11:20:00Z</time>
      </trkpt>
      <trkpt lat="45.90401" lon="5.00746">
        <ele>282</ele>
        <time>2017-12-07T11:20:01Z</time>
      </trkpt>
      <trkpt lat="45.904" lon="5.00739">
        <ele>282</ele>
        <time>2017-12-07T11:20:02Z</time>
      </trkpt>
      <trkpt lat="45.904" lon="5.00732">
        <ele>282</ele>
        <time>2017-12-07T11:20:03Z</time>
      </trkpt>
      <trkpt lat="45.90399" lon="5.00726">
        <ele>283</ele>
        <time>2017-12-07T11:20:04Z</time>
      </trkpt>
      <trkpt lat="45.90398" lon="5.00718">
        <ele>283</ele>
        <time>2017-12-07T11:20:05Z</time>
      </trkpt>
      <trkpt lat="45.90398" lon="5.00709">
        <ele>282</ele>
        <time>2017-12-07T11:20:06Z</time>
      </trkpt>
      <trkpt lat="45.90397" lon="5.00701">
        <ele>282</ele>
        <time>2017-12-07T11:20:07Z</time>
      </trkpt>
      <trkpt lat="45.90396" lon="5.00693">
        <ele>282</ele>
        <time>2017-12-07T11:20:08Z</time>
      </trkpt>
      <trkpt lat="45.90395" lon="5.00684">
        <ele>282</ele>
        <time>2017-12-07T11:20:09Z</time>
      </trkpt>
      <trkpt lat="45.90396" lon="5.00675">
        <ele>282</ele>
        <time>2017-12-07T11:20:10Z</time>
      </trkpt>
      <trkpt lat="45.90396" lon="5.00666">
        <ele>282</ele>
        <time>2017-12-07T11:20:11Z</time>
      </trkpt>
      <trkpt lat="45.90395" lon="5.00659">
        <ele>282</ele>
        <time>2017-12-07T11:20:12Z</time>
      </trkpt>
      <trkpt lat="45.90395" lon="5.0065">
        <ele>282</ele>
        <time>2017-12-07T11:20:13Z</time>
      </trkpt>
      <trkpt lat="45.90394" lon="5.00642">
        <ele>282</ele>
        <time>2017-12-07T11:20:14Z</time>
      </trkpt>
      <trkpt lat="45.90393" lon="5.00634">
        <ele>282</ele>
        <time>2017-12-07T11:20:15Z</time>
      </trkpt>
      <trkpt lat="45.90393" lon="5.00627">
        <ele>282</ele>
        <time>2017-12-07T11:20:16Z</time>
      </trkpt>
      <trkpt lat="45.90393" lon="5.00619">
        <ele>282</ele>
        <time>2017-12-07T11:20:17Z</time>
      </trkpt>
      <trkpt lat="45.90392" lon="5.00613">
        <ele>282</ele>
        <time>2017-12-07T11:20:18Z</time>
      </trkpt>
      <trkpt lat="45.90392" lon="5.00606">
        <ele>282</ele>
        <time>2017-12-07T11:20:19Z</time>
      </trkpt>
      <trkpt lat="45.90392" lon="5.00594">
        <ele>282</ele>
        <time>2017-12-07T11:20:21Z</time>
      </trkpt>
      <trkpt lat="45.9039" lon="5.00587">
        <ele>282</ele>
        <time>2017-12-07T11:20:22Z</time>
      </trkpt>
      <trkpt lat="45.90388" lon="5.00581">
        <ele>281</ele>
        <time>2017-12-07T11:20:23Z</time>
      </trkpt>
      <trkpt lat="45.90387" lon="5.00574">
        <ele>281</ele>
        <time>2017-12-07T11:20:24Z</time>
      </trkpt>
      <trkpt lat="45.90387" lon="5.00564">
        <ele>281</ele>
        <time>2017-12-07T11:20:25Z</time>
      </trkpt>
      <trkpt lat="45.90386" lon="5.00556">
        <ele>281</ele>
        <time>2017-12-07T11:20:26Z</time>
      </trkpt>
      <trkpt lat="45.90385" lon="5.00548">
        <ele>281</ele>
        <time>2017-12-07T11:20:27Z</time>
      </trkpt>
      <trkpt lat="45.90381" lon="5.00541">
        <ele>281</ele>
        <time>2017-12-07T11:20:28Z</time>
      </trkpt>
      <trkpt lat="45.90373" lon="5.00538">
        <ele>281</ele>
        <time>2017-12-07T11:20:30Z</time>
      </trkpt>
      <trkpt lat="45.90367" lon="5.00531">
        <ele>281</ele>
        <time>2017-12-07T11:20:31Z</time>
      </trkpt>
      <trkpt lat="45.90361" lon="5.00521">
        <ele>281</ele>
        <time>2017-12-07T11:20:33Z</time>
      </trkpt>
      <trkpt lat="45.90357" lon="5.00518">
        <ele>281</ele>
        <time>2017-12-07T11:20:34Z</time>
      </trkpt>
      <trkpt lat="45.90354" lon="5.00514">
        <ele>281</ele>
        <time>2017-12-07T11:20:36Z</time>
      </trkpt>
      <trkpt lat="45.90347" lon="5.00505">
        <ele>280</ele>
        <time>2017-12-07T11:20:37Z</time>
      </trkpt>
      <trkpt lat="45.90344" lon="5.005">
        <ele>280</ele>
        <time>2017-12-07T11:20:38Z</time>
      </trkpt>
      <trkpt lat="45.90339" lon="5.00492">
        <ele>280</ele>
        <time>2017-12-07T11:20:39Z</time>
      </trkpt>
      <trkpt lat="45.90334" lon="5.00486">
        <ele>280</ele>
        <time>2017-12-07T11:20:40Z</time>
      </trkpt>
      <trkpt lat="45.9033" lon="5.0048">
        <ele>280</ele>
        <time>2017-12-07T11:20:41Z</time>
      </trkpt>
      <trkpt lat="45.90328" lon="5.00472">
        <ele>280</ele>
        <time>2017-12-07T11:20:42Z</time>
      </trkpt>
      <trkpt lat="45.90324" lon="5.00466">
        <ele>280</ele>
        <time>2017-12-07T11:20:43Z</time>
      </trkpt>
      <trkpt lat="45.90321" lon="5.00461">
        <ele>280</ele>
        <time>2017-12-07T11:20:44Z</time>
      </trkpt>
      <trkpt lat="45.90318" lon="5.00456">
        <ele>279</ele>
        <time>2017-12-07T11:20:45Z</time>
      </trkpt>
      <trkpt lat="45.90315" lon="5.0045">
        <ele>279</ele>
        <time>2017-12-07T11:20:46Z</time>
      </trkpt>
      <trkpt lat="45.90312" lon="5.00445">
        <ele>279</ele>
        <time>2017-12-07T11:20:47Z</time>
      </trkpt>
      <trkpt lat="45.90308" lon="5.00441">
        <ele>279</ele>
        <time>2017-12-07T11:20:48Z</time>
      </trkpt>
      <trkpt lat="45.90302" lon="5.00437">
        <ele>279</ele>
        <time>2017-12-07T11:20:49Z</time>
      </trkpt>
      <trkpt lat="45.90298" lon="5.00432">
        <ele>279</ele>
        <time>2017-12-07T11:20:50Z</time>
      </trkpt>
      <trkpt lat="45.90296" lon="5.00427">
        <ele>279</ele>
        <time>2017-12-07T11:20:51Z</time>
      </trkpt>
      <trkpt lat="45.90292" lon="5.00421">
        <ele>279</ele>
        <time>2017-12-07T11:20:52Z</time>
      </trkpt>
      <trkpt lat="45.90288" lon="5.00416">
        <ele>279</ele>
        <time>2017-12-07T11:20:53Z</time>
      </trkpt>
      <trkpt lat="45.90284" lon="5.00412">
        <ele>279</ele>
        <time>2017-12-07T11:20:54Z</time>
      </trkpt>
      <trkpt lat="45.9028" lon="5.00408">
        <ele>279</ele>
        <time>2017-12-07T11:20:55Z</time>
      </trkpt>
      <trkpt lat="45.90275" lon="5.00398">
        <ele>278</ele>
        <time>2017-12-07T11:20:57Z</time>
      </trkpt>
      <trkpt lat="45.9027" lon="5.00394">
        <ele>278</ele>
        <time>2017-12-07T11:20:58Z</time>
      </trkpt>
      <trkpt lat="45.90266" lon="5.00389">
        <ele>278</ele>
        <time>2017-12-07T11:20:59Z</time>
      </trkpt>
      <trkpt lat="45.90262" lon="5.00384">
        <ele>278</ele>
        <time>2017-12-07T11:21:00Z</time>
      </trkpt>
      <trkpt lat="45.90258" lon="5.00379">
        <ele>278</ele>
        <time>2017-12-07T11:21:01Z</time>
      </trkpt>
      <trkpt lat="45.90253" lon="5.00374">
        <ele>278</ele>
        <time>2017-12-07T11:21:02Z</time>
      </trkpt>
      <trkpt lat="45.90248" lon="5.0037">
        <ele>277</ele>
        <time>2017-12-07T11:21:03Z</time>
      </trkpt>
      <trkpt lat="45.90245" lon="5.00364">
        <ele>277</ele>
        <time>2017-12-07T11:21:04Z</time>
      </trkpt>
      <trkpt lat="45.90242" lon="5.00358">
        <ele>277</ele>
        <time>2017-12-07T11:21:05Z</time>
      </trkpt>
      <trkpt lat="45.90238" lon="5.00352">
        <ele>277</ele>
        <time>2017-12-07T11:21:06Z</time>
      </trkpt>
      <trkpt lat="45.90236" lon="5.00347">
        <ele>277</ele>
        <time>2017-12-07T11:21:07Z</time>
      </trkpt>
      <trkpt lat="45.90233" lon="5.0034">
        <ele>277</ele>
        <time>2017-12-07T11:21:08Z</time>
      </trkpt>
      <trkpt lat="45.90232" lon="5.00333">
        <ele>277</ele>
        <time>2017-12-07T11:21:09Z</time>
      </trkpt>
      <trkpt lat="45.90231" lon="5.00326">
        <ele>277</ele>
        <time>2017-12-07T11:21:10Z</time>
      </trkpt>
      <trkpt lat="45.9023" lon="5.0032">
        <ele>277</ele>
        <time>2017-12-07T11:21:11Z</time>
      </trkpt>
      <trkpt lat="45.9023" lon="5.00311">
        <ele>277</ele>
        <time>2017-12-07T11:21:12Z</time>
      </trkpt>
      <trkpt lat="45.9023" lon="5.00304">
        <ele>277</ele>
        <time>2017-12-07T11:21:13Z</time>
      </trkpt>
      <trkpt lat="45.90231" lon="5.00298">
        <ele>277</ele>
        <time>2017-12-07T11:21:14Z</time>
      </trkpt>
      <trkpt lat="45.90231" lon="5.00286">
        <ele>277</ele>
        <time>2017-12-07T11:21:16Z</time>
      </trkpt>
      <trkpt lat="45.90231" lon="5.00278">
        <ele>277</ele>
        <time>2017-12-07T11:21:17Z</time>
      </trkpt>
      <trkpt lat="45.90232" lon="5.00273">
        <ele>277</ele>
        <time>2017-12-07T11:21:18Z</time>
      </trkpt>
      <trkpt lat="45.90232" lon="5.00265">
        <ele>277</ele>
        <time>2017-12-07T11:21:19Z</time>
      </trkpt>
      <trkpt lat="45.90233" lon="5.00258">
        <ele>277</ele>
        <time>2017-12-07T11:21:20Z</time>
      </trkpt>
      <trkpt lat="45.90234" lon="5.00252">
        <ele>277</ele>
        <time>2017-12-07T11:21:21Z</time>
      </trkpt>
      <trkpt lat="45.90235" lon="5.00245">
        <ele>277</ele>
        <time>2017-12-07T11:21:22Z</time>
      </trkpt>
      <trkpt lat="45.90235" lon="5.00237">
        <ele>277</ele>
        <time>2017-12-07T11:21:23Z</time>
      </trkpt>
      <trkpt lat="45.90234" lon="5.0023">
        <ele>277</ele>
        <time>2017-12-07T11:21:24Z</time>
      </trkpt>
      <trkpt lat="45.90234" lon="5.00222">
        <ele>277</ele>
        <time>2017-12-07T11:21:25Z</time>
      </trkpt>
      <trkpt lat="45.90234" lon="5.00214">
        <ele>277</ele>
        <time>2017-12-07T11:21:26Z</time>
      </trkpt>
      <trkpt lat="45.90235" lon="5.00206">
        <ele>277</ele>
        <time>2017-12-07T11:21:27Z</time>
      </trkpt>
      <trkpt lat="45.90236" lon="5.00197">
        <ele>277</ele>
        <time>2017-12-07T11:21:28Z</time>
      </trkpt>
      <trkpt lat="45.90237" lon="5.00189">
        <ele>277</ele>
        <time>2017-12-07T11:21:29Z</time>
      </trkpt>
      <trkpt lat="45.90238" lon="5.0018">
        <ele>278</ele>
        <time>2017-12-07T11:21:30Z</time>
      </trkpt>
      <trkpt lat="45.90236" lon="5.00172">
        <ele>278</ele>
        <time>2017-12-07T11:21:31Z</time>
      </trkpt>
      <trkpt lat="45.90236" lon="5.00166">
        <ele>279</ele>
        <time>2017-12-07T11:21:32Z</time>
      </trkpt>
      <trkpt lat="45.90237" lon="5.00158">
        <ele>279</ele>
        <time>2017-12-07T11:21:33Z</time>
      </trkpt>
      <trkpt lat="45.90237" lon="5.00152">
        <ele>279</ele>
        <time>2017-12-07T11:21:34Z</time>
      </trkpt>
      <trkpt lat="45.90238" lon="5.00144">
        <ele>279</ele>
        <time>2017-12-07T11:21:35Z</time>
      </trkpt>
      <trkpt lat="45.90238" lon="5.00136">
        <ele>279</ele>
        <time>2017-12-07T11:21:36Z</time>
      </trkpt>
      <trkpt lat="45.90239" lon="5.00128">
        <ele>280</ele>
        <time>2017-12-07T11:21:37Z</time>
      </trkpt>
      <trkpt lat="45.9024" lon="5.00121">
        <ele>280</ele>
        <time>2017-12-07T11:21:38Z</time>
      </trkpt>
      <trkpt lat="45.9024" lon="5.00114">
        <ele>280</ele>
        <time>2017-12-07T11:21:39Z</time>
      </trkpt>
      <trkpt lat="45.90241" lon="5.00107">
        <ele>280</ele>
        <time>2017-12-07T11:21:40Z</time>
      </trkpt>
      <trkpt lat="45.90241" lon="5.00101">
        <ele>281</ele>
        <time>2017-12-07T11:21:41Z</time>
      </trkpt>
      <trkpt lat="45.90242" lon="5.00088">
        <ele>281</ele>
        <time>2017-12-07T11:21:43Z</time>
      </trkpt>
      <trkpt lat="45.90243" lon="5.00082">
        <ele>282</ele>
        <time>2017-12-07T11:21:44Z</time>
      </trkpt>
      <trkpt lat="45.90245" lon="5.00076">
        <ele>282</ele>
        <time>2017-12-07T11:21:45Z</time>
      </trkpt>
      <trkpt lat="45.90245" lon="5.00068">
        <ele>283</ele>
        <time>2017-12-07T11:21:46Z</time>
      </trkpt>
      <trkpt lat="45.90246" lon="5.00056">
        <ele>283</ele>
        <time>2017-12-07T11:21:48Z</time>
      </trkpt>
      <trkpt lat="45.90247" lon="5.00048">
        <ele>283</ele>
        <time>2017-12-07T11:21:49Z</time>
      </trkpt>
      <trkpt lat="45.90248" lon="5.00041">
        <ele>284</ele>
        <time>2017-12-07T11:21:50Z</time>
      </trkpt>
      <trkpt lat="45.90249" lon="5.00035">
        <ele>284</ele>
        <time>2017-12-07T11:21:51Z</time>
      </trkpt>
      <trkpt lat="45.90249" lon="5.00028">
        <ele>284</ele>
        <time>2017-12-07T11:21:52Z</time>
      </trkpt>
      <trkpt lat="45.90249" lon="5.00021">
        <ele>284</ele>
        <time>2017-12-07T11:21:53Z</time>
      </trkpt>
      <trkpt lat="45.90252" lon="5.00009">
        <ele>284</ele>
        <time>2017-12-07T11:21:55Z</time>
      </trkpt>
      <trkpt lat="45.90252" lon="5.00004">
        <ele>284</ele>
        <time>2017-12-07T11:21:56Z</time>
      </trkpt>
      <trkpt lat="45.90252" lon="4.99992">
        <ele>285</ele>
        <time>2017-12-07T11:21:58Z</time>
      </trkpt>
      <trkpt lat="45.90252" lon="4.99986">
        <ele>284</ele>
        <time>2017-12-07T11:21:59Z</time>
      </trkpt>
      <trkpt lat="45.90253" lon="4.99974">
        <ele>284</ele>
        <time>2017-12-07T11:22:01Z</time>
      </trkpt>
      <trkpt lat="45.90253" lon="4.99968">
        <ele>284</ele>
        <time>2017-12-07T11:22:02Z</time>
      </trkpt>
      <trkpt lat="45.90254" lon="4.99955">
        <ele>284</ele>
        <time>2017-12-07T11:22:04Z</time>
      </trkpt>
      <trkpt lat="45.90255" lon="4.99949">
        <ele>284</ele>
        <time>2017-12-07T11:22:05Z</time>
      </trkpt>
      <trkpt lat="45.90257" lon="4.99937">
        <ele>285</ele>
        <time>2017-12-07T11:22:07Z</time>
      </trkpt>
      <trkpt lat="45.90257" lon="4.99931">
        <ele>285</ele>
        <time>2017-12-07T11:22:08Z</time>
      </trkpt>
      <trkpt lat="45.90258" lon="4.9992">
        <ele>286</ele>
        <time>2017-12-07T11:22:10Z</time>
      </trkpt>
      <trkpt lat="45.90259" lon="4.99915">
        <ele>286</ele>
        <time>2017-12-07T11:22:11Z</time>
      </trkpt>
      <trkpt lat="45.90259" lon="4.99904">
        <ele>285</ele>
        <time>2017-12-07T11:22:13Z</time>
      </trkpt>
      <trkpt lat="45.9026" lon="4.99898">
        <ele>285</ele>
        <time>2017-12-07T11:22:14Z</time>
      </trkpt>
      <trkpt lat="45.90259" lon="4.99886">
        <ele>285</ele>
        <time>2017-12-07T11:22:16Z</time>
      </trkpt>
      <trkpt lat="45.90258" lon="4.99881">
        <ele>285</ele>
        <time>2017-12-07T11:22:17Z</time>
      </trkpt>
      <trkpt lat="45.90252" lon="4.99872">
        <ele>285</ele>
        <time>2017-12-07T11:22:19Z</time>
      </trkpt>
      <trkpt lat="45.90249" lon="4.99867">
        <ele>287</ele>
        <time>2017-12-07T11:22:20Z</time>
      </trkpt>
      <trkpt lat="45.90245" lon="4.99858">
        <ele>287</ele>
        <time>2017-12-07T11:22:22Z</time>
      </trkpt>
      <trkpt lat="45.90243" lon="4.99853">
        <ele>287</ele>
        <time>2017-12-07T11:22:23Z</time>
      </trkpt>
      <trkpt lat="45.9024" lon="4.99843">
        <ele>287</ele>
        <time>2017-12-07T11:22:25Z</time>
      </trkpt>
      <trkpt lat="45.90239" lon="4.99838">
        <ele>287</ele>
        <time>2017-12-07T11:22:26Z</time>
      </trkpt>
      <trkpt lat="45.90238" lon="4.99827">
        <ele>287</ele>
        <time>2017-12-07T11:22:28Z</time>
      </trkpt>
      <trkpt lat="45.90238" lon="4.99821">
        <ele>287</ele>
        <time>2017-12-07T11:22:29Z</time>
      </trkpt>
      <trkpt lat="45.90237" lon="4.99809">
        <ele>287</ele>
        <time>2017-12-07T11:22:31Z</time>
      </trkpt>
      <trkpt lat="45.90237" lon="4.99803">
        <ele>287</ele>
        <time>2017-12-07T11:22:32Z</time>
      </trkpt>
      <trkpt lat="45.90236" lon="4.99794">
        <ele>287</ele>
        <time>2017-12-07T11:22:34Z</time>
      </trkpt>
      <trkpt lat="45.90236" lon="4.9979">
        <ele>287</ele>
        <time>2017-12-07T11:22:35Z</time>
      </trkpt>
      <trkpt lat="45.90235" lon="4.9978">
        <ele>288</ele>
        <time>2017-12-07T11:22:37Z</time>
      </trkpt>
      <trkpt lat="45.90235" lon="4.99775">
        <ele>288</ele>
        <time>2017-12-07T11:22:38Z</time>
      </trkpt>
      <trkpt lat="45.90235" lon="4.99764">
        <ele>288</ele>
        <time>2017-12-07T11:22:40Z</time>
      </trkpt>
      <trkpt lat="45.90235" lon="4.9976">
        <ele>288</ele>
        <time>2017-12-07T11:22:41Z</time>
      </trkpt>
      <trkpt lat="45.90234" lon="4.9975">
        <ele>288</ele>
        <time>2017-12-07T11:22:43Z</time>
      </trkpt>
      <trkpt lat="45.90233" lon="4.99744">
        <ele>288</ele>
        <time>2017-12-07T11:22:44Z</time>
      </trkpt>
      <trkpt lat="45.90233" lon="4.99734">
        <ele>288</ele>
        <time>2017-12-07T11:22:46Z</time>
      </trkpt>
      <trkpt lat="45.90233" lon="4.99728">
        <ele>288</ele>
        <time>2017-12-07T11:22:47Z</time>
      </trkpt>
      <trkpt lat="45.90231" lon="4.99718">
        <ele>288</ele>
        <time>2017-12-07T11:22:49Z</time>
      </trkpt>
      <trkpt lat="45.90231" lon="4.99712">
        <ele>288</ele>
        <time>2017-12-07T11:22:50Z</time>
      </trkpt>
      <trkpt lat="45.90229" lon="4.997">
        <ele>288</ele>
        <time>2017-12-07T11:22:52Z</time>
      </trkpt>
      <trkpt lat="45.90228" lon="4.99695">
        <ele>288</ele>
        <time>2017-12-07T11:22:53Z</time>
      </trkpt>
      <trkpt lat="45.90226" lon="4.99684">
        <ele>288</ele>
        <time>2017-12-07T11:22:55Z</time>
      </trkpt>
      <trkpt lat="45.90224" lon="4.99678">
        <ele>288</ele>
        <time>2017-12-07T11:22:56Z</time>
      </trkpt>
      <trkpt lat="45.9022" lon="4.99668">
        <ele>288</ele>
        <time>2017-12-07T11:22:58Z</time>
      </trkpt>
      <trkpt lat="45.90221" lon="4.99662">
        <ele>287</ele>
        <time>2017-12-07T11:22:59Z</time>
      </trkpt>
      <trkpt lat="45.90219" lon="4.9965">
        <ele>287</ele>
        <time>2017-12-07T11:23:01Z</time>
      </trkpt>
      <trkpt lat="45.90217" lon="4.99644">
        <ele>287</ele>
        <time>2017-12-07T11:23:02Z</time>
      </trkpt>
      <trkpt lat="45.90214" lon="4.99633">
        <ele>287</ele>
        <time>2017-12-07T11:23:04Z</time>
      </trkpt>
      <trkpt lat="45.90213" lon="4.99627">
        <ele>287</ele>
        <time>2017-12-07T11:23:05Z</time>
      </trkpt>
      <trkpt lat="45.90211" lon="4.99617">
        <ele>287</ele>
        <time>2017-12-07T11:23:07Z</time>
      </trkpt>
      <trkpt lat="45.90211" lon="4.99611">
        <ele>287</ele>
        <time>2017-12-07T11:23:08Z</time>
      </trkpt>
      <trkpt lat="45.90208" lon="4.996">
        <ele>287</ele>
        <time>2017-12-07T11:23:10Z</time>
      </trkpt>
      <trkpt lat="45.90208" lon="4.99593">
        <ele>287</ele>
        <time>2017-12-07T11:23:11Z</time>
      </trkpt>
      <trkpt lat="45.90209" lon="4.99587">
        <ele>286</ele>
        <time>2017-12-07T11:23:12Z</time>
      </trkpt>
      <trkpt lat="45.9021" lon="4.9958">
        <ele>286</ele>
        <time>2017-12-07T11:23:13Z</time>
      </trkpt>
      <trkpt lat="45.9021" lon="4.99573">
        <ele>285</ele>
        <time>2017-12-07T11:23:14Z</time>
      </trkpt>
      <trkpt lat="45.9021" lon="4.99566">
        <ele>285</ele>
        <time>2017-12-07T11:23:15Z</time>
      </trkpt>
      <trkpt lat="45.90211" lon="4.99558">
        <ele>285</ele>
        <time>2017-12-07T11:23:16Z</time>
      </trkpt>
      <trkpt lat="45.90212" lon="4.99552">
        <ele>285</ele>
        <time>2017-12-07T11:23:17Z</time>
      </trkpt>
      <trkpt lat="45.90213" lon="4.99545">
        <ele>285</ele>
        <time>2017-12-07T11:23:18Z</time>
      </trkpt>
      <trkpt lat="45.90214" lon="4.99536">
        <ele>285</ele>
        <time>2017-12-07T11:23:19Z</time>
      </trkpt>
      <trkpt lat="45.90216" lon="4.99529">
        <ele>285</ele>
        <time>2017-12-07T11:23:20Z</time>
      </trkpt>
      <trkpt lat="45.90217" lon="4.99522">
        <ele>285</ele>
        <time>2017-12-07T11:23:21Z</time>
      </trkpt>
      <trkpt lat="45.90218" lon="4.99514">
        <ele>285</ele>
        <time>2017-12-07T11:23:22Z</time>
      </trkpt>
      <trkpt lat="45.9022" lon="4.99506">
        <ele>285</ele>
        <time>2017-12-07T11:23:23Z</time>
      </trkpt>
      <trkpt lat="45.90221" lon="4.99498">
        <ele>284</ele>
        <time>2017-12-07T11:23:24Z</time>
      </trkpt>
      <trkpt lat="45.90222" lon="4.9949">
        <ele>284</ele>
        <time>2017-12-07T11:23:25Z</time>
      </trkpt>
      <trkpt lat="45.90224" lon="4.99482">
        <ele>284</ele>
        <time>2017-12-07T11:23:26Z</time>
      </trkpt>
      <trkpt lat="45.90225" lon="4.99472">
        <ele>284</ele>
        <time>2017-12-07T11:23:27Z</time>
      </trkpt>
      <trkpt lat="45.90226" lon="4.99463">
        <ele>284</ele>
        <time>2017-12-07T11:23:28Z</time>
      </trkpt>
      <trkpt lat="45.90227" lon="4.99452">
        <ele>284</ele>
        <time>2017-12-07T11:23:29Z</time>
      </trkpt>
      <trkpt lat="45.90229" lon="4.99443">
        <ele>284</ele>
        <time>2017-12-07T11:23:30Z</time>
      </trkpt>
      <trkpt lat="45.9023" lon="4.99434">
        <ele>284</ele>
        <time>2017-12-07T11:23:31Z</time>
      </trkpt>
      <trkpt lat="45.9023" lon="4.99425">
        <ele>284</ele>
        <time>2017-12-07T11:23:32Z</time>
      </trkpt>
      <trkpt lat="45.90231" lon="4.99415">
        <ele>283</ele>
        <time>2017-12-07T11:23:33Z</time>
      </trkpt>
      <trkpt lat="45.90232" lon="4.99405">
        <ele>283</ele>
        <time>2017-12-07T11:23:34Z</time>
      </trkpt>
      <trkpt lat="45.90232" lon="4.99396">
        <ele>283</ele>
        <time>2017-12-07T11:23:35Z</time>
      </trkpt>
      <trkpt lat="45.90232" lon="4.99387">
        <ele>283</ele>
        <time>2017-12-07T11:23:36Z</time>
      </trkpt>
      <trkpt lat="45.90233" lon="4.99377">
        <ele>283</ele>
        <time>2017-12-07T11:23:37Z</time>
      </trkpt>
      <trkpt lat="45.90233" lon="4.99368">
        <ele>282</ele>
        <time>2017-12-07T11:23:38Z</time>
      </trkpt>
      <trkpt lat="45.90234" lon="4.99358">
        <ele>282</ele>
        <time>2017-12-07T11:23:39Z</time>
      </trkpt>
      <trkpt lat="45.90234" lon="4.9935">
        <ele>282</ele>
        <time>2017-12-07T11:23:40Z</time>
      </trkpt>
      <trkpt lat="45.90234" lon="4.99341">
        <ele>282</ele>
        <time>2017-12-07T11:23:41Z</time>
      </trkpt>
      <trkpt lat="45.90234" lon="4.99332">
        <ele>282</ele>
        <time>2017-12-07T11:23:42Z</time>
      </trkpt>
      <trkpt lat="45.90235" lon="4.99322">
        <ele>282</ele>
        <time>2017-12-07T11:23:43Z</time>
      </trkpt>
      <trkpt lat="45.90234" lon="4.99313">
        <ele>281</ele>
        <time>2017-12-07T11:23:44Z</time>
      </trkpt>
      <trkpt lat="45.90234" lon="4.99304">
        <ele>281</ele>
        <time>2017-12-07T11:23:45Z</time>
      </trkpt>
      <trkpt lat="45.90234" lon="4.99296">
        <ele>281</ele>
        <time>2017-12-07T11:23:46Z</time>
      </trkpt>
      <trkpt lat="45.90234" lon="4.99289">
        <ele>281</ele>
        <time>2017-12-07T11:23:47Z</time>
      </trkpt>
      <trkpt lat="45.90234" lon="4.9928">
        <ele>281</ele>
        <time>2017-12-07T11:23:48Z</time>
      </trkpt>
      <trkpt lat="45.90235" lon="4.99271">
        <ele>281</ele>
        <time>2017-12-07T11:23:49Z</time>
      </trkpt>
      <trkpt lat="45.90235" lon="4.99263">
        <ele>281</ele>
        <time>2017-12-07T11:23:50Z</time>
      </trkpt>
      <trkpt lat="45.90235" lon="4.99254">
        <ele>281</ele>
        <time>2017-12-07T11:23:51Z</time>
      </trkpt>
      <trkpt lat="45.90236" lon="4.99246">
        <ele>281</ele>
        <time>2017-12-07T11:23:52Z</time>
      </trkpt>
      <trkpt lat="45.90235" lon="4.99238">
        <ele>281</ele>
        <time>2017-12-07T11:23:53Z</time>
      </trkpt>
      <trkpt lat="45.90235" lon="4.99229">
        <ele>281</ele>
        <time>2017-12-07T11:23:54Z</time>
      </trkpt>
      <trkpt lat="45.90234" lon="4.99221">
        <ele>281</ele>
        <time>2017-12-07T11:23:55Z</time>
      </trkpt>
      <trkpt lat="45.90234" lon="4.99211">
        <ele>280</ele>
        <time>2017-12-07T11:23:56Z</time>
      </trkpt>
      <trkpt lat="45.90234" lon="4.99202">
        <ele>280</ele>
        <time>2017-12-07T11:23:57Z</time>
      </trkpt>
      <trkpt lat="45.90233" lon="4.99193">
        <ele>280</ele>
        <time>2017-12-07T11:23:58Z</time>
      </trkpt>
      <trkpt lat="45.90233" lon="4.99185">
        <ele>280</ele>
        <time>2017-12-07T11:23:59Z</time>
      </trkpt>
      <trkpt lat="45.90232" lon="4.99177">
        <ele>280</ele>
        <time>2017-12-07T11:24:00Z</time>
      </trkpt>
      <trkpt lat="45.90232" lon="4.9917">
        <ele>280</ele>
        <time>2017-12-07T11:24:01Z</time>
      </trkpt>
      <trkpt lat="45.90232" lon="4.99162">
        <ele>280</ele>
        <time>2017-12-07T11:24:02Z</time>
      </trkpt>
      <trkpt lat="45.90231" lon="4.99156">
        <ele>280</ele>
        <time>2017-12-07T11:24:03Z</time>
      </trkpt>
      <trkpt lat="45.90231" lon="4.99149">
        <ele>280</ele>
        <time>2017-12-07T11:24:04Z</time>
      </trkpt>
      <trkpt lat="45.90231" lon="4.99142">
        <ele>280</ele>
        <time>2017-12-07T11:24:05Z</time>
      </trkpt>
      <trkpt lat="45.90231" lon="4.99135">
        <ele>280</ele>
        <time>2017-12-07T11:24:06Z</time>
      </trkpt>
      <trkpt lat="45.90233" lon="4.99125">
        <ele>281</ele>
        <time>2017-12-07T11:24:07Z</time>
      </trkpt>
      <trkpt lat="45.90232" lon="4.99117">
        <ele>281</ele>
        <time>2017-12-07T11:24:08Z</time>
      </trkpt>
      <trkpt lat="45.90231" lon="4.99108">
        <ele>281</ele>
        <time>2017-12-07T11:24:09Z</time>
      </trkpt>
      <trkpt lat="45.90231" lon="4.99099">
        <ele>281</ele>
        <time>2017-12-07T11:24:10Z</time>
      </trkpt>
      <trkpt lat="45.9023" lon="4.99091">
        <ele>281</ele>
        <time>2017-12-07T11:24:11Z</time>
      </trkpt>
      <trkpt lat="45.9023" lon="4.99082">
        <ele>281</ele>
        <time>2017-12-07T11:24:12Z</time>
      </trkpt>
      <trkpt lat="45.90229" lon="4.99073">
        <ele>281</ele>
        <time>2017-12-07T11:24:13Z</time>
      </trkpt>
      <trkpt lat="45.90229" lon="4.99065">
        <ele>281</ele>
        <time>2017-12-07T11:24:14Z</time>
      </trkpt>
      <trkpt lat="45.90229" lon="4.99058">
        <ele>280</ele>
        <time>2017-12-07T11:24:15Z</time>
      </trkpt>
      <trkpt lat="45.90229" lon="4.99049">
        <ele>280</ele>
        <time>2017-12-07T11:24:16Z</time>
      </trkpt>
      <trkpt lat="45.90229" lon="4.99041">
        <ele>280</ele>
        <time>2017-12-07T11:24:17Z</time>
      </trkpt>
      <trkpt lat="45.90228" lon="4.99034">
        <ele>280</ele>
        <time>2017-12-07T11:24:18Z</time>
      </trkpt>
      <trkpt lat="45.90228" lon="4.99026">
        <ele>280</ele>
        <time>2017-12-07T11:24:19Z</time>
      </trkpt>
      <trkpt lat="45.90227" lon="4.9902">
        <ele>280</ele>
        <time>2017-12-07T11:24:20Z</time>
      </trkpt>
      <trkpt lat="45.90227" lon="4.99013">
        <ele>280</ele>
        <time>2017-12-07T11:24:21Z</time>
      </trkpt>
      <trkpt lat="45.90227" lon="4.99005">
        <ele>280</ele>
        <time>2017-12-07T11:24:22Z</time>
      </trkpt>
      <trkpt lat="45.90227" lon="4.98997">
        <ele>280</ele>
        <time>2017-12-07T11:24:23Z</time>
      </trkpt>
      <trkpt lat="45.90227" lon="4.98989">
        <ele>280</ele>
        <time>2017-12-07T11:24:24Z</time>
      </trkpt>
      <trkpt lat="45.90226" lon="4.9898">
        <ele>280</ele>
        <time>2017-12-07T11:24:25Z</time>
      </trkpt>
      <trkpt lat="45.90226" lon="4.98971">
        <ele>280</ele>
        <time>2017-12-07T11:24:26Z</time>
      </trkpt>
      <trkpt lat="45.90225" lon="4.98963">
        <ele>280</ele>
        <time>2017-12-07T11:24:27Z</time>
      </trkpt>
      <trkpt lat="45.90225" lon="4.98955">
        <ele>280</ele>
        <time>2017-12-07T11:24:28Z</time>
      </trkpt>
      <trkpt lat="45.90225" lon="4.98948">
        <ele>280</ele>
        <time>2017-12-07T11:24:29Z</time>
      </trkpt>
      <trkpt lat="45.90224" lon="4.98941">
        <ele>280</ele>
        <time>2017-12-07T11:24:30Z</time>
      </trkpt>
      <trkpt lat="45.90224" lon="4.98933">
        <ele>280</ele>
        <time>2017-12-07T11:24:31Z</time>
      </trkpt>
      <trkpt lat="45.90224" lon="4.98925">
        <ele>280</ele>
        <time>2017-12-07T11:24:32Z</time>
      </trkpt>
      <trkpt lat="45.90224" lon="4.98919">
        <ele>280</ele>
        <time>2017-12-07T11:24:33Z</time>
      </trkpt>
      <trkpt lat="45.90223" lon="4.98911">
        <ele>281</ele>
        <time>2017-12-07T11:24:34Z</time>
      </trkpt>
      <trkpt lat="45.90222" lon="4.98904">
        <ele>281</ele>
        <time>2017-12-07T11:24:35Z</time>
      </trkpt>
      <trkpt lat="45.90221" lon="4.98895">
        <ele>281</ele>
        <time>2017-12-07T11:24:36Z</time>
      </trkpt>
      <trkpt lat="45.90221" lon="4.98886">
        <ele>281</ele>
        <time>2017-12-07T11:24:37Z</time>
      </trkpt>
      <trkpt lat="45.90221" lon="4.98878">
        <ele>281</ele>
        <time>2017-12-07T11:24:38Z</time>
      </trkpt>
      <trkpt lat="45.90221" lon="4.98871">
        <ele>281</ele>
        <time>2017-12-07T11:24:39Z</time>
      </trkpt>
      <trkpt lat="45.90221" lon="4.98863">
        <ele>281</ele>
        <time>2017-12-07T11:24:40Z</time>
      </trkpt>
      <trkpt lat="45.9022" lon="4.98856">
        <ele>281</ele>
        <time>2017-12-07T11:24:41Z</time>
      </trkpt>
      <trkpt lat="45.90218" lon="4.9885">
        <ele>281</ele>
        <time>2017-12-07T11:24:42Z</time>
      </trkpt>
      <trkpt lat="45.90217" lon="4.98842">
        <ele>281</ele>
        <time>2017-12-07T11:24:43Z</time>
      </trkpt>
      <trkpt lat="45.90216" lon="4.98836">
        <ele>281</ele>
        <time>2017-12-07T11:24:44Z</time>
      </trkpt>
      <trkpt lat="45.90215" lon="4.98827">
        <ele>281</ele>
        <time>2017-12-07T11:24:45Z</time>
      </trkpt>
      <trkpt lat="45.90213" lon="4.9882">
        <ele>281</ele>
        <time>2017-12-07T11:24:46Z</time>
      </trkpt>
      <trkpt lat="45.90211" lon="4.98813">
        <ele>281</ele>
        <time>2017-12-07T11:24:47Z</time>
      </trkpt>
      <trkpt lat="45.90208" lon="4.98806">
        <ele>281</ele>
        <time>2017-12-07T11:24:48Z</time>
      </trkpt>
      <trkpt lat="45.90206" lon="4.988">
        <ele>281</ele>
        <time>2017-12-07T11:24:49Z</time>
      </trkpt>
      <trkpt lat="45.90204" lon="4.98792">
        <ele>281</ele>
        <time>2017-12-07T11:24:50Z</time>
      </trkpt>
      <trkpt lat="45.90202" lon="4.98785">
        <ele>281</ele>
        <time>2017-12-07T11:24:51Z</time>
      </trkpt>
      <trkpt lat="45.902" lon="4.98778">
        <ele>281</ele>
        <time>2017-12-07T11:24:52Z</time>
      </trkpt>
      <trkpt lat="45.90199" lon="4.98771">
        <ele>281</ele>
        <time>2017-12-07T11:24:53Z</time>
      </trkpt>
      <trkpt lat="45.90197" lon="4.98764">
        <ele>281</ele>
        <time>2017-12-07T11:24:54Z</time>
      </trkpt>
      <trkpt lat="45.90196" lon="4.98757">
        <ele>281</ele>
        <time>2017-12-07T11:24:55Z</time>
      </trkpt>
      <trkpt lat="45.90193" lon="4.98751">
        <ele>281</ele>
        <time>2017-12-07T11:24:56Z</time>
      </trkpt>
      <trkpt lat="45.90191" lon="4.98745">
        <ele>281</ele>
        <time>2017-12-07T11:24:57Z</time>
      </trkpt>
      <trkpt lat="45.90189" lon="4.98739">
        <ele>281</ele>
        <time>2017-12-07T11:24:58Z</time>
      </trkpt>
      <trkpt lat="45.90187" lon="4.98732">
        <ele>281</ele>
        <time>2017-12-07T11:24:59Z</time>
      </trkpt>
      <trkpt lat="45.90182" lon="4.98722">
        <ele>281</ele>
        <time>2017-12-07T11:25:01Z</time>
      </trkpt>
      <trkpt lat="45.90181" lon="4.98715">
        <ele>281</ele>
        <time>2017-12-07T11:25:02Z</time>
      </trkpt>
      <trkpt lat="45.90177" lon="4.98705">
        <ele>281</ele>
        <time>2017-12-07T11:25:04Z</time>
      </trkpt>
      <trkpt lat="45.90176" lon="4.987">
        <ele>281</ele>
        <time>2017-12-07T11:25:05Z</time>
      </trkpt>
      <trkpt lat="45.90172" lon="4.9869">
        <ele>282</ele>
        <time>2017-12-07T11:25:07Z</time>
      </trkpt>
      <trkpt lat="45.9017" lon="4.98685">
        <ele>282</ele>
        <time>2017-12-07T11:25:08Z</time>
      </trkpt>
      <trkpt lat="45.90167" lon="4.98674">
        <ele>282</ele>
        <time>2017-12-07T11:25:10Z</time>
      </trkpt>
      <trkpt lat="45.90165" lon="4.98668">
        <ele>282</ele>
        <time>2017-12-07T11:25:11Z</time>
      </trkpt>
      <trkpt lat="45.90163" lon="4.98662">
        <ele>282</ele>
        <time>2017-12-07T11:25:12Z</time>
      </trkpt>
      <trkpt lat="45.90161" lon="4.98656">
        <ele>282</ele>
        <time>2017-12-07T11:25:13Z</time>
      </trkpt>
      <trkpt lat="45.90157" lon="4.98645">
        <ele>282</ele>
        <time>2017-12-07T11:25:15Z</time>
      </trkpt>
      <trkpt lat="45.90155" lon="4.98638">
        <ele>282</ele>
        <time>2017-12-07T11:25:16Z</time>
      </trkpt>
      <trkpt lat="45.9015" lon="4.98627">
        <ele>282</ele>
        <time>2017-12-07T11:25:18Z</time>
      </trkpt>
      <trkpt lat="45.9015" lon="4.98622">
        <ele>282</ele>
        <time>2017-12-07T11:25:19Z</time>
      </trkpt>
      <trkpt lat="45.90145" lon="4.98612">
        <ele>282</ele>
        <time>2017-12-07T11:25:21Z</time>
      </trkpt>
      <trkpt lat="45.90144" lon="4.98607">
        <ele>282</ele>
        <time>2017-12-07T11:25:22Z</time>
      </trkpt>
      <trkpt lat="45.90141" lon="4.98595">
        <ele>282</ele>
        <time>2017-12-07T11:25:24Z</time>
      </trkpt>
      <trkpt lat="45.9014" lon="4.98589">
        <ele>282</ele>
        <time>2017-12-07T11:25:25Z</time>
      </trkpt>
      <trkpt lat="45.90136" lon="4.98578">
        <ele>282</ele>
        <time>2017-12-07T11:25:27Z</time>
      </trkpt>
      <trkpt lat="45.90133" lon="4.98571">
        <ele>282</ele>
        <time>2017-12-07T11:25:28Z</time>
      </trkpt>
      <trkpt lat="45.90131" lon="4.98565">
        <ele>282</ele>
        <time>2017-12-07T11:25:29Z</time>
      </trkpt>
      <trkpt lat="45.90128" lon="4.9856">
        <ele>282</ele>
        <time>2017-12-07T11:25:30Z</time>
      </trkpt>
      <trkpt lat="45.90125" lon="4.98555">
        <ele>282</ele>
        <time>2017-12-07T11:25:31Z</time>
      </trkpt>
      <trkpt lat="45.90123" lon="4.98547">
        <ele>282</ele>
        <time>2017-12-07T11:25:32Z</time>
      </trkpt>
      <trkpt lat="45.90121" lon="4.98541">
        <ele>282</ele>
        <time>2017-12-07T11:25:33Z</time>
      </trkpt>
      <trkpt lat="45.90119" lon="4.98535">
        <ele>283</ele>
        <time>2017-12-07T11:25:34Z</time>
      </trkpt>
      <trkpt lat="45.90115" lon="4.98525">
        <ele>283</ele>
        <time>2017-12-07T11:25:36Z</time>
      </trkpt>
      <trkpt lat="45.90114" lon="4.9852">
        <ele>283</ele>
        <time>2017-12-07T11:25:37Z</time>
      </trkpt>
      <trkpt lat="45.90109" lon="4.9851">
        <ele>283</ele>
        <time>2017-12-07T11:25:39Z</time>
      </trkpt>
      <trkpt lat="45.90108" lon="4.98505">
        <ele>283</ele>
        <time>2017-12-07T11:25:40Z</time>
      </trkpt>
      <trkpt lat="45.90104" lon="4.98496">
        <ele>283</ele>
        <time>2017-12-07T11:25:42Z</time>
      </trkpt>
      <trkpt lat="45.90101" lon="4.9849">
        <ele>283</ele>
        <time>2017-12-07T11:25:43Z</time>
      </trkpt>
      <trkpt lat="45.90099" lon="4.9848">
        <ele>283</ele>
        <time>2017-12-07T11:25:45Z</time>
      </trkpt>
      <trkpt lat="45.90097" lon="4.98474">
        <ele>283</ele>
        <time>2017-12-07T11:25:46Z</time>
      </trkpt>
      <trkpt lat="45.90093" lon="4.98464">
        <ele>283</ele>
        <time>2017-12-07T11:25:48Z</time>
      </trkpt>
      <trkpt lat="45.90091" lon="4.98459">
        <ele>283</ele>
        <time>2017-12-07T11:25:49Z</time>
      </trkpt>
      <trkpt lat="45.90087" lon="4.98449">
        <ele>283</ele>
        <time>2017-12-07T11:25:51Z</time>
      </trkpt>
      <trkpt lat="45.90085" lon="4.98443">
        <ele>283</ele>
        <time>2017-12-07T11:25:52Z</time>
      </trkpt>
      <trkpt lat="45.9008" lon="4.98433">
        <ele>283</ele>
        <time>2017-12-07T11:25:54Z</time>
      </trkpt>
      <trkpt lat="45.90078" lon="4.98428">
        <ele>283</ele>
        <time>2017-12-07T11:25:55Z</time>
      </trkpt>
      <trkpt lat="45.90075" lon="4.98416">
        <ele>283</ele>
        <time>2017-12-07T11:25:57Z</time>
      </trkpt>
      <trkpt lat="45.90074" lon="4.98411">
        <ele>283</ele>
        <time>2017-12-07T11:25:58Z</time>
      </trkpt>
      <trkpt lat="45.90072" lon="4.98399">
        <ele>283</ele>
        <time>2017-12-07T11:26:00Z</time>
      </trkpt>
      <trkpt lat="45.90071" lon="4.98394">
        <ele>283</ele>
        <time>2017-12-07T11:26:01Z</time>
      </trkpt>
      <trkpt lat="45.90069" lon="4.98383">
        <ele>282</ele>
        <time>2017-12-07T11:26:03Z</time>
      </trkpt>
      <trkpt lat="45.90068" lon="4.98377">
        <ele>282</ele>
        <time>2017-12-07T11:26:04Z</time>
      </trkpt>
      <trkpt lat="45.90066" lon="4.98365">
        <ele>282</ele>
        <time>2017-12-07T11:26:06Z</time>
      </trkpt>
      <trkpt lat="45.90067" lon="4.98359">
        <ele>282</ele>
        <time>2017-12-07T11:26:07Z</time>
      </trkpt>
      <trkpt lat="45.90067" lon="4.98353">
        <ele>282</ele>
        <time>2017-12-07T11:26:08Z</time>
      </trkpt>
      <trkpt lat="45.90066" lon="4.98346">
        <ele>282</ele>
        <time>2017-12-07T11:26:09Z</time>
      </trkpt>
      <trkpt lat="45.90066" lon="4.9834">
        <ele>282</ele>
        <time>2017-12-07T11:26:10Z</time>
      </trkpt>
      <trkpt lat="45.90065" lon="4.98333">
        <ele>281</ele>
        <time>2017-12-07T11:26:11Z</time>
      </trkpt>
      <trkpt lat="45.90065" lon="4.98326">
        <ele>281</ele>
        <time>2017-12-07T11:26:12Z</time>
      </trkpt>
      <trkpt lat="45.90064" lon="4.98319">
        <ele>281</ele>
        <time>2017-12-07T11:26:13Z</time>
      </trkpt>
      <trkpt lat="45.90064" lon="4.98311">
        <ele>281</ele>
        <time>2017-12-07T11:26:14Z</time>
      </trkpt>
      <trkpt lat="45.90063" lon="4.98304">
        <ele>281</ele>
        <time>2017-12-07T11:26:15Z</time>
      </trkpt>
      <trkpt lat="45.90063" lon="4.98297">
        <ele>281</ele>
        <time>2017-12-07T11:26:16Z</time>
      </trkpt>
      <trkpt lat="45.90062" lon="4.98291">
        <ele>281</ele>
        <time>2017-12-07T11:26:17Z</time>
      </trkpt>
      <trkpt lat="45.90061" lon="4.98285">
        <ele>281</ele>
        <time>2017-12-07T11:26:18Z</time>
      </trkpt>
      <trkpt lat="45.90061" lon="4.98278">
        <ele>281</ele>
        <time>2017-12-07T11:26:19Z</time>
      </trkpt>
      <trkpt lat="45.9006" lon="4.98271">
        <ele>281</ele>
        <time>2017-12-07T11:26:20Z</time>
      </trkpt>
      <trkpt lat="45.90059" lon="4.98264">
        <ele>281</ele>
        <time>2017-12-07T11:26:21Z</time>
      </trkpt>
      <trkpt lat="45.90057" lon="4.98257">
        <ele>281</ele>
        <time>2017-12-07T11:26:22Z</time>
      </trkpt>
      <trkpt lat="45.90057" lon="4.98249">
        <ele>280</ele>
        <time>2017-12-07T11:26:23Z</time>
      </trkpt>
      <trkpt lat="45.90056" lon="4.98242">
        <ele>280</ele>
        <time>2017-12-07T11:26:24Z</time>
      </trkpt>
      <trkpt lat="45.90056" lon="4.98235">
        <ele>280</ele>
        <time>2017-12-07T11:26:25Z</time>
      </trkpt>
      <trkpt lat="45.90056" lon="4.98227">
        <ele>280</ele>
        <time>2017-12-07T11:26:26Z</time>
      </trkpt>
      <trkpt lat="45.90055" lon="4.9822">
        <ele>280</ele>
        <time>2017-12-07T11:26:27Z</time>
      </trkpt>
      <trkpt lat="45.90055" lon="4.98213">
        <ele>280</ele>
        <time>2017-12-07T11:26:28Z</time>
      </trkpt>
      <trkpt lat="45.90055" lon="4.98205">
        <ele>280</ele>
        <time>2017-12-07T11:26:29Z</time>
      </trkpt>
      <trkpt lat="45.90055" lon="4.98199">
        <ele>280</ele>
        <time>2017-12-07T11:26:30Z</time>
      </trkpt>
      <trkpt lat="45.90055" lon="4.98192">
        <ele>280</ele>
        <time>2017-12-07T11:26:31Z</time>
      </trkpt>
      <trkpt lat="45.90054" lon="4.98184">
        <ele>280</ele>
        <time>2017-12-07T11:26:32Z</time>
      </trkpt>
      <trkpt lat="45.90053" lon="4.98178">
        <ele>280</ele>
        <time>2017-12-07T11:26:33Z</time>
      </trkpt>
      <trkpt lat="45.90053" lon="4.98171">
        <ele>280</ele>
        <time>2017-12-07T11:26:34Z</time>
      </trkpt>
      <trkpt lat="45.90053" lon="4.98163">
        <ele>279</ele>
        <time>2017-12-07T11:26:35Z</time>
      </trkpt>
      <trkpt lat="45.90053" lon="4.98155">
        <ele>279</ele>
        <time>2017-12-07T11:26:36Z</time>
      </trkpt>
      <trkpt lat="45.90052" lon="4.98147">
        <ele>279</ele>
        <time>2017-12-07T11:26:37Z</time>
      </trkpt>
      <trkpt lat="45.90052" lon="4.98139">
        <ele>279</ele>
        <time>2017-12-07T11:26:38Z</time>
      </trkpt>
      <trkpt lat="45.90051" lon="4.98131">
        <ele>279</ele>
        <time>2017-12-07T11:26:39Z</time>
      </trkpt>
      <trkpt lat="45.9005" lon="4.98124">
        <ele>279</ele>
        <time>2017-12-07T11:26:40Z</time>
      </trkpt>
      <trkpt lat="45.90048" lon="4.98116">
        <ele>279</ele>
        <time>2017-12-07T11:26:41Z</time>
      </trkpt>
      <trkpt lat="45.90048" lon="4.98109">
        <ele>279</ele>
        <time>2017-12-07T11:26:42Z</time>
      </trkpt>
      <trkpt lat="45.90047" lon="4.98103">
        <ele>279</ele>
        <time>2017-12-07T11:26:43Z</time>
      </trkpt>
      <trkpt lat="45.90047" lon="4.98095">
        <ele>279</ele>
        <time>2017-12-07T11:26:44Z</time>
      </trkpt>
      <trkpt lat="45.90047" lon="4.98089">
        <ele>279</ele>
        <time>2017-12-07T11:26:45Z</time>
      </trkpt>
      <trkpt lat="45.90047" lon="4.98082">
        <ele>279</ele>
        <time>2017-12-07T11:26:46Z</time>
      </trkpt>
      <trkpt lat="45.90047" lon="4.98075">
        <ele>279</ele>
        <time>2017-12-07T11:26:47Z</time>
      </trkpt>
      <trkpt lat="45.90046" lon="4.98067">
        <ele>279</ele>
        <time>2017-12-07T11:26:48Z</time>
      </trkpt>
      <trkpt lat="45.90046" lon="4.9806">
        <ele>279</ele>
        <time>2017-12-07T11:26:49Z</time>
      </trkpt>
      <trkpt lat="45.90045" lon="4.98052">
        <ele>279</ele>
        <time>2017-12-07T11:26:50Z</time>
      </trkpt>
      <trkpt lat="45.90045" lon="4.98043">
        <ele>279</ele>
        <time>2017-12-07T11:26:51Z</time>
      </trkpt>
      <trkpt lat="45.90044" lon="4.98033">
        <ele>278</ele>
        <time>2017-12-07T11:26:52Z</time>
      </trkpt>
      <trkpt lat="45.90043" lon="4.98024">
        <ele>278</ele>
        <time>2017-12-07T11:26:53Z</time>
      </trkpt>
      <trkpt lat="45.90044" lon="4.98015">
        <ele>278</ele>
        <time>2017-12-07T11:26:54Z</time>
      </trkpt>
      <trkpt lat="45.90043" lon="4.98007">
        <ele>278</ele>
        <time>2017-12-07T11:26:55Z</time>
      </trkpt>
      <trkpt lat="45.90042" lon="4.97999">
        <ele>278</ele>
        <time>2017-12-07T11:26:56Z</time>
      </trkpt>
      <trkpt lat="45.90041" lon="4.97991">
        <ele>278</ele>
        <time>2017-12-07T11:26:57Z</time>
      </trkpt>
      <trkpt lat="45.90041" lon="4.97982">
        <ele>278</ele>
        <time>2017-12-07T11:26:58Z</time>
      </trkpt>
      <trkpt lat="45.9004" lon="4.97974">
        <ele>278</ele>
        <time>2017-12-07T11:26:59Z</time>
      </trkpt>
      <trkpt lat="45.9004" lon="4.97965">
        <ele>278</ele>
        <time>2017-12-07T11:27:00Z</time>
      </trkpt>
      <trkpt lat="45.90039" lon="4.97957">
        <ele>278</ele>
        <time>2017-12-07T11:27:01Z</time>
      </trkpt>
      <trkpt lat="45.90038" lon="4.97949">
        <ele>279</ele>
        <time>2017-12-07T11:27:02Z</time>
      </trkpt>
      <trkpt lat="45.90038" lon="4.97941">
        <ele>279</ele>
        <time>2017-12-07T11:27:03Z</time>
      </trkpt>
      <trkpt lat="45.90037" lon="4.97934">
        <ele>279</ele>
        <time>2017-12-07T11:27:04Z</time>
      </trkpt>
      <trkpt lat="45.90036" lon="4.97924">
        <ele>279</ele>
        <time>2017-12-07T11:27:05Z</time>
      </trkpt>
      <trkpt lat="45.90034" lon="4.97917">
        <ele>279</ele>
        <time>2017-12-07T11:27:06Z</time>
      </trkpt>
      <trkpt lat="45.9003" lon="4.9791">
        <ele>279</ele>
        <time>2017-12-07T11:27:07Z</time>
      </trkpt>
      <trkpt lat="45.90026" lon="4.97906">
        <ele>279</ele>
        <time>2017-12-07T11:27:08Z</time>
      </trkpt>
      <trkpt lat="45.90021" lon="4.97904">
        <ele>279</ele>
        <time>2017-12-07T11:27:09Z</time>
      </trkpt>
      <trkpt lat="45.90016" lon="4.97905">
        <ele>279</ele>
        <time>2017-12-07T11:27:10Z</time>
      </trkpt>
      <trkpt lat="45.90011" lon="4.97908">
        <ele>278</ele>
        <time>2017-12-07T11:27:11Z</time>
      </trkpt>
      <trkpt lat="45.90005" lon="4.97912">
        <ele>278</ele>
        <time>2017-12-07T11:27:13Z</time>
      </trkpt>
      <trkpt lat="45.9" lon="4.97917">
        <ele>278</ele>
        <time>2017-12-07T11:27:14Z</time>
      </trkpt>
      <trkpt lat="45.89997" lon="4.97919">
        <ele>278</ele>
        <time>2017-12-07T11:27:15Z</time>
      </trkpt>
      <trkpt lat="45.89992" lon="4.97924">
        <ele>278</ele>
        <time>2017-12-07T11:27:16Z</time>
      </trkpt>
      <trkpt lat="45.89988" lon="4.97928">
        <ele>278</ele>
        <time>2017-12-07T11:27:17Z</time>
      </trkpt>
      <trkpt lat="45.89982" lon="4.97928">
        <ele>278</ele>
        <time>2017-12-07T11:27:18Z</time>
      </trkpt>
      <trkpt lat="45.89978" lon="4.97931">
        <ele>278</ele>
        <time>2017-12-07T11:27:19Z</time>
      </trkpt>
      <trkpt lat="45.89971" lon="4.9793">
        <ele>278</ele>
        <time>2017-12-07T11:27:20Z</time>
      </trkpt>
      <trkpt lat="45.89965" lon="4.97932">
        <ele>278</ele>
        <time>2017-12-07T11:27:21Z</time>
      </trkpt>
      <trkpt lat="45.89961" lon="4.97933">
        <ele>278</ele>
        <time>2017-12-07T11:27:22Z</time>
      </trkpt>
      <trkpt lat="45.89954" lon="4.97934">
        <ele>278</ele>
        <time>2017-12-07T11:27:23Z</time>
      </trkpt>
      <trkpt lat="45.89949" lon="4.97935">
        <ele>278</ele>
        <time>2017-12-07T11:27:24Z</time>
      </trkpt>
      <trkpt lat="45.89941" lon="4.97932">
        <ele>278</ele>
        <time>2017-12-07T11:27:26Z</time>
      </trkpt>
      <trkpt lat="45.89935" lon="4.97931">
        <ele>278</ele>
        <time>2017-12-07T11:27:27Z</time>
      </trkpt>
      <trkpt lat="45.89927" lon="4.97932">
        <ele>278</ele>
        <time>2017-12-07T11:27:28Z</time>
      </trkpt>
      <trkpt lat="45.8992" lon="4.97929">
        <ele>278</ele>
        <time>2017-12-07T11:27:29Z</time>
      </trkpt>
      <trkpt lat="45.89915" lon="4.97928">
        <ele>278</ele>
        <time>2017-12-07T11:27:30Z</time>
      </trkpt>
      <trkpt lat="45.8991" lon="4.97926">
        <ele>278</ele>
        <time>2017-12-07T11:27:31Z</time>
      </trkpt>
      <trkpt lat="45.89905" lon="4.97923">
        <ele>278</ele>
        <time>2017-12-07T11:27:32Z</time>
      </trkpt>
      <trkpt lat="45.899" lon="4.97921">
        <ele>278</ele>
        <time>2017-12-07T11:27:33Z</time>
      </trkpt>
      <trkpt lat="45.89894" lon="4.97918">
        <ele>278</ele>
        <time>2017-12-07T11:27:34Z</time>
      </trkpt>
      <trkpt lat="45.8989" lon="4.97917">
        <ele>278</ele>
        <time>2017-12-07T11:27:35Z</time>
      </trkpt>
      <trkpt lat="45.89885" lon="4.97915">
        <ele>278</ele>
        <time>2017-12-07T11:27:36Z</time>
      </trkpt>
      <trkpt lat="45.8988" lon="4.97912">
        <ele>278</ele>
        <time>2017-12-07T11:27:37Z</time>
      </trkpt>
      <trkpt lat="45.89875" lon="4.9791">
        <ele>278</ele>
        <time>2017-12-07T11:27:38Z</time>
      </trkpt>
      <trkpt lat="45.89871" lon="4.97907">
        <ele>278</ele>
        <time>2017-12-07T11:27:39Z</time>
      </trkpt>
      <trkpt lat="45.89865" lon="4.97904">
        <ele>278</ele>
        <time>2017-12-07T11:27:40Z</time>
      </trkpt>
      <trkpt lat="45.89861" lon="4.97901">
        <ele>278</ele>
        <time>2017-12-07T11:27:41Z</time>
      </trkpt>
      <trkpt lat="45.89853" lon="4.97896">
        <ele>278</ele>
        <time>2017-12-07T11:27:43Z</time>
      </trkpt>
      <trkpt lat="45.89849" lon="4.97894">
        <ele>278</ele>
        <time>2017-12-07T11:27:44Z</time>
      </trkpt>
      <trkpt lat="45.89845" lon="4.97891">
        <ele>278</ele>
        <time>2017-12-07T11:27:45Z</time>
      </trkpt>
      <trkpt lat="45.89841" lon="4.97889">
        <ele>278</ele>
        <time>2017-12-07T11:27:46Z</time>
      </trkpt>
      <trkpt lat="45.89833" lon="4.97885">
        <ele>278</ele>
        <time>2017-12-07T11:27:48Z</time>
      </trkpt>
      <trkpt lat="45.89829" lon="4.97883">
        <ele>278</ele>
        <time>2017-12-07T11:27:49Z</time>
      </trkpt>
      <trkpt lat="45.89824" lon="4.9788">
        <ele>278</ele>
        <time>2017-12-07T11:27:50Z</time>
      </trkpt>
      <trkpt lat="45.8982" lon="4.97877">
        <ele>278</ele>
        <time>2017-12-07T11:27:51Z</time>
      </trkpt>
      <trkpt lat="45.89815" lon="4.97872">
        <ele>278</ele>
        <time>2017-12-07T11:27:52Z</time>
      </trkpt>
      <trkpt lat="45.89812" lon="4.97869">
        <ele>278</ele>
        <time>2017-12-07T11:27:53Z</time>
      </trkpt>
      <trkpt lat="45.89807" lon="4.97866">
        <ele>278</ele>
        <time>2017-12-07T11:27:54Z</time>
      </trkpt>
      <trkpt lat="45.89803" lon="4.97865">
        <ele>278</ele>
        <time>2017-12-07T11:27:55Z</time>
      </trkpt>
      <trkpt lat="45.89795" lon="4.97859">
        <ele>278</ele>
        <time>2017-12-07T11:27:57Z</time>
      </trkpt>
      <trkpt lat="45.89791" lon="4.97856">
        <ele>278</ele>
        <time>2017-12-07T11:27:58Z</time>
      </trkpt>
      <trkpt lat="45.89786" lon="4.97853">
        <ele>278</ele>
        <time>2017-12-07T11:27:59Z</time>
      </trkpt>
      <trkpt lat="45.89783" lon="4.97849">
        <ele>278</ele>
        <time>2017-12-07T11:28:00Z</time>
      </trkpt>
      <trkpt lat="45.89778" lon="4.97845">
        <ele>278</ele>
        <time>2017-12-07T11:28:01Z</time>
      </trkpt>
      <trkpt lat="45.89773" lon="4.97842">
        <ele>278</ele>
        <time>2017-12-07T11:28:02Z</time>
      </trkpt>
      <trkpt lat="45.89769" lon="4.97839">
        <ele>278</ele>
        <time>2017-12-07T11:28:03Z</time>
      </trkpt>
      <trkpt lat="45.89765" lon="4.97836">
        <ele>278</ele>
        <time>2017-12-07T11:28:04Z</time>
      </trkpt>
      <trkpt lat="45.8976" lon="4.97833">
        <ele>278</ele>
        <time>2017-12-07T11:28:05Z</time>
      </trkpt>
      <trkpt lat="45.89756" lon="4.9783">
        <ele>278</ele>
        <time>2017-12-07T11:28:06Z</time>
      </trkpt>
      <trkpt lat="45.89752" lon="4.97829">
        <ele>278</ele>
        <time>2017-12-07T11:28:07Z</time>
      </trkpt>
      <trkpt lat="45.89747" lon="4.97826">
        <ele>278</ele>
        <time>2017-12-07T11:28:08Z</time>
      </trkpt>
      <trkpt lat="45.89739" lon="4.9782">
        <ele>279</ele>
        <time>2017-12-07T11:28:10Z</time>
      </trkpt>
      <trkpt lat="45.89735" lon="4.97817">
        <ele>279</ele>
        <time>2017-12-07T11:28:11Z</time>
      </trkpt>
      <trkpt lat="45.8973" lon="4.97813">
        <ele>279</ele>
        <time>2017-12-07T11:28:12Z</time>
      </trkpt>
      <trkpt lat="45.89726" lon="4.9781">
        <ele>279</ele>
        <time>2017-12-07T11:28:13Z</time>
      </trkpt>
      <trkpt lat="45.89722" lon="4.97806">
        <ele>279</ele>
        <time>2017-12-07T11:28:14Z</time>
      </trkpt>
      <trkpt lat="45.89718" lon="4.97804">
        <ele>279</ele>
        <time>2017-12-07T11:28:15Z</time>
      </trkpt>
      <trkpt lat="45.89711" lon="4.97799">
        <ele>279</ele>
        <time>2017-12-07T11:28:17Z</time>
      </trkpt>
      <trkpt lat="45.89707" lon="4.97796">
        <ele>280</ele>
        <time>2017-12-07T11:28:18Z</time>
      </trkpt>
      <trkpt lat="45.89701" lon="4.9779">
        <ele>280</ele>
        <time>2017-12-07T11:28:20Z</time>
      </trkpt>
      <trkpt lat="45.89697" lon="4.97787">
        <ele>280</ele>
        <time>2017-12-07T11:28:21Z</time>
      </trkpt>
      <trkpt lat="45.89689" lon="4.97781">
        <ele>280</ele>
        <time>2017-12-07T11:28:23Z</time>
      </trkpt>
      <trkpt lat="45.89685" lon="4.97777">
        <ele>280</ele>
        <time>2017-12-07T11:28:24Z</time>
      </trkpt>
      <trkpt lat="45.89678" lon="4.9777">
        <ele>280</ele>
        <time>2017-12-07T11:28:26Z</time>
      </trkpt>
      <trkpt lat="45.89674" lon="4.97767">
        <ele>280</ele>
        <time>2017-12-07T11:28:27Z</time>
      </trkpt>
      <trkpt lat="45.89668" lon="4.97759">
        <ele>280</ele>
        <time>2017-12-07T11:28:29Z</time>
      </trkpt>
      <trkpt lat="45.89665" lon="4.97752">
        <ele>280</ele>
        <time>2017-12-07T11:28:30Z</time>
      </trkpt>
      <trkpt lat="45.89662" lon="4.97743">
        <ele>280</ele>
        <time>2017-12-07T11:28:32Z</time>
      </trkpt>
      <trkpt lat="45.89662" lon="4.97738">
        <ele>280</ele>
        <time>2017-12-07T11:28:33Z</time>
      </trkpt>
      <trkpt lat="45.89663" lon="4.97726">
        <ele>280</ele>
        <time>2017-12-07T11:28:35Z</time>
      </trkpt>
      <trkpt lat="45.89663" lon="4.9772">
        <ele>280</ele>
        <time>2017-12-07T11:28:36Z</time>
      </trkpt>
      <trkpt lat="45.89664" lon="4.97709">
        <ele>280</ele>
        <time>2017-12-07T11:28:38Z</time>
      </trkpt>
      <trkpt lat="45.89665" lon="4.97703">
        <ele>280</ele>
        <time>2017-12-07T11:28:39Z</time>
      </trkpt>
      <trkpt lat="45.89667" lon="4.97691">
        <ele>280</ele>
        <time>2017-12-07T11:28:41Z</time>
      </trkpt>
      <trkpt lat="45.89668" lon="4.97685">
        <ele>280</ele>
        <time>2017-12-07T11:28:42Z</time>
      </trkpt>
      <trkpt lat="45.89671" lon="4.97675">
        <ele>280</ele>
        <time>2017-12-07T11:28:44Z</time>
      </trkpt>
      <trkpt lat="45.89672" lon="4.9767">
        <ele>280</ele>
        <time>2017-12-07T11:28:45Z</time>
      </trkpt>
      <trkpt lat="45.89675" lon="4.97659">
        <ele>280</ele>
        <time>2017-12-07T11:28:47Z</time>
      </trkpt>
      <trkpt lat="45.89676" lon="4.97653">
        <ele>281</ele>
        <time>2017-12-07T11:28:48Z</time>
      </trkpt>
      <trkpt lat="45.89678" lon="4.97642">
        <ele>281</ele>
        <time>2017-12-07T11:28:50Z</time>
      </trkpt>
      <trkpt lat="45.89679" lon="4.97636">
        <ele>281</ele>
        <time>2017-12-07T11:28:51Z</time>
      </trkpt>
      <trkpt lat="45.89682" lon="4.97625">
        <ele>281</ele>
        <time>2017-12-07T11:28:53Z</time>
      </trkpt>
      <trkpt lat="45.89683" lon="4.9762">
        <ele>281</ele>
        <time>2017-12-07T11:28:54Z</time>
      </trkpt>
      <trkpt lat="45.89685" lon="4.97608">
        <ele>282</ele>
        <time>2017-12-07T11:28:56Z</time>
      </trkpt>
      <trkpt lat="45.89686" lon="4.97603">
        <ele>282</ele>
        <time>2017-12-07T11:28:57Z</time>
      </trkpt>
      <trkpt lat="45.89689" lon="4.97593">
        <ele>282</ele>
        <time>2017-12-07T11:28:59Z</time>
      </trkpt>
      <trkpt lat="45.8969" lon="4.97588">
        <ele>282</ele>
        <time>2017-12-07T11:29:00Z</time>
      </trkpt>
      <trkpt lat="45.89692" lon="4.97579">
        <ele>284</ele>
        <time>2017-12-07T11:29:02Z</time>
      </trkpt>
      <trkpt lat="45.89692" lon="4.97573">
        <ele>284</ele>
        <time>2017-12-07T11:29:03Z</time>
      </trkpt>
      <trkpt lat="45.89694" lon="4.97562">
        <ele>284</ele>
        <time>2017-12-07T11:29:05Z</time>
      </trkpt>
      <trkpt lat="45.89695" lon="4.97557">
        <ele>284</ele>
        <time>2017-12-07T11:29:06Z</time>
      </trkpt>
      <trkpt lat="45.89696" lon="4.97547">
        <ele>284</ele>
        <time>2017-12-07T11:29:08Z</time>
      </trkpt>
      <trkpt lat="45.89697" lon="4.97543">
        <ele>284</ele>
        <time>2017-12-07T11:29:09Z</time>
      </trkpt>
      <trkpt lat="45.89699" lon="4.97534">
        <ele>284</ele>
        <time>2017-12-07T11:29:11Z</time>
      </trkpt>
      <trkpt lat="45.897" lon="4.9753">
        <ele>285</ele>
        <time>2017-12-07T11:29:12Z</time>
      </trkpt>
      <trkpt lat="45.89702" lon="4.9752">
        <ele>285</ele>
        <time>2017-12-07T11:29:14Z</time>
      </trkpt>
      <trkpt lat="45.89702" lon="4.97515">
        <ele>285</ele>
        <time>2017-12-07T11:29:15Z</time>
      </trkpt>
      <trkpt lat="45.89703" lon="4.97506">
        <ele>285</ele>
        <time>2017-12-07T11:29:17Z</time>
      </trkpt>
      <trkpt lat="45.89704" lon="4.97501">
        <ele>285</ele>
        <time>2017-12-07T11:29:18Z</time>
      </trkpt>
      <trkpt lat="45.89705" lon="4.97491">
        <ele>287</ele>
        <time>2017-12-07T11:29:20Z</time>
      </trkpt>
      <trkpt lat="45.89706" lon="4.97486">
        <ele>287</ele>
        <time>2017-12-07T11:29:21Z</time>
      </trkpt>
      <trkpt lat="45.89708" lon="4.97475">
        <ele>287</ele>
        <time>2017-12-07T11:29:23Z</time>
      </trkpt>
      <trkpt lat="45.89709" lon="4.97471">
        <ele>287</ele>
        <time>2017-12-07T11:29:24Z</time>
      </trkpt>
      <trkpt lat="45.8971" lon="4.9746">
        <ele>287</ele>
        <time>2017-12-07T11:29:26Z</time>
      </trkpt>
      <trkpt lat="45.89711" lon="4.97456">
        <ele>287</ele>
        <time>2017-12-07T11:29:27Z</time>
      </trkpt>
      <trkpt lat="45.89712" lon="4.97445">
        <ele>287</ele>
        <time>2017-12-07T11:29:29Z</time>
      </trkpt>
      <trkpt lat="45.89713" lon="4.9744">
        <ele>287</ele>
        <time>2017-12-07T11:29:30Z</time>
      </trkpt>
      <trkpt lat="45.89715" lon="4.9743">
        <ele>287</ele>
        <time>2017-12-07T11:29:32Z</time>
      </trkpt>
      <trkpt lat="45.89716" lon="4.97425">
        <ele>287</ele>
        <time>2017-12-07T11:29:33Z</time>
      </trkpt>
      <trkpt lat="45.8972" lon="4.97416">
        <ele>288</ele>
        <time>2017-12-07T11:29:35Z</time>
      </trkpt>
      <trkpt lat="45.89722" lon="4.97411">
        <ele>288</ele>
        <time>2017-12-07T11:29:36Z</time>
      </trkpt>
      <trkpt lat="45.89727" lon="4.97402">
        <ele>288</ele>
        <time>2017-12-07T11:29:38Z</time>
      </trkpt>
      <trkpt lat="45.8973" lon="4.97397">
        <ele>288</ele>
        <time>2017-12-07T11:29:39Z</time>
      </trkpt>
      <trkpt lat="45.89732" lon="4.97388">
        <ele>287</ele>
        <time>2017-12-07T11:29:41Z</time>
      </trkpt>
      <trkpt lat="45.89734" lon="4.97384">
        <ele>287</ele>
        <time>2017-12-07T11:29:42Z</time>
      </trkpt>
      <trkpt lat="45.89737" lon="4.97375">
        <ele>287</ele>
        <time>2017-12-07T11:29:44Z</time>
      </trkpt>
      <trkpt lat="45.8974" lon="4.97371">
        <ele>287</ele>
        <time>2017-12-07T11:29:45Z</time>
      </trkpt>
      <trkpt lat="45.89744" lon="4.97362">
        <ele>287</ele>
        <time>2017-12-07T11:29:47Z</time>
      </trkpt>
      <trkpt lat="45.89747" lon="4.97357">
        <ele>287</ele>
        <time>2017-12-07T11:29:48Z</time>
      </trkpt>
      <trkpt lat="45.89751" lon="4.97349">
        <ele>287</ele>
        <time>2017-12-07T11:29:50Z</time>
      </trkpt>
      <trkpt lat="45.89754" lon="4.97344">
        <ele>287</ele>
        <time>2017-12-07T11:29:51Z</time>
      </trkpt>
      <trkpt lat="45.89758" lon="4.97334">
        <ele>287</ele>
        <time>2017-12-07T11:29:53Z</time>
      </trkpt>
      <trkpt lat="45.89761" lon="4.97328">
        <ele>287</ele>
        <time>2017-12-07T11:29:54Z</time>
      </trkpt>
      <trkpt lat="45.89763" lon="4.97324">
        <ele>287</ele>
        <time>2017-12-07T11:29:55Z</time>
      </trkpt>
      <trkpt lat="45.89766" lon="4.97318">
        <ele>286</ele>
        <time>2017-12-07T11:29:56Z</time>
      </trkpt>
      <trkpt lat="45.89769" lon="4.97312">
        <ele>286</ele>
        <time>2017-12-07T11:29:57Z</time>
      </trkpt>
      <trkpt lat="45.89772" lon="4.97307">
        <ele>286</ele>
        <time>2017-12-07T11:29:58Z</time>
      </trkpt>
      <trkpt lat="45.89775" lon="4.973">
        <ele>286</ele>
        <time>2017-12-07T11:29:59Z</time>
      </trkpt>
      <trkpt lat="45.89778" lon="4.97295">
        <ele>286</ele>
        <time>2017-12-07T11:30:00Z</time>
      </trkpt>
      <trkpt lat="45.8978" lon="4.97288">
        <ele>286</ele>
        <time>2017-12-07T11:30:01Z</time>
      </trkpt>
      <trkpt lat="45.89783" lon="4.97282">
        <ele>286</ele>
        <time>2017-12-07T11:30:02Z</time>
      </trkpt>
      <trkpt lat="45.89786" lon="4.97276">
        <ele>286</ele>
        <time>2017-12-07T11:30:03Z</time>
      </trkpt>
      <trkpt lat="45.89789" lon="4.9727">
        <ele>286</ele>
        <time>2017-12-07T11:30:04Z</time>
      </trkpt>
      <trkpt lat="45.89792" lon="4.97264">
        <ele>286</ele>
        <time>2017-12-07T11:30:05Z</time>
      </trkpt>
      <trkpt lat="45.89794" lon="4.97256">
        <ele>286</ele>
        <time>2017-12-07T11:30:06Z</time>
      </trkpt>
      <trkpt lat="45.89796" lon="4.97249">
        <ele>286</ele>
        <time>2017-12-07T11:30:07Z</time>
      </trkpt>
      <trkpt lat="45.89797" lon="4.97241">
        <ele>286</ele>
        <time>2017-12-07T11:30:08Z</time>
      </trkpt>
      <trkpt lat="45.89796" lon="4.97233">
        <ele>286</ele>
        <time>2017-12-07T11:30:09Z</time>
      </trkpt>
      <trkpt lat="45.89795" lon="4.97225">
        <ele>286</ele>
        <time>2017-12-07T11:30:10Z</time>
      </trkpt>
      <trkpt lat="45.89793" lon="4.97217">
        <ele>286</ele>
        <time>2017-12-07T11:30:11Z</time>
      </trkpt>
      <trkpt lat="45.89789" lon="4.9721">
        <ele>286</ele>
        <time>2017-12-07T11:30:12Z</time>
      </trkpt>
      <trkpt lat="45.89786" lon="4.97204">
        <ele>286</ele>
        <time>2017-12-07T11:30:13Z</time>
      </trkpt>
      <trkpt lat="45.89783" lon="4.97197">
        <ele>286</ele>
        <time>2017-12-07T11:30:14Z</time>
      </trkpt>
      <trkpt lat="45.8978" lon="4.97191">
        <ele>286</ele>
        <time>2017-12-07T11:30:15Z</time>
      </trkpt>
      <trkpt lat="45.89777" lon="4.97185">
        <ele>286</ele>
        <time>2017-12-07T11:30:16Z</time>
      </trkpt>
      <trkpt lat="45.89773" lon="4.9718">
        <ele>286</ele>
        <time>2017-12-07T11:30:17Z</time>
      </trkpt>
      <trkpt lat="45.8977" lon="4.97173">
        <ele>286</ele>
        <time>2017-12-07T11:30:18Z</time>
      </trkpt>
      <trkpt lat="45.89768" lon="4.97167">
        <ele>286</ele>
        <time>2017-12-07T11:30:19Z</time>
      </trkpt>
      <trkpt lat="45.89765" lon="4.97163">
        <ele>286</ele>
        <time>2017-12-07T11:30:20Z</time>
      </trkpt>
      <trkpt lat="45.8976" lon="4.97153">
        <ele>286</ele>
        <time>2017-12-07T11:30:22Z</time>
      </trkpt>
      <trkpt lat="45.89757" lon="4.97148">
        <ele>286</ele>
        <time>2017-12-07T11:30:23Z</time>
      </trkpt>
      <trkpt lat="45.89752" lon="4.97138">
        <ele>286</ele>
        <time>2017-12-07T11:30:25Z</time>
      </trkpt>
      <trkpt lat="45.8975" lon="4.97131">
        <ele>288</ele>
        <time>2017-12-07T11:30:26Z</time>
      </trkpt>
      <trkpt lat="45.89744" lon="4.97122">
        <ele>288</ele>
        <time>2017-12-07T11:30:28Z</time>
      </trkpt>
      <trkpt lat="45.89742" lon="4.97116">
        <ele>288</ele>
        <time>2017-12-07T11:30:29Z</time>
      </trkpt>
      <trkpt lat="45.89739" lon="4.9711">
        <ele>288</ele>
        <time>2017-12-07T11:30:30Z</time>
      </trkpt>
      <trkpt lat="45.89735" lon="4.97104">
        <ele>288</ele>
        <time>2017-12-07T11:30:31Z</time>
      </trkpt>
      <trkpt lat="45.89732" lon="4.97099">
        <ele>288</ele>
        <time>2017-12-07T11:30:32Z</time>
      </trkpt>
      <trkpt lat="45.89729" lon="4.97092">
        <ele>288</ele>
        <time>2017-12-07T11:30:33Z</time>
      </trkpt>
      <trkpt lat="45.89726" lon="4.97087">
        <ele>288</ele>
        <time>2017-12-07T11:30:34Z</time>
      </trkpt>
      <trkpt lat="45.89723" lon="4.9708">
        <ele>289</ele>
        <time>2017-12-07T11:30:35Z</time>
      </trkpt>
      <trkpt lat="45.89718" lon="4.97071">
        <ele>289</ele>
        <time>2017-12-07T11:30:37Z</time>
      </trkpt>
      <trkpt lat="45.89715" lon="4.97064">
        <ele>289</ele>
        <time>2017-12-07T11:30:38Z</time>
      </trkpt>
      <trkpt lat="45.89709" lon="4.97054">
        <ele>290</ele>
        <time>2017-12-07T11:30:40Z</time>
      </trkpt>
      <trkpt lat="45.89706" lon="4.97049">
        <ele>290</ele>
        <time>2017-12-07T11:30:41Z</time>
      </trkpt>
      <trkpt lat="45.89703" lon="4.97044">
        <ele>290</ele>
        <time>2017-12-07T11:30:42Z</time>
      </trkpt>
      <trkpt lat="45.897" lon="4.97039">
        <ele>290</ele>
        <time>2017-12-07T11:30:43Z</time>
      </trkpt>
      <trkpt lat="45.89695" lon="4.97031">
        <ele>291</ele>
        <time>2017-12-07T11:30:45Z</time>
      </trkpt>
      <trkpt lat="45.89691" lon="4.97026">
        <ele>291</ele>
        <time>2017-12-07T11:30:46Z</time>
      </trkpt>
      <trkpt lat="45.89688" lon="4.9702">
        <ele>291</ele>
        <time>2017-12-07T11:30:47Z</time>
      </trkpt>
      <trkpt lat="45.89685" lon="4.97015">
        <ele>292</ele>
        <time>2017-12-07T11:30:48Z</time>
      </trkpt>
      <trkpt lat="45.89682" lon="4.9701">
        <ele>292</ele>
        <time>2017-12-07T11:30:49Z</time>
      </trkpt>
      <trkpt lat="45.89678" lon="4.97004">
        <ele>293</ele>
        <time>2017-12-07T11:30:50Z</time>
      </trkpt>
      <trkpt lat="45.89675" lon="4.97">
        <ele>294</ele>
        <time>2017-12-07T11:30:51Z</time>
      </trkpt>
      <trkpt lat="45.89671" lon="4.96995">
        <ele>294</ele>
        <time>2017-12-07T11:30:52Z</time>
      </trkpt>
      <trkpt lat="45.89667" lon="4.96991">
        <ele>294</ele>
        <time>2017-12-07T11:30:53Z</time>
      </trkpt>
      <trkpt lat="45.89664" lon="4.96986">
        <ele>295</ele>
        <time>2017-12-07T11:30:54Z</time>
      </trkpt>
      <trkpt lat="45.8966" lon="4.96981">
        <ele>295</ele>
        <time>2017-12-07T11:30:55Z</time>
      </trkpt>
      <trkpt lat="45.89657" lon="4.96974">
        <ele>295</ele>
        <time>2017-12-07T11:30:56Z</time>
      </trkpt>
      <trkpt lat="45.89651" lon="4.96964">
        <ele>295</ele>
        <time>2017-12-07T11:30:58Z</time>
      </trkpt>
      <trkpt lat="45.89648" lon="4.9696">
        <ele>295</ele>
        <time>2017-12-07T11:30:59Z</time>
      </trkpt>
      <trkpt lat="45.89644" lon="4.96955">
        <ele>295</ele>
        <time>2017-12-07T11:31:01Z</time>
      </trkpt>
      <trkpt lat="45.89641" lon="4.96951">
        <ele>295</ele>
        <time>2017-12-07T11:31:02Z</time>
      </trkpt>
      <trkpt lat="45.89635" lon="4.96944">
        <ele>295</ele>
        <time>2017-12-07T11:31:05Z</time>
      </trkpt>
      <trkpt lat="45.89632" lon="4.96939">
        <ele>295</ele>
        <time>2017-12-07T11:31:06Z</time>
      </trkpt>
      <trkpt lat="45.89628" lon="4.9693">
        <ele>295</ele>
        <time>2017-12-07T11:31:10Z</time>
      </trkpt>
      <trkpt lat="45.89625" lon="4.96928">
        <ele>295</ele>
        <time>2017-12-07T11:31:11Z</time>
      </trkpt>
      <trkpt lat="45.89621" lon="4.96922">
        <ele>295</ele>
        <time>2017-12-07T11:31:13Z</time>
      </trkpt>
      <trkpt lat="45.89619" lon="4.96917">
        <ele>295</ele>
        <time>2017-12-07T11:31:14Z</time>
      </trkpt>
      <trkpt lat="45.89614" lon="4.96906">
        <ele>294</ele>
        <time>2017-12-07T11:31:16Z</time>
      </trkpt>
      <trkpt lat="45.89612" lon="4.96901">
        <ele>294</ele>
        <time>2017-12-07T11:31:17Z</time>
      </trkpt>
      <trkpt lat="45.89608" lon="4.96894">
        <ele>294</ele>
        <time>2017-12-07T11:31:19Z</time>
      </trkpt>
      <trkpt lat="45.89607" lon="4.9689">
        <ele>294</ele>
        <time>2017-12-07T11:31:20Z</time>
      </trkpt>
      <trkpt lat="45.89603" lon="4.96879">
        <ele>294</ele>
        <time>2017-12-07T11:31:22Z</time>
      </trkpt>
      <trkpt lat="45.89602" lon="4.96874">
        <ele>294</ele>
        <time>2017-12-07T11:31:23Z</time>
      </trkpt>
      <trkpt lat="45.896" lon="4.96865">
        <ele>294</ele>
        <time>2017-12-07T11:31:24Z</time>
      </trkpt>
      <trkpt lat="45.896" lon="4.96858">
        <ele>294</ele>
        <time>2017-12-07T11:31:25Z</time>
      </trkpt>
      <trkpt lat="45.89603" lon="4.96846">
        <ele>294</ele>
        <time>2017-12-07T11:31:27Z</time>
      </trkpt>
      <trkpt lat="45.89603" lon="4.96839">
        <ele>294</ele>
        <time>2017-12-07T11:31:28Z</time>
      </trkpt>
      <trkpt lat="45.89605" lon="4.9683">
        <ele>293</ele>
        <time>2017-12-07T11:31:30Z</time>
      </trkpt>
      <trkpt lat="45.89607" lon="4.96825">
        <ele>293</ele>
        <time>2017-12-07T11:31:31Z</time>
      </trkpt>
      <trkpt lat="45.8961" lon="4.96814">
        <ele>293</ele>
        <time>2017-12-07T11:31:33Z</time>
      </trkpt>
      <trkpt lat="45.89612" lon="4.96807">
        <ele>293</ele>
        <time>2017-12-07T11:31:34Z</time>
      </trkpt>
      <trkpt lat="45.89614" lon="4.96798">
        <ele>293</ele>
        <time>2017-12-07T11:31:36Z</time>
      </trkpt>
      <trkpt lat="45.89615" lon="4.96793">
        <ele>293</ele>
        <time>2017-12-07T11:31:37Z</time>
      </trkpt>
      <trkpt lat="45.89616" lon="4.96782">
        <ele>292</ele>
        <time>2017-12-07T11:31:39Z</time>
      </trkpt>
      <trkpt lat="45.89617" lon="4.96777">
        <ele>292</ele>
        <time>2017-12-07T11:31:40Z</time>
      </trkpt>
      <trkpt lat="45.89619" lon="4.96769">
        <ele>292</ele>
        <time>2017-12-07T11:31:42Z</time>
      </trkpt>
      <trkpt lat="45.89621" lon="4.96763">
        <ele>292</ele>
        <time>2017-12-07T11:31:43Z</time>
      </trkpt>
      <trkpt lat="45.89623" lon="4.96756">
        <ele>292</ele>
        <time>2017-12-07T11:31:44Z</time>
      </trkpt>
      <trkpt lat="45.89624" lon="4.9675">
        <ele>292</ele>
        <time>2017-12-07T11:31:45Z</time>
      </trkpt>
      <trkpt lat="45.89625" lon="4.96743">
        <ele>292</ele>
        <time>2017-12-07T11:31:46Z</time>
      </trkpt>
      <trkpt lat="45.89626" lon="4.96737">
        <ele>292</ele>
        <time>2017-12-07T11:31:47Z</time>
      </trkpt>
      <trkpt lat="45.8963" lon="4.96728">
        <ele>292</ele>
        <time>2017-12-07T11:31:48Z</time>
      </trkpt>
      <trkpt lat="45.89631" lon="4.96722">
        <ele>292</ele>
        <time>2017-12-07T11:31:49Z</time>
      </trkpt>
      <trkpt lat="45.89632" lon="4.96715">
        <ele>292</ele>
        <time>2017-12-07T11:31:50Z</time>
      </trkpt>
      <trkpt lat="45.89633" lon="4.96708">
        <ele>292</ele>
        <time>2017-12-07T11:31:51Z</time>
      </trkpt>
      <trkpt lat="45.89633" lon="4.967">
        <ele>292</ele>
        <time>2017-12-07T11:31:52Z</time>
      </trkpt>
      <trkpt lat="45.89634" lon="4.9669">
        <ele>292</ele>
        <time>2017-12-07T11:31:53Z</time>
      </trkpt>
      <trkpt lat="45.89634" lon="4.96681">
        <ele>292</ele>
        <time>2017-12-07T11:31:54Z</time>
      </trkpt>
      <trkpt lat="45.89634" lon="4.96673">
        <ele>292</ele>
        <time>2017-12-07T11:31:55Z</time>
      </trkpt>
      <trkpt lat="45.89633" lon="4.96666">
        <ele>291</ele>
        <time>2017-12-07T11:31:56Z</time>
      </trkpt>
      <trkpt lat="45.89634" lon="4.96657">
        <ele>291</ele>
        <time>2017-12-07T11:31:57Z</time>
      </trkpt>
      <trkpt lat="45.89634" lon="4.96648">
        <ele>290</ele>
        <time>2017-12-07T11:31:58Z</time>
      </trkpt>
      <trkpt lat="45.89632" lon="4.9664">
        <ele>290</ele>
        <time>2017-12-07T11:31:59Z</time>
      </trkpt>
      <trkpt lat="45.8963" lon="4.96632">
        <ele>290</ele>
        <time>2017-12-07T11:32:00Z</time>
      </trkpt>
      <trkpt lat="45.8963" lon="4.96625">
        <ele>290</ele>
        <time>2017-12-07T11:32:01Z</time>
      </trkpt>
      <trkpt lat="45.89629" lon="4.96617">
        <ele>290</ele>
        <time>2017-12-07T11:32:02Z</time>
      </trkpt>
      <trkpt lat="45.89627" lon="4.9661">
        <ele>290</ele>
        <time>2017-12-07T11:32:03Z</time>
      </trkpt>
      <trkpt lat="45.89626" lon="4.96603">
        <ele>290</ele>
        <time>2017-12-07T11:32:04Z</time>
      </trkpt>
      <trkpt lat="45.89624" lon="4.96596">
        <ele>290</ele>
        <time>2017-12-07T11:32:05Z</time>
      </trkpt>
      <trkpt lat="45.89623" lon="4.96589">
        <ele>290</ele>
        <time>2017-12-07T11:32:06Z</time>
      </trkpt>
      <trkpt lat="45.89621" lon="4.96578">
        <ele>287</ele>
        <time>2017-12-07T11:32:07Z</time>
      </trkpt>
      <trkpt lat="45.89619" lon="4.96571">
        <ele>287</ele>
        <time>2017-12-07T11:32:08Z</time>
      </trkpt>
      <trkpt lat="45.89616" lon="4.96564">
        <ele>287</ele>
        <time>2017-12-07T11:32:09Z</time>
      </trkpt>
      <trkpt lat="45.89614" lon="4.96556">
        <ele>287</ele>
        <time>2017-12-07T11:32:10Z</time>
      </trkpt>
      <trkpt lat="45.89611" lon="4.96549">
        <ele>287</ele>
        <time>2017-12-07T11:32:11Z</time>
      </trkpt>
      <trkpt lat="45.89609" lon="4.96542">
        <ele>287</ele>
        <time>2017-12-07T11:32:12Z</time>
      </trkpt>
      <trkpt lat="45.89607" lon="4.96535">
        <ele>286</ele>
        <time>2017-12-07T11:32:13Z</time>
      </trkpt>
      <trkpt lat="45.89604" lon="4.96527">
        <ele>286</ele>
        <time>2017-12-07T11:32:14Z</time>
      </trkpt>
      <trkpt lat="45.89602" lon="4.9652">
        <ele>286</ele>
        <time>2017-12-07T11:32:15Z</time>
      </trkpt>
      <trkpt lat="45.89599" lon="4.96513">
        <ele>286</ele>
        <time>2017-12-07T11:32:16Z</time>
      </trkpt>
      <trkpt lat="45.89597" lon="4.96506">
        <ele>286</ele>
        <time>2017-12-07T11:32:17Z</time>
      </trkpt>
      <trkpt lat="45.89595" lon="4.96499">
        <ele>285</ele>
        <time>2017-12-07T11:32:18Z</time>
      </trkpt>
      <trkpt lat="45.89592" lon="4.96492">
        <ele>285</ele>
        <time>2017-12-07T11:32:19Z</time>
      </trkpt>
      <trkpt lat="45.89591" lon="4.96485">
        <ele>285</ele>
        <time>2017-12-07T11:32:20Z</time>
      </trkpt>
      <trkpt lat="45.89589" lon="4.96479">
        <ele>284</ele>
        <time>2017-12-07T11:32:21Z</time>
      </trkpt>
      <trkpt lat="45.89586" lon="4.96469">
        <ele>284</ele>
        <time>2017-12-07T11:32:22Z</time>
      </trkpt>
      <trkpt lat="45.89584" lon="4.96462">
        <ele>284</ele>
        <time>2017-12-07T11:32:23Z</time>
      </trkpt>
      <trkpt lat="45.89582" lon="4.96456">
        <ele>284</ele>
        <time>2017-12-07T11:32:24Z</time>
      </trkpt>
      <trkpt lat="45.89579" lon="4.96449">
        <ele>284</ele>
        <time>2017-12-07T11:32:25Z</time>
      </trkpt>
      <trkpt lat="45.89577" lon="4.96442">
        <ele>284</ele>
        <time>2017-12-07T11:32:26Z</time>
      </trkpt>
      <trkpt lat="45.89576" lon="4.96434">
        <ele>284</ele>
        <time>2017-12-07T11:32:27Z</time>
      </trkpt>
      <trkpt lat="45.89575" lon="4.96427">
        <ele>284</ele>
        <time>2017-12-07T11:32:28Z</time>
      </trkpt>
      <trkpt lat="45.89573" lon="4.9642">
        <ele>284</ele>
        <time>2017-12-07T11:32:29Z</time>
      </trkpt>
      <trkpt lat="45.89571" lon="4.96414">
        <ele>284</ele>
        <time>2017-12-07T11:32:30Z</time>
      </trkpt>
      <trkpt lat="45.89569" lon="4.96406">
        <ele>283</ele>
        <time>2017-12-07T11:32:31Z</time>
      </trkpt>
      <trkpt lat="45.89566" lon="4.96394">
        <ele>283</ele>
        <time>2017-12-07T11:32:33Z</time>
      </trkpt>
      <trkpt lat="45.89563" lon="4.96388">
        <ele>283</ele>
        <time>2017-12-07T11:32:34Z</time>
      </trkpt>
      <trkpt lat="45.89562" lon="4.96382">
        <ele>283</ele>
        <time>2017-12-07T11:32:35Z</time>
      </trkpt>
      <trkpt lat="45.8956" lon="4.96375">
        <ele>283</ele>
        <time>2017-12-07T11:32:36Z</time>
      </trkpt>
      <trkpt lat="45.89557" lon="4.96369">
        <ele>283</ele>
        <time>2017-12-07T11:32:37Z</time>
      </trkpt>
      <trkpt lat="45.89555" lon="4.96362">
        <ele>283</ele>
        <time>2017-12-07T11:32:38Z</time>
      </trkpt>
      <trkpt lat="45.89553" lon="4.96354">
        <ele>283</ele>
        <time>2017-12-07T11:32:39Z</time>
      </trkpt>
      <trkpt lat="45.89551" lon="4.96346">
        <ele>283</ele>
        <time>2017-12-07T11:32:40Z</time>
      </trkpt>
      <trkpt lat="45.89548" lon="4.96339">
        <ele>283</ele>
        <time>2017-12-07T11:32:41Z</time>
      </trkpt>
      <trkpt lat="45.89545" lon="4.96331">
        <ele>282</ele>
        <time>2017-12-07T11:32:42Z</time>
      </trkpt>
      <trkpt lat="45.89542" lon="4.96324">
        <ele>282</ele>
        <time>2017-12-07T11:32:43Z</time>
      </trkpt>
      <trkpt lat="45.89539" lon="4.96317">
        <ele>282</ele>
        <time>2017-12-07T11:32:44Z</time>
      </trkpt>
      <trkpt lat="45.89536" lon="4.9631">
        <ele>282</ele>
        <time>2017-12-07T11:32:45Z</time>
      </trkpt>
      <trkpt lat="45.89534" lon="4.96302">
        <ele>282</ele>
        <time>2017-12-07T11:32:46Z</time>
      </trkpt>
      <trkpt lat="45.89531" lon="4.96295">
        <ele>282</ele>
        <time>2017-12-07T11:32:47Z</time>
      </trkpt>
      <trkpt lat="45.89528" lon="4.96288">
        <ele>282</ele>
        <time>2017-12-07T11:32:48Z</time>
      </trkpt>
      <trkpt lat="45.89525" lon="4.96281">
        <ele>282</ele>
        <time>2017-12-07T11:32:49Z</time>
      </trkpt>
      <trkpt lat="45.89522" lon="4.96275">
        <ele>282</ele>
        <time>2017-12-07T11:32:50Z</time>
      </trkpt>
      <trkpt lat="45.8952" lon="4.96269">
        <ele>282</ele>
        <time>2017-12-07T11:32:51Z</time>
      </trkpt>
      <trkpt lat="45.89517" lon="4.96263">
        <ele>282</ele>
        <time>2017-12-07T11:32:52Z</time>
      </trkpt>
      <trkpt lat="45.89515" lon="4.96258">
        <ele>281</ele>
        <time>2017-12-07T11:32:53Z</time>
      </trkpt>
      <trkpt lat="45.89514" lon="4.96251">
        <ele>281</ele>
        <time>2017-12-07T11:32:54Z</time>
      </trkpt>
      <trkpt lat="45.89511" lon="4.96245">
        <ele>281</ele>
        <time>2017-12-07T11:32:55Z</time>
      </trkpt>
      <trkpt lat="45.89509" lon="4.9624">
        <ele>281</ele>
        <time>2017-12-07T11:32:56Z</time>
      </trkpt>
      <trkpt lat="45.89508" lon="4.96233">
        <ele>281</ele>
        <time>2017-12-07T11:32:57Z</time>
      </trkpt>
      <trkpt lat="45.89505" lon="4.96226">
        <ele>281</ele>
        <time>2017-12-07T11:32:58Z</time>
      </trkpt>
      <trkpt lat="45.89502" lon="4.96219">
        <ele>281</ele>
        <time>2017-12-07T11:32:59Z</time>
      </trkpt>
      <trkpt lat="45.895" lon="4.96212">
        <ele>280</ele>
        <time>2017-12-07T11:33:00Z</time>
      </trkpt>
      <trkpt lat="45.89498" lon="4.96204">
        <ele>280</ele>
        <time>2017-12-07T11:33:01Z</time>
      </trkpt>
      <trkpt lat="45.89496" lon="4.96196">
        <ele>280</ele>
        <time>2017-12-07T11:33:02Z</time>
      </trkpt>
      <trkpt lat="45.89494" lon="4.96188">
        <ele>280</ele>
        <time>2017-12-07T11:33:03Z</time>
      </trkpt>
      <trkpt lat="45.89492" lon="4.96179">
        <ele>280</ele>
        <time>2017-12-07T11:33:04Z</time>
      </trkpt>
      <trkpt lat="45.89489" lon="4.96172">
        <ele>280</ele>
        <time>2017-12-07T11:33:05Z</time>
      </trkpt>
      <trkpt lat="45.89488" lon="4.96164">
        <ele>280</ele>
        <time>2017-12-07T11:33:06Z</time>
      </trkpt>
      <trkpt lat="45.89487" lon="4.96156">
        <ele>280</ele>
        <time>2017-12-07T11:33:07Z</time>
      </trkpt>
      <trkpt lat="45.89484" lon="4.96146">
        <ele>279</ele>
        <time>2017-12-07T11:33:08Z</time>
      </trkpt>
      <trkpt lat="45.89483" lon="4.96138">
        <ele>279</ele>
        <time>2017-12-07T11:33:09Z</time>
      </trkpt>
      <trkpt lat="45.89481" lon="4.96128">
        <ele>279</ele>
        <time>2017-12-07T11:33:10Z</time>
      </trkpt>
      <trkpt lat="45.89481" lon="4.9612">
        <ele>279</ele>
        <time>2017-12-07T11:33:11Z</time>
      </trkpt>
      <trkpt lat="45.89481" lon="4.96112">
        <ele>279</ele>
        <time>2017-12-07T11:33:12Z</time>
      </trkpt>
      <trkpt lat="45.89482" lon="4.96103">
        <ele>279</ele>
        <time>2017-12-07T11:33:13Z</time>
      </trkpt>
      <trkpt lat="45.89482" lon="4.96094">
        <ele>279</ele>
        <time>2017-12-07T11:33:14Z</time>
      </trkpt>
      <trkpt lat="45.89482" lon="4.96085">
        <ele>279</ele>
        <time>2017-12-07T11:33:15Z</time>
      </trkpt>
      <trkpt lat="45.89482" lon="4.96077">
        <ele>278</ele>
        <time>2017-12-07T11:33:16Z</time>
      </trkpt>
      <trkpt lat="45.89482" lon="4.96069">
        <ele>278</ele>
        <time>2017-12-07T11:33:17Z</time>
      </trkpt>
      <trkpt lat="45.89482" lon="4.96062">
        <ele>278</ele>
        <time>2017-12-07T11:33:18Z</time>
      </trkpt>
      <trkpt lat="45.89483" lon="4.96053">
        <ele>278</ele>
        <time>2017-12-07T11:33:19Z</time>
      </trkpt>
      <trkpt lat="45.89482" lon="4.96045">
        <ele>278</ele>
        <time>2017-12-07T11:33:20Z</time>
      </trkpt>
      <trkpt lat="45.89483" lon="4.96036">
        <ele>278</ele>
        <time>2017-12-07T11:33:21Z</time>
      </trkpt>
      <trkpt lat="45.89482" lon="4.96029">
        <ele>278</ele>
        <time>2017-12-07T11:33:22Z</time>
      </trkpt>
      <trkpt lat="45.89482" lon="4.96021">
        <ele>278</ele>
        <time>2017-12-07T11:33:23Z</time>
      </trkpt>
      <trkpt lat="45.89481" lon="4.96013">
        <ele>278</ele>
        <time>2017-12-07T11:33:24Z</time>
      </trkpt>
      <trkpt lat="45.8948" lon="4.96005">
        <ele>278</ele>
        <time>2017-12-07T11:33:25Z</time>
      </trkpt>
      <trkpt lat="45.89479" lon="4.95998">
        <ele>277</ele>
        <time>2017-12-07T11:33:26Z</time>
      </trkpt>
      <trkpt lat="45.89479" lon="4.95989">
        <ele>277</ele>
        <time>2017-12-07T11:33:27Z</time>
      </trkpt>
      <trkpt lat="45.89478" lon="4.95981">
        <ele>278</ele>
        <time>2017-12-07T11:33:28Z</time>
      </trkpt>
      <trkpt lat="45.89477" lon="4.95973">
        <ele>278</ele>
        <time>2017-12-07T11:33:29Z</time>
      </trkpt>
      <trkpt lat="45.89477" lon="4.95965">
        <ele>278</ele>
        <time>2017-12-07T11:33:30Z</time>
      </trkpt>
      <trkpt lat="45.89476" lon="4.95957">
        <ele>278</ele>
        <time>2017-12-07T11:33:31Z</time>
      </trkpt>
      <trkpt lat="45.89476" lon="4.95949">
        <ele>278</ele>
        <time>2017-12-07T11:33:32Z</time>
      </trkpt>
      <trkpt lat="45.89476" lon="4.9594">
        <ele>278</ele>
        <time>2017-12-07T11:33:33Z</time>
      </trkpt>
      <trkpt lat="45.89475" lon="4.95933">
        <ele>278</ele>
        <time>2017-12-07T11:33:34Z</time>
      </trkpt>
      <trkpt lat="45.89474" lon="4.95927">
        <ele>278</ele>
        <time>2017-12-07T11:33:35Z</time>
      </trkpt>
      <trkpt lat="45.89473" lon="4.95918">
        <ele>278</ele>
        <time>2017-12-07T11:33:36Z</time>
      </trkpt>
      <trkpt lat="45.89472" lon="4.95911">
        <ele>278</ele>
        <time>2017-12-07T11:33:37Z</time>
      </trkpt>
      <trkpt lat="45.89472" lon="4.95903">
        <ele>278</ele>
        <time>2017-12-07T11:33:38Z</time>
      </trkpt>
      <trkpt lat="45.8947" lon="4.95896">
        <ele>278</ele>
        <time>2017-12-07T11:33:39Z</time>
      </trkpt>
      <trkpt lat="45.89469" lon="4.95888">
        <ele>278</ele>
        <time>2017-12-07T11:33:40Z</time>
      </trkpt>
      <trkpt lat="45.89468" lon="4.95878">
        <ele>278</ele>
        <time>2017-12-07T11:33:41Z</time>
      </trkpt>
      <trkpt lat="45.89466" lon="4.95871">
        <ele>278</ele>
        <time>2017-12-07T11:33:42Z</time>
      </trkpt>
      <trkpt lat="45.89465" lon="4.95863">
        <ele>278</ele>
        <time>2017-12-07T11:33:43Z</time>
      </trkpt>
      <trkpt lat="45.89464" lon="4.95855">
        <ele>278</ele>
        <time>2017-12-07T11:33:44Z</time>
      </trkpt>
      <trkpt lat="45.89461" lon="4.95844">
        <ele>278</ele>
        <time>2017-12-07T11:33:46Z</time>
      </trkpt>
      <trkpt lat="45.8946" lon="4.95837">
        <ele>278</ele>
        <time>2017-12-07T11:33:47Z</time>
      </trkpt>
      <trkpt lat="45.8946" lon="4.95831">
        <ele>278</ele>
        <time>2017-12-07T11:33:48Z</time>
      </trkpt>
      <trkpt lat="45.89459" lon="4.95823">
        <ele>278</ele>
        <time>2017-12-07T11:33:49Z</time>
      </trkpt>
      <trkpt lat="45.89458" lon="4.95815">
        <ele>278</ele>
        <time>2017-12-07T11:33:50Z</time>
      </trkpt>
      <trkpt lat="45.89456" lon="4.95807">
        <ele>278</ele>
        <time>2017-12-07T11:33:51Z</time>
      </trkpt>
      <trkpt lat="45.89454" lon="4.958">
        <ele>278</ele>
        <time>2017-12-07T11:33:52Z</time>
      </trkpt>
      <trkpt lat="45.89452" lon="4.95792">
        <ele>278</ele>
        <time>2017-12-07T11:33:53Z</time>
      </trkpt>
      <trkpt lat="45.8945" lon="4.95784">
        <ele>278</ele>
        <time>2017-12-07T11:33:54Z</time>
      </trkpt>
      <trkpt lat="45.89448" lon="4.95776">
        <ele>278</ele>
        <time>2017-12-07T11:33:55Z</time>
      </trkpt>
      <trkpt lat="45.89445" lon="4.95769">
        <ele>279</ele>
        <time>2017-12-07T11:33:56Z</time>
      </trkpt>
      <trkpt lat="45.89444" lon="4.95763">
        <ele>279</ele>
        <time>2017-12-07T11:33:57Z</time>
      </trkpt>
      <trkpt lat="45.89442" lon="4.95755">
        <ele>279</ele>
        <time>2017-12-07T11:33:58Z</time>
      </trkpt>
      <trkpt lat="45.8944" lon="4.95748">
        <ele>279</ele>
        <time>2017-12-07T11:33:59Z</time>
      </trkpt>
      <trkpt lat="45.89439" lon="4.95741">
        <ele>279</ele>
        <time>2017-12-07T11:34:00Z</time>
      </trkpt>
      <trkpt lat="45.89438" lon="4.95733">
        <ele>278</ele>
        <time>2017-12-07T11:34:01Z</time>
      </trkpt>
      <trkpt lat="45.89436" lon="4.95725">
        <ele>278</ele>
        <time>2017-12-07T11:34:02Z</time>
      </trkpt>
      <trkpt lat="45.89434" lon="4.95717">
        <ele>278</ele>
        <time>2017-12-07T11:34:03Z</time>
      </trkpt>
      <trkpt lat="45.89432" lon="4.95709">
        <ele>278</ele>
        <time>2017-12-07T11:34:04Z</time>
      </trkpt>
      <trkpt lat="45.8943" lon="4.95701">
        <ele>278</ele>
        <time>2017-12-07T11:34:05Z</time>
      </trkpt>
      <trkpt lat="45.89429" lon="4.95693">
        <ele>278</ele>
        <time>2017-12-07T11:34:06Z</time>
      </trkpt>
      <trkpt lat="45.89427" lon="4.95685">
        <ele>278</ele>
        <time>2017-12-07T11:34:07Z</time>
      </trkpt>
      <trkpt lat="45.89426" lon="4.95677">
        <ele>278</ele>
        <time>2017-12-07T11:34:08Z</time>
      </trkpt>
      <trkpt lat="45.89425" lon="4.95669">
        <ele>279</ele>
        <time>2017-12-07T11:34:09Z</time>
      </trkpt>
      <trkpt lat="45.89423" lon="4.9566">
        <ele>278</ele>
        <time>2017-12-07T11:34:10Z</time>
      </trkpt>
      <trkpt lat="45.89422" lon="4.95652">
        <ele>278</ele>
        <time>2017-12-07T11:34:11Z</time>
      </trkpt>
      <trkpt lat="45.8942" lon="4.95643">
        <ele>278</ele>
        <time>2017-12-07T11:34:12Z</time>
      </trkpt>
      <trkpt lat="45.89417" lon="4.95635">
        <ele>278</ele>
        <time>2017-12-07T11:34:13Z</time>
      </trkpt>
      <trkpt lat="45.89416" lon="4.95627">
        <ele>278</ele>
        <time>2017-12-07T11:34:14Z</time>
      </trkpt>
      <trkpt lat="45.89413" lon="4.95619">
        <ele>278</ele>
        <time>2017-12-07T11:34:15Z</time>
      </trkpt>
      <trkpt lat="45.89412" lon="4.95611">
        <ele>278</ele>
        <time>2017-12-07T11:34:16Z</time>
      </trkpt>
      <trkpt lat="45.8941" lon="4.95605">
        <ele>278</ele>
        <time>2017-12-07T11:34:17Z</time>
      </trkpt>
      <trkpt lat="45.89408" lon="4.95597">
        <ele>278</ele>
        <time>2017-12-07T11:34:18Z</time>
      </trkpt>
      <trkpt lat="45.89406" lon="4.95592">
        <ele>278</ele>
        <time>2017-12-07T11:34:19Z</time>
      </trkpt>
      <trkpt lat="45.89402" lon="4.95581">
        <ele>277</ele>
        <time>2017-12-07T11:34:21Z</time>
      </trkpt>
      <trkpt lat="45.89401" lon="4.95575">
        <ele>277</ele>
        <time>2017-12-07T11:34:22Z</time>
      </trkpt>
      <trkpt lat="45.894" lon="4.95567">
        <ele>277</ele>
        <time>2017-12-07T11:34:23Z</time>
      </trkpt>
      <trkpt lat="45.89399" lon="4.9556">
        <ele>277</ele>
        <time>2017-12-07T11:34:24Z</time>
      </trkpt>
      <trkpt lat="45.89397" lon="4.95552">
        <ele>277</ele>
        <time>2017-12-07T11:34:25Z</time>
      </trkpt>
      <trkpt lat="45.89395" lon="4.95545">
        <ele>277</ele>
        <time>2017-12-07T11:34:26Z</time>
      </trkpt>
      <trkpt lat="45.89394" lon="4.95537">
        <ele>277</ele>
        <time>2017-12-07T11:34:27Z</time>
      </trkpt>
      <trkpt lat="45.89393" lon="4.95529">
        <ele>277</ele>
        <time>2017-12-07T11:34:28Z</time>
      </trkpt>
      <trkpt lat="45.8939" lon="4.95522">
        <ele>277</ele>
        <time>2017-12-07T11:34:29Z</time>
      </trkpt>
      <trkpt lat="45.89389" lon="4.95513">
        <ele>277</ele>
        <time>2017-12-07T11:34:30Z</time>
      </trkpt>
      <trkpt lat="45.89387" lon="4.95505">
        <ele>277</ele>
        <time>2017-12-07T11:34:31Z</time>
      </trkpt>
      <trkpt lat="45.89385" lon="4.95498">
        <ele>276</ele>
        <time>2017-12-07T11:34:32Z</time>
      </trkpt>
      <trkpt lat="45.89384" lon="4.9549">
        <ele>276</ele>
        <time>2017-12-07T11:34:33Z</time>
      </trkpt>
      <trkpt lat="45.89383" lon="4.95482">
        <ele>276</ele>
        <time>2017-12-07T11:34:34Z</time>
      </trkpt>
      <trkpt lat="45.89381" lon="4.95474">
        <ele>276</ele>
        <time>2017-12-07T11:34:35Z</time>
      </trkpt>
      <trkpt lat="45.89379" lon="4.95468">
        <ele>276</ele>
        <time>2017-12-07T11:34:36Z</time>
      </trkpt>
      <trkpt lat="45.89377" lon="4.95462">
        <ele>276</ele>
        <time>2017-12-07T11:34:37Z</time>
      </trkpt>
      <trkpt lat="45.89376" lon="4.95454">
        <ele>275</ele>
        <time>2017-12-07T11:34:38Z</time>
      </trkpt>
      <trkpt lat="45.89373" lon="4.95446">
        <ele>275</ele>
        <time>2017-12-07T11:34:39Z</time>
      </trkpt>
      <trkpt lat="45.89371" lon="4.95438">
        <ele>275</ele>
        <time>2017-12-07T11:34:40Z</time>
      </trkpt>
      <trkpt lat="45.8937" lon="4.95429">
        <ele>275</ele>
        <time>2017-12-07T11:34:41Z</time>
      </trkpt>
      <trkpt lat="45.89369" lon="4.9542">
        <ele>275</ele>
        <time>2017-12-07T11:34:42Z</time>
      </trkpt>
      <trkpt lat="45.89366" lon="4.95413">
        <ele>275</ele>
        <time>2017-12-07T11:34:43Z</time>
      </trkpt>
      <trkpt lat="45.89365" lon="4.95405">
        <ele>275</ele>
        <time>2017-12-07T11:34:44Z</time>
      </trkpt>
      <trkpt lat="45.89363" lon="4.95397">
        <ele>274</ele>
        <time>2017-12-07T11:34:45Z</time>
      </trkpt>
      <trkpt lat="45.89361" lon="4.95389">
        <ele>274</ele>
        <time>2017-12-07T11:34:46Z</time>
      </trkpt>
      <trkpt lat="45.8936" lon="4.95382">
        <ele>274</ele>
        <time>2017-12-07T11:34:47Z</time>
      </trkpt>
      <trkpt lat="45.89358" lon="4.95374">
        <ele>274</ele>
        <time>2017-12-07T11:34:48Z</time>
      </trkpt>
      <trkpt lat="45.89355" lon="4.95366">
        <ele>274</ele>
        <time>2017-12-07T11:34:49Z</time>
      </trkpt>
      <trkpt lat="45.89354" lon="4.95358">
        <ele>274</ele>
        <time>2017-12-07T11:34:50Z</time>
      </trkpt>
      <trkpt lat="45.89352" lon="4.95351">
        <ele>274</ele>
        <time>2017-12-07T11:34:51Z</time>
      </trkpt>
      <trkpt lat="45.89351" lon="4.95343">
        <ele>274</ele>
        <time>2017-12-07T11:34:52Z</time>
      </trkpt>
      <trkpt lat="45.89349" lon="4.95336">
        <ele>274</ele>
        <time>2017-12-07T11:34:53Z</time>
      </trkpt>
      <trkpt lat="45.89346" lon="4.9533">
        <ele>274</ele>
        <time>2017-12-07T11:34:54Z</time>
      </trkpt>
      <trkpt lat="45.89345" lon="4.95322">
        <ele>274</ele>
        <time>2017-12-07T11:34:55Z</time>
      </trkpt>
      <trkpt lat="45.89342" lon="4.95316">
        <ele>274</ele>
        <time>2017-12-07T11:34:56Z</time>
      </trkpt>
      <trkpt lat="45.8934" lon="4.9531">
        <ele>274</ele>
        <time>2017-12-07T11:34:57Z</time>
      </trkpt>
      <trkpt lat="45.89339" lon="4.95304">
        <ele>274</ele>
        <time>2017-12-07T11:34:58Z</time>
      </trkpt>
      <trkpt lat="45.89338" lon="4.95296">
        <ele>274</ele>
        <time>2017-12-07T11:34:59Z</time>
      </trkpt>
      <trkpt lat="45.89337" lon="4.95288">
        <ele>274</ele>
        <time>2017-12-07T11:35:00Z</time>
      </trkpt>
      <trkpt lat="45.89335" lon="4.95282">
        <ele>274</ele>
        <time>2017-12-07T11:35:01Z</time>
      </trkpt>
      <trkpt lat="45.89333" lon="4.95276">
        <ele>274</ele>
        <time>2017-12-07T11:35:02Z</time>
      </trkpt>
      <trkpt lat="45.89332" lon="4.95269">
        <ele>274</ele>
        <time>2017-12-07T11:35:03Z</time>
      </trkpt>
      <trkpt lat="45.89329" lon="4.95261">
        <ele>274</ele>
        <time>2017-12-07T11:35:04Z</time>
      </trkpt>
      <trkpt lat="45.89328" lon="4.95253">
        <ele>274</ele>
        <time>2017-12-07T11:35:05Z</time>
      </trkpt>
      <trkpt lat="45.89326" lon="4.95246">
        <ele>274</ele>
        <time>2017-12-07T11:35:06Z</time>
      </trkpt>
      <trkpt lat="45.89324" lon="4.95238">
        <ele>274</ele>
        <time>2017-12-07T11:35:07Z</time>
      </trkpt>
      <trkpt lat="45.89323" lon="4.95231">
        <ele>275</ele>
        <time>2017-12-07T11:35:08Z</time>
      </trkpt>
      <trkpt lat="45.89321" lon="4.95224">
        <ele>275</ele>
        <time>2017-12-07T11:35:09Z</time>
      </trkpt>
      <trkpt lat="45.8932" lon="4.95217">
        <ele>275</ele>
        <time>2017-12-07T11:35:10Z</time>
      </trkpt>
      <trkpt lat="45.89319" lon="4.95209">
        <ele>275</ele>
        <time>2017-12-07T11:35:11Z</time>
      </trkpt>
      <trkpt lat="45.89317" lon="4.95202">
        <ele>275</ele>
        <time>2017-12-07T11:35:12Z</time>
      </trkpt>
      <trkpt lat="45.89314" lon="4.95195">
        <ele>275</ele>
        <time>2017-12-07T11:35:13Z</time>
      </trkpt>
      <trkpt lat="45.89314" lon="4.95187">
        <ele>275</ele>
        <time>2017-12-07T11:35:14Z</time>
      </trkpt>
      <trkpt lat="45.89312" lon="4.9518">
        <ele>275</ele>
        <time>2017-12-07T11:35:15Z</time>
      </trkpt>
      <trkpt lat="45.89312" lon="4.95172">
        <ele>275</ele>
        <time>2017-12-07T11:35:16Z</time>
      </trkpt>
      <trkpt lat="45.89311" lon="4.95165">
        <ele>275</ele>
        <time>2017-12-07T11:35:17Z</time>
      </trkpt>
      <trkpt lat="45.8931" lon="4.95157">
        <ele>275</ele>
        <time>2017-12-07T11:35:18Z</time>
      </trkpt>
      <trkpt lat="45.89311" lon="4.95148">
        <ele>275</ele>
        <time>2017-12-07T11:35:19Z</time>
      </trkpt>
      <trkpt lat="45.89311" lon="4.9514">
        <ele>275</ele>
        <time>2017-12-07T11:35:20Z</time>
      </trkpt>
      <trkpt lat="45.89312" lon="4.95133">
        <ele>275</ele>
        <time>2017-12-07T11:35:21Z</time>
      </trkpt>
      <trkpt lat="45.89314" lon="4.95126">
        <ele>275</ele>
        <time>2017-12-07T11:35:22Z</time>
      </trkpt>
      <trkpt lat="45.89316" lon="4.95119">
        <ele>274</ele>
        <time>2017-12-07T11:35:23Z</time>
      </trkpt>
      <trkpt lat="45.89315" lon="4.95113">
        <ele>274</ele>
        <time>2017-12-07T11:35:24Z</time>
      </trkpt>
      <trkpt lat="45.89317" lon="4.95106">
        <ele>274</ele>
        <time>2017-12-07T11:35:25Z</time>
      </trkpt>
      <trkpt lat="45.89319" lon="4.95098">
        <ele>274</ele>
        <time>2017-12-07T11:35:26Z</time>
      </trkpt>
      <trkpt lat="45.8932" lon="4.9509">
        <ele>274</ele>
        <time>2017-12-07T11:35:27Z</time>
      </trkpt>
      <trkpt lat="45.89323" lon="4.95082">
        <ele>274</ele>
        <time>2017-12-07T11:35:28Z</time>
      </trkpt>
      <trkpt lat="45.89325" lon="4.95075">
        <ele>274</ele>
        <time>2017-12-07T11:35:29Z</time>
      </trkpt>
      <trkpt lat="45.89328" lon="4.95064">
        <ele>273</ele>
        <time>2017-12-07T11:35:30Z</time>
      </trkpt>
      <trkpt lat="45.8933" lon="4.95055">
        <ele>273</ele>
        <time>2017-12-07T11:35:31Z</time>
      </trkpt>
      <trkpt lat="45.89332" lon="4.95049">
        <ele>273</ele>
        <time>2017-12-07T11:35:32Z</time>
      </trkpt>
      <trkpt lat="45.89335" lon="4.95041">
        <ele>274</ele>
        <time>2017-12-07T11:35:33Z</time>
      </trkpt>
      <trkpt lat="45.89338" lon="4.95035">
        <ele>274</ele>
        <time>2017-12-07T11:35:34Z</time>
      </trkpt>
      <trkpt lat="45.8934" lon="4.95029">
        <ele>274</ele>
        <time>2017-12-07T11:35:35Z</time>
      </trkpt>
      <trkpt lat="45.89342" lon="4.95022">
        <ele>274</ele>
        <time>2017-12-07T11:35:36Z</time>
      </trkpt>
      <trkpt lat="45.89344" lon="4.95016">
        <ele>274</ele>
        <time>2017-12-07T11:35:37Z</time>
      </trkpt>
      <trkpt lat="45.89347" lon="4.95009">
        <ele>273</ele>
        <time>2017-12-07T11:35:38Z</time>
      </trkpt>
      <trkpt lat="45.89348" lon="4.95002">
        <ele>273</ele>
        <time>2017-12-07T11:35:39Z</time>
      </trkpt>
      <trkpt lat="45.8935" lon="4.94995">
        <ele>273</ele>
        <time>2017-12-07T11:35:40Z</time>
      </trkpt>
      <trkpt lat="45.89352" lon="4.94987">
        <ele>273</ele>
        <time>2017-12-07T11:35:41Z</time>
      </trkpt>
      <trkpt lat="45.89355" lon="4.94978">
        <ele>273</ele>
        <time>2017-12-07T11:35:42Z</time>
      </trkpt>
      <trkpt lat="45.89357" lon="4.9497">
        <ele>274</ele>
        <time>2017-12-07T11:35:43Z</time>
      </trkpt>
      <trkpt lat="45.8936" lon="4.94962">
        <ele>274</ele>
        <time>2017-12-07T11:35:44Z</time>
      </trkpt>
      <trkpt lat="45.89362" lon="4.94954">
        <ele>274</ele>
        <time>2017-12-07T11:35:45Z</time>
      </trkpt>
      <trkpt lat="45.89363" lon="4.94946">
        <ele>274</ele>
        <time>2017-12-07T11:35:46Z</time>
      </trkpt>
      <trkpt lat="45.89366" lon="4.94938">
        <ele>274</ele>
        <time>2017-12-07T11:35:47Z</time>
      </trkpt>
      <trkpt lat="45.89368" lon="4.94931">
        <ele>274</ele>
        <time>2017-12-07T11:35:48Z</time>
      </trkpt>
      <trkpt lat="45.8937" lon="4.94924">
        <ele>274</ele>
        <time>2017-12-07T11:35:49Z</time>
      </trkpt>
      <trkpt lat="45.89371" lon="4.94918">
        <ele>274</ele>
        <time>2017-12-07T11:35:50Z</time>
      </trkpt>
      <trkpt lat="45.89372" lon="4.94912">
        <ele>273</ele>
        <time>2017-12-07T11:35:51Z</time>
      </trkpt>
      <trkpt lat="45.89374" lon="4.94904">
        <ele>273</ele>
        <time>2017-12-07T11:35:52Z</time>
      </trkpt>
      <trkpt lat="45.89376" lon="4.94898">
        <ele>273</ele>
        <time>2017-12-07T11:35:53Z</time>
      </trkpt>
      <trkpt lat="45.89378" lon="4.94891">
        <ele>273</ele>
        <time>2017-12-07T11:35:54Z</time>
      </trkpt>
      <trkpt lat="45.8938" lon="4.94884">
        <ele>273</ele>
        <time>2017-12-07T11:35:55Z</time>
      </trkpt>
      <trkpt lat="45.89383" lon="4.94876">
        <ele>273</ele>
        <time>2017-12-07T11:35:56Z</time>
      </trkpt>
      <trkpt lat="45.89385" lon="4.94868">
        <ele>273</ele>
        <time>2017-12-07T11:35:57Z</time>
      </trkpt>
      <trkpt lat="45.89386" lon="4.94862">
        <ele>273</ele>
        <time>2017-12-07T11:35:58Z</time>
      </trkpt>
      <trkpt lat="45.89389" lon="4.9485">
        <ele>273</ele>
        <time>2017-12-07T11:36:00Z</time>
      </trkpt>
      <trkpt lat="45.89391" lon="4.94844">
        <ele>273</ele>
        <time>2017-12-07T11:36:01Z</time>
      </trkpt>
      <trkpt lat="45.89394" lon="4.94833">
        <ele>273</ele>
        <time>2017-12-07T11:36:03Z</time>
      </trkpt>
      <trkpt lat="45.89396" lon="4.94828">
        <ele>273</ele>
        <time>2017-12-07T11:36:04Z</time>
      </trkpt>
      <trkpt lat="45.89398" lon="4.94822">
        <ele>273</ele>
        <time>2017-12-07T11:36:05Z</time>
      </trkpt>
      <trkpt lat="45.894" lon="4.94816">
        <ele>273</ele>
        <time>2017-12-07T11:36:06Z</time>
      </trkpt>
      <trkpt lat="45.89402" lon="4.94809">
        <ele>273</ele>
        <time>2017-12-07T11:36:07Z</time>
      </trkpt>
      <trkpt lat="45.89404" lon="4.94803">
        <ele>273</ele>
        <time>2017-12-07T11:36:08Z</time>
      </trkpt>
      <trkpt lat="45.89407" lon="4.94795">
        <ele>273</ele>
        <time>2017-12-07T11:36:09Z</time>
      </trkpt>
      <trkpt lat="45.89409" lon="4.94787">
        <ele>272</ele>
        <time>2017-12-07T11:36:10Z</time>
      </trkpt>
      <trkpt lat="45.89411" lon="4.94779">
        <ele>272</ele>
        <time>2017-12-07T11:36:11Z</time>
      </trkpt>
      <trkpt lat="45.89414" lon="4.94772">
        <ele>273</ele>
        <time>2017-12-07T11:36:12Z</time>
      </trkpt>
      <trkpt lat="45.89416" lon="4.94764">
        <ele>273</ele>
        <time>2017-12-07T11:36:13Z</time>
      </trkpt>
      <trkpt lat="45.89418" lon="4.94758">
        <ele>274</ele>
        <time>2017-12-07T11:36:14Z</time>
      </trkpt>
      <trkpt lat="45.8942" lon="4.94749">
        <ele>273</ele>
        <time>2017-12-07T11:36:15Z</time>
      </trkpt>
      <trkpt lat="45.89422" lon="4.94742">
        <ele>274</ele>
        <time>2017-12-07T11:36:16Z</time>
      </trkpt>
      <trkpt lat="45.89424" lon="4.9473">
        <ele>274</ele>
        <time>2017-12-07T11:36:18Z</time>
      </trkpt>
      <trkpt lat="45.89426" lon="4.94724">
        <ele>274</ele>
        <time>2017-12-07T11:36:19Z</time>
      </trkpt>
      <trkpt lat="45.89427" lon="4.94717">
        <ele>274</ele>
        <time>2017-12-07T11:36:20Z</time>
      </trkpt>
      <trkpt lat="45.89429" lon="4.9471">
        <ele>274</ele>
        <time>2017-12-07T11:36:21Z</time>
      </trkpt>
      <trkpt lat="45.8943" lon="4.94704">
        <ele>274</ele>
        <time>2017-12-07T11:36:22Z</time>
      </trkpt>
      <trkpt lat="45.89432" lon="4.94697">
        <ele>274</ele>
        <time>2017-12-07T11:36:23Z</time>
      </trkpt>
      <trkpt lat="45.89434" lon="4.94691">
        <ele>274</ele>
        <time>2017-12-07T11:36:24Z</time>
      </trkpt>
      <trkpt lat="45.89436" lon="4.94684">
        <ele>274</ele>
        <time>2017-12-07T11:36:25Z</time>
      </trkpt>
      <trkpt lat="45.89439" lon="4.94677">
        <ele>274</ele>
        <time>2017-12-07T11:36:26Z</time>
      </trkpt>
      <trkpt lat="45.89441" lon="4.94671">
        <ele>274</ele>
        <time>2017-12-07T11:36:27Z</time>
      </trkpt>
      <trkpt lat="45.89443" lon="4.94663">
        <ele>273</ele>
        <time>2017-12-07T11:36:28Z</time>
      </trkpt>
      <trkpt lat="45.89447" lon="4.94654">
        <ele>273</ele>
        <time>2017-12-07T11:36:29Z</time>
      </trkpt>
      <trkpt lat="45.89448" lon="4.94647">
        <ele>274</ele>
        <time>2017-12-07T11:36:30Z</time>
      </trkpt>
      <trkpt lat="45.89451" lon="4.94641">
        <ele>274</ele>
        <time>2017-12-07T11:36:31Z</time>
      </trkpt>
      <trkpt lat="45.89453" lon="4.94634">
        <ele>274</ele>
        <time>2017-12-07T11:36:32Z</time>
      </trkpt>
      <trkpt lat="45.89454" lon="4.94626">
        <ele>274</ele>
        <time>2017-12-07T11:36:33Z</time>
      </trkpt>
      <trkpt lat="45.89456" lon="4.94619">
        <ele>274</ele>
        <time>2017-12-07T11:36:34Z</time>
      </trkpt>
      <trkpt lat="45.89458" lon="4.94613">
        <ele>274</ele>
        <time>2017-12-07T11:36:35Z</time>
      </trkpt>
      <trkpt lat="45.89459" lon="4.946">
        <ele>274</ele>
        <time>2017-12-07T11:36:37Z</time>
      </trkpt>
      <trkpt lat="45.89459" lon="4.94593">
        <ele>274</ele>
        <time>2017-12-07T11:36:38Z</time>
      </trkpt>
      <trkpt lat="45.89459" lon="4.94586">
        <ele>274</ele>
        <time>2017-12-07T11:36:39Z</time>
      </trkpt>
      <trkpt lat="45.8946" lon="4.94579">
        <ele>274</ele>
        <time>2017-12-07T11:36:40Z</time>
      </trkpt>
      <trkpt lat="45.8946" lon="4.9457">
        <ele>274</ele>
        <time>2017-12-07T11:36:41Z</time>
      </trkpt>
      <trkpt lat="45.89461" lon="4.94563">
        <ele>274</ele>
        <time>2017-12-07T11:36:42Z</time>
      </trkpt>
      <trkpt lat="45.89461" lon="4.94555">
        <ele>274</ele>
        <time>2017-12-07T11:36:43Z</time>
      </trkpt>
      <trkpt lat="45.89463" lon="4.94548">
        <ele>274</ele>
        <time>2017-12-07T11:36:44Z</time>
      </trkpt>
      <trkpt lat="45.89464" lon="4.9454">
        <ele>274</ele>
        <time>2017-12-07T11:36:45Z</time>
      </trkpt>
      <trkpt lat="45.89466" lon="4.9453">
        <ele>274</ele>
        <time>2017-12-07T11:36:46Z</time>
      </trkpt>
      <trkpt lat="45.89467" lon="4.94523">
        <ele>274</ele>
        <time>2017-12-07T11:36:47Z</time>
      </trkpt>
      <trkpt lat="45.89469" lon="4.94515">
        <ele>274</ele>
        <time>2017-12-07T11:36:48Z</time>
      </trkpt>
      <trkpt lat="45.8947" lon="4.94506">
        <ele>274</ele>
        <time>2017-12-07T11:36:49Z</time>
      </trkpt>
      <trkpt lat="45.8947" lon="4.94499">
        <ele>274</ele>
        <time>2017-12-07T11:36:50Z</time>
      </trkpt>
      <trkpt lat="45.89471" lon="4.94488">
        <ele>274</ele>
        <time>2017-12-07T11:36:52Z</time>
      </trkpt>
      <trkpt lat="45.89472" lon="4.94482">
        <ele>274</ele>
        <time>2017-12-07T11:36:53Z</time>
      </trkpt>
      <trkpt lat="45.89472" lon="4.94476">
        <ele>274</ele>
        <time>2017-12-07T11:36:54Z</time>
      </trkpt>
      <trkpt lat="45.89473" lon="4.94467">
        <ele>274</ele>
        <time>2017-12-07T11:36:55Z</time>
      </trkpt>
      <trkpt lat="45.89474" lon="4.94459">
        <ele>274</ele>
        <time>2017-12-07T11:36:56Z</time>
      </trkpt>
      <trkpt lat="45.89475" lon="4.94451">
        <ele>274</ele>
        <time>2017-12-07T11:36:57Z</time>
      </trkpt>
      <trkpt lat="45.89476" lon="4.94443">
        <ele>274</ele>
        <time>2017-12-07T11:36:58Z</time>
      </trkpt>
      <trkpt lat="45.89477" lon="4.94436">
        <ele>274</ele>
        <time>2017-12-07T11:36:59Z</time>
      </trkpt>
      <trkpt lat="45.89479" lon="4.94426">
        <ele>274</ele>
        <time>2017-12-07T11:37:00Z</time>
      </trkpt>
      <trkpt lat="45.8948" lon="4.94417">
        <ele>274</ele>
        <time>2017-12-07T11:37:01Z</time>
      </trkpt>
      <trkpt lat="45.8948" lon="4.94408">
        <ele>274</ele>
        <time>2017-12-07T11:37:02Z</time>
      </trkpt>
      <trkpt lat="45.89481" lon="4.94401">
        <ele>274</ele>
        <time>2017-12-07T11:37:03Z</time>
      </trkpt>
      <trkpt lat="45.89482" lon="4.94394">
        <ele>274</ele>
        <time>2017-12-07T11:37:04Z</time>
      </trkpt>
      <trkpt lat="45.89483" lon="4.94386">
        <ele>274</ele>
        <time>2017-12-07T11:37:05Z</time>
      </trkpt>
      <trkpt lat="45.89484" lon="4.9438">
        <ele>274</ele>
        <time>2017-12-07T11:37:06Z</time>
      </trkpt>
      <trkpt lat="45.89485" lon="4.94373">
        <ele>274</ele>
        <time>2017-12-07T11:37:07Z</time>
      </trkpt>
      <trkpt lat="45.89486" lon="4.94361">
        <ele>274</ele>
        <time>2017-12-07T11:37:09Z</time>
      </trkpt>
      <trkpt lat="45.89486" lon="4.94355">
        <ele>274</ele>
        <time>2017-12-07T11:37:10Z</time>
      </trkpt>
      <trkpt lat="45.89487" lon="4.94343">
        <ele>274</ele>
        <time>2017-12-07T11:37:12Z</time>
      </trkpt>
      <trkpt lat="45.89489" lon="4.94337">
        <ele>274</ele>
        <time>2017-12-07T11:37:13Z</time>
      </trkpt>
      <trkpt lat="45.8949" lon="4.9433">
        <ele>275</ele>
        <time>2017-12-07T11:37:14Z</time>
      </trkpt>
      <trkpt lat="45.89491" lon="4.94323">
        <ele>275</ele>
        <time>2017-12-07T11:37:15Z</time>
      </trkpt>
      <trkpt lat="45.89492" lon="4.94316">
        <ele>275</ele>
        <time>2017-12-07T11:37:16Z</time>
      </trkpt>
      <trkpt lat="45.89492" lon="4.94308">
        <ele>274</ele>
        <time>2017-12-07T11:37:17Z</time>
      </trkpt>
      <trkpt lat="45.89492" lon="4.94302">
        <ele>274</ele>
        <time>2017-12-07T11:37:18Z</time>
      </trkpt>
      <trkpt lat="45.89493" lon="4.94294">
        <ele>274</ele>
        <time>2017-12-07T11:37:19Z</time>
      </trkpt>
      <trkpt lat="45.89493" lon="4.94282">
        <ele>275</ele>
        <time>2017-12-07T11:37:21Z</time>
      </trkpt>
      <trkpt lat="45.89493" lon="4.94275">
        <ele>275</ele>
        <time>2017-12-07T11:37:22Z</time>
      </trkpt>
      <trkpt lat="45.89493" lon="4.94267">
        <ele>275</ele>
        <time>2017-12-07T11:37:23Z</time>
      </trkpt>
      <trkpt lat="45.89495" lon="4.94258">
        <ele>275</ele>
        <time>2017-12-07T11:37:24Z</time>
      </trkpt>
      <trkpt lat="45.89495" lon="4.9425">
        <ele>276</ele>
        <time>2017-12-07T11:37:25Z</time>
      </trkpt>
      <trkpt lat="45.89496" lon="4.94243">
        <ele>275</ele>
        <time>2017-12-07T11:37:26Z</time>
      </trkpt>
      <trkpt lat="45.89496" lon="4.94235">
        <ele>275</ele>
        <time>2017-12-07T11:37:27Z</time>
      </trkpt>
      <trkpt lat="45.89498" lon="4.94228">
        <ele>275</ele>
        <time>2017-12-07T11:37:28Z</time>
      </trkpt>
      <trkpt lat="45.89498" lon="4.94217">
        <ele>275</ele>
        <time>2017-12-07T11:37:30Z</time>
      </trkpt>
      <trkpt lat="45.89498" lon="4.94212">
        <ele>275</ele>
        <time>2017-12-07T11:37:31Z</time>
      </trkpt>
      <trkpt lat="45.89498" lon="4.94203">
        <ele>275</ele>
        <time>2017-12-07T11:37:33Z</time>
      </trkpt>
      <trkpt lat="45.89497" lon="4.94197">
        <ele>275</ele>
        <time>2017-12-07T11:37:34Z</time>
      </trkpt>
      <trkpt lat="45.89498" lon="4.94186">
        <ele>275</ele>
        <time>2017-12-07T11:37:36Z</time>
      </trkpt>
      <trkpt lat="45.895" lon="4.94178">
        <ele>275</ele>
        <time>2017-12-07T11:37:37Z</time>
      </trkpt>
      <trkpt lat="45.895" lon="4.94171">
        <ele>275</ele>
        <time>2017-12-07T11:37:38Z</time>
      </trkpt>
      <trkpt lat="45.89499" lon="4.94164">
        <ele>275</ele>
        <time>2017-12-07T11:37:39Z</time>
      </trkpt>
      <trkpt lat="45.89499" lon="4.94157">
        <ele>275</ele>
        <time>2017-12-07T11:37:40Z</time>
      </trkpt>
      <trkpt lat="45.89502" lon="4.94146">
        <ele>275</ele>
        <time>2017-12-07T11:37:41Z</time>
      </trkpt>
      <trkpt lat="45.89504" lon="4.94137">
        <ele>275</ele>
        <time>2017-12-07T11:37:42Z</time>
      </trkpt>
      <trkpt lat="45.89503" lon="4.9413">
        <ele>275</ele>
        <time>2017-12-07T11:37:43Z</time>
      </trkpt>
      <trkpt lat="45.89504" lon="4.9412">
        <ele>275</ele>
        <time>2017-12-07T11:37:44Z</time>
      </trkpt>
      <trkpt lat="45.89505" lon="4.94111">
        <ele>275</ele>
        <time>2017-12-07T11:37:45Z</time>
      </trkpt>
      <trkpt lat="45.89506" lon="4.94102">
        <ele>275</ele>
        <time>2017-12-07T11:37:46Z</time>
      </trkpt>
      <trkpt lat="45.89507" lon="4.94093">
        <ele>275</ele>
        <time>2017-12-07T11:37:47Z</time>
      </trkpt>
      <trkpt lat="45.89508" lon="4.94085">
        <ele>275</ele>
        <time>2017-12-07T11:37:48Z</time>
      </trkpt>
      <trkpt lat="45.89507" lon="4.94077">
        <ele>275</ele>
        <time>2017-12-07T11:37:49Z</time>
      </trkpt>
      <trkpt lat="45.89508" lon="4.9407">
        <ele>275</ele>
        <time>2017-12-07T11:37:50Z</time>
      </trkpt>
      <trkpt lat="45.89509" lon="4.94063">
        <ele>275</ele>
        <time>2017-12-07T11:37:51Z</time>
      </trkpt>
      <trkpt lat="45.89509" lon="4.94056">
        <ele>275</ele>
        <time>2017-12-07T11:37:52Z</time>
      </trkpt>
      <trkpt lat="45.8951" lon="4.94048">
        <ele>275</ele>
        <time>2017-12-07T11:37:53Z</time>
      </trkpt>
      <trkpt lat="45.89511" lon="4.94041">
        <ele>275</ele>
        <time>2017-12-07T11:37:54Z</time>
      </trkpt>
      <trkpt lat="45.89512" lon="4.94034">
        <ele>275</ele>
        <time>2017-12-07T11:37:55Z</time>
      </trkpt>
      <trkpt lat="45.89512" lon="4.94025">
        <ele>275</ele>
        <time>2017-12-07T11:37:56Z</time>
      </trkpt>
      <trkpt lat="45.89513" lon="4.94016">
        <ele>275</ele>
        <time>2017-12-07T11:37:57Z</time>
      </trkpt>
      <trkpt lat="45.89513" lon="4.94009">
        <ele>274</ele>
        <time>2017-12-07T11:37:58Z</time>
      </trkpt>
      <trkpt lat="45.89513" lon="4.94002">
        <ele>274</ele>
        <time>2017-12-07T11:37:59Z</time>
      </trkpt>
      <trkpt lat="45.89513" lon="4.93995">
        <ele>274</ele>
        <time>2017-12-07T11:38:00Z</time>
      </trkpt>
      <trkpt lat="45.89513" lon="4.93987">
        <ele>274</ele>
        <time>2017-12-07T11:38:01Z</time>
      </trkpt>
      <trkpt lat="45.89513" lon="4.9398">
        <ele>274</ele>
        <time>2017-12-07T11:38:02Z</time>
      </trkpt>
      <trkpt lat="45.89513" lon="4.93973">
        <ele>274</ele>
        <time>2017-12-07T11:38:03Z</time>
      </trkpt>
      <trkpt lat="45.89514" lon="4.93965">
        <ele>274</ele>
        <time>2017-12-07T11:38:04Z</time>
      </trkpt>
      <trkpt lat="45.89514" lon="4.93957">
        <ele>274</ele>
        <time>2017-12-07T11:38:05Z</time>
      </trkpt>
      <trkpt lat="45.89515" lon="4.93945">
        <ele>274</ele>
        <time>2017-12-07T11:38:07Z</time>
      </trkpt>
      <trkpt lat="45.89516" lon="4.93938">
        <ele>274</ele>
        <time>2017-12-07T11:38:08Z</time>
      </trkpt>
      <trkpt lat="45.89515" lon="4.93931">
        <ele>274</ele>
        <time>2017-12-07T11:38:09Z</time>
      </trkpt>
      <trkpt lat="45.89515" lon="4.93925">
        <ele>273</ele>
        <time>2017-12-07T11:38:10Z</time>
      </trkpt>
      <trkpt lat="45.89515" lon="4.93918">
        <ele>273</ele>
        <time>2017-12-07T11:38:11Z</time>
      </trkpt>
      <trkpt lat="45.89514" lon="4.93912">
        <ele>273</ele>
        <time>2017-12-07T11:38:12Z</time>
      </trkpt>
      <trkpt lat="45.89514" lon="4.93904">
        <ele>273</ele>
        <time>2017-12-07T11:38:13Z</time>
      </trkpt>
      <trkpt lat="45.89514" lon="4.93897">
        <ele>273</ele>
        <time>2017-12-07T11:38:14Z</time>
      </trkpt>
      <trkpt lat="45.89515" lon="4.93888">
        <ele>273</ele>
        <time>2017-12-07T11:38:15Z</time>
      </trkpt>
      <trkpt lat="45.89516" lon="4.93881">
        <ele>274</ele>
        <time>2017-12-07T11:38:16Z</time>
      </trkpt>
      <trkpt lat="45.89519" lon="4.93872">
        <ele>274</ele>
        <time>2017-12-07T11:38:17Z</time>
      </trkpt>
      <trkpt lat="45.8952" lon="4.93865">
        <ele>274</ele>
        <time>2017-12-07T11:38:18Z</time>
      </trkpt>
      <trkpt lat="45.8952" lon="4.93857">
        <ele>274</ele>
        <time>2017-12-07T11:38:19Z</time>
      </trkpt>
      <trkpt lat="45.89521" lon="4.93849">
        <ele>274</ele>
        <time>2017-12-07T11:38:20Z</time>
      </trkpt>
      <trkpt lat="45.89522" lon="4.93842">
        <ele>274</ele>
        <time>2017-12-07T11:38:21Z</time>
      </trkpt>
      <trkpt lat="45.89523" lon="4.93835">
        <ele>274</ele>
        <time>2017-12-07T11:38:22Z</time>
      </trkpt>
      <trkpt lat="45.89524" lon="4.93828">
        <ele>274</ele>
        <time>2017-12-07T11:38:23Z</time>
      </trkpt>
      <trkpt lat="45.89525" lon="4.93821">
        <ele>274</ele>
        <time>2017-12-07T11:38:24Z</time>
      </trkpt>
      <trkpt lat="45.89526" lon="4.93814">
        <ele>274</ele>
        <time>2017-12-07T11:38:25Z</time>
      </trkpt>
      <trkpt lat="45.89527" lon="4.93806">
        <ele>274</ele>
        <time>2017-12-07T11:38:26Z</time>
      </trkpt>
      <trkpt lat="45.89528" lon="4.93798">
        <ele>274</ele>
        <time>2017-12-07T11:38:27Z</time>
      </trkpt>
      <trkpt lat="45.89529" lon="4.93791">
        <ele>274</ele>
        <time>2017-12-07T11:38:28Z</time>
      </trkpt>
      <trkpt lat="45.89529" lon="4.93783">
        <ele>274</ele>
        <time>2017-12-07T11:38:29Z</time>
      </trkpt>
      <trkpt lat="45.8953" lon="4.93776">
        <ele>274</ele>
        <time>2017-12-07T11:38:30Z</time>
      </trkpt>
      <trkpt lat="45.8953" lon="4.93767">
        <ele>274</ele>
        <time>2017-12-07T11:38:31Z</time>
      </trkpt>
      <trkpt lat="45.8953" lon="4.93759">
        <ele>274</ele>
        <time>2017-12-07T11:38:32Z</time>
      </trkpt>
      <trkpt lat="45.89531" lon="4.9375">
        <ele>275</ele>
        <time>2017-12-07T11:38:33Z</time>
      </trkpt>
      <trkpt lat="45.8953" lon="4.93742">
        <ele>275</ele>
        <time>2017-12-07T11:38:34Z</time>
      </trkpt>
      <trkpt lat="45.8953" lon="4.93733">
        <ele>275</ele>
        <time>2017-12-07T11:38:35Z</time>
      </trkpt>
      <trkpt lat="45.8953" lon="4.93727">
        <ele>275</ele>
        <time>2017-12-07T11:38:36Z</time>
      </trkpt>
      <trkpt lat="45.89531" lon="4.93718">
        <ele>275</ele>
        <time>2017-12-07T11:38:37Z</time>
      </trkpt>
      <trkpt lat="45.89531" lon="4.93711">
        <ele>275</ele>
        <time>2017-12-07T11:38:38Z</time>
      </trkpt>
      <trkpt lat="45.89531" lon="4.93698">
        <ele>275</ele>
        <time>2017-12-07T11:38:40Z</time>
      </trkpt>
      <trkpt lat="45.89532" lon="4.93692">
        <ele>275</ele>
        <time>2017-12-07T11:38:41Z</time>
      </trkpt>
      <trkpt lat="45.89532" lon="4.93684">
        <ele>275</ele>
        <time>2017-12-07T11:38:42Z</time>
      </trkpt>
      <trkpt lat="45.89533" lon="4.93677">
        <ele>275</ele>
        <time>2017-12-07T11:38:43Z</time>
      </trkpt>
      <trkpt lat="45.89534" lon="4.9367">
        <ele>275</ele>
        <time>2017-12-07T11:38:44Z</time>
      </trkpt>
      <trkpt lat="45.89535" lon="4.93664">
        <ele>276</ele>
        <time>2017-12-07T11:38:45Z</time>
      </trkpt>
      <trkpt lat="45.89536" lon="4.93656">
        <ele>276</ele>
        <time>2017-12-07T11:38:46Z</time>
      </trkpt>
      <trkpt lat="45.89537" lon="4.93647">
        <ele>277</ele>
        <time>2017-12-07T11:38:47Z</time>
      </trkpt>
      <trkpt lat="45.89538" lon="4.9364">
        <ele>277</ele>
        <time>2017-12-07T11:38:48Z</time>
      </trkpt>
      <trkpt lat="45.89538" lon="4.93633">
        <ele>277</ele>
        <time>2017-12-07T11:38:49Z</time>
      </trkpt>
      <trkpt lat="45.89539" lon="4.93627">
        <ele>277</ele>
        <time>2017-12-07T11:38:50Z</time>
      </trkpt>
      <trkpt lat="45.8954" lon="4.93619">
        <ele>277</ele>
        <time>2017-12-07T11:38:51Z</time>
      </trkpt>
      <trkpt lat="45.89539" lon="4.93611">
        <ele>277</ele>
        <time>2017-12-07T11:38:52Z</time>
      </trkpt>
      <trkpt lat="45.8954" lon="4.93604">
        <ele>277</ele>
        <time>2017-12-07T11:38:53Z</time>
      </trkpt>
      <trkpt lat="45.8954" lon="4.93596">
        <ele>277</ele>
        <time>2017-12-07T11:38:54Z</time>
      </trkpt>
      <trkpt lat="45.89541" lon="4.93589">
        <ele>278</ele>
        <time>2017-12-07T11:38:55Z</time>
      </trkpt>
      <trkpt lat="45.89541" lon="4.93581">
        <ele>279</ele>
        <time>2017-12-07T11:38:56Z</time>
      </trkpt>
      <trkpt lat="45.89542" lon="4.93573">
        <ele>279</ele>
        <time>2017-12-07T11:38:57Z</time>
      </trkpt>
      <trkpt lat="45.89543" lon="4.93565">
        <ele>279</ele>
        <time>2017-12-07T11:38:58Z</time>
      </trkpt>
      <trkpt lat="45.89543" lon="4.93557">
        <ele>279</ele>
        <time>2017-12-07T11:38:59Z</time>
      </trkpt>
      <trkpt lat="45.89545" lon="4.9355">
        <ele>279</ele>
        <time>2017-12-07T11:39:00Z</time>
      </trkpt>
      <trkpt lat="45.89545" lon="4.93542">
        <ele>279</ele>
        <time>2017-12-07T11:39:01Z</time>
      </trkpt>
      <trkpt lat="45.89546" lon="4.93533">
        <ele>279</ele>
        <time>2017-12-07T11:39:02Z</time>
      </trkpt>
      <trkpt lat="45.89546" lon="4.93526">
        <ele>279</ele>
        <time>2017-12-07T11:39:03Z</time>
      </trkpt>
      <trkpt lat="45.89546" lon="4.93514">
        <ele>279</ele>
        <time>2017-12-07T11:39:05Z</time>
      </trkpt>
      <trkpt lat="45.89546" lon="4.93507">
        <ele>279</ele>
        <time>2017-12-07T11:39:06Z</time>
      </trkpt>
      <trkpt lat="45.89547" lon="4.93499">
        <ele>280</ele>
        <time>2017-12-07T11:39:07Z</time>
      </trkpt>
      <trkpt lat="45.89546" lon="4.93493">
        <ele>280</ele>
        <time>2017-12-07T11:39:08Z</time>
      </trkpt>
      <trkpt lat="45.89546" lon="4.93486">
        <ele>280</ele>
        <time>2017-12-07T11:39:09Z</time>
      </trkpt>
      <trkpt lat="45.89548" lon="4.93478">
        <ele>280</ele>
        <time>2017-12-07T11:39:10Z</time>
      </trkpt>
      <trkpt lat="45.89547" lon="4.93468">
        <ele>280</ele>
        <time>2017-12-07T11:39:12Z</time>
      </trkpt>
      <trkpt lat="45.89548" lon="4.93462">
        <ele>280</ele>
        <time>2017-12-07T11:39:13Z</time>
      </trkpt>
      <trkpt lat="45.89548" lon="4.93453">
        <ele>280</ele>
        <time>2017-12-07T11:39:15Z</time>
      </trkpt>
      <trkpt lat="45.89547" lon="4.93448">
        <ele>280</ele>
        <time>2017-12-07T11:39:16Z</time>
      </trkpt>
      <trkpt lat="45.89547" lon="4.9344">
        <ele>280</ele>
        <time>2017-12-07T11:39:18Z</time>
      </trkpt>
      <trkpt lat="45.89547" lon="4.93434">
        <ele>280</ele>
        <time>2017-12-07T11:39:19Z</time>
      </trkpt>
      <trkpt lat="45.89546" lon="4.93423">
        <ele>280</ele>
        <time>2017-12-07T11:39:21Z</time>
      </trkpt>
      <trkpt lat="45.89545" lon="4.93418">
        <ele>280</ele>
        <time>2017-12-07T11:39:22Z</time>
      </trkpt>
      <trkpt lat="45.89543" lon="4.93408">
        <ele>282</ele>
        <time>2017-12-07T11:39:24Z</time>
      </trkpt>
      <trkpt lat="45.89542" lon="4.93403">
        <ele>282</ele>
        <time>2017-12-07T11:39:25Z</time>
      </trkpt>
      <trkpt lat="45.8954" lon="4.93392">
        <ele>282</ele>
        <time>2017-12-07T11:39:27Z</time>
      </trkpt>
      <trkpt lat="45.8954" lon="4.93387">
        <ele>282</ele>
        <time>2017-12-07T11:39:28Z</time>
      </trkpt>
      <trkpt lat="45.89537" lon="4.93377">
        <ele>282</ele>
        <time>2017-12-07T11:39:30Z</time>
      </trkpt>
      <trkpt lat="45.89535" lon="4.93372">
        <ele>282</ele>
        <time>2017-12-07T11:39:31Z</time>
      </trkpt>
      <trkpt lat="45.89531" lon="4.93362">
        <ele>282</ele>
        <time>2017-12-07T11:39:33Z</time>
      </trkpt>
      <trkpt lat="45.89529" lon="4.93357">
        <ele>282</ele>
        <time>2017-12-07T11:39:34Z</time>
      </trkpt>
      <trkpt lat="45.89527" lon="4.93347">
        <ele>283</ele>
        <time>2017-12-07T11:39:36Z</time>
      </trkpt>
      <trkpt lat="45.89527" lon="4.93341">
        <ele>283</ele>
        <time>2017-12-07T11:39:37Z</time>
      </trkpt>
      <trkpt lat="45.89524" lon="4.9333">
        <ele>285</ele>
        <time>2017-12-07T11:39:39Z</time>
      </trkpt>
      <trkpt lat="45.89524" lon="4.93326">
        <ele>285</ele>
        <time>2017-12-07T11:39:40Z</time>
      </trkpt>
      <trkpt lat="45.89523" lon="4.93316">
        <ele>285</ele>
        <time>2017-12-07T11:39:42Z</time>
      </trkpt>
      <trkpt lat="45.89523" lon="4.93311">
        <ele>285</ele>
        <time>2017-12-07T11:39:43Z</time>
      </trkpt>
      <trkpt lat="45.89524" lon="4.933">
        <ele>286</ele>
        <time>2017-12-07T11:39:45Z</time>
      </trkpt>
      <trkpt lat="45.89525" lon="4.93295">
        <ele>286</ele>
        <time>2017-12-07T11:39:46Z</time>
      </trkpt>
      <trkpt lat="45.89526" lon="4.93284">
        <ele>286</ele>
        <time>2017-12-07T11:39:48Z</time>
      </trkpt>
      <trkpt lat="45.89527" lon="4.93278">
        <ele>286</ele>
        <time>2017-12-07T11:39:49Z</time>
      </trkpt>
      <trkpt lat="45.89528" lon="4.93268">
        <ele>287</ele>
        <time>2017-12-07T11:39:51Z</time>
      </trkpt>
      <trkpt lat="45.89529" lon="4.93262">
        <ele>287</ele>
        <time>2017-12-07T11:39:52Z</time>
      </trkpt>
      <trkpt lat="45.89529" lon="4.93255">
        <ele>287</ele>
        <time>2017-12-07T11:39:53Z</time>
      </trkpt>
      <trkpt lat="45.8953" lon="4.93249">
        <ele>288</ele>
        <time>2017-12-07T11:39:54Z</time>
      </trkpt>
      <trkpt lat="45.89529" lon="4.93242">
        <ele>288</ele>
        <time>2017-12-07T11:39:55Z</time>
      </trkpt>
      <trkpt lat="45.89528" lon="4.93234">
        <ele>287</ele>
        <time>2017-12-07T11:39:56Z</time>
      </trkpt>
      <trkpt lat="45.89528" lon="4.93227">
        <ele>287</ele>
        <time>2017-12-07T11:39:57Z</time>
      </trkpt>
      <trkpt lat="45.89527" lon="4.93218">
        <ele>287</ele>
        <time>2017-12-07T11:39:58Z</time>
      </trkpt>
      <trkpt lat="45.89526" lon="4.93209">
        <ele>287</ele>
        <time>2017-12-07T11:39:59Z</time>
      </trkpt>
      <trkpt lat="45.89523" lon="4.93201">
        <ele>287</ele>
        <time>2017-12-07T11:40:00Z</time>
      </trkpt>
      <trkpt lat="45.89521" lon="4.93193">
        <ele>287</ele>
        <time>2017-12-07T11:40:01Z</time>
      </trkpt>
      <trkpt lat="45.89518" lon="4.93185">
        <ele>287</ele>
        <time>2017-12-07T11:40:02Z</time>
      </trkpt>
      <trkpt lat="45.89514" lon="4.93177">
        <ele>286</ele>
        <time>2017-12-07T11:40:03Z</time>
      </trkpt>
      <trkpt lat="45.89512" lon="4.93168">
        <ele>286</ele>
        <time>2017-12-07T11:40:04Z</time>
      </trkpt>
      <trkpt lat="45.8951" lon="4.93162">
        <ele>285</ele>
        <time>2017-12-07T11:40:05Z</time>
      </trkpt>
      <trkpt lat="45.89507" lon="4.93155">
        <ele>285</ele>
        <time>2017-12-07T11:40:06Z</time>
      </trkpt>
      <trkpt lat="45.89505" lon="4.93148">
        <ele>285</ele>
        <time>2017-12-07T11:40:07Z</time>
      </trkpt>
      <trkpt lat="45.89503" lon="4.93143">
        <ele>285</ele>
        <time>2017-12-07T11:40:08Z</time>
      </trkpt>
      <trkpt lat="45.895" lon="4.93133">
        <ele>283</ele>
        <time>2017-12-07T11:40:11Z</time>
      </trkpt>
      <trkpt lat="45.895" lon="4.9313">
        <ele>283</ele>
        <time>2017-12-07T11:40:12Z</time>
      </trkpt>
      <trkpt lat="45.89503" lon="4.93123">
        <ele>284</ele>
        <time>2017-12-07T11:40:14Z</time>
      </trkpt>
      <trkpt lat="45.89506" lon="4.9312">
        <ele>284</ele>
        <time>2017-12-07T11:40:15Z</time>
      </trkpt>
      <trkpt lat="45.89501" lon="4.93113">
        <ele>284</ele>
        <time>2017-12-07T11:40:17Z</time>
      </trkpt>
      <trkpt lat="45.89498" lon="4.93111">
        <ele>283</ele>
        <time>2017-12-07T11:40:18Z</time>
      </trkpt>
      <trkpt lat="45.89491" lon="4.93107">
        <ele>283</ele>
        <time>2017-12-07T11:40:20Z</time>
      </trkpt>
      <trkpt lat="45.89488" lon="4.93105">
        <ele>283</ele>
        <time>2017-12-07T11:40:21Z</time>
      </trkpt>
      <trkpt lat="45.89479" lon="4.93101">
        <ele>283</ele>
        <time>2017-12-07T11:40:23Z</time>
      </trkpt>
      <trkpt lat="45.89475" lon="4.93099">
        <ele>283</ele>
        <time>2017-12-07T11:40:24Z</time>
      </trkpt>
      <trkpt lat="45.89469" lon="4.93091">
        <ele>283</ele>
        <time>2017-12-07T11:40:26Z</time>
      </trkpt>
      <trkpt lat="45.89467" lon="4.93086">
        <ele>283</ele>
        <time>2017-12-07T11:40:27Z</time>
      </trkpt>
      <trkpt lat="45.89465" lon="4.9308">
        <ele>283</ele>
        <time>2017-12-07T11:40:28Z</time>
      </trkpt>
      <trkpt lat="45.89463" lon="4.93074">
        <ele>283</ele>
        <time>2017-12-07T11:40:29Z</time>
      </trkpt>
      <trkpt lat="45.89459" lon="4.93064">
        <ele>283</ele>
        <time>2017-12-07T11:40:31Z</time>
      </trkpt>
      <trkpt lat="45.89458" lon="4.9306">
        <ele>283</ele>
        <time>2017-12-07T11:40:32Z</time>
      </trkpt>
      <trkpt lat="45.89457" lon="4.93052">
        <ele>283</ele>
        <time>2017-12-07T11:40:34Z</time>
      </trkpt>
      <trkpt lat="45.89455" lon="4.93047">
        <ele>283</ele>
        <time>2017-12-07T11:40:35Z</time>
      </trkpt>
      <trkpt lat="45.89452" lon="4.93036">
        <ele>284</ele>
        <time>2017-12-07T11:40:38Z</time>
      </trkpt>
      <trkpt lat="45.89451" lon="4.93033">
        <ele>284</ele>
        <time>2017-12-07T11:40:39Z</time>
      </trkpt>
      <trkpt lat="45.89449" lon="4.93024">
        <ele>284</ele>
        <time>2017-12-07T11:40:41Z</time>
      </trkpt>
      <trkpt lat="45.89448" lon="4.9302">
        <ele>284</ele>
        <time>2017-12-07T11:40:42Z</time>
      </trkpt>
      <trkpt lat="45.89445" lon="4.9301">
        <ele>284</ele>
        <time>2017-12-07T11:40:44Z</time>
      </trkpt>
      <trkpt lat="45.89443" lon="4.93005">
        <ele>284</ele>
        <time>2017-12-07T11:40:45Z</time>
      </trkpt>
      <trkpt lat="45.8944" lon="4.92995">
        <ele>286</ele>
        <time>2017-12-07T11:40:47Z</time>
      </trkpt>
      <trkpt lat="45.89439" lon="4.92991">
        <ele>286</ele>
        <time>2017-12-07T11:40:48Z</time>
      </trkpt>
      <trkpt lat="45.89435" lon="4.92982">
        <ele>286</ele>
        <time>2017-12-07T11:40:50Z</time>
      </trkpt>
      <trkpt lat="45.89433" lon="4.92977">
        <ele>286</ele>
        <time>2017-12-07T11:40:51Z</time>
      </trkpt>
      <trkpt lat="45.89429" lon="4.92968">
        <ele>286</ele>
        <time>2017-12-07T11:40:53Z</time>
      </trkpt>
      <trkpt lat="45.89427" lon="4.92963">
        <ele>286</ele>
        <time>2017-12-07T11:40:54Z</time>
      </trkpt>
      <trkpt lat="45.89423" lon="4.92955">
        <ele>287</ele>
        <time>2017-12-07T11:40:56Z</time>
      </trkpt>
      <trkpt lat="45.89421" lon="4.9295">
        <ele>287</ele>
        <time>2017-12-07T11:40:57Z</time>
      </trkpt>
      <trkpt lat="45.89418" lon="4.92943">
        <ele>287</ele>
        <time>2017-12-07T11:40:59Z</time>
      </trkpt>
      <trkpt lat="45.89416" lon="4.92939">
        <ele>287</ele>
        <time>2017-12-07T11:41:00Z</time>
      </trkpt>
      <trkpt lat="45.89412" lon="4.92931">
        <ele>287</ele>
        <time>2017-12-07T11:41:02Z</time>
      </trkpt>
      <trkpt lat="45.8941" lon="4.92927">
        <ele>287</ele>
        <time>2017-12-07T11:41:03Z</time>
      </trkpt>
      <trkpt lat="45.89406" lon="4.92919">
        <ele>288</ele>
        <time>2017-12-07T11:41:05Z</time>
      </trkpt>
      <trkpt lat="45.89404" lon="4.92915">
        <ele>289</ele>
        <time>2017-12-07T11:41:06Z</time>
      </trkpt>
      <trkpt lat="45.894" lon="4.92904">
        <ele>288</ele>
        <time>2017-12-07T11:41:09Z</time>
      </trkpt>
      <trkpt lat="45.89398" lon="4.929">
        <ele>288</ele>
        <time>2017-12-07T11:41:10Z</time>
      </trkpt>
      <trkpt lat="45.89394" lon="4.92893">
        <ele>288</ele>
        <time>2017-12-07T11:41:12Z</time>
      </trkpt>
      <trkpt lat="45.89393" lon="4.92889">
        <ele>288</ele>
        <time>2017-12-07T11:41:13Z</time>
      </trkpt>
      <trkpt lat="45.89389" lon="4.92881">
        <ele>288</ele>
        <time>2017-12-07T11:41:15Z</time>
      </trkpt>
      <trkpt lat="45.89387" lon="4.92877">
        <ele>288</ele>
        <time>2017-12-07T11:41:16Z</time>
      </trkpt>
      <trkpt lat="45.89385" lon="4.92869">
        <ele>288</ele>
        <time>2017-12-07T11:41:18Z</time>
      </trkpt>
      <trkpt lat="45.89383" lon="4.92865">
        <ele>288</ele>
        <time>2017-12-07T11:41:19Z</time>
      </trkpt>
      <trkpt lat="45.8938" lon="4.92856">
        <ele>288</ele>
        <time>2017-12-07T11:41:21Z</time>
      </trkpt>
      <trkpt lat="45.89378" lon="4.92853">
        <ele>288</ele>
        <time>2017-12-07T11:41:22Z</time>
      </trkpt>
      <trkpt lat="45.89373" lon="4.92842">
        <ele>288</ele>
        <time>2017-12-07T11:41:25Z</time>
      </trkpt>
      <trkpt lat="45.89372" lon="4.92838">
        <ele>288</ele>
        <time>2017-12-07T11:41:26Z</time>
      </trkpt>
      <trkpt lat="45.89371" lon="4.92829">
        <ele>290</ele>
        <time>2017-12-07T11:41:28Z</time>
      </trkpt>
      <trkpt lat="45.8937" lon="4.92824">
        <ele>290</ele>
        <time>2017-12-07T11:41:29Z</time>
      </trkpt>
      <trkpt lat="45.89368" lon="4.92814">
        <ele>290</ele>
        <time>2017-12-07T11:41:31Z</time>
      </trkpt>
      <trkpt lat="45.89367" lon="4.92809">
        <ele>290</ele>
        <time>2017-12-07T11:41:32Z</time>
      </trkpt>
      <trkpt lat="45.89363" lon="4.92799">
        <ele>290</ele>
        <time>2017-12-07T11:41:34Z</time>
      </trkpt>
      <trkpt lat="45.89362" lon="4.92793">
        <ele>290</ele>
        <time>2017-12-07T11:41:35Z</time>
      </trkpt>
      <trkpt lat="45.8936" lon="4.92782">
        <ele>290</ele>
        <time>2017-12-07T11:41:37Z</time>
      </trkpt>
      <trkpt lat="45.89359" lon="4.92776">
        <ele>290</ele>
        <time>2017-12-07T11:41:38Z</time>
      </trkpt>
      <trkpt lat="45.89357" lon="4.92764">
        <ele>290</ele>
        <time>2017-12-07T11:41:40Z</time>
      </trkpt>
      <trkpt lat="45.89356" lon="4.92758">
        <ele>290</ele>
        <time>2017-12-07T11:41:41Z</time>
      </trkpt>
      <trkpt lat="45.89354" lon="4.92747">
        <ele>290</ele>
        <time>2017-12-07T11:41:43Z</time>
      </trkpt>
      <trkpt lat="45.89353" lon="4.92741">
        <ele>290</ele>
        <time>2017-12-07T11:41:44Z</time>
      </trkpt>
      <trkpt lat="45.89351" lon="4.92729">
        <ele>290</ele>
        <time>2017-12-07T11:41:46Z</time>
      </trkpt>
      <trkpt lat="45.89349" lon="4.92722">
        <ele>290</ele>
        <time>2017-12-07T11:41:47Z</time>
      </trkpt>
      <trkpt lat="45.89347" lon="4.92711">
        <ele>290</ele>
        <time>2017-12-07T11:41:49Z</time>
      </trkpt>
      <trkpt lat="45.89346" lon="4.92707">
        <ele>291</ele>
        <time>2017-12-07T11:41:50Z</time>
      </trkpt>
      <trkpt lat="45.89345" lon="4.92696">
        <ele>291</ele>
        <time>2017-12-07T11:41:52Z</time>
      </trkpt>
      <trkpt lat="45.89343" lon="4.92692">
        <ele>291</ele>
        <time>2017-12-07T11:41:53Z</time>
      </trkpt>
      <trkpt lat="45.89342" lon="4.92682">
        <ele>291</ele>
        <time>2017-12-07T11:41:55Z</time>
      </trkpt>
      <trkpt lat="45.8934" lon="4.92676">
        <ele>291</ele>
        <time>2017-12-07T11:41:56Z</time>
      </trkpt>
      <trkpt lat="45.89338" lon="4.92663">
        <ele>291</ele>
        <time>2017-12-07T11:41:58Z</time>
      </trkpt>
      <trkpt lat="45.89337" lon="4.92657">
        <ele>291</ele>
        <time>2017-12-07T11:41:59Z</time>
      </trkpt>
      <trkpt lat="45.89334" lon="4.92646">
        <ele>291</ele>
        <time>2017-12-07T11:42:01Z</time>
      </trkpt>
      <trkpt lat="45.89333" lon="4.92637">
        <ele>292</ele>
        <time>2017-12-07T11:42:02Z</time>
      </trkpt>
      <trkpt lat="45.89331" lon="4.92627">
        <ele>292</ele>
        <time>2017-12-07T11:42:04Z</time>
      </trkpt>
      <trkpt lat="45.8933" lon="4.92619">
        <ele>292</ele>
        <time>2017-12-07T11:42:05Z</time>
      </trkpt>
      <trkpt lat="45.89327" lon="4.92608">
        <ele>292</ele>
        <time>2017-12-07T11:42:07Z</time>
      </trkpt>
      <trkpt lat="45.89326" lon="4.92601">
        <ele>292</ele>
        <time>2017-12-07T11:42:08Z</time>
      </trkpt>
      <trkpt lat="45.89323" lon="4.92591">
        <ele>292</ele>
        <time>2017-12-07T11:42:10Z</time>
      </trkpt>
      <trkpt lat="45.89322" lon="4.92586">
        <ele>293</ele>
        <time>2017-12-07T11:42:11Z</time>
      </trkpt>
      <trkpt lat="45.89318" lon="4.92577">
        <ele>293</ele>
        <time>2017-12-07T11:42:13Z</time>
      </trkpt>
      <trkpt lat="45.89317" lon="4.92571">
        <ele>293</ele>
        <time>2017-12-07T11:42:14Z</time>
      </trkpt>
      <trkpt lat="45.89314" lon="4.92561">
        <ele>293</ele>
        <time>2017-12-07T11:42:16Z</time>
      </trkpt>
      <trkpt lat="45.89312" lon="4.92556">
        <ele>293</ele>
        <time>2017-12-07T11:42:17Z</time>
      </trkpt>
      <trkpt lat="45.8931" lon="4.92545">
        <ele>293</ele>
        <time>2017-12-07T11:42:19Z</time>
      </trkpt>
      <trkpt lat="45.89308" lon="4.92539">
        <ele>293</ele>
        <time>2017-12-07T11:42:20Z</time>
      </trkpt>
      <trkpt lat="45.89304" lon="4.92528">
        <ele>293</ele>
        <time>2017-12-07T11:42:22Z</time>
      </trkpt>
      <trkpt lat="45.89302" lon="4.92523">
        <ele>293</ele>
        <time>2017-12-07T11:42:23Z</time>
      </trkpt>
      <trkpt lat="45.89298" lon="4.92512">
        <ele>293</ele>
        <time>2017-12-07T11:42:25Z</time>
      </trkpt>
      <trkpt lat="45.89296" lon="4.92507">
        <ele>294</ele>
        <time>2017-12-07T11:42:26Z</time>
      </trkpt>
      <trkpt lat="45.89292" lon="4.92497">
        <ele>294</ele>
        <time>2017-12-07T11:42:28Z</time>
      </trkpt>
      <trkpt lat="45.8929" lon="4.92493">
        <ele>294</ele>
        <time>2017-12-07T11:42:29Z</time>
      </trkpt>
      <trkpt lat="45.89287" lon="4.92485">
        <ele>294</ele>
        <time>2017-12-07T11:42:31Z</time>
      </trkpt>
      <trkpt lat="45.89285" lon="4.92481">
        <ele>294</ele>
        <time>2017-12-07T11:42:32Z</time>
      </trkpt>
      <trkpt lat="45.89282" lon="4.92472">
        <ele>294</ele>
        <time>2017-12-07T11:42:34Z</time>
      </trkpt>
      <trkpt lat="45.8928" lon="4.92467">
        <ele>294</ele>
        <time>2017-12-07T11:42:35Z</time>
      </trkpt>
      <trkpt lat="45.89277" lon="4.92458">
        <ele>294</ele>
        <time>2017-12-07T11:42:37Z</time>
      </trkpt>
      <trkpt lat="45.89275" lon="4.92453">
        <ele>294</ele>
        <time>2017-12-07T11:42:38Z</time>
      </trkpt>
      <trkpt lat="45.89272" lon="4.92443">
        <ele>294</ele>
        <time>2017-12-07T11:42:40Z</time>
      </trkpt>
      <trkpt lat="45.89271" lon="4.92438">
        <ele>294</ele>
        <time>2017-12-07T11:42:41Z</time>
      </trkpt>
      <trkpt lat="45.89267" lon="4.9243">
        <ele>294</ele>
        <time>2017-12-07T11:42:43Z</time>
      </trkpt>
      <trkpt lat="45.89265" lon="4.92426">
        <ele>294</ele>
        <time>2017-12-07T11:42:44Z</time>
      </trkpt>
      <trkpt lat="45.89261" lon="4.92416">
        <ele>293</ele>
        <time>2017-12-07T11:42:46Z</time>
      </trkpt>
      <trkpt lat="45.8926" lon="4.92411">
        <ele>293</ele>
        <time>2017-12-07T11:42:47Z</time>
      </trkpt>
      <trkpt lat="45.89256" lon="4.92402">
        <ele>293</ele>
        <time>2017-12-07T11:42:49Z</time>
      </trkpt>
      <trkpt lat="45.89254" lon="4.92397">
        <ele>293</ele>
        <time>2017-12-07T11:42:50Z</time>
      </trkpt>
      <trkpt lat="45.89249" lon="4.92387">
        <ele>293</ele>
        <time>2017-12-07T11:42:52Z</time>
      </trkpt>
      <trkpt lat="45.89247" lon="4.92381">
        <ele>293</ele>
        <time>2017-12-07T11:42:53Z</time>
      </trkpt>
      <trkpt lat="45.89247" lon="4.9237">
        <ele>293</ele>
        <time>2017-12-07T11:42:54Z</time>
      </trkpt>
      <trkpt lat="45.89246" lon="4.92363">
        <ele>293</ele>
        <time>2017-12-07T11:42:55Z</time>
      </trkpt>
      <trkpt lat="45.89245" lon="4.92356">
        <ele>293</ele>
        <time>2017-12-07T11:42:56Z</time>
      </trkpt>
      <trkpt lat="45.89243" lon="4.92349">
        <ele>292</ele>
        <time>2017-12-07T11:42:57Z</time>
      </trkpt>
      <trkpt lat="45.89242" lon="4.92342">
        <ele>292</ele>
        <time>2017-12-07T11:42:58Z</time>
      </trkpt>
      <trkpt lat="45.89242" lon="4.92334">
        <ele>292</ele>
        <time>2017-12-07T11:42:59Z</time>
      </trkpt>
      <trkpt lat="45.89241" lon="4.92326">
        <ele>291</ele>
        <time>2017-12-07T11:43:00Z</time>
      </trkpt>
      <trkpt lat="45.8924" lon="4.92319">
        <ele>291</ele>
        <time>2017-12-07T11:43:01Z</time>
      </trkpt>
      <trkpt lat="45.8924" lon="4.92308">
        <ele>291</ele>
        <time>2017-12-07T11:43:02Z</time>
      </trkpt>
      <trkpt lat="45.89238" lon="4.92302">
        <ele>291</ele>
        <time>2017-12-07T11:43:03Z</time>
      </trkpt>
      <trkpt lat="45.89235" lon="4.92295">
        <ele>290</ele>
        <time>2017-12-07T11:43:04Z</time>
      </trkpt>
      <trkpt lat="45.89232" lon="4.92289">
        <ele>290</ele>
        <time>2017-12-07T11:43:05Z</time>
      </trkpt>
      <trkpt lat="45.89228" lon="4.92283">
        <ele>290</ele>
        <time>2017-12-07T11:43:06Z</time>
      </trkpt>
      <trkpt lat="45.89225" lon="4.92277">
        <ele>290</ele>
        <time>2017-12-07T11:43:07Z</time>
      </trkpt>
      <trkpt lat="45.89221" lon="4.9227">
        <ele>290</ele>
        <time>2017-12-07T11:43:08Z</time>
      </trkpt>
      <trkpt lat="45.89219" lon="4.92263">
        <ele>290</ele>
        <time>2017-12-07T11:43:09Z</time>
      </trkpt>
      <trkpt lat="45.89216" lon="4.92257">
        <ele>290</ele>
        <time>2017-12-07T11:43:10Z</time>
      </trkpt>
      <trkpt lat="45.89213" lon="4.92251">
        <ele>290</ele>
        <time>2017-12-07T11:43:11Z</time>
      </trkpt>
      <trkpt lat="45.8921" lon="4.92245">
        <ele>288</ele>
        <time>2017-12-07T11:43:12Z</time>
      </trkpt>
      <trkpt lat="45.89207" lon="4.92237">
        <ele>288</ele>
        <time>2017-12-07T11:43:13Z</time>
      </trkpt>
      <trkpt lat="45.89204" lon="4.92232">
        <ele>289</ele>
        <time>2017-12-07T11:43:14Z</time>
      </trkpt>
      <trkpt lat="45.892" lon="4.92226">
        <ele>289</ele>
        <time>2017-12-07T11:43:15Z</time>
      </trkpt>
      <trkpt lat="45.89197" lon="4.92219">
        <ele>289</ele>
        <time>2017-12-07T11:43:16Z</time>
      </trkpt>
      <trkpt lat="45.89193" lon="4.92214">
        <ele>289</ele>
        <time>2017-12-07T11:43:17Z</time>
      </trkpt>
      <trkpt lat="45.8919" lon="4.92208">
        <ele>289</ele>
        <time>2017-12-07T11:43:18Z</time>
      </trkpt>
      <trkpt lat="45.89186" lon="4.92202">
        <ele>289</ele>
        <time>2017-12-07T11:43:19Z</time>
      </trkpt>
      <trkpt lat="45.89183" lon="4.92196">
        <ele>289</ele>
        <time>2017-12-07T11:43:20Z</time>
      </trkpt>
      <trkpt lat="45.89179" lon="4.92189">
        <ele>289</ele>
        <time>2017-12-07T11:43:21Z</time>
      </trkpt>
      <trkpt lat="45.89174" lon="4.92185">
        <ele>289</ele>
        <time>2017-12-07T11:43:22Z</time>
      </trkpt>
      <trkpt lat="45.89171" lon="4.92182">
        <ele>289</ele>
        <time>2017-12-07T11:43:23Z</time>
      </trkpt>
      <trkpt lat="45.89167" lon="4.92177">
        <ele>289</ele>
        <time>2017-12-07T11:43:24Z</time>
      </trkpt>
      <trkpt lat="45.89164" lon="4.92173">
        <ele>289</ele>
        <time>2017-12-07T11:43:25Z</time>
      </trkpt>
      <trkpt lat="45.8916" lon="4.9217">
        <ele>289</ele>
        <time>2017-12-07T11:43:26Z</time>
      </trkpt>
      <trkpt lat="45.89156" lon="4.92166">
        <ele>288</ele>
        <time>2017-12-07T11:43:27Z</time>
      </trkpt>
      <trkpt lat="45.89152" lon="4.92163">
        <ele>288</ele>
        <time>2017-12-07T11:43:28Z</time>
      </trkpt>
      <trkpt lat="45.89148" lon="4.92158">
        <ele>288</ele>
        <time>2017-12-07T11:43:29Z</time>
      </trkpt>
      <trkpt lat="45.89144" lon="4.92154">
        <ele>288</ele>
        <time>2017-12-07T11:43:30Z</time>
      </trkpt>
      <trkpt lat="45.89141" lon="4.9215">
        <ele>288</ele>
        <time>2017-12-07T11:43:31Z</time>
      </trkpt>
      <trkpt lat="45.89134" lon="4.92142">
        <ele>288</ele>
        <time>2017-12-07T11:43:33Z</time>
      </trkpt>
      <trkpt lat="45.8913" lon="4.92139">
        <ele>288</ele>
        <time>2017-12-07T11:43:34Z</time>
      </trkpt>
      <trkpt lat="45.89126" lon="4.92137">
        <ele>288</ele>
        <time>2017-12-07T11:43:35Z</time>
      </trkpt>
      <trkpt lat="45.89122" lon="4.92134">
        <ele>288</ele>
        <time>2017-12-07T11:43:36Z</time>
      </trkpt>
      <trkpt lat="45.89117" lon="4.9213">
        <ele>288</ele>
        <time>2017-12-07T11:43:37Z</time>
      </trkpt>
      <trkpt lat="45.89113" lon="4.92127">
        <ele>288</ele>
        <time>2017-12-07T11:43:38Z</time>
      </trkpt>
      <trkpt lat="45.89107" lon="4.92125">
        <ele>287</ele>
        <time>2017-12-07T11:43:39Z</time>
      </trkpt>
      <trkpt lat="45.89103" lon="4.92122">
        <ele>287</ele>
        <time>2017-12-07T11:43:40Z</time>
      </trkpt>
      <trkpt lat="45.891" lon="4.92119">
        <ele>287</ele>
        <time>2017-12-07T11:43:41Z</time>
      </trkpt>
      <trkpt lat="45.89095" lon="4.92116">
        <ele>287</ele>
        <time>2017-12-07T11:43:42Z</time>
      </trkpt>
      <trkpt lat="45.89092" lon="4.92112">
        <ele>287</ele>
        <time>2017-12-07T11:43:43Z</time>
      </trkpt>
      <trkpt lat="45.89087" lon="4.92107">
        <ele>287</ele>
        <time>2017-12-07T11:43:44Z</time>
      </trkpt>
      <trkpt lat="45.8908" lon="4.92102">
        <ele>287</ele>
        <time>2017-12-07T11:43:46Z</time>
      </trkpt>
      <trkpt lat="45.89076" lon="4.92099">
        <ele>287</ele>
        <time>2017-12-07T11:43:47Z</time>
      </trkpt>
      <trkpt lat="45.89072" lon="4.92096">
        <ele>287</ele>
        <time>2017-12-07T11:43:48Z</time>
      </trkpt>
      <trkpt lat="45.89068" lon="4.92093">
        <ele>287</ele>
        <time>2017-12-07T11:43:49Z</time>
      </trkpt>
      <trkpt lat="45.89061" lon="4.92088">
        <ele>287</ele>
        <time>2017-12-07T11:43:51Z</time>
      </trkpt>
      <trkpt lat="45.89058" lon="4.92085">
        <ele>287</ele>
        <time>2017-12-07T11:43:52Z</time>
      </trkpt>
      <trkpt lat="45.89054" lon="4.9208">
        <ele>287</ele>
        <time>2017-12-07T11:43:53Z</time>
      </trkpt>
      <trkpt lat="45.8905" lon="4.92077">
        <ele>287</ele>
        <time>2017-12-07T11:43:54Z</time>
      </trkpt>
      <trkpt lat="45.89046" lon="4.92073">
        <ele>287</ele>
        <time>2017-12-07T11:43:55Z</time>
      </trkpt>
      <trkpt lat="45.89041" lon="4.92069">
        <ele>287</ele>
        <time>2017-12-07T11:43:56Z</time>
      </trkpt>
      <trkpt lat="45.89038" lon="4.92066">
        <ele>287</ele>
        <time>2017-12-07T11:43:57Z</time>
      </trkpt>
      <trkpt lat="45.89034" lon="4.92062">
        <ele>287</ele>
        <time>2017-12-07T11:43:58Z</time>
      </trkpt>
      <trkpt lat="45.89026" lon="4.92056">
        <ele>287</ele>
        <time>2017-12-07T11:44:00Z</time>
      </trkpt>
      <trkpt lat="45.89023" lon="4.92053">
        <ele>287</ele>
        <time>2017-12-07T11:44:01Z</time>
      </trkpt>
      <trkpt lat="45.8902" lon="4.92049">
        <ele>287</ele>
        <time>2017-12-07T11:44:02Z</time>
      </trkpt>
      <trkpt lat="45.89016" lon="4.92044">
        <ele>287</ele>
        <time>2017-12-07T11:44:03Z</time>
      </trkpt>
      <trkpt lat="45.89013" lon="4.9204">
        <ele>287</ele>
        <time>2017-12-07T11:44:04Z</time>
      </trkpt>
      <trkpt lat="45.89009" lon="4.92036">
        <ele>287</ele>
        <time>2017-12-07T11:44:05Z</time>
      </trkpt>
      <trkpt lat="45.89003" lon="4.92027">
        <ele>287</ele>
        <time>2017-12-07T11:44:07Z</time>
      </trkpt>
      <trkpt lat="45.89" lon="4.92022">
        <ele>287</ele>
        <time>2017-12-07T11:44:08Z</time>
      </trkpt>
      <trkpt lat="45.88996" lon="4.92017">
        <ele>287</ele>
        <time>2017-12-07T11:44:09Z</time>
      </trkpt>
      <trkpt lat="45.88993" lon="4.92013">
        <ele>287</ele>
        <time>2017-12-07T11:44:10Z</time>
      </trkpt>
      <trkpt lat="45.8899" lon="4.92008">
        <ele>287</ele>
        <time>2017-12-07T11:44:11Z</time>
      </trkpt>
      <trkpt lat="45.88987" lon="4.92002">
        <ele>287</ele>
        <time>2017-12-07T11:44:12Z</time>
      </trkpt>
      <trkpt lat="45.88981" lon="4.91993">
        <ele>287</ele>
        <time>2017-12-07T11:44:14Z</time>
      </trkpt>
      <trkpt lat="45.88978" lon="4.91988">
        <ele>287</ele>
        <time>2017-12-07T11:44:15Z</time>
      </trkpt>
      <trkpt lat="45.88972" lon="4.91981">
        <ele>287</ele>
        <time>2017-12-07T11:44:17Z</time>
      </trkpt>
      <trkpt lat="45.88969" lon="4.91974">
        <ele>287</ele>
        <time>2017-12-07T11:44:18Z</time>
      </trkpt>
      <trkpt lat="45.88965" lon="4.91969">
        <ele>287</ele>
        <time>2017-12-07T11:44:19Z</time>
      </trkpt>
      <trkpt lat="45.88962" lon="4.91964">
        <ele>287</ele>
        <time>2017-12-07T11:44:20Z</time>
      </trkpt>
      <trkpt lat="45.88959" lon="4.9196">
        <ele>287</ele>
        <time>2017-12-07T11:44:21Z</time>
      </trkpt>
      <trkpt lat="45.88955" lon="4.91955">
        <ele>287</ele>
        <time>2017-12-07T11:44:22Z</time>
      </trkpt>
      <trkpt lat="45.88949" lon="4.91945">
        <ele>287</ele>
        <time>2017-12-07T11:44:24Z</time>
      </trkpt>
      <trkpt lat="45.88946" lon="4.91941">
        <ele>287</ele>
        <time>2017-12-07T11:44:25Z</time>
      </trkpt>
      <trkpt lat="45.88942" lon="4.91937">
        <ele>287</ele>
        <time>2017-12-07T11:44:26Z</time>
      </trkpt>
      <trkpt lat="45.88938" lon="4.91933">
        <ele>287</ele>
        <time>2017-12-07T11:44:27Z</time>
      </trkpt>
      <trkpt lat="45.88936" lon="4.91927">
        <ele>288</ele>
        <time>2017-12-07T11:44:28Z</time>
      </trkpt>
      <trkpt lat="45.88933" lon="4.91922">
        <ele>288</ele>
        <time>2017-12-07T11:44:29Z</time>
      </trkpt>
      <trkpt lat="45.88928" lon="4.91912">
        <ele>288</ele>
        <time>2017-12-07T11:44:31Z</time>
      </trkpt>
      <trkpt lat="45.88925" lon="4.91907">
        <ele>288</ele>
        <time>2017-12-07T11:44:32Z</time>
      </trkpt>
      <trkpt lat="45.88921" lon="4.91902">
        <ele>288</ele>
        <time>2017-12-07T11:44:33Z</time>
      </trkpt>
      <trkpt lat="45.88919" lon="4.91897">
        <ele>288</ele>
        <time>2017-12-07T11:44:34Z</time>
      </trkpt>
      <trkpt lat="45.88913" lon="4.91887">
        <ele>288</ele>
        <time>2017-12-07T11:44:36Z</time>
      </trkpt>
      <trkpt lat="45.88911" lon="4.91882">
        <ele>288</ele>
        <time>2017-12-07T11:44:37Z</time>
      </trkpt>
      <trkpt lat="45.88909" lon="4.91876">
        <ele>288</ele>
        <time>2017-12-07T11:44:38Z</time>
      </trkpt>
      <trkpt lat="45.88906" lon="4.9187">
        <ele>288</ele>
        <time>2017-12-07T11:44:39Z</time>
      </trkpt>
      <trkpt lat="45.88903" lon="4.91859">
        <ele>288</ele>
        <time>2017-12-07T11:44:41Z</time>
      </trkpt>
      <trkpt lat="45.88903" lon="4.91851">
        <ele>288</ele>
        <time>2017-12-07T11:44:42Z</time>
      </trkpt>
      <trkpt lat="45.88901" lon="4.91845">
        <ele>288</ele>
        <time>2017-12-07T11:44:43Z</time>
      </trkpt>
      <trkpt lat="45.88899" lon="4.91838">
        <ele>288</ele>
        <time>2017-12-07T11:44:44Z</time>
      </trkpt>
      <trkpt lat="45.88897" lon="4.91829">
        <ele>288</ele>
        <time>2017-12-07T11:44:45Z</time>
      </trkpt>
      <trkpt lat="45.88896" lon="4.91823">
        <ele>288</ele>
        <time>2017-12-07T11:44:46Z</time>
      </trkpt>
      <trkpt lat="45.88893" lon="4.91812">
        <ele>288</ele>
        <time>2017-12-07T11:44:48Z</time>
      </trkpt>
      <trkpt lat="45.88892" lon="4.91805">
        <ele>288</ele>
        <time>2017-12-07T11:44:49Z</time>
      </trkpt>
      <trkpt lat="45.8889" lon="4.91799">
        <ele>288</ele>
        <time>2017-12-07T11:44:50Z</time>
      </trkpt>
      <trkpt lat="45.88888" lon="4.91794">
        <ele>288</ele>
        <time>2017-12-07T11:44:51Z</time>
      </trkpt>
      <trkpt lat="45.88886" lon="4.91782">
        <ele>288</ele>
        <time>2017-12-07T11:44:53Z</time>
      </trkpt>
      <trkpt lat="45.88883" lon="4.91777">
        <ele>288</ele>
        <time>2017-12-07T11:44:54Z</time>
      </trkpt>
      <trkpt lat="45.88882" lon="4.91771">
        <ele>288</ele>
        <time>2017-12-07T11:44:55Z</time>
      </trkpt>
      <trkpt lat="45.88881" lon="4.91764">
        <ele>288</ele>
        <time>2017-12-07T11:44:56Z</time>
      </trkpt>
      <trkpt lat="45.88881" lon="4.91752">
        <ele>288</ele>
        <time>2017-12-07T11:44:58Z</time>
      </trkpt>
      <trkpt lat="45.8888" lon="4.91746">
        <ele>288</ele>
        <time>2017-12-07T11:44:59Z</time>
      </trkpt>
      <trkpt lat="45.88878" lon="4.91734">
        <ele>288</ele>
        <time>2017-12-07T11:45:01Z</time>
      </trkpt>
      <trkpt lat="45.88876" lon="4.91726">
        <ele>288</ele>
        <time>2017-12-07T11:45:02Z</time>
      </trkpt>
      <trkpt lat="45.88876" lon="4.91719">
        <ele>288</ele>
        <time>2017-12-07T11:45:03Z</time>
      </trkpt>
      <trkpt lat="45.88876" lon="4.91713">
        <ele>288</ele>
        <time>2017-12-07T11:45:04Z</time>
      </trkpt>
      <trkpt lat="45.88872" lon="4.91703">
        <ele>289</ele>
        <time>2017-12-07T11:45:06Z</time>
      </trkpt>
      <trkpt lat="45.88871" lon="4.91698">
        <ele>289</ele>
        <time>2017-12-07T11:45:07Z</time>
      </trkpt>
      <trkpt lat="45.88868" lon="4.91686">
        <ele>289</ele>
        <time>2017-12-07T11:45:09Z</time>
      </trkpt>
      <trkpt lat="45.88867" lon="4.91681">
        <ele>289</ele>
        <time>2017-12-07T11:45:10Z</time>
      </trkpt>
      <trkpt lat="45.88865" lon="4.9167">
        <ele>289</ele>
        <time>2017-12-07T11:45:12Z</time>
      </trkpt>
      <trkpt lat="45.88863" lon="4.91664">
        <ele>289</ele>
        <time>2017-12-07T11:45:13Z</time>
      </trkpt>
      <trkpt lat="45.8886" lon="4.91653">
        <ele>289</ele>
        <time>2017-12-07T11:45:15Z</time>
      </trkpt>
      <trkpt lat="45.88858" lon="4.91647">
        <ele>289</ele>
        <time>2017-12-07T11:45:16Z</time>
      </trkpt>
      <trkpt lat="45.88855" lon="4.91635">
        <ele>289</ele>
        <time>2017-12-07T11:45:18Z</time>
      </trkpt>
      <trkpt lat="45.88853" lon="4.9163">
        <ele>289</ele>
        <time>2017-12-07T11:45:19Z</time>
      </trkpt>
      <trkpt lat="45.8885" lon="4.9162">
        <ele>289</ele>
        <time>2017-12-07T11:45:21Z</time>
      </trkpt>
      <trkpt lat="45.88848" lon="4.91615">
        <ele>289</ele>
        <time>2017-12-07T11:45:22Z</time>
      </trkpt>
      <trkpt lat="45.88846" lon="4.91603">
        <ele>289</ele>
        <time>2017-12-07T11:45:24Z</time>
      </trkpt>
      <trkpt lat="45.88844" lon="4.91597">
        <ele>289</ele>
        <time>2017-12-07T11:45:25Z</time>
      </trkpt>
      <trkpt lat="45.88841" lon="4.91585">
        <ele>289</ele>
        <time>2017-12-07T11:45:27Z</time>
      </trkpt>
      <trkpt lat="45.88839" lon="4.9158">
        <ele>289</ele>
        <time>2017-12-07T11:45:28Z</time>
      </trkpt>
      <trkpt lat="45.88837" lon="4.91569">
        <ele>289</ele>
        <time>2017-12-07T11:45:30Z</time>
      </trkpt>
      <trkpt lat="45.88836" lon="4.91564">
        <ele>289</ele>
        <time>2017-12-07T11:45:31Z</time>
      </trkpt>
      <trkpt lat="45.88833" lon="4.91552">
        <ele>289</ele>
        <time>2017-12-07T11:45:33Z</time>
      </trkpt>
      <trkpt lat="45.88832" lon="4.91546">
        <ele>288</ele>
        <time>2017-12-07T11:45:34Z</time>
      </trkpt>
      <trkpt lat="45.88829" lon="4.91535">
        <ele>288</ele>
        <time>2017-12-07T11:45:36Z</time>
      </trkpt>
      <trkpt lat="45.88828" lon="4.91528">
        <ele>288</ele>
        <time>2017-12-07T11:45:37Z</time>
      </trkpt>
      <trkpt lat="45.88825" lon="4.91516">
        <ele>288</ele>
        <time>2017-12-07T11:45:39Z</time>
      </trkpt>
      <trkpt lat="45.88823" lon="4.9151">
        <ele>288</ele>
        <time>2017-12-07T11:45:40Z</time>
      </trkpt>
      <trkpt lat="45.88823" lon="4.91501">
        <ele>289</ele>
        <time>2017-12-07T11:45:41Z</time>
      </trkpt>
      <trkpt lat="45.88822" lon="4.91495">
        <ele>289</ele>
        <time>2017-12-07T11:45:42Z</time>
      </trkpt>
      <trkpt lat="45.88821" lon="4.91488">
        <ele>288</ele>
        <time>2017-12-07T11:45:43Z</time>
      </trkpt>
      <trkpt lat="45.88819" lon="4.91482">
        <ele>288</ele>
        <time>2017-12-07T11:45:44Z</time>
      </trkpt>
      <trkpt lat="45.88818" lon="4.91469">
        <ele>288</ele>
        <time>2017-12-07T11:45:46Z</time>
      </trkpt>
      <trkpt lat="45.88817" lon="4.91464">
        <ele>288</ele>
        <time>2017-12-07T11:45:47Z</time>
      </trkpt>
      <trkpt lat="45.88814" lon="4.91453">
        <ele>288</ele>
        <time>2017-12-07T11:45:49Z</time>
      </trkpt>
      <trkpt lat="45.88814" lon="4.91448">
        <ele>288</ele>
        <time>2017-12-07T11:45:50Z</time>
      </trkpt>
      <trkpt lat="45.88814" lon="4.91439">
        <ele>288</ele>
        <time>2017-12-07T11:45:51Z</time>
      </trkpt>
      <trkpt lat="45.88812" lon="4.91434">
        <ele>288</ele>
        <time>2017-12-07T11:45:52Z</time>
      </trkpt>
      <trkpt lat="45.8881" lon="4.91423">
        <ele>289</ele>
        <time>2017-12-07T11:45:54Z</time>
      </trkpt>
      <trkpt lat="45.88809" lon="4.91417">
        <ele>288</ele>
        <time>2017-12-07T11:45:55Z</time>
      </trkpt>
      <trkpt lat="45.88806" lon="4.91406">
        <ele>289</ele>
        <time>2017-12-07T11:45:57Z</time>
      </trkpt>
      <trkpt lat="45.88805" lon="4.914">
        <ele>289</ele>
        <time>2017-12-07T11:45:58Z</time>
      </trkpt>
      <trkpt lat="45.88803" lon="4.91388">
        <ele>288</ele>
        <time>2017-12-07T11:46:00Z</time>
      </trkpt>
      <trkpt lat="45.88802" lon="4.91382">
        <ele>288</ele>
        <time>2017-12-07T11:46:01Z</time>
      </trkpt>
      <trkpt lat="45.888" lon="4.91375">
        <ele>288</ele>
        <time>2017-12-07T11:46:02Z</time>
      </trkpt>
      <trkpt lat="45.88799" lon="4.91368">
        <ele>288</ele>
        <time>2017-12-07T11:46:03Z</time>
      </trkpt>
      <trkpt lat="45.88798" lon="4.91361">
        <ele>288</ele>
        <time>2017-12-07T11:46:04Z</time>
      </trkpt>
      <trkpt lat="45.88796" lon="4.91354">
        <ele>288</ele>
        <time>2017-12-07T11:46:05Z</time>
      </trkpt>
      <trkpt lat="45.88795" lon="4.91347">
        <ele>288</ele>
        <time>2017-12-07T11:46:06Z</time>
      </trkpt>
      <trkpt lat="45.88795" lon="4.91341">
        <ele>288</ele>
        <time>2017-12-07T11:46:07Z</time>
      </trkpt>
      <trkpt lat="45.88795" lon="4.91333">
        <ele>288</ele>
        <time>2017-12-07T11:46:08Z</time>
      </trkpt>
      <trkpt lat="45.88794" lon="4.91327">
        <ele>289</ele>
        <time>2017-12-07T11:46:09Z</time>
      </trkpt>
      <trkpt lat="45.88794" lon="4.9132">
        <ele>289</ele>
        <time>2017-12-07T11:46:10Z</time>
      </trkpt>
      <trkpt lat="45.88794" lon="4.91314">
        <ele>289</ele>
        <time>2017-12-07T11:46:11Z</time>
      </trkpt>
      <trkpt lat="45.88793" lon="4.91302">
        <ele>289</ele>
        <time>2017-12-07T11:46:13Z</time>
      </trkpt>
      <trkpt lat="45.88793" lon="4.91297">
        <ele>289</ele>
        <time>2017-12-07T11:46:14Z</time>
      </trkpt>
      <trkpt lat="45.88792" lon="4.91285">
        <ele>289</ele>
        <time>2017-12-07T11:46:16Z</time>
      </trkpt>
      <trkpt lat="45.88791" lon="4.91279">
        <ele>288</ele>
        <time>2017-12-07T11:46:17Z</time>
      </trkpt>
      <trkpt lat="45.88791" lon="4.91272">
        <ele>288</ele>
        <time>2017-12-07T11:46:18Z</time>
      </trkpt>
      <trkpt lat="45.88792" lon="4.91265">
        <ele>289</ele>
        <time>2017-12-07T11:46:19Z</time>
      </trkpt>
      <trkpt lat="45.88791" lon="4.91259">
        <ele>288</ele>
        <time>2017-12-07T11:46:20Z</time>
      </trkpt>
      <trkpt lat="45.88791" lon="4.91251">
        <ele>288</ele>
        <time>2017-12-07T11:46:21Z</time>
      </trkpt>
      <trkpt lat="45.88791" lon="4.91239">
        <ele>288</ele>
        <time>2017-12-07T11:46:23Z</time>
      </trkpt>
      <trkpt lat="45.88791" lon="4.91233">
        <ele>288</ele>
        <time>2017-12-07T11:46:24Z</time>
      </trkpt>
      <trkpt lat="45.8879" lon="4.91221">
        <ele>288</ele>
        <time>2017-12-07T11:46:26Z</time>
      </trkpt>
      <trkpt lat="45.8879" lon="4.91215">
        <ele>288</ele>
        <time>2017-12-07T11:46:27Z</time>
      </trkpt>
      <trkpt lat="45.88789" lon="4.91204">
        <ele>288</ele>
        <time>2017-12-07T11:46:29Z</time>
      </trkpt>
      <trkpt lat="45.88789" lon="4.91198">
        <ele>288</ele>
        <time>2017-12-07T11:46:30Z</time>
      </trkpt>
      <trkpt lat="45.88788" lon="4.91185">
        <ele>288</ele>
        <time>2017-12-07T11:46:32Z</time>
      </trkpt>
      <trkpt lat="45.88788" lon="4.91178">
        <ele>288</ele>
        <time>2017-12-07T11:46:33Z</time>
      </trkpt>
      <trkpt lat="45.88788" lon="4.9117">
        <ele>288</ele>
        <time>2017-12-07T11:46:34Z</time>
      </trkpt>
      <trkpt lat="45.88788" lon="4.91162">
        <ele>288</ele>
        <time>2017-12-07T11:46:35Z</time>
      </trkpt>
      <trkpt lat="45.88788" lon="4.91154">
        <ele>288</ele>
        <time>2017-12-07T11:46:36Z</time>
      </trkpt>
      <trkpt lat="45.88789" lon="4.91147">
        <ele>288</ele>
        <time>2017-12-07T11:46:37Z</time>
      </trkpt>
      <trkpt lat="45.88791" lon="4.91139">
        <ele>288</ele>
        <time>2017-12-07T11:46:38Z</time>
      </trkpt>
      <trkpt lat="45.88793" lon="4.91131">
        <ele>288</ele>
        <time>2017-12-07T11:46:39Z</time>
      </trkpt>
      <trkpt lat="45.88795" lon="4.91122">
        <ele>288</ele>
        <time>2017-12-07T11:46:40Z</time>
      </trkpt>
      <trkpt lat="45.88797" lon="4.91114">
        <ele>288</ele>
        <time>2017-12-07T11:46:41Z</time>
      </trkpt>
      <trkpt lat="45.888" lon="4.91107">
        <ele>288</ele>
        <time>2017-12-07T11:46:42Z</time>
      </trkpt>
      <trkpt lat="45.88801" lon="4.91099">
        <ele>288</ele>
        <time>2017-12-07T11:46:43Z</time>
      </trkpt>
      <trkpt lat="45.88802" lon="4.91091">
        <ele>288</ele>
        <time>2017-12-07T11:46:44Z</time>
      </trkpt>
      <trkpt lat="45.88802" lon="4.91084">
        <ele>288</ele>
        <time>2017-12-07T11:46:45Z</time>
      </trkpt>
      <trkpt lat="45.888" lon="4.91077">
        <ele>288</ele>
        <time>2017-12-07T11:46:46Z</time>
      </trkpt>
      <trkpt lat="45.88797" lon="4.91072">
        <ele>288</ele>
        <time>2017-12-07T11:46:47Z</time>
      </trkpt>
      <trkpt lat="45.88794" lon="4.91067">
        <ele>288</ele>
        <time>2017-12-07T11:46:48Z</time>
      </trkpt>
      <trkpt lat="45.88791" lon="4.91061">
        <ele>288</ele>
        <time>2017-12-07T11:46:49Z</time>
      </trkpt>
      <trkpt lat="45.88785" lon="4.91051">
        <ele>288</ele>
        <time>2017-12-07T11:46:51Z</time>
      </trkpt>
      <trkpt lat="45.88783" lon="4.91048">
        <ele>288</ele>
        <time>2017-12-07T11:46:52Z</time>
      </trkpt>
      <trkpt lat="45.88779" lon="4.91038">
        <ele>288</ele>
        <time>2017-12-07T11:46:54Z</time>
      </trkpt>
      <trkpt lat="45.88777" lon="4.91033">
        <ele>288</ele>
        <time>2017-12-07T11:46:55Z</time>
      </trkpt>
      <trkpt lat="45.88777" lon="4.91028">
        <ele>288</ele>
        <time>2017-12-07T11:46:56Z</time>
      </trkpt>
      <trkpt lat="45.88776" lon="4.91019">
        <ele>288</ele>
        <time>2017-12-07T11:46:57Z</time>
      </trkpt>
      <trkpt lat="45.88773" lon="4.91007">
        <ele>287</ele>
        <time>2017-12-07T11:46:59Z</time>
      </trkpt>
      <trkpt lat="45.88773" lon="4.91001">
        <ele>287</ele>
        <time>2017-12-07T11:47:00Z</time>
      </trkpt>
      <trkpt lat="45.8877" lon="4.90989">
        <ele>287</ele>
        <time>2017-12-07T11:47:02Z</time>
      </trkpt>
      <trkpt lat="45.88768" lon="4.90984">
        <ele>287</ele>
        <time>2017-12-07T11:47:03Z</time>
      </trkpt>
      <trkpt lat="45.88767" lon="4.90976">
        <ele>288</ele>
        <time>2017-12-07T11:47:04Z</time>
      </trkpt>
      <trkpt lat="45.88766" lon="4.9097">
        <ele>288</ele>
        <time>2017-12-07T11:47:05Z</time>
      </trkpt>
      <trkpt lat="45.88764" lon="4.90963">
        <ele>288</ele>
        <time>2017-12-07T11:47:06Z</time>
      </trkpt>
      <trkpt lat="45.88763" lon="4.90956">
        <ele>288</ele>
        <time>2017-12-07T11:47:07Z</time>
      </trkpt>
      <trkpt lat="45.88761" lon="4.9095">
        <ele>288</ele>
        <time>2017-12-07T11:47:08Z</time>
      </trkpt>
      <trkpt lat="45.8876" lon="4.90942">
        <ele>288</ele>
        <time>2017-12-07T11:47:09Z</time>
      </trkpt>
      <trkpt lat="45.88757" lon="4.9093">
        <ele>288</ele>
        <time>2017-12-07T11:47:11Z</time>
      </trkpt>
      <trkpt lat="45.88757" lon="4.90924">
        <ele>288</ele>
        <time>2017-12-07T11:47:12Z</time>
      </trkpt>
      <trkpt lat="45.88755" lon="4.90911">
        <ele>288</ele>
        <time>2017-12-07T11:47:14Z</time>
      </trkpt>
      <trkpt lat="45.88753" lon="4.90905">
        <ele>288</ele>
        <time>2017-12-07T11:47:15Z</time>
      </trkpt>
      <trkpt lat="45.88751" lon="4.90898">
        <ele>288</ele>
        <time>2017-12-07T11:47:16Z</time>
      </trkpt>
      <trkpt lat="45.8875" lon="4.90892">
        <ele>288</ele>
        <time>2017-12-07T11:47:17Z</time>
      </trkpt>
      <trkpt lat="45.88747" lon="4.9088">
        <ele>288</ele>
        <time>2017-12-07T11:47:19Z</time>
      </trkpt>
      <trkpt lat="45.88744" lon="4.90874">
        <ele>288</ele>
        <time>2017-12-07T11:47:20Z</time>
      </trkpt>
      <trkpt lat="45.88744" lon="4.90866">
        <ele>288</ele>
        <time>2017-12-07T11:47:21Z</time>
      </trkpt>
      <trkpt lat="45.88741" lon="4.90859">
        <ele>288</ele>
        <time>2017-12-07T11:47:22Z</time>
      </trkpt>
      <trkpt lat="45.88739" lon="4.90847">
        <ele>288</ele>
        <time>2017-12-07T11:47:24Z</time>
      </trkpt>
      <trkpt lat="45.88739" lon="4.90839">
        <ele>288</ele>
        <time>2017-12-07T11:47:25Z</time>
      </trkpt>
      <trkpt lat="45.88737" lon="4.90834">
        <ele>288</ele>
        <time>2017-12-07T11:47:26Z</time>
      </trkpt>
      <trkpt lat="45.88735" lon="4.90828">
        <ele>289</ele>
        <time>2017-12-07T11:47:27Z</time>
      </trkpt>
      <trkpt lat="45.88732" lon="4.9082">
        <ele>289</ele>
        <time>2017-12-07T11:47:28Z</time>
      </trkpt>
      <trkpt lat="45.88731" lon="4.90813">
        <ele>289</ele>
        <time>2017-12-07T11:47:29Z</time>
      </trkpt>
      <trkpt lat="45.88729" lon="4.90802">
        <ele>289</ele>
        <time>2017-12-07T11:47:31Z</time>
      </trkpt>
      <trkpt lat="45.88728" lon="4.90795">
        <ele>289</ele>
        <time>2017-12-07T11:47:32Z</time>
      </trkpt>
      <trkpt lat="45.88726" lon="4.90788">
        <ele>289</ele>
        <time>2017-12-07T11:47:33Z</time>
      </trkpt>
      <trkpt lat="45.88725" lon="4.90782">
        <ele>289</ele>
        <time>2017-12-07T11:47:34Z</time>
      </trkpt>
      <trkpt lat="45.88723" lon="4.9077">
        <ele>289</ele>
        <time>2017-12-07T11:47:36Z</time>
      </trkpt>
      <trkpt lat="45.88721" lon="4.90762">
        <ele>289</ele>
        <time>2017-12-07T11:47:37Z</time>
      </trkpt>
      <trkpt lat="45.88717" lon="4.90751">
        <ele>289</ele>
        <time>2017-12-07T11:47:39Z</time>
      </trkpt>
      <trkpt lat="45.88715" lon="4.90746">
        <ele>290</ele>
        <time>2017-12-07T11:47:40Z</time>
      </trkpt>
      <trkpt lat="45.88712" lon="4.90734">
        <ele>290</ele>
        <time>2017-12-07T11:47:42Z</time>
      </trkpt>
      <trkpt lat="45.88711" lon="4.90728">
        <ele>290</ele>
        <time>2017-12-07T11:47:43Z</time>
      </trkpt>
      <trkpt lat="45.88709" lon="4.90722">
        <ele>290</ele>
        <time>2017-12-07T11:47:44Z</time>
      </trkpt>
      <trkpt lat="45.88709" lon="4.90715">
        <ele>290</ele>
        <time>2017-12-07T11:47:45Z</time>
      </trkpt>
      <trkpt lat="45.88706" lon="4.90704">
        <ele>290</ele>
        <time>2017-12-07T11:47:47Z</time>
      </trkpt>
      <trkpt lat="45.88704" lon="4.90697">
        <ele>290</ele>
        <time>2017-12-07T11:47:48Z</time>
      </trkpt>
      <trkpt lat="45.88703" lon="4.9069">
        <ele>290</ele>
        <time>2017-12-07T11:47:49Z</time>
      </trkpt>
      <trkpt lat="45.88702" lon="4.90683">
        <ele>290</ele>
        <time>2017-12-07T11:47:50Z</time>
      </trkpt>
      <trkpt lat="45.88701" lon="4.90676">
        <ele>290</ele>
        <time>2017-12-07T11:47:51Z</time>
      </trkpt>
      <trkpt lat="45.887" lon="4.90669">
        <ele>290</ele>
        <time>2017-12-07T11:47:52Z</time>
      </trkpt>
      <trkpt lat="45.88699" lon="4.90658">
        <ele>291</ele>
        <time>2017-12-07T11:47:54Z</time>
      </trkpt>
      <trkpt lat="45.88697" lon="4.90653">
        <ele>291</ele>
        <time>2017-12-07T11:47:55Z</time>
      </trkpt>
      <trkpt lat="45.88695" lon="4.9064">
        <ele>291</ele>
        <time>2017-12-07T11:47:57Z</time>
      </trkpt>
      <trkpt lat="45.88694" lon="4.90634">
        <ele>291</ele>
        <time>2017-12-07T11:47:58Z</time>
      </trkpt>
      <trkpt lat="45.88692" lon="4.90622">
        <ele>291</ele>
        <time>2017-12-07T11:48:00Z</time>
      </trkpt>
      <trkpt lat="45.88691" lon="4.90615">
        <ele>292</ele>
        <time>2017-12-07T11:48:01Z</time>
      </trkpt>
      <trkpt lat="45.8869" lon="4.90609">
        <ele>292</ele>
        <time>2017-12-07T11:48:02Z</time>
      </trkpt>
      <trkpt lat="45.88689" lon="4.90602">
        <ele>292</ele>
        <time>2017-12-07T11:48:03Z</time>
      </trkpt>
      <trkpt lat="45.88688" lon="4.90596">
        <ele>292</ele>
        <time>2017-12-07T11:48:04Z</time>
      </trkpt>
      <trkpt lat="45.88686" lon="4.90589">
        <ele>292</ele>
        <time>2017-12-07T11:48:05Z</time>
      </trkpt>
      <trkpt lat="45.88685" lon="4.90582">
        <ele>293</ele>
        <time>2017-12-07T11:48:06Z</time>
      </trkpt>
      <trkpt lat="45.88683" lon="4.90576">
        <ele>293</ele>
        <time>2017-12-07T11:48:07Z</time>
      </trkpt>
      <trkpt lat="45.88682" lon="4.90569">
        <ele>293</ele>
        <time>2017-12-07T11:48:08Z</time>
      </trkpt>
      <trkpt lat="45.88681" lon="4.90562">
        <ele>293</ele>
        <time>2017-12-07T11:48:09Z</time>
      </trkpt>
      <trkpt lat="45.8868" lon="4.90555">
        <ele>293</ele>
        <time>2017-12-07T11:48:10Z</time>
      </trkpt>
      <trkpt lat="45.88678" lon="4.90548">
        <ele>293</ele>
        <time>2017-12-07T11:48:11Z</time>
      </trkpt>
      <trkpt lat="45.88677" lon="4.90536">
        <ele>293</ele>
        <time>2017-12-07T11:48:13Z</time>
      </trkpt>
      <trkpt lat="45.88676" lon="4.90531">
        <ele>293</ele>
        <time>2017-12-07T11:48:14Z</time>
      </trkpt>
      <trkpt lat="45.88674" lon="4.90519">
        <ele>293</ele>
        <time>2017-12-07T11:48:16Z</time>
      </trkpt>
      <trkpt lat="45.88673" lon="4.90514">
        <ele>293</ele>
        <time>2017-12-07T11:48:17Z</time>
      </trkpt>
      <trkpt lat="45.88671" lon="4.90502">
        <ele>293</ele>
        <time>2017-12-07T11:48:19Z</time>
      </trkpt>
      <trkpt lat="45.88669" lon="4.90497">
        <ele>293</ele>
        <time>2017-12-07T11:48:20Z</time>
      </trkpt>
      <trkpt lat="45.88666" lon="4.90487">
        <ele>293</ele>
        <time>2017-12-07T11:48:22Z</time>
      </trkpt>
      <trkpt lat="45.88666" lon="4.9048">
        <ele>293</ele>
        <time>2017-12-07T11:48:23Z</time>
      </trkpt>
      <trkpt lat="45.88664" lon="4.90473">
        <ele>293</ele>
        <time>2017-12-07T11:48:24Z</time>
      </trkpt>
      <trkpt lat="45.88664" lon="4.90466">
        <ele>293</ele>
        <time>2017-12-07T11:48:25Z</time>
      </trkpt>
      <trkpt lat="45.88663" lon="4.9046">
        <ele>293</ele>
        <time>2017-12-07T11:48:26Z</time>
      </trkpt>
      <trkpt lat="45.88663" lon="4.90453">
        <ele>293</ele>
        <time>2017-12-07T11:48:27Z</time>
      </trkpt>
      <trkpt lat="45.88661" lon="4.90447">
        <ele>293</ele>
        <time>2017-12-07T11:48:28Z</time>
      </trkpt>
      <trkpt lat="45.88661" lon="4.9044">
        <ele>293</ele>
        <time>2017-12-07T11:48:29Z</time>
      </trkpt>
      <trkpt lat="45.8866" lon="4.90434">
        <ele>293</ele>
        <time>2017-12-07T11:48:30Z</time>
      </trkpt>
      <trkpt lat="45.88659" lon="4.90427">
        <ele>293</ele>
        <time>2017-12-07T11:48:31Z</time>
      </trkpt>
      <trkpt lat="45.88659" lon="4.9042">
        <ele>293</ele>
        <time>2017-12-07T11:48:32Z</time>
      </trkpt>
      <trkpt lat="45.88659" lon="4.90412">
        <ele>293</ele>
        <time>2017-12-07T11:48:33Z</time>
      </trkpt>
      <trkpt lat="45.88659" lon="4.90399">
        <ele>293</ele>
        <time>2017-12-07T11:48:35Z</time>
      </trkpt>
      <trkpt lat="45.88659" lon="4.90392">
        <ele>293</ele>
        <time>2017-12-07T11:48:36Z</time>
      </trkpt>
      <trkpt lat="45.88659" lon="4.90386">
        <ele>293</ele>
        <time>2017-12-07T11:48:37Z</time>
      </trkpt>
      <trkpt lat="45.88658" lon="4.90379">
        <ele>293</ele>
        <time>2017-12-07T11:48:38Z</time>
      </trkpt>
      <trkpt lat="45.88658" lon="4.90366">
        <ele>293</ele>
        <time>2017-12-07T11:48:40Z</time>
      </trkpt>
      <trkpt lat="45.88658" lon="4.90359">
        <ele>293</ele>
        <time>2017-12-07T11:48:41Z</time>
      </trkpt>
      <trkpt lat="45.88658" lon="4.90347">
        <ele>293</ele>
        <time>2017-12-07T11:48:43Z</time>
      </trkpt>
      <trkpt lat="45.88659" lon="4.9034">
        <ele>293</ele>
        <time>2017-12-07T11:48:44Z</time>
      </trkpt>
      <trkpt lat="45.88659" lon="4.90333">
        <ele>293</ele>
        <time>2017-12-07T11:48:45Z</time>
      </trkpt>
      <trkpt lat="45.88659" lon="4.90327">
        <ele>293</ele>
        <time>2017-12-07T11:48:46Z</time>
      </trkpt>
      <trkpt lat="45.8866" lon="4.90321">
        <ele>293</ele>
        <time>2017-12-07T11:48:47Z</time>
      </trkpt>
      <trkpt lat="45.8866" lon="4.90314">
        <ele>293</ele>
        <time>2017-12-07T11:48:48Z</time>
      </trkpt>
      <trkpt lat="45.8866" lon="4.90302">
        <ele>293</ele>
        <time>2017-12-07T11:48:50Z</time>
      </trkpt>
      <trkpt lat="45.8866" lon="4.90295">
        <ele>293</ele>
        <time>2017-12-07T11:48:51Z</time>
      </trkpt>
      <trkpt lat="45.88661" lon="4.90288">
        <ele>293</ele>
        <time>2017-12-07T11:48:52Z</time>
      </trkpt>
      <trkpt lat="45.88661" lon="4.90281">
        <ele>293</ele>
        <time>2017-12-07T11:48:53Z</time>
      </trkpt>
      <trkpt lat="45.88661" lon="4.90274">
        <ele>293</ele>
        <time>2017-12-07T11:48:54Z</time>
      </trkpt>
      <trkpt lat="45.88661" lon="4.90267">
        <ele>293</ele>
        <time>2017-12-07T11:48:55Z</time>
      </trkpt>
      <trkpt lat="45.88661" lon="4.9026">
        <ele>293</ele>
        <time>2017-12-07T11:48:56Z</time>
      </trkpt>
      <trkpt lat="45.88661" lon="4.90253">
        <ele>293</ele>
        <time>2017-12-07T11:48:57Z</time>
      </trkpt>
      <trkpt lat="45.88661" lon="4.90241">
        <ele>293</ele>
        <time>2017-12-07T11:48:59Z</time>
      </trkpt>
      <trkpt lat="45.88661" lon="4.90235">
        <ele>293</ele>
        <time>2017-12-07T11:49:00Z</time>
      </trkpt>
      <trkpt lat="45.88662" lon="4.90222">
        <ele>294</ele>
        <time>2017-12-07T11:49:02Z</time>
      </trkpt>
      <trkpt lat="45.88661" lon="4.90216">
        <ele>294</ele>
        <time>2017-12-07T11:49:03Z</time>
      </trkpt>
      <trkpt lat="45.88663" lon="4.90208">
        <ele>294</ele>
        <time>2017-12-07T11:49:04Z</time>
      </trkpt>
      <trkpt lat="45.88663" lon="4.90201">
        <ele>294</ele>
        <time>2017-12-07T11:49:05Z</time>
      </trkpt>
      <trkpt lat="45.88662" lon="4.90189">
        <ele>294</ele>
        <time>2017-12-07T11:49:07Z</time>
      </trkpt>
      <trkpt lat="45.88662" lon="4.90183">
        <ele>294</ele>
        <time>2017-12-07T11:49:08Z</time>
      </trkpt>
      <trkpt lat="45.88662" lon="4.90176">
        <ele>294</ele>
        <time>2017-12-07T11:49:09Z</time>
      </trkpt>
      <trkpt lat="45.88662" lon="4.9017">
        <ele>294</ele>
        <time>2017-12-07T11:49:10Z</time>
      </trkpt>
      <trkpt lat="45.88661" lon="4.90158">
        <ele>294</ele>
        <time>2017-12-07T11:49:12Z</time>
      </trkpt>
      <trkpt lat="45.8866" lon="4.90152">
        <ele>294</ele>
        <time>2017-12-07T11:49:13Z</time>
      </trkpt>
      <trkpt lat="45.8866" lon="4.90146">
        <ele>294</ele>
        <time>2017-12-07T11:49:14Z</time>
      </trkpt>
      <trkpt lat="45.88659" lon="4.90139">
        <ele>294</ele>
        <time>2017-12-07T11:49:15Z</time>
      </trkpt>
      <trkpt lat="45.88657" lon="4.90126">
        <ele>294</ele>
        <time>2017-12-07T11:49:17Z</time>
      </trkpt>
      <trkpt lat="45.88657" lon="4.9012">
        <ele>295</ele>
        <time>2017-12-07T11:49:18Z</time>
      </trkpt>
      <trkpt lat="45.88656" lon="4.90114">
        <ele>294</ele>
        <time>2017-12-07T11:49:19Z</time>
      </trkpt>
      <trkpt lat="45.88656" lon="4.90107">
        <ele>294</ele>
        <time>2017-12-07T11:49:20Z</time>
      </trkpt>
      <trkpt lat="45.88655" lon="4.90095">
        <ele>294</ele>
        <time>2017-12-07T11:49:22Z</time>
      </trkpt>
      <trkpt lat="45.88655" lon="4.90089">
        <ele>294</ele>
        <time>2017-12-07T11:49:23Z</time>
      </trkpt>
      <trkpt lat="45.88652" lon="4.90077">
        <ele>294</ele>
        <time>2017-12-07T11:49:25Z</time>
      </trkpt>
      <trkpt lat="45.88651" lon="4.90071">
        <ele>295</ele>
        <time>2017-12-07T11:49:26Z</time>
      </trkpt>
      <trkpt lat="45.8865" lon="4.90058">
        <ele>295</ele>
        <time>2017-12-07T11:49:28Z</time>
      </trkpt>
      <trkpt lat="45.8865" lon="4.90052">
        <ele>295</ele>
        <time>2017-12-07T11:49:29Z</time>
      </trkpt>
      <trkpt lat="45.8865" lon="4.90043">
        <ele>295</ele>
        <time>2017-12-07T11:49:30Z</time>
      </trkpt>
      <trkpt lat="45.88649" lon="4.90036">
        <ele>295</ele>
        <time>2017-12-07T11:49:31Z</time>
      </trkpt>
      <trkpt lat="45.88647" lon="4.9003">
        <ele>295</ele>
        <time>2017-12-07T11:49:32Z</time>
      </trkpt>
      <trkpt lat="45.88645" lon="4.90024">
        <ele>295</ele>
        <time>2017-12-07T11:49:33Z</time>
      </trkpt>
      <trkpt lat="45.88643" lon="4.90012">
        <ele>295</ele>
        <time>2017-12-07T11:49:35Z</time>
      </trkpt>
      <trkpt lat="45.88642" lon="4.90008">
        <ele>295</ele>
        <time>2017-12-07T11:49:36Z</time>
      </trkpt>
      <trkpt lat="45.8864" lon="4.89996">
        <ele>295</ele>
        <time>2017-12-07T11:49:38Z</time>
      </trkpt>
      <trkpt lat="45.88639" lon="4.89991">
        <ele>295</ele>
        <time>2017-12-07T11:49:39Z</time>
      </trkpt>
      <trkpt lat="45.88637" lon="4.89979">
        <ele>295</ele>
        <time>2017-12-07T11:49:41Z</time>
      </trkpt>
      <trkpt lat="45.88636" lon="4.89973">
        <ele>295</ele>
        <time>2017-12-07T11:49:42Z</time>
      </trkpt>
      <trkpt lat="45.88633" lon="4.89962">
        <ele>295</ele>
        <time>2017-12-07T11:49:44Z</time>
      </trkpt>
      <trkpt lat="45.88632" lon="4.89956">
        <ele>295</ele>
        <time>2017-12-07T11:49:45Z</time>
      </trkpt>
      <trkpt lat="45.88629" lon="4.89944">
        <ele>295</ele>
        <time>2017-12-07T11:49:47Z</time>
      </trkpt>
      <trkpt lat="45.88628" lon="4.89939">
        <ele>295</ele>
        <time>2017-12-07T11:49:48Z</time>
      </trkpt>
      <trkpt lat="45.88625" lon="4.89929">
        <ele>295</ele>
        <time>2017-12-07T11:49:50Z</time>
      </trkpt>
      <trkpt lat="45.88623" lon="4.89923">
        <ele>295</ele>
        <time>2017-12-07T11:49:51Z</time>
      </trkpt>
      <trkpt lat="45.88619" lon="4.89913">
        <ele>296</ele>
        <time>2017-12-07T11:49:53Z</time>
      </trkpt>
      <trkpt lat="45.88617" lon="4.89909">
        <ele>296</ele>
        <time>2017-12-07T11:49:54Z</time>
      </trkpt>
      <trkpt lat="45.88609" lon="4.89903">
        <ele>296</ele>
        <time>2017-12-07T11:49:56Z</time>
      </trkpt>
      <trkpt lat="45.88605" lon="4.89903">
        <ele>296</ele>
        <time>2017-12-07T11:49:57Z</time>
      </trkpt>
      <trkpt lat="45.88597" lon="4.89903">
        <ele>296</ele>
        <time>2017-12-07T11:49:59Z</time>
      </trkpt>
      <trkpt lat="45.88592" lon="4.89905">
        <ele>296</ele>
        <time>2017-12-07T11:50:00Z</time>
      </trkpt>
      <trkpt lat="45.88584" lon="4.89908">
        <ele>297</ele>
        <time>2017-12-07T11:50:02Z</time>
      </trkpt>
      <trkpt lat="45.8858" lon="4.8991">
        <ele>298</ele>
        <time>2017-12-07T11:50:03Z</time>
      </trkpt>
      <trkpt lat="45.88573" lon="4.89913">
        <ele>298</ele>
        <time>2017-12-07T11:50:05Z</time>
      </trkpt>
      <trkpt lat="45.88569" lon="4.89913">
        <ele>298</ele>
        <time>2017-12-07T11:50:06Z</time>
      </trkpt>
      <trkpt lat="45.88562" lon="4.89914">
        <ele>298</ele>
        <time>2017-12-07T11:50:08Z</time>
      </trkpt>
      <trkpt lat="45.88559" lon="4.89915">
        <ele>299</ele>
        <time>2017-12-07T11:50:09Z</time>
      </trkpt>
      <trkpt lat="45.88552" lon="4.89915">
        <ele>299</ele>
        <time>2017-12-07T11:50:11Z</time>
      </trkpt>
      <trkpt lat="45.88549" lon="4.89916">
        <ele>299</ele>
        <time>2017-12-07T11:50:12Z</time>
      </trkpt>
      <trkpt lat="45.88542" lon="4.89917">
        <ele>299</ele>
        <time>2017-12-07T11:50:14Z</time>
      </trkpt>
      <trkpt lat="45.88539" lon="4.89918">
        <ele>300</ele>
        <time>2017-12-07T11:50:15Z</time>
      </trkpt>
      <trkpt lat="45.88531" lon="4.89923">
        <ele>300</ele>
        <time>2017-12-07T11:50:18Z</time>
      </trkpt>
      <trkpt lat="45.88528" lon="4.89924">
        <ele>300</ele>
        <time>2017-12-07T11:50:19Z</time>
      </trkpt>
      <trkpt lat="45.88522" lon="4.89926">
        <ele>300</ele>
        <time>2017-12-07T11:50:21Z</time>
      </trkpt>
      <trkpt lat="45.88519" lon="4.89926">
        <ele>301</ele>
        <time>2017-12-07T11:50:22Z</time>
      </trkpt>
      <trkpt lat="45.88513" lon="4.89927">
        <ele>301</ele>
        <time>2017-12-07T11:50:24Z</time>
      </trkpt>
      <trkpt lat="45.8851" lon="4.89927">
        <ele>301</ele>
        <time>2017-12-07T11:50:25Z</time>
      </trkpt>
      <trkpt lat="45.88502" lon="4.89928">
        <ele>302</ele>
        <time>2017-12-07T11:50:28Z</time>
      </trkpt>
      <trkpt lat="45.88499" lon="4.89928">
        <ele>303</ele>
        <time>2017-12-07T11:50:29Z</time>
      </trkpt>
      <trkpt lat="45.8849" lon="4.8993">
        <ele>303</ele>
        <time>2017-12-07T11:50:34Z</time>
      </trkpt>
      <trkpt lat="45.88488" lon="4.8993">
        <ele>303</ele>
        <time>2017-12-07T11:50:35Z</time>
      </trkpt>
      <trkpt lat="45.88479" lon="4.89934">
        <ele>303</ele>
        <time>2017-12-07T11:50:39Z</time>
      </trkpt>
      <trkpt lat="45.88477" lon="4.89935">
        <ele>303</ele>
        <time>2017-12-07T11:50:40Z</time>
      </trkpt>
      <trkpt lat="45.88471" lon="4.8994">
        <ele>303</ele>
        <time>2017-12-07T11:50:43Z</time>
      </trkpt>
      <trkpt lat="45.88468" lon="4.89941">
        <ele>303</ele>
        <time>2017-12-07T11:50:44Z</time>
      </trkpt>
      <trkpt lat="45.88461" lon="4.89945">
        <ele>303</ele>
        <time>2017-12-07T11:50:47Z</time>
      </trkpt>
      <trkpt lat="45.88459" lon="4.89947">
        <ele>303</ele>
        <time>2017-12-07T11:50:48Z</time>
      </trkpt>
      <trkpt lat="45.88451" lon="4.8995">
        <ele>303</ele>
        <time>2017-12-07T11:50:51Z</time>
      </trkpt>
      <trkpt lat="45.88448" lon="4.89951">
        <ele>303</ele>
        <time>2017-12-07T11:50:52Z</time>
      </trkpt>
      <trkpt lat="45.88439" lon="4.89955">
        <ele>303</ele>
        <time>2017-12-07T11:50:55Z</time>
      </trkpt>
      <trkpt lat="45.88436" lon="4.89956">
        <ele>303</ele>
        <time>2017-12-07T11:50:56Z</time>
      </trkpt>
      <trkpt lat="45.8843" lon="4.89958">
        <ele>303</ele>
        <time>2017-12-07T11:50:58Z</time>
      </trkpt>
      <trkpt lat="45.88427" lon="4.8996">
        <ele>303</ele>
        <time>2017-12-07T11:50:59Z</time>
      </trkpt>
      <trkpt lat="45.88421" lon="4.89962">
        <ele>303</ele>
        <time>2017-12-07T11:51:01Z</time>
      </trkpt>
      <trkpt lat="45.88419" lon="4.89964">
        <ele>303</ele>
        <time>2017-12-07T11:51:02Z</time>
      </trkpt>
      <trkpt lat="45.88413" lon="4.89966">
        <ele>304</ele>
        <time>2017-12-07T11:51:04Z</time>
      </trkpt>
      <trkpt lat="45.8841" lon="4.89968">
        <ele>304</ele>
        <time>2017-12-07T11:51:05Z</time>
      </trkpt>
      <trkpt lat="45.88402" lon="4.89974">
        <ele>304</ele>
        <time>2017-12-07T11:51:08Z</time>
      </trkpt>
      <trkpt lat="45.88399" lon="4.89975">
        <ele>304</ele>
        <time>2017-12-07T11:51:09Z</time>
      </trkpt>
      <trkpt lat="45.88391" lon="4.89977">
        <ele>304</ele>
        <time>2017-12-07T11:51:12Z</time>
      </trkpt>
      <trkpt lat="45.88388" lon="4.89978">
        <ele>304</ele>
        <time>2017-12-07T11:51:13Z</time>
      </trkpt>
      <trkpt lat="45.8838" lon="4.89982">
        <ele>304</ele>
        <time>2017-12-07T11:51:16Z</time>
      </trkpt>
      <trkpt lat="45.88377" lon="4.89983">
        <ele>304</ele>
        <time>2017-12-07T11:51:17Z</time>
      </trkpt>
      <trkpt lat="45.88369" lon="4.89987">
        <ele>304</ele>
        <time>2017-12-07T11:51:20Z</time>
      </trkpt>
      <trkpt lat="45.88367" lon="4.89988">
        <ele>304</ele>
        <time>2017-12-07T11:51:21Z</time>
      </trkpt>
      <trkpt lat="45.88359" lon="4.89992">
        <ele>304</ele>
        <time>2017-12-07T11:51:24Z</time>
      </trkpt>
      <trkpt lat="45.88357" lon="4.89993">
        <ele>304</ele>
        <time>2017-12-07T11:51:25Z</time>
      </trkpt>
      <trkpt lat="45.8835" lon="4.89997">
        <ele>305</ele>
        <time>2017-12-07T11:51:28Z</time>
      </trkpt>
      <trkpt lat="45.88347" lon="4.89998">
        <ele>305</ele>
        <time>2017-12-07T11:51:29Z</time>
      </trkpt>
      <trkpt lat="45.88341" lon="4.9">
        <ele>305</ele>
        <time>2017-12-07T11:51:31Z</time>
      </trkpt>
      <trkpt lat="45.88337" lon="4.90001">
        <ele>305</ele>
        <time>2017-12-07T11:51:32Z</time>
      </trkpt>
      <trkpt lat="45.8833" lon="4.90004">
        <ele>305</ele>
        <time>2017-12-07T11:51:34Z</time>
      </trkpt>
      <trkpt lat="45.88326" lon="4.90006">
        <ele>305</ele>
        <time>2017-12-07T11:51:35Z</time>
      </trkpt>
      <trkpt lat="45.88318" lon="4.9001">
        <ele>305</ele>
        <time>2017-12-07T11:51:37Z</time>
      </trkpt>
      <trkpt lat="45.88315" lon="4.90012">
        <ele>305</ele>
        <time>2017-12-07T11:51:38Z</time>
      </trkpt>
      <trkpt lat="45.88307" lon="4.90016">
        <ele>305</ele>
        <time>2017-12-07T11:51:40Z</time>
      </trkpt>
      <trkpt lat="45.88304" lon="4.90017">
        <ele>305</ele>
        <time>2017-12-07T11:51:41Z</time>
      </trkpt>
      <trkpt lat="45.88296" lon="4.90021">
        <ele>305</ele>
        <time>2017-12-07T11:51:43Z</time>
      </trkpt>
      <trkpt lat="45.88293" lon="4.90024">
        <ele>305</ele>
        <time>2017-12-07T11:51:44Z</time>
      </trkpt>
      <trkpt lat="45.88286" lon="4.9003">
        <ele>305</ele>
        <time>2017-12-07T11:51:46Z</time>
      </trkpt>
      <trkpt lat="45.88282" lon="4.90033">
        <ele>305</ele>
        <time>2017-12-07T11:51:47Z</time>
      </trkpt>
      <trkpt lat="45.88278" lon="4.90037">
        <ele>305</ele>
        <time>2017-12-07T11:51:48Z</time>
      </trkpt>
      <trkpt lat="45.88275" lon="4.90041">
        <ele>305</ele>
        <time>2017-12-07T11:51:49Z</time>
      </trkpt>
      <trkpt lat="45.88271" lon="4.90046">
        <ele>305</ele>
        <time>2017-12-07T11:51:50Z</time>
      </trkpt>
      <trkpt lat="45.88266" lon="4.90048">
        <ele>305</ele>
        <time>2017-12-07T11:51:51Z</time>
      </trkpt>
      <trkpt lat="45.88258" lon="4.90052">
        <ele>305</ele>
        <time>2017-12-07T11:51:53Z</time>
      </trkpt>
      <trkpt lat="45.88253" lon="4.90053">
        <ele>305</ele>
        <time>2017-12-07T11:51:54Z</time>
      </trkpt>
      <trkpt lat="45.88245" lon="4.90048">
        <ele>304</ele>
        <time>2017-12-07T11:51:56Z</time>
      </trkpt>
      <trkpt lat="45.88241" lon="4.90045">
        <ele>304</ele>
        <time>2017-12-07T11:51:57Z</time>
      </trkpt>
      <trkpt lat="45.88237" lon="4.90039">
        <ele>303</ele>
        <time>2017-12-07T11:51:58Z</time>
      </trkpt>
      <trkpt lat="45.88234" lon="4.90034">
        <ele>303</ele>
        <time>2017-12-07T11:51:59Z</time>
      </trkpt>
      <trkpt lat="45.8823" lon="4.90024">
        <ele>303</ele>
        <time>2017-12-07T11:52:01Z</time>
      </trkpt>
      <trkpt lat="45.88227" lon="4.90019">
        <ele>303</ele>
        <time>2017-12-07T11:52:02Z</time>
      </trkpt>
      <trkpt lat="45.8822" lon="4.90012">
        <ele>303</ele>
        <time>2017-12-07T11:52:04Z</time>
      </trkpt>
      <trkpt lat="45.88216" lon="4.90009">
        <ele>303</ele>
        <time>2017-12-07T11:52:05Z</time>
      </trkpt>
      <trkpt lat="45.88209" lon="4.90004">
        <ele>303</ele>
        <time>2017-12-07T11:52:07Z</time>
      </trkpt>
      <trkpt lat="45.88206" lon="4.89999">
        <ele>302</ele>
        <time>2017-12-07T11:52:08Z</time>
      </trkpt>
      <trkpt lat="45.88201" lon="4.89988">
        <ele>302</ele>
        <time>2017-12-07T11:52:10Z</time>
      </trkpt>
      <trkpt lat="45.882" lon="4.89981">
        <ele>302</ele>
        <time>2017-12-07T11:52:11Z</time>
      </trkpt>
      <trkpt lat="45.88199" lon="4.89974">
        <ele>301</ele>
        <time>2017-12-07T11:52:12Z</time>
      </trkpt>
      <trkpt lat="45.88198" lon="4.89967">
        <ele>301</ele>
        <time>2017-12-07T11:52:13Z</time>
      </trkpt>
      <trkpt lat="45.88197" lon="4.8996">
        <ele>301</ele>
        <time>2017-12-07T11:52:14Z</time>
      </trkpt>
      <trkpt lat="45.88197" lon="4.89954">
        <ele>301</ele>
        <time>2017-12-07T11:52:15Z</time>
      </trkpt>
      <trkpt lat="45.88196" lon="4.89946">
        <ele>301</ele>
        <time>2017-12-07T11:52:16Z</time>
      </trkpt>
      <trkpt lat="45.88196" lon="4.89938">
        <ele>301</ele>
        <time>2017-12-07T11:52:17Z</time>
      </trkpt>
      <trkpt lat="45.88197" lon="4.89927">
        <ele>301</ele>
        <time>2017-12-07T11:52:19Z</time>
      </trkpt>
      <trkpt lat="45.88197" lon="4.89921">
        <ele>301</ele>
        <time>2017-12-07T11:52:20Z</time>
      </trkpt>
      <trkpt lat="45.88197" lon="4.89909">
        <ele>301</ele>
        <time>2017-12-07T11:52:22Z</time>
      </trkpt>
      <trkpt lat="45.88197" lon="4.89902">
        <ele>301</ele>
        <time>2017-12-07T11:52:23Z</time>
      </trkpt>
      <trkpt lat="45.88196" lon="4.89897">
        <ele>301</ele>
        <time>2017-12-07T11:52:24Z</time>
      </trkpt>
      <trkpt lat="45.88195" lon="4.89889">
        <ele>301</ele>
        <time>2017-12-07T11:52:25Z</time>
      </trkpt>
      <trkpt lat="45.88193" lon="4.89881">
        <ele>301</ele>
        <time>2017-12-07T11:52:26Z</time>
      </trkpt>
      <trkpt lat="45.88194" lon="4.89873">
        <ele>301</ele>
        <time>2017-12-07T11:52:27Z</time>
      </trkpt>
      <trkpt lat="45.88195" lon="4.89865">
        <ele>301</ele>
        <time>2017-12-07T11:52:28Z</time>
      </trkpt>
      <trkpt lat="45.88194" lon="4.89858">
        <ele>301</ele>
        <time>2017-12-07T11:52:29Z</time>
      </trkpt>
      <trkpt lat="45.88194" lon="4.89847">
        <ele>301</ele>
        <time>2017-12-07T11:52:31Z</time>
      </trkpt>
      <trkpt lat="45.88195" lon="4.89842">
        <ele>301</ele>
        <time>2017-12-07T11:52:32Z</time>
      </trkpt>
      <trkpt lat="45.88195" lon="4.8983">
        <ele>300</ele>
        <time>2017-12-07T11:52:34Z</time>
      </trkpt>
      <trkpt lat="45.88195" lon="4.89824">
        <ele>300</ele>
        <time>2017-12-07T11:52:35Z</time>
      </trkpt>
      <trkpt lat="45.88196" lon="4.89817">
        <ele>300</ele>
        <time>2017-12-07T11:52:36Z</time>
      </trkpt>
      <trkpt lat="45.88197" lon="4.89811">
        <ele>300</ele>
        <time>2017-12-07T11:52:37Z</time>
      </trkpt>
      <trkpt lat="45.88198" lon="4.89799">
        <ele>300</ele>
        <time>2017-12-07T11:52:39Z</time>
      </trkpt>
      <trkpt lat="45.88198" lon="4.89793">
        <ele>300</ele>
        <time>2017-12-07T11:52:40Z</time>
      </trkpt>
      <trkpt lat="45.88199" lon="4.89786">
        <ele>300</ele>
        <time>2017-12-07T11:52:41Z</time>
      </trkpt>
      <trkpt lat="45.88199" lon="4.8978">
        <ele>300</ele>
        <time>2017-12-07T11:52:42Z</time>
      </trkpt>
      <trkpt lat="45.88199" lon="4.89767">
        <ele>300</ele>
        <time>2017-12-07T11:52:44Z</time>
      </trkpt>
      <trkpt lat="45.88198" lon="4.8976">
        <ele>300</ele>
        <time>2017-12-07T11:52:45Z</time>
      </trkpt>
      <trkpt lat="45.88198" lon="4.89751">
        <ele>300</ele>
        <time>2017-12-07T11:52:46Z</time>
      </trkpt>
      <trkpt lat="45.88197" lon="4.89745">
        <ele>299</ele>
        <time>2017-12-07T11:52:47Z</time>
      </trkpt>
      <trkpt lat="45.88197" lon="4.89738">
        <ele>299</ele>
        <time>2017-12-07T11:52:48Z</time>
      </trkpt>
      <trkpt lat="45.88196" lon="4.89732">
        <ele>299</ele>
        <time>2017-12-07T11:52:49Z</time>
      </trkpt>
      <trkpt lat="45.88195" lon="4.89724">
        <ele>299</ele>
        <time>2017-12-07T11:52:50Z</time>
      </trkpt>
      <trkpt lat="45.88196" lon="4.89716">
        <ele>299</ele>
        <time>2017-12-07T11:52:51Z</time>
      </trkpt>
      <trkpt lat="45.88195" lon="4.89708">
        <ele>299</ele>
        <time>2017-12-07T11:52:52Z</time>
      </trkpt>
      <trkpt lat="45.88195" lon="4.89701">
        <ele>299</ele>
        <time>2017-12-07T11:52:53Z</time>
      </trkpt>
      <trkpt lat="45.88195" lon="4.89689">
        <ele>299</ele>
        <time>2017-12-07T11:52:55Z</time>
      </trkpt>
      <trkpt lat="45.88196" lon="4.89683">
        <ele>299</ele>
        <time>2017-12-07T11:52:56Z</time>
      </trkpt>
      <trkpt lat="45.88196" lon="4.8967">
        <ele>299</ele>
        <time>2017-12-07T11:52:58Z</time>
      </trkpt>
      <trkpt lat="45.88196" lon="4.89664">
        <ele>299</ele>
        <time>2017-12-07T11:52:59Z</time>
      </trkpt>
      <trkpt lat="45.88197" lon="4.89652">
        <ele>299</ele>
        <time>2017-12-07T11:53:01Z</time>
      </trkpt>
      <trkpt lat="45.88197" lon="4.89645">
        <ele>299</ele>
        <time>2017-12-07T11:53:02Z</time>
      </trkpt>
      <trkpt lat="45.88196" lon="4.89632">
        <ele>299</ele>
        <time>2017-12-07T11:53:04Z</time>
      </trkpt>
      <trkpt lat="45.88195" lon="4.89625">
        <ele>299</ele>
        <time>2017-12-07T11:53:05Z</time>
      </trkpt>
      <trkpt lat="45.88195" lon="4.89617">
        <ele>299</ele>
        <time>2017-12-07T11:53:06Z</time>
      </trkpt>
      <trkpt lat="45.88195" lon="4.8961">
        <ele>299</ele>
        <time>2017-12-07T11:53:07Z</time>
      </trkpt>
      <trkpt lat="45.88195" lon="4.89602">
        <ele>299</ele>
        <time>2017-12-07T11:53:08Z</time>
      </trkpt>
      <trkpt lat="45.88195" lon="4.89595">
        <ele>299</ele>
        <time>2017-12-07T11:53:09Z</time>
      </trkpt>
      <trkpt lat="45.88195" lon="4.89588">
        <ele>299</ele>
        <time>2017-12-07T11:53:10Z</time>
      </trkpt>
      <trkpt lat="45.88196" lon="4.8958">
        <ele>298</ele>
        <time>2017-12-07T11:53:11Z</time>
      </trkpt>
      <trkpt lat="45.88195" lon="4.89571">
        <ele>298</ele>
        <time>2017-12-07T11:53:12Z</time>
      </trkpt>
      <trkpt lat="45.88196" lon="4.89563">
        <ele>298</ele>
        <time>2017-12-07T11:53:13Z</time>
      </trkpt>
      <trkpt lat="45.88197" lon="4.89554">
        <ele>298</ele>
        <time>2017-12-07T11:53:14Z</time>
      </trkpt>
      <trkpt lat="45.88197" lon="4.89545">
        <ele>298</ele>
        <time>2017-12-07T11:53:15Z</time>
      </trkpt>
      <trkpt lat="45.88198" lon="4.89535">
        <ele>298</ele>
        <time>2017-12-07T11:53:16Z</time>
      </trkpt>
      <trkpt lat="45.88199" lon="4.89526">
        <ele>298</ele>
        <time>2017-12-07T11:53:17Z</time>
      </trkpt>
      <trkpt lat="45.88199" lon="4.89517">
        <ele>298</ele>
        <time>2017-12-07T11:53:18Z</time>
      </trkpt>
      <trkpt lat="45.88198" lon="4.89507">
        <ele>298</ele>
        <time>2017-12-07T11:53:19Z</time>
      </trkpt>
      <trkpt lat="45.88198" lon="4.89497">
        <ele>297</ele>
        <time>2017-12-07T11:53:20Z</time>
      </trkpt>
      <trkpt lat="45.88198" lon="4.89487">
        <ele>297</ele>
        <time>2017-12-07T11:53:21Z</time>
      </trkpt>
      <trkpt lat="45.88198" lon="4.89476">
        <ele>297</ele>
        <time>2017-12-07T11:53:22Z</time>
      </trkpt>
      <trkpt lat="45.88198" lon="4.89466">
        <ele>297</ele>
        <time>2017-12-07T11:53:23Z</time>
      </trkpt>
      <trkpt lat="45.88198" lon="4.89456">
        <ele>297</ele>
        <time>2017-12-07T11:53:24Z</time>
      </trkpt>
      <trkpt lat="45.88198" lon="4.89446">
        <ele>297</ele>
        <time>2017-12-07T11:53:25Z</time>
      </trkpt>
      <trkpt lat="45.882" lon="4.89436">
        <ele>297</ele>
        <time>2017-12-07T11:53:26Z</time>
      </trkpt>
      <trkpt lat="45.882" lon="4.89427">
        <ele>297</ele>
        <time>2017-12-07T11:53:27Z</time>
      </trkpt>
      <trkpt lat="45.882" lon="4.89417">
        <ele>297</ele>
        <time>2017-12-07T11:53:28Z</time>
      </trkpt>
      <trkpt lat="45.882" lon="4.89407">
        <ele>297</ele>
        <time>2017-12-07T11:53:29Z</time>
      </trkpt>
      <trkpt lat="45.882" lon="4.89397">
        <ele>297</ele>
        <time>2017-12-07T11:53:30Z</time>
      </trkpt>
      <trkpt lat="45.88201" lon="4.89388">
        <ele>297</ele>
        <time>2017-12-07T11:53:31Z</time>
      </trkpt>
      <trkpt lat="45.88203" lon="4.89378">
        <ele>297</ele>
        <time>2017-12-07T11:53:32Z</time>
      </trkpt>
      <trkpt lat="45.88203" lon="4.89369">
        <ele>297</ele>
        <time>2017-12-07T11:53:33Z</time>
      </trkpt>
      <trkpt lat="45.88204" lon="4.89361">
        <ele>297</ele>
        <time>2017-12-07T11:53:34Z</time>
      </trkpt>
      <trkpt lat="45.88204" lon="4.89354">
        <ele>297</ele>
        <time>2017-12-07T11:53:35Z</time>
      </trkpt>
      <trkpt lat="45.88205" lon="4.89346">
        <ele>297</ele>
        <time>2017-12-07T11:53:36Z</time>
      </trkpt>
      <trkpt lat="45.88205" lon="4.89338">
        <ele>297</ele>
        <time>2017-12-07T11:53:37Z</time>
      </trkpt>
      <trkpt lat="45.88206" lon="4.89331">
        <ele>296</ele>
        <time>2017-12-07T11:53:38Z</time>
      </trkpt>
      <trkpt lat="45.88206" lon="4.89324">
        <ele>296</ele>
        <time>2017-12-07T11:53:39Z</time>
      </trkpt>
      <trkpt lat="45.88207" lon="4.89316">
        <ele>296</ele>
        <time>2017-12-07T11:53:40Z</time>
      </trkpt>
      <trkpt lat="45.88207" lon="4.89308">
        <ele>296</ele>
        <time>2017-12-07T11:53:41Z</time>
      </trkpt>
      <trkpt lat="45.88207" lon="4.893">
        <ele>296</ele>
        <time>2017-12-07T11:53:42Z</time>
      </trkpt>
      <trkpt lat="45.88208" lon="4.89293">
        <ele>296</ele>
        <time>2017-12-07T11:53:43Z</time>
      </trkpt>
      <trkpt lat="45.88207" lon="4.89286">
        <ele>296</ele>
        <time>2017-12-07T11:53:44Z</time>
      </trkpt>
      <trkpt lat="45.88208" lon="4.89278">
        <ele>296</ele>
        <time>2017-12-07T11:53:45Z</time>
      </trkpt>
      <trkpt lat="45.88208" lon="4.89271">
        <ele>296</ele>
        <time>2017-12-07T11:53:46Z</time>
      </trkpt>
      <trkpt lat="45.88208" lon="4.89263">
        <ele>297</ele>
        <time>2017-12-07T11:53:47Z</time>
      </trkpt>
      <trkpt lat="45.88209" lon="4.89255">
        <ele>297</ele>
        <time>2017-12-07T11:53:48Z</time>
      </trkpt>
      <trkpt lat="45.88209" lon="4.89246">
        <ele>296</ele>
        <time>2017-12-07T11:53:49Z</time>
      </trkpt>
      <trkpt lat="45.8821" lon="4.89238">
        <ele>296</ele>
        <time>2017-12-07T11:53:50Z</time>
      </trkpt>
      <trkpt lat="45.8821" lon="4.89229">
        <ele>296</ele>
        <time>2017-12-07T11:53:51Z</time>
      </trkpt>
      <trkpt lat="45.88211" lon="4.8922">
        <ele>296</ele>
        <time>2017-12-07T11:53:52Z</time>
      </trkpt>
      <trkpt lat="45.88211" lon="4.89211">
        <ele>296</ele>
        <time>2017-12-07T11:53:53Z</time>
      </trkpt>
      <trkpt lat="45.88212" lon="4.89202">
        <ele>296</ele>
        <time>2017-12-07T11:53:54Z</time>
      </trkpt>
      <trkpt lat="45.88212" lon="4.89193">
        <ele>296</ele>
        <time>2017-12-07T11:53:55Z</time>
      </trkpt>
      <trkpt lat="45.88212" lon="4.89184">
        <ele>296</ele>
        <time>2017-12-07T11:53:56Z</time>
      </trkpt>
      <trkpt lat="45.88213" lon="4.89176">
        <ele>296</ele>
        <time>2017-12-07T11:53:57Z</time>
      </trkpt>
      <trkpt lat="45.88213" lon="4.89168">
        <ele>296</ele>
        <time>2017-12-07T11:53:58Z</time>
      </trkpt>
      <trkpt lat="45.88214" lon="4.89159">
        <ele>295</ele>
        <time>2017-12-07T11:53:59Z</time>
      </trkpt>
      <trkpt lat="45.88215" lon="4.8915">
        <ele>295</ele>
        <time>2017-12-07T11:54:00Z</time>
      </trkpt>
      <trkpt lat="45.88215" lon="4.89142">
        <ele>294</ele>
        <time>2017-12-07T11:54:01Z</time>
      </trkpt>
      <trkpt lat="45.88216" lon="4.89134">
        <ele>294</ele>
        <time>2017-12-07T11:54:02Z</time>
      </trkpt>
      <trkpt lat="45.88217" lon="4.89126">
        <ele>294</ele>
        <time>2017-12-07T11:54:03Z</time>
      </trkpt>
      <trkpt lat="45.88217" lon="4.89117">
        <ele>294</ele>
        <time>2017-12-07T11:54:04Z</time>
      </trkpt>
      <trkpt lat="45.88217" lon="4.89109">
        <ele>294</ele>
        <time>2017-12-07T11:54:05Z</time>
      </trkpt>
      <trkpt lat="45.88218" lon="4.89101">
        <ele>294</ele>
        <time>2017-12-07T11:54:06Z</time>
      </trkpt>
      <trkpt lat="45.88219" lon="4.89092">
        <ele>294</ele>
        <time>2017-12-07T11:54:07Z</time>
      </trkpt>
      <trkpt lat="45.88219" lon="4.89084">
        <ele>294</ele>
        <time>2017-12-07T11:54:08Z</time>
      </trkpt>
      <trkpt lat="45.88219" lon="4.89077">
        <ele>293</ele>
        <time>2017-12-07T11:54:09Z</time>
      </trkpt>
      <trkpt lat="45.8822" lon="4.89069">
        <ele>293</ele>
        <time>2017-12-07T11:54:10Z</time>
      </trkpt>
      <trkpt lat="45.88221" lon="4.89062">
        <ele>293</ele>
        <time>2017-12-07T11:54:11Z</time>
      </trkpt>
      <trkpt lat="45.88221" lon="4.89054">
        <ele>293</ele>
        <time>2017-12-07T11:54:12Z</time>
      </trkpt>
      <trkpt lat="45.88222" lon="4.89047">
        <ele>293</ele>
        <time>2017-12-07T11:54:13Z</time>
      </trkpt>
      <trkpt lat="45.88223" lon="4.8904">
        <ele>293</ele>
        <time>2017-12-07T11:54:14Z</time>
      </trkpt>
      <trkpt lat="45.88223" lon="4.89033">
        <ele>293</ele>
        <time>2017-12-07T11:54:15Z</time>
      </trkpt>
      <trkpt lat="45.88224" lon="4.89026">
        <ele>293</ele>
        <time>2017-12-07T11:54:16Z</time>
      </trkpt>
      <trkpt lat="45.88225" lon="4.89018">
        <ele>293</ele>
        <time>2017-12-07T11:54:17Z</time>
      </trkpt>
      <trkpt lat="45.88226" lon="4.8901">
        <ele>293</ele>
        <time>2017-12-07T11:54:18Z</time>
      </trkpt>
      <trkpt lat="45.88226" lon="4.89002">
        <ele>293</ele>
        <time>2017-12-07T11:54:19Z</time>
      </trkpt>
      <trkpt lat="45.88227" lon="4.88994">
        <ele>293</ele>
        <time>2017-12-07T11:54:20Z</time>
      </trkpt>
      <trkpt lat="45.88228" lon="4.88985">
        <ele>293</ele>
        <time>2017-12-07T11:54:21Z</time>
      </trkpt>
      <trkpt lat="45.88228" lon="4.88977">
        <ele>293</ele>
        <time>2017-12-07T11:54:22Z</time>
      </trkpt>
      <trkpt lat="45.88229" lon="4.88968">
        <ele>293</ele>
        <time>2017-12-07T11:54:23Z</time>
      </trkpt>
      <trkpt lat="45.8823" lon="4.88959">
        <ele>293</ele>
        <time>2017-12-07T11:54:24Z</time>
      </trkpt>
      <trkpt lat="45.8823" lon="4.88951">
        <ele>293</ele>
        <time>2017-12-07T11:54:25Z</time>
      </trkpt>
      <trkpt lat="45.88231" lon="4.88943">
        <ele>293</ele>
        <time>2017-12-07T11:54:26Z</time>
      </trkpt>
      <trkpt lat="45.88231" lon="4.88932">
        <ele>292</ele>
        <time>2017-12-07T11:54:27Z</time>
      </trkpt>
      <trkpt lat="45.88232" lon="4.88923">
        <ele>292</ele>
        <time>2017-12-07T11:54:28Z</time>
      </trkpt>
      <trkpt lat="45.88233" lon="4.88913">
        <ele>293</ele>
        <time>2017-12-07T11:54:29Z</time>
      </trkpt>
      <trkpt lat="45.88234" lon="4.88904">
        <ele>293</ele>
        <time>2017-12-07T11:54:30Z</time>
      </trkpt>
      <trkpt lat="45.88235" lon="4.88894">
        <ele>293</ele>
        <time>2017-12-07T11:54:31Z</time>
      </trkpt>
      <trkpt lat="45.88235" lon="4.88885">
        <ele>293</ele>
        <time>2017-12-07T11:54:32Z</time>
      </trkpt>
      <trkpt lat="45.88236" lon="4.88876">
        <ele>293</ele>
        <time>2017-12-07T11:54:33Z</time>
      </trkpt>
      <trkpt lat="45.88237" lon="4.88868">
        <ele>293</ele>
        <time>2017-12-07T11:54:34Z</time>
      </trkpt>
      <trkpt lat="45.88238" lon="4.8886">
        <ele>294</ele>
        <time>2017-12-07T11:54:35Z</time>
      </trkpt>
      <trkpt lat="45.88239" lon="4.88852">
        <ele>294</ele>
        <time>2017-12-07T11:54:36Z</time>
      </trkpt>
      <trkpt lat="45.8824" lon="4.88843">
        <ele>294</ele>
        <time>2017-12-07T11:54:37Z</time>
      </trkpt>
      <trkpt lat="45.8824" lon="4.88836">
        <ele>294</ele>
        <time>2017-12-07T11:54:38Z</time>
      </trkpt>
      <trkpt lat="45.88241" lon="4.88828">
        <ele>294</ele>
        <time>2017-12-07T11:54:39Z</time>
      </trkpt>
      <trkpt lat="45.88241" lon="4.88821">
        <ele>294</ele>
        <time>2017-12-07T11:54:40Z</time>
      </trkpt>
      <trkpt lat="45.88241" lon="4.88815">
        <ele>294</ele>
        <time>2017-12-07T11:54:41Z</time>
      </trkpt>
      <trkpt lat="45.88241" lon="4.88808">
        <ele>294</ele>
        <time>2017-12-07T11:54:42Z</time>
      </trkpt>
      <trkpt lat="45.88242" lon="4.88802">
        <ele>294</ele>
        <time>2017-12-07T11:54:43Z</time>
      </trkpt>
      <trkpt lat="45.88242" lon="4.88794">
        <ele>294</ele>
        <time>2017-12-07T11:54:44Z</time>
      </trkpt>
      <trkpt lat="45.88242" lon="4.88787">
        <ele>294</ele>
        <time>2017-12-07T11:54:45Z</time>
      </trkpt>
      <trkpt lat="45.88243" lon="4.88779">
        <ele>294</ele>
        <time>2017-12-07T11:54:46Z</time>
      </trkpt>
      <trkpt lat="45.88244" lon="4.88771">
        <ele>294</ele>
        <time>2017-12-07T11:54:47Z</time>
      </trkpt>
      <trkpt lat="45.88245" lon="4.88762">
        <ele>294</ele>
        <time>2017-12-07T11:54:48Z</time>
      </trkpt>
      <trkpt lat="45.88246" lon="4.88755">
        <ele>294</ele>
        <time>2017-12-07T11:54:49Z</time>
      </trkpt>
      <trkpt lat="45.88246" lon="4.88746">
        <ele>294</ele>
        <time>2017-12-07T11:54:50Z</time>
      </trkpt>
      <trkpt lat="45.88247" lon="4.88737">
        <ele>295</ele>
        <time>2017-12-07T11:54:51Z</time>
      </trkpt>
      <trkpt lat="45.88248" lon="4.88729">
        <ele>295</ele>
        <time>2017-12-07T11:54:52Z</time>
      </trkpt>
      <trkpt lat="45.88248" lon="4.88721">
        <ele>295</ele>
        <time>2017-12-07T11:54:53Z</time>
      </trkpt>
      <trkpt lat="45.88249" lon="4.88713">
        <ele>295</ele>
        <time>2017-12-07T11:54:54Z</time>
      </trkpt>
      <trkpt lat="45.8825" lon="4.88706">
        <ele>295</ele>
        <time>2017-12-07T11:54:55Z</time>
      </trkpt>
      <trkpt lat="45.88251" lon="4.88693">
        <ele>294</ele>
        <time>2017-12-07T11:54:57Z</time>
      </trkpt>
      <trkpt lat="45.88252" lon="4.88686">
        <ele>294</ele>
        <time>2017-12-07T11:54:58Z</time>
      </trkpt>
      <trkpt lat="45.88253" lon="4.8868">
        <ele>294</ele>
        <time>2017-12-07T11:54:59Z</time>
      </trkpt>
      <trkpt lat="45.88253" lon="4.88673">
        <ele>295</ele>
        <time>2017-12-07T11:55:00Z</time>
      </trkpt>
      <trkpt lat="45.88252" lon="4.88666">
        <ele>295</ele>
        <time>2017-12-07T11:55:01Z</time>
      </trkpt>
      <trkpt lat="45.88252" lon="4.88659">
        <ele>295</ele>
        <time>2017-12-07T11:55:02Z</time>
      </trkpt>
      <trkpt lat="45.88253" lon="4.88651">
        <ele>295</ele>
        <time>2017-12-07T11:55:03Z</time>
      </trkpt>
      <trkpt lat="45.88253" lon="4.88645">
        <ele>294</ele>
        <time>2017-12-07T11:55:04Z</time>
      </trkpt>
      <trkpt lat="45.88254" lon="4.88638">
        <ele>294</ele>
        <time>2017-12-07T11:55:05Z</time>
      </trkpt>
      <trkpt lat="45.88254" lon="4.8863">
        <ele>294</ele>
        <time>2017-12-07T11:55:06Z</time>
      </trkpt>
      <trkpt lat="45.88255" lon="4.88622">
        <ele>294</ele>
        <time>2017-12-07T11:55:07Z</time>
      </trkpt>
      <trkpt lat="45.88255" lon="4.88614">
        <ele>294</ele>
        <time>2017-12-07T11:55:08Z</time>
      </trkpt>
      <trkpt lat="45.88256" lon="4.88606">
        <ele>294</ele>
        <time>2017-12-07T11:55:09Z</time>
      </trkpt>
      <trkpt lat="45.88257" lon="4.88598">
        <ele>295</ele>
        <time>2017-12-07T11:55:10Z</time>
      </trkpt>
      <trkpt lat="45.88257" lon="4.88589">
        <ele>295</ele>
        <time>2017-12-07T11:55:11Z</time>
      </trkpt>
      <trkpt lat="45.88257" lon="4.88581">
        <ele>295</ele>
        <time>2017-12-07T11:55:12Z</time>
      </trkpt>
      <trkpt lat="45.88259" lon="4.88573">
        <ele>295</ele>
        <time>2017-12-07T11:55:13Z</time>
      </trkpt>
      <trkpt lat="45.88259" lon="4.88565">
        <ele>295</ele>
        <time>2017-12-07T11:55:14Z</time>
      </trkpt>
      <trkpt lat="45.8826" lon="4.88556">
        <ele>295</ele>
        <time>2017-12-07T11:55:15Z</time>
      </trkpt>
      <trkpt lat="45.88261" lon="4.88548">
        <ele>294</ele>
        <time>2017-12-07T11:55:16Z</time>
      </trkpt>
      <trkpt lat="45.8826" lon="4.8854">
        <ele>294</ele>
        <time>2017-12-07T11:55:17Z</time>
      </trkpt>
      <trkpt lat="45.8826" lon="4.88532">
        <ele>295</ele>
        <time>2017-12-07T11:55:18Z</time>
      </trkpt>
      <trkpt lat="45.88262" lon="4.88525">
        <ele>295</ele>
        <time>2017-12-07T11:55:19Z</time>
      </trkpt>
      <trkpt lat="45.88263" lon="4.88516">
        <ele>295</ele>
        <time>2017-12-07T11:55:20Z</time>
      </trkpt>
      <trkpt lat="45.88264" lon="4.88504">
        <ele>295</ele>
        <time>2017-12-07T11:55:22Z</time>
      </trkpt>
      <trkpt lat="45.88264" lon="4.88497">
        <ele>295</ele>
        <time>2017-12-07T11:55:23Z</time>
      </trkpt>
      <trkpt lat="45.88265" lon="4.8849">
        <ele>295</ele>
        <time>2017-12-07T11:55:24Z</time>
      </trkpt>
      <trkpt lat="45.88264" lon="4.88482">
        <ele>295</ele>
        <time>2017-12-07T11:55:25Z</time>
      </trkpt>
      <trkpt lat="45.88265" lon="4.88475">
        <ele>295</ele>
        <time>2017-12-07T11:55:26Z</time>
      </trkpt>
      <trkpt lat="45.88266" lon="4.88467">
        <ele>295</ele>
        <time>2017-12-07T11:55:27Z</time>
      </trkpt>
      <trkpt lat="45.88267" lon="4.8846">
        <ele>295</ele>
        <time>2017-12-07T11:55:28Z</time>
      </trkpt>
      <trkpt lat="45.88268" lon="4.88453">
        <ele>295</ele>
        <time>2017-12-07T11:55:29Z</time>
      </trkpt>
      <trkpt lat="45.88269" lon="4.88445">
        <ele>295</ele>
        <time>2017-12-07T11:55:30Z</time>
      </trkpt>
      <trkpt lat="45.8827" lon="4.88439">
        <ele>295</ele>
        <time>2017-12-07T11:55:31Z</time>
      </trkpt>
      <trkpt lat="45.8827" lon="4.88432">
        <ele>295</ele>
        <time>2017-12-07T11:55:32Z</time>
      </trkpt>
      <trkpt lat="45.88269" lon="4.88425">
        <ele>295</ele>
        <time>2017-12-07T11:55:33Z</time>
      </trkpt>
      <trkpt lat="45.88269" lon="4.88418">
        <ele>295</ele>
        <time>2017-12-07T11:55:34Z</time>
      </trkpt>
      <trkpt lat="45.8827" lon="4.88409">
        <ele>295</ele>
        <time>2017-12-07T11:55:35Z</time>
      </trkpt>
      <trkpt lat="45.88271" lon="4.88401">
        <ele>296</ele>
        <time>2017-12-07T11:55:36Z</time>
      </trkpt>
      <trkpt lat="45.88274" lon="4.88394">
        <ele>296</ele>
        <time>2017-12-07T11:55:37Z</time>
      </trkpt>
      <trkpt lat="45.88274" lon="4.88388">
        <ele>296</ele>
        <time>2017-12-07T11:55:38Z</time>
      </trkpt>
      <trkpt lat="45.88276" lon="4.88382">
        <ele>296</ele>
        <time>2017-12-07T11:55:39Z</time>
      </trkpt>
      <trkpt lat="45.88279" lon="4.88376">
        <ele>296</ele>
        <time>2017-12-07T11:55:40Z</time>
      </trkpt>
      <trkpt lat="45.88282" lon="4.8837">
        <ele>296</ele>
        <time>2017-12-07T11:55:41Z</time>
      </trkpt>
      <trkpt lat="45.88285" lon="4.88365">
        <ele>296</ele>
        <time>2017-12-07T11:55:42Z</time>
      </trkpt>
      <trkpt lat="45.88287" lon="4.88359">
        <ele>296</ele>
        <time>2017-12-07T11:55:43Z</time>
      </trkpt>
      <trkpt lat="45.88289" lon="4.88353">
        <ele>296</ele>
        <time>2017-12-07T11:55:44Z</time>
      </trkpt>
      <trkpt lat="45.88291" lon="4.88346">
        <ele>296</ele>
        <time>2017-12-07T11:55:45Z</time>
      </trkpt>
      <trkpt lat="45.88291" lon="4.88339">
        <ele>296</ele>
        <time>2017-12-07T11:55:46Z</time>
      </trkpt>
      <trkpt lat="45.88291" lon="4.88332">
        <ele>296</ele>
        <time>2017-12-07T11:55:47Z</time>
      </trkpt>
      <trkpt lat="45.88287" lon="4.88324">
        <ele>296</ele>
        <time>2017-12-07T11:55:48Z</time>
      </trkpt>
      <trkpt lat="45.88284" lon="4.88319">
        <ele>296</ele>
        <time>2017-12-07T11:55:49Z</time>
      </trkpt>
      <trkpt lat="45.88282" lon="4.88313">
        <ele>296</ele>
        <time>2017-12-07T11:55:50Z</time>
      </trkpt>
      <trkpt lat="45.88279" lon="4.88307">
        <ele>296</ele>
        <time>2017-12-07T11:55:51Z</time>
      </trkpt>
      <trkpt lat="45.88275" lon="4.88296">
        <ele>296</ele>
        <time>2017-12-07T11:55:53Z</time>
      </trkpt>
      <trkpt lat="45.88275" lon="4.88289">
        <ele>296</ele>
        <time>2017-12-07T11:55:54Z</time>
      </trkpt>
      <trkpt lat="45.88276" lon="4.88282">
        <ele>296</ele>
        <time>2017-12-07T11:55:55Z</time>
      </trkpt>
      <trkpt lat="45.88276" lon="4.88275">
        <ele>296</ele>
        <time>2017-12-07T11:55:56Z</time>
      </trkpt>
      <trkpt lat="45.88277" lon="4.88268">
        <ele>296</ele>
        <time>2017-12-07T11:55:57Z</time>
      </trkpt>
      <trkpt lat="45.88277" lon="4.88262">
        <ele>296</ele>
        <time>2017-12-07T11:55:58Z</time>
      </trkpt>
      <trkpt lat="45.88279" lon="4.8825">
        <ele>296</ele>
        <time>2017-12-07T11:56:00Z</time>
      </trkpt>
      <trkpt lat="45.88278" lon="4.88245">
        <ele>296</ele>
        <time>2017-12-07T11:56:01Z</time>
      </trkpt>
      <trkpt lat="45.88278" lon="4.88233">
        <ele>296</ele>
        <time>2017-12-07T11:56:03Z</time>
      </trkpt>
      <trkpt lat="45.88278" lon="4.88228">
        <ele>296</ele>
        <time>2017-12-07T11:56:04Z</time>
      </trkpt>
      <trkpt lat="45.88277" lon="4.88216">
        <ele>296</ele>
        <time>2017-12-07T11:56:06Z</time>
      </trkpt>
      <trkpt lat="45.88278" lon="4.8821">
        <ele>296</ele>
        <time>2017-12-07T11:56:07Z</time>
      </trkpt>
      <trkpt lat="45.88278" lon="4.88199">
        <ele>296</ele>
        <time>2017-12-07T11:56:09Z</time>
      </trkpt>
      <trkpt lat="45.88278" lon="4.88191">
        <ele>296</ele>
        <time>2017-12-07T11:56:10Z</time>
      </trkpt>
      <trkpt lat="45.88277" lon="4.88179">
        <ele>296</ele>
        <time>2017-12-07T11:56:12Z</time>
      </trkpt>
      <trkpt lat="45.88277" lon="4.88174">
        <ele>296</ele>
        <time>2017-12-07T11:56:13Z</time>
      </trkpt>
      <trkpt lat="45.88277" lon="4.88162">
        <ele>296</ele>
        <time>2017-12-07T11:56:15Z</time>
      </trkpt>
      <trkpt lat="45.88277" lon="4.88156">
        <ele>296</ele>
        <time>2017-12-07T11:56:16Z</time>
      </trkpt>
      <trkpt lat="45.88277" lon="4.88149">
        <ele>296</ele>
        <time>2017-12-07T11:56:17Z</time>
      </trkpt>
      <trkpt lat="45.88277" lon="4.88142">
        <ele>295</ele>
        <time>2017-12-07T11:56:18Z</time>
      </trkpt>
      <trkpt lat="45.88277" lon="4.8813">
        <ele>295</ele>
        <time>2017-12-07T11:56:20Z</time>
      </trkpt>
      <trkpt lat="45.88276" lon="4.88125">
        <ele>295</ele>
        <time>2017-12-07T11:56:21Z</time>
      </trkpt>
      <trkpt lat="45.88275" lon="4.88115">
        <ele>295</ele>
        <time>2017-12-07T11:56:23Z</time>
      </trkpt>
      <trkpt lat="45.88276" lon="4.88109">
        <ele>295</ele>
        <time>2017-12-07T11:56:24Z</time>
      </trkpt>
      <trkpt lat="45.88276" lon="4.88103">
        <ele>294</ele>
        <time>2017-12-07T11:56:25Z</time>
      </trkpt>
      <trkpt lat="45.88276" lon="4.88095">
        <ele>294</ele>
        <time>2017-12-07T11:56:26Z</time>
      </trkpt>
      <trkpt lat="45.88277" lon="4.88083">
        <ele>293</ele>
        <time>2017-12-07T11:56:28Z</time>
      </trkpt>
      <trkpt lat="45.88277" lon="4.88075">
        <ele>293</ele>
        <time>2017-12-07T11:56:29Z</time>
      </trkpt>
      <trkpt lat="45.88276" lon="4.88068">
        <ele>293</ele>
        <time>2017-12-07T11:56:30Z</time>
      </trkpt>
      <trkpt lat="45.88276" lon="4.88062">
        <ele>293</ele>
        <time>2017-12-07T11:56:31Z</time>
      </trkpt>
      <trkpt lat="45.88276" lon="4.88055">
        <ele>293</ele>
        <time>2017-12-07T11:56:32Z</time>
      </trkpt>
      <trkpt lat="45.88275" lon="4.88048">
        <ele>293</ele>
        <time>2017-12-07T11:56:33Z</time>
      </trkpt>
      <trkpt lat="45.88274" lon="4.88037">
        <ele>293</ele>
        <time>2017-12-07T11:56:35Z</time>
      </trkpt>
      <trkpt lat="45.88274" lon="4.8803">
        <ele>293</ele>
        <time>2017-12-07T11:56:36Z</time>
      </trkpt>
      <trkpt lat="45.88273" lon="4.88023">
        <ele>293</ele>
        <time>2017-12-07T11:56:37Z</time>
      </trkpt>
      <trkpt lat="45.88272" lon="4.88016">
        <ele>293</ele>
        <time>2017-12-07T11:56:38Z</time>
      </trkpt>
      <trkpt lat="45.88272" lon="4.88004">
        <ele>293</ele>
        <time>2017-12-07T11:56:40Z</time>
      </trkpt>
      <trkpt lat="45.88272" lon="4.87997">
        <ele>293</ele>
        <time>2017-12-07T11:56:41Z</time>
      </trkpt>
      <trkpt lat="45.8827" lon="4.8799">
        <ele>293</ele>
        <time>2017-12-07T11:56:42Z</time>
      </trkpt>
      <trkpt lat="45.8827" lon="4.87984">
        <ele>293</ele>
        <time>2017-12-07T11:56:43Z</time>
      </trkpt>
      <trkpt lat="45.88269" lon="4.87976">
        <ele>293</ele>
        <time>2017-12-07T11:56:44Z</time>
      </trkpt>
      <trkpt lat="45.88269" lon="4.87967">
        <ele>293</ele>
        <time>2017-12-07T11:56:45Z</time>
      </trkpt>
      <trkpt lat="45.8827" lon="4.87959">
        <ele>293</ele>
        <time>2017-12-07T11:56:46Z</time>
      </trkpt>
      <trkpt lat="45.88268" lon="4.87951">
        <ele>294</ele>
        <time>2017-12-07T11:56:47Z</time>
      </trkpt>
      <trkpt lat="45.88268" lon="4.87944">
        <ele>294</ele>
        <time>2017-12-07T11:56:48Z</time>
      </trkpt>
      <trkpt lat="45.88267" lon="4.87936">
        <ele>294</ele>
        <time>2017-12-07T11:56:49Z</time>
      </trkpt>
      <trkpt lat="45.88266" lon="4.87928">
        <ele>294</ele>
        <time>2017-12-07T11:56:50Z</time>
      </trkpt>
      <trkpt lat="45.88266" lon="4.87919">
        <ele>295</ele>
        <time>2017-12-07T11:56:51Z</time>
      </trkpt>
      <trkpt lat="45.88264" lon="4.87911">
        <ele>295</ele>
        <time>2017-12-07T11:56:52Z</time>
      </trkpt>
      <trkpt lat="45.88262" lon="4.87899">
        <ele>295</ele>
        <time>2017-12-07T11:56:53Z</time>
      </trkpt>
      <trkpt lat="45.88261" lon="4.87891">
        <ele>295</ele>
        <time>2017-12-07T11:56:54Z</time>
      </trkpt>
      <trkpt lat="45.8826" lon="4.87882">
        <ele>294</ele>
        <time>2017-12-07T11:56:55Z</time>
      </trkpt>
      <trkpt lat="45.8826" lon="4.87873">
        <ele>294</ele>
        <time>2017-12-07T11:56:56Z</time>
      </trkpt>
      <trkpt lat="45.88259" lon="4.87864">
        <ele>294</ele>
        <time>2017-12-07T11:56:57Z</time>
      </trkpt>
      <trkpt lat="45.88258" lon="4.87855">
        <ele>294</ele>
        <time>2017-12-07T11:56:58Z</time>
      </trkpt>
      <trkpt lat="45.88258" lon="4.87847">
        <ele>294</ele>
        <time>2017-12-07T11:56:59Z</time>
      </trkpt>
      <trkpt lat="45.88257" lon="4.87837">
        <ele>295</ele>
        <time>2017-12-07T11:57:00Z</time>
      </trkpt>
      <trkpt lat="45.88257" lon="4.87829">
        <ele>295</ele>
        <time>2017-12-07T11:57:01Z</time>
      </trkpt>
      <trkpt lat="45.88255" lon="4.8782">
        <ele>295</ele>
        <time>2017-12-07T11:57:02Z</time>
      </trkpt>
      <trkpt lat="45.88255" lon="4.87812">
        <ele>295</ele>
        <time>2017-12-07T11:57:03Z</time>
      </trkpt>
      <trkpt lat="45.88253" lon="4.87803">
        <ele>295</ele>
        <time>2017-12-07T11:57:04Z</time>
      </trkpt>
      <trkpt lat="45.88253" lon="4.87796">
        <ele>295</ele>
        <time>2017-12-07T11:57:05Z</time>
      </trkpt>
      <trkpt lat="45.88252" lon="4.87789">
        <ele>295</ele>
        <time>2017-12-07T11:57:06Z</time>
      </trkpt>
      <trkpt lat="45.88251" lon="4.87781">
        <ele>295</ele>
        <time>2017-12-07T11:57:07Z</time>
      </trkpt>
      <trkpt lat="45.8825" lon="4.87774">
        <ele>295</ele>
        <time>2017-12-07T11:57:08Z</time>
      </trkpt>
      <trkpt lat="45.88249" lon="4.87767">
        <ele>295</ele>
        <time>2017-12-07T11:57:09Z</time>
      </trkpt>
      <trkpt lat="45.88248" lon="4.87759">
        <ele>296</ele>
        <time>2017-12-07T11:57:10Z</time>
      </trkpt>
      <trkpt lat="45.88247" lon="4.87751">
        <ele>296</ele>
        <time>2017-12-07T11:57:11Z</time>
      </trkpt>
      <trkpt lat="45.88246" lon="4.87743">
        <ele>296</ele>
        <time>2017-12-07T11:57:12Z</time>
      </trkpt>
      <trkpt lat="45.88246" lon="4.87733">
        <ele>295</ele>
        <time>2017-12-07T11:57:13Z</time>
      </trkpt>
      <trkpt lat="45.88245" lon="4.87725">
        <ele>295</ele>
        <time>2017-12-07T11:57:14Z</time>
      </trkpt>
      <trkpt lat="45.88243" lon="4.87718">
        <ele>295</ele>
        <time>2017-12-07T11:57:15Z</time>
      </trkpt>
      <trkpt lat="45.88241" lon="4.87708">
        <ele>295</ele>
        <time>2017-12-07T11:57:16Z</time>
      </trkpt>
      <trkpt lat="45.8824" lon="4.877">
        <ele>295</ele>
        <time>2017-12-07T11:57:17Z</time>
      </trkpt>
      <trkpt lat="45.88239" lon="4.87691">
        <ele>295</ele>
        <time>2017-12-07T11:57:18Z</time>
      </trkpt>
      <trkpt lat="45.88237" lon="4.87684">
        <ele>295</ele>
        <time>2017-12-07T11:57:19Z</time>
      </trkpt>
      <trkpt lat="45.88235" lon="4.87676">
        <ele>295</ele>
        <time>2017-12-07T11:57:20Z</time>
      </trkpt>
      <trkpt lat="45.88234" lon="4.87669">
        <ele>295</ele>
        <time>2017-12-07T11:57:21Z</time>
      </trkpt>
      <trkpt lat="45.88234" lon="4.87661">
        <ele>295</ele>
        <time>2017-12-07T11:57:22Z</time>
      </trkpt>
      <trkpt lat="45.88233" lon="4.87654">
        <ele>295</ele>
        <time>2017-12-07T11:57:23Z</time>
      </trkpt>
      <trkpt lat="45.88232" lon="4.87647">
        <ele>295</ele>
        <time>2017-12-07T11:57:24Z</time>
      </trkpt>
      <trkpt lat="45.88232" lon="4.8764">
        <ele>295</ele>
        <time>2017-12-07T11:57:25Z</time>
      </trkpt>
      <trkpt lat="45.88231" lon="4.87628">
        <ele>295</ele>
        <time>2017-12-07T11:57:27Z</time>
      </trkpt>
      <trkpt lat="45.8823" lon="4.87621">
        <ele>295</ele>
        <time>2017-12-07T11:57:28Z</time>
      </trkpt>
      <trkpt lat="45.88228" lon="4.87609">
        <ele>295</ele>
        <time>2017-12-07T11:57:30Z</time>
      </trkpt>
      <trkpt lat="45.88226" lon="4.87602">
        <ele>295</ele>
        <time>2017-12-07T11:57:31Z</time>
      </trkpt>
      <trkpt lat="45.88226" lon="4.87597">
        <ele>295</ele>
        <time>2017-12-07T11:57:32Z</time>
      </trkpt>
      <trkpt lat="45.88225" lon="4.87589">
        <ele>295</ele>
        <time>2017-12-07T11:57:33Z</time>
      </trkpt>
      <trkpt lat="45.88224" lon="4.8758">
        <ele>296</ele>
        <time>2017-12-07T11:57:34Z</time>
      </trkpt>
      <trkpt lat="45.88224" lon="4.87573">
        <ele>296</ele>
        <time>2017-12-07T11:57:35Z</time>
      </trkpt>
      <trkpt lat="45.88224" lon="4.87565">
        <ele>296</ele>
        <time>2017-12-07T11:57:36Z</time>
      </trkpt>
      <trkpt lat="45.88224" lon="4.87557">
        <ele>296</ele>
        <time>2017-12-07T11:57:37Z</time>
      </trkpt>
      <trkpt lat="45.88223" lon="4.87549">
        <ele>296</ele>
        <time>2017-12-07T11:57:38Z</time>
      </trkpt>
      <trkpt lat="45.88222" lon="4.87542">
        <ele>296</ele>
        <time>2017-12-07T11:57:39Z</time>
      </trkpt>
      <trkpt lat="45.88223" lon="4.87535">
        <ele>296</ele>
        <time>2017-12-07T11:57:40Z</time>
      </trkpt>
      <trkpt lat="45.88222" lon="4.87528">
        <ele>296</ele>
        <time>2017-12-07T11:57:41Z</time>
      </trkpt>
      <trkpt lat="45.88223" lon="4.87516">
        <ele>297</ele>
        <time>2017-12-07T11:57:43Z</time>
      </trkpt>
      <trkpt lat="45.88222" lon="4.87508">
        <ele>297</ele>
        <time>2017-12-07T11:57:44Z</time>
      </trkpt>
      <trkpt lat="45.88221" lon="4.87496">
        <ele>297</ele>
        <time>2017-12-07T11:57:46Z</time>
      </trkpt>
      <trkpt lat="45.88221" lon="4.87491">
        <ele>297</ele>
        <time>2017-12-07T11:57:47Z</time>
      </trkpt>
      <trkpt lat="45.88221" lon="4.87483">
        <ele>297</ele>
        <time>2017-12-07T11:57:48Z</time>
      </trkpt>
      <trkpt lat="45.88221" lon="4.87476">
        <ele>297</ele>
        <time>2017-12-07T11:57:49Z</time>
      </trkpt>
      <trkpt lat="45.8822" lon="4.87469">
        <ele>297</ele>
        <time>2017-12-07T11:57:50Z</time>
      </trkpt>
      <trkpt lat="45.88221" lon="4.87462">
        <ele>297</ele>
        <time>2017-12-07T11:57:51Z</time>
      </trkpt>
      <trkpt lat="45.8822" lon="4.87454">
        <ele>297</ele>
        <time>2017-12-07T11:57:52Z</time>
      </trkpt>
      <trkpt lat="45.8822" lon="4.87446">
        <ele>297</ele>
        <time>2017-12-07T11:57:53Z</time>
      </trkpt>
      <trkpt lat="45.8822" lon="4.87439">
        <ele>297</ele>
        <time>2017-12-07T11:57:54Z</time>
      </trkpt>
      <trkpt lat="45.8822" lon="4.87432">
        <ele>297</ele>
        <time>2017-12-07T11:57:55Z</time>
      </trkpt>
      <trkpt lat="45.88219" lon="4.87425">
        <ele>297</ele>
        <time>2017-12-07T11:57:56Z</time>
      </trkpt>
      <trkpt lat="45.88221" lon="4.87418">
        <ele>297</ele>
        <time>2017-12-07T11:57:57Z</time>
      </trkpt>
      <trkpt lat="45.88222" lon="4.8741">
        <ele>297</ele>
        <time>2017-12-07T11:57:58Z</time>
      </trkpt>
      <trkpt lat="45.88221" lon="4.87403">
        <ele>297</ele>
        <time>2017-12-07T11:57:59Z</time>
      </trkpt>
      <trkpt lat="45.8822" lon="4.87391">
        <ele>297</ele>
        <time>2017-12-07T11:58:01Z</time>
      </trkpt>
      <trkpt lat="45.8822" lon="4.87386">
        <ele>297</ele>
        <time>2017-12-07T11:58:02Z</time>
      </trkpt>
      <trkpt lat="45.8822" lon="4.87379">
        <ele>297</ele>
        <time>2017-12-07T11:58:03Z</time>
      </trkpt>
      <trkpt lat="45.88221" lon="4.87372">
        <ele>297</ele>
        <time>2017-12-07T11:58:04Z</time>
      </trkpt>
      <trkpt lat="45.88222" lon="4.87365">
        <ele>297</ele>
        <time>2017-12-07T11:58:05Z</time>
      </trkpt>
      <trkpt lat="45.88223" lon="4.87358">
        <ele>297</ele>
        <time>2017-12-07T11:58:06Z</time>
      </trkpt>
      <trkpt lat="45.88224" lon="4.87351">
        <ele>297</ele>
        <time>2017-12-07T11:58:07Z</time>
      </trkpt>
      <trkpt lat="45.88222" lon="4.87345">
        <ele>297</ele>
        <time>2017-12-07T11:58:08Z</time>
      </trkpt>
      <trkpt lat="45.88221" lon="4.87337">
        <ele>297</ele>
        <time>2017-12-07T11:58:09Z</time>
      </trkpt>
      <trkpt lat="45.88219" lon="4.8733">
        <ele>297</ele>
        <time>2017-12-07T11:58:10Z</time>
      </trkpt>
      <trkpt lat="45.88217" lon="4.87324">
        <ele>297</ele>
        <time>2017-12-07T11:58:11Z</time>
      </trkpt>
      <trkpt lat="45.88216" lon="4.87315">
        <ele>297</ele>
        <time>2017-12-07T11:58:12Z</time>
      </trkpt>
      <trkpt lat="45.88216" lon="4.87306">
        <ele>297</ele>
        <time>2017-12-07T11:58:13Z</time>
      </trkpt>
      <trkpt lat="45.88216" lon="4.87297">
        <ele>297</ele>
        <time>2017-12-07T11:58:14Z</time>
      </trkpt>
      <trkpt lat="45.88216" lon="4.87291">
        <ele>297</ele>
        <time>2017-12-07T11:58:15Z</time>
      </trkpt>
      <trkpt lat="45.88215" lon="4.87283">
        <ele>297</ele>
        <time>2017-12-07T11:58:16Z</time>
      </trkpt>
      <trkpt lat="45.88215" lon="4.87275">
        <ele>297</ele>
        <time>2017-12-07T11:58:17Z</time>
      </trkpt>
      <trkpt lat="45.88215" lon="4.87268">
        <ele>297</ele>
        <time>2017-12-07T11:58:18Z</time>
      </trkpt>
      <trkpt lat="45.88215" lon="4.87259">
        <ele>297</ele>
        <time>2017-12-07T11:58:20Z</time>
      </trkpt>
      <trkpt lat="45.88215" lon="4.87251">
        <ele>297</ele>
        <time>2017-12-07T11:58:21Z</time>
      </trkpt>
      <trkpt lat="45.88215" lon="4.87245">
        <ele>298</ele>
        <time>2017-12-07T11:58:22Z</time>
      </trkpt>
      <trkpt lat="45.88215" lon="4.87237">
        <ele>298</ele>
        <time>2017-12-07T11:58:23Z</time>
      </trkpt>
      <trkpt lat="45.88214" lon="4.8723">
        <ele>298</ele>
        <time>2017-12-07T11:58:24Z</time>
      </trkpt>
      <trkpt lat="45.88215" lon="4.87222">
        <ele>298</ele>
        <time>2017-12-07T11:58:25Z</time>
      </trkpt>
      <trkpt lat="45.88214" lon="4.87215">
        <ele>298</ele>
        <time>2017-12-07T11:58:26Z</time>
      </trkpt>
      <trkpt lat="45.88214" lon="4.87209">
        <ele>298</ele>
        <time>2017-12-07T11:58:27Z</time>
      </trkpt>
      <trkpt lat="45.88215" lon="4.87201">
        <ele>298</ele>
        <time>2017-12-07T11:58:28Z</time>
      </trkpt>
      <trkpt lat="45.88215" lon="4.87192">
        <ele>298</ele>
        <time>2017-12-07T11:58:29Z</time>
      </trkpt>
      <trkpt lat="45.88215" lon="4.87185">
        <ele>298</ele>
        <time>2017-12-07T11:58:30Z</time>
      </trkpt>
      <trkpt lat="45.88214" lon="4.87178">
        <ele>298</ele>
        <time>2017-12-07T11:58:31Z</time>
      </trkpt>
      <trkpt lat="45.88215" lon="4.87171">
        <ele>298</ele>
        <time>2017-12-07T11:58:32Z</time>
      </trkpt>
      <trkpt lat="45.88215" lon="4.87164">
        <ele>298</ele>
        <time>2017-12-07T11:58:33Z</time>
      </trkpt>
      <trkpt lat="45.88215" lon="4.87155">
        <ele>298</ele>
        <time>2017-12-07T11:58:34Z</time>
      </trkpt>
      <trkpt lat="45.88215" lon="4.87148">
        <ele>298</ele>
        <time>2017-12-07T11:58:35Z</time>
      </trkpt>
      <trkpt lat="45.88214" lon="4.87139">
        <ele>298</ele>
        <time>2017-12-07T11:58:36Z</time>
      </trkpt>
      <trkpt lat="45.88213" lon="4.87132">
        <ele>298</ele>
        <time>2017-12-07T11:58:37Z</time>
      </trkpt>
      <trkpt lat="45.88212" lon="4.87124">
        <ele>298</ele>
        <time>2017-12-07T11:58:38Z</time>
      </trkpt>
      <trkpt lat="45.88211" lon="4.87117">
        <ele>299</ele>
        <time>2017-12-07T11:58:39Z</time>
      </trkpt>
      <trkpt lat="45.88209" lon="4.8711">
        <ele>299</ele>
        <time>2017-12-07T11:58:40Z</time>
      </trkpt>
      <trkpt lat="45.88209" lon="4.87102">
        <ele>299</ele>
        <time>2017-12-07T11:58:41Z</time>
      </trkpt>
      <trkpt lat="45.88208" lon="4.87095">
        <ele>299</ele>
        <time>2017-12-07T11:58:42Z</time>
      </trkpt>
      <trkpt lat="45.88208" lon="4.87089">
        <ele>299</ele>
        <time>2017-12-07T11:58:43Z</time>
      </trkpt>
      <trkpt lat="45.88207" lon="4.87082">
        <ele>299</ele>
        <time>2017-12-07T11:58:44Z</time>
      </trkpt>
      <trkpt lat="45.88206" lon="4.87074">
        <ele>299</ele>
        <time>2017-12-07T11:58:45Z</time>
      </trkpt>
      <trkpt lat="45.88205" lon="4.87066">
        <ele>299</ele>
        <time>2017-12-07T11:58:46Z</time>
      </trkpt>
      <trkpt lat="45.88205" lon="4.87059">
        <ele>299</ele>
        <time>2017-12-07T11:58:47Z</time>
      </trkpt>
      <trkpt lat="45.88203" lon="4.87051">
        <ele>299</ele>
        <time>2017-12-07T11:58:48Z</time>
      </trkpt>
      <trkpt lat="45.88202" lon="4.87043">
        <ele>299</ele>
        <time>2017-12-07T11:58:49Z</time>
      </trkpt>
      <trkpt lat="45.88203" lon="4.87037">
        <ele>299</ele>
        <time>2017-12-07T11:58:50Z</time>
      </trkpt>
      <trkpt lat="45.88202" lon="4.87029">
        <ele>299</ele>
        <time>2017-12-07T11:58:51Z</time>
      </trkpt>
      <trkpt lat="45.88202" lon="4.87022">
        <ele>299</ele>
        <time>2017-12-07T11:58:52Z</time>
      </trkpt>
      <trkpt lat="45.88201" lon="4.87015">
        <ele>299</ele>
        <time>2017-12-07T11:58:53Z</time>
      </trkpt>
      <trkpt lat="45.88201" lon="4.87008">
        <ele>299</ele>
        <time>2017-12-07T11:58:54Z</time>
      </trkpt>
      <trkpt lat="45.882" lon="4.87001">
        <ele>299</ele>
        <time>2017-12-07T11:58:55Z</time>
      </trkpt>
      <trkpt lat="45.88199" lon="4.86988">
        <ele>299</ele>
        <time>2017-12-07T11:58:57Z</time>
      </trkpt>
      <trkpt lat="45.88198" lon="4.86982">
        <ele>299</ele>
        <time>2017-12-07T11:58:58Z</time>
      </trkpt>
      <trkpt lat="45.88197" lon="4.86969">
        <ele>299</ele>
        <time>2017-12-07T11:59:00Z</time>
      </trkpt>
      <trkpt lat="45.88198" lon="4.86963">
        <ele>299</ele>
        <time>2017-12-07T11:59:01Z</time>
      </trkpt>
      <trkpt lat="45.88197" lon="4.86957">
        <ele>299</ele>
        <time>2017-12-07T11:59:02Z</time>
      </trkpt>
      <trkpt lat="45.88196" lon="4.86949">
        <ele>299</ele>
        <time>2017-12-07T11:59:03Z</time>
      </trkpt>
      <trkpt lat="45.88196" lon="4.86942">
        <ele>300</ele>
        <time>2017-12-07T11:59:04Z</time>
      </trkpt>
      <trkpt lat="45.88197" lon="4.86934">
        <ele>300</ele>
        <time>2017-12-07T11:59:05Z</time>
      </trkpt>
      <trkpt lat="45.88197" lon="4.86927">
        <ele>300</ele>
        <time>2017-12-07T11:59:06Z</time>
      </trkpt>
      <trkpt lat="45.88196" lon="4.86921">
        <ele>300</ele>
        <time>2017-12-07T11:59:07Z</time>
      </trkpt>
      <trkpt lat="45.88195" lon="4.86914">
        <ele>300</ele>
        <time>2017-12-07T11:59:08Z</time>
      </trkpt>
      <trkpt lat="45.88194" lon="4.86906">
        <ele>300</ele>
        <time>2017-12-07T11:59:09Z</time>
      </trkpt>
      <trkpt lat="45.88194" lon="4.86899">
        <ele>299</ele>
        <time>2017-12-07T11:59:10Z</time>
      </trkpt>
      <trkpt lat="45.88194" lon="4.86891">
        <ele>299</ele>
        <time>2017-12-07T11:59:11Z</time>
      </trkpt>
      <trkpt lat="45.88194" lon="4.86884">
        <ele>299</ele>
        <time>2017-12-07T11:59:12Z</time>
      </trkpt>
      <trkpt lat="45.88193" lon="4.86877">
        <ele>299</ele>
        <time>2017-12-07T11:59:13Z</time>
      </trkpt>
      <trkpt lat="45.88192" lon="4.8687">
        <ele>299</ele>
        <time>2017-12-07T11:59:14Z</time>
      </trkpt>
      <trkpt lat="45.88191" lon="4.86863">
        <ele>299</ele>
        <time>2017-12-07T11:59:15Z</time>
      </trkpt>
      <trkpt lat="45.8819" lon="4.86856">
        <ele>299</ele>
        <time>2017-12-07T11:59:16Z</time>
      </trkpt>
      <trkpt lat="45.8819" lon="4.8685">
        <ele>299</ele>
        <time>2017-12-07T11:59:17Z</time>
      </trkpt>
      <trkpt lat="45.88189" lon="4.86843">
        <ele>299</ele>
        <time>2017-12-07T11:59:18Z</time>
      </trkpt>
      <trkpt lat="45.88188" lon="4.86837">
        <ele>299</ele>
        <time>2017-12-07T11:59:19Z</time>
      </trkpt>
      <trkpt lat="45.88188" lon="4.8683">
        <ele>299</ele>
        <time>2017-12-07T11:59:20Z</time>
      </trkpt>
      <trkpt lat="45.88186" lon="4.86823">
        <ele>299</ele>
        <time>2017-12-07T11:59:21Z</time>
      </trkpt>
      <trkpt lat="45.88186" lon="4.86817">
        <ele>299</ele>
        <time>2017-12-07T11:59:22Z</time>
      </trkpt>
      <trkpt lat="45.88185" lon="4.8681">
        <ele>299</ele>
        <time>2017-12-07T11:59:23Z</time>
      </trkpt>
      <trkpt lat="45.88183" lon="4.86798">
        <ele>299</ele>
        <time>2017-12-07T11:59:25Z</time>
      </trkpt>
      <trkpt lat="45.88181" lon="4.86792">
        <ele>299</ele>
        <time>2017-12-07T11:59:26Z</time>
      </trkpt>
      <trkpt lat="45.8818" lon="4.86785">
        <ele>299</ele>
        <time>2017-12-07T11:59:27Z</time>
      </trkpt>
      <trkpt lat="45.88179" lon="4.86779">
        <ele>299</ele>
        <time>2017-12-07T11:59:28Z</time>
      </trkpt>
      <trkpt lat="45.88179" lon="4.86772">
        <ele>299</ele>
        <time>2017-12-07T11:59:29Z</time>
      </trkpt>
      <trkpt lat="45.88177" lon="4.86765">
        <ele>299</ele>
        <time>2017-12-07T11:59:30Z</time>
      </trkpt>
      <trkpt lat="45.88177" lon="4.86758">
        <ele>299</ele>
        <time>2017-12-07T11:59:31Z</time>
      </trkpt>
      <trkpt lat="45.88175" lon="4.86752">
        <ele>300</ele>
        <time>2017-12-07T11:59:32Z</time>
      </trkpt>
      <trkpt lat="45.88175" lon="4.86744">
        <ele>299</ele>
        <time>2017-12-07T11:59:33Z</time>
      </trkpt>
      <trkpt lat="45.88174" lon="4.86737">
        <ele>299</ele>
        <time>2017-12-07T11:59:34Z</time>
      </trkpt>
      <trkpt lat="45.88172" lon="4.86731">
        <ele>299</ele>
        <time>2017-12-07T11:59:35Z</time>
      </trkpt>
      <trkpt lat="45.88169" lon="4.86724">
        <ele>299</ele>
        <time>2017-12-07T11:59:36Z</time>
      </trkpt>
      <trkpt lat="45.88168" lon="4.86716">
        <ele>299</ele>
        <time>2017-12-07T11:59:37Z</time>
      </trkpt>
      <trkpt lat="45.88168" lon="4.86708">
        <ele>299</ele>
        <time>2017-12-07T11:59:38Z</time>
      </trkpt>
      <trkpt lat="45.88166" lon="4.86701">
        <ele>300</ele>
        <time>2017-12-07T11:59:39Z</time>
      </trkpt>
      <trkpt lat="45.88165" lon="4.86693">
        <ele>300</ele>
        <time>2017-12-07T11:59:40Z</time>
      </trkpt>
      <trkpt lat="45.88164" lon="4.86686">
        <ele>300</ele>
        <time>2017-12-07T11:59:41Z</time>
      </trkpt>
      <trkpt lat="45.88163" lon="4.86678">
        <ele>299</ele>
        <time>2017-12-07T11:59:42Z</time>
      </trkpt>
      <trkpt lat="45.8816" lon="4.86671">
        <ele>299</ele>
        <time>2017-12-07T11:59:43Z</time>
      </trkpt>
      <trkpt lat="45.88159" lon="4.86666">
        <ele>299</ele>
        <time>2017-12-07T11:59:44Z</time>
      </trkpt>
      <trkpt lat="45.88157" lon="4.86659">
        <ele>299</ele>
        <time>2017-12-07T11:59:45Z</time>
      </trkpt>
      <trkpt lat="45.88155" lon="4.86653">
        <ele>300</ele>
        <time>2017-12-07T11:59:46Z</time>
      </trkpt>
      <trkpt lat="45.88154" lon="4.86646">
        <ele>300</ele>
        <time>2017-12-07T11:59:47Z</time>
      </trkpt>
      <trkpt lat="45.88152" lon="4.86639">
        <ele>300</ele>
        <time>2017-12-07T11:59:48Z</time>
      </trkpt>
      <trkpt lat="45.88151" lon="4.86632">
        <ele>300</ele>
        <time>2017-12-07T11:59:49Z</time>
      </trkpt>
      <trkpt lat="45.88149" lon="4.86625">
        <ele>300</ele>
        <time>2017-12-07T11:59:50Z</time>
      </trkpt>
      <trkpt lat="45.88147" lon="4.86618">
        <ele>300</ele>
        <time>2017-12-07T11:59:51Z</time>
      </trkpt>
      <trkpt lat="45.88146" lon="4.86612">
        <ele>300</ele>
        <time>2017-12-07T11:59:52Z</time>
      </trkpt>
      <trkpt lat="45.88143" lon="4.86605">
        <ele>300</ele>
        <time>2017-12-07T11:59:53Z</time>
      </trkpt>
      <trkpt lat="45.88142" lon="4.86598">
        <ele>300</ele>
        <time>2017-12-07T11:59:54Z</time>
      </trkpt>
      <trkpt lat="45.88139" lon="4.86586">
        <ele>300</ele>
        <time>2017-12-07T11:59:56Z</time>
      </trkpt>
      <trkpt lat="45.88137" lon="4.86579">
        <ele>301</ele>
        <time>2017-12-07T11:59:57Z</time>
      </trkpt>
      <trkpt lat="45.88136" lon="4.86572">
        <ele>301</ele>
        <time>2017-12-07T11:59:58Z</time>
      </trkpt>
      <trkpt lat="45.88136" lon="4.86564">
        <ele>301</ele>
        <time>2017-12-07T11:59:59Z</time>
      </trkpt>
      <trkpt lat="45.88136" lon="4.86557">
        <ele>301</ele>
        <time>2017-12-07T12:00:00Z</time>
      </trkpt>
      <trkpt lat="45.88136" lon="4.8655">
        <ele>301</ele>
        <time>2017-12-07T12:00:01Z</time>
      </trkpt>
      <trkpt lat="45.88136" lon="4.86543">
        <ele>301</ele>
        <time>2017-12-07T12:00:02Z</time>
      </trkpt>
      <trkpt lat="45.88135" lon="4.86536">
        <ele>301</ele>
        <time>2017-12-07T12:00:03Z</time>
      </trkpt>
      <trkpt lat="45.88134" lon="4.86529">
        <ele>301</ele>
        <time>2017-12-07T12:00:04Z</time>
      </trkpt>
      <trkpt lat="45.88134" lon="4.86522">
        <ele>301</ele>
        <time>2017-12-07T12:00:05Z</time>
      </trkpt>
      <trkpt lat="45.88132" lon="4.86515">
        <ele>301</ele>
        <time>2017-12-07T12:00:06Z</time>
      </trkpt>
      <trkpt lat="45.88133" lon="4.86508">
        <ele>301</ele>
        <time>2017-12-07T12:00:07Z</time>
      </trkpt>
      <trkpt lat="45.88132" lon="4.86501">
        <ele>301</ele>
        <time>2017-12-07T12:00:08Z</time>
      </trkpt>
      <trkpt lat="45.88131" lon="4.86496">
        <ele>302</ele>
        <time>2017-12-07T12:00:09Z</time>
      </trkpt>
      <trkpt lat="45.88129" lon="4.86489">
        <ele>302</ele>
        <time>2017-12-07T12:00:10Z</time>
      </trkpt>
      <trkpt lat="45.88127" lon="4.86482">
        <ele>302</ele>
        <time>2017-12-07T12:00:11Z</time>
      </trkpt>
      <trkpt lat="45.88127" lon="4.86476">
        <ele>302</ele>
        <time>2017-12-07T12:00:12Z</time>
      </trkpt>
      <trkpt lat="45.88126" lon="4.86468">
        <ele>302</ele>
        <time>2017-12-07T12:00:13Z</time>
      </trkpt>
      <trkpt lat="45.88125" lon="4.86461">
        <ele>302</ele>
        <time>2017-12-07T12:00:14Z</time>
      </trkpt>
      <trkpt lat="45.88123" lon="4.86453">
        <ele>302</ele>
        <time>2017-12-07T12:00:15Z</time>
      </trkpt>
      <trkpt lat="45.88123" lon="4.86445">
        <ele>302</ele>
        <time>2017-12-07T12:00:16Z</time>
      </trkpt>
      <trkpt lat="45.88121" lon="4.86438">
        <ele>302</ele>
        <time>2017-12-07T12:00:17Z</time>
      </trkpt>
      <trkpt lat="45.8812" lon="4.86427">
        <ele>302</ele>
        <time>2017-12-07T12:00:19Z</time>
      </trkpt>
      <trkpt lat="45.88119" lon="4.86419">
        <ele>302</ele>
        <time>2017-12-07T12:00:20Z</time>
      </trkpt>
      <trkpt lat="45.88118" lon="4.86408">
        <ele>304</ele>
        <time>2017-12-07T12:00:22Z</time>
      </trkpt>
      <trkpt lat="45.88117" lon="4.86404">
        <ele>304</ele>
        <time>2017-12-07T12:00:23Z</time>
      </trkpt>
      <trkpt lat="45.88114" lon="4.86392">
        <ele>304</ele>
        <time>2017-12-07T12:00:27Z</time>
      </trkpt>
      <trkpt lat="45.88114" lon="4.86389">
        <ele>304</ele>
        <time>2017-12-07T12:00:28Z</time>
      </trkpt>
      <trkpt lat="45.88113" lon="4.86379">
        <ele>304</ele>
        <time>2017-12-07T12:00:30Z</time>
      </trkpt>
      <trkpt lat="45.88112" lon="4.86373">
        <ele>304</ele>
        <time>2017-12-07T12:00:31Z</time>
      </trkpt>
      <trkpt lat="45.8811" lon="4.86361">
        <ele>305</ele>
        <time>2017-12-07T12:00:33Z</time>
      </trkpt>
      <trkpt lat="45.8811" lon="4.86354">
        <ele>305</ele>
        <time>2017-12-07T12:00:34Z</time>
      </trkpt>
      <trkpt lat="45.88108" lon="4.86343">
        <ele>305</ele>
        <time>2017-12-07T12:00:36Z</time>
      </trkpt>
      <trkpt lat="45.88107" lon="4.86338">
        <ele>305</ele>
        <time>2017-12-07T12:00:37Z</time>
      </trkpt>
      <trkpt lat="45.88105" lon="4.86327">
        <ele>306</ele>
        <time>2017-12-07T12:00:39Z</time>
      </trkpt>
      <trkpt lat="45.88104" lon="4.86321">
        <ele>306</ele>
        <time>2017-12-07T12:00:40Z</time>
      </trkpt>
      <trkpt lat="45.88101" lon="4.8631">
        <ele>306</ele>
        <time>2017-12-07T12:00:42Z</time>
      </trkpt>
      <trkpt lat="45.88099" lon="4.86305">
        <ele>306</ele>
        <time>2017-12-07T12:00:43Z</time>
      </trkpt>
      <trkpt lat="45.88097" lon="4.86295">
        <ele>306</ele>
        <time>2017-12-07T12:00:45Z</time>
      </trkpt>
      <trkpt lat="45.88097" lon="4.86289">
        <ele>306</ele>
        <time>2017-12-07T12:00:46Z</time>
      </trkpt>
      <trkpt lat="45.88095" lon="4.86279">
        <ele>306</ele>
        <time>2017-12-07T12:00:48Z</time>
      </trkpt>
      <trkpt lat="45.88094" lon="4.86274">
        <ele>306</ele>
        <time>2017-12-07T12:00:49Z</time>
      </trkpt>
      <trkpt lat="45.8809" lon="4.86262">
        <ele>306</ele>
        <time>2017-12-07T12:00:51Z</time>
      </trkpt>
      <trkpt lat="45.88088" lon="4.86257">
        <ele>306</ele>
        <time>2017-12-07T12:00:52Z</time>
      </trkpt>
      <trkpt lat="45.88084" lon="4.86248">
        <ele>306</ele>
        <time>2017-12-07T12:00:54Z</time>
      </trkpt>
      <trkpt lat="45.88082" lon="4.86242">
        <ele>306</ele>
        <time>2017-12-07T12:00:55Z</time>
      </trkpt>
      <trkpt lat="45.8808" lon="4.86236">
        <ele>306</ele>
        <time>2017-12-07T12:00:56Z</time>
      </trkpt>
      <trkpt lat="45.88078" lon="4.86231">
        <ele>306</ele>
        <time>2017-12-07T12:00:57Z</time>
      </trkpt>
      <trkpt lat="45.88075" lon="4.86224">
        <ele>306</ele>
        <time>2017-12-07T12:00:58Z</time>
      </trkpt>
      <trkpt lat="45.88073" lon="4.86218">
        <ele>306</ele>
        <time>2017-12-07T12:00:59Z</time>
      </trkpt>
      <trkpt lat="45.88071" lon="4.86211">
        <ele>306</ele>
        <time>2017-12-07T12:01:00Z</time>
      </trkpt>
      <trkpt lat="45.88068" lon="4.86206">
        <ele>306</ele>
        <time>2017-12-07T12:01:01Z</time>
      </trkpt>
      <trkpt lat="45.88065" lon="4.86199">
        <ele>306</ele>
        <time>2017-12-07T12:01:02Z</time>
      </trkpt>
      <trkpt lat="45.88063" lon="4.86194">
        <ele>306</ele>
        <time>2017-12-07T12:01:03Z</time>
      </trkpt>
      <trkpt lat="45.8806" lon="4.86188">
        <ele>306</ele>
        <time>2017-12-07T12:01:04Z</time>
      </trkpt>
      <trkpt lat="45.88057" lon="4.86182">
        <ele>306</ele>
        <time>2017-12-07T12:01:05Z</time>
      </trkpt>
      <trkpt lat="45.88055" lon="4.86176">
        <ele>306</ele>
        <time>2017-12-07T12:01:06Z</time>
      </trkpt>
      <trkpt lat="45.88053" lon="4.8617">
        <ele>306</ele>
        <time>2017-12-07T12:01:07Z</time>
      </trkpt>
      <trkpt lat="45.88051" lon="4.86163">
        <ele>304</ele>
        <time>2017-12-07T12:01:08Z</time>
      </trkpt>
      <trkpt lat="45.8805" lon="4.86157">
        <ele>304</ele>
        <time>2017-12-07T12:01:09Z</time>
      </trkpt>
      <trkpt lat="45.88047" lon="4.8615">
        <ele>304</ele>
        <time>2017-12-07T12:01:10Z</time>
      </trkpt>
      <trkpt lat="45.88046" lon="4.86143">
        <ele>304</ele>
        <time>2017-12-07T12:01:11Z</time>
      </trkpt>
      <trkpt lat="45.88044" lon="4.86136">
        <ele>304</ele>
        <time>2017-12-07T12:01:12Z</time>
      </trkpt>
      <trkpt lat="45.88042" lon="4.86129">
        <ele>304</ele>
        <time>2017-12-07T12:01:13Z</time>
      </trkpt>
      <trkpt lat="45.8804" lon="4.86123">
        <ele>304</ele>
        <time>2017-12-07T12:01:14Z</time>
      </trkpt>
      <trkpt lat="45.88037" lon="4.86116">
        <ele>304</ele>
        <time>2017-12-07T12:01:15Z</time>
      </trkpt>
      <trkpt lat="45.88035" lon="4.86109">
        <ele>304</ele>
        <time>2017-12-07T12:01:16Z</time>
      </trkpt>
      <trkpt lat="45.88034" lon="4.86102">
        <ele>304</ele>
        <time>2017-12-07T12:01:17Z</time>
      </trkpt>
      <trkpt lat="45.88032" lon="4.86095">
        <ele>304</ele>
        <time>2017-12-07T12:01:18Z</time>
      </trkpt>
      <trkpt lat="45.88032" lon="4.86086">
        <ele>303</ele>
        <time>2017-12-07T12:01:19Z</time>
      </trkpt>
      <trkpt lat="45.8803" lon="4.86078">
        <ele>301</ele>
        <time>2017-12-07T12:01:20Z</time>
      </trkpt>
      <trkpt lat="45.88028" lon="4.8607">
        <ele>301</ele>
        <time>2017-12-07T12:01:21Z</time>
      </trkpt>
      <trkpt lat="45.88026" lon="4.86061">
        <ele>301</ele>
        <time>2017-12-07T12:01:22Z</time>
      </trkpt>
      <trkpt lat="45.88027" lon="4.86051">
        <ele>301</ele>
        <time>2017-12-07T12:01:23Z</time>
      </trkpt>
      <trkpt lat="45.88026" lon="4.86043">
        <ele>301</ele>
        <time>2017-12-07T12:01:24Z</time>
      </trkpt>
      <trkpt lat="45.88024" lon="4.86034">
        <ele>301</ele>
        <time>2017-12-07T12:01:25Z</time>
      </trkpt>
      <trkpt lat="45.88022" lon="4.86024">
        <ele>300</ele>
        <time>2017-12-07T12:01:26Z</time>
      </trkpt>
      <trkpt lat="45.88021" lon="4.86015">
        <ele>300</ele>
        <time>2017-12-07T12:01:27Z</time>
      </trkpt>
      <trkpt lat="45.88017" lon="4.86011">
        <ele>300</ele>
        <time>2017-12-07T12:01:28Z</time>
      </trkpt>
      <trkpt lat="45.88012" lon="4.86008">
        <ele>300</ele>
        <time>2017-12-07T12:01:29Z</time>
      </trkpt>
      <trkpt lat="45.88007" lon="4.86006">
        <ele>300</ele>
        <time>2017-12-07T12:01:30Z</time>
      </trkpt>
      <trkpt lat="45.88001" lon="4.86006">
        <ele>300</ele>
        <time>2017-12-07T12:01:31Z</time>
      </trkpt>
      <trkpt lat="45.87995" lon="4.86007">
        <ele>300</ele>
        <time>2017-12-07T12:01:32Z</time>
      </trkpt>
      <trkpt lat="45.8799" lon="4.86008">
        <ele>300</ele>
        <time>2017-12-07T12:01:33Z</time>
      </trkpt>
      <trkpt lat="45.87983" lon="4.86009">
        <ele>300</ele>
        <time>2017-12-07T12:01:34Z</time>
      </trkpt>
      <trkpt lat="45.87978" lon="4.86011">
        <ele>299</ele>
        <time>2017-12-07T12:01:35Z</time>
      </trkpt>
      <trkpt lat="45.87972" lon="4.86012">
        <ele>299</ele>
        <time>2017-12-07T12:01:36Z</time>
      </trkpt>
      <trkpt lat="45.87967" lon="4.86013">
        <ele>299</ele>
        <time>2017-12-07T12:01:37Z</time>
      </trkpt>
      <trkpt lat="45.87961" lon="4.86011">
        <ele>299</ele>
        <time>2017-12-07T12:01:38Z</time>
      </trkpt>
      <trkpt lat="45.87954" lon="4.86005">
        <ele>298</ele>
        <time>2017-12-07T12:01:39Z</time>
      </trkpt>
      <trkpt lat="45.8795" lon="4.85997">
        <ele>295</ele>
        <time>2017-12-07T12:01:40Z</time>
      </trkpt>
      <trkpt lat="45.87947" lon="4.8599">
        <ele>295</ele>
        <time>2017-12-07T12:01:41Z</time>
      </trkpt>
      <trkpt lat="45.87943" lon="4.85983">
        <ele>295</ele>
        <time>2017-12-07T12:01:42Z</time>
      </trkpt>
      <trkpt lat="45.87938" lon="4.85979">
        <ele>294</ele>
        <time>2017-12-07T12:01:43Z</time>
      </trkpt>
      <trkpt lat="45.87931" lon="4.85976">
        <ele>294</ele>
        <time>2017-12-07T12:01:44Z</time>
      </trkpt>
      <trkpt lat="45.87925" lon="4.85977">
        <ele>294</ele>
        <time>2017-12-07T12:01:45Z</time>
      </trkpt>
      <trkpt lat="45.87919" lon="4.85979">
        <ele>294</ele>
        <time>2017-12-07T12:01:46Z</time>
      </trkpt>
      <trkpt lat="45.87912" lon="4.85983">
        <ele>292</ele>
        <time>2017-12-07T12:01:47Z</time>
      </trkpt>
      <trkpt lat="45.87906" lon="4.85985">
        <ele>292</ele>
        <time>2017-12-07T12:01:48Z</time>
      </trkpt>
      <trkpt lat="45.879" lon="4.85988">
        <ele>291</ele>
        <time>2017-12-07T12:01:49Z</time>
      </trkpt>
      <trkpt lat="45.87893" lon="4.8599">
        <ele>291</ele>
        <time>2017-12-07T12:01:50Z</time>
      </trkpt>
      <trkpt lat="45.87886" lon="4.85992">
        <ele>290</ele>
        <time>2017-12-07T12:01:51Z</time>
      </trkpt>
      <trkpt lat="45.87879" lon="4.85993">
        <ele>290</ele>
        <time>2017-12-07T12:01:52Z</time>
      </trkpt>
      <trkpt lat="45.87871" lon="4.85992">
        <ele>289</ele>
        <time>2017-12-07T12:01:53Z</time>
      </trkpt>
      <trkpt lat="45.87863" lon="4.85988">
        <ele>289</ele>
        <time>2017-12-07T12:01:54Z</time>
      </trkpt>
      <trkpt lat="45.87855" lon="4.85985">
        <ele>289</ele>
        <time>2017-12-07T12:01:55Z</time>
      </trkpt>
      <trkpt lat="45.87849" lon="4.85978">
        <ele>289</ele>
        <time>2017-12-07T12:01:56Z</time>
      </trkpt>
      <trkpt lat="45.87844" lon="4.85968">
        <ele>288</ele>
        <time>2017-12-07T12:01:57Z</time>
      </trkpt>
      <trkpt lat="45.8784" lon="4.85957">
        <ele>288</ele>
        <time>2017-12-07T12:01:58Z</time>
      </trkpt>
      <trkpt lat="45.87838" lon="4.85945">
        <ele>287</ele>
        <time>2017-12-07T12:01:59Z</time>
      </trkpt>
      <trkpt lat="45.87835" lon="4.85932">
        <ele>287</ele>
        <time>2017-12-07T12:02:00Z</time>
      </trkpt>
      <trkpt lat="45.87837" lon="4.85919">
        <ele>286</ele>
        <time>2017-12-07T12:02:01Z</time>
      </trkpt>
      <trkpt lat="45.87841" lon="4.85907">
        <ele>285</ele>
        <time>2017-12-07T12:02:02Z</time>
      </trkpt>
      <trkpt lat="45.87846" lon="4.85896">
        <ele>285</ele>
        <time>2017-12-07T12:02:03Z</time>
      </trkpt>
      <trkpt lat="45.87851" lon="4.85889">
        <ele>285</ele>
        <time>2017-12-07T12:02:04Z</time>
      </trkpt>
      <trkpt lat="45.87858" lon="4.85881">
        <ele>285</ele>
        <time>2017-12-07T12:02:05Z</time>
      </trkpt>
      <trkpt lat="45.87865" lon="4.85875">
        <ele>284</ele>
        <time>2017-12-07T12:02:06Z</time>
      </trkpt>
      <trkpt lat="45.87873" lon="4.85868">
        <ele>284</ele>
        <time>2017-12-07T12:02:07Z</time>
      </trkpt>
      <trkpt lat="45.8788" lon="4.85861">
        <ele>284</ele>
        <time>2017-12-07T12:02:08Z</time>
      </trkpt>
      <trkpt lat="45.87887" lon="4.85854">
        <ele>284</ele>
        <time>2017-12-07T12:02:09Z</time>
      </trkpt>
      <trkpt lat="45.87894" lon="4.85846">
        <ele>284</ele>
        <time>2017-12-07T12:02:10Z</time>
      </trkpt>
      <trkpt lat="45.87901" lon="4.85838">
        <ele>283</ele>
        <time>2017-12-07T12:02:11Z</time>
      </trkpt>
      <trkpt lat="45.87908" lon="4.85829">
        <ele>281</ele>
        <time>2017-12-07T12:02:12Z</time>
      </trkpt>
      <trkpt lat="45.87916" lon="4.85821">
        <ele>281</ele>
        <time>2017-12-07T12:02:13Z</time>
      </trkpt>
      <trkpt lat="45.87924" lon="4.85812">
        <ele>281</ele>
        <time>2017-12-07T12:02:14Z</time>
      </trkpt>
      <trkpt lat="45.87933" lon="4.85805">
        <ele>281</ele>
        <time>2017-12-07T12:02:15Z</time>
      </trkpt>
      <trkpt lat="45.87941" lon="4.85796">
        <ele>280</ele>
        <time>2017-12-07T12:02:16Z</time>
      </trkpt>
      <trkpt lat="45.87949" lon="4.85786">
        <ele>280</ele>
        <time>2017-12-07T12:02:17Z</time>
      </trkpt>
      <trkpt lat="45.87957" lon="4.85777">
        <ele>280</ele>
        <time>2017-12-07T12:02:18Z</time>
      </trkpt>
      <trkpt lat="45.87965" lon="4.85768">
        <ele>280</ele>
        <time>2017-12-07T12:02:19Z</time>
      </trkpt>
      <trkpt lat="45.87972" lon="4.85758">
        <ele>279</ele>
        <time>2017-12-07T12:02:20Z</time>
      </trkpt>
      <trkpt lat="45.87979" lon="4.85747">
        <ele>276</ele>
        <time>2017-12-07T12:02:21Z</time>
      </trkpt>
      <trkpt lat="45.87984" lon="4.85737">
        <ele>276</ele>
        <time>2017-12-07T12:02:22Z</time>
      </trkpt>
      <trkpt lat="45.87986" lon="4.85725">
        <ele>275</ele>
        <time>2017-12-07T12:02:23Z</time>
      </trkpt>
      <trkpt lat="45.87985" lon="4.85712">
        <ele>274</ele>
        <time>2017-12-07T12:02:24Z</time>
      </trkpt>
      <trkpt lat="45.87983" lon="4.85699">
        <ele>274</ele>
        <time>2017-12-07T12:02:25Z</time>
      </trkpt>
      <trkpt lat="45.8798" lon="4.85688">
        <ele>274</ele>
        <time>2017-12-07T12:02:26Z</time>
      </trkpt>
      <trkpt lat="45.87978" lon="4.85675">
        <ele>273</ele>
        <time>2017-12-07T12:02:27Z</time>
      </trkpt>
      <trkpt lat="45.87975" lon="4.85662">
        <ele>269</ele>
        <time>2017-12-07T12:02:28Z</time>
      </trkpt>
      <trkpt lat="45.87971" lon="4.85651">
        <ele>268</ele>
        <time>2017-12-07T12:02:29Z</time>
      </trkpt>
      <trkpt lat="45.8797" lon="4.85636">
        <ele>267</ele>
        <time>2017-12-07T12:02:30Z</time>
      </trkpt>
      <trkpt lat="45.87969" lon="4.85624">
        <ele>266</ele>
        <time>2017-12-07T12:02:31Z</time>
      </trkpt>
      <trkpt lat="45.8797" lon="4.85611">
        <ele>265</ele>
        <time>2017-12-07T12:02:32Z</time>
      </trkpt>
      <trkpt lat="45.87973" lon="4.85599">
        <ele>265</ele>
        <time>2017-12-07T12:02:33Z</time>
      </trkpt>
      <trkpt lat="45.87978" lon="4.85588">
        <ele>265</ele>
        <time>2017-12-07T12:02:34Z</time>
      </trkpt>
      <trkpt lat="45.87983" lon="4.85576">
        <ele>261</ele>
        <time>2017-12-07T12:02:35Z</time>
      </trkpt>
      <trkpt lat="45.87989" lon="4.85565">
        <ele>260</ele>
        <time>2017-12-07T12:02:36Z</time>
      </trkpt>
      <trkpt lat="45.87997" lon="4.85557">
        <ele>259</ele>
        <time>2017-12-07T12:02:37Z</time>
      </trkpt>
      <trkpt lat="45.88006" lon="4.85549">
        <ele>263</ele>
        <time>2017-12-07T12:02:38Z</time>
      </trkpt>
      <trkpt lat="45.88015" lon="4.85541">
        <ele>263</ele>
        <time>2017-12-07T12:02:39Z</time>
      </trkpt>
      <trkpt lat="45.88025" lon="4.85533">
        <ele>262</ele>
        <time>2017-12-07T12:02:40Z</time>
      </trkpt>
      <trkpt lat="45.88033" lon="4.85526">
        <ele>262</ele>
        <time>2017-12-07T12:02:41Z</time>
      </trkpt>
      <trkpt lat="45.88042" lon="4.85519">
        <ele>262</ele>
        <time>2017-12-07T12:02:42Z</time>
      </trkpt>
      <trkpt lat="45.88051" lon="4.85511">
        <ele>263</ele>
        <time>2017-12-07T12:02:43Z</time>
      </trkpt>
      <trkpt lat="45.8806" lon="4.85501">
        <ele>263</ele>
        <time>2017-12-07T12:02:44Z</time>
      </trkpt>
      <trkpt lat="45.88069" lon="4.8549">
        <ele>256</ele>
        <time>2017-12-07T12:02:45Z</time>
      </trkpt>
      <trkpt lat="45.88078" lon="4.8548">
        <ele>255</ele>
        <time>2017-12-07T12:02:46Z</time>
      </trkpt>
      <trkpt lat="45.88086" lon="4.8547">
        <ele>256</ele>
        <time>2017-12-07T12:02:47Z</time>
      </trkpt>
      <trkpt lat="45.88096" lon="4.85463">
        <ele>255</ele>
        <time>2017-12-07T12:02:48Z</time>
      </trkpt>
      <trkpt lat="45.88106" lon="4.85457">
        <ele>255</ele>
        <time>2017-12-07T12:02:49Z</time>
      </trkpt>
      <trkpt lat="45.88117" lon="4.8545">
        <ele>254</ele>
        <time>2017-12-07T12:02:50Z</time>
      </trkpt>
      <trkpt lat="45.88127" lon="4.85444">
        <ele>254</ele>
        <time>2017-12-07T12:02:51Z</time>
      </trkpt>
      <trkpt lat="45.88138" lon="4.85439">
        <ele>254</ele>
        <time>2017-12-07T12:02:52Z</time>
      </trkpt>
      <trkpt lat="45.88148" lon="4.85434">
        <ele>253</ele>
        <time>2017-12-07T12:02:53Z</time>
      </trkpt>
      <trkpt lat="45.88157" lon="4.85429">
        <ele>253</ele>
        <time>2017-12-07T12:02:54Z</time>
      </trkpt>
      <trkpt lat="45.88164" lon="4.8542">
        <ele>251</ele>
        <time>2017-12-07T12:02:55Z</time>
      </trkpt>
      <trkpt lat="45.88169" lon="4.85411">
        <ele>249</ele>
        <time>2017-12-07T12:02:56Z</time>
      </trkpt>
      <trkpt lat="45.88171" lon="4.85401">
        <ele>248</ele>
        <time>2017-12-07T12:02:57Z</time>
      </trkpt>
      <trkpt lat="45.88171" lon="4.85392">
        <ele>247</ele>
        <time>2017-12-07T12:02:58Z</time>
      </trkpt>
      <trkpt lat="45.8817" lon="4.85386">
        <ele>246</ele>
        <time>2017-12-07T12:02:59Z</time>
      </trkpt>
      <trkpt lat="45.88162" lon="4.85376">
        <ele>240</ele>
        <time>2017-12-07T12:03:00Z</time>
      </trkpt>
      <trkpt lat="45.88151" lon="4.85376">
        <ele>240</ele>
        <time>2017-12-07T12:03:01Z</time>
      </trkpt>
      <trkpt lat="45.88146" lon="4.85381">
        <ele>240</ele>
        <time>2017-12-07T12:03:02Z</time>
      </trkpt>
      <trkpt lat="45.88139" lon="4.85384">
        <ele>240</ele>
        <time>2017-12-07T12:03:03Z</time>
      </trkpt>
      <trkpt lat="45.88131" lon="4.85387">
        <ele>240</ele>
        <time>2017-12-07T12:03:04Z</time>
      </trkpt>
      <trkpt lat="45.88124" lon="4.85392">
        <ele>240</ele>
        <time>2017-12-07T12:03:05Z</time>
      </trkpt>
      <trkpt lat="45.88116" lon="4.85396">
        <ele>241</ele>
        <time>2017-12-07T12:03:06Z</time>
      </trkpt>
      <trkpt lat="45.88108" lon="4.85398">
        <ele>241</ele>
        <time>2017-12-07T12:03:07Z</time>
      </trkpt>
      <trkpt lat="45.88099" lon="4.85399">
        <ele>241</ele>
        <time>2017-12-07T12:03:08Z</time>
      </trkpt>
      <trkpt lat="45.88092" lon="4.854">
        <ele>241</ele>
        <time>2017-12-07T12:03:09Z</time>
      </trkpt>
      <trkpt lat="45.88083" lon="4.85401">
        <ele>240</ele>
        <time>2017-12-07T12:03:10Z</time>
      </trkpt>
      <trkpt lat="45.88074" lon="4.85402">
        <ele>240</ele>
        <time>2017-12-07T12:03:11Z</time>
      </trkpt>
      <trkpt lat="45.88066" lon="4.85402">
        <ele>239</ele>
        <time>2017-12-07T12:03:12Z</time>
      </trkpt>
      <trkpt lat="45.88058" lon="4.85403">
        <ele>238</ele>
        <time>2017-12-07T12:03:13Z</time>
      </trkpt>
      <trkpt lat="45.8805" lon="4.85404">
        <ele>238</ele>
        <time>2017-12-07T12:03:14Z</time>
      </trkpt>
      <trkpt lat="45.88041" lon="4.85404">
        <ele>238</ele>
        <time>2017-12-07T12:03:15Z</time>
      </trkpt>
      <trkpt lat="45.88032" lon="4.85403">
        <ele>238</ele>
        <time>2017-12-07T12:03:16Z</time>
      </trkpt>
      <trkpt lat="45.88023" lon="4.85401">
        <ele>238</ele>
        <time>2017-12-07T12:03:17Z</time>
      </trkpt>
      <trkpt lat="45.88015" lon="4.85396">
        <ele>238</ele>
        <time>2017-12-07T12:03:18Z</time>
      </trkpt>
      <trkpt lat="45.88007" lon="4.85388">
        <ele>237</ele>
        <time>2017-12-07T12:03:19Z</time>
      </trkpt>
      <trkpt lat="45.88001" lon="4.85379">
        <ele>236</ele>
        <time>2017-12-07T12:03:20Z</time>
      </trkpt>
      <trkpt lat="45.87994" lon="4.8537">
        <ele>236</ele>
        <time>2017-12-07T12:03:21Z</time>
      </trkpt>
      <trkpt lat="45.87988" lon="4.85361">
        <ele>235</ele>
        <time>2017-12-07T12:03:22Z</time>
      </trkpt>
      <trkpt lat="45.87981" lon="4.85351">
        <ele>234</ele>
        <time>2017-12-07T12:03:23Z</time>
      </trkpt>
      <trkpt lat="45.87974" lon="4.85341">
        <ele>234</ele>
        <time>2017-12-07T12:03:24Z</time>
      </trkpt>
      <trkpt lat="45.87968" lon="4.85332">
        <ele>229</ele>
        <time>2017-12-07T12:03:25Z</time>
      </trkpt>
      <trkpt lat="45.87961" lon="4.85324">
        <ele>229</ele>
        <time>2017-12-07T12:03:26Z</time>
      </trkpt>
      <trkpt lat="45.87953" lon="4.85314">
        <ele>229</ele>
        <time>2017-12-07T12:03:27Z</time>
      </trkpt>
      <trkpt lat="45.87946" lon="4.85305">
        <ele>229</ele>
        <time>2017-12-07T12:03:28Z</time>
      </trkpt>
      <trkpt lat="45.8794" lon="4.85296">
        <ele>228</ele>
        <time>2017-12-07T12:03:29Z</time>
      </trkpt>
      <trkpt lat="45.87933" lon="4.85288">
        <ele>228</ele>
        <time>2017-12-07T12:03:30Z</time>
      </trkpt>
      <trkpt lat="45.87926" lon="4.85279">
        <ele>228</ele>
        <time>2017-12-07T12:03:31Z</time>
      </trkpt>
      <trkpt lat="45.87919" lon="4.85268">
        <ele>227</ele>
        <time>2017-12-07T12:03:32Z</time>
      </trkpt>
      <trkpt lat="45.87913" lon="4.85258">
        <ele>228</ele>
        <time>2017-12-07T12:03:33Z</time>
      </trkpt>
      <trkpt lat="45.87906" lon="4.85248">
        <ele>225</ele>
        <time>2017-12-07T12:03:34Z</time>
      </trkpt>
      <trkpt lat="45.879" lon="4.8524">
        <ele>225</ele>
        <time>2017-12-07T12:03:35Z</time>
      </trkpt>
      <trkpt lat="45.87894" lon="4.8523">
        <ele>224</ele>
        <time>2017-12-07T12:03:36Z</time>
      </trkpt>
      <trkpt lat="45.87887" lon="4.8522">
        <ele>224</ele>
        <time>2017-12-07T12:03:37Z</time>
      </trkpt>
      <trkpt lat="45.8788" lon="4.85209">
        <ele>223</ele>
        <time>2017-12-07T12:03:38Z</time>
      </trkpt>
      <trkpt lat="45.87874" lon="4.852">
        <ele>223</ele>
        <time>2017-12-07T12:03:39Z</time>
      </trkpt>
      <trkpt lat="45.87867" lon="4.8519">
        <ele>223</ele>
        <time>2017-12-07T12:03:40Z</time>
      </trkpt>
      <trkpt lat="45.87861" lon="4.85182">
        <ele>222</ele>
        <time>2017-12-07T12:03:41Z</time>
      </trkpt>
      <trkpt lat="45.87853" lon="4.85172">
        <ele>222</ele>
        <time>2017-12-07T12:03:42Z</time>
      </trkpt>
      <trkpt lat="45.87846" lon="4.85162">
        <ele>219</ele>
        <time>2017-12-07T12:03:43Z</time>
      </trkpt>
      <trkpt lat="45.87839" lon="4.85153">
        <ele>219</ele>
        <time>2017-12-07T12:03:44Z</time>
      </trkpt>
      <trkpt lat="45.87832" lon="4.85143">
        <ele>220</ele>
        <time>2017-12-07T12:03:45Z</time>
      </trkpt>
      <trkpt lat="45.87824" lon="4.85135">
        <ele>219</ele>
        <time>2017-12-07T12:03:46Z</time>
      </trkpt>
      <trkpt lat="45.87818" lon="4.85127">
        <ele>219</ele>
        <time>2017-12-07T12:03:47Z</time>
      </trkpt>
      <trkpt lat="45.87811" lon="4.85117">
        <ele>219</ele>
        <time>2017-12-07T12:03:48Z</time>
      </trkpt>
      <trkpt lat="45.87805" lon="4.85107">
        <ele>218</ele>
        <time>2017-12-07T12:03:49Z</time>
      </trkpt>
      <trkpt lat="45.87798" lon="4.85098">
        <ele>218</ele>
        <time>2017-12-07T12:03:50Z</time>
      </trkpt>
      <trkpt lat="45.8779" lon="4.85089">
        <ele>218</ele>
        <time>2017-12-07T12:03:51Z</time>
      </trkpt>
      <trkpt lat="45.87784" lon="4.8508">
        <ele>214</ele>
        <time>2017-12-07T12:03:52Z</time>
      </trkpt>
      <trkpt lat="45.87779" lon="4.85071">
        <ele>214</ele>
        <time>2017-12-07T12:03:53Z</time>
      </trkpt>
      <trkpt lat="45.87773" lon="4.85062">
        <ele>214</ele>
        <time>2017-12-07T12:03:54Z</time>
      </trkpt>
      <trkpt lat="45.87766" lon="4.85053">
        <ele>213</ele>
        <time>2017-12-07T12:03:55Z</time>
      </trkpt>
      <trkpt lat="45.8776" lon="4.85044">
        <ele>213</ele>
        <time>2017-12-07T12:03:56Z</time>
      </trkpt>
      <trkpt lat="45.87753" lon="4.85035">
        <ele>213</ele>
        <time>2017-12-07T12:03:57Z</time>
      </trkpt>
      <trkpt lat="45.87746" lon="4.85026">
        <ele>214</ele>
        <time>2017-12-07T12:03:58Z</time>
      </trkpt>
      <trkpt lat="45.87739" lon="4.85019">
        <ele>214</ele>
        <time>2017-12-07T12:03:59Z</time>
      </trkpt>
      <trkpt lat="45.87731" lon="4.85013">
        <ele>214</ele>
        <time>2017-12-07T12:04:00Z</time>
      </trkpt>
      <trkpt lat="45.87727" lon="4.85001">
        <ele>214</ele>
        <time>2017-12-07T12:04:01Z</time>
      </trkpt>
      <trkpt lat="45.8772" lon="4.84993">
        <ele>210</ele>
        <time>2017-12-07T12:04:02Z</time>
      </trkpt>
      <trkpt lat="45.87713" lon="4.84984">
        <ele>210</ele>
        <time>2017-12-07T12:04:03Z</time>
      </trkpt>
      <trkpt lat="45.87707" lon="4.84975">
        <ele>210</ele>
        <time>2017-12-07T12:04:04Z</time>
      </trkpt>
      <trkpt lat="45.877" lon="4.84965">
        <ele>210</ele>
        <time>2017-12-07T12:04:05Z</time>
      </trkpt>
      <trkpt lat="45.87694" lon="4.84956">
        <ele>210</ele>
        <time>2017-12-07T12:04:06Z</time>
      </trkpt>
      <trkpt lat="45.87688" lon="4.84946">
        <ele>210</ele>
        <time>2017-12-07T12:04:07Z</time>
      </trkpt>
      <trkpt lat="45.87681" lon="4.84937">
        <ele>209</ele>
        <time>2017-12-07T12:04:08Z</time>
      </trkpt>
      <trkpt lat="45.87676" lon="4.84928">
        <ele>209</ele>
        <time>2017-12-07T12:04:09Z</time>
      </trkpt>
      <trkpt lat="45.87669" lon="4.84918">
        <ele>208</ele>
        <time>2017-12-07T12:04:10Z</time>
      </trkpt>
      <trkpt lat="45.87663" lon="4.84909">
        <ele>207</ele>
        <time>2017-12-07T12:04:11Z</time>
      </trkpt>
      <trkpt lat="45.87657" lon="4.84899">
        <ele>206</ele>
        <time>2017-12-07T12:04:12Z</time>
      </trkpt>
      <trkpt lat="45.87651" lon="4.84893">
        <ele>206</ele>
        <time>2017-12-07T12:04:13Z</time>
      </trkpt>
      <trkpt lat="45.87648" lon="4.84882">
        <ele>205</ele>
        <time>2017-12-07T12:04:14Z</time>
      </trkpt>
      <trkpt lat="45.87645" lon="4.84874">
        <ele>205</ele>
        <time>2017-12-07T12:04:15Z</time>
      </trkpt>
      <trkpt lat="45.87642" lon="4.84867">
        <ele>205</ele>
        <time>2017-12-07T12:04:16Z</time>
      </trkpt>
      <trkpt lat="45.87644" lon="4.84857">
        <ele>204</ele>
        <time>2017-12-07T12:04:17Z</time>
      </trkpt>
      <trkpt lat="45.87642" lon="4.84847">
        <ele>204</ele>
        <time>2017-12-07T12:04:18Z</time>
      </trkpt>
      <trkpt lat="45.8764" lon="4.84836">
        <ele>203</ele>
        <time>2017-12-07T12:04:19Z</time>
      </trkpt>
      <trkpt lat="45.87638" lon="4.84824">
        <ele>200</ele>
        <time>2017-12-07T12:04:20Z</time>
      </trkpt>
      <trkpt lat="45.87637" lon="4.84811">
        <ele>200</ele>
        <time>2017-12-07T12:04:21Z</time>
      </trkpt>
      <trkpt lat="45.87638" lon="4.84796">
        <ele>199</ele>
        <time>2017-12-07T12:04:22Z</time>
      </trkpt>
      <trkpt lat="45.8764" lon="4.84783">
        <ele>199</ele>
        <time>2017-12-07T12:04:23Z</time>
      </trkpt>
      <trkpt lat="45.87641" lon="4.84771">
        <ele>198</ele>
        <time>2017-12-07T12:04:24Z</time>
      </trkpt>
      <trkpt lat="45.87641" lon="4.84757">
        <ele>198</ele>
        <time>2017-12-07T12:04:25Z</time>
      </trkpt>
      <trkpt lat="45.87642" lon="4.84743">
        <ele>195</ele>
        <time>2017-12-07T12:04:26Z</time>
      </trkpt>
      <trkpt lat="45.87644" lon="4.84729">
        <ele>195</ele>
        <time>2017-12-07T12:04:27Z</time>
      </trkpt>
      <trkpt lat="45.87645" lon="4.84719">
        <ele>195</ele>
        <time>2017-12-07T12:04:28Z</time>
      </trkpt>
      <trkpt lat="45.87646" lon="4.84708">
        <ele>194</ele>
        <time>2017-12-07T12:04:29Z</time>
      </trkpt>
      <trkpt lat="45.87647" lon="4.84698">
        <ele>194</ele>
        <time>2017-12-07T12:04:30Z</time>
      </trkpt>
      <trkpt lat="45.8765" lon="4.84688">
        <ele>193</ele>
        <time>2017-12-07T12:04:31Z</time>
      </trkpt>
      <trkpt lat="45.8765" lon="4.84676">
        <ele>193</ele>
        <time>2017-12-07T12:04:32Z</time>
      </trkpt>
      <trkpt lat="45.87651" lon="4.84663">
        <ele>191</ele>
        <time>2017-12-07T12:04:33Z</time>
      </trkpt>
      <trkpt lat="45.87652" lon="4.84653">
        <ele>191</ele>
        <time>2017-12-07T12:04:34Z</time>
      </trkpt>
      <trkpt lat="45.87653" lon="4.84642">
        <ele>191</ele>
        <time>2017-12-07T12:04:35Z</time>
      </trkpt>
      <trkpt lat="45.87654" lon="4.8463">
        <ele>191</ele>
        <time>2017-12-07T12:04:36Z</time>
      </trkpt>
      <trkpt lat="45.87655" lon="4.84619">
        <ele>191</ele>
        <time>2017-12-07T12:04:37Z</time>
      </trkpt>
      <trkpt lat="45.87656" lon="4.84607">
        <ele>190</ele>
        <time>2017-12-07T12:04:38Z</time>
      </trkpt>
      <trkpt lat="45.87659" lon="4.84595">
        <ele>190</ele>
        <time>2017-12-07T12:04:39Z</time>
      </trkpt>
      <trkpt lat="45.8766" lon="4.84583">
        <ele>189</ele>
        <time>2017-12-07T12:04:40Z</time>
      </trkpt>
      <trkpt lat="45.87661" lon="4.84572">
        <ele>189</ele>
        <time>2017-12-07T12:04:41Z</time>
      </trkpt>
      <trkpt lat="45.87662" lon="4.84561">
        <ele>189</ele>
        <time>2017-12-07T12:04:42Z</time>
      </trkpt>
      <trkpt lat="45.87664" lon="4.84552">
        <ele>189</ele>
        <time>2017-12-07T12:04:43Z</time>
      </trkpt>
      <trkpt lat="45.87665" lon="4.84543">
        <ele>189</ele>
        <time>2017-12-07T12:04:44Z</time>
      </trkpt>
      <trkpt lat="45.87667" lon="4.84535">
        <ele>188</ele>
        <time>2017-12-07T12:04:45Z</time>
      </trkpt>
      <trkpt lat="45.87668" lon="4.84526">
        <ele>188</ele>
        <time>2017-12-07T12:04:46Z</time>
      </trkpt>
      <trkpt lat="45.87669" lon="4.84515">
        <ele>188</ele>
        <time>2017-12-07T12:04:47Z</time>
      </trkpt>
      <trkpt lat="45.87667" lon="4.84505">
        <ele>188</ele>
        <time>2017-12-07T12:04:48Z</time>
      </trkpt>
      <trkpt lat="45.87666" lon="4.84496">
        <ele>188</ele>
        <time>2017-12-07T12:04:49Z</time>
      </trkpt>
      <trkpt lat="45.87663" lon="4.84487">
        <ele>188</ele>
        <time>2017-12-07T12:04:50Z</time>
      </trkpt>
      <trkpt lat="45.87662" lon="4.84477">
        <ele>188</ele>
        <time>2017-12-07T12:04:51Z</time>
      </trkpt>
      <trkpt lat="45.8766" lon="4.84468">
        <ele>187</ele>
        <time>2017-12-07T12:04:52Z</time>
      </trkpt>
      <trkpt lat="45.8766" lon="4.84458">
        <ele>187</ele>
        <time>2017-12-07T12:04:53Z</time>
      </trkpt>
      <trkpt lat="45.87661" lon="4.84448">
        <ele>187</ele>
        <time>2017-12-07T12:04:54Z</time>
      </trkpt>
      <trkpt lat="45.87663" lon="4.84438">
        <ele>187</ele>
        <time>2017-12-07T12:04:55Z</time>
      </trkpt>
      <trkpt lat="45.87662" lon="4.84428">
        <ele>186</ele>
        <time>2017-12-07T12:04:56Z</time>
      </trkpt>
      <trkpt lat="45.87661" lon="4.84419">
        <ele>186</ele>
        <time>2017-12-07T12:04:57Z</time>
      </trkpt>
      <trkpt lat="45.8766" lon="4.84408">
        <ele>185</ele>
        <time>2017-12-07T12:04:58Z</time>
      </trkpt>
      <trkpt lat="45.87659" lon="4.84398">
        <ele>185</ele>
        <time>2017-12-07T12:04:59Z</time>
      </trkpt>
      <trkpt lat="45.8766" lon="4.8439">
        <ele>185</ele>
        <time>2017-12-07T12:05:00Z</time>
      </trkpt>
      <trkpt lat="45.87663" lon="4.84383">
        <ele>184</ele>
        <time>2017-12-07T12:05:01Z</time>
      </trkpt>
      <trkpt lat="45.8767" lon="4.84375">
        <ele>185</ele>
        <time>2017-12-07T12:05:02Z</time>
      </trkpt>
      <trkpt lat="45.8767" lon="4.8437">
        <ele>185</ele>
        <time>2017-12-07T12:05:03Z</time>
      </trkpt>
      <trkpt lat="45.87663" lon="4.84361">
        <ele>184</ele>
        <time>2017-12-07T12:05:04Z</time>
      </trkpt>
      <trkpt lat="45.87662" lon="4.84347">
        <ele>183</ele>
        <time>2017-12-07T12:05:05Z</time>
      </trkpt>
      <trkpt lat="45.87659" lon="4.8434">
        <ele>183</ele>
        <time>2017-12-07T12:05:06Z</time>
      </trkpt>
      <trkpt lat="45.87658" lon="4.84335">
        <ele>183</ele>
        <time>2017-12-07T12:05:07Z</time>
      </trkpt>
      <trkpt lat="45.87658" lon="4.84323">
        <ele>182</ele>
        <time>2017-12-07T12:05:09Z</time>
      </trkpt>
      <trkpt lat="45.87657" lon="4.84319">
        <ele>182</ele>
        <time>2017-12-07T12:05:10Z</time>
      </trkpt>
      <trkpt lat="45.87653" lon="4.84313">
        <ele>182</ele>
        <time>2017-12-07T12:05:12Z</time>
      </trkpt>
      <trkpt lat="45.8765" lon="4.8431">
        <ele>181</ele>
        <time>2017-12-07T12:05:13Z</time>
      </trkpt>
      <trkpt lat="45.87649" lon="4.84302">
        <ele>181</ele>
        <time>2017-12-07T12:05:15Z</time>
      </trkpt>
      <trkpt lat="45.87644" lon="4.84295">
        <ele>181</ele>
        <time>2017-12-07T12:05:16Z</time>
      </trkpt>
      <trkpt lat="45.8764" lon="4.84291">
        <ele>181</ele>
        <time>2017-12-07T12:05:17Z</time>
      </trkpt>
      <trkpt lat="45.87636" lon="4.84287">
        <ele>181</ele>
        <time>2017-12-07T12:05:18Z</time>
      </trkpt>
      <trkpt lat="45.8763" lon="4.84282">
        <ele>181</ele>
        <time>2017-12-07T12:05:19Z</time>
      </trkpt>
      <trkpt lat="45.87625" lon="4.84276">
        <ele>181</ele>
        <time>2017-12-07T12:05:20Z</time>
      </trkpt>
      <trkpt lat="45.87619" lon="4.84272">
        <ele>180</ele>
        <time>2017-12-07T12:05:21Z</time>
      </trkpt>
      <trkpt lat="45.87614" lon="4.84265">
        <ele>180</ele>
        <time>2017-12-07T12:05:22Z</time>
      </trkpt>
      <trkpt lat="45.87607" lon="4.8426">
        <ele>180</ele>
        <time>2017-12-07T12:05:23Z</time>
      </trkpt>
      <trkpt lat="45.87601" lon="4.84256">
        <ele>179</ele>
        <time>2017-12-07T12:05:24Z</time>
      </trkpt>
      <trkpt lat="45.87595" lon="4.84251">
        <ele>179</ele>
        <time>2017-12-07T12:05:25Z</time>
      </trkpt>
      <trkpt lat="45.87593" lon="4.84247">
        <ele>178</ele>
        <time>2017-12-07T12:05:26Z</time>
      </trkpt>
      <trkpt lat="45.87587" lon="4.8424">
        <ele>178</ele>
        <time>2017-12-07T12:05:27Z</time>
      </trkpt>
      <trkpt lat="45.87583" lon="4.84233">
        <ele>179</ele>
        <time>2017-12-07T12:05:28Z</time>
      </trkpt>
      <trkpt lat="45.87579" lon="4.84228">
        <ele>179</ele>
        <time>2017-12-07T12:05:29Z</time>
      </trkpt>
      <trkpt lat="45.87575" lon="4.84224">
        <ele>179</ele>
        <time>2017-12-07T12:05:30Z</time>
      </trkpt>
      <trkpt lat="45.87571" lon="4.8422">
        <ele>179</ele>
        <time>2017-12-07T12:05:31Z</time>
      </trkpt>
      <trkpt lat="45.87564" lon="4.84215">
        <ele>179</ele>
        <time>2017-12-07T12:05:32Z</time>
      </trkpt>
      <trkpt lat="45.87562" lon="4.84206">
        <ele>179</ele>
        <time>2017-12-07T12:05:33Z</time>
      </trkpt>
      <trkpt lat="45.87558" lon="4.842">
        <ele>179</ele>
        <time>2017-12-07T12:05:34Z</time>
      </trkpt>
      <trkpt lat="45.87554" lon="4.84192">
        <ele>179</ele>
        <time>2017-12-07T12:05:36Z</time>
      </trkpt>
      <trkpt lat="45.8755" lon="4.84187">
        <ele>179</ele>
        <time>2017-12-07T12:05:37Z</time>
      </trkpt>
      <trkpt lat="45.87545" lon="4.84182">
        <ele>179</ele>
        <time>2017-12-07T12:05:38Z</time>
      </trkpt>
      <trkpt lat="45.87541" lon="4.84177">
        <ele>179</ele>
        <time>2017-12-07T12:05:39Z</time>
      </trkpt>
      <trkpt lat="45.87535" lon="4.84174">
        <ele>179</ele>
        <time>2017-12-07T12:05:40Z</time>
      </trkpt>
      <trkpt lat="45.8753" lon="4.84172">
        <ele>179</ele>
        <time>2017-12-07T12:05:41Z</time>
      </trkpt>
      <trkpt lat="45.87529" lon="4.84167">
        <ele>179</ele>
        <time>2017-12-07T12:05:42Z</time>
      </trkpt>
      <trkpt lat="45.87522" lon="4.84161">
        <ele>178</ele>
        <time>2017-12-07T12:05:43Z</time>
      </trkpt>
      <trkpt lat="45.87519" lon="4.84151">
        <ele>178</ele>
        <time>2017-12-07T12:05:45Z</time>
      </trkpt>
      <trkpt lat="45.87517" lon="4.84145">
        <ele>178</ele>
        <time>2017-12-07T12:05:46Z</time>
      </trkpt>
      <trkpt lat="45.87517" lon="4.84133">
        <ele>178</ele>
        <time>2017-12-07T12:05:48Z</time>
      </trkpt>
      <trkpt lat="45.87516" lon="4.8413">
        <ele>178</ele>
        <time>2017-12-07T12:05:49Z</time>
      </trkpt>
      <trkpt lat="45.87514" lon="4.84118">
        <ele>178</ele>
        <time>2017-12-07T12:05:51Z</time>
      </trkpt>
      <trkpt lat="45.87513" lon="4.84114">
        <ele>177</ele>
        <time>2017-12-07T12:05:52Z</time>
      </trkpt>
      <trkpt lat="45.87511" lon="4.84102">
        <ele>177</ele>
        <time>2017-12-07T12:05:56Z</time>
      </trkpt>
      <trkpt lat="45.87511" lon="4.84099">
        <ele>177</ele>
        <time>2017-12-07T12:05:57Z</time>
      </trkpt>
      <trkpt lat="45.8751" lon="4.84086">
        <ele>177</ele>
        <time>2017-12-07T12:06:00Z</time>
      </trkpt>
      <trkpt lat="45.8751" lon="4.84081">
        <ele>176</ele>
        <time>2017-12-07T12:06:01Z</time>
      </trkpt>
      <trkpt lat="45.8751" lon="4.84069">
        <ele>176</ele>
        <time>2017-12-07T12:06:03Z</time>
      </trkpt>
      <trkpt lat="45.87509" lon="4.84062">
        <ele>176</ele>
        <time>2017-12-07T12:06:04Z</time>
      </trkpt>
      <trkpt lat="45.87508" lon="4.84055">
        <ele>176</ele>
        <time>2017-12-07T12:06:05Z</time>
      </trkpt>
      <trkpt lat="45.87508" lon="4.84047">
        <ele>176</ele>
        <time>2017-12-07T12:06:06Z</time>
      </trkpt>
      <trkpt lat="45.87506" lon="4.8404">
        <ele>176</ele>
        <time>2017-12-07T12:06:07Z</time>
      </trkpt>
      <trkpt lat="45.87506" lon="4.84033">
        <ele>176</ele>
        <time>2017-12-07T12:06:08Z</time>
      </trkpt>
      <trkpt lat="45.87505" lon="4.84022">
        <ele>175</ele>
        <time>2017-12-07T12:06:10Z</time>
      </trkpt>
      <trkpt lat="45.87504" lon="4.84016">
        <ele>175</ele>
        <time>2017-12-07T12:06:11Z</time>
      </trkpt>
      <trkpt lat="45.87502" lon="4.84006">
        <ele>175</ele>
        <time>2017-12-07T12:06:13Z</time>
      </trkpt>
      <trkpt lat="45.87501" lon="4.84001">
        <ele>174</ele>
        <time>2017-12-07T12:06:14Z</time>
      </trkpt>
      <trkpt lat="45.87501" lon="4.83993">
        <ele>174</ele>
        <time>2017-12-07T12:06:15Z</time>
      </trkpt>
      <trkpt lat="45.87501" lon="4.83986">
        <ele>174</ele>
        <time>2017-12-07T12:06:16Z</time>
      </trkpt>
      <trkpt lat="45.87501" lon="4.83977">
        <ele>174</ele>
        <time>2017-12-07T12:06:17Z</time>
      </trkpt>
      <trkpt lat="45.87501" lon="4.83969">
        <ele>174</ele>
        <time>2017-12-07T12:06:18Z</time>
      </trkpt>
      <trkpt lat="45.87503" lon="4.83962">
        <ele>174</ele>
        <time>2017-12-07T12:06:19Z</time>
      </trkpt>
      <trkpt lat="45.87507" lon="4.83954">
        <ele>174</ele>
        <time>2017-12-07T12:06:20Z</time>
      </trkpt>
      <trkpt lat="45.87508" lon="4.83946">
        <ele>174</ele>
        <time>2017-12-07T12:06:21Z</time>
      </trkpt>
      <trkpt lat="45.87509" lon="4.83938">
        <ele>174</ele>
        <time>2017-12-07T12:06:22Z</time>
      </trkpt>
      <trkpt lat="45.87511" lon="4.8393">
        <ele>174</ele>
        <time>2017-12-07T12:06:23Z</time>
      </trkpt>
      <trkpt lat="45.87513" lon="4.83922">
        <ele>174</ele>
        <time>2017-12-07T12:06:24Z</time>
      </trkpt>
      <trkpt lat="45.87516" lon="4.83914">
        <ele>173</ele>
        <time>2017-12-07T12:06:25Z</time>
      </trkpt>
      <trkpt lat="45.87518" lon="4.83907">
        <ele>173</ele>
        <time>2017-12-07T12:06:26Z</time>
      </trkpt>
      <trkpt lat="45.87521" lon="4.83902">
        <ele>173</ele>
        <time>2017-12-07T12:06:27Z</time>
      </trkpt>
      <trkpt lat="45.87523" lon="4.83897">
        <ele>173</ele>
        <time>2017-12-07T12:06:28Z</time>
      </trkpt>
      <trkpt lat="45.87528" lon="4.83892">
        <ele>173</ele>
        <time>2017-12-07T12:06:29Z</time>
      </trkpt>
      <trkpt lat="45.87532" lon="4.83888">
        <ele>173</ele>
        <time>2017-12-07T12:06:30Z</time>
      </trkpt>
      <trkpt lat="45.87536" lon="4.83883">
        <ele>173</ele>
        <time>2017-12-07T12:06:31Z</time>
      </trkpt>
      <trkpt lat="45.87541" lon="4.83877">
        <ele>173</ele>
        <time>2017-12-07T12:06:32Z</time>
      </trkpt>
      <trkpt lat="45.87546" lon="4.83873">
        <ele>173</ele>
        <time>2017-12-07T12:06:33Z</time>
      </trkpt>
      <trkpt lat="45.87552" lon="4.83872">
        <ele>173</ele>
        <time>2017-12-07T12:06:34Z</time>
      </trkpt>
      <trkpt lat="45.87558" lon="4.83873">
        <ele>173</ele>
        <time>2017-12-07T12:06:35Z</time>
      </trkpt>
      <trkpt lat="45.87565" lon="4.83869">
        <ele>173</ele>
        <time>2017-12-07T12:06:36Z</time>
      </trkpt>
      <trkpt lat="45.87572" lon="4.83867">
        <ele>173</ele>
        <time>2017-12-07T12:06:37Z</time>
      </trkpt>
      <trkpt lat="45.87578" lon="4.83865">
        <ele>173</ele>
        <time>2017-12-07T12:06:38Z</time>
      </trkpt>
      <trkpt lat="45.87585" lon="4.83863">
        <ele>173</ele>
        <time>2017-12-07T12:06:39Z</time>
      </trkpt>
      <trkpt lat="45.87591" lon="4.83861">
        <ele>173</ele>
        <time>2017-12-07T12:06:40Z</time>
      </trkpt>
      <trkpt lat="45.87597" lon="4.83859">
        <ele>173</ele>
        <time>2017-12-07T12:06:41Z</time>
      </trkpt>
      <trkpt lat="45.87602" lon="4.83857">
        <ele>173</ele>
        <time>2017-12-07T12:06:42Z</time>
      </trkpt>
      <trkpt lat="45.87609" lon="4.83855">
        <ele>173</ele>
        <time>2017-12-07T12:06:43Z</time>
      </trkpt>
      <trkpt lat="45.87616" lon="4.83853">
        <ele>173</ele>
        <time>2017-12-07T12:06:44Z</time>
      </trkpt>
      <trkpt lat="45.87623" lon="4.83854">
        <ele>173</ele>
        <time>2017-12-07T12:06:45Z</time>
      </trkpt>
      <trkpt lat="45.8763" lon="4.83853">
        <ele>173</ele>
        <time>2017-12-07T12:06:46Z</time>
      </trkpt>
      <trkpt lat="45.87636" lon="4.83853">
        <ele>173</ele>
        <time>2017-12-07T12:06:47Z</time>
      </trkpt>
      <trkpt lat="45.87643" lon="4.83854">
        <ele>173</ele>
        <time>2017-12-07T12:06:48Z</time>
      </trkpt>
      <trkpt lat="45.87649" lon="4.83853">
        <ele>173</ele>
        <time>2017-12-07T12:06:49Z</time>
      </trkpt>
      <trkpt lat="45.87656" lon="4.83854">
        <ele>173</ele>
        <time>2017-12-07T12:06:50Z</time>
      </trkpt>
      <trkpt lat="45.87662" lon="4.83854">
        <ele>173</ele>
        <time>2017-12-07T12:06:51Z</time>
      </trkpt>
      <trkpt lat="45.87667" lon="4.83855">
        <ele>172</ele>
        <time>2017-12-07T12:06:52Z</time>
      </trkpt>
      <trkpt lat="45.87673" lon="4.83854">
        <ele>172</ele>
        <time>2017-12-07T12:06:53Z</time>
      </trkpt>
      <trkpt lat="45.87677" lon="4.83854">
        <ele>172</ele>
        <time>2017-12-07T12:06:54Z</time>
      </trkpt>
      <trkpt lat="45.87685" lon="4.83857">
        <ele>172</ele>
        <time>2017-12-07T12:06:57Z</time>
      </trkpt>
      <trkpt lat="45.87688" lon="4.83858">
        <ele>172</ele>
        <time>2017-12-07T12:06:58Z</time>
      </trkpt>
      <trkpt lat="45.87693" lon="4.83861">
        <ele>172</ele>
        <time>2017-12-07T12:07:00Z</time>
      </trkpt>
      <trkpt lat="45.87697" lon="4.83861">
        <ele>172</ele>
        <time>2017-12-07T12:07:01Z</time>
      </trkpt>
      <trkpt lat="45.87705" lon="4.83857">
        <ele>172</ele>
        <time>2017-12-07T12:07:04Z</time>
      </trkpt>
      <trkpt lat="45.87705" lon="4.83852">
        <ele>172</ele>
        <time>2017-12-07T12:07:05Z</time>
      </trkpt>
      <trkpt lat="45.87706" lon="4.83841">
        <ele>172</ele>
        <time>2017-12-07T12:07:07Z</time>
      </trkpt>
      <trkpt lat="45.87702" lon="4.83836">
        <ele>172</ele>
        <time>2017-12-07T12:07:08Z</time>
      </trkpt>
      <trkpt lat="45.87699" lon="4.83829">
        <ele>170</ele>
        <time>2017-12-07T12:07:10Z</time>
      </trkpt>
      <trkpt lat="45.87696" lon="4.83824">
        <ele>170</ele>
        <time>2017-12-07T12:07:11Z</time>
      </trkpt>
      <trkpt lat="45.87697" lon="4.83816">
        <ele>169</ele>
        <time>2017-12-07T12:07:12Z</time>
      </trkpt>
      <trkpt lat="45.87695" lon="4.8381">
        <ele>169</ele>
        <time>2017-12-07T12:07:13Z</time>
      </trkpt>
      <trkpt lat="45.87694" lon="4.83798">
        <ele>169</ele>
        <time>2017-12-07T12:07:15Z</time>
      </trkpt>
      <trkpt lat="45.87693" lon="4.83792">
        <ele>168</ele>
        <time>2017-12-07T12:07:16Z</time>
      </trkpt>
      <trkpt lat="45.87693" lon="4.83779">
        <ele>168</ele>
        <time>2017-12-07T12:07:18Z</time>
      </trkpt>
      <trkpt lat="45.87693" lon="4.83771">
        <ele>167</ele>
        <time>2017-12-07T12:07:19Z</time>
      </trkpt>
      <trkpt lat="45.87694" lon="4.83759">
        <ele>167</ele>
        <time>2017-12-07T12:07:21Z</time>
      </trkpt>
      <trkpt lat="45.87694" lon="4.83754">
        <ele>167</ele>
        <time>2017-12-07T12:07:22Z</time>
      </trkpt>
      <trkpt lat="45.87694" lon="4.83741">
        <ele>165</ele>
        <time>2017-12-07T12:07:24Z</time>
      </trkpt>
      <trkpt lat="45.87693" lon="4.83734">
        <ele>165</ele>
        <time>2017-12-07T12:07:25Z</time>
      </trkpt>
      <trkpt lat="45.87692" lon="4.83725">
        <ele>165</ele>
        <time>2017-12-07T12:07:26Z</time>
      </trkpt>
      <trkpt lat="45.87693" lon="4.83719">
        <ele>165</ele>
        <time>2017-12-07T12:07:27Z</time>
      </trkpt>
      <trkpt lat="45.87693" lon="4.83712">
        <ele>165</ele>
        <time>2017-12-07T12:07:28Z</time>
      </trkpt>
      <trkpt lat="45.87693" lon="4.83705">
        <ele>165</ele>
        <time>2017-12-07T12:07:29Z</time>
      </trkpt>
      <trkpt lat="45.87692" lon="4.83698">
        <ele>165</ele>
        <time>2017-12-07T12:07:30Z</time>
      </trkpt>
      <trkpt lat="45.87691" lon="4.83691">
        <ele>165</ele>
        <time>2017-12-07T12:07:31Z</time>
      </trkpt>
      <trkpt lat="45.87689" lon="4.83678">
        <ele>165</ele>
        <time>2017-12-07T12:07:33Z</time>
      </trkpt>
      <trkpt lat="45.87689" lon="4.83673">
        <ele>165</ele>
        <time>2017-12-07T12:07:34Z</time>
      </trkpt>
      <trkpt lat="45.87688" lon="4.83666">
        <ele>165</ele>
        <time>2017-12-07T12:07:35Z</time>
      </trkpt>
      <trkpt lat="45.87688" lon="4.83659">
        <ele>165</ele>
        <time>2017-12-07T12:07:36Z</time>
      </trkpt>
      <trkpt lat="45.87687" lon="4.83649">
        <ele>165</ele>
        <time>2017-12-07T12:07:38Z</time>
      </trkpt>
      <trkpt lat="45.87687" lon="4.83642">
        <ele>165</ele>
        <time>2017-12-07T12:07:39Z</time>
      </trkpt>
      <trkpt lat="45.87686" lon="4.83635">
        <ele>165</ele>
        <time>2017-12-07T12:07:40Z</time>
      </trkpt>
      <trkpt lat="45.87686" lon="4.83628">
        <ele>165</ele>
        <time>2017-12-07T12:07:41Z</time>
      </trkpt>
      <trkpt lat="45.87685" lon="4.83621">
        <ele>165</ele>
        <time>2017-12-07T12:07:42Z</time>
      </trkpt>
      <trkpt lat="45.87685" lon="4.83614">
        <ele>165</ele>
        <time>2017-12-07T12:07:43Z</time>
      </trkpt>
      <trkpt lat="45.87685" lon="4.83607">
        <ele>165</ele>
        <time>2017-12-07T12:07:44Z</time>
      </trkpt>
      <trkpt lat="45.87684" lon="4.836">
        <ele>165</ele>
        <time>2017-12-07T12:07:45Z</time>
      </trkpt>
      <trkpt lat="45.87684" lon="4.8359">
        <ele>165</ele>
        <time>2017-12-07T12:07:46Z</time>
      </trkpt>
      <trkpt lat="45.87683" lon="4.83584">
        <ele>165</ele>
        <time>2017-12-07T12:07:47Z</time>
      </trkpt>
      <trkpt lat="45.87682" lon="4.83577">
        <ele>167</ele>
        <time>2017-12-07T12:07:48Z</time>
      </trkpt>
      <trkpt lat="45.87681" lon="4.8357">
        <ele>167</ele>
        <time>2017-12-07T12:07:49Z</time>
      </trkpt>
      <trkpt lat="45.87684" lon="4.83564">
        <ele>167</ele>
        <time>2017-12-07T12:07:50Z</time>
      </trkpt>
      <trkpt lat="45.87685" lon="4.83558">
        <ele>168</ele>
        <time>2017-12-07T12:07:51Z</time>
      </trkpt>
      <trkpt lat="45.87689" lon="4.83554">
        <ele>168</ele>
        <time>2017-12-07T12:07:52Z</time>
      </trkpt>
      <trkpt lat="45.87693" lon="4.8355">
        <ele>168</ele>
        <time>2017-12-07T12:07:53Z</time>
      </trkpt>
      <trkpt lat="45.87697" lon="4.83546">
        <ele>168</ele>
        <time>2017-12-07T12:07:54Z</time>
      </trkpt>
      <trkpt lat="45.87701" lon="4.83541">
        <ele>169</ele>
        <time>2017-12-07T12:07:55Z</time>
      </trkpt>
      <trkpt lat="45.87706" lon="4.83535">
        <ele>169</ele>
        <time>2017-12-07T12:07:56Z</time>
      </trkpt>
      <trkpt lat="45.87711" lon="4.83529">
        <ele>169</ele>
        <time>2017-12-07T12:07:57Z</time>
      </trkpt>
      <trkpt lat="45.87716" lon="4.83523">
        <ele>169</ele>
        <time>2017-12-07T12:07:58Z</time>
      </trkpt>
      <trkpt lat="45.87722" lon="4.83516">
        <ele>170</ele>
        <time>2017-12-07T12:07:59Z</time>
      </trkpt>
      <trkpt lat="45.87726" lon="4.83509">
        <ele>170</ele>
        <time>2017-12-07T12:08:00Z</time>
      </trkpt>
      <trkpt lat="45.87732" lon="4.83502">
        <ele>171</ele>
        <time>2017-12-07T12:08:01Z</time>
      </trkpt>
      <trkpt lat="45.87736" lon="4.83495">
        <ele>173</ele>
        <time>2017-12-07T12:08:02Z</time>
      </trkpt>
      <trkpt lat="45.87741" lon="4.83489">
        <ele>173</ele>
        <time>2017-12-07T12:08:03Z</time>
      </trkpt>
      <trkpt lat="45.87747" lon="4.83483">
        <ele>172</ele>
        <time>2017-12-07T12:08:04Z</time>
      </trkpt>
      <trkpt lat="45.87753" lon="4.83477">
        <ele>171</ele>
        <time>2017-12-07T12:08:05Z</time>
      </trkpt>
      <trkpt lat="45.87758" lon="4.83471">
        <ele>170</ele>
        <time>2017-12-07T12:08:06Z</time>
      </trkpt>
      <trkpt lat="45.87763" lon="4.83466">
        <ele>170</ele>
        <time>2017-12-07T12:08:07Z</time>
      </trkpt>
      <trkpt lat="45.87767" lon="4.8346">
        <ele>170</ele>
        <time>2017-12-07T12:08:08Z</time>
      </trkpt>
      <trkpt lat="45.87771" lon="4.83454">
        <ele>170</ele>
        <time>2017-12-07T12:08:09Z</time>
      </trkpt>
      <trkpt lat="45.87774" lon="4.83447">
        <ele>170</ele>
        <time>2017-12-07T12:08:10Z</time>
      </trkpt>
      <trkpt lat="45.87778" lon="4.83441">
        <ele>169</ele>
        <time>2017-12-07T12:08:11Z</time>
      </trkpt>
      <trkpt lat="45.87781" lon="4.83433">
        <ele>169</ele>
        <time>2017-12-07T12:08:12Z</time>
      </trkpt>
      <trkpt lat="45.87784" lon="4.83428">
        <ele>169</ele>
        <time>2017-12-07T12:08:13Z</time>
      </trkpt>
      <trkpt lat="45.87787" lon="4.83422">
        <ele>169</ele>
        <time>2017-12-07T12:08:14Z</time>
      </trkpt>
      <trkpt lat="45.8779" lon="4.83413">
        <ele>168</ele>
        <time>2017-12-07T12:08:15Z</time>
      </trkpt>
      <trkpt lat="45.87793" lon="4.83407">
        <ele>168</ele>
        <time>2017-12-07T12:08:16Z</time>
      </trkpt>
      <trkpt lat="45.87798" lon="4.834">
        <ele>168</ele>
        <time>2017-12-07T12:08:17Z</time>
      </trkpt>
      <trkpt lat="45.87801" lon="4.83394">
        <ele>168</ele>
        <time>2017-12-07T12:08:18Z</time>
      </trkpt>
      <trkpt lat="45.87804" lon="4.83387">
        <ele>168</ele>
        <time>2017-12-07T12:08:19Z</time>
      </trkpt>
      <trkpt lat="45.87807" lon="4.8338">
        <ele>168</ele>
        <time>2017-12-07T12:08:20Z</time>
      </trkpt>
      <trkpt lat="45.87811" lon="4.83373">
        <ele>168</ele>
        <time>2017-12-07T12:08:21Z</time>
      </trkpt>
      <trkpt lat="45.87814" lon="4.83366">
        <ele>167</ele>
        <time>2017-12-07T12:08:22Z</time>
      </trkpt>
      <trkpt lat="45.87816" lon="4.83359">
        <ele>167</ele>
        <time>2017-12-07T12:08:23Z</time>
      </trkpt>
      <trkpt lat="45.87819" lon="4.83351">
        <ele>167</ele>
        <time>2017-12-07T12:08:24Z</time>
      </trkpt>
      <trkpt lat="45.87822" lon="4.83346">
        <ele>167</ele>
        <time>2017-12-07T12:08:25Z</time>
      </trkpt>
      <trkpt lat="45.87824" lon="4.83339">
        <ele>166</ele>
        <time>2017-12-07T12:08:26Z</time>
      </trkpt>
      <trkpt lat="45.87826" lon="4.83333">
        <ele>166</ele>
        <time>2017-12-07T12:08:27Z</time>
      </trkpt>
      <trkpt lat="45.87828" lon="4.83326">
        <ele>167</ele>
        <time>2017-12-07T12:08:28Z</time>
      </trkpt>
      <trkpt lat="45.87831" lon="4.83319">
        <ele>167</ele>
        <time>2017-12-07T12:08:29Z</time>
      </trkpt>
      <trkpt lat="45.87833" lon="4.83313">
        <ele>168</ele>
        <time>2017-12-07T12:08:30Z</time>
      </trkpt>
      <trkpt lat="45.87835" lon="4.83306">
        <ele>166</ele>
        <time>2017-12-07T12:08:31Z</time>
      </trkpt>
      <trkpt lat="45.87837" lon="4.833">
        <ele>167</ele>
        <time>2017-12-07T12:08:32Z</time>
      </trkpt>
      <trkpt lat="45.87838" lon="4.83293">
        <ele>167</ele>
        <time>2017-12-07T12:08:33Z</time>
      </trkpt>
      <trkpt lat="45.8784" lon="4.83286">
        <ele>167</ele>
        <time>2017-12-07T12:08:34Z</time>
      </trkpt>
      <trkpt lat="45.87841" lon="4.8328">
        <ele>168</ele>
        <time>2017-12-07T12:08:35Z</time>
      </trkpt>
      <trkpt lat="45.87843" lon="4.83272">
        <ele>168</ele>
        <time>2017-12-07T12:08:36Z</time>
      </trkpt>
      <trkpt lat="45.87845" lon="4.83265">
        <ele>168</ele>
        <time>2017-12-07T12:08:37Z</time>
      </trkpt>
      <trkpt lat="45.87848" lon="4.83257">
        <ele>169</ele>
        <time>2017-12-07T12:08:38Z</time>
      </trkpt>
      <trkpt lat="45.8785" lon="4.83249">
        <ele>170</ele>
        <time>2017-12-07T12:08:39Z</time>
      </trkpt>
      <trkpt lat="45.87853" lon="4.83239">
        <ele>170</ele>
        <time>2017-12-07T12:08:40Z</time>
      </trkpt>
      <trkpt lat="45.87855" lon="4.83231">
        <ele>169</ele>
        <time>2017-12-07T12:08:41Z</time>
      </trkpt>
      <trkpt lat="45.87858" lon="4.83223">
        <ele>169</ele>
        <time>2017-12-07T12:08:42Z</time>
      </trkpt>
      <trkpt lat="45.8786" lon="4.83215">
        <ele>169</ele>
        <time>2017-12-07T12:08:43Z</time>
      </trkpt>
      <trkpt lat="45.87862" lon="4.83208">
        <ele>169</ele>
        <time>2017-12-07T12:08:44Z</time>
      </trkpt>
      <trkpt lat="45.87864" lon="4.832">
        <ele>169</ele>
        <time>2017-12-07T12:08:45Z</time>
      </trkpt>
      <trkpt lat="45.87865" lon="4.83193">
        <ele>169</ele>
        <time>2017-12-07T12:08:46Z</time>
      </trkpt>
      <trkpt lat="45.87866" lon="4.83185">
        <ele>170</ele>
        <time>2017-12-07T12:08:47Z</time>
      </trkpt>
      <trkpt lat="45.87867" lon="4.83177">
        <ele>170</ele>
        <time>2017-12-07T12:08:48Z</time>
      </trkpt>
      <trkpt lat="45.87869" lon="4.83169">
        <ele>170</ele>
        <time>2017-12-07T12:08:49Z</time>
      </trkpt>
      <trkpt lat="45.8787" lon="4.83162">
        <ele>170</ele>
        <time>2017-12-07T12:08:50Z</time>
      </trkpt>
      <trkpt lat="45.87871" lon="4.83155">
        <ele>170</ele>
        <time>2017-12-07T12:08:51Z</time>
      </trkpt>
      <trkpt lat="45.87872" lon="4.83148">
        <ele>170</ele>
        <time>2017-12-07T12:08:52Z</time>
      </trkpt>
      <trkpt lat="45.87873" lon="4.83141">
        <ele>170</ele>
        <time>2017-12-07T12:08:53Z</time>
      </trkpt>
      <trkpt lat="45.87875" lon="4.83132">
        <ele>170</ele>
        <time>2017-12-07T12:08:54Z</time>
      </trkpt>
      <trkpt lat="45.87876" lon="4.83125">
        <ele>169</ele>
        <time>2017-12-07T12:08:55Z</time>
      </trkpt>
      <trkpt lat="45.87877" lon="4.83116">
        <ele>169</ele>
        <time>2017-12-07T12:08:56Z</time>
      </trkpt>
      <trkpt lat="45.87878" lon="4.83107">
        <ele>169</ele>
        <time>2017-12-07T12:08:57Z</time>
      </trkpt>
      <trkpt lat="45.87878" lon="4.83098">
        <ele>169</ele>
        <time>2017-12-07T12:08:58Z</time>
      </trkpt>
      <trkpt lat="45.87879" lon="4.83089">
        <ele>169</ele>
        <time>2017-12-07T12:08:59Z</time>
      </trkpt>
      <trkpt lat="45.87881" lon="4.8308">
        <ele>169</ele>
        <time>2017-12-07T12:09:00Z</time>
      </trkpt>
      <trkpt lat="45.87882" lon="4.83072">
        <ele>169</ele>
        <time>2017-12-07T12:09:01Z</time>
      </trkpt>
      <trkpt lat="45.87883" lon="4.83063">
        <ele>169</ele>
        <time>2017-12-07T12:09:02Z</time>
      </trkpt>
      <trkpt lat="45.87883" lon="4.83055">
        <ele>169</ele>
        <time>2017-12-07T12:09:03Z</time>
      </trkpt>
      <trkpt lat="45.87885" lon="4.83046">
        <ele>169</ele>
        <time>2017-12-07T12:09:04Z</time>
      </trkpt>
      <trkpt lat="45.87886" lon="4.83038">
        <ele>168</ele>
        <time>2017-12-07T12:09:05Z</time>
      </trkpt>
      <trkpt lat="45.87887" lon="4.83031">
        <ele>168</ele>
        <time>2017-12-07T12:09:06Z</time>
      </trkpt>
      <trkpt lat="45.87889" lon="4.83022">
        <ele>168</ele>
        <time>2017-12-07T12:09:07Z</time>
      </trkpt>
      <trkpt lat="45.87889" lon="4.83015">
        <ele>168</ele>
        <time>2017-12-07T12:09:08Z</time>
      </trkpt>
      <trkpt lat="45.87891" lon="4.83008">
        <ele>168</ele>
        <time>2017-12-07T12:09:09Z</time>
      </trkpt>
      <trkpt lat="45.8789" lon="4.83001">
        <ele>168</ele>
        <time>2017-12-07T12:09:10Z</time>
      </trkpt>
      <trkpt lat="45.8789" lon="4.82993">
        <ele>168</ele>
        <time>2017-12-07T12:09:11Z</time>
      </trkpt>
      <trkpt lat="45.87891" lon="4.82985">
        <ele>168</ele>
        <time>2017-12-07T12:09:12Z</time>
      </trkpt>
      <trkpt lat="45.87891" lon="4.82977">
        <ele>168</ele>
        <time>2017-12-07T12:09:13Z</time>
      </trkpt>
      <trkpt lat="45.87891" lon="4.82966">
        <ele>168</ele>
        <time>2017-12-07T12:09:14Z</time>
      </trkpt>
      <trkpt lat="45.87892" lon="4.82958">
        <ele>168</ele>
        <time>2017-12-07T12:09:15Z</time>
      </trkpt>
      <trkpt lat="45.87892" lon="4.8295">
        <ele>168</ele>
        <time>2017-12-07T12:09:16Z</time>
      </trkpt>
      <trkpt lat="45.87892" lon="4.82943">
        <ele>168</ele>
        <time>2017-12-07T12:09:17Z</time>
      </trkpt>
      <trkpt lat="45.87892" lon="4.82934">
        <ele>168</ele>
        <time>2017-12-07T12:09:18Z</time>
      </trkpt>
      <trkpt lat="45.87892" lon="4.82926">
        <ele>168</ele>
        <time>2017-12-07T12:09:19Z</time>
      </trkpt>
      <trkpt lat="45.87892" lon="4.82917">
        <ele>168</ele>
        <time>2017-12-07T12:09:20Z</time>
      </trkpt>
      <trkpt lat="45.87892" lon="4.8291">
        <ele>168</ele>
        <time>2017-12-07T12:09:21Z</time>
      </trkpt>
      <trkpt lat="45.87892" lon="4.82901">
        <ele>168</ele>
        <time>2017-12-07T12:09:22Z</time>
      </trkpt>
      <trkpt lat="45.87892" lon="4.82893">
        <ele>168</ele>
        <time>2017-12-07T12:09:23Z</time>
      </trkpt>
      <trkpt lat="45.87892" lon="4.82885">
        <ele>168</ele>
        <time>2017-12-07T12:09:24Z</time>
      </trkpt>
      <trkpt lat="45.87892" lon="4.82877">
        <ele>168</ele>
        <time>2017-12-07T12:09:25Z</time>
      </trkpt>
      <trkpt lat="45.87891" lon="4.8287">
        <ele>168</ele>
        <time>2017-12-07T12:09:26Z</time>
      </trkpt>
      <trkpt lat="45.87891" lon="4.82863">
        <ele>168</ele>
        <time>2017-12-07T12:09:27Z</time>
      </trkpt>
      <trkpt lat="45.87891" lon="4.82855">
        <ele>168</ele>
        <time>2017-12-07T12:09:28Z</time>
      </trkpt>
      <trkpt lat="45.87891" lon="4.82847">
        <ele>168</ele>
        <time>2017-12-07T12:09:29Z</time>
      </trkpt>
      <trkpt lat="45.87891" lon="4.8284">
        <ele>168</ele>
        <time>2017-12-07T12:09:30Z</time>
      </trkpt>
      <trkpt lat="45.8789" lon="4.82834">
        <ele>168</ele>
        <time>2017-12-07T12:09:31Z</time>
      </trkpt>
      <trkpt lat="45.87889" lon="4.82822">
        <ele>168</ele>
        <time>2017-12-07T12:09:33Z</time>
      </trkpt>
      <trkpt lat="45.8789" lon="4.82813">
        <ele>169</ele>
        <time>2017-12-07T12:09:34Z</time>
      </trkpt>
      <trkpt lat="45.8789" lon="4.82805">
        <ele>169</ele>
        <time>2017-12-07T12:09:35Z</time>
      </trkpt>
      <trkpt lat="45.8789" lon="4.82798">
        <ele>169</ele>
        <time>2017-12-07T12:09:36Z</time>
      </trkpt>
      <trkpt lat="45.87889" lon="4.82788">
        <ele>169</ele>
        <time>2017-12-07T12:09:37Z</time>
      </trkpt>
      <trkpt lat="45.87888" lon="4.8278">
        <ele>169</ele>
        <time>2017-12-07T12:09:38Z</time>
      </trkpt>
      <trkpt lat="45.87887" lon="4.82772">
        <ele>169</ele>
        <time>2017-12-07T12:09:39Z</time>
      </trkpt>
      <trkpt lat="45.87886" lon="4.82763">
        <ele>169</ele>
        <time>2017-12-07T12:09:40Z</time>
      </trkpt>
      <trkpt lat="45.87886" lon="4.82755">
        <ele>169</ele>
        <time>2017-12-07T12:09:41Z</time>
      </trkpt>
      <trkpt lat="45.87885" lon="4.82746">
        <ele>168</ele>
        <time>2017-12-07T12:09:42Z</time>
      </trkpt>
      <trkpt lat="45.87884" lon="4.82737">
        <ele>169</ele>
        <time>2017-12-07T12:09:43Z</time>
      </trkpt>
      <trkpt lat="45.87883" lon="4.82727">
        <ele>169</ele>
        <time>2017-12-07T12:09:44Z</time>
      </trkpt>
      <trkpt lat="45.87883" lon="4.82718">
        <ele>169</ele>
        <time>2017-12-07T12:09:45Z</time>
      </trkpt>
      <trkpt lat="45.87883" lon="4.8271">
        <ele>169</ele>
        <time>2017-12-07T12:09:46Z</time>
      </trkpt>
      <trkpt lat="45.87883" lon="4.82702">
        <ele>169</ele>
        <time>2017-12-07T12:09:47Z</time>
      </trkpt>
      <trkpt lat="45.87885" lon="4.82693">
        <ele>168</ele>
        <time>2017-12-07T12:09:48Z</time>
      </trkpt>
      <trkpt lat="45.87886" lon="4.82686">
        <ele>168</ele>
        <time>2017-12-07T12:09:49Z</time>
      </trkpt>
      <trkpt lat="45.87886" lon="4.82677">
        <ele>168</ele>
        <time>2017-12-07T12:09:50Z</time>
      </trkpt>
      <trkpt lat="45.87888" lon="4.82668">
        <ele>168</ele>
        <time>2017-12-07T12:09:51Z</time>
      </trkpt>
      <trkpt lat="45.87889" lon="4.8266">
        <ele>167</ele>
        <time>2017-12-07T12:09:52Z</time>
      </trkpt>
      <trkpt lat="45.8789" lon="4.82653">
        <ele>167</ele>
        <time>2017-12-07T12:09:53Z</time>
      </trkpt>
      <trkpt lat="45.87891" lon="4.82645">
        <ele>167</ele>
        <time>2017-12-07T12:09:54Z</time>
      </trkpt>
      <trkpt lat="45.87893" lon="4.82638">
        <ele>167</ele>
        <time>2017-12-07T12:09:55Z</time>
      </trkpt>
      <trkpt lat="45.87895" lon="4.82631">
        <ele>167</ele>
        <time>2017-12-07T12:09:56Z</time>
      </trkpt>
      <trkpt lat="45.87897" lon="4.82623">
        <ele>167</ele>
        <time>2017-12-07T12:09:57Z</time>
      </trkpt>
      <trkpt lat="45.87898" lon="4.82614">
        <ele>167</ele>
        <time>2017-12-07T12:09:58Z</time>
      </trkpt>
      <trkpt lat="45.879" lon="4.82605">
        <ele>167</ele>
        <time>2017-12-07T12:09:59Z</time>
      </trkpt>
      <trkpt lat="45.87902" lon="4.82597">
        <ele>167</ele>
        <time>2017-12-07T12:10:00Z</time>
      </trkpt>
      <trkpt lat="45.87904" lon="4.82589">
        <ele>166</ele>
        <time>2017-12-07T12:10:01Z</time>
      </trkpt>
      <trkpt lat="45.87906" lon="4.82582">
        <ele>166</ele>
        <time>2017-12-07T12:10:02Z</time>
      </trkpt>
      <trkpt lat="45.87908" lon="4.82575">
        <ele>166</ele>
        <time>2017-12-07T12:10:03Z</time>
      </trkpt>
      <trkpt lat="45.87909" lon="4.82568">
        <ele>167</ele>
        <time>2017-12-07T12:10:04Z</time>
      </trkpt>
      <trkpt lat="45.87911" lon="4.82561">
        <ele>167</ele>
        <time>2017-12-07T12:10:05Z</time>
      </trkpt>
      <trkpt lat="45.87913" lon="4.82555">
        <ele>167</ele>
        <time>2017-12-07T12:10:06Z</time>
      </trkpt>
      <trkpt lat="45.87915" lon="4.82548">
        <ele>168</ele>
        <time>2017-12-07T12:10:07Z</time>
      </trkpt>
      <trkpt lat="45.87917" lon="4.82541">
        <ele>166</ele>
        <time>2017-12-07T12:10:08Z</time>
      </trkpt>
      <trkpt lat="45.87918" lon="4.82534">
        <ele>166</ele>
        <time>2017-12-07T12:10:09Z</time>
      </trkpt>
      <trkpt lat="45.8792" lon="4.82527">
        <ele>166</ele>
        <time>2017-12-07T12:10:10Z</time>
      </trkpt>
      <trkpt lat="45.87922" lon="4.82521">
        <ele>167</ele>
        <time>2017-12-07T12:10:11Z</time>
      </trkpt>
      <trkpt lat="45.87924" lon="4.82515">
        <ele>167</ele>
        <time>2017-12-07T12:10:12Z</time>
      </trkpt>
      <trkpt lat="45.87925" lon="4.82508">
        <ele>167</ele>
        <time>2017-12-07T12:10:13Z</time>
      </trkpt>
      <trkpt lat="45.87926" lon="4.825">
        <ele>167</ele>
        <time>2017-12-07T12:10:14Z</time>
      </trkpt>
      <trkpt lat="45.87927" lon="4.82494">
        <ele>167</ele>
        <time>2017-12-07T12:10:15Z</time>
      </trkpt>
      <trkpt lat="45.87929" lon="4.82486">
        <ele>167</ele>
        <time>2017-12-07T12:10:16Z</time>
      </trkpt>
      <trkpt lat="45.87931" lon="4.82477">
        <ele>167</ele>
        <time>2017-12-07T12:10:17Z</time>
      </trkpt>
      <trkpt lat="45.87933" lon="4.82469">
        <ele>167</ele>
        <time>2017-12-07T12:10:18Z</time>
      </trkpt>
      <trkpt lat="45.87935" lon="4.8246">
        <ele>167</ele>
        <time>2017-12-07T12:10:19Z</time>
      </trkpt>
      <trkpt lat="45.87936" lon="4.82451">
        <ele>167</ele>
        <time>2017-12-07T12:10:20Z</time>
      </trkpt>
      <trkpt lat="45.87937" lon="4.82442">
        <ele>167</ele>
        <time>2017-12-07T12:10:21Z</time>
      </trkpt>
      <trkpt lat="45.8794" lon="4.82434">
        <ele>166</ele>
        <time>2017-12-07T12:10:22Z</time>
      </trkpt>
      <trkpt lat="45.87941" lon="4.82424">
        <ele>166</ele>
        <time>2017-12-07T12:10:23Z</time>
      </trkpt>
      <trkpt lat="45.87943" lon="4.82415">
        <ele>167</ele>
        <time>2017-12-07T12:10:24Z</time>
      </trkpt>
      <trkpt lat="45.87944" lon="4.82405">
        <ele>167</ele>
        <time>2017-12-07T12:10:25Z</time>
      </trkpt>
      <trkpt lat="45.87946" lon="4.82397">
        <ele>167</ele>
        <time>2017-12-07T12:10:26Z</time>
      </trkpt>
      <trkpt lat="45.87946" lon="4.82388">
        <ele>167</ele>
        <time>2017-12-07T12:10:27Z</time>
      </trkpt>
      <trkpt lat="45.87947" lon="4.8238">
        <ele>167</ele>
        <time>2017-12-07T12:10:28Z</time>
      </trkpt>
      <trkpt lat="45.87948" lon="4.8237">
        <ele>167</ele>
        <time>2017-12-07T12:10:29Z</time>
      </trkpt>
      <trkpt lat="45.87949" lon="4.82362">
        <ele>167</ele>
        <time>2017-12-07T12:10:30Z</time>
      </trkpt>
      <trkpt lat="45.87949" lon="4.82354">
        <ele>167</ele>
        <time>2017-12-07T12:10:31Z</time>
      </trkpt>
      <trkpt lat="45.8795" lon="4.82346">
        <ele>167</ele>
        <time>2017-12-07T12:10:32Z</time>
      </trkpt>
      <trkpt lat="45.87951" lon="4.82339">
        <ele>167</ele>
        <time>2017-12-07T12:10:33Z</time>
      </trkpt>
      <trkpt lat="45.87951" lon="4.82331">
        <ele>168</ele>
        <time>2017-12-07T12:10:34Z</time>
      </trkpt>
      <trkpt lat="45.87951" lon="4.82323">
        <ele>168</ele>
        <time>2017-12-07T12:10:35Z</time>
      </trkpt>
      <trkpt lat="45.87953" lon="4.82316">
        <ele>168</ele>
        <time>2017-12-07T12:10:36Z</time>
      </trkpt>
      <trkpt lat="45.87954" lon="4.82309">
        <ele>168</ele>
        <time>2017-12-07T12:10:37Z</time>
      </trkpt>
      <trkpt lat="45.87956" lon="4.82302">
        <ele>168</ele>
        <time>2017-12-07T12:10:38Z</time>
      </trkpt>
      <trkpt lat="45.87956" lon="4.82294">
        <ele>168</ele>
        <time>2017-12-07T12:10:39Z</time>
      </trkpt>
      <trkpt lat="45.8796" lon="4.82282">
        <ele>168</ele>
        <time>2017-12-07T12:10:40Z</time>
      </trkpt>
      <trkpt lat="45.87961" lon="4.82274">
        <ele>168</ele>
        <time>2017-12-07T12:10:41Z</time>
      </trkpt>
      <trkpt lat="45.87961" lon="4.82267">
        <ele>168</ele>
        <time>2017-12-07T12:10:42Z</time>
      </trkpt>
      <trkpt lat="45.87962" lon="4.82257">
        <ele>168</ele>
        <time>2017-12-07T12:10:43Z</time>
      </trkpt>
      <trkpt lat="45.87962" lon="4.82248">
        <ele>169</ele>
        <time>2017-12-07T12:10:44Z</time>
      </trkpt>
      <trkpt lat="45.87964" lon="4.82238">
        <ele>169</ele>
        <time>2017-12-07T12:10:45Z</time>
      </trkpt>
      <trkpt lat="45.87965" lon="4.82228">
        <ele>169</ele>
        <time>2017-12-07T12:10:46Z</time>
      </trkpt>
      <trkpt lat="45.87965" lon="4.82219">
        <ele>169</ele>
        <time>2017-12-07T12:10:47Z</time>
      </trkpt>
      <trkpt lat="45.87966" lon="4.8221">
        <ele>169</ele>
        <time>2017-12-07T12:10:48Z</time>
      </trkpt>
      <trkpt lat="45.87968" lon="4.822">
        <ele>170</ele>
        <time>2017-12-07T12:10:49Z</time>
      </trkpt>
      <trkpt lat="45.87968" lon="4.82193">
        <ele>170</ele>
        <time>2017-12-07T12:10:50Z</time>
      </trkpt>
      <trkpt lat="45.8797" lon="4.82184">
        <ele>170</ele>
        <time>2017-12-07T12:10:51Z</time>
      </trkpt>
      <trkpt lat="45.87971" lon="4.82178">
        <ele>170</ele>
        <time>2017-12-07T12:10:52Z</time>
      </trkpt>
      <trkpt lat="45.87973" lon="4.8217">
        <ele>170</ele>
        <time>2017-12-07T12:10:53Z</time>
      </trkpt>
      <trkpt lat="45.87974" lon="4.82162">
        <ele>171</ele>
        <time>2017-12-07T12:10:54Z</time>
      </trkpt>
      <trkpt lat="45.87975" lon="4.82156">
        <ele>171</ele>
        <time>2017-12-07T12:10:55Z</time>
      </trkpt>
      <trkpt lat="45.87976" lon="4.8215">
        <ele>171</ele>
        <time>2017-12-07T12:10:56Z</time>
      </trkpt>
      <trkpt lat="45.87978" lon="4.82142">
        <ele>171</ele>
        <time>2017-12-07T12:10:57Z</time>
      </trkpt>
      <trkpt lat="45.87979" lon="4.82135">
        <ele>171</ele>
        <time>2017-12-07T12:10:58Z</time>
      </trkpt>
      <trkpt lat="45.87982" lon="4.82128">
        <ele>171</ele>
        <time>2017-12-07T12:10:59Z</time>
      </trkpt>
      <trkpt lat="45.87986" lon="4.82122">
        <ele>171</ele>
        <time>2017-12-07T12:11:00Z</time>
      </trkpt>
      <trkpt lat="45.87991" lon="4.82116">
        <ele>171</ele>
        <time>2017-12-07T12:11:01Z</time>
      </trkpt>
      <trkpt lat="45.87995" lon="4.82111">
        <ele>171</ele>
        <time>2017-12-07T12:11:02Z</time>
      </trkpt>
      <trkpt lat="45.88001" lon="4.82106">
        <ele>168</ele>
        <time>2017-12-07T12:11:03Z</time>
      </trkpt>
      <trkpt lat="45.88006" lon="4.82102">
        <ele>169</ele>
        <time>2017-12-07T12:11:04Z</time>
      </trkpt>
      <trkpt lat="45.8801" lon="4.82096">
        <ele>169</ele>
        <time>2017-12-07T12:11:05Z</time>
      </trkpt>
      <trkpt lat="45.88014" lon="4.82089">
        <ele>169</ele>
        <time>2017-12-07T12:11:06Z</time>
      </trkpt>
      <trkpt lat="45.88018" lon="4.82084">
        <ele>169</ele>
        <time>2017-12-07T12:11:07Z</time>
      </trkpt>
      <trkpt lat="45.88022" lon="4.82078">
        <ele>169</ele>
        <time>2017-12-07T12:11:08Z</time>
      </trkpt>
      <trkpt lat="45.88025" lon="4.82072">
        <ele>169</ele>
        <time>2017-12-07T12:11:09Z</time>
      </trkpt>
      <trkpt lat="45.88028" lon="4.82066">
        <ele>169</ele>
        <time>2017-12-07T12:11:10Z</time>
      </trkpt>
      <trkpt lat="45.88032" lon="4.8206">
        <ele>168</ele>
        <time>2017-12-07T12:11:11Z</time>
      </trkpt>
      <trkpt lat="45.88035" lon="4.82055">
        <ele>168</ele>
        <time>2017-12-07T12:11:12Z</time>
      </trkpt>
      <trkpt lat="45.88038" lon="4.8205">
        <ele>168</ele>
        <time>2017-12-07T12:11:13Z</time>
      </trkpt>
      <trkpt lat="45.8804" lon="4.82044">
        <ele>168</ele>
        <time>2017-12-07T12:11:14Z</time>
      </trkpt>
      <trkpt lat="45.88042" lon="4.82037">
        <ele>168</ele>
        <time>2017-12-07T12:11:15Z</time>
      </trkpt>
      <trkpt lat="45.88045" lon="4.8203">
        <ele>168</ele>
        <time>2017-12-07T12:11:16Z</time>
      </trkpt>
      <trkpt lat="45.88047" lon="4.82024">
        <ele>168</ele>
        <time>2017-12-07T12:11:17Z</time>
      </trkpt>
      <trkpt lat="45.88049" lon="4.82016">
        <ele>168</ele>
        <time>2017-12-07T12:11:18Z</time>
      </trkpt>
      <trkpt lat="45.88051" lon="4.82008">
        <ele>168</ele>
        <time>2017-12-07T12:11:19Z</time>
      </trkpt>
      <trkpt lat="45.88054" lon="4.82001">
        <ele>168</ele>
        <time>2017-12-07T12:11:20Z</time>
      </trkpt>
      <trkpt lat="45.88057" lon="4.81995">
        <ele>168</ele>
        <time>2017-12-07T12:11:21Z</time>
      </trkpt>
      <trkpt lat="45.88059" lon="4.81986">
        <ele>168</ele>
        <time>2017-12-07T12:11:22Z</time>
      </trkpt>
      <trkpt lat="45.88063" lon="4.81979">
        <ele>168</ele>
        <time>2017-12-07T12:11:23Z</time>
      </trkpt>
      <trkpt lat="45.88066" lon="4.81971">
        <ele>168</ele>
        <time>2017-12-07T12:11:24Z</time>
      </trkpt>
      <trkpt lat="45.88068" lon="4.81964">
        <ele>168</ele>
        <time>2017-12-07T12:11:25Z</time>
      </trkpt>
      <trkpt lat="45.8807" lon="4.81956">
        <ele>168</ele>
        <time>2017-12-07T12:11:26Z</time>
      </trkpt>
      <trkpt lat="45.88072" lon="4.81949">
        <ele>167</ele>
        <time>2017-12-07T12:11:27Z</time>
      </trkpt>
      <trkpt lat="45.88074" lon="4.81942">
        <ele>167</ele>
        <time>2017-12-07T12:11:28Z</time>
      </trkpt>
      <trkpt lat="45.88077" lon="4.81935">
        <ele>167</ele>
        <time>2017-12-07T12:11:29Z</time>
      </trkpt>
      <trkpt lat="45.88079" lon="4.8193">
        <ele>166</ele>
        <time>2017-12-07T12:11:30Z</time>
      </trkpt>
      <trkpt lat="45.88081" lon="4.81922">
        <ele>166</ele>
        <time>2017-12-07T12:11:31Z</time>
      </trkpt>
      <trkpt lat="45.88084" lon="4.81914">
        <ele>165</ele>
        <time>2017-12-07T12:11:32Z</time>
      </trkpt>
      <trkpt lat="45.88088" lon="4.81906">
        <ele>165</ele>
        <time>2017-12-07T12:11:33Z</time>
      </trkpt>
      <trkpt lat="45.88091" lon="4.81897">
        <ele>165</ele>
        <time>2017-12-07T12:11:34Z</time>
      </trkpt>
      <trkpt lat="45.88094" lon="4.81889">
        <ele>165</ele>
        <time>2017-12-07T12:11:35Z</time>
      </trkpt>
      <trkpt lat="45.88097" lon="4.8188">
        <ele>166</ele>
        <time>2017-12-07T12:11:36Z</time>
      </trkpt>
      <trkpt lat="45.881" lon="4.81871">
        <ele>166</ele>
        <time>2017-12-07T12:11:37Z</time>
      </trkpt>
      <trkpt lat="45.88103" lon="4.81862">
        <ele>166</ele>
        <time>2017-12-07T12:11:38Z</time>
      </trkpt>
      <trkpt lat="45.88105" lon="4.81854">
        <ele>166</ele>
        <time>2017-12-07T12:11:39Z</time>
      </trkpt>
      <trkpt lat="45.88111" lon="4.81847">
        <ele>166</ele>
        <time>2017-12-07T12:11:40Z</time>
      </trkpt>
      <trkpt lat="45.88114" lon="4.8184">
        <ele>166</ele>
        <time>2017-12-07T12:11:41Z</time>
      </trkpt>
      <trkpt lat="45.88114" lon="4.81832">
        <ele>167</ele>
        <time>2017-12-07T12:11:42Z</time>
      </trkpt>
      <trkpt lat="45.88117" lon="4.81825">
        <ele>167</ele>
        <time>2017-12-07T12:11:43Z</time>
      </trkpt>
      <trkpt lat="45.88119" lon="4.81818">
        <ele>167</ele>
        <time>2017-12-07T12:11:44Z</time>
      </trkpt>
      <trkpt lat="45.88122" lon="4.8181">
        <ele>167</ele>
        <time>2017-12-07T12:11:45Z</time>
      </trkpt>
      <trkpt lat="45.88124" lon="4.81803">
        <ele>167</ele>
        <time>2017-12-07T12:11:46Z</time>
      </trkpt>
      <trkpt lat="45.88127" lon="4.81797">
        <ele>167</ele>
        <time>2017-12-07T12:11:47Z</time>
      </trkpt>
      <trkpt lat="45.8813" lon="4.81789">
        <ele>167</ele>
        <time>2017-12-07T12:11:48Z</time>
      </trkpt>
      <trkpt lat="45.88132" lon="4.81783">
        <ele>167</ele>
        <time>2017-12-07T12:11:49Z</time>
      </trkpt>
      <trkpt lat="45.88136" lon="4.81776">
        <ele>167</ele>
        <time>2017-12-07T12:11:50Z</time>
      </trkpt>
      <trkpt lat="45.88138" lon="4.81768">
        <ele>167</ele>
        <time>2017-12-07T12:11:51Z</time>
      </trkpt>
      <trkpt lat="45.8814" lon="4.8176">
        <ele>167</ele>
        <time>2017-12-07T12:11:52Z</time>
      </trkpt>
      <trkpt lat="45.88143" lon="4.81753">
        <ele>166</ele>
        <time>2017-12-07T12:11:53Z</time>
      </trkpt>
      <trkpt lat="45.88146" lon="4.81745">
        <ele>168</ele>
        <time>2017-12-07T12:11:54Z</time>
      </trkpt>
      <trkpt lat="45.88149" lon="4.81738">
        <ele>169</ele>
        <time>2017-12-07T12:11:55Z</time>
      </trkpt>
      <trkpt lat="45.88151" lon="4.8173">
        <ele>169</ele>
        <time>2017-12-07T12:11:56Z</time>
      </trkpt>
      <trkpt lat="45.88154" lon="4.81723">
        <ele>169</ele>
        <time>2017-12-07T12:11:57Z</time>
      </trkpt>
      <trkpt lat="45.88157" lon="4.81716">
        <ele>170</ele>
        <time>2017-12-07T12:11:58Z</time>
      </trkpt>
      <trkpt lat="45.8816" lon="4.81709">
        <ele>170</ele>
        <time>2017-12-07T12:11:59Z</time>
      </trkpt>
      <trkpt lat="45.88165" lon="4.81704">
        <ele>171</ele>
        <time>2017-12-07T12:12:00Z</time>
      </trkpt>
      <trkpt lat="45.88168" lon="4.81697">
        <ele>169</ele>
        <time>2017-12-07T12:12:01Z</time>
      </trkpt>
      <trkpt lat="45.88171" lon="4.8169">
        <ele>169</ele>
        <time>2017-12-07T12:12:02Z</time>
      </trkpt>
      <trkpt lat="45.88173" lon="4.81683">
        <ele>170</ele>
        <time>2017-12-07T12:12:03Z</time>
      </trkpt>
      <trkpt lat="45.88175" lon="4.81677">
        <ele>170</ele>
        <time>2017-12-07T12:12:04Z</time>
      </trkpt>
      <trkpt lat="45.8818" lon="4.81668">
        <ele>170</ele>
        <time>2017-12-07T12:12:05Z</time>
      </trkpt>
      <trkpt lat="45.88182" lon="4.81661">
        <ele>171</ele>
        <time>2017-12-07T12:12:06Z</time>
      </trkpt>
      <trkpt lat="45.88184" lon="4.81655">
        <ele>171</ele>
        <time>2017-12-07T12:12:07Z</time>
      </trkpt>
      <trkpt lat="45.88186" lon="4.81647">
        <ele>171</ele>
        <time>2017-12-07T12:12:08Z</time>
      </trkpt>
      <trkpt lat="45.88189" lon="4.8164">
        <ele>171</ele>
        <time>2017-12-07T12:12:09Z</time>
      </trkpt>
      <trkpt lat="45.88192" lon="4.81634">
        <ele>171</ele>
        <time>2017-12-07T12:12:10Z</time>
      </trkpt>
      <trkpt lat="45.88195" lon="4.81627">
        <ele>170</ele>
        <time>2017-12-07T12:12:11Z</time>
      </trkpt>
      <trkpt lat="45.88198" lon="4.81619">
        <ele>170</ele>
        <time>2017-12-07T12:12:12Z</time>
      </trkpt>
      <trkpt lat="45.88201" lon="4.81612">
        <ele>170</ele>
        <time>2017-12-07T12:12:13Z</time>
      </trkpt>
      <trkpt lat="45.88204" lon="4.81604">
        <ele>170</ele>
        <time>2017-12-07T12:12:14Z</time>
      </trkpt>
      <trkpt lat="45.88207" lon="4.81597">
        <ele>170</ele>
        <time>2017-12-07T12:12:15Z</time>
      </trkpt>
      <trkpt lat="45.88209" lon="4.8159">
        <ele>170</ele>
        <time>2017-12-07T12:12:16Z</time>
      </trkpt>
      <trkpt lat="45.88212" lon="4.81582">
        <ele>170</ele>
        <time>2017-12-07T12:12:17Z</time>
      </trkpt>
      <trkpt lat="45.88216" lon="4.81575">
        <ele>170</ele>
        <time>2017-12-07T12:12:18Z</time>
      </trkpt>
      <trkpt lat="45.8822" lon="4.81567">
        <ele>170</ele>
        <time>2017-12-07T12:12:19Z</time>
      </trkpt>
      <trkpt lat="45.88224" lon="4.8156">
        <ele>170</ele>
        <time>2017-12-07T12:12:20Z</time>
      </trkpt>
      <trkpt lat="45.88226" lon="4.81552">
        <ele>170</ele>
        <time>2017-12-07T12:12:21Z</time>
      </trkpt>
      <trkpt lat="45.88229" lon="4.81545">
        <ele>170</ele>
        <time>2017-12-07T12:12:22Z</time>
      </trkpt>
      <trkpt lat="45.88232" lon="4.81539">
        <ele>170</ele>
        <time>2017-12-07T12:12:23Z</time>
      </trkpt>
      <trkpt lat="45.88234" lon="4.81531">
        <ele>170</ele>
        <time>2017-12-07T12:12:24Z</time>
      </trkpt>
      <trkpt lat="45.88237" lon="4.81524">
        <ele>170</ele>
        <time>2017-12-07T12:12:25Z</time>
      </trkpt>
      <trkpt lat="45.8824" lon="4.81518">
        <ele>169</ele>
        <time>2017-12-07T12:12:26Z</time>
      </trkpt>
      <trkpt lat="45.88242" lon="4.81511">
        <ele>169</ele>
        <time>2017-12-07T12:12:27Z</time>
      </trkpt>
      <trkpt lat="45.88245" lon="4.81505">
        <ele>169</ele>
        <time>2017-12-07T12:12:28Z</time>
      </trkpt>
      <trkpt lat="45.88248" lon="4.81499">
        <ele>168</ele>
        <time>2017-12-07T12:12:29Z</time>
      </trkpt>
      <trkpt lat="45.88251" lon="4.81492">
        <ele>167</ele>
        <time>2017-12-07T12:12:30Z</time>
      </trkpt>
      <trkpt lat="45.88255" lon="4.81484">
        <ele>167</ele>
        <time>2017-12-07T12:12:31Z</time>
      </trkpt>
      <trkpt lat="45.88258" lon="4.81479">
        <ele>167</ele>
        <time>2017-12-07T12:12:32Z</time>
      </trkpt>
      <trkpt lat="45.88262" lon="4.81472">
        <ele>167</ele>
        <time>2017-12-07T12:12:33Z</time>
      </trkpt>
      <trkpt lat="45.88266" lon="4.81465">
        <ele>166</ele>
        <time>2017-12-07T12:12:34Z</time>
      </trkpt>
      <trkpt lat="45.8827" lon="4.81457">
        <ele>166</ele>
        <time>2017-12-07T12:12:35Z</time>
      </trkpt>
      <trkpt lat="45.88273" lon="4.81449">
        <ele>166</ele>
        <time>2017-12-07T12:12:36Z</time>
      </trkpt>
      <trkpt lat="45.88277" lon="4.81441">
        <ele>166</ele>
        <time>2017-12-07T12:12:37Z</time>
      </trkpt>
      <trkpt lat="45.8828" lon="4.81433">
        <ele>166</ele>
        <time>2017-12-07T12:12:38Z</time>
      </trkpt>
      <trkpt lat="45.88284" lon="4.81426">
        <ele>166</ele>
        <time>2017-12-07T12:12:39Z</time>
      </trkpt>
      <trkpt lat="45.88287" lon="4.81417">
        <ele>166</ele>
        <time>2017-12-07T12:12:40Z</time>
      </trkpt>
      <trkpt lat="45.88291" lon="4.81411">
        <ele>167</ele>
        <time>2017-12-07T12:12:41Z</time>
      </trkpt>
      <trkpt lat="45.88294" lon="4.81404">
        <ele>168</ele>
        <time>2017-12-07T12:12:42Z</time>
      </trkpt>
      <trkpt lat="45.88298" lon="4.81397">
        <ele>168</ele>
        <time>2017-12-07T12:12:43Z</time>
      </trkpt>
      <trkpt lat="45.88301" lon="4.81391">
        <ele>168</ele>
        <time>2017-12-07T12:12:44Z</time>
      </trkpt>
      <trkpt lat="45.88304" lon="4.81384">
        <ele>168</ele>
        <time>2017-12-07T12:12:45Z</time>
      </trkpt>
      <trkpt lat="45.88307" lon="4.81378">
        <ele>169</ele>
        <time>2017-12-07T12:12:46Z</time>
      </trkpt>
      <trkpt lat="45.8831" lon="4.81373">
        <ele>169</ele>
        <time>2017-12-07T12:12:47Z</time>
      </trkpt>
      <trkpt lat="45.88312" lon="4.81367">
        <ele>169</ele>
        <time>2017-12-07T12:12:48Z</time>
      </trkpt>
      <trkpt lat="45.88315" lon="4.8136">
        <ele>169</ele>
        <time>2017-12-07T12:12:49Z</time>
      </trkpt>
      <trkpt lat="45.88317" lon="4.81353">
        <ele>170</ele>
        <time>2017-12-07T12:12:50Z</time>
      </trkpt>
      <trkpt lat="45.8832" lon="4.81348">
        <ele>170</ele>
        <time>2017-12-07T12:12:51Z</time>
      </trkpt>
      <trkpt lat="45.88322" lon="4.81341">
        <ele>171</ele>
        <time>2017-12-07T12:12:52Z</time>
      </trkpt>
      <trkpt lat="45.88326" lon="4.81334">
        <ele>172</ele>
        <time>2017-12-07T12:12:53Z</time>
      </trkpt>
      <trkpt lat="45.88329" lon="4.81328">
        <ele>173</ele>
        <time>2017-12-07T12:12:54Z</time>
      </trkpt>
      <trkpt lat="45.88332" lon="4.81321">
        <ele>172</ele>
        <time>2017-12-07T12:12:55Z</time>
      </trkpt>
      <trkpt lat="45.88336" lon="4.81315">
        <ele>171</ele>
        <time>2017-12-07T12:12:56Z</time>
      </trkpt>
      <trkpt lat="45.88339" lon="4.81307">
        <ele>171</ele>
        <time>2017-12-07T12:12:57Z</time>
      </trkpt>
      <trkpt lat="45.88344" lon="4.81301">
        <ele>170</ele>
        <time>2017-12-07T12:12:58Z</time>
      </trkpt>
      <trkpt lat="45.88348" lon="4.81294">
        <ele>170</ele>
        <time>2017-12-07T12:12:59Z</time>
      </trkpt>
      <trkpt lat="45.88352" lon="4.81287">
        <ele>170</ele>
        <time>2017-12-07T12:13:00Z</time>
      </trkpt>
      <trkpt lat="45.88355" lon="4.81279">
        <ele>170</ele>
        <time>2017-12-07T12:13:01Z</time>
      </trkpt>
      <trkpt lat="45.88358" lon="4.81272">
        <ele>170</ele>
        <time>2017-12-07T12:13:02Z</time>
      </trkpt>
      <trkpt lat="45.88362" lon="4.81266">
        <ele>170</ele>
        <time>2017-12-07T12:13:03Z</time>
      </trkpt>
      <trkpt lat="45.88366" lon="4.81259">
        <ele>170</ele>
        <time>2017-12-07T12:13:04Z</time>
      </trkpt>
      <trkpt lat="45.88369" lon="4.81253">
        <ele>170</ele>
        <time>2017-12-07T12:13:05Z</time>
      </trkpt>
      <trkpt lat="45.88372" lon="4.81247">
        <ele>170</ele>
        <time>2017-12-07T12:13:06Z</time>
      </trkpt>
      <trkpt lat="45.88375" lon="4.81242">
        <ele>170</ele>
        <time>2017-12-07T12:13:07Z</time>
      </trkpt>
      <trkpt lat="45.88377" lon="4.81236">
        <ele>170</ele>
        <time>2017-12-07T12:13:08Z</time>
      </trkpt>
      <trkpt lat="45.88379" lon="4.81231">
        <ele>170</ele>
        <time>2017-12-07T12:13:09Z</time>
      </trkpt>
      <trkpt lat="45.88383" lon="4.81225">
        <ele>170</ele>
        <time>2017-12-07T12:13:10Z</time>
      </trkpt>
      <trkpt lat="45.88386" lon="4.81221">
        <ele>170</ele>
        <time>2017-12-07T12:13:11Z</time>
      </trkpt>
      <trkpt lat="45.88391" lon="4.81215">
        <ele>170</ele>
        <time>2017-12-07T12:13:12Z</time>
      </trkpt>
      <trkpt lat="45.88393" lon="4.8121">
        <ele>170</ele>
        <time>2017-12-07T12:13:13Z</time>
      </trkpt>
      <trkpt lat="45.88397" lon="4.81205">
        <ele>170</ele>
        <time>2017-12-07T12:13:14Z</time>
      </trkpt>
      <trkpt lat="45.884" lon="4.812">
        <ele>170</ele>
        <time>2017-12-07T12:13:15Z</time>
      </trkpt>
      <trkpt lat="45.88404" lon="4.81194">
        <ele>170</ele>
        <time>2017-12-07T12:13:16Z</time>
      </trkpt>
      <trkpt lat="45.88408" lon="4.81187">
        <ele>170</ele>
        <time>2017-12-07T12:13:17Z</time>
      </trkpt>
      <trkpt lat="45.88413" lon="4.8118">
        <ele>170</ele>
        <time>2017-12-07T12:13:18Z</time>
      </trkpt>
      <trkpt lat="45.88417" lon="4.81173">
        <ele>169</ele>
        <time>2017-12-07T12:13:19Z</time>
      </trkpt>
      <trkpt lat="45.88422" lon="4.81166">
        <ele>170</ele>
        <time>2017-12-07T12:13:20Z</time>
      </trkpt>
      <trkpt lat="45.88427" lon="4.81157">
        <ele>169</ele>
        <time>2017-12-07T12:13:21Z</time>
      </trkpt>
      <trkpt lat="45.88431" lon="4.8115">
        <ele>169</ele>
        <time>2017-12-07T12:13:22Z</time>
      </trkpt>
      <trkpt lat="45.88435" lon="4.81144">
        <ele>168</ele>
        <time>2017-12-07T12:13:23Z</time>
      </trkpt>
      <trkpt lat="45.88439" lon="4.81138">
        <ele>168</ele>
        <time>2017-12-07T12:13:24Z</time>
      </trkpt>
      <trkpt lat="45.88444" lon="4.81131">
        <ele>168</ele>
        <time>2017-12-07T12:13:25Z</time>
      </trkpt>
      <trkpt lat="45.88448" lon="4.81124">
        <ele>168</ele>
        <time>2017-12-07T12:13:26Z</time>
      </trkpt>
      <trkpt lat="45.88452" lon="4.81117">
        <ele>168</ele>
        <time>2017-12-07T12:13:27Z</time>
      </trkpt>
      <trkpt lat="45.88456" lon="4.8111">
        <ele>168</ele>
        <time>2017-12-07T12:13:28Z</time>
      </trkpt>
      <trkpt lat="45.88459" lon="4.81103">
        <ele>168</ele>
        <time>2017-12-07T12:13:29Z</time>
      </trkpt>
      <trkpt lat="45.88464" lon="4.81096">
        <ele>168</ele>
        <time>2017-12-07T12:13:30Z</time>
      </trkpt>
      <trkpt lat="45.88469" lon="4.8109">
        <ele>168</ele>
        <time>2017-12-07T12:13:31Z</time>
      </trkpt>
      <trkpt lat="45.88474" lon="4.81084">
        <ele>168</ele>
        <time>2017-12-07T12:13:32Z</time>
      </trkpt>
      <trkpt lat="45.88478" lon="4.81076">
        <ele>168</ele>
        <time>2017-12-07T12:13:33Z</time>
      </trkpt>
      <trkpt lat="45.88484" lon="4.81068">
        <ele>168</ele>
        <time>2017-12-07T12:13:34Z</time>
      </trkpt>
      <trkpt lat="45.88489" lon="4.8106">
        <ele>168</ele>
        <time>2017-12-07T12:13:35Z</time>
      </trkpt>
      <trkpt lat="45.88495" lon="4.81053">
        <ele>168</ele>
        <time>2017-12-07T12:13:36Z</time>
      </trkpt>
      <trkpt lat="45.885" lon="4.81046">
        <ele>168</ele>
        <time>2017-12-07T12:13:37Z</time>
      </trkpt>
      <trkpt lat="45.88505" lon="4.8104">
        <ele>169</ele>
        <time>2017-12-07T12:13:38Z</time>
      </trkpt>
      <trkpt lat="45.88511" lon="4.81033">
        <ele>169</ele>
        <time>2017-12-07T12:13:39Z</time>
      </trkpt>
      <trkpt lat="45.88516" lon="4.81026">
        <ele>169</ele>
        <time>2017-12-07T12:13:40Z</time>
      </trkpt>
      <trkpt lat="45.8852" lon="4.8102">
        <ele>169</ele>
        <time>2017-12-07T12:13:41Z</time>
      </trkpt>
      <trkpt lat="45.88525" lon="4.81013">
        <ele>169</ele>
        <time>2017-12-07T12:13:42Z</time>
      </trkpt>
      <trkpt lat="45.8853" lon="4.81006">
        <ele>169</ele>
        <time>2017-12-07T12:13:43Z</time>
      </trkpt>
      <trkpt lat="45.88535" lon="4.81">
        <ele>169</ele>
        <time>2017-12-07T12:13:44Z</time>
      </trkpt>
      <trkpt lat="45.88541" lon="4.80994">
        <ele>169</ele>
        <time>2017-12-07T12:13:45Z</time>
      </trkpt>
      <trkpt lat="45.88546" lon="4.80988">
        <ele>169</ele>
        <time>2017-12-07T12:13:46Z</time>
      </trkpt>
      <trkpt lat="45.8855" lon="4.80985">
        <ele>169</ele>
        <time>2017-12-07T12:13:47Z</time>
      </trkpt>
      <trkpt lat="45.88555" lon="4.80978">
        <ele>169</ele>
        <time>2017-12-07T12:13:48Z</time>
      </trkpt>
      <trkpt lat="45.8856" lon="4.80973">
        <ele>169</ele>
        <time>2017-12-07T12:13:49Z</time>
      </trkpt>
      <trkpt lat="45.88565" lon="4.80967">
        <ele>169</ele>
        <time>2017-12-07T12:13:50Z</time>
      </trkpt>
      <trkpt lat="45.88569" lon="4.80961">
        <ele>169</ele>
        <time>2017-12-07T12:13:51Z</time>
      </trkpt>
      <trkpt lat="45.88573" lon="4.80955">
        <ele>169</ele>
        <time>2017-12-07T12:13:52Z</time>
      </trkpt>
      <trkpt lat="45.88578" lon="4.80951">
        <ele>169</ele>
        <time>2017-12-07T12:13:53Z</time>
      </trkpt>
      <trkpt lat="45.88582" lon="4.80946">
        <ele>169</ele>
        <time>2017-12-07T12:13:54Z</time>
      </trkpt>
      <trkpt lat="45.88586" lon="4.80942">
        <ele>169</ele>
        <time>2017-12-07T12:13:55Z</time>
      </trkpt>
      <trkpt lat="45.8859" lon="4.80937">
        <ele>169</ele>
        <time>2017-12-07T12:13:56Z</time>
      </trkpt>
      <trkpt lat="45.88595" lon="4.80933">
        <ele>169</ele>
        <time>2017-12-07T12:13:57Z</time>
      </trkpt>
      <trkpt lat="45.88598" lon="4.80927">
        <ele>169</ele>
        <time>2017-12-07T12:13:58Z</time>
      </trkpt>
      <trkpt lat="45.88603" lon="4.80922">
        <ele>169</ele>
        <time>2017-12-07T12:13:59Z</time>
      </trkpt>
      <trkpt lat="45.88608" lon="4.80917">
        <ele>169</ele>
        <time>2017-12-07T12:14:00Z</time>
      </trkpt>
      <trkpt lat="45.88612" lon="4.80912">
        <ele>170</ele>
        <time>2017-12-07T12:14:01Z</time>
      </trkpt>
      <trkpt lat="45.88616" lon="4.80906">
        <ele>170</ele>
        <time>2017-12-07T12:14:02Z</time>
      </trkpt>
      <trkpt lat="45.88621" lon="4.80899">
        <ele>171</ele>
        <time>2017-12-07T12:14:03Z</time>
      </trkpt>
      <trkpt lat="45.88625" lon="4.80893">
        <ele>171</ele>
        <time>2017-12-07T12:14:04Z</time>
      </trkpt>
      <trkpt lat="45.88632" lon="4.80887">
        <ele>171</ele>
        <time>2017-12-07T12:14:05Z</time>
      </trkpt>
      <trkpt lat="45.88637" lon="4.80881">
        <ele>171</ele>
        <time>2017-12-07T12:14:06Z</time>
      </trkpt>
      <trkpt lat="45.88642" lon="4.80875">
        <ele>171</ele>
        <time>2017-12-07T12:14:07Z</time>
      </trkpt>
      <trkpt lat="45.88646" lon="4.8087">
        <ele>171</ele>
        <time>2017-12-07T12:14:08Z</time>
      </trkpt>
      <trkpt lat="45.88651" lon="4.80865">
        <ele>171</ele>
        <time>2017-12-07T12:14:09Z</time>
      </trkpt>
      <trkpt lat="45.88656" lon="4.8086">
        <ele>171</ele>
        <time>2017-12-07T12:14:10Z</time>
      </trkpt>
      <trkpt lat="45.88661" lon="4.80855">
        <ele>171</ele>
        <time>2017-12-07T12:14:11Z</time>
      </trkpt>
      <trkpt lat="45.88665" lon="4.8085">
        <ele>171</ele>
        <time>2017-12-07T12:14:12Z</time>
      </trkpt>
      <trkpt lat="45.88671" lon="4.80845">
        <ele>171</ele>
        <time>2017-12-07T12:14:13Z</time>
      </trkpt>
      <trkpt lat="45.88675" lon="4.80841">
        <ele>171</ele>
        <time>2017-12-07T12:14:14Z</time>
      </trkpt>
      <trkpt lat="45.88679" lon="4.80836">
        <ele>170</ele>
        <time>2017-12-07T12:14:15Z</time>
      </trkpt>
      <trkpt lat="45.88684" lon="4.80832">
        <ele>171</ele>
        <time>2017-12-07T12:14:16Z</time>
      </trkpt>
      <trkpt lat="45.88688" lon="4.80826">
        <ele>171</ele>
        <time>2017-12-07T12:14:17Z</time>
      </trkpt>
      <trkpt lat="45.88692" lon="4.8082">
        <ele>171</ele>
        <time>2017-12-07T12:14:18Z</time>
      </trkpt>
      <trkpt lat="45.88697" lon="4.80815">
        <ele>171</ele>
        <time>2017-12-07T12:14:19Z</time>
      </trkpt>
      <trkpt lat="45.88702" lon="4.80811">
        <ele>171</ele>
        <time>2017-12-07T12:14:20Z</time>
      </trkpt>
      <trkpt lat="45.88707" lon="4.80805">
        <ele>170</ele>
        <time>2017-12-07T12:14:21Z</time>
      </trkpt>
      <trkpt lat="45.88711" lon="4.808">
        <ele>170</ele>
        <time>2017-12-07T12:14:22Z</time>
      </trkpt>
      <trkpt lat="45.88716" lon="4.80794">
        <ele>170</ele>
        <time>2017-12-07T12:14:23Z</time>
      </trkpt>
      <trkpt lat="45.88721" lon="4.80789">
        <ele>170</ele>
        <time>2017-12-07T12:14:24Z</time>
      </trkpt>
      <trkpt lat="45.88726" lon="4.80783">
        <ele>170</ele>
        <time>2017-12-07T12:14:25Z</time>
      </trkpt>
      <trkpt lat="45.88731" lon="4.80778">
        <ele>170</ele>
        <time>2017-12-07T12:14:26Z</time>
      </trkpt>
      <trkpt lat="45.88737" lon="4.80772">
        <ele>170</ele>
        <time>2017-12-07T12:14:27Z</time>
      </trkpt>
      <trkpt lat="45.88743" lon="4.80766">
        <ele>170</ele>
        <time>2017-12-07T12:14:28Z</time>
      </trkpt>
      <trkpt lat="45.8875" lon="4.8076">
        <ele>169</ele>
        <time>2017-12-07T12:14:29Z</time>
      </trkpt>
      <trkpt lat="45.88756" lon="4.80755">
        <ele>169</ele>
        <time>2017-12-07T12:14:30Z</time>
      </trkpt>
      <trkpt lat="45.88762" lon="4.80748">
        <ele>170</ele>
        <time>2017-12-07T12:14:31Z</time>
      </trkpt>
      <trkpt lat="45.88767" lon="4.80742">
        <ele>170</ele>
        <time>2017-12-07T12:14:32Z</time>
      </trkpt>
      <trkpt lat="45.88772" lon="4.80737">
        <ele>171</ele>
        <time>2017-12-07T12:14:33Z</time>
      </trkpt>
      <trkpt lat="45.88776" lon="4.80732">
        <ele>171</ele>
        <time>2017-12-07T12:14:34Z</time>
      </trkpt>
      <trkpt lat="45.8878" lon="4.80726">
        <ele>171</ele>
        <time>2017-12-07T12:14:35Z</time>
      </trkpt>
      <trkpt lat="45.88785" lon="4.80721">
        <ele>171</ele>
        <time>2017-12-07T12:14:36Z</time>
      </trkpt>
      <trkpt lat="45.8879" lon="4.80717">
        <ele>172</ele>
        <time>2017-12-07T12:14:37Z</time>
      </trkpt>
      <trkpt lat="45.88795" lon="4.80712">
        <ele>172</ele>
        <time>2017-12-07T12:14:38Z</time>
      </trkpt>
      <trkpt lat="45.88799" lon="4.80706">
        <ele>172</ele>
        <time>2017-12-07T12:14:39Z</time>
      </trkpt>
      <trkpt lat="45.88804" lon="4.807">
        <ele>172</ele>
        <time>2017-12-07T12:14:40Z</time>
      </trkpt>
      <trkpt lat="45.88808" lon="4.80696">
        <ele>172</ele>
        <time>2017-12-07T12:14:41Z</time>
      </trkpt>
      <trkpt lat="45.88813" lon="4.80691">
        <ele>172</ele>
        <time>2017-12-07T12:14:42Z</time>
      </trkpt>
      <trkpt lat="45.88817" lon="4.80686">
        <ele>172</ele>
        <time>2017-12-07T12:14:43Z</time>
      </trkpt>
      <trkpt lat="45.88822" lon="4.80681">
        <ele>172</ele>
        <time>2017-12-07T12:14:44Z</time>
      </trkpt>
      <trkpt lat="45.88828" lon="4.80676">
        <ele>173</ele>
        <time>2017-12-07T12:14:45Z</time>
      </trkpt>
      <trkpt lat="45.88832" lon="4.80671">
        <ele>173</ele>
        <time>2017-12-07T12:14:46Z</time>
      </trkpt>
      <trkpt lat="45.88838" lon="4.80666">
        <ele>173</ele>
        <time>2017-12-07T12:14:47Z</time>
      </trkpt>
      <trkpt lat="45.88843" lon="4.80662">
        <ele>173</ele>
        <time>2017-12-07T12:14:48Z</time>
      </trkpt>
      <trkpt lat="45.88847" lon="4.80658">
        <ele>173</ele>
        <time>2017-12-07T12:14:49Z</time>
      </trkpt>
      <trkpt lat="45.88852" lon="4.80654">
        <ele>173</ele>
        <time>2017-12-07T12:14:50Z</time>
      </trkpt>
      <trkpt lat="45.88856" lon="4.8065">
        <ele>172</ele>
        <time>2017-12-07T12:14:51Z</time>
      </trkpt>
      <trkpt lat="45.88861" lon="4.80647">
        <ele>172</ele>
        <time>2017-12-07T12:14:52Z</time>
      </trkpt>
      <trkpt lat="45.88864" lon="4.80643">
        <ele>172</ele>
        <time>2017-12-07T12:14:53Z</time>
      </trkpt>
      <trkpt lat="45.88869" lon="4.8064">
        <ele>172</ele>
        <time>2017-12-07T12:14:54Z</time>
      </trkpt>
      <trkpt lat="45.88874" lon="4.80636">
        <ele>172</ele>
        <time>2017-12-07T12:14:55Z</time>
      </trkpt>
      <trkpt lat="45.8888" lon="4.80631">
        <ele>172</ele>
        <time>2017-12-07T12:14:56Z</time>
      </trkpt>
      <trkpt lat="45.88886" lon="4.8063">
        <ele>172</ele>
        <time>2017-12-07T12:14:57Z</time>
      </trkpt>
      <trkpt lat="45.88891" lon="4.80627">
        <ele>172</ele>
        <time>2017-12-07T12:14:58Z</time>
      </trkpt>
      <trkpt lat="45.88896" lon="4.80624">
        <ele>172</ele>
        <time>2017-12-07T12:14:59Z</time>
      </trkpt>
      <trkpt lat="45.88901" lon="4.80621">
        <ele>172</ele>
        <time>2017-12-07T12:15:00Z</time>
      </trkpt>
      <trkpt lat="45.88905" lon="4.80618">
        <ele>172</ele>
        <time>2017-12-07T12:15:01Z</time>
      </trkpt>
      <trkpt lat="45.88909" lon="4.80616">
        <ele>172</ele>
        <time>2017-12-07T12:15:02Z</time>
      </trkpt>
      <trkpt lat="45.88913" lon="4.80612">
        <ele>172</ele>
        <time>2017-12-07T12:15:03Z</time>
      </trkpt>
      <trkpt lat="45.88917" lon="4.80607">
        <ele>170</ele>
        <time>2017-12-07T12:15:04Z</time>
      </trkpt>
      <trkpt lat="45.8892" lon="4.80604">
        <ele>170</ele>
        <time>2017-12-07T12:15:05Z</time>
      </trkpt>
      <trkpt lat="45.88924" lon="4.80599">
        <ele>170</ele>
        <time>2017-12-07T12:15:06Z</time>
      </trkpt>
      <trkpt lat="45.88928" lon="4.80595">
        <ele>170</ele>
        <time>2017-12-07T12:15:07Z</time>
      </trkpt>
      <trkpt lat="45.88932" lon="4.80592">
        <ele>170</ele>
        <time>2017-12-07T12:15:08Z</time>
      </trkpt>
      <trkpt lat="45.88937" lon="4.8059">
        <ele>170</ele>
        <time>2017-12-07T12:15:09Z</time>
      </trkpt>
      <trkpt lat="45.88943" lon="4.80588">
        <ele>170</ele>
        <time>2017-12-07T12:15:10Z</time>
      </trkpt>
      <trkpt lat="45.88948" lon="4.80585">
        <ele>170</ele>
        <time>2017-12-07T12:15:11Z</time>
      </trkpt>
      <trkpt lat="45.88954" lon="4.80581">
        <ele>172</ele>
        <time>2017-12-07T12:15:12Z</time>
      </trkpt>
      <trkpt lat="45.8896" lon="4.80581">
        <ele>172</ele>
        <time>2017-12-07T12:15:13Z</time>
      </trkpt>
      <trkpt lat="45.88966" lon="4.80579">
        <ele>172</ele>
        <time>2017-12-07T12:15:14Z</time>
      </trkpt>
      <trkpt lat="45.88971" lon="4.80577">
        <ele>172</ele>
        <time>2017-12-07T12:15:15Z</time>
      </trkpt>
      <trkpt lat="45.88978" lon="4.80574">
        <ele>172</ele>
        <time>2017-12-07T12:15:16Z</time>
      </trkpt>
      <trkpt lat="45.88984" lon="4.80572">
        <ele>172</ele>
        <time>2017-12-07T12:15:17Z</time>
      </trkpt>
      <trkpt lat="45.88987" lon="4.80565">
        <ele>172</ele>
        <time>2017-12-07T12:15:18Z</time>
      </trkpt>
      <trkpt lat="45.88994" lon="4.80565">
        <ele>172</ele>
        <time>2017-12-07T12:15:19Z</time>
      </trkpt>
      <trkpt lat="45.88999" lon="4.80564">
        <ele>172</ele>
        <time>2017-12-07T12:15:20Z</time>
      </trkpt>
      <trkpt lat="45.89005" lon="4.8056">
        <ele>172</ele>
        <time>2017-12-07T12:15:21Z</time>
      </trkpt>
      <trkpt lat="45.89011" lon="4.80558">
        <ele>172</ele>
        <time>2017-12-07T12:15:22Z</time>
      </trkpt>
      <trkpt lat="45.89017" lon="4.80556">
        <ele>172</ele>
        <time>2017-12-07T12:15:23Z</time>
      </trkpt>
      <trkpt lat="45.89021" lon="4.80554">
        <ele>172</ele>
        <time>2017-12-07T12:15:24Z</time>
      </trkpt>
      <trkpt lat="45.89026" lon="4.80553">
        <ele>173</ele>
        <time>2017-12-07T12:15:25Z</time>
      </trkpt>
      <trkpt lat="45.89033" lon="4.80555">
        <ele>172</ele>
        <time>2017-12-07T12:15:26Z</time>
      </trkpt>
      <trkpt lat="45.89039" lon="4.80553">
        <ele>173</ele>
        <time>2017-12-07T12:15:27Z</time>
      </trkpt>
      <trkpt lat="45.89045" lon="4.80552">
        <ele>173</ele>
        <time>2017-12-07T12:15:28Z</time>
      </trkpt>
      <trkpt lat="45.89051" lon="4.80549">
        <ele>173</ele>
        <time>2017-12-07T12:15:29Z</time>
      </trkpt>
      <trkpt lat="45.89057" lon="4.80548">
        <ele>173</ele>
        <time>2017-12-07T12:15:30Z</time>
      </trkpt>
      <trkpt lat="45.89064" lon="4.80544">
        <ele>173</ele>
        <time>2017-12-07T12:15:31Z</time>
      </trkpt>
      <trkpt lat="45.8907" lon="4.8054">
        <ele>173</ele>
        <time>2017-12-07T12:15:32Z</time>
      </trkpt>
      <trkpt lat="45.89075" lon="4.80539">
        <ele>173</ele>
        <time>2017-12-07T12:15:33Z</time>
      </trkpt>
      <trkpt lat="45.89083" lon="4.80538">
        <ele>173</ele>
        <time>2017-12-07T12:15:34Z</time>
      </trkpt>
      <trkpt lat="45.89088" lon="4.80535">
        <ele>173</ele>
        <time>2017-12-07T12:15:35Z</time>
      </trkpt>
      <trkpt lat="45.89094" lon="4.80533">
        <ele>173</ele>
        <time>2017-12-07T12:15:36Z</time>
      </trkpt>
      <trkpt lat="45.891" lon="4.80531">
        <ele>173</ele>
        <time>2017-12-07T12:15:37Z</time>
      </trkpt>
      <trkpt lat="45.89106" lon="4.80529">
        <ele>173</ele>
        <time>2017-12-07T12:15:38Z</time>
      </trkpt>
      <trkpt lat="45.89112" lon="4.80527">
        <ele>173</ele>
        <time>2017-12-07T12:15:39Z</time>
      </trkpt>
      <trkpt lat="45.89118" lon="4.80523">
        <ele>173</ele>
        <time>2017-12-07T12:15:40Z</time>
      </trkpt>
      <trkpt lat="45.89123" lon="4.80519">
        <ele>173</ele>
        <time>2017-12-07T12:15:41Z</time>
      </trkpt>
      <trkpt lat="45.89128" lon="4.80517">
        <ele>173</ele>
        <time>2017-12-07T12:15:42Z</time>
      </trkpt>
      <trkpt lat="45.89135" lon="4.80517">
        <ele>173</ele>
        <time>2017-12-07T12:15:43Z</time>
      </trkpt>
      <trkpt lat="45.89139" lon="4.80509">
        <ele>173</ele>
        <time>2017-12-07T12:15:44Z</time>
      </trkpt>
      <trkpt lat="45.89145" lon="4.80506">
        <ele>173</ele>
        <time>2017-12-07T12:15:45Z</time>
      </trkpt>
      <trkpt lat="45.8915" lon="4.80504">
        <ele>173</ele>
        <time>2017-12-07T12:15:46Z</time>
      </trkpt>
      <trkpt lat="45.89154" lon="4.80502">
        <ele>173</ele>
        <time>2017-12-07T12:15:47Z</time>
      </trkpt>
      <trkpt lat="45.89158" lon="4.805">
        <ele>174</ele>
        <time>2017-12-07T12:15:48Z</time>
      </trkpt>
      <trkpt lat="45.89163" lon="4.80497">
        <ele>174</ele>
        <time>2017-12-07T12:15:49Z</time>
      </trkpt>
      <trkpt lat="45.89169" lon="4.80494">
        <ele>173</ele>
        <time>2017-12-07T12:15:50Z</time>
      </trkpt>
      <trkpt lat="45.89173" lon="4.80492">
        <ele>173</ele>
        <time>2017-12-07T12:15:51Z</time>
      </trkpt>
      <trkpt lat="45.89178" lon="4.80487">
        <ele>173</ele>
        <time>2017-12-07T12:15:52Z</time>
      </trkpt>
      <trkpt lat="45.89182" lon="4.80483">
        <ele>173</ele>
        <time>2017-12-07T12:15:53Z</time>
      </trkpt>
      <trkpt lat="45.89186" lon="4.80478">
        <ele>173</ele>
        <time>2017-12-07T12:15:54Z</time>
      </trkpt>
      <trkpt lat="45.8919" lon="4.80474">
        <ele>173</ele>
        <time>2017-12-07T12:15:55Z</time>
      </trkpt>
      <trkpt lat="45.89197" lon="4.80468">
        <ele>174</ele>
        <time>2017-12-07T12:15:56Z</time>
      </trkpt>
      <trkpt lat="45.89202" lon="4.80463">
        <ele>174</ele>
        <time>2017-12-07T12:15:57Z</time>
      </trkpt>
      <trkpt lat="45.89208" lon="4.80458">
        <ele>174</ele>
        <time>2017-12-07T12:15:58Z</time>
      </trkpt>
      <trkpt lat="45.89213" lon="4.80454">
        <ele>174</ele>
        <time>2017-12-07T12:15:59Z</time>
      </trkpt>
      <trkpt lat="45.89219" lon="4.80449">
        <ele>173</ele>
        <time>2017-12-07T12:16:00Z</time>
      </trkpt>
      <trkpt lat="45.89224" lon="4.80445">
        <ele>173</ele>
        <time>2017-12-07T12:16:01Z</time>
      </trkpt>
      <trkpt lat="45.89229" lon="4.8044">
        <ele>173</ele>
        <time>2017-12-07T12:16:02Z</time>
      </trkpt>
      <trkpt lat="45.89236" lon="4.80435">
        <ele>173</ele>
        <time>2017-12-07T12:16:03Z</time>
      </trkpt>
      <trkpt lat="45.89241" lon="4.80428">
        <ele>173</ele>
        <time>2017-12-07T12:16:04Z</time>
      </trkpt>
      <trkpt lat="45.89246" lon="4.80424">
        <ele>173</ele>
        <time>2017-12-07T12:16:05Z</time>
      </trkpt>
      <trkpt lat="45.89252" lon="4.80418">
        <ele>173</ele>
        <time>2017-12-07T12:16:06Z</time>
      </trkpt>
      <trkpt lat="45.89258" lon="4.80412">
        <ele>173</ele>
        <time>2017-12-07T12:16:07Z</time>
      </trkpt>
      <trkpt lat="45.89263" lon="4.80407">
        <ele>174</ele>
        <time>2017-12-07T12:16:08Z</time>
      </trkpt>
      <trkpt lat="45.89269" lon="4.80402">
        <ele>174</ele>
        <time>2017-12-07T12:16:09Z</time>
      </trkpt>
      <trkpt lat="45.89274" lon="4.80397">
        <ele>174</ele>
        <time>2017-12-07T12:16:10Z</time>
      </trkpt>
      <trkpt lat="45.89279" lon="4.80393">
        <ele>174</ele>
        <time>2017-12-07T12:16:11Z</time>
      </trkpt>
      <trkpt lat="45.89284" lon="4.80388">
        <ele>174</ele>
        <time>2017-12-07T12:16:12Z</time>
      </trkpt>
      <trkpt lat="45.8929" lon="4.80383">
        <ele>174</ele>
        <time>2017-12-07T12:16:13Z</time>
      </trkpt>
      <trkpt lat="45.89295" lon="4.80378">
        <ele>174</ele>
        <time>2017-12-07T12:16:14Z</time>
      </trkpt>
      <trkpt lat="45.893" lon="4.80374">
        <ele>174</ele>
        <time>2017-12-07T12:16:15Z</time>
      </trkpt>
      <trkpt lat="45.89303" lon="4.8037">
        <ele>174</ele>
        <time>2017-12-07T12:16:16Z</time>
      </trkpt>
      <trkpt lat="45.89308" lon="4.80364">
        <ele>174</ele>
        <time>2017-12-07T12:16:17Z</time>
      </trkpt>
      <trkpt lat="45.89312" lon="4.8036">
        <ele>174</ele>
        <time>2017-12-07T12:16:18Z</time>
      </trkpt>
      <trkpt lat="45.89318" lon="4.80355">
        <ele>174</ele>
        <time>2017-12-07T12:16:19Z</time>
      </trkpt>
      <trkpt lat="45.89323" lon="4.8035">
        <ele>175</ele>
        <time>2017-12-07T12:16:20Z</time>
      </trkpt>
      <trkpt lat="45.89328" lon="4.80346">
        <ele>175</ele>
        <time>2017-12-07T12:16:21Z</time>
      </trkpt>
      <trkpt lat="45.89333" lon="4.80342">
        <ele>175</ele>
        <time>2017-12-07T12:16:22Z</time>
      </trkpt>
      <trkpt lat="45.89338" lon="4.8034">
        <ele>174</ele>
        <time>2017-12-07T12:16:23Z</time>
      </trkpt>
      <trkpt lat="45.89344" lon="4.80336">
        <ele>174</ele>
        <time>2017-12-07T12:16:24Z</time>
      </trkpt>
      <trkpt lat="45.8935" lon="4.80331">
        <ele>176</ele>
        <time>2017-12-07T12:16:25Z</time>
      </trkpt>
      <trkpt lat="45.89355" lon="4.80326">
        <ele>176</ele>
        <time>2017-12-07T12:16:26Z</time>
      </trkpt>
      <trkpt lat="45.8936" lon="4.80323">
        <ele>176</ele>
        <time>2017-12-07T12:16:27Z</time>
      </trkpt>
      <trkpt lat="45.89365" lon="4.80319">
        <ele>176</ele>
        <time>2017-12-07T12:16:28Z</time>
      </trkpt>
      <trkpt lat="45.8937" lon="4.80315">
        <ele>176</ele>
        <time>2017-12-07T12:16:29Z</time>
      </trkpt>
      <trkpt lat="45.89374" lon="4.80311">
        <ele>176</ele>
        <time>2017-12-07T12:16:30Z</time>
      </trkpt>
      <trkpt lat="45.89379" lon="4.80307">
        <ele>176</ele>
        <time>2017-12-07T12:16:31Z</time>
      </trkpt>
      <trkpt lat="45.89384" lon="4.80306">
        <ele>176</ele>
        <time>2017-12-07T12:16:32Z</time>
      </trkpt>
      <trkpt lat="45.89389" lon="4.80304">
        <ele>176</ele>
        <time>2017-12-07T12:16:33Z</time>
      </trkpt>
      <trkpt lat="45.89394" lon="4.80301">
        <ele>176</ele>
        <time>2017-12-07T12:16:34Z</time>
      </trkpt>
      <trkpt lat="45.894" lon="4.80296">
        <ele>176</ele>
        <time>2017-12-07T12:16:35Z</time>
      </trkpt>
      <trkpt lat="45.89404" lon="4.80292">
        <ele>176</ele>
        <time>2017-12-07T12:16:36Z</time>
      </trkpt>
      <trkpt lat="45.89409" lon="4.80288">
        <ele>176</ele>
        <time>2017-12-07T12:16:37Z</time>
      </trkpt>
      <trkpt lat="45.89413" lon="4.80284">
        <ele>177</ele>
        <time>2017-12-07T12:16:38Z</time>
      </trkpt>
      <trkpt lat="45.89418" lon="4.80282">
        <ele>175</ele>
        <time>2017-12-07T12:16:39Z</time>
      </trkpt>
      <trkpt lat="45.89423" lon="4.80279">
        <ele>175</ele>
        <time>2017-12-07T12:16:40Z</time>
      </trkpt>
      <trkpt lat="45.89429" lon="4.80277">
        <ele>175</ele>
        <time>2017-12-07T12:16:41Z</time>
      </trkpt>
      <trkpt lat="45.89434" lon="4.80273">
        <ele>175</ele>
        <time>2017-12-07T12:16:42Z</time>
      </trkpt>
      <trkpt lat="45.8944" lon="4.80271">
        <ele>175</ele>
        <time>2017-12-07T12:16:43Z</time>
      </trkpt>
      <trkpt lat="45.89446" lon="4.80269">
        <ele>175</ele>
        <time>2017-12-07T12:16:44Z</time>
      </trkpt>
      <trkpt lat="45.89452" lon="4.80264">
        <ele>174</ele>
        <time>2017-12-07T12:16:45Z</time>
      </trkpt>
      <trkpt lat="45.89457" lon="4.80262">
        <ele>174</ele>
        <time>2017-12-07T12:16:46Z</time>
      </trkpt>
      <trkpt lat="45.89463" lon="4.80258">
        <ele>174</ele>
        <time>2017-12-07T12:16:47Z</time>
      </trkpt>
      <trkpt lat="45.89469" lon="4.80255">
        <ele>174</ele>
        <time>2017-12-07T12:16:48Z</time>
      </trkpt>
      <trkpt lat="45.89475" lon="4.80253">
        <ele>173</ele>
        <time>2017-12-07T12:16:49Z</time>
      </trkpt>
      <trkpt lat="45.89481" lon="4.80249">
        <ele>175</ele>
        <time>2017-12-07T12:16:50Z</time>
      </trkpt>
      <trkpt lat="45.89487" lon="4.80245">
        <ele>174</ele>
        <time>2017-12-07T12:16:51Z</time>
      </trkpt>
      <trkpt lat="45.89493" lon="4.80241">
        <ele>174</ele>
        <time>2017-12-07T12:16:52Z</time>
      </trkpt>
      <trkpt lat="45.895" lon="4.80239">
        <ele>174</ele>
        <time>2017-12-07T12:16:53Z</time>
      </trkpt>
      <trkpt lat="45.89506" lon="4.80236">
        <ele>173</ele>
        <time>2017-12-07T12:16:54Z</time>
      </trkpt>
      <trkpt lat="45.89513" lon="4.80234">
        <ele>173</ele>
        <time>2017-12-07T12:16:55Z</time>
      </trkpt>
      <trkpt lat="45.8952" lon="4.80232">
        <ele>173</ele>
        <time>2017-12-07T12:16:56Z</time>
      </trkpt>
      <trkpt lat="45.89526" lon="4.8023">
        <ele>173</ele>
        <time>2017-12-07T12:16:57Z</time>
      </trkpt>
      <trkpt lat="45.89533" lon="4.80228">
        <ele>173</ele>
        <time>2017-12-07T12:16:58Z</time>
      </trkpt>
      <trkpt lat="45.89538" lon="4.80226">
        <ele>173</ele>
        <time>2017-12-07T12:16:59Z</time>
      </trkpt>
      <trkpt lat="45.89544" lon="4.80224">
        <ele>173</ele>
        <time>2017-12-07T12:17:00Z</time>
      </trkpt>
      <trkpt lat="45.89549" lon="4.80221">
        <ele>173</ele>
        <time>2017-12-07T12:17:01Z</time>
      </trkpt>
      <trkpt lat="45.89554" lon="4.80219">
        <ele>173</ele>
        <time>2017-12-07T12:17:02Z</time>
      </trkpt>
      <trkpt lat="45.89559" lon="4.80217">
        <ele>173</ele>
        <time>2017-12-07T12:17:03Z</time>
      </trkpt>
      <trkpt lat="45.89563" lon="4.80214">
        <ele>173</ele>
        <time>2017-12-07T12:17:04Z</time>
      </trkpt>
      <trkpt lat="45.89568" lon="4.80212">
        <ele>173</ele>
        <time>2017-12-07T12:17:05Z</time>
      </trkpt>
      <trkpt lat="45.89573" lon="4.80209">
        <ele>173</ele>
        <time>2017-12-07T12:17:06Z</time>
      </trkpt>
      <trkpt lat="45.89578" lon="4.80207">
        <ele>173</ele>
        <time>2017-12-07T12:17:07Z</time>
      </trkpt>
      <trkpt lat="45.89582" lon="4.80206">
        <ele>173</ele>
        <time>2017-12-07T12:17:08Z</time>
      </trkpt>
      <trkpt lat="45.89587" lon="4.80201">
        <ele>172</ele>
        <time>2017-12-07T12:17:09Z</time>
      </trkpt>
      <trkpt lat="45.89592" lon="4.80199">
        <ele>172</ele>
        <time>2017-12-07T12:17:10Z</time>
      </trkpt>
      <trkpt lat="45.89597" lon="4.80197">
        <ele>172</ele>
        <time>2017-12-07T12:17:11Z</time>
      </trkpt>
      <trkpt lat="45.89603" lon="4.80195">
        <ele>172</ele>
        <time>2017-12-07T12:17:12Z</time>
      </trkpt>
      <trkpt lat="45.89609" lon="4.80191">
        <ele>172</ele>
        <time>2017-12-07T12:17:13Z</time>
      </trkpt>
      <trkpt lat="45.89614" lon="4.80189">
        <ele>172</ele>
        <time>2017-12-07T12:17:14Z</time>
      </trkpt>
      <trkpt lat="45.89621" lon="4.80188">
        <ele>172</ele>
        <time>2017-12-07T12:17:15Z</time>
      </trkpt>
      <trkpt lat="45.89627" lon="4.80185">
        <ele>172</ele>
        <time>2017-12-07T12:17:16Z</time>
      </trkpt>
      <trkpt lat="45.89632" lon="4.80183">
        <ele>172</ele>
        <time>2017-12-07T12:17:17Z</time>
      </trkpt>
      <trkpt lat="45.89637" lon="4.8018">
        <ele>172</ele>
        <time>2017-12-07T12:17:18Z</time>
      </trkpt>
      <trkpt lat="45.89642" lon="4.80178">
        <ele>172</ele>
        <time>2017-12-07T12:17:19Z</time>
      </trkpt>
      <trkpt lat="45.89647" lon="4.80175">
        <ele>172</ele>
        <time>2017-12-07T12:17:20Z</time>
      </trkpt>
      <trkpt lat="45.89652" lon="4.80173">
        <ele>172</ele>
        <time>2017-12-07T12:17:21Z</time>
      </trkpt>
      <trkpt lat="45.89657" lon="4.8017">
        <ele>173</ele>
        <time>2017-12-07T12:17:22Z</time>
      </trkpt>
      <trkpt lat="45.89661" lon="4.80168">
        <ele>173</ele>
        <time>2017-12-07T12:17:23Z</time>
      </trkpt>
      <trkpt lat="45.89666" lon="4.80167">
        <ele>173</ele>
        <time>2017-12-07T12:17:24Z</time>
      </trkpt>
      <trkpt lat="45.89671" lon="4.80166">
        <ele>173</ele>
        <time>2017-12-07T12:17:25Z</time>
      </trkpt>
      <trkpt lat="45.89676" lon="4.80164">
        <ele>172</ele>
        <time>2017-12-07T12:17:26Z</time>
      </trkpt>
      <trkpt lat="45.89681" lon="4.80161">
        <ele>172</ele>
        <time>2017-12-07T12:17:27Z</time>
      </trkpt>
      <trkpt lat="45.89686" lon="4.80159">
        <ele>172</ele>
        <time>2017-12-07T12:17:28Z</time>
      </trkpt>
      <trkpt lat="45.89695" lon="4.80155">
        <ele>172</ele>
        <time>2017-12-07T12:17:30Z</time>
      </trkpt>
      <trkpt lat="45.89699" lon="4.80153">
        <ele>171</ele>
        <time>2017-12-07T12:17:31Z</time>
      </trkpt>
      <trkpt lat="45.89703" lon="4.80149">
        <ele>171</ele>
        <time>2017-12-07T12:17:32Z</time>
      </trkpt>
      <trkpt lat="45.89707" lon="4.80146">
        <ele>171</ele>
        <time>2017-12-07T12:17:33Z</time>
      </trkpt>
      <trkpt lat="45.89712" lon="4.80143">
        <ele>171</ele>
        <time>2017-12-07T12:17:34Z</time>
      </trkpt>
      <trkpt lat="45.89718" lon="4.80141">
        <ele>171</ele>
        <time>2017-12-07T12:17:35Z</time>
      </trkpt>
      <trkpt lat="45.89725" lon="4.8014">
        <ele>171</ele>
        <time>2017-12-07T12:17:36Z</time>
      </trkpt>
      <trkpt lat="45.89731" lon="4.80139">
        <ele>171</ele>
        <time>2017-12-07T12:17:37Z</time>
      </trkpt>
      <trkpt lat="45.89735" lon="4.80134">
        <ele>171</ele>
        <time>2017-12-07T12:17:38Z</time>
      </trkpt>
      <trkpt lat="45.8974" lon="4.80131">
        <ele>171</ele>
        <time>2017-12-07T12:17:39Z</time>
      </trkpt>
      <trkpt lat="45.89746" lon="4.80129">
        <ele>171</ele>
        <time>2017-12-07T12:17:40Z</time>
      </trkpt>
      <trkpt lat="45.89752" lon="4.80127">
        <ele>169</ele>
        <time>2017-12-07T12:17:41Z</time>
      </trkpt>
      <trkpt lat="45.89756" lon="4.80125">
        <ele>169</ele>
        <time>2017-12-07T12:17:42Z</time>
      </trkpt>
      <trkpt lat="45.8976" lon="4.80123">
        <ele>169</ele>
        <time>2017-12-07T12:17:43Z</time>
      </trkpt>
      <trkpt lat="45.89765" lon="4.8012">
        <ele>169</ele>
        <time>2017-12-07T12:17:44Z</time>
      </trkpt>
      <trkpt lat="45.89769" lon="4.80117">
        <ele>169</ele>
        <time>2017-12-07T12:17:45Z</time>
      </trkpt>
      <trkpt lat="45.89773" lon="4.80115">
        <ele>169</ele>
        <time>2017-12-07T12:17:46Z</time>
      </trkpt>
      <trkpt lat="45.89778" lon="4.80114">
        <ele>169</ele>
        <time>2017-12-07T12:17:47Z</time>
      </trkpt>
      <trkpt lat="45.89783" lon="4.8011">
        <ele>169</ele>
        <time>2017-12-07T12:17:48Z</time>
      </trkpt>
      <trkpt lat="45.89788" lon="4.80108">
        <ele>169</ele>
        <time>2017-12-07T12:17:49Z</time>
      </trkpt>
      <trkpt lat="45.89793" lon="4.80107">
        <ele>169</ele>
        <time>2017-12-07T12:17:50Z</time>
      </trkpt>
      <trkpt lat="45.89799" lon="4.80107">
        <ele>169</ele>
        <time>2017-12-07T12:17:51Z</time>
      </trkpt>
      <trkpt lat="45.89805" lon="4.80106">
        <ele>169</ele>
        <time>2017-12-07T12:17:52Z</time>
      </trkpt>
      <trkpt lat="45.8981" lon="4.80104">
        <ele>169</ele>
        <time>2017-12-07T12:17:53Z</time>
      </trkpt>
      <trkpt lat="45.89815" lon="4.80102">
        <ele>169</ele>
        <time>2017-12-07T12:17:54Z</time>
      </trkpt>
      <trkpt lat="45.89821" lon="4.80099">
        <ele>169</ele>
        <time>2017-12-07T12:17:55Z</time>
      </trkpt>
      <trkpt lat="45.89827" lon="4.80097">
        <ele>170</ele>
        <time>2017-12-07T12:17:56Z</time>
      </trkpt>
      <trkpt lat="45.89834" lon="4.80094">
        <ele>170</ele>
        <time>2017-12-07T12:17:57Z</time>
      </trkpt>
      <trkpt lat="45.8984" lon="4.80091">
        <ele>170</ele>
        <time>2017-12-07T12:17:58Z</time>
      </trkpt>
      <trkpt lat="45.89847" lon="4.80088">
        <ele>170</ele>
        <time>2017-12-07T12:17:59Z</time>
      </trkpt>
      <trkpt lat="45.89853" lon="4.80084">
        <ele>170</ele>
        <time>2017-12-07T12:18:00Z</time>
      </trkpt>
      <trkpt lat="45.8986" lon="4.80083">
        <ele>170</ele>
        <time>2017-12-07T12:18:01Z</time>
      </trkpt>
      <trkpt lat="45.89866" lon="4.80081">
        <ele>170</ele>
        <time>2017-12-07T12:18:02Z</time>
      </trkpt>
      <trkpt lat="45.89871" lon="4.80079">
        <ele>170</ele>
        <time>2017-12-07T12:18:03Z</time>
      </trkpt>
      <trkpt lat="45.89876" lon="4.80076">
        <ele>170</ele>
        <time>2017-12-07T12:18:04Z</time>
      </trkpt>
      <trkpt lat="45.89881" lon="4.80073">
        <ele>170</ele>
        <time>2017-12-07T12:18:05Z</time>
      </trkpt>
      <trkpt lat="45.89886" lon="4.8007">
        <ele>170</ele>
        <time>2017-12-07T12:18:06Z</time>
      </trkpt>
      <trkpt lat="45.8989" lon="4.80067">
        <ele>170</ele>
        <time>2017-12-07T12:18:07Z</time>
      </trkpt>
      <trkpt lat="45.89895" lon="4.80065">
        <ele>170</ele>
        <time>2017-12-07T12:18:08Z</time>
      </trkpt>
      <trkpt lat="45.899" lon="4.80063">
        <ele>170</ele>
        <time>2017-12-07T12:18:09Z</time>
      </trkpt>
      <trkpt lat="45.89905" lon="4.80061">
        <ele>170</ele>
        <time>2017-12-07T12:18:10Z</time>
      </trkpt>
      <trkpt lat="45.8991" lon="4.80059">
        <ele>170</ele>
        <time>2017-12-07T12:18:11Z</time>
      </trkpt>
      <trkpt lat="45.89917" lon="4.80057">
        <ele>170</ele>
        <time>2017-12-07T12:18:12Z</time>
      </trkpt>
      <trkpt lat="45.89924" lon="4.80056">
        <ele>170</ele>
        <time>2017-12-07T12:18:13Z</time>
      </trkpt>
      <trkpt lat="45.89929" lon="4.80053">
        <ele>170</ele>
        <time>2017-12-07T12:18:14Z</time>
      </trkpt>
      <trkpt lat="45.89934" lon="4.80051">
        <ele>170</ele>
        <time>2017-12-07T12:18:15Z</time>
      </trkpt>
      <trkpt lat="45.89941" lon="4.80049">
        <ele>170</ele>
        <time>2017-12-07T12:18:16Z</time>
      </trkpt>
      <trkpt lat="45.89947" lon="4.80046">
        <ele>170</ele>
        <time>2017-12-07T12:18:17Z</time>
      </trkpt>
      <trkpt lat="45.89954" lon="4.80044">
        <ele>170</ele>
        <time>2017-12-07T12:18:18Z</time>
      </trkpt>
      <trkpt lat="45.8996" lon="4.80042">
        <ele>170</ele>
        <time>2017-12-07T12:18:19Z</time>
      </trkpt>
      <trkpt lat="45.89967" lon="4.8004">
        <ele>170</ele>
        <time>2017-12-07T12:18:20Z</time>
      </trkpt>
      <trkpt lat="45.89974" lon="4.80038">
        <ele>170</ele>
        <time>2017-12-07T12:18:21Z</time>
      </trkpt>
      <trkpt lat="45.8998" lon="4.80035">
        <ele>170</ele>
        <time>2017-12-07T12:18:22Z</time>
      </trkpt>
      <trkpt lat="45.89987" lon="4.80033">
        <ele>170</ele>
        <time>2017-12-07T12:18:23Z</time>
      </trkpt>
      <trkpt lat="45.89993" lon="4.80031">
        <ele>170</ele>
        <time>2017-12-07T12:18:24Z</time>
      </trkpt>
      <trkpt lat="45.89999" lon="4.80028">
        <ele>171</ele>
        <time>2017-12-07T12:18:25Z</time>
      </trkpt>
      <trkpt lat="45.90005" lon="4.80026">
        <ele>170</ele>
        <time>2017-12-07T12:18:26Z</time>
      </trkpt>
      <trkpt lat="45.90011" lon="4.80024">
        <ele>170</ele>
        <time>2017-12-07T12:18:27Z</time>
      </trkpt>
      <trkpt lat="45.90016" lon="4.80022">
        <ele>170</ele>
        <time>2017-12-07T12:18:28Z</time>
      </trkpt>
      <trkpt lat="45.90022" lon="4.8002">
        <ele>170</ele>
        <time>2017-12-07T12:18:29Z</time>
      </trkpt>
      <trkpt lat="45.90027" lon="4.80018">
        <ele>170</ele>
        <time>2017-12-07T12:18:30Z</time>
      </trkpt>
      <trkpt lat="45.90032" lon="4.80016">
        <ele>170</ele>
        <time>2017-12-07T12:18:31Z</time>
      </trkpt>
      <trkpt lat="45.90037" lon="4.80013">
        <ele>170</ele>
        <time>2017-12-07T12:18:32Z</time>
      </trkpt>
      <trkpt lat="45.90041" lon="4.8001">
        <ele>170</ele>
        <time>2017-12-07T12:18:33Z</time>
      </trkpt>
      <trkpt lat="45.90046" lon="4.80007">
        <ele>170</ele>
        <time>2017-12-07T12:18:34Z</time>
      </trkpt>
      <trkpt lat="45.90052" lon="4.80005">
        <ele>170</ele>
        <time>2017-12-07T12:18:35Z</time>
      </trkpt>
      <trkpt lat="45.90057" lon="4.80002">
        <ele>170</ele>
        <time>2017-12-07T12:18:36Z</time>
      </trkpt>
      <trkpt lat="45.90063" lon="4.8">
        <ele>170</ele>
        <time>2017-12-07T12:18:37Z</time>
      </trkpt>
      <trkpt lat="45.90069" lon="4.79998">
        <ele>174</ele>
        <time>2017-12-07T12:18:38Z</time>
      </trkpt>
      <trkpt lat="45.90075" lon="4.79995">
        <ele>173</ele>
        <time>2017-12-07T12:18:39Z</time>
      </trkpt>
      <trkpt lat="45.90081" lon="4.79992">
        <ele>173</ele>
        <time>2017-12-07T12:18:40Z</time>
      </trkpt>
      <trkpt lat="45.90087" lon="4.79988">
        <ele>173</ele>
        <time>2017-12-07T12:18:41Z</time>
      </trkpt>
      <trkpt lat="45.90094" lon="4.79987">
        <ele>173</ele>
        <time>2017-12-07T12:18:42Z</time>
      </trkpt>
      <trkpt lat="45.90101" lon="4.79984">
        <ele>173</ele>
        <time>2017-12-07T12:18:43Z</time>
      </trkpt>
      <trkpt lat="45.90108" lon="4.79979">
        <ele>174</ele>
        <time>2017-12-07T12:18:44Z</time>
      </trkpt>
      <trkpt lat="45.90114" lon="4.79976">
        <ele>174</ele>
        <time>2017-12-07T12:18:45Z</time>
      </trkpt>
      <trkpt lat="45.9012" lon="4.79973">
        <ele>174</ele>
        <time>2017-12-07T12:18:46Z</time>
      </trkpt>
      <trkpt lat="45.90125" lon="4.7997">
        <ele>174</ele>
        <time>2017-12-07T12:18:47Z</time>
      </trkpt>
      <trkpt lat="45.90131" lon="4.79968">
        <ele>174</ele>
        <time>2017-12-07T12:18:48Z</time>
      </trkpt>
      <trkpt lat="45.90136" lon="4.79966">
        <ele>174</ele>
        <time>2017-12-07T12:18:49Z</time>
      </trkpt>
      <trkpt lat="45.90141" lon="4.79963">
        <ele>174</ele>
        <time>2017-12-07T12:18:50Z</time>
      </trkpt>
      <trkpt lat="45.90146" lon="4.79959">
        <ele>175</ele>
        <time>2017-12-07T12:18:51Z</time>
      </trkpt>
      <trkpt lat="45.90151" lon="4.79956">
        <ele>175</ele>
        <time>2017-12-07T12:18:52Z</time>
      </trkpt>
      <trkpt lat="45.90157" lon="4.79954">
        <ele>175</ele>
        <time>2017-12-07T12:18:53Z</time>
      </trkpt>
      <trkpt lat="45.90163" lon="4.79952">
        <ele>175</ele>
        <time>2017-12-07T12:18:54Z</time>
      </trkpt>
      <trkpt lat="45.90168" lon="4.7995">
        <ele>173</ele>
        <time>2017-12-07T12:18:55Z</time>
      </trkpt>
      <trkpt lat="45.90174" lon="4.79947">
        <ele>173</ele>
        <time>2017-12-07T12:18:56Z</time>
      </trkpt>
      <trkpt lat="45.9018" lon="4.79945">
        <ele>173</ele>
        <time>2017-12-07T12:18:57Z</time>
      </trkpt>
      <trkpt lat="45.90185" lon="4.79944">
        <ele>173</ele>
        <time>2017-12-07T12:18:58Z</time>
      </trkpt>
      <trkpt lat="45.90192" lon="4.7994">
        <ele>173</ele>
        <time>2017-12-07T12:18:59Z</time>
      </trkpt>
      <trkpt lat="45.90197" lon="4.79938">
        <ele>173</ele>
        <time>2017-12-07T12:19:00Z</time>
      </trkpt>
      <trkpt lat="45.90203" lon="4.79935">
        <ele>173</ele>
        <time>2017-12-07T12:19:01Z</time>
      </trkpt>
      <trkpt lat="45.90208" lon="4.79932">
        <ele>173</ele>
        <time>2017-12-07T12:19:02Z</time>
      </trkpt>
      <trkpt lat="45.90214" lon="4.7993">
        <ele>173</ele>
        <time>2017-12-07T12:19:03Z</time>
      </trkpt>
      <trkpt lat="45.90219" lon="4.79926">
        <ele>172</ele>
        <time>2017-12-07T12:19:04Z</time>
      </trkpt>
      <trkpt lat="45.90224" lon="4.79924">
        <ele>172</ele>
        <time>2017-12-07T12:19:05Z</time>
      </trkpt>
      <trkpt lat="45.90229" lon="4.7992">
        <ele>172</ele>
        <time>2017-12-07T12:19:06Z</time>
      </trkpt>
      <trkpt lat="45.90233" lon="4.79917">
        <ele>172</ele>
        <time>2017-12-07T12:19:07Z</time>
      </trkpt>
      <trkpt lat="45.90237" lon="4.79913">
        <ele>175</ele>
        <time>2017-12-07T12:19:08Z</time>
      </trkpt>
      <trkpt lat="45.90242" lon="4.7991">
        <ele>174</ele>
        <time>2017-12-07T12:19:09Z</time>
      </trkpt>
      <trkpt lat="45.90246" lon="4.79907">
        <ele>174</ele>
        <time>2017-12-07T12:19:10Z</time>
      </trkpt>
      <trkpt lat="45.90251" lon="4.79904">
        <ele>172</ele>
        <time>2017-12-07T12:19:11Z</time>
      </trkpt>
      <trkpt lat="45.90256" lon="4.79899">
        <ele>172</ele>
        <time>2017-12-07T12:19:12Z</time>
      </trkpt>
      <trkpt lat="45.90261" lon="4.79895">
        <ele>172</ele>
        <time>2017-12-07T12:19:13Z</time>
      </trkpt>
      <trkpt lat="45.90266" lon="4.79891">
        <ele>173</ele>
        <time>2017-12-07T12:19:14Z</time>
      </trkpt>
      <trkpt lat="45.90271" lon="4.79886">
        <ele>173</ele>
        <time>2017-12-07T12:19:15Z</time>
      </trkpt>
      <trkpt lat="45.90276" lon="4.79882">
        <ele>173</ele>
        <time>2017-12-07T12:19:16Z</time>
      </trkpt>
      <trkpt lat="45.90281" lon="4.79876">
        <ele>173</ele>
        <time>2017-12-07T12:19:17Z</time>
      </trkpt>
      <trkpt lat="45.90286" lon="4.79871">
        <ele>173</ele>
        <time>2017-12-07T12:19:18Z</time>
      </trkpt>
      <trkpt lat="45.9029" lon="4.79865">
        <ele>173</ele>
        <time>2017-12-07T12:19:19Z</time>
      </trkpt>
      <trkpt lat="45.90295" lon="4.79858">
        <ele>173</ele>
        <time>2017-12-07T12:19:20Z</time>
      </trkpt>
      <trkpt lat="45.903" lon="4.79853">
        <ele>172</ele>
        <time>2017-12-07T12:19:21Z</time>
      </trkpt>
      <trkpt lat="45.90306" lon="4.79848">
        <ele>172</ele>
        <time>2017-12-07T12:19:22Z</time>
      </trkpt>
      <trkpt lat="45.9031" lon="4.79843">
        <ele>172</ele>
        <time>2017-12-07T12:19:23Z</time>
      </trkpt>
      <trkpt lat="45.90315" lon="4.79837">
        <ele>171</ele>
        <time>2017-12-07T12:19:24Z</time>
      </trkpt>
      <trkpt lat="45.9032" lon="4.79832">
        <ele>173</ele>
        <time>2017-12-07T12:19:25Z</time>
      </trkpt>
      <trkpt lat="45.90324" lon="4.79826">
        <ele>173</ele>
        <time>2017-12-07T12:19:26Z</time>
      </trkpt>
      <trkpt lat="45.90329" lon="4.7982">
        <ele>173</ele>
        <time>2017-12-07T12:19:27Z</time>
      </trkpt>
      <trkpt lat="45.90333" lon="4.79814">
        <ele>174</ele>
        <time>2017-12-07T12:19:28Z</time>
      </trkpt>
      <trkpt lat="45.90337" lon="4.79808">
        <ele>172</ele>
        <time>2017-12-07T12:19:29Z</time>
      </trkpt>
      <trkpt lat="45.90341" lon="4.79803">
        <ele>172</ele>
        <time>2017-12-07T12:19:30Z</time>
      </trkpt>
      <trkpt lat="45.90344" lon="4.79797">
        <ele>172</ele>
        <time>2017-12-07T12:19:31Z</time>
      </trkpt>
      <trkpt lat="45.90349" lon="4.79792">
        <ele>173</ele>
        <time>2017-12-07T12:19:32Z</time>
      </trkpt>
      <trkpt lat="45.90353" lon="4.79787">
        <ele>173</ele>
        <time>2017-12-07T12:19:33Z</time>
      </trkpt>
      <trkpt lat="45.90356" lon="4.79782">
        <ele>173</ele>
        <time>2017-12-07T12:19:34Z</time>
      </trkpt>
      <trkpt lat="45.9036" lon="4.79777">
        <ele>173</ele>
        <time>2017-12-07T12:19:35Z</time>
      </trkpt>
      <trkpt lat="45.90364" lon="4.79772">
        <ele>173</ele>
        <time>2017-12-07T12:19:36Z</time>
      </trkpt>
      <trkpt lat="45.90369" lon="4.79766">
        <ele>173</ele>
        <time>2017-12-07T12:19:37Z</time>
      </trkpt>
      <trkpt lat="45.90373" lon="4.79761">
        <ele>173</ele>
        <time>2017-12-07T12:19:38Z</time>
      </trkpt>
      <trkpt lat="45.90378" lon="4.79755">
        <ele>173</ele>
        <time>2017-12-07T12:19:39Z</time>
      </trkpt>
      <trkpt lat="45.90383" lon="4.79749">
        <ele>176</ele>
        <time>2017-12-07T12:19:40Z</time>
      </trkpt>
      <trkpt lat="45.90388" lon="4.79743">
        <ele>176</ele>
        <time>2017-12-07T12:19:41Z</time>
      </trkpt>
      <trkpt lat="45.90393" lon="4.79736">
        <ele>175</ele>
        <time>2017-12-07T12:19:42Z</time>
      </trkpt>
      <trkpt lat="45.90398" lon="4.79729">
        <ele>175</ele>
        <time>2017-12-07T12:19:43Z</time>
      </trkpt>
      <trkpt lat="45.90403" lon="4.79723">
        <ele>175</ele>
        <time>2017-12-07T12:19:44Z</time>
      </trkpt>
      <trkpt lat="45.90408" lon="4.79717">
        <ele>176</ele>
        <time>2017-12-07T12:19:45Z</time>
      </trkpt>
      <trkpt lat="45.90413" lon="4.79711">
        <ele>176</ele>
        <time>2017-12-07T12:19:46Z</time>
      </trkpt>
      <trkpt lat="45.90418" lon="4.79704">
        <ele>173</ele>
        <time>2017-12-07T12:19:47Z</time>
      </trkpt>
      <trkpt lat="45.90423" lon="4.79698">
        <ele>173</ele>
        <time>2017-12-07T12:19:48Z</time>
      </trkpt>
      <trkpt lat="45.90428" lon="4.79692">
        <ele>173</ele>
        <time>2017-12-07T12:19:49Z</time>
      </trkpt>
      <trkpt lat="45.90433" lon="4.79685">
        <ele>174</ele>
        <time>2017-12-07T12:19:50Z</time>
      </trkpt>
      <trkpt lat="45.90438" lon="4.7968">
        <ele>174</ele>
        <time>2017-12-07T12:19:51Z</time>
      </trkpt>
      <trkpt lat="45.90443" lon="4.79675">
        <ele>173</ele>
        <time>2017-12-07T12:19:52Z</time>
      </trkpt>
      <trkpt lat="45.90447" lon="4.79669">
        <ele>173</ele>
        <time>2017-12-07T12:19:53Z</time>
      </trkpt>
      <trkpt lat="45.90452" lon="4.79664">
        <ele>176</ele>
        <time>2017-12-07T12:19:54Z</time>
      </trkpt>
      <trkpt lat="45.90457" lon="4.79659">
        <ele>176</ele>
        <time>2017-12-07T12:19:55Z</time>
      </trkpt>
      <trkpt lat="45.90461" lon="4.79654">
        <ele>176</ele>
        <time>2017-12-07T12:19:56Z</time>
      </trkpt>
      <trkpt lat="45.90466" lon="4.79649">
        <ele>176</ele>
        <time>2017-12-07T12:19:57Z</time>
      </trkpt>
      <trkpt lat="45.9047" lon="4.79645">
        <ele>176</ele>
        <time>2017-12-07T12:19:58Z</time>
      </trkpt>
      <trkpt lat="45.90474" lon="4.7964">
        <ele>176</ele>
        <time>2017-12-07T12:19:59Z</time>
      </trkpt>
      <trkpt lat="45.90478" lon="4.79636">
        <ele>176</ele>
        <time>2017-12-07T12:20:00Z</time>
      </trkpt>
      <trkpt lat="45.90482" lon="4.79631">
        <ele>176</ele>
        <time>2017-12-07T12:20:01Z</time>
      </trkpt>
      <trkpt lat="45.90486" lon="4.79627">
        <ele>176</ele>
        <time>2017-12-07T12:20:02Z</time>
      </trkpt>
      <trkpt lat="45.90491" lon="4.79623">
        <ele>176</ele>
        <time>2017-12-07T12:20:03Z</time>
      </trkpt>
      <trkpt lat="45.90495" lon="4.79618">
        <ele>176</ele>
        <time>2017-12-07T12:20:04Z</time>
      </trkpt>
      <trkpt lat="45.905" lon="4.79613">
        <ele>174</ele>
        <time>2017-12-07T12:20:05Z</time>
      </trkpt>
      <trkpt lat="45.90505" lon="4.79608">
        <ele>174</ele>
        <time>2017-12-07T12:20:06Z</time>
      </trkpt>
      <trkpt lat="45.9051" lon="4.79604">
        <ele>174</ele>
        <time>2017-12-07T12:20:07Z</time>
      </trkpt>
      <trkpt lat="45.90514" lon="4.796">
        <ele>174</ele>
        <time>2017-12-07T12:20:08Z</time>
      </trkpt>
      <trkpt lat="45.9052" lon="4.79595">
        <ele>174</ele>
        <time>2017-12-07T12:20:09Z</time>
      </trkpt>
      <trkpt lat="45.90525" lon="4.7959">
        <ele>174</ele>
        <time>2017-12-07T12:20:10Z</time>
      </trkpt>
      <trkpt lat="45.90531" lon="4.79585">
        <ele>174</ele>
        <time>2017-12-07T12:20:11Z</time>
      </trkpt>
      <trkpt lat="45.90537" lon="4.7958">
        <ele>176</ele>
        <time>2017-12-07T12:20:12Z</time>
      </trkpt>
      <trkpt lat="45.90543" lon="4.79575">
        <ele>176</ele>
        <time>2017-12-07T12:20:13Z</time>
      </trkpt>
      <trkpt lat="45.90549" lon="4.79571">
        <ele>176</ele>
        <time>2017-12-07T12:20:14Z</time>
      </trkpt>
      <trkpt lat="45.90556" lon="4.79566">
        <ele>176</ele>
        <time>2017-12-07T12:20:15Z</time>
      </trkpt>
      <trkpt lat="45.90562" lon="4.79562">
        <ele>176</ele>
        <time>2017-12-07T12:20:16Z</time>
      </trkpt>
      <trkpt lat="45.90568" lon="4.79557">
        <ele>176</ele>
        <time>2017-12-07T12:20:17Z</time>
      </trkpt>
      <trkpt lat="45.90574" lon="4.79553">
        <ele>176</ele>
        <time>2017-12-07T12:20:18Z</time>
      </trkpt>
      <trkpt lat="45.90579" lon="4.79548">
        <ele>176</ele>
        <time>2017-12-07T12:20:19Z</time>
      </trkpt>
      <trkpt lat="45.90585" lon="4.79544">
        <ele>174</ele>
        <time>2017-12-07T12:20:20Z</time>
      </trkpt>
      <trkpt lat="45.9059" lon="4.79541">
        <ele>174</ele>
        <time>2017-12-07T12:20:21Z</time>
      </trkpt>
      <trkpt lat="45.90596" lon="4.79538">
        <ele>174</ele>
        <time>2017-12-07T12:20:22Z</time>
      </trkpt>
      <trkpt lat="45.90601" lon="4.79534">
        <ele>174</ele>
        <time>2017-12-07T12:20:23Z</time>
      </trkpt>
      <trkpt lat="45.90607" lon="4.7953">
        <ele>174</ele>
        <time>2017-12-07T12:20:24Z</time>
      </trkpt>
      <trkpt lat="45.90612" lon="4.79527">
        <ele>174</ele>
        <time>2017-12-07T12:20:25Z</time>
      </trkpt>
      <trkpt lat="45.90616" lon="4.79524">
        <ele>174</ele>
        <time>2017-12-07T12:20:26Z</time>
      </trkpt>
      <trkpt lat="45.90622" lon="4.79521">
        <ele>174</ele>
        <time>2017-12-07T12:20:27Z</time>
      </trkpt>
      <trkpt lat="45.90626" lon="4.79519">
        <ele>174</ele>
        <time>2017-12-07T12:20:28Z</time>
      </trkpt>
      <trkpt lat="45.90631" lon="4.79516">
        <ele>174</ele>
        <time>2017-12-07T12:20:29Z</time>
      </trkpt>
      <trkpt lat="45.90636" lon="4.79511">
        <ele>174</ele>
        <time>2017-12-07T12:20:30Z</time>
      </trkpt>
      <trkpt lat="45.90641" lon="4.79508">
        <ele>174</ele>
        <time>2017-12-07T12:20:31Z</time>
      </trkpt>
      <trkpt lat="45.90647" lon="4.79504">
        <ele>173</ele>
        <time>2017-12-07T12:20:32Z</time>
      </trkpt>
      <trkpt lat="45.90653" lon="4.79502">
        <ele>173</ele>
        <time>2017-12-07T12:20:33Z</time>
      </trkpt>
      <trkpt lat="45.90658" lon="4.79498">
        <ele>174</ele>
        <time>2017-12-07T12:20:34Z</time>
      </trkpt>
      <trkpt lat="45.90664" lon="4.79495">
        <ele>174</ele>
        <time>2017-12-07T12:20:35Z</time>
      </trkpt>
      <trkpt lat="45.90669" lon="4.79492">
        <ele>173</ele>
        <time>2017-12-07T12:20:36Z</time>
      </trkpt>
      <trkpt lat="45.90673" lon="4.7949">
        <ele>174</ele>
        <time>2017-12-07T12:20:37Z</time>
      </trkpt>
      <trkpt lat="45.90678" lon="4.79488">
        <ele>174</ele>
        <time>2017-12-07T12:20:38Z</time>
      </trkpt>
      <trkpt lat="45.90684" lon="4.79484">
        <ele>174</ele>
        <time>2017-12-07T12:20:39Z</time>
      </trkpt>
      <trkpt lat="45.90688" lon="4.79482">
        <ele>174</ele>
        <time>2017-12-07T12:20:40Z</time>
      </trkpt>
      <trkpt lat="45.90694" lon="4.79478">
        <ele>174</ele>
        <time>2017-12-07T12:20:41Z</time>
      </trkpt>
      <trkpt lat="45.90699" lon="4.79476">
        <ele>174</ele>
        <time>2017-12-07T12:20:42Z</time>
      </trkpt>
      <trkpt lat="45.90704" lon="4.79472">
        <ele>174</ele>
        <time>2017-12-07T12:20:43Z</time>
      </trkpt>
      <trkpt lat="45.90709" lon="4.79469">
        <ele>174</ele>
        <time>2017-12-07T12:20:44Z</time>
      </trkpt>
      <trkpt lat="45.90714" lon="4.79466">
        <ele>174</ele>
        <time>2017-12-07T12:20:45Z</time>
      </trkpt>
      <trkpt lat="45.90719" lon="4.79464">
        <ele>174</ele>
        <time>2017-12-07T12:20:46Z</time>
      </trkpt>
      <trkpt lat="45.90723" lon="4.7946">
        <ele>174</ele>
        <time>2017-12-07T12:20:47Z</time>
      </trkpt>
      <trkpt lat="45.90728" lon="4.79458">
        <ele>174</ele>
        <time>2017-12-07T12:20:48Z</time>
      </trkpt>
      <trkpt lat="45.90732" lon="4.79455">
        <ele>174</ele>
        <time>2017-12-07T12:20:49Z</time>
      </trkpt>
      <trkpt lat="45.90737" lon="4.79452">
        <ele>174</ele>
        <time>2017-12-07T12:20:50Z</time>
      </trkpt>
      <trkpt lat="45.90742" lon="4.7945">
        <ele>174</ele>
        <time>2017-12-07T12:20:51Z</time>
      </trkpt>
      <trkpt lat="45.90746" lon="4.79447">
        <ele>174</ele>
        <time>2017-12-07T12:20:52Z</time>
      </trkpt>
      <trkpt lat="45.90751" lon="4.79444">
        <ele>174</ele>
        <time>2017-12-07T12:20:53Z</time>
      </trkpt>
      <trkpt lat="45.90756" lon="4.79442">
        <ele>174</ele>
        <time>2017-12-07T12:20:54Z</time>
      </trkpt>
      <trkpt lat="45.90762" lon="4.79439">
        <ele>174</ele>
        <time>2017-12-07T12:20:55Z</time>
      </trkpt>
      <trkpt lat="45.90767" lon="4.79435">
        <ele>174</ele>
        <time>2017-12-07T12:20:56Z</time>
      </trkpt>
      <trkpt lat="45.90772" lon="4.79431">
        <ele>174</ele>
        <time>2017-12-07T12:20:57Z</time>
      </trkpt>
      <trkpt lat="45.90777" lon="4.79428">
        <ele>174</ele>
        <time>2017-12-07T12:20:58Z</time>
      </trkpt>
      <trkpt lat="45.90782" lon="4.79425">
        <ele>174</ele>
        <time>2017-12-07T12:20:59Z</time>
      </trkpt>
      <trkpt lat="45.90787" lon="4.79421">
        <ele>174</ele>
        <time>2017-12-07T12:21:00Z</time>
      </trkpt>
      <trkpt lat="45.90792" lon="4.79418">
        <ele>174</ele>
        <time>2017-12-07T12:21:01Z</time>
      </trkpt>
      <trkpt lat="45.90798" lon="4.79415">
        <ele>175</ele>
        <time>2017-12-07T12:21:02Z</time>
      </trkpt>
      <trkpt lat="45.90803" lon="4.79411">
        <ele>175</ele>
        <time>2017-12-07T12:21:03Z</time>
      </trkpt>
      <trkpt lat="45.90806" lon="4.79407">
        <ele>175</ele>
        <time>2017-12-07T12:21:04Z</time>
      </trkpt>
      <trkpt lat="45.90811" lon="4.79404">
        <ele>175</ele>
        <time>2017-12-07T12:21:05Z</time>
      </trkpt>
      <trkpt lat="45.90815" lon="4.794">
        <ele>175</ele>
        <time>2017-12-07T12:21:06Z</time>
      </trkpt>
      <trkpt lat="45.90819" lon="4.79396">
        <ele>175</ele>
        <time>2017-12-07T12:21:07Z</time>
      </trkpt>
      <trkpt lat="45.90823" lon="4.79392">
        <ele>175</ele>
        <time>2017-12-07T12:21:08Z</time>
      </trkpt>
      <trkpt lat="45.90827" lon="4.79387">
        <ele>175</ele>
        <time>2017-12-07T12:21:09Z</time>
      </trkpt>
      <trkpt lat="45.90831" lon="4.79381">
        <ele>175</ele>
        <time>2017-12-07T12:21:10Z</time>
      </trkpt>
      <trkpt lat="45.90835" lon="4.79377">
        <ele>175</ele>
        <time>2017-12-07T12:21:11Z</time>
      </trkpt>
      <trkpt lat="45.90839" lon="4.79372">
        <ele>175</ele>
        <time>2017-12-07T12:21:12Z</time>
      </trkpt>
      <trkpt lat="45.90843" lon="4.79365">
        <ele>175</ele>
        <time>2017-12-07T12:21:13Z</time>
      </trkpt>
      <trkpt lat="45.90848" lon="4.7936">
        <ele>175</ele>
        <time>2017-12-07T12:21:14Z</time>
      </trkpt>
      <trkpt lat="45.90852" lon="4.79355">
        <ele>175</ele>
        <time>2017-12-07T12:21:15Z</time>
      </trkpt>
      <trkpt lat="45.90857" lon="4.79348">
        <ele>175</ele>
        <time>2017-12-07T12:21:16Z</time>
      </trkpt>
      <trkpt lat="45.90861" lon="4.79343">
        <ele>175</ele>
        <time>2017-12-07T12:21:17Z</time>
      </trkpt>
      <trkpt lat="45.90864" lon="4.79338">
        <ele>175</ele>
        <time>2017-12-07T12:21:18Z</time>
      </trkpt>
      <trkpt lat="45.90868" lon="4.79332">
        <ele>176</ele>
        <time>2017-12-07T12:21:19Z</time>
      </trkpt>
      <trkpt lat="45.90872" lon="4.79327">
        <ele>176</ele>
        <time>2017-12-07T12:21:20Z</time>
      </trkpt>
      <trkpt lat="45.90876" lon="4.79321">
        <ele>176</ele>
        <time>2017-12-07T12:21:21Z</time>
      </trkpt>
      <trkpt lat="45.9088" lon="4.79316">
        <ele>176</ele>
        <time>2017-12-07T12:21:22Z</time>
      </trkpt>
      <trkpt lat="45.90884" lon="4.79311">
        <ele>176</ele>
        <time>2017-12-07T12:21:23Z</time>
      </trkpt>
      <trkpt lat="45.90887" lon="4.79306">
        <ele>176</ele>
        <time>2017-12-07T12:21:24Z</time>
      </trkpt>
      <trkpt lat="45.90891" lon="4.793">
        <ele>176</ele>
        <time>2017-12-07T12:21:25Z</time>
      </trkpt>
      <trkpt lat="45.90894" lon="4.79295">
        <ele>176</ele>
        <time>2017-12-07T12:21:26Z</time>
      </trkpt>
      <trkpt lat="45.90897" lon="4.7929">
        <ele>176</ele>
        <time>2017-12-07T12:21:27Z</time>
      </trkpt>
      <trkpt lat="45.90901" lon="4.79284">
        <ele>176</ele>
        <time>2017-12-07T12:21:28Z</time>
      </trkpt>
      <trkpt lat="45.90905" lon="4.79279">
        <ele>176</ele>
        <time>2017-12-07T12:21:29Z</time>
      </trkpt>
      <trkpt lat="45.90908" lon="4.79272">
        <ele>176</ele>
        <time>2017-12-07T12:21:30Z</time>
      </trkpt>
      <trkpt lat="45.90912" lon="4.79266">
        <ele>176</ele>
        <time>2017-12-07T12:21:31Z</time>
      </trkpt>
      <trkpt lat="45.90915" lon="4.7926">
        <ele>176</ele>
        <time>2017-12-07T12:21:32Z</time>
      </trkpt>
      <trkpt lat="45.90919" lon="4.79253">
        <ele>176</ele>
        <time>2017-12-07T12:21:33Z</time>
      </trkpt>
      <trkpt lat="45.90922" lon="4.79246">
        <ele>176</ele>
        <time>2017-12-07T12:21:34Z</time>
      </trkpt>
      <trkpt lat="45.90925" lon="4.7924">
        <ele>176</ele>
        <time>2017-12-07T12:21:35Z</time>
      </trkpt>
      <trkpt lat="45.90929" lon="4.79234">
        <ele>176</ele>
        <time>2017-12-07T12:21:36Z</time>
      </trkpt>
      <trkpt lat="45.90933" lon="4.79227">
        <ele>176</ele>
        <time>2017-12-07T12:21:37Z</time>
      </trkpt>
      <trkpt lat="45.90937" lon="4.79222">
        <ele>176</ele>
        <time>2017-12-07T12:21:38Z</time>
      </trkpt>
      <trkpt lat="45.9094" lon="4.79215">
        <ele>176</ele>
        <time>2017-12-07T12:21:39Z</time>
      </trkpt>
      <trkpt lat="45.90944" lon="4.79209">
        <ele>176</ele>
        <time>2017-12-07T12:21:40Z</time>
      </trkpt>
      <trkpt lat="45.90947" lon="4.79202">
        <ele>176</ele>
        <time>2017-12-07T12:21:41Z</time>
      </trkpt>
      <trkpt lat="45.9095" lon="4.79196">
        <ele>177</ele>
        <time>2017-12-07T12:21:42Z</time>
      </trkpt>
      <trkpt lat="45.90954" lon="4.79189">
        <ele>177</ele>
        <time>2017-12-07T12:21:43Z</time>
      </trkpt>
      <trkpt lat="45.90959" lon="4.79183">
        <ele>177</ele>
        <time>2017-12-07T12:21:44Z</time>
      </trkpt>
      <trkpt lat="45.90965" lon="4.79175">
        <ele>177</ele>
        <time>2017-12-07T12:21:45Z</time>
      </trkpt>
      <trkpt lat="45.90968" lon="4.79168">
        <ele>177</ele>
        <time>2017-12-07T12:21:46Z</time>
      </trkpt>
      <trkpt lat="45.90971" lon="4.79161">
        <ele>177</ele>
        <time>2017-12-07T12:21:47Z</time>
      </trkpt>
      <trkpt lat="45.90974" lon="4.79155">
        <ele>177</ele>
        <time>2017-12-07T12:21:48Z</time>
      </trkpt>
      <trkpt lat="45.90978" lon="4.79148">
        <ele>177</ele>
        <time>2017-12-07T12:21:49Z</time>
      </trkpt>
      <trkpt lat="45.90982" lon="4.79142">
        <ele>177</ele>
        <time>2017-12-07T12:21:50Z</time>
      </trkpt>
      <trkpt lat="45.90986" lon="4.79136">
        <ele>177</ele>
        <time>2017-12-07T12:21:51Z</time>
      </trkpt>
      <trkpt lat="45.90989" lon="4.7913">
        <ele>177</ele>
        <time>2017-12-07T12:21:52Z</time>
      </trkpt>
      <trkpt lat="45.90992" lon="4.79123">
        <ele>177</ele>
        <time>2017-12-07T12:21:53Z</time>
      </trkpt>
      <trkpt lat="45.90995" lon="4.79117">
        <ele>177</ele>
        <time>2017-12-07T12:21:54Z</time>
      </trkpt>
      <trkpt lat="45.91" lon="4.79107">
        <ele>177</ele>
        <time>2017-12-07T12:21:55Z</time>
      </trkpt>
      <trkpt lat="45.91003" lon="4.79102">
        <ele>177</ele>
        <time>2017-12-07T12:21:56Z</time>
      </trkpt>
      <trkpt lat="45.91006" lon="4.79097">
        <ele>177</ele>
        <time>2017-12-07T12:21:57Z</time>
      </trkpt>
      <trkpt lat="45.9101" lon="4.79091">
        <ele>177</ele>
        <time>2017-12-07T12:21:58Z</time>
      </trkpt>
      <trkpt lat="45.91012" lon="4.79087">
        <ele>177</ele>
        <time>2017-12-07T12:21:59Z</time>
      </trkpt>
      <trkpt lat="45.91014" lon="4.79082">
        <ele>177</ele>
        <time>2017-12-07T12:22:00Z</time>
      </trkpt>
      <trkpt lat="45.91017" lon="4.79076">
        <ele>177</ele>
        <time>2017-12-07T12:22:01Z</time>
      </trkpt>
      <trkpt lat="45.91023" lon="4.79066">
        <ele>176</ele>
        <time>2017-12-07T12:22:03Z</time>
      </trkpt>
      <trkpt lat="45.91025" lon="4.79061">
        <ele>176</ele>
        <time>2017-12-07T12:22:04Z</time>
      </trkpt>
      <trkpt lat="45.91028" lon="4.79055">
        <ele>176</ele>
        <time>2017-12-07T12:22:05Z</time>
      </trkpt>
      <trkpt lat="45.91031" lon="4.79051">
        <ele>176</ele>
        <time>2017-12-07T12:22:06Z</time>
      </trkpt>
      <trkpt lat="45.91033" lon="4.79045">
        <ele>176</ele>
        <time>2017-12-07T12:22:07Z</time>
      </trkpt>
      <trkpt lat="45.91037" lon="4.7904">
        <ele>176</ele>
        <time>2017-12-07T12:22:08Z</time>
      </trkpt>
      <trkpt lat="45.9104" lon="4.79034">
        <ele>176</ele>
        <time>2017-12-07T12:22:09Z</time>
      </trkpt>
      <trkpt lat="45.91042" lon="4.79028">
        <ele>176</ele>
        <time>2017-12-07T12:22:10Z</time>
      </trkpt>
      <trkpt lat="45.91046" lon="4.79022">
        <ele>176</ele>
        <time>2017-12-07T12:22:11Z</time>
      </trkpt>
      <trkpt lat="45.9105" lon="4.79016">
        <ele>176</ele>
        <time>2017-12-07T12:22:12Z</time>
      </trkpt>
      <trkpt lat="45.91053" lon="4.79012">
        <ele>176</ele>
        <time>2017-12-07T12:22:13Z</time>
      </trkpt>
      <trkpt lat="45.91056" lon="4.79006">
        <ele>177</ele>
        <time>2017-12-07T12:22:14Z</time>
      </trkpt>
      <trkpt lat="45.91059" lon="4.79001">
        <ele>177</ele>
        <time>2017-12-07T12:22:15Z</time>
      </trkpt>
      <trkpt lat="45.91063" lon="4.78995">
        <ele>177</ele>
        <time>2017-12-07T12:22:16Z</time>
      </trkpt>
      <trkpt lat="45.91066" lon="4.78991">
        <ele>177</ele>
        <time>2017-12-07T12:22:17Z</time>
      </trkpt>
      <trkpt lat="45.91069" lon="4.78986">
        <ele>177</ele>
        <time>2017-12-07T12:22:18Z</time>
      </trkpt>
      <trkpt lat="45.91072" lon="4.7898">
        <ele>177</ele>
        <time>2017-12-07T12:22:19Z</time>
      </trkpt>
      <trkpt lat="45.91075" lon="4.78975">
        <ele>177</ele>
        <time>2017-12-07T12:22:20Z</time>
      </trkpt>
      <trkpt lat="45.91078" lon="4.78969">
        <ele>177</ele>
        <time>2017-12-07T12:22:21Z</time>
      </trkpt>
      <trkpt lat="45.9108" lon="4.78961">
        <ele>177</ele>
        <time>2017-12-07T12:22:22Z</time>
      </trkpt>
      <trkpt lat="45.91084" lon="4.78956">
        <ele>177</ele>
        <time>2017-12-07T12:22:23Z</time>
      </trkpt>
      <trkpt lat="45.91087" lon="4.78949">
        <ele>177</ele>
        <time>2017-12-07T12:22:24Z</time>
      </trkpt>
      <trkpt lat="45.9109" lon="4.78943">
        <ele>177</ele>
        <time>2017-12-07T12:22:25Z</time>
      </trkpt>
      <trkpt lat="45.91094" lon="4.78936">
        <ele>177</ele>
        <time>2017-12-07T12:22:26Z</time>
      </trkpt>
      <trkpt lat="45.91097" lon="4.78929">
        <ele>177</ele>
        <time>2017-12-07T12:22:27Z</time>
      </trkpt>
      <trkpt lat="45.91102" lon="4.78921">
        <ele>177</ele>
        <time>2017-12-07T12:22:28Z</time>
      </trkpt>
      <trkpt lat="45.91105" lon="4.78915">
        <ele>177</ele>
        <time>2017-12-07T12:22:29Z</time>
      </trkpt>
      <trkpt lat="45.91108" lon="4.78908">
        <ele>176</ele>
        <time>2017-12-07T12:22:30Z</time>
      </trkpt>
      <trkpt lat="45.91112" lon="4.78901">
        <ele>176</ele>
        <time>2017-12-07T12:22:31Z</time>
      </trkpt>
      <trkpt lat="45.91115" lon="4.78895">
        <ele>176</ele>
        <time>2017-12-07T12:22:32Z</time>
      </trkpt>
      <trkpt lat="45.91118" lon="4.78888">
        <ele>176</ele>
        <time>2017-12-07T12:22:33Z</time>
      </trkpt>
      <trkpt lat="45.91122" lon="4.78881">
        <ele>176</ele>
        <time>2017-12-07T12:22:34Z</time>
      </trkpt>
      <trkpt lat="45.91126" lon="4.78874">
        <ele>176</ele>
        <time>2017-12-07T12:22:35Z</time>
      </trkpt>
      <trkpt lat="45.91129" lon="4.78867">
        <ele>176</ele>
        <time>2017-12-07T12:22:36Z</time>
      </trkpt>
      <trkpt lat="45.91133" lon="4.78861">
        <ele>176</ele>
        <time>2017-12-07T12:22:37Z</time>
      </trkpt>
      <trkpt lat="45.91136" lon="4.78855">
        <ele>176</ele>
        <time>2017-12-07T12:22:38Z</time>
      </trkpt>
      <trkpt lat="45.91139" lon="4.78848">
        <ele>176</ele>
        <time>2017-12-07T12:22:39Z</time>
      </trkpt>
      <trkpt lat="45.91143" lon="4.78841">
        <ele>176</ele>
        <time>2017-12-07T12:22:40Z</time>
      </trkpt>
      <trkpt lat="45.91147" lon="4.78835">
        <ele>176</ele>
        <time>2017-12-07T12:22:41Z</time>
      </trkpt>
      <trkpt lat="45.91151" lon="4.78828">
        <ele>176</ele>
        <time>2017-12-07T12:22:42Z</time>
      </trkpt>
      <trkpt lat="45.91155" lon="4.78822">
        <ele>176</ele>
        <time>2017-12-07T12:22:43Z</time>
      </trkpt>
      <trkpt lat="45.91159" lon="4.78816">
        <ele>176</ele>
        <time>2017-12-07T12:22:44Z</time>
      </trkpt>
      <trkpt lat="45.91162" lon="4.78809">
        <ele>176</ele>
        <time>2017-12-07T12:22:45Z</time>
      </trkpt>
      <trkpt lat="45.91166" lon="4.78801">
        <ele>177</ele>
        <time>2017-12-07T12:22:46Z</time>
      </trkpt>
      <trkpt lat="45.91169" lon="4.78795">
        <ele>176</ele>
        <time>2017-12-07T12:22:47Z</time>
      </trkpt>
      <trkpt lat="45.91173" lon="4.78788">
        <ele>177</ele>
        <time>2017-12-07T12:22:48Z</time>
      </trkpt>
      <trkpt lat="45.91176" lon="4.78783">
        <ele>177</ele>
        <time>2017-12-07T12:22:49Z</time>
      </trkpt>
      <trkpt lat="45.9118" lon="4.78777">
        <ele>177</ele>
        <time>2017-12-07T12:22:50Z</time>
      </trkpt>
      <trkpt lat="45.91183" lon="4.7877">
        <ele>177</ele>
        <time>2017-12-07T12:22:51Z</time>
      </trkpt>
      <trkpt lat="45.91186" lon="4.78764">
        <ele>177</ele>
        <time>2017-12-07T12:22:52Z</time>
      </trkpt>
      <trkpt lat="45.91189" lon="4.78758">
        <ele>177</ele>
        <time>2017-12-07T12:22:53Z</time>
      </trkpt>
      <trkpt lat="45.91193" lon="4.78752">
        <ele>177</ele>
        <time>2017-12-07T12:22:54Z</time>
      </trkpt>
      <trkpt lat="45.91197" lon="4.78746">
        <ele>177</ele>
        <time>2017-12-07T12:22:55Z</time>
      </trkpt>
      <trkpt lat="45.912" lon="4.78738">
        <ele>177</ele>
        <time>2017-12-07T12:22:56Z</time>
      </trkpt>
      <trkpt lat="45.91203" lon="4.78732">
        <ele>177</ele>
        <time>2017-12-07T12:22:57Z</time>
      </trkpt>
      <trkpt lat="45.91207" lon="4.78725">
        <ele>177</ele>
        <time>2017-12-07T12:22:58Z</time>
      </trkpt>
      <trkpt lat="45.91209" lon="4.78719">
        <ele>177</ele>
        <time>2017-12-07T12:22:59Z</time>
      </trkpt>
      <trkpt lat="45.91212" lon="4.78712">
        <ele>177</ele>
        <time>2017-12-07T12:23:00Z</time>
      </trkpt>
      <trkpt lat="45.91216" lon="4.78706">
        <ele>177</ele>
        <time>2017-12-07T12:23:01Z</time>
      </trkpt>
      <trkpt lat="45.91219" lon="4.78699">
        <ele>177</ele>
        <time>2017-12-07T12:23:02Z</time>
      </trkpt>
      <trkpt lat="45.91223" lon="4.78692">
        <ele>177</ele>
        <time>2017-12-07T12:23:03Z</time>
      </trkpt>
      <trkpt lat="45.91225" lon="4.78686">
        <ele>177</ele>
        <time>2017-12-07T12:23:04Z</time>
      </trkpt>
      <trkpt lat="45.91228" lon="4.78679">
        <ele>177</ele>
        <time>2017-12-07T12:23:05Z</time>
      </trkpt>
      <trkpt lat="45.91231" lon="4.78673">
        <ele>177</ele>
        <time>2017-12-07T12:23:06Z</time>
      </trkpt>
      <trkpt lat="45.91234" lon="4.78668">
        <ele>177</ele>
        <time>2017-12-07T12:23:07Z</time>
      </trkpt>
      <trkpt lat="45.91237" lon="4.78661">
        <ele>177</ele>
        <time>2017-12-07T12:23:08Z</time>
      </trkpt>
      <trkpt lat="45.91241" lon="4.78654">
        <ele>177</ele>
        <time>2017-12-07T12:23:09Z</time>
      </trkpt>
      <trkpt lat="45.91245" lon="4.78646">
        <ele>177</ele>
        <time>2017-12-07T12:23:10Z</time>
      </trkpt>
      <trkpt lat="45.91247" lon="4.78639">
        <ele>177</ele>
        <time>2017-12-07T12:23:11Z</time>
      </trkpt>
      <trkpt lat="45.91251" lon="4.78633">
        <ele>176</ele>
        <time>2017-12-07T12:23:12Z</time>
      </trkpt>
      <trkpt lat="45.91253" lon="4.78626">
        <ele>176</ele>
        <time>2017-12-07T12:23:13Z</time>
      </trkpt>
      <trkpt lat="45.91257" lon="4.78618">
        <ele>176</ele>
        <time>2017-12-07T12:23:14Z</time>
      </trkpt>
      <trkpt lat="45.9126" lon="4.78612">
        <ele>176</ele>
        <time>2017-12-07T12:23:15Z</time>
      </trkpt>
      <trkpt lat="45.91263" lon="4.78605">
        <ele>176</ele>
        <time>2017-12-07T12:23:16Z</time>
      </trkpt>
      <trkpt lat="45.91265" lon="4.78598">
        <ele>176</ele>
        <time>2017-12-07T12:23:17Z</time>
      </trkpt>
      <trkpt lat="45.91268" lon="4.7859">
        <ele>176</ele>
        <time>2017-12-07T12:23:18Z</time>
      </trkpt>
      <trkpt lat="45.91272" lon="4.78583">
        <ele>176</ele>
        <time>2017-12-07T12:23:19Z</time>
      </trkpt>
      <trkpt lat="45.91275" lon="4.78578">
        <ele>176</ele>
        <time>2017-12-07T12:23:20Z</time>
      </trkpt>
      <trkpt lat="45.91277" lon="4.78572">
        <ele>176</ele>
        <time>2017-12-07T12:23:21Z</time>
      </trkpt>
      <trkpt lat="45.9128" lon="4.78566">
        <ele>176</ele>
        <time>2017-12-07T12:23:22Z</time>
      </trkpt>
      <trkpt lat="45.91282" lon="4.78561">
        <ele>176</ele>
        <time>2017-12-07T12:23:23Z</time>
      </trkpt>
      <trkpt lat="45.91285" lon="4.78554">
        <ele>176</ele>
        <time>2017-12-07T12:23:24Z</time>
      </trkpt>
      <trkpt lat="45.91288" lon="4.78548">
        <ele>176</ele>
        <time>2017-12-07T12:23:25Z</time>
      </trkpt>
      <trkpt lat="45.91291" lon="4.78542">
        <ele>176</ele>
        <time>2017-12-07T12:23:26Z</time>
      </trkpt>
      <trkpt lat="45.91295" lon="4.78536">
        <ele>175</ele>
        <time>2017-12-07T12:23:27Z</time>
      </trkpt>
      <trkpt lat="45.91299" lon="4.78528">
        <ele>175</ele>
        <time>2017-12-07T12:23:28Z</time>
      </trkpt>
      <trkpt lat="45.91302" lon="4.78521">
        <ele>175</ele>
        <time>2017-12-07T12:23:29Z</time>
      </trkpt>
      <trkpt lat="45.91306" lon="4.78514">
        <ele>175</ele>
        <time>2017-12-07T12:23:30Z</time>
      </trkpt>
      <trkpt lat="45.91309" lon="4.78508">
        <ele>175</ele>
        <time>2017-12-07T12:23:31Z</time>
      </trkpt>
      <trkpt lat="45.91311" lon="4.785">
        <ele>175</ele>
        <time>2017-12-07T12:23:32Z</time>
      </trkpt>
      <trkpt lat="45.91315" lon="4.78493">
        <ele>175</ele>
        <time>2017-12-07T12:23:33Z</time>
      </trkpt>
      <trkpt lat="45.91318" lon="4.78487">
        <ele>175</ele>
        <time>2017-12-07T12:23:34Z</time>
      </trkpt>
      <trkpt lat="45.91321" lon="4.78481">
        <ele>175</ele>
        <time>2017-12-07T12:23:35Z</time>
      </trkpt>
      <trkpt lat="45.91324" lon="4.78474">
        <ele>176</ele>
        <time>2017-12-07T12:23:36Z</time>
      </trkpt>
      <trkpt lat="45.91328" lon="4.78467">
        <ele>176</ele>
        <time>2017-12-07T12:23:37Z</time>
      </trkpt>
      <trkpt lat="45.91331" lon="4.7846">
        <ele>176</ele>
        <time>2017-12-07T12:23:38Z</time>
      </trkpt>
      <trkpt lat="45.91336" lon="4.78451">
        <ele>176</ele>
        <time>2017-12-07T12:23:39Z</time>
      </trkpt>
      <trkpt lat="45.91341" lon="4.78444">
        <ele>176</ele>
        <time>2017-12-07T12:23:40Z</time>
      </trkpt>
      <trkpt lat="45.91344" lon="4.78437">
        <ele>176</ele>
        <time>2017-12-07T12:23:41Z</time>
      </trkpt>
      <trkpt lat="45.91347" lon="4.7843">
        <ele>176</ele>
        <time>2017-12-07T12:23:42Z</time>
      </trkpt>
      <trkpt lat="45.9135" lon="4.78424">
        <ele>176</ele>
        <time>2017-12-07T12:23:43Z</time>
      </trkpt>
      <trkpt lat="45.91355" lon="4.78416">
        <ele>176</ele>
        <time>2017-12-07T12:23:44Z</time>
      </trkpt>
      <trkpt lat="45.91357" lon="4.78409">
        <ele>176</ele>
        <time>2017-12-07T12:23:45Z</time>
      </trkpt>
      <trkpt lat="45.91361" lon="4.78401">
        <ele>176</ele>
        <time>2017-12-07T12:23:46Z</time>
      </trkpt>
      <trkpt lat="45.91364" lon="4.78394">
        <ele>176</ele>
        <time>2017-12-07T12:23:47Z</time>
      </trkpt>
      <trkpt lat="45.91367" lon="4.78387">
        <ele>176</ele>
        <time>2017-12-07T12:23:48Z</time>
      </trkpt>
      <trkpt lat="45.91371" lon="4.7838">
        <ele>176</ele>
        <time>2017-12-07T12:23:49Z</time>
      </trkpt>
      <trkpt lat="45.91374" lon="4.78372">
        <ele>177</ele>
        <time>2017-12-07T12:23:50Z</time>
      </trkpt>
      <trkpt lat="45.91377" lon="4.78365">
        <ele>177</ele>
        <time>2017-12-07T12:23:51Z</time>
      </trkpt>
      <trkpt lat="45.91381" lon="4.78357">
        <ele>177</ele>
        <time>2017-12-07T12:23:52Z</time>
      </trkpt>
      <trkpt lat="45.91384" lon="4.7835">
        <ele>177</ele>
        <time>2017-12-07T12:23:53Z</time>
      </trkpt>
      <trkpt lat="45.91387" lon="4.78344">
        <ele>176</ele>
        <time>2017-12-07T12:23:54Z</time>
      </trkpt>
      <trkpt lat="45.9139" lon="4.78337">
        <ele>176</ele>
        <time>2017-12-07T12:23:55Z</time>
      </trkpt>
      <trkpt lat="45.91393" lon="4.78329">
        <ele>177</ele>
        <time>2017-12-07T12:23:56Z</time>
      </trkpt>
      <trkpt lat="45.91396" lon="4.78322">
        <ele>177</ele>
        <time>2017-12-07T12:23:57Z</time>
      </trkpt>
      <trkpt lat="45.91399" lon="4.78316">
        <ele>177</ele>
        <time>2017-12-07T12:23:58Z</time>
      </trkpt>
      <trkpt lat="45.91402" lon="4.78309">
        <ele>177</ele>
        <time>2017-12-07T12:23:59Z</time>
      </trkpt>
      <trkpt lat="45.91405" lon="4.78302">
        <ele>177</ele>
        <time>2017-12-07T12:24:00Z</time>
      </trkpt>
      <trkpt lat="45.91409" lon="4.78295">
        <ele>177</ele>
        <time>2017-12-07T12:24:01Z</time>
      </trkpt>
      <trkpt lat="45.91413" lon="4.78286">
        <ele>177</ele>
        <time>2017-12-07T12:24:02Z</time>
      </trkpt>
      <trkpt lat="45.91417" lon="4.7828">
        <ele>177</ele>
        <time>2017-12-07T12:24:03Z</time>
      </trkpt>
      <trkpt lat="45.9142" lon="4.78273">
        <ele>176</ele>
        <time>2017-12-07T12:24:04Z</time>
      </trkpt>
      <trkpt lat="45.91424" lon="4.78265">
        <ele>176</ele>
        <time>2017-12-07T12:24:05Z</time>
      </trkpt>
      <trkpt lat="45.91429" lon="4.78256">
        <ele>177</ele>
        <time>2017-12-07T12:24:06Z</time>
      </trkpt>
      <trkpt lat="45.91432" lon="4.78248">
        <ele>177</ele>
        <time>2017-12-07T12:24:07Z</time>
      </trkpt>
      <trkpt lat="45.91436" lon="4.7824">
        <ele>177</ele>
        <time>2017-12-07T12:24:08Z</time>
      </trkpt>
      <trkpt lat="45.9144" lon="4.78231">
        <ele>177</ele>
        <time>2017-12-07T12:24:09Z</time>
      </trkpt>
      <trkpt lat="45.91443" lon="4.78223">
        <ele>177</ele>
        <time>2017-12-07T12:24:10Z</time>
      </trkpt>
      <trkpt lat="45.91447" lon="4.78213">
        <ele>177</ele>
        <time>2017-12-07T12:24:11Z</time>
      </trkpt>
      <trkpt lat="45.91451" lon="4.78206">
        <ele>177</ele>
        <time>2017-12-07T12:24:12Z</time>
      </trkpt>
      <trkpt lat="45.91455" lon="4.78198">
        <ele>177</ele>
        <time>2017-12-07T12:24:13Z</time>
      </trkpt>
      <trkpt lat="45.91458" lon="4.7819">
        <ele>177</ele>
        <time>2017-12-07T12:24:14Z</time>
      </trkpt>
      <trkpt lat="45.91461" lon="4.78183">
        <ele>177</ele>
        <time>2017-12-07T12:24:15Z</time>
      </trkpt>
      <trkpt lat="45.91465" lon="4.78174">
        <ele>177</ele>
        <time>2017-12-07T12:24:16Z</time>
      </trkpt>
      <trkpt lat="45.91468" lon="4.78167">
        <ele>177</ele>
        <time>2017-12-07T12:24:17Z</time>
      </trkpt>
      <trkpt lat="45.91471" lon="4.78158">
        <ele>177</ele>
        <time>2017-12-07T12:24:18Z</time>
      </trkpt>
      <trkpt lat="45.91474" lon="4.78151">
        <ele>177</ele>
        <time>2017-12-07T12:24:19Z</time>
      </trkpt>
      <trkpt lat="45.91477" lon="4.78144">
        <ele>177</ele>
        <time>2017-12-07T12:24:20Z</time>
      </trkpt>
      <trkpt lat="45.91481" lon="4.78136">
        <ele>177</ele>
        <time>2017-12-07T12:24:21Z</time>
      </trkpt>
      <trkpt lat="45.91485" lon="4.78129">
        <ele>177</ele>
        <time>2017-12-07T12:24:22Z</time>
      </trkpt>
      <trkpt lat="45.91488" lon="4.78122">
        <ele>177</ele>
        <time>2017-12-07T12:24:23Z</time>
      </trkpt>
      <trkpt lat="45.91491" lon="4.78116">
        <ele>177</ele>
        <time>2017-12-07T12:24:24Z</time>
      </trkpt>
      <trkpt lat="45.91495" lon="4.78109">
        <ele>177</ele>
        <time>2017-12-07T12:24:25Z</time>
      </trkpt>
      <trkpt lat="45.91498" lon="4.78103">
        <ele>177</ele>
        <time>2017-12-07T12:24:26Z</time>
      </trkpt>
      <trkpt lat="45.91501" lon="4.78096">
        <ele>176</ele>
        <time>2017-12-07T12:24:27Z</time>
      </trkpt>
      <trkpt lat="45.91504" lon="4.78089">
        <ele>176</ele>
        <time>2017-12-07T12:24:28Z</time>
      </trkpt>
      <trkpt lat="45.9151" lon="4.78079">
        <ele>176</ele>
        <time>2017-12-07T12:24:29Z</time>
      </trkpt>
      <trkpt lat="45.91514" lon="4.7807">
        <ele>175</ele>
        <time>2017-12-07T12:24:30Z</time>
      </trkpt>
      <trkpt lat="45.91517" lon="4.7806">
        <ele>175</ele>
        <time>2017-12-07T12:24:31Z</time>
      </trkpt>
      <trkpt lat="45.91521" lon="4.78051">
        <ele>175</ele>
        <time>2017-12-07T12:24:32Z</time>
      </trkpt>
      <trkpt lat="45.91525" lon="4.78042">
        <ele>175</ele>
        <time>2017-12-07T12:24:33Z</time>
      </trkpt>
      <trkpt lat="45.9153" lon="4.78033">
        <ele>175</ele>
        <time>2017-12-07T12:24:34Z</time>
      </trkpt>
      <trkpt lat="45.91533" lon="4.78025">
        <ele>175</ele>
        <time>2017-12-07T12:24:35Z</time>
      </trkpt>
      <trkpt lat="45.91538" lon="4.78017">
        <ele>174</ele>
        <time>2017-12-07T12:24:36Z</time>
      </trkpt>
      <trkpt lat="45.91541" lon="4.78009">
        <ele>174</ele>
        <time>2017-12-07T12:24:37Z</time>
      </trkpt>
      <trkpt lat="45.91545" lon="4.78002">
        <ele>174</ele>
        <time>2017-12-07T12:24:38Z</time>
      </trkpt>
      <trkpt lat="45.91549" lon="4.77994">
        <ele>175</ele>
        <time>2017-12-07T12:24:39Z</time>
      </trkpt>
      <trkpt lat="45.91552" lon="4.77987">
        <ele>175</ele>
        <time>2017-12-07T12:24:40Z</time>
      </trkpt>
      <trkpt lat="45.91556" lon="4.77979">
        <ele>175</ele>
        <time>2017-12-07T12:24:41Z</time>
      </trkpt>
      <trkpt lat="45.91559" lon="4.77971">
        <ele>175</ele>
        <time>2017-12-07T12:24:42Z</time>
      </trkpt>
      <trkpt lat="45.91563" lon="4.77964">
        <ele>175</ele>
        <time>2017-12-07T12:24:43Z</time>
      </trkpt>
      <trkpt lat="45.91566" lon="4.77957">
        <ele>175</ele>
        <time>2017-12-07T12:24:44Z</time>
      </trkpt>
      <trkpt lat="45.91569" lon="4.77951">
        <ele>175</ele>
        <time>2017-12-07T12:24:45Z</time>
      </trkpt>
      <trkpt lat="45.91573" lon="4.77944">
        <ele>175</ele>
        <time>2017-12-07T12:24:46Z</time>
      </trkpt>
      <trkpt lat="45.91576" lon="4.77937">
        <ele>174</ele>
        <time>2017-12-07T12:24:47Z</time>
      </trkpt>
      <trkpt lat="45.91577" lon="4.77932">
        <ele>174</ele>
        <time>2017-12-07T12:24:48Z</time>
      </trkpt>
      <trkpt lat="45.9158" lon="4.77925">
        <ele>174</ele>
        <time>2017-12-07T12:24:49Z</time>
      </trkpt>
      <trkpt lat="45.91584" lon="4.77918">
        <ele>173</ele>
        <time>2017-12-07T12:24:50Z</time>
      </trkpt>
      <trkpt lat="45.91586" lon="4.77911">
        <ele>173</ele>
        <time>2017-12-07T12:24:51Z</time>
      </trkpt>
      <trkpt lat="45.9159" lon="4.77903">
        <ele>173</ele>
        <time>2017-12-07T12:24:52Z</time>
      </trkpt>
      <trkpt lat="45.91593" lon="4.77896">
        <ele>173</ele>
        <time>2017-12-07T12:24:53Z</time>
      </trkpt>
      <trkpt lat="45.91596" lon="4.77889">
        <ele>173</ele>
        <time>2017-12-07T12:24:54Z</time>
      </trkpt>
      <trkpt lat="45.91599" lon="4.77882">
        <ele>173</ele>
        <time>2017-12-07T12:24:55Z</time>
      </trkpt>
      <trkpt lat="45.91603" lon="4.77875">
        <ele>173</ele>
        <time>2017-12-07T12:24:56Z</time>
      </trkpt>
      <trkpt lat="45.91607" lon="4.77867">
        <ele>173</ele>
        <time>2017-12-07T12:24:57Z</time>
      </trkpt>
      <trkpt lat="45.91609" lon="4.77859">
        <ele>173</ele>
        <time>2017-12-07T12:24:58Z</time>
      </trkpt>
      <trkpt lat="45.91613" lon="4.77852">
        <ele>173</ele>
        <time>2017-12-07T12:24:59Z</time>
      </trkpt>
      <trkpt lat="45.91616" lon="4.77845">
        <ele>173</ele>
        <time>2017-12-07T12:25:00Z</time>
      </trkpt>
      <trkpt lat="45.91619" lon="4.77838">
        <ele>173</ele>
        <time>2017-12-07T12:25:01Z</time>
      </trkpt>
      <trkpt lat="45.91621" lon="4.77832">
        <ele>172</ele>
        <time>2017-12-07T12:25:02Z</time>
      </trkpt>
      <trkpt lat="45.91624" lon="4.77824">
        <ele>172</ele>
        <time>2017-12-07T12:25:03Z</time>
      </trkpt>
      <trkpt lat="45.91626" lon="4.77818">
        <ele>172</ele>
        <time>2017-12-07T12:25:04Z</time>
      </trkpt>
      <trkpt lat="45.9163" lon="4.77811">
        <ele>172</ele>
        <time>2017-12-07T12:25:05Z</time>
      </trkpt>
      <trkpt lat="45.91633" lon="4.77803">
        <ele>172</ele>
        <time>2017-12-07T12:25:06Z</time>
      </trkpt>
      <trkpt lat="45.91635" lon="4.77796">
        <ele>171</ele>
        <time>2017-12-07T12:25:07Z</time>
      </trkpt>
      <trkpt lat="45.91638" lon="4.77787">
        <ele>171</ele>
        <time>2017-12-07T12:25:08Z</time>
      </trkpt>
      <trkpt lat="45.91641" lon="4.7778">
        <ele>171</ele>
        <time>2017-12-07T12:25:09Z</time>
      </trkpt>
      <trkpt lat="45.91643" lon="4.77774">
        <ele>171</ele>
        <time>2017-12-07T12:25:10Z</time>
      </trkpt>
      <trkpt lat="45.91645" lon="4.77767">
        <ele>171</ele>
        <time>2017-12-07T12:25:11Z</time>
      </trkpt>
      <trkpt lat="45.91646" lon="4.7776">
        <ele>170</ele>
        <time>2017-12-07T12:25:12Z</time>
      </trkpt>
      <trkpt lat="45.91648" lon="4.77753">
        <ele>170</ele>
        <time>2017-12-07T12:25:13Z</time>
      </trkpt>
      <trkpt lat="45.91651" lon="4.77746">
        <ele>169</ele>
        <time>2017-12-07T12:25:14Z</time>
      </trkpt>
      <trkpt lat="45.91653" lon="4.77739">
        <ele>169</ele>
        <time>2017-12-07T12:25:15Z</time>
      </trkpt>
      <trkpt lat="45.91655" lon="4.77732">
        <ele>170</ele>
        <time>2017-12-07T12:25:16Z</time>
      </trkpt>
      <trkpt lat="45.91657" lon="4.77724">
        <ele>170</ele>
        <time>2017-12-07T12:25:17Z</time>
      </trkpt>
      <trkpt lat="45.91659" lon="4.77717">
        <ele>170</ele>
        <time>2017-12-07T12:25:18Z</time>
      </trkpt>
      <trkpt lat="45.91661" lon="4.77708">
        <ele>170</ele>
        <time>2017-12-07T12:25:19Z</time>
      </trkpt>
      <trkpt lat="45.91663" lon="4.777">
        <ele>170</ele>
        <time>2017-12-07T12:25:20Z</time>
      </trkpt>
      <trkpt lat="45.91664" lon="4.77692">
        <ele>170</ele>
        <time>2017-12-07T12:25:21Z</time>
      </trkpt>
      <trkpt lat="45.91665" lon="4.77683">
        <ele>170</ele>
        <time>2017-12-07T12:25:22Z</time>
      </trkpt>
      <trkpt lat="45.91667" lon="4.77676">
        <ele>169</ele>
        <time>2017-12-07T12:25:23Z</time>
      </trkpt>
      <trkpt lat="45.91669" lon="4.77667">
        <ele>169</ele>
        <time>2017-12-07T12:25:24Z</time>
      </trkpt>
      <trkpt lat="45.91671" lon="4.77659">
        <ele>169</ele>
        <time>2017-12-07T12:25:25Z</time>
      </trkpt>
      <trkpt lat="45.91673" lon="4.77651">
        <ele>169</ele>
        <time>2017-12-07T12:25:26Z</time>
      </trkpt>
      <trkpt lat="45.91673" lon="4.77642">
        <ele>169</ele>
        <time>2017-12-07T12:25:27Z</time>
      </trkpt>
      <trkpt lat="45.91675" lon="4.77635">
        <ele>169</ele>
        <time>2017-12-07T12:25:28Z</time>
      </trkpt>
      <trkpt lat="45.91677" lon="4.77627">
        <ele>169</ele>
        <time>2017-12-07T12:25:29Z</time>
      </trkpt>
      <trkpt lat="45.91678" lon="4.7762">
        <ele>169</ele>
        <time>2017-12-07T12:25:30Z</time>
      </trkpt>
      <trkpt lat="45.91679" lon="4.77612">
        <ele>169</ele>
        <time>2017-12-07T12:25:31Z</time>
      </trkpt>
      <trkpt lat="45.91681" lon="4.77605">
        <ele>169</ele>
        <time>2017-12-07T12:25:32Z</time>
      </trkpt>
      <trkpt lat="45.91682" lon="4.77596">
        <ele>169</ele>
        <time>2017-12-07T12:25:33Z</time>
      </trkpt>
      <trkpt lat="45.91684" lon="4.77589">
        <ele>169</ele>
        <time>2017-12-07T12:25:34Z</time>
      </trkpt>
      <trkpt lat="45.91685" lon="4.7758">
        <ele>169</ele>
        <time>2017-12-07T12:25:35Z</time>
      </trkpt>
      <trkpt lat="45.91688" lon="4.77571">
        <ele>169</ele>
        <time>2017-12-07T12:25:36Z</time>
      </trkpt>
      <trkpt lat="45.91689" lon="4.77562">
        <ele>169</ele>
        <time>2017-12-07T12:25:37Z</time>
      </trkpt>
      <trkpt lat="45.9169" lon="4.77552">
        <ele>169</ele>
        <time>2017-12-07T12:25:38Z</time>
      </trkpt>
      <trkpt lat="45.91692" lon="4.77544">
        <ele>169</ele>
        <time>2017-12-07T12:25:39Z</time>
      </trkpt>
      <trkpt lat="45.91694" lon="4.77535">
        <ele>169</ele>
        <time>2017-12-07T12:25:40Z</time>
      </trkpt>
      <trkpt lat="45.91696" lon="4.77526">
        <ele>169</ele>
        <time>2017-12-07T12:25:41Z</time>
      </trkpt>
      <trkpt lat="45.91698" lon="4.77518">
        <ele>169</ele>
        <time>2017-12-07T12:25:42Z</time>
      </trkpt>
      <trkpt lat="45.917" lon="4.7751">
        <ele>170</ele>
        <time>2017-12-07T12:25:43Z</time>
      </trkpt>
      <trkpt lat="45.91704" lon="4.77504">
        <ele>170</ele>
        <time>2017-12-07T12:25:44Z</time>
      </trkpt>
      <trkpt lat="45.91707" lon="4.77498">
        <ele>170</ele>
        <time>2017-12-07T12:25:45Z</time>
      </trkpt>
      <trkpt lat="45.9171" lon="4.77492">
        <ele>170</ele>
        <time>2017-12-07T12:25:46Z</time>
      </trkpt>
      <trkpt lat="45.91711" lon="4.77483">
        <ele>170</ele>
        <time>2017-12-07T12:25:47Z</time>
      </trkpt>
      <trkpt lat="45.91711" lon="4.77475">
        <ele>170</ele>
        <time>2017-12-07T12:25:48Z</time>
      </trkpt>
      <trkpt lat="45.91709" lon="4.77467">
        <ele>170</ele>
        <time>2017-12-07T12:25:49Z</time>
      </trkpt>
      <trkpt lat="45.91708" lon="4.77461">
        <ele>170</ele>
        <time>2017-12-07T12:25:50Z</time>
      </trkpt>
      <trkpt lat="45.91705" lon="4.77454">
        <ele>171</ele>
        <time>2017-12-07T12:25:51Z</time>
      </trkpt>
      <trkpt lat="45.91705" lon="4.77447">
        <ele>171</ele>
        <time>2017-12-07T12:25:52Z</time>
      </trkpt>
      <trkpt lat="45.91706" lon="4.77441">
        <ele>171</ele>
        <time>2017-12-07T12:25:53Z</time>
      </trkpt>
      <trkpt lat="45.91708" lon="4.77432">
        <ele>171</ele>
        <time>2017-12-07T12:25:54Z</time>
      </trkpt>
      <trkpt lat="45.91708" lon="4.77424">
        <ele>171</ele>
        <time>2017-12-07T12:25:55Z</time>
      </trkpt>
      <trkpt lat="45.9171" lon="4.77415">
        <ele>171</ele>
        <time>2017-12-07T12:25:56Z</time>
      </trkpt>
      <trkpt lat="45.9171" lon="4.77408">
        <ele>171</ele>
        <time>2017-12-07T12:25:57Z</time>
      </trkpt>
      <trkpt lat="45.91712" lon="4.77399">
        <ele>171</ele>
        <time>2017-12-07T12:25:58Z</time>
      </trkpt>
      <trkpt lat="45.91713" lon="4.77391">
        <ele>171</ele>
        <time>2017-12-07T12:25:59Z</time>
      </trkpt>
      <trkpt lat="45.91715" lon="4.77382">
        <ele>171</ele>
        <time>2017-12-07T12:26:00Z</time>
      </trkpt>
      <trkpt lat="45.91715" lon="4.77375">
        <ele>171</ele>
        <time>2017-12-07T12:26:01Z</time>
      </trkpt>
      <trkpt lat="45.91717" lon="4.77366">
        <ele>171</ele>
        <time>2017-12-07T12:26:02Z</time>
      </trkpt>
      <trkpt lat="45.91718" lon="4.77358">
        <ele>171</ele>
        <time>2017-12-07T12:26:03Z</time>
      </trkpt>
      <trkpt lat="45.91719" lon="4.7735">
        <ele>170</ele>
        <time>2017-12-07T12:26:04Z</time>
      </trkpt>
      <trkpt lat="45.9172" lon="4.77343">
        <ele>170</ele>
        <time>2017-12-07T12:26:05Z</time>
      </trkpt>
      <trkpt lat="45.91721" lon="4.77335">
        <ele>170</ele>
        <time>2017-12-07T12:26:06Z</time>
      </trkpt>
      <trkpt lat="45.91723" lon="4.77328">
        <ele>170</ele>
        <time>2017-12-07T12:26:07Z</time>
      </trkpt>
      <trkpt lat="45.91724" lon="4.77321">
        <ele>170</ele>
        <time>2017-12-07T12:26:08Z</time>
      </trkpt>
      <trkpt lat="45.91725" lon="4.77314">
        <ele>170</ele>
        <time>2017-12-07T12:26:09Z</time>
      </trkpt>
      <trkpt lat="45.91726" lon="4.77307">
        <ele>170</ele>
        <time>2017-12-07T12:26:10Z</time>
      </trkpt>
      <trkpt lat="45.91728" lon="4.773">
        <ele>170</ele>
        <time>2017-12-07T12:26:11Z</time>
      </trkpt>
      <trkpt lat="45.91729" lon="4.77293">
        <ele>170</ele>
        <time>2017-12-07T12:26:12Z</time>
      </trkpt>
      <trkpt lat="45.9173" lon="4.77286">
        <ele>170</ele>
        <time>2017-12-07T12:26:13Z</time>
      </trkpt>
      <trkpt lat="45.91732" lon="4.77277">
        <ele>170</ele>
        <time>2017-12-07T12:26:14Z</time>
      </trkpt>
      <trkpt lat="45.91732" lon="4.77269">
        <ele>170</ele>
        <time>2017-12-07T12:26:15Z</time>
      </trkpt>
      <trkpt lat="45.91733" lon="4.77261">
        <ele>170</ele>
        <time>2017-12-07T12:26:16Z</time>
      </trkpt>
      <trkpt lat="45.91734" lon="4.77252">
        <ele>169</ele>
        <time>2017-12-07T12:26:17Z</time>
      </trkpt>
      <trkpt lat="45.91735" lon="4.77244">
        <ele>169</ele>
        <time>2017-12-07T12:26:18Z</time>
      </trkpt>
      <trkpt lat="45.91736" lon="4.77235">
        <ele>169</ele>
        <time>2017-12-07T12:26:19Z</time>
      </trkpt>
      <trkpt lat="45.91737" lon="4.77228">
        <ele>170</ele>
        <time>2017-12-07T12:26:20Z</time>
      </trkpt>
      <trkpt lat="45.91738" lon="4.77221">
        <ele>170</ele>
        <time>2017-12-07T12:26:21Z</time>
      </trkpt>
      <trkpt lat="45.91739" lon="4.77213">
        <ele>170</ele>
        <time>2017-12-07T12:26:22Z</time>
      </trkpt>
      <trkpt lat="45.91741" lon="4.77206">
        <ele>170</ele>
        <time>2017-12-07T12:26:23Z</time>
      </trkpt>
      <trkpt lat="45.91742" lon="4.77199">
        <ele>170</ele>
        <time>2017-12-07T12:26:24Z</time>
      </trkpt>
      <trkpt lat="45.91743" lon="4.77192">
        <ele>170</ele>
        <time>2017-12-07T12:26:25Z</time>
      </trkpt>
      <trkpt lat="45.91744" lon="4.77184">
        <ele>170</ele>
        <time>2017-12-07T12:26:26Z</time>
      </trkpt>
      <trkpt lat="45.91745" lon="4.77176">
        <ele>170</ele>
        <time>2017-12-07T12:26:27Z</time>
      </trkpt>
      <trkpt lat="45.91747" lon="4.77167">
        <ele>170</ele>
        <time>2017-12-07T12:26:28Z</time>
      </trkpt>
      <trkpt lat="45.91748" lon="4.77158">
        <ele>170</ele>
        <time>2017-12-07T12:26:29Z</time>
      </trkpt>
      <trkpt lat="45.91749" lon="4.7715">
        <ele>170</ele>
        <time>2017-12-07T12:26:30Z</time>
      </trkpt>
      <trkpt lat="45.91751" lon="4.77141">
        <ele>169</ele>
        <time>2017-12-07T12:26:31Z</time>
      </trkpt>
      <trkpt lat="45.91752" lon="4.77131">
        <ele>169</ele>
        <time>2017-12-07T12:26:32Z</time>
      </trkpt>
      <trkpt lat="45.91753" lon="4.77122">
        <ele>169</ele>
        <time>2017-12-07T12:26:33Z</time>
      </trkpt>
      <trkpt lat="45.91754" lon="4.77113">
        <ele>169</ele>
        <time>2017-12-07T12:26:34Z</time>
      </trkpt>
      <trkpt lat="45.91756" lon="4.77103">
        <ele>169</ele>
        <time>2017-12-07T12:26:35Z</time>
      </trkpt>
      <trkpt lat="45.91757" lon="4.77094">
        <ele>169</ele>
        <time>2017-12-07T12:26:36Z</time>
      </trkpt>
      <trkpt lat="45.91758" lon="4.77086">
        <ele>169</ele>
        <time>2017-12-07T12:26:37Z</time>
      </trkpt>
      <trkpt lat="45.9176" lon="4.77076">
        <ele>169</ele>
        <time>2017-12-07T12:26:38Z</time>
      </trkpt>
      <trkpt lat="45.91761" lon="4.77068">
        <ele>169</ele>
        <time>2017-12-07T12:26:39Z</time>
      </trkpt>
      <trkpt lat="45.91762" lon="4.77059">
        <ele>169</ele>
        <time>2017-12-07T12:26:40Z</time>
      </trkpt>
      <trkpt lat="45.91763" lon="4.77051">
        <ele>168</ele>
        <time>2017-12-07T12:26:41Z</time>
      </trkpt>
      <trkpt lat="45.91765" lon="4.77042">
        <ele>168</ele>
        <time>2017-12-07T12:26:42Z</time>
      </trkpt>
      <trkpt lat="45.91766" lon="4.77035">
        <ele>168</ele>
        <time>2017-12-07T12:26:43Z</time>
      </trkpt>
      <trkpt lat="45.91767" lon="4.77027">
        <ele>168</ele>
        <time>2017-12-07T12:26:44Z</time>
      </trkpt>
      <trkpt lat="45.91768" lon="4.7702">
        <ele>168</ele>
        <time>2017-12-07T12:26:45Z</time>
      </trkpt>
      <trkpt lat="45.91769" lon="4.77013">
        <ele>169</ele>
        <time>2017-12-07T12:26:46Z</time>
      </trkpt>
      <trkpt lat="45.91771" lon="4.77006">
        <ele>169</ele>
        <time>2017-12-07T12:26:47Z</time>
      </trkpt>
      <trkpt lat="45.91772" lon="4.76999">
        <ele>169</ele>
        <time>2017-12-07T12:26:48Z</time>
      </trkpt>
      <trkpt lat="45.91773" lon="4.7699">
        <ele>169</ele>
        <time>2017-12-07T12:26:49Z</time>
      </trkpt>
      <trkpt lat="45.91774" lon="4.76981">
        <ele>169</ele>
        <time>2017-12-07T12:26:50Z</time>
      </trkpt>
      <trkpt lat="45.91775" lon="4.76973">
        <ele>169</ele>
        <time>2017-12-07T12:26:51Z</time>
      </trkpt>
      <trkpt lat="45.91775" lon="4.76964">
        <ele>169</ele>
        <time>2017-12-07T12:26:52Z</time>
      </trkpt>
      <trkpt lat="45.91776" lon="4.76956">
        <ele>169</ele>
        <time>2017-12-07T12:26:53Z</time>
      </trkpt>
      <trkpt lat="45.91778" lon="4.76947">
        <ele>169</ele>
        <time>2017-12-07T12:26:54Z</time>
      </trkpt>
      <trkpt lat="45.91779" lon="4.76938">
        <ele>169</ele>
        <time>2017-12-07T12:26:55Z</time>
      </trkpt>
      <trkpt lat="45.91779" lon="4.76929">
        <ele>169</ele>
        <time>2017-12-07T12:26:56Z</time>
      </trkpt>
      <trkpt lat="45.9178" lon="4.76921">
        <ele>169</ele>
        <time>2017-12-07T12:26:57Z</time>
      </trkpt>
      <trkpt lat="45.91781" lon="4.76912">
        <ele>170</ele>
        <time>2017-12-07T12:26:58Z</time>
      </trkpt>
      <trkpt lat="45.91781" lon="4.76904">
        <ele>170</ele>
        <time>2017-12-07T12:26:59Z</time>
      </trkpt>
      <trkpt lat="45.91782" lon="4.76895">
        <ele>170</ele>
        <time>2017-12-07T12:27:00Z</time>
      </trkpt>
      <trkpt lat="45.91782" lon="4.76886">
        <ele>170</ele>
        <time>2017-12-07T12:27:01Z</time>
      </trkpt>
      <trkpt lat="45.91783" lon="4.76878">
        <ele>170</ele>
        <time>2017-12-07T12:27:02Z</time>
      </trkpt>
      <trkpt lat="45.91783" lon="4.7687">
        <ele>170</ele>
        <time>2017-12-07T12:27:03Z</time>
      </trkpt>
      <trkpt lat="45.91784" lon="4.76862">
        <ele>170</ele>
        <time>2017-12-07T12:27:04Z</time>
      </trkpt>
      <trkpt lat="45.91785" lon="4.76855">
        <ele>170</ele>
        <time>2017-12-07T12:27:05Z</time>
      </trkpt>
      <trkpt lat="45.91785" lon="4.76849">
        <ele>170</ele>
        <time>2017-12-07T12:27:06Z</time>
      </trkpt>
      <trkpt lat="45.91785" lon="4.76842">
        <ele>170</ele>
        <time>2017-12-07T12:27:07Z</time>
      </trkpt>
      <trkpt lat="45.91785" lon="4.76835">
        <ele>170</ele>
        <time>2017-12-07T12:27:08Z</time>
      </trkpt>
      <trkpt lat="45.91785" lon="4.76827">
        <ele>171</ele>
        <time>2017-12-07T12:27:09Z</time>
      </trkpt>
      <trkpt lat="45.91785" lon="4.76819">
        <ele>171</ele>
        <time>2017-12-07T12:27:10Z</time>
      </trkpt>
      <trkpt lat="45.91785" lon="4.76811">
        <ele>171</ele>
        <time>2017-12-07T12:27:11Z</time>
      </trkpt>
      <trkpt lat="45.91785" lon="4.76804">
        <ele>171</ele>
        <time>2017-12-07T12:27:12Z</time>
      </trkpt>
      <trkpt lat="45.91783" lon="4.76794">
        <ele>171</ele>
        <time>2017-12-07T12:27:13Z</time>
      </trkpt>
      <trkpt lat="45.91784" lon="4.76786">
        <ele>171</ele>
        <time>2017-12-07T12:27:14Z</time>
      </trkpt>
      <trkpt lat="45.91784" lon="4.76779">
        <ele>171</ele>
        <time>2017-12-07T12:27:15Z</time>
      </trkpt>
      <trkpt lat="45.91785" lon="4.76771">
        <ele>171</ele>
        <time>2017-12-07T12:27:16Z</time>
      </trkpt>
      <trkpt lat="45.91785" lon="4.76764">
        <ele>171</ele>
        <time>2017-12-07T12:27:17Z</time>
      </trkpt>
      <trkpt lat="45.91784" lon="4.76756">
        <ele>171</ele>
        <time>2017-12-07T12:27:18Z</time>
      </trkpt>
      <trkpt lat="45.91785" lon="4.76748">
        <ele>172</ele>
        <time>2017-12-07T12:27:19Z</time>
      </trkpt>
      <trkpt lat="45.91785" lon="4.76738">
        <ele>172</ele>
        <time>2017-12-07T12:27:20Z</time>
      </trkpt>
      <trkpt lat="45.91786" lon="4.76732">
        <ele>172</ele>
        <time>2017-12-07T12:27:21Z</time>
      </trkpt>
      <trkpt lat="45.91787" lon="4.76724">
        <ele>172</ele>
        <time>2017-12-07T12:27:22Z</time>
      </trkpt>
      <trkpt lat="45.91787" lon="4.76717">
        <ele>172</ele>
        <time>2017-12-07T12:27:23Z</time>
      </trkpt>
      <trkpt lat="45.91788" lon="4.7671">
        <ele>172</ele>
        <time>2017-12-07T12:27:24Z</time>
      </trkpt>
      <trkpt lat="45.91789" lon="4.76703">
        <ele>172</ele>
        <time>2017-12-07T12:27:25Z</time>
      </trkpt>
      <trkpt lat="45.9179" lon="4.76697">
        <ele>172</ele>
        <time>2017-12-07T12:27:26Z</time>
      </trkpt>
      <trkpt lat="45.9179" lon="4.7669">
        <ele>172</ele>
        <time>2017-12-07T12:27:27Z</time>
      </trkpt>
      <trkpt lat="45.91791" lon="4.76682">
        <ele>172</ele>
        <time>2017-12-07T12:27:28Z</time>
      </trkpt>
      <trkpt lat="45.91792" lon="4.76675">
        <ele>172</ele>
        <time>2017-12-07T12:27:29Z</time>
      </trkpt>
      <trkpt lat="45.91793" lon="4.76668">
        <ele>172</ele>
        <time>2017-12-07T12:27:30Z</time>
      </trkpt>
      <trkpt lat="45.91793" lon="4.76661">
        <ele>173</ele>
        <time>2017-12-07T12:27:31Z</time>
      </trkpt>
      <trkpt lat="45.91794" lon="4.76652">
        <ele>173</ele>
        <time>2017-12-07T12:27:32Z</time>
      </trkpt>
      <trkpt lat="45.91795" lon="4.76645">
        <ele>173</ele>
        <time>2017-12-07T12:27:33Z</time>
      </trkpt>
      <trkpt lat="45.91796" lon="4.76637">
        <ele>173</ele>
        <time>2017-12-07T12:27:34Z</time>
      </trkpt>
      <trkpt lat="45.91796" lon="4.7663">
        <ele>173</ele>
        <time>2017-12-07T12:27:35Z</time>
      </trkpt>
      <trkpt lat="45.91798" lon="4.76624">
        <ele>173</ele>
        <time>2017-12-07T12:27:36Z</time>
      </trkpt>
      <trkpt lat="45.91799" lon="4.76617">
        <ele>173</ele>
        <time>2017-12-07T12:27:37Z</time>
      </trkpt>
      <trkpt lat="45.918" lon="4.7661">
        <ele>173</ele>
        <time>2017-12-07T12:27:38Z</time>
      </trkpt>
      <trkpt lat="45.918" lon="4.76602">
        <ele>173</ele>
        <time>2017-12-07T12:27:39Z</time>
      </trkpt>
      <trkpt lat="45.91801" lon="4.76595">
        <ele>173</ele>
        <time>2017-12-07T12:27:40Z</time>
      </trkpt>
      <trkpt lat="45.91801" lon="4.76588">
        <ele>173</ele>
        <time>2017-12-07T12:27:41Z</time>
      </trkpt>
      <trkpt lat="45.91802" lon="4.76581">
        <ele>173</ele>
        <time>2017-12-07T12:27:42Z</time>
      </trkpt>
      <trkpt lat="45.91803" lon="4.76574">
        <ele>173</ele>
        <time>2017-12-07T12:27:43Z</time>
      </trkpt>
      <trkpt lat="45.91803" lon="4.76567">
        <ele>173</ele>
        <time>2017-12-07T12:27:44Z</time>
      </trkpt>
      <trkpt lat="45.91805" lon="4.76561">
        <ele>173</ele>
        <time>2017-12-07T12:27:45Z</time>
      </trkpt>
      <trkpt lat="45.91805" lon="4.76553">
        <ele>173</ele>
        <time>2017-12-07T12:27:46Z</time>
      </trkpt>
      <trkpt lat="45.91805" lon="4.76547">
        <ele>173</ele>
        <time>2017-12-07T12:27:47Z</time>
      </trkpt>
      <trkpt lat="45.91806" lon="4.76539">
        <ele>173</ele>
        <time>2017-12-07T12:27:48Z</time>
      </trkpt>
      <trkpt lat="45.91806" lon="4.76531">
        <ele>173</ele>
        <time>2017-12-07T12:27:49Z</time>
      </trkpt>
      <trkpt lat="45.91807" lon="4.76524">
        <ele>173</ele>
        <time>2017-12-07T12:27:50Z</time>
      </trkpt>
      <trkpt lat="45.91808" lon="4.76516">
        <ele>173</ele>
        <time>2017-12-07T12:27:51Z</time>
      </trkpt>
      <trkpt lat="45.91809" lon="4.76509">
        <ele>173</ele>
        <time>2017-12-07T12:27:52Z</time>
      </trkpt>
      <trkpt lat="45.91809" lon="4.76502">
        <ele>173</ele>
        <time>2017-12-07T12:27:53Z</time>
      </trkpt>
      <trkpt lat="45.9181" lon="4.76495">
        <ele>173</ele>
        <time>2017-12-07T12:27:54Z</time>
      </trkpt>
      <trkpt lat="45.9181" lon="4.76488">
        <ele>173</ele>
        <time>2017-12-07T12:27:55Z</time>
      </trkpt>
      <trkpt lat="45.91811" lon="4.76481">
        <ele>173</ele>
        <time>2017-12-07T12:27:56Z</time>
      </trkpt>
      <trkpt lat="45.91811" lon="4.76474">
        <ele>173</ele>
        <time>2017-12-07T12:27:57Z</time>
      </trkpt>
      <trkpt lat="45.91811" lon="4.76467">
        <ele>173</ele>
        <time>2017-12-07T12:27:58Z</time>
      </trkpt>
      <trkpt lat="45.91811" lon="4.76459">
        <ele>173</ele>
        <time>2017-12-07T12:27:59Z</time>
      </trkpt>
      <trkpt lat="45.91812" lon="4.76447">
        <ele>173</ele>
        <time>2017-12-07T12:28:01Z</time>
      </trkpt>
      <trkpt lat="45.91813" lon="4.76441">
        <ele>173</ele>
        <time>2017-12-07T12:28:02Z</time>
      </trkpt>
      <trkpt lat="45.91813" lon="4.76433">
        <ele>173</ele>
        <time>2017-12-07T12:28:03Z</time>
      </trkpt>
      <trkpt lat="45.91813" lon="4.76425">
        <ele>173</ele>
        <time>2017-12-07T12:28:04Z</time>
      </trkpt>
      <trkpt lat="45.91814" lon="4.76418">
        <ele>173</ele>
        <time>2017-12-07T12:28:05Z</time>
      </trkpt>
      <trkpt lat="45.91815" lon="4.76411">
        <ele>173</ele>
        <time>2017-12-07T12:28:06Z</time>
      </trkpt>
      <trkpt lat="45.91815" lon="4.76404">
        <ele>173</ele>
        <time>2017-12-07T12:28:07Z</time>
      </trkpt>
      <trkpt lat="45.91816" lon="4.76397">
        <ele>173</ele>
        <time>2017-12-07T12:28:08Z</time>
      </trkpt>
      <trkpt lat="45.91816" lon="4.76389">
        <ele>173</ele>
        <time>2017-12-07T12:28:09Z</time>
      </trkpt>
      <trkpt lat="45.91816" lon="4.76381">
        <ele>174</ele>
        <time>2017-12-07T12:28:10Z</time>
      </trkpt>
      <trkpt lat="45.91817" lon="4.76373">
        <ele>174</ele>
        <time>2017-12-07T12:28:11Z</time>
      </trkpt>
      <trkpt lat="45.91818" lon="4.76366">
        <ele>174</ele>
        <time>2017-12-07T12:28:12Z</time>
      </trkpt>
      <trkpt lat="45.91819" lon="4.76358">
        <ele>174</ele>
        <time>2017-12-07T12:28:13Z</time>
      </trkpt>
      <trkpt lat="45.91819" lon="4.76351">
        <ele>174</ele>
        <time>2017-12-07T12:28:14Z</time>
      </trkpt>
      <trkpt lat="45.9182" lon="4.76344">
        <ele>174</ele>
        <time>2017-12-07T12:28:15Z</time>
      </trkpt>
      <trkpt lat="45.91821" lon="4.76338">
        <ele>173</ele>
        <time>2017-12-07T12:28:16Z</time>
      </trkpt>
      <trkpt lat="45.91822" lon="4.76332">
        <ele>174</ele>
        <time>2017-12-07T12:28:17Z</time>
      </trkpt>
      <trkpt lat="45.91824" lon="4.76325">
        <ele>174</ele>
        <time>2017-12-07T12:28:18Z</time>
      </trkpt>
      <trkpt lat="45.91824" lon="4.76317">
        <ele>174</ele>
        <time>2017-12-07T12:28:19Z</time>
      </trkpt>
      <trkpt lat="45.91825" lon="4.7631">
        <ele>174</ele>
        <time>2017-12-07T12:28:20Z</time>
      </trkpt>
      <trkpt lat="45.91827" lon="4.76303">
        <ele>174</ele>
        <time>2017-12-07T12:28:21Z</time>
      </trkpt>
      <trkpt lat="45.91829" lon="4.76296">
        <ele>174</ele>
        <time>2017-12-07T12:28:22Z</time>
      </trkpt>
      <trkpt lat="45.91831" lon="4.76287">
        <ele>174</ele>
        <time>2017-12-07T12:28:23Z</time>
      </trkpt>
      <trkpt lat="45.91833" lon="4.76279">
        <ele>174</ele>
        <time>2017-12-07T12:28:24Z</time>
      </trkpt>
      <trkpt lat="45.91835" lon="4.76271">
        <ele>172</ele>
        <time>2017-12-07T12:28:25Z</time>
      </trkpt>
      <trkpt lat="45.91837" lon="4.76264">
        <ele>173</ele>
        <time>2017-12-07T12:28:26Z</time>
      </trkpt>
      <trkpt lat="45.9184" lon="4.76257">
        <ele>173</ele>
        <time>2017-12-07T12:28:27Z</time>
      </trkpt>
      <trkpt lat="45.91841" lon="4.76248">
        <ele>173</ele>
        <time>2017-12-07T12:28:28Z</time>
      </trkpt>
      <trkpt lat="45.91844" lon="4.76242">
        <ele>173</ele>
        <time>2017-12-07T12:28:29Z</time>
      </trkpt>
      <trkpt lat="45.91846" lon="4.76235">
        <ele>172</ele>
        <time>2017-12-07T12:28:30Z</time>
      </trkpt>
      <trkpt lat="45.91848" lon="4.76228">
        <ele>172</ele>
        <time>2017-12-07T12:28:31Z</time>
      </trkpt>
      <trkpt lat="45.91849" lon="4.76222">
        <ele>172</ele>
        <time>2017-12-07T12:28:32Z</time>
      </trkpt>
      <trkpt lat="45.91851" lon="4.76215">
        <ele>172</ele>
        <time>2017-12-07T12:28:33Z</time>
      </trkpt>
      <trkpt lat="45.91853" lon="4.76209">
        <ele>172</ele>
        <time>2017-12-07T12:28:34Z</time>
      </trkpt>
      <trkpt lat="45.91854" lon="4.76202">
        <ele>172</ele>
        <time>2017-12-07T12:28:35Z</time>
      </trkpt>
      <trkpt lat="45.91856" lon="4.76195">
        <ele>172</ele>
        <time>2017-12-07T12:28:36Z</time>
      </trkpt>
      <trkpt lat="45.91858" lon="4.76187">
        <ele>172</ele>
        <time>2017-12-07T12:28:37Z</time>
      </trkpt>
      <trkpt lat="45.9186" lon="4.7618">
        <ele>172</ele>
        <time>2017-12-07T12:28:38Z</time>
      </trkpt>
      <trkpt lat="45.91861" lon="4.76172">
        <ele>172</ele>
        <time>2017-12-07T12:28:39Z</time>
      </trkpt>
      <trkpt lat="45.91863" lon="4.76165">
        <ele>173</ele>
        <time>2017-12-07T12:28:40Z</time>
      </trkpt>
      <trkpt lat="45.91865" lon="4.76155">
        <ele>173</ele>
        <time>2017-12-07T12:28:41Z</time>
      </trkpt>
      <trkpt lat="45.91866" lon="4.76149">
        <ele>173</ele>
        <time>2017-12-07T12:28:42Z</time>
      </trkpt>
      <trkpt lat="45.91868" lon="4.76141">
        <ele>173</ele>
        <time>2017-12-07T12:28:43Z</time>
      </trkpt>
      <trkpt lat="45.9187" lon="4.76133">
        <ele>173</ele>
        <time>2017-12-07T12:28:44Z</time>
      </trkpt>
      <trkpt lat="45.91872" lon="4.76125">
        <ele>173</ele>
        <time>2017-12-07T12:28:45Z</time>
      </trkpt>
      <trkpt lat="45.91873" lon="4.76117">
        <ele>173</ele>
        <time>2017-12-07T12:28:46Z</time>
      </trkpt>
      <trkpt lat="45.91876" lon="4.76109">
        <ele>173</ele>
        <time>2017-12-07T12:28:47Z</time>
      </trkpt>
      <trkpt lat="45.91878" lon="4.76102">
        <ele>173</ele>
        <time>2017-12-07T12:28:48Z</time>
      </trkpt>
      <trkpt lat="45.9188" lon="4.76094">
        <ele>173</ele>
        <time>2017-12-07T12:28:49Z</time>
      </trkpt>
      <trkpt lat="45.91882" lon="4.76085">
        <ele>172</ele>
        <time>2017-12-07T12:28:50Z</time>
      </trkpt>
      <trkpt lat="45.91884" lon="4.76076">
        <ele>173</ele>
        <time>2017-12-07T12:28:51Z</time>
      </trkpt>
      <trkpt lat="45.91887" lon="4.76068">
        <ele>173</ele>
        <time>2017-12-07T12:28:52Z</time>
      </trkpt>
      <trkpt lat="45.91889" lon="4.76059">
        <ele>173</ele>
        <time>2017-12-07T12:28:53Z</time>
      </trkpt>
      <trkpt lat="45.91892" lon="4.7605">
        <ele>173</ele>
        <time>2017-12-07T12:28:54Z</time>
      </trkpt>
      <trkpt lat="45.91894" lon="4.76042">
        <ele>173</ele>
        <time>2017-12-07T12:28:55Z</time>
      </trkpt>
      <trkpt lat="45.91897" lon="4.76034">
        <ele>173</ele>
        <time>2017-12-07T12:28:56Z</time>
      </trkpt>
      <trkpt lat="45.91899" lon="4.76025">
        <ele>173</ele>
        <time>2017-12-07T12:28:57Z</time>
      </trkpt>
      <trkpt lat="45.91902" lon="4.76017">
        <ele>173</ele>
        <time>2017-12-07T12:28:58Z</time>
      </trkpt>
      <trkpt lat="45.91904" lon="4.76008">
        <ele>173</ele>
        <time>2017-12-07T12:28:59Z</time>
      </trkpt>
      <trkpt lat="45.91906" lon="4.76">
        <ele>172</ele>
        <time>2017-12-07T12:29:00Z</time>
      </trkpt>
      <trkpt lat="45.91908" lon="4.75992">
        <ele>173</ele>
        <time>2017-12-07T12:29:01Z</time>
      </trkpt>
      <trkpt lat="45.9191" lon="4.75985">
        <ele>173</ele>
        <time>2017-12-07T12:29:02Z</time>
      </trkpt>
      <trkpt lat="45.91911" lon="4.75979">
        <ele>173</ele>
        <time>2017-12-07T12:29:03Z</time>
      </trkpt>
      <trkpt lat="45.91914" lon="4.75972">
        <ele>173</ele>
        <time>2017-12-07T12:29:04Z</time>
      </trkpt>
      <trkpt lat="45.91916" lon="4.75965">
        <ele>173</ele>
        <time>2017-12-07T12:29:05Z</time>
      </trkpt>
      <trkpt lat="45.91918" lon="4.75959">
        <ele>172</ele>
        <time>2017-12-07T12:29:06Z</time>
      </trkpt>
      <trkpt lat="45.91919" lon="4.7595">
        <ele>172</ele>
        <time>2017-12-07T12:29:07Z</time>
      </trkpt>
      <trkpt lat="45.91921" lon="4.75942">
        <ele>172</ele>
        <time>2017-12-07T12:29:08Z</time>
      </trkpt>
      <trkpt lat="45.91923" lon="4.75935">
        <ele>172</ele>
        <time>2017-12-07T12:29:09Z</time>
      </trkpt>
      <trkpt lat="45.91925" lon="4.75927">
        <ele>172</ele>
        <time>2017-12-07T12:29:10Z</time>
      </trkpt>
      <trkpt lat="45.91927" lon="4.7592">
        <ele>172</ele>
        <time>2017-12-07T12:29:11Z</time>
      </trkpt>
      <trkpt lat="45.91929" lon="4.75911">
        <ele>172</ele>
        <time>2017-12-07T12:29:12Z</time>
      </trkpt>
      <trkpt lat="45.91932" lon="4.75901">
        <ele>172</ele>
        <time>2017-12-07T12:29:13Z</time>
      </trkpt>
      <trkpt lat="45.91935" lon="4.75893">
        <ele>172</ele>
        <time>2017-12-07T12:29:14Z</time>
      </trkpt>
      <trkpt lat="45.91939" lon="4.75885">
        <ele>172</ele>
        <time>2017-12-07T12:29:15Z</time>
      </trkpt>
      <trkpt lat="45.91942" lon="4.75877">
        <ele>172</ele>
        <time>2017-12-07T12:29:16Z</time>
      </trkpt>
      <trkpt lat="45.91945" lon="4.7587">
        <ele>172</ele>
        <time>2017-12-07T12:29:17Z</time>
      </trkpt>
      <trkpt lat="45.91948" lon="4.75863">
        <ele>172</ele>
        <time>2017-12-07T12:29:18Z</time>
      </trkpt>
      <trkpt lat="45.91952" lon="4.75856">
        <ele>172</ele>
        <time>2017-12-07T12:29:19Z</time>
      </trkpt>
      <trkpt lat="45.91955" lon="4.7585">
        <ele>172</ele>
        <time>2017-12-07T12:29:20Z</time>
      </trkpt>
      <trkpt lat="45.9196" lon="4.75843">
        <ele>172</ele>
        <time>2017-12-07T12:29:21Z</time>
      </trkpt>
      <trkpt lat="45.91963" lon="4.75837">
        <ele>172</ele>
        <time>2017-12-07T12:29:22Z</time>
      </trkpt>
      <trkpt lat="45.91967" lon="4.7583">
        <ele>173</ele>
        <time>2017-12-07T12:29:23Z</time>
      </trkpt>
      <trkpt lat="45.91971" lon="4.75824">
        <ele>173</ele>
        <time>2017-12-07T12:29:24Z</time>
      </trkpt>
      <trkpt lat="45.91974" lon="4.75818">
        <ele>173</ele>
        <time>2017-12-07T12:29:25Z</time>
      </trkpt>
      <trkpt lat="45.91977" lon="4.75811">
        <ele>173</ele>
        <time>2017-12-07T12:29:26Z</time>
      </trkpt>
      <trkpt lat="45.9198" lon="4.75806">
        <ele>173</ele>
        <time>2017-12-07T12:29:27Z</time>
      </trkpt>
      <trkpt lat="45.91983" lon="4.75801">
        <ele>173</ele>
        <time>2017-12-07T12:29:28Z</time>
      </trkpt>
      <trkpt lat="45.91986" lon="4.75796">
        <ele>173</ele>
        <time>2017-12-07T12:29:29Z</time>
      </trkpt>
      <trkpt lat="45.91991" lon="4.75791">
        <ele>173</ele>
        <time>2017-12-07T12:29:30Z</time>
      </trkpt>
      <trkpt lat="45.91994" lon="4.75785">
        <ele>173</ele>
        <time>2017-12-07T12:29:31Z</time>
      </trkpt>
      <trkpt lat="45.91998" lon="4.75777">
        <ele>174</ele>
        <time>2017-12-07T12:29:32Z</time>
      </trkpt>
      <trkpt lat="45.92001" lon="4.75771">
        <ele>173</ele>
        <time>2017-12-07T12:29:33Z</time>
      </trkpt>
      <trkpt lat="45.92005" lon="4.75765">
        <ele>174</ele>
        <time>2017-12-07T12:29:34Z</time>
      </trkpt>
      <trkpt lat="45.92009" lon="4.75757">
        <ele>174</ele>
        <time>2017-12-07T12:29:35Z</time>
      </trkpt>
      <trkpt lat="45.92013" lon="4.7575">
        <ele>174</ele>
        <time>2017-12-07T12:29:36Z</time>
      </trkpt>
      <trkpt lat="45.92016" lon="4.75742">
        <ele>174</ele>
        <time>2017-12-07T12:29:37Z</time>
      </trkpt>
      <trkpt lat="45.92021" lon="4.75734">
        <ele>175</ele>
        <time>2017-12-07T12:29:38Z</time>
      </trkpt>
      <trkpt lat="45.92024" lon="4.75728">
        <ele>175</ele>
        <time>2017-12-07T12:29:39Z</time>
      </trkpt>
      <trkpt lat="45.92028" lon="4.7572">
        <ele>175</ele>
        <time>2017-12-07T12:29:40Z</time>
      </trkpt>
      <trkpt lat="45.92033" lon="4.75713">
        <ele>175</ele>
        <time>2017-12-07T12:29:41Z</time>
      </trkpt>
      <trkpt lat="45.92037" lon="4.75706">
        <ele>175</ele>
        <time>2017-12-07T12:29:42Z</time>
      </trkpt>
      <trkpt lat="45.92041" lon="4.757">
        <ele>175</ele>
        <time>2017-12-07T12:29:43Z</time>
      </trkpt>
      <trkpt lat="45.92044" lon="4.75693">
        <ele>175</ele>
        <time>2017-12-07T12:29:44Z</time>
      </trkpt>
      <trkpt lat="45.92047" lon="4.75686">
        <ele>175</ele>
        <time>2017-12-07T12:29:45Z</time>
      </trkpt>
      <trkpt lat="45.9205" lon="4.7568">
        <ele>175</ele>
        <time>2017-12-07T12:29:46Z</time>
      </trkpt>
      <trkpt lat="45.92053" lon="4.75674">
        <ele>175</ele>
        <time>2017-12-07T12:29:47Z</time>
      </trkpt>
      <trkpt lat="45.92056" lon="4.75668">
        <ele>175</ele>
        <time>2017-12-07T12:29:48Z</time>
      </trkpt>
      <trkpt lat="45.9206" lon="4.75663">
        <ele>175</ele>
        <time>2017-12-07T12:29:49Z</time>
      </trkpt>
      <trkpt lat="45.92064" lon="4.75657">
        <ele>175</ele>
        <time>2017-12-07T12:29:50Z</time>
      </trkpt>
      <trkpt lat="45.92066" lon="4.75651">
        <ele>175</ele>
        <time>2017-12-07T12:29:51Z</time>
      </trkpt>
      <trkpt lat="45.9207" lon="4.75644">
        <ele>175</ele>
        <time>2017-12-07T12:29:52Z</time>
      </trkpt>
      <trkpt lat="45.92074" lon="4.75638">
        <ele>175</ele>
        <time>2017-12-07T12:29:53Z</time>
      </trkpt>
      <trkpt lat="45.92077" lon="4.75633">
        <ele>175</ele>
        <time>2017-12-07T12:29:54Z</time>
      </trkpt>
      <trkpt lat="45.92081" lon="4.75626">
        <ele>175</ele>
        <time>2017-12-07T12:29:55Z</time>
      </trkpt>
      <trkpt lat="45.92086" lon="4.75619">
        <ele>174</ele>
        <time>2017-12-07T12:29:56Z</time>
      </trkpt>
      <trkpt lat="45.92089" lon="4.75613">
        <ele>174</ele>
        <time>2017-12-07T12:29:57Z</time>
      </trkpt>
      <trkpt lat="45.92093" lon="4.75605">
        <ele>174</ele>
        <time>2017-12-07T12:29:58Z</time>
      </trkpt>
      <trkpt lat="45.92096" lon="4.75598">
        <ele>174</ele>
        <time>2017-12-07T12:29:59Z</time>
      </trkpt>
      <trkpt lat="45.921" lon="4.7559">
        <ele>174</ele>
        <time>2017-12-07T12:30:00Z</time>
      </trkpt>
      <trkpt lat="45.92104" lon="4.75584">
        <ele>174</ele>
        <time>2017-12-07T12:30:01Z</time>
      </trkpt>
      <trkpt lat="45.92107" lon="4.75576">
        <ele>174</ele>
        <time>2017-12-07T12:30:02Z</time>
      </trkpt>
      <trkpt lat="45.9211" lon="4.7557">
        <ele>174</ele>
        <time>2017-12-07T12:30:03Z</time>
      </trkpt>
      <trkpt lat="45.92114" lon="4.75564">
        <ele>174</ele>
        <time>2017-12-07T12:30:04Z</time>
      </trkpt>
      <trkpt lat="45.92117" lon="4.75558">
        <ele>174</ele>
        <time>2017-12-07T12:30:05Z</time>
      </trkpt>
      <trkpt lat="45.9212" lon="4.75552">
        <ele>174</ele>
        <time>2017-12-07T12:30:06Z</time>
      </trkpt>
      <trkpt lat="45.92123" lon="4.75547">
        <ele>174</ele>
        <time>2017-12-07T12:30:07Z</time>
      </trkpt>
      <trkpt lat="45.92126" lon="4.75541">
        <ele>174</ele>
        <time>2017-12-07T12:30:08Z</time>
      </trkpt>
      <trkpt lat="45.9213" lon="4.75535">
        <ele>174</ele>
        <time>2017-12-07T12:30:09Z</time>
      </trkpt>
      <trkpt lat="45.92133" lon="4.75529">
        <ele>174</ele>
        <time>2017-12-07T12:30:10Z</time>
      </trkpt>
      <trkpt lat="45.92137" lon="4.75523">
        <ele>174</ele>
        <time>2017-12-07T12:30:11Z</time>
      </trkpt>
      <trkpt lat="45.92141" lon="4.75517">
        <ele>174</ele>
        <time>2017-12-07T12:30:12Z</time>
      </trkpt>
      <trkpt lat="45.92144" lon="4.75511">
        <ele>175</ele>
        <time>2017-12-07T12:30:13Z</time>
      </trkpt>
      <trkpt lat="45.92148" lon="4.75503">
        <ele>175</ele>
        <time>2017-12-07T12:30:14Z</time>
      </trkpt>
      <trkpt lat="45.92151" lon="4.75495">
        <ele>175</ele>
        <time>2017-12-07T12:30:15Z</time>
      </trkpt>
      <trkpt lat="45.92154" lon="4.75486">
        <ele>176</ele>
        <time>2017-12-07T12:30:16Z</time>
      </trkpt>
      <trkpt lat="45.92159" lon="4.75476">
        <ele>176</ele>
        <time>2017-12-07T12:30:17Z</time>
      </trkpt>
      <trkpt lat="45.92163" lon="4.75468">
        <ele>176</ele>
        <time>2017-12-07T12:30:18Z</time>
      </trkpt>
      <trkpt lat="45.92166" lon="4.7546">
        <ele>176</ele>
        <time>2017-12-07T12:30:19Z</time>
      </trkpt>
      <trkpt lat="45.92169" lon="4.75452">
        <ele>176</ele>
        <time>2017-12-07T12:30:20Z</time>
      </trkpt>
      <trkpt lat="45.92172" lon="4.75444">
        <ele>176</ele>
        <time>2017-12-07T12:30:21Z</time>
      </trkpt>
      <trkpt lat="45.92175" lon="4.75436">
        <ele>177</ele>
        <time>2017-12-07T12:30:22Z</time>
      </trkpt>
      <trkpt lat="45.92178" lon="4.75428">
        <ele>177</ele>
        <time>2017-12-07T12:30:23Z</time>
      </trkpt>
      <trkpt lat="45.92181" lon="4.7542">
        <ele>177</ele>
        <time>2017-12-07T12:30:24Z</time>
      </trkpt>
      <trkpt lat="45.92185" lon="4.75412">
        <ele>177</ele>
        <time>2017-12-07T12:30:25Z</time>
      </trkpt>
      <trkpt lat="45.92187" lon="4.75405">
        <ele>177</ele>
        <time>2017-12-07T12:30:26Z</time>
      </trkpt>
      <trkpt lat="45.9219" lon="4.75398">
        <ele>177</ele>
        <time>2017-12-07T12:30:27Z</time>
      </trkpt>
      <trkpt lat="45.92192" lon="4.75392">
        <ele>177</ele>
        <time>2017-12-07T12:30:28Z</time>
      </trkpt>
      <trkpt lat="45.92194" lon="4.75385">
        <ele>177</ele>
        <time>2017-12-07T12:30:29Z</time>
      </trkpt>
      <trkpt lat="45.92195" lon="4.75378">
        <ele>177</ele>
        <time>2017-12-07T12:30:30Z</time>
      </trkpt>
      <trkpt lat="45.92198" lon="4.75372">
        <ele>177</ele>
        <time>2017-12-07T12:30:31Z</time>
      </trkpt>
      <trkpt lat="45.922" lon="4.75364">
        <ele>177</ele>
        <time>2017-12-07T12:30:32Z</time>
      </trkpt>
      <trkpt lat="45.92203" lon="4.75358">
        <ele>177</ele>
        <time>2017-12-07T12:30:33Z</time>
      </trkpt>
      <trkpt lat="45.92205" lon="4.7535">
        <ele>177</ele>
        <time>2017-12-07T12:30:34Z</time>
      </trkpt>
      <trkpt lat="45.92207" lon="4.75342">
        <ele>177</ele>
        <time>2017-12-07T12:30:35Z</time>
      </trkpt>
      <trkpt lat="45.9221" lon="4.75332">
        <ele>176</ele>
        <time>2017-12-07T12:30:36Z</time>
      </trkpt>
      <trkpt lat="45.92212" lon="4.75323">
        <ele>176</ele>
        <time>2017-12-07T12:30:37Z</time>
      </trkpt>
      <trkpt lat="45.92212" lon="4.75314">
        <ele>176</ele>
        <time>2017-12-07T12:30:38Z</time>
      </trkpt>
      <trkpt lat="45.92213" lon="4.75304">
        <ele>176</ele>
        <time>2017-12-07T12:30:39Z</time>
      </trkpt>
      <trkpt lat="45.92213" lon="4.75295">
        <ele>176</ele>
        <time>2017-12-07T12:30:40Z</time>
      </trkpt>
      <trkpt lat="45.92213" lon="4.75286">
        <ele>176</ele>
        <time>2017-12-07T12:30:41Z</time>
      </trkpt>
      <trkpt lat="45.92213" lon="4.75277">
        <ele>176</ele>
        <time>2017-12-07T12:30:42Z</time>
      </trkpt>
      <trkpt lat="45.92213" lon="4.75268">
        <ele>176</ele>
        <time>2017-12-07T12:30:43Z</time>
      </trkpt>
      <trkpt lat="45.92214" lon="4.75259">
        <ele>175</ele>
        <time>2017-12-07T12:30:44Z</time>
      </trkpt>
      <trkpt lat="45.92214" lon="4.75249">
        <ele>175</ele>
        <time>2017-12-07T12:30:45Z</time>
      </trkpt>
      <trkpt lat="45.92214" lon="4.7524">
        <ele>175</ele>
        <time>2017-12-07T12:30:46Z</time>
      </trkpt>
      <trkpt lat="45.92216" lon="4.75231">
        <ele>175</ele>
        <time>2017-12-07T12:30:47Z</time>
      </trkpt>
      <trkpt lat="45.92216" lon="4.75222">
        <ele>175</ele>
        <time>2017-12-07T12:30:48Z</time>
      </trkpt>
      <trkpt lat="45.92217" lon="4.75213">
        <ele>175</ele>
        <time>2017-12-07T12:30:49Z</time>
      </trkpt>
      <trkpt lat="45.92218" lon="4.75204">
        <ele>175</ele>
        <time>2017-12-07T12:30:50Z</time>
      </trkpt>
      <trkpt lat="45.92221" lon="4.75194">
        <ele>175</ele>
        <time>2017-12-07T12:30:51Z</time>
      </trkpt>
      <trkpt lat="45.92223" lon="4.75186">
        <ele>175</ele>
        <time>2017-12-07T12:30:52Z</time>
      </trkpt>
      <trkpt lat="45.92226" lon="4.75176">
        <ele>175</ele>
        <time>2017-12-07T12:30:53Z</time>
      </trkpt>
      <trkpt lat="45.92229" lon="4.75168">
        <ele>175</ele>
        <time>2017-12-07T12:30:54Z</time>
      </trkpt>
      <trkpt lat="45.92232" lon="4.75159">
        <ele>174</ele>
        <time>2017-12-07T12:30:55Z</time>
      </trkpt>
      <trkpt lat="45.92236" lon="4.75152">
        <ele>174</ele>
        <time>2017-12-07T12:30:56Z</time>
      </trkpt>
      <trkpt lat="45.92239" lon="4.75141">
        <ele>174</ele>
        <time>2017-12-07T12:30:57Z</time>
      </trkpt>
      <trkpt lat="45.92243" lon="4.75135">
        <ele>174</ele>
        <time>2017-12-07T12:30:58Z</time>
      </trkpt>
      <trkpt lat="45.92248" lon="4.75128">
        <ele>174</ele>
        <time>2017-12-07T12:30:59Z</time>
      </trkpt>
      <trkpt lat="45.92253" lon="4.75123">
        <ele>174</ele>
        <time>2017-12-07T12:31:00Z</time>
      </trkpt>
      <trkpt lat="45.92258" lon="4.75117">
        <ele>174</ele>
        <time>2017-12-07T12:31:01Z</time>
      </trkpt>
      <trkpt lat="45.92263" lon="4.75112">
        <ele>174</ele>
        <time>2017-12-07T12:31:02Z</time>
      </trkpt>
      <trkpt lat="45.92267" lon="4.75107">
        <ele>174</ele>
        <time>2017-12-07T12:31:03Z</time>
      </trkpt>
      <trkpt lat="45.92273" lon="4.75103">
        <ele>173</ele>
        <time>2017-12-07T12:31:04Z</time>
      </trkpt>
      <trkpt lat="45.92277" lon="4.75098">
        <ele>173</ele>
        <time>2017-12-07T12:31:05Z</time>
      </trkpt>
      <trkpt lat="45.92283" lon="4.75095">
        <ele>173</ele>
        <time>2017-12-07T12:31:06Z</time>
      </trkpt>
      <trkpt lat="45.92288" lon="4.7509">
        <ele>173</ele>
        <time>2017-12-07T12:31:07Z</time>
      </trkpt>
      <trkpt lat="45.92293" lon="4.75085">
        <ele>173</ele>
        <time>2017-12-07T12:31:08Z</time>
      </trkpt>
      <trkpt lat="45.92298" lon="4.75078">
        <ele>172</ele>
        <time>2017-12-07T12:31:09Z</time>
      </trkpt>
      <trkpt lat="45.92303" lon="4.75072">
        <ele>172</ele>
        <time>2017-12-07T12:31:10Z</time>
      </trkpt>
      <trkpt lat="45.92308" lon="4.75064">
        <ele>172</ele>
        <time>2017-12-07T12:31:11Z</time>
      </trkpt>
      <trkpt lat="45.92313" lon="4.75057">
        <ele>172</ele>
        <time>2017-12-07T12:31:12Z</time>
      </trkpt>
      <trkpt lat="45.92318" lon="4.7505">
        <ele>172</ele>
        <time>2017-12-07T12:31:13Z</time>
      </trkpt>
      <trkpt lat="45.92322" lon="4.75042">
        <ele>172</ele>
        <time>2017-12-07T12:31:14Z</time>
      </trkpt>
      <trkpt lat="45.92327" lon="4.75033">
        <ele>171</ele>
        <time>2017-12-07T12:31:15Z</time>
      </trkpt>
      <trkpt lat="45.92331" lon="4.75026">
        <ele>171</ele>
        <time>2017-12-07T12:31:16Z</time>
      </trkpt>
      <trkpt lat="45.92336" lon="4.75017">
        <ele>170</ele>
        <time>2017-12-07T12:31:17Z</time>
      </trkpt>
      <trkpt lat="45.92339" lon="4.75009">
        <ele>170</ele>
        <time>2017-12-07T12:31:18Z</time>
      </trkpt>
      <trkpt lat="45.92343" lon="4.75001">
        <ele>170</ele>
        <time>2017-12-07T12:31:19Z</time>
      </trkpt>
      <trkpt lat="45.92347" lon="4.74994">
        <ele>170</ele>
        <time>2017-12-07T12:31:20Z</time>
      </trkpt>
      <trkpt lat="45.9235" lon="4.74985">
        <ele>170</ele>
        <time>2017-12-07T12:31:21Z</time>
      </trkpt>
      <trkpt lat="45.92352" lon="4.74978">
        <ele>170</ele>
        <time>2017-12-07T12:31:22Z</time>
      </trkpt>
      <trkpt lat="45.92356" lon="4.7497">
        <ele>170</ele>
        <time>2017-12-07T12:31:23Z</time>
      </trkpt>
      <trkpt lat="45.92358" lon="4.74964">
        <ele>170</ele>
        <time>2017-12-07T12:31:24Z</time>
      </trkpt>
      <trkpt lat="45.92361" lon="4.74957">
        <ele>170</ele>
        <time>2017-12-07T12:31:25Z</time>
      </trkpt>
      <trkpt lat="45.92363" lon="4.7495">
        <ele>170</ele>
        <time>2017-12-07T12:31:26Z</time>
      </trkpt>
      <trkpt lat="45.92366" lon="4.74942">
        <ele>170</ele>
        <time>2017-12-07T12:31:27Z</time>
      </trkpt>
      <trkpt lat="45.92368" lon="4.74936">
        <ele>170</ele>
        <time>2017-12-07T12:31:28Z</time>
      </trkpt>
      <trkpt lat="45.92371" lon="4.74929">
        <ele>170</ele>
        <time>2017-12-07T12:31:29Z</time>
      </trkpt>
      <trkpt lat="45.92373" lon="4.74923">
        <ele>170</ele>
        <time>2017-12-07T12:31:30Z</time>
      </trkpt>
      <trkpt lat="45.92377" lon="4.74915">
        <ele>171</ele>
        <time>2017-12-07T12:31:31Z</time>
      </trkpt>
      <trkpt lat="45.92381" lon="4.74906">
        <ele>171</ele>
        <time>2017-12-07T12:31:32Z</time>
      </trkpt>
      <trkpt lat="45.92384" lon="4.74898">
        <ele>171</ele>
        <time>2017-12-07T12:31:33Z</time>
      </trkpt>
      <trkpt lat="45.92387" lon="4.74891">
        <ele>171</ele>
        <time>2017-12-07T12:31:34Z</time>
      </trkpt>
      <trkpt lat="45.9239" lon="4.74882">
        <ele>171</ele>
        <time>2017-12-07T12:31:35Z</time>
      </trkpt>
      <trkpt lat="45.92393" lon="4.74875">
        <ele>171</ele>
        <time>2017-12-07T12:31:36Z</time>
      </trkpt>
      <trkpt lat="45.92395" lon="4.74869">
        <ele>171</ele>
        <time>2017-12-07T12:31:37Z</time>
      </trkpt>
      <trkpt lat="45.92398" lon="4.74862">
        <ele>171</ele>
        <time>2017-12-07T12:31:38Z</time>
      </trkpt>
      <trkpt lat="45.92401" lon="4.74856">
        <ele>171</ele>
        <time>2017-12-07T12:31:39Z</time>
      </trkpt>
      <trkpt lat="45.92403" lon="4.7485">
        <ele>171</ele>
        <time>2017-12-07T12:31:40Z</time>
      </trkpt>
      <trkpt lat="45.92404" lon="4.74844">
        <ele>171</ele>
        <time>2017-12-07T12:31:41Z</time>
      </trkpt>
      <trkpt lat="45.92406" lon="4.74838">
        <ele>171</ele>
        <time>2017-12-07T12:31:42Z</time>
      </trkpt>
      <trkpt lat="45.92407" lon="4.7483">
        <ele>171</ele>
        <time>2017-12-07T12:31:43Z</time>
      </trkpt>
      <trkpt lat="45.9241" lon="4.74823">
        <ele>171</ele>
        <time>2017-12-07T12:31:44Z</time>
      </trkpt>
      <trkpt lat="45.92411" lon="4.74816">
        <ele>171</ele>
        <time>2017-12-07T12:31:45Z</time>
      </trkpt>
      <trkpt lat="45.92412" lon="4.74808">
        <ele>171</ele>
        <time>2017-12-07T12:31:46Z</time>
      </trkpt>
      <trkpt lat="45.92413" lon="4.748">
        <ele>171</ele>
        <time>2017-12-07T12:31:47Z</time>
      </trkpt>
      <trkpt lat="45.92415" lon="4.74792">
        <ele>171</ele>
        <time>2017-12-07T12:31:48Z</time>
      </trkpt>
      <trkpt lat="45.92417" lon="4.74782">
        <ele>171</ele>
        <time>2017-12-07T12:31:49Z</time>
      </trkpt>
      <trkpt lat="45.9242" lon="4.74774">
        <ele>171</ele>
        <time>2017-12-07T12:31:50Z</time>
      </trkpt>
      <trkpt lat="45.92422" lon="4.74767">
        <ele>171</ele>
        <time>2017-12-07T12:31:51Z</time>
      </trkpt>
      <trkpt lat="45.92424" lon="4.74759">
        <ele>171</ele>
        <time>2017-12-07T12:31:52Z</time>
      </trkpt>
      <trkpt lat="45.92425" lon="4.74751">
        <ele>172</ele>
        <time>2017-12-07T12:31:53Z</time>
      </trkpt>
      <trkpt lat="45.92428" lon="4.74744">
        <ele>171</ele>
        <time>2017-12-07T12:31:54Z</time>
      </trkpt>
      <trkpt lat="45.9243" lon="4.74737">
        <ele>171</ele>
        <time>2017-12-07T12:31:55Z</time>
      </trkpt>
      <trkpt lat="45.92432" lon="4.7473">
        <ele>171</ele>
        <time>2017-12-07T12:31:56Z</time>
      </trkpt>
      <trkpt lat="45.92435" lon="4.74723">
        <ele>171</ele>
        <time>2017-12-07T12:31:57Z</time>
      </trkpt>
      <trkpt lat="45.92437" lon="4.74716">
        <ele>171</ele>
        <time>2017-12-07T12:31:58Z</time>
      </trkpt>
      <trkpt lat="45.92441" lon="4.74708">
        <ele>171</ele>
        <time>2017-12-07T12:31:59Z</time>
      </trkpt>
      <trkpt lat="45.92443" lon="4.747">
        <ele>171</ele>
        <time>2017-12-07T12:32:00Z</time>
      </trkpt>
      <trkpt lat="45.92446" lon="4.74694">
        <ele>171</ele>
        <time>2017-12-07T12:32:01Z</time>
      </trkpt>
      <trkpt lat="45.92449" lon="4.74688">
        <ele>171</ele>
        <time>2017-12-07T12:32:02Z</time>
      </trkpt>
      <trkpt lat="45.92451" lon="4.74682">
        <ele>171</ele>
        <time>2017-12-07T12:32:03Z</time>
      </trkpt>
      <trkpt lat="45.92454" lon="4.74676">
        <ele>171</ele>
        <time>2017-12-07T12:32:04Z</time>
      </trkpt>
      <trkpt lat="45.92456" lon="4.7467">
        <ele>171</ele>
        <time>2017-12-07T12:32:05Z</time>
      </trkpt>
      <trkpt lat="45.92459" lon="4.74665">
        <ele>171</ele>
        <time>2017-12-07T12:32:06Z</time>
      </trkpt>
      <trkpt lat="45.92465" lon="4.74655">
        <ele>171</ele>
        <time>2017-12-07T12:32:08Z</time>
      </trkpt>
      <trkpt lat="45.9247" lon="4.74649">
        <ele>171</ele>
        <time>2017-12-07T12:32:09Z</time>
      </trkpt>
      <trkpt lat="45.92472" lon="4.74643">
        <ele>171</ele>
        <time>2017-12-07T12:32:10Z</time>
      </trkpt>
      <trkpt lat="45.92476" lon="4.74637">
        <ele>171</ele>
        <time>2017-12-07T12:32:11Z</time>
      </trkpt>
      <trkpt lat="45.92478" lon="4.74632">
        <ele>171</ele>
        <time>2017-12-07T12:32:12Z</time>
      </trkpt>
      <trkpt lat="45.92482" lon="4.74623">
        <ele>171</ele>
        <time>2017-12-07T12:32:13Z</time>
      </trkpt>
      <trkpt lat="45.92488" lon="4.74617">
        <ele>171</ele>
        <time>2017-12-07T12:32:14Z</time>
      </trkpt>
      <trkpt lat="45.92492" lon="4.74609">
        <ele>171</ele>
        <time>2017-12-07T12:32:15Z</time>
      </trkpt>
      <trkpt lat="45.92497" lon="4.74603">
        <ele>171</ele>
        <time>2017-12-07T12:32:16Z</time>
      </trkpt>
      <trkpt lat="45.92503" lon="4.74598">
        <ele>171</ele>
        <time>2017-12-07T12:32:17Z</time>
      </trkpt>
      <trkpt lat="45.92508" lon="4.74591">
        <ele>171</ele>
        <time>2017-12-07T12:32:18Z</time>
      </trkpt>
      <trkpt lat="45.92513" lon="4.74586">
        <ele>171</ele>
        <time>2017-12-07T12:32:19Z</time>
      </trkpt>
      <trkpt lat="45.92517" lon="4.74581">
        <ele>171</ele>
        <time>2017-12-07T12:32:20Z</time>
      </trkpt>
      <trkpt lat="45.92522" lon="4.74575">
        <ele>171</ele>
        <time>2017-12-07T12:32:21Z</time>
      </trkpt>
      <trkpt lat="45.92527" lon="4.74569">
        <ele>171</ele>
        <time>2017-12-07T12:32:22Z</time>
      </trkpt>
      <trkpt lat="45.92531" lon="4.74563">
        <ele>171</ele>
        <time>2017-12-07T12:32:23Z</time>
      </trkpt>
      <trkpt lat="45.92534" lon="4.74558">
        <ele>171</ele>
        <time>2017-12-07T12:32:24Z</time>
      </trkpt>
      <trkpt lat="45.92538" lon="4.74552">
        <ele>171</ele>
        <time>2017-12-07T12:32:25Z</time>
      </trkpt>
      <trkpt lat="45.92541" lon="4.74547">
        <ele>171</ele>
        <time>2017-12-07T12:32:26Z</time>
      </trkpt>
      <trkpt lat="45.92545" lon="4.74542">
        <ele>170</ele>
        <time>2017-12-07T12:32:27Z</time>
      </trkpt>
      <trkpt lat="45.92549" lon="4.74537">
        <ele>170</ele>
        <time>2017-12-07T12:32:28Z</time>
      </trkpt>
      <trkpt lat="45.92551" lon="4.74531">
        <ele>170</ele>
        <time>2017-12-07T12:32:29Z</time>
      </trkpt>
      <trkpt lat="45.92554" lon="4.74524">
        <ele>170</ele>
        <time>2017-12-07T12:32:30Z</time>
      </trkpt>
      <trkpt lat="45.92558" lon="4.74518">
        <ele>170</ele>
        <time>2017-12-07T12:32:31Z</time>
      </trkpt>
      <trkpt lat="45.92562" lon="4.74511">
        <ele>170</ele>
        <time>2017-12-07T12:32:32Z</time>
      </trkpt>
      <trkpt lat="45.92566" lon="4.74504">
        <ele>170</ele>
        <time>2017-12-07T12:32:33Z</time>
      </trkpt>
      <trkpt lat="45.9257" lon="4.74498">
        <ele>170</ele>
        <time>2017-12-07T12:32:34Z</time>
      </trkpt>
      <trkpt lat="45.92573" lon="4.74492">
        <ele>170</ele>
        <time>2017-12-07T12:32:35Z</time>
      </trkpt>
      <trkpt lat="45.92576" lon="4.74485">
        <ele>170</ele>
        <time>2017-12-07T12:32:36Z</time>
      </trkpt>
      <trkpt lat="45.9258" lon="4.74477">
        <ele>170</ele>
        <time>2017-12-07T12:32:37Z</time>
      </trkpt>
      <trkpt lat="45.92583" lon="4.74469">
        <ele>170</ele>
        <time>2017-12-07T12:32:38Z</time>
      </trkpt>
      <trkpt lat="45.92589" lon="4.74463">
        <ele>170</ele>
        <time>2017-12-07T12:32:39Z</time>
      </trkpt>
      <trkpt lat="45.92592" lon="4.74456">
        <ele>170</ele>
        <time>2017-12-07T12:32:40Z</time>
      </trkpt>
      <trkpt lat="45.92596" lon="4.74449">
        <ele>170</ele>
        <time>2017-12-07T12:32:41Z</time>
      </trkpt>
      <trkpt lat="45.926" lon="4.74442">
        <ele>170</ele>
        <time>2017-12-07T12:32:42Z</time>
      </trkpt>
      <trkpt lat="45.92603" lon="4.74434">
        <ele>170</ele>
        <time>2017-12-07T12:32:43Z</time>
      </trkpt>
      <trkpt lat="45.92607" lon="4.74427">
        <ele>170</ele>
        <time>2017-12-07T12:32:44Z</time>
      </trkpt>
      <trkpt lat="45.92611" lon="4.7442">
        <ele>170</ele>
        <time>2017-12-07T12:32:45Z</time>
      </trkpt>
      <trkpt lat="45.92615" lon="4.74413">
        <ele>170</ele>
        <time>2017-12-07T12:32:46Z</time>
      </trkpt>
      <trkpt lat="45.92617" lon="4.74407">
        <ele>170</ele>
        <time>2017-12-07T12:32:47Z</time>
      </trkpt>
      <trkpt lat="45.9262" lon="4.74401">
        <ele>170</ele>
        <time>2017-12-07T12:32:48Z</time>
      </trkpt>
      <trkpt lat="45.92625" lon="4.74395">
        <ele>170</ele>
        <time>2017-12-07T12:32:49Z</time>
      </trkpt>
      <trkpt lat="45.92628" lon="4.74388">
        <ele>170</ele>
        <time>2017-12-07T12:32:50Z</time>
      </trkpt>
      <trkpt lat="45.9263" lon="4.74382">
        <ele>170</ele>
        <time>2017-12-07T12:32:51Z</time>
      </trkpt>
      <trkpt lat="45.92633" lon="4.74376">
        <ele>170</ele>
        <time>2017-12-07T12:32:52Z</time>
      </trkpt>
      <trkpt lat="45.92636" lon="4.74371">
        <ele>171</ele>
        <time>2017-12-07T12:32:53Z</time>
      </trkpt>
      <trkpt lat="45.9264" lon="4.74365">
        <ele>171</ele>
        <time>2017-12-07T12:32:54Z</time>
      </trkpt>
      <trkpt lat="45.92643" lon="4.7436">
        <ele>171</ele>
        <time>2017-12-07T12:32:55Z</time>
      </trkpt>
      <trkpt lat="45.92647" lon="4.74354">
        <ele>171</ele>
        <time>2017-12-07T12:32:56Z</time>
      </trkpt>
      <trkpt lat="45.92651" lon="4.74347">
        <ele>171</ele>
        <time>2017-12-07T12:32:57Z</time>
      </trkpt>
      <trkpt lat="45.92656" lon="4.74341">
        <ele>171</ele>
        <time>2017-12-07T12:32:58Z</time>
      </trkpt>
      <trkpt lat="45.92659" lon="4.74335">
        <ele>171</ele>
        <time>2017-12-07T12:32:59Z</time>
      </trkpt>
      <trkpt lat="45.92663" lon="4.7433">
        <ele>171</ele>
        <time>2017-12-07T12:33:00Z</time>
      </trkpt>
      <trkpt lat="45.92666" lon="4.74322">
        <ele>171</ele>
        <time>2017-12-07T12:33:01Z</time>
      </trkpt>
      <trkpt lat="45.9267" lon="4.74317">
        <ele>171</ele>
        <time>2017-12-07T12:33:02Z</time>
      </trkpt>
      <trkpt lat="45.92673" lon="4.74312">
        <ele>171</ele>
        <time>2017-12-07T12:33:03Z</time>
      </trkpt>
      <trkpt lat="45.92676" lon="4.74306">
        <ele>171</ele>
        <time>2017-12-07T12:33:04Z</time>
      </trkpt>
      <trkpt lat="45.9268" lon="4.74302">
        <ele>171</ele>
        <time>2017-12-07T12:33:05Z</time>
      </trkpt>
      <trkpt lat="45.92683" lon="4.74297">
        <ele>171</ele>
        <time>2017-12-07T12:33:06Z</time>
      </trkpt>
      <trkpt lat="45.92687" lon="4.7429">
        <ele>171</ele>
        <time>2017-12-07T12:33:07Z</time>
      </trkpt>
      <trkpt lat="45.92691" lon="4.74285">
        <ele>171</ele>
        <time>2017-12-07T12:33:08Z</time>
      </trkpt>
      <trkpt lat="45.92694" lon="4.74279">
        <ele>171</ele>
        <time>2017-12-07T12:33:09Z</time>
      </trkpt>
      <trkpt lat="45.92698" lon="4.74272">
        <ele>171</ele>
        <time>2017-12-07T12:33:10Z</time>
      </trkpt>
      <trkpt lat="45.92701" lon="4.74266">
        <ele>171</ele>
        <time>2017-12-07T12:33:11Z</time>
      </trkpt>
      <trkpt lat="45.92705" lon="4.74259">
        <ele>171</ele>
        <time>2017-12-07T12:33:12Z</time>
      </trkpt>
      <trkpt lat="45.92709" lon="4.74254">
        <ele>171</ele>
        <time>2017-12-07T12:33:13Z</time>
      </trkpt>
      <trkpt lat="45.92713" lon="4.74245">
        <ele>171</ele>
        <time>2017-12-07T12:33:14Z</time>
      </trkpt>
      <trkpt lat="45.92717" lon="4.74239">
        <ele>171</ele>
        <time>2017-12-07T12:33:15Z</time>
      </trkpt>
      <trkpt lat="45.92721" lon="4.74234">
        <ele>171</ele>
        <time>2017-12-07T12:33:16Z</time>
      </trkpt>
      <trkpt lat="45.92725" lon="4.74228">
        <ele>171</ele>
        <time>2017-12-07T12:33:17Z</time>
      </trkpt>
      <trkpt lat="45.92729" lon="4.74222">
        <ele>171</ele>
        <time>2017-12-07T12:33:18Z</time>
      </trkpt>
      <trkpt lat="45.92733" lon="4.74216">
        <ele>171</ele>
        <time>2017-12-07T12:33:19Z</time>
      </trkpt>
      <trkpt lat="45.92737" lon="4.7421">
        <ele>171</ele>
        <time>2017-12-07T12:33:20Z</time>
      </trkpt>
      <trkpt lat="45.92741" lon="4.74205">
        <ele>171</ele>
        <time>2017-12-07T12:33:21Z</time>
      </trkpt>
      <trkpt lat="45.92746" lon="4.742">
        <ele>171</ele>
        <time>2017-12-07T12:33:22Z</time>
      </trkpt>
      <trkpt lat="45.9275" lon="4.74194">
        <ele>172</ele>
        <time>2017-12-07T12:33:23Z</time>
      </trkpt>
      <trkpt lat="45.92755" lon="4.74189">
        <ele>172</ele>
        <time>2017-12-07T12:33:24Z</time>
      </trkpt>
      <trkpt lat="45.92759" lon="4.74183">
        <ele>172</ele>
        <time>2017-12-07T12:33:25Z</time>
      </trkpt>
      <trkpt lat="45.92764" lon="4.74176">
        <ele>172</ele>
        <time>2017-12-07T12:33:26Z</time>
      </trkpt>
      <trkpt lat="45.92768" lon="4.7417">
        <ele>172</ele>
        <time>2017-12-07T12:33:27Z</time>
      </trkpt>
      <trkpt lat="45.92773" lon="4.74165">
        <ele>172</ele>
        <time>2017-12-07T12:33:28Z</time>
      </trkpt>
      <trkpt lat="45.92777" lon="4.74161">
        <ele>172</ele>
        <time>2017-12-07T12:33:29Z</time>
      </trkpt>
      <trkpt lat="45.92781" lon="4.74156">
        <ele>172</ele>
        <time>2017-12-07T12:33:30Z</time>
      </trkpt>
      <trkpt lat="45.92787" lon="4.74151">
        <ele>172</ele>
        <time>2017-12-07T12:33:31Z</time>
      </trkpt>
      <trkpt lat="45.92792" lon="4.74145">
        <ele>172</ele>
        <time>2017-12-07T12:33:32Z</time>
      </trkpt>
      <trkpt lat="45.92797" lon="4.74139">
        <ele>172</ele>
        <time>2017-12-07T12:33:33Z</time>
      </trkpt>
      <trkpt lat="45.92802" lon="4.74134">
        <ele>172</ele>
        <time>2017-12-07T12:33:34Z</time>
      </trkpt>
      <trkpt lat="45.92808" lon="4.74127">
        <ele>172</ele>
        <time>2017-12-07T12:33:35Z</time>
      </trkpt>
      <trkpt lat="45.92814" lon="4.74121">
        <ele>172</ele>
        <time>2017-12-07T12:33:36Z</time>
      </trkpt>
      <trkpt lat="45.9282" lon="4.74116">
        <ele>172</ele>
        <time>2017-12-07T12:33:37Z</time>
      </trkpt>
      <trkpt lat="45.92825" lon="4.7411">
        <ele>171</ele>
        <time>2017-12-07T12:33:38Z</time>
      </trkpt>
      <trkpt lat="45.9283" lon="4.74105">
        <ele>171</ele>
        <time>2017-12-07T12:33:39Z</time>
      </trkpt>
      <trkpt lat="45.92835" lon="4.741">
        <ele>171</ele>
        <time>2017-12-07T12:33:40Z</time>
      </trkpt>
      <trkpt lat="45.9284" lon="4.74095">
        <ele>171</ele>
        <time>2017-12-07T12:33:41Z</time>
      </trkpt>
      <trkpt lat="45.92844" lon="4.7409">
        <ele>171</ele>
        <time>2017-12-07T12:33:42Z</time>
      </trkpt>
      <trkpt lat="45.92848" lon="4.74086">
        <ele>171</ele>
        <time>2017-12-07T12:33:43Z</time>
      </trkpt>
      <trkpt lat="45.92852" lon="4.74081">
        <ele>172</ele>
        <time>2017-12-07T12:33:44Z</time>
      </trkpt>
      <trkpt lat="45.92856" lon="4.74076">
        <ele>172</ele>
        <time>2017-12-07T12:33:45Z</time>
      </trkpt>
      <trkpt lat="45.9286" lon="4.7407">
        <ele>172</ele>
        <time>2017-12-07T12:33:46Z</time>
      </trkpt>
      <trkpt lat="45.92864" lon="4.74065">
        <ele>172</ele>
        <time>2017-12-07T12:33:47Z</time>
      </trkpt>
      <trkpt lat="45.92868" lon="4.74061">
        <ele>172</ele>
        <time>2017-12-07T12:33:48Z</time>
      </trkpt>
      <trkpt lat="45.92873" lon="4.74057">
        <ele>172</ele>
        <time>2017-12-07T12:33:49Z</time>
      </trkpt>
      <trkpt lat="45.92877" lon="4.74053">
        <ele>172</ele>
        <time>2017-12-07T12:33:50Z</time>
      </trkpt>
      <trkpt lat="45.92882" lon="4.7405">
        <ele>172</ele>
        <time>2017-12-07T12:33:51Z</time>
      </trkpt>
      <trkpt lat="45.92886" lon="4.7405">
        <ele>172</ele>
        <time>2017-12-07T12:33:52Z</time>
      </trkpt>
      <trkpt lat="45.92891" lon="4.7405">
        <ele>172</ele>
        <time>2017-12-07T12:33:53Z</time>
      </trkpt>
      <trkpt lat="45.929" lon="4.7405">
        <ele>172</ele>
        <time>2017-12-07T12:33:55Z</time>
      </trkpt>
      <trkpt lat="45.92905" lon="4.74046">
        <ele>172</ele>
        <time>2017-12-07T12:33:56Z</time>
      </trkpt>
      <trkpt lat="45.92909" lon="4.7404">
        <ele>172</ele>
        <time>2017-12-07T12:33:57Z</time>
      </trkpt>
      <trkpt lat="45.92913" lon="4.74033">
        <ele>172</ele>
        <time>2017-12-07T12:33:58Z</time>
      </trkpt>
      <trkpt lat="45.92915" lon="4.74023">
        <ele>172</ele>
        <time>2017-12-07T12:33:59Z</time>
      </trkpt>
      <trkpt lat="45.92917" lon="4.74014">
        <ele>172</ele>
        <time>2017-12-07T12:34:00Z</time>
      </trkpt>
      <trkpt lat="45.92914" lon="4.74004">
        <ele>172</ele>
        <time>2017-12-07T12:34:01Z</time>
      </trkpt>
      <trkpt lat="45.9291" lon="4.73997">
        <ele>172</ele>
        <time>2017-12-07T12:34:02Z</time>
      </trkpt>
      <trkpt lat="45.92905" lon="4.73991">
        <ele>172</ele>
        <time>2017-12-07T12:34:03Z</time>
      </trkpt>
      <trkpt lat="45.92899" lon="4.73985">
        <ele>172</ele>
        <time>2017-12-07T12:34:04Z</time>
      </trkpt>
      <trkpt lat="45.92894" lon="4.7398">
        <ele>172</ele>
        <time>2017-12-07T12:34:05Z</time>
      </trkpt>
      <trkpt lat="45.9289" lon="4.73972">
        <ele>172</ele>
        <time>2017-12-07T12:34:06Z</time>
      </trkpt>
      <trkpt lat="45.92889" lon="4.73964">
        <ele>172</ele>
        <time>2017-12-07T12:34:07Z</time>
      </trkpt>
      <trkpt lat="45.92888" lon="4.73954">
        <ele>172</ele>
        <time>2017-12-07T12:34:08Z</time>
      </trkpt>
      <trkpt lat="45.92888" lon="4.73944">
        <ele>172</ele>
        <time>2017-12-07T12:34:09Z</time>
      </trkpt>
      <trkpt lat="45.92888" lon="4.73936">
        <ele>172</ele>
        <time>2017-12-07T12:34:10Z</time>
      </trkpt>
      <trkpt lat="45.92888" lon="4.73928">
        <ele>172</ele>
        <time>2017-12-07T12:34:11Z</time>
      </trkpt>
      <trkpt lat="45.92886" lon="4.73918">
        <ele>172</ele>
        <time>2017-12-07T12:34:12Z</time>
      </trkpt>
      <trkpt lat="45.92885" lon="4.7391">
        <ele>173</ele>
        <time>2017-12-07T12:34:13Z</time>
      </trkpt>
      <trkpt lat="45.92884" lon="4.739">
        <ele>173</ele>
        <time>2017-12-07T12:34:14Z</time>
      </trkpt>
      <trkpt lat="45.92882" lon="4.7389">
        <ele>173</ele>
        <time>2017-12-07T12:34:15Z</time>
      </trkpt>
      <trkpt lat="45.92881" lon="4.7388">
        <ele>173</ele>
        <time>2017-12-07T12:34:16Z</time>
      </trkpt>
      <trkpt lat="45.92878" lon="4.73871">
        <ele>173</ele>
        <time>2017-12-07T12:34:17Z</time>
      </trkpt>
      <trkpt lat="45.92875" lon="4.73863">
        <ele>173</ele>
        <time>2017-12-07T12:34:18Z</time>
      </trkpt>
      <trkpt lat="45.92874" lon="4.73855">
        <ele>173</ele>
        <time>2017-12-07T12:34:19Z</time>
      </trkpt>
      <trkpt lat="45.92877" lon="4.73841">
        <ele>173</ele>
        <time>2017-12-07T12:34:20Z</time>
      </trkpt>
      <trkpt lat="45.92873" lon="4.73832">
        <ele>173</ele>
        <time>2017-12-07T12:34:21Z</time>
      </trkpt>
      <trkpt lat="45.92871" lon="4.73825">
        <ele>173</ele>
        <time>2017-12-07T12:34:22Z</time>
      </trkpt>
      <trkpt lat="45.92868" lon="4.73815">
        <ele>173</ele>
        <time>2017-12-07T12:34:23Z</time>
      </trkpt>
      <trkpt lat="45.92866" lon="4.73807">
        <ele>173</ele>
        <time>2017-12-07T12:34:24Z</time>
      </trkpt>
      <trkpt lat="45.92863" lon="4.738">
        <ele>173</ele>
        <time>2017-12-07T12:34:25Z</time>
      </trkpt>
      <trkpt lat="45.92859" lon="4.73795">
        <ele>173</ele>
        <time>2017-12-07T12:34:26Z</time>
      </trkpt>
      <trkpt lat="45.92855" lon="4.7379">
        <ele>173</ele>
        <time>2017-12-07T12:34:27Z</time>
      </trkpt>
      <trkpt lat="45.92848" lon="4.73786">
        <ele>173</ele>
        <time>2017-12-07T12:34:28Z</time>
      </trkpt>
      <trkpt lat="45.92843" lon="4.73783">
        <ele>173</ele>
        <time>2017-12-07T12:34:29Z</time>
      </trkpt>
      <trkpt lat="45.92838" lon="4.7378">
        <ele>173</ele>
        <time>2017-12-07T12:34:30Z</time>
      </trkpt>
      <trkpt lat="45.92834" lon="4.73775">
        <ele>172</ele>
        <time>2017-12-07T12:34:31Z</time>
      </trkpt>
      <trkpt lat="45.92829" lon="4.73772">
        <ele>173</ele>
        <time>2017-12-07T12:34:32Z</time>
      </trkpt>
      <trkpt lat="45.92825" lon="4.7377">
        <ele>173</ele>
        <time>2017-12-07T12:34:33Z</time>
      </trkpt>
      <trkpt lat="45.92821" lon="4.73767">
        <ele>173</ele>
        <time>2017-12-07T12:34:34Z</time>
      </trkpt>
      <trkpt lat="45.92816" lon="4.73764">
        <ele>173</ele>
        <time>2017-12-07T12:34:35Z</time>
      </trkpt>
      <trkpt lat="45.92811" lon="4.73762">
        <ele>173</ele>
        <time>2017-12-07T12:34:36Z</time>
      </trkpt>
      <trkpt lat="45.92807" lon="4.73761">
        <ele>173</ele>
        <time>2017-12-07T12:34:37Z</time>
      </trkpt>
      <trkpt lat="45.92802" lon="4.73758">
        <ele>173</ele>
        <time>2017-12-07T12:34:38Z</time>
      </trkpt>
      <trkpt lat="45.92794" lon="4.73754">
        <ele>173</ele>
        <time>2017-12-07T12:34:40Z</time>
      </trkpt>
      <trkpt lat="45.92792" lon="4.73751">
        <ele>173</ele>
        <time>2017-12-07T12:34:41Z</time>
      </trkpt>
      <trkpt lat="45.92786" lon="4.73744">
        <ele>172</ele>
        <time>2017-12-07T12:34:43Z</time>
      </trkpt>
      <trkpt lat="45.92785" lon="4.73739">
        <ele>172</ele>
        <time>2017-12-07T12:34:44Z</time>
      </trkpt>
      <trkpt lat="45.9278" lon="4.73732">
        <ele>172</ele>
        <time>2017-12-07T12:34:46Z</time>
      </trkpt>
      <trkpt lat="45.92777" lon="4.73729">
        <ele>172</ele>
        <time>2017-12-07T12:34:47Z</time>
      </trkpt>
      <trkpt lat="45.9277" lon="4.73725">
        <ele>172</ele>
        <time>2017-12-07T12:34:49Z</time>
      </trkpt>
      <trkpt lat="45.92766" lon="4.73725">
        <ele>172</ele>
        <time>2017-12-07T12:34:50Z</time>
      </trkpt>
      <trkpt lat="45.92758" lon="4.73724">
        <ele>172</ele>
        <time>2017-12-07T12:34:52Z</time>
      </trkpt>
      <trkpt lat="45.92755" lon="4.73723">
        <ele>172</ele>
        <time>2017-12-07T12:34:53Z</time>
      </trkpt>
      <trkpt lat="45.92748" lon="4.73721">
        <ele>173</ele>
        <time>2017-12-07T12:34:55Z</time>
      </trkpt>
      <trkpt lat="45.92744" lon="4.7372">
        <ele>173</ele>
        <time>2017-12-07T12:34:56Z</time>
      </trkpt>
      <trkpt lat="45.92735" lon="4.73719">
        <ele>173</ele>
        <time>2017-12-07T12:34:59Z</time>
      </trkpt>
      <trkpt lat="45.92731" lon="4.73718">
        <ele>173</ele>
        <time>2017-12-07T12:35:00Z</time>
      </trkpt>
      <trkpt lat="45.92723" lon="4.73717">
        <ele>173</ele>
        <time>2017-12-07T12:35:02Z</time>
      </trkpt>
      <trkpt lat="45.92719" lon="4.73716">
        <ele>173</ele>
        <time>2017-12-07T12:35:03Z</time>
      </trkpt>
      <trkpt lat="45.92711" lon="4.73713">
        <ele>173</ele>
        <time>2017-12-07T12:35:05Z</time>
      </trkpt>
      <trkpt lat="45.92707" lon="4.73711">
        <ele>173</ele>
        <time>2017-12-07T12:35:06Z</time>
      </trkpt>
      <trkpt lat="45.92699" lon="4.73708">
        <ele>173</ele>
        <time>2017-12-07T12:35:08Z</time>
      </trkpt>
      <trkpt lat="45.92694" lon="4.73708">
        <ele>173</ele>
        <time>2017-12-07T12:35:09Z</time>
      </trkpt>
      <trkpt lat="45.92689" lon="4.73707">
        <ele>173</ele>
        <time>2017-12-07T12:35:10Z</time>
      </trkpt>
      <trkpt lat="45.92682" lon="4.73706">
        <ele>173</ele>
        <time>2017-12-07T12:35:11Z</time>
      </trkpt>
      <trkpt lat="45.92674" lon="4.73703">
        <ele>174</ele>
        <time>2017-12-07T12:35:13Z</time>
      </trkpt>
      <trkpt lat="45.92669" lon="4.73701">
        <ele>174</ele>
        <time>2017-12-07T12:35:14Z</time>
      </trkpt>
      <trkpt lat="45.92666" lon="4.73699">
        <ele>173</ele>
        <time>2017-12-07T12:35:15Z</time>
      </trkpt>
      <trkpt lat="45.9266" lon="4.73695">
        <ele>173</ele>
        <time>2017-12-07T12:35:16Z</time>
      </trkpt>
      <trkpt lat="45.92656" lon="4.73691">
        <ele>173</ele>
        <time>2017-12-07T12:35:17Z</time>
      </trkpt>
      <trkpt lat="45.92652" lon="4.73688">
        <ele>173</ele>
        <time>2017-12-07T12:35:18Z</time>
      </trkpt>
      <trkpt lat="45.92649" lon="4.73683">
        <ele>173</ele>
        <time>2017-12-07T12:35:19Z</time>
      </trkpt>
      <trkpt lat="45.92645" lon="4.73679">
        <ele>173</ele>
        <time>2017-12-07T12:35:20Z</time>
      </trkpt>
      <trkpt lat="45.92642" lon="4.73674">
        <ele>173</ele>
        <time>2017-12-07T12:35:21Z</time>
      </trkpt>
      <trkpt lat="45.92639" lon="4.73668">
        <ele>173</ele>
        <time>2017-12-07T12:35:22Z</time>
      </trkpt>
      <trkpt lat="45.92636" lon="4.73662">
        <ele>173</ele>
        <time>2017-12-07T12:35:23Z</time>
      </trkpt>
      <trkpt lat="45.92633" lon="4.73656">
        <ele>173</ele>
        <time>2017-12-07T12:35:24Z</time>
      </trkpt>
      <trkpt lat="45.92631" lon="4.73651">
        <ele>173</ele>
        <time>2017-12-07T12:35:25Z</time>
      </trkpt>
      <trkpt lat="45.92627" lon="4.73645">
        <ele>173</ele>
        <time>2017-12-07T12:35:26Z</time>
      </trkpt>
      <trkpt lat="45.92625" lon="4.73639">
        <ele>173</ele>
        <time>2017-12-07T12:35:27Z</time>
      </trkpt>
      <trkpt lat="45.92622" lon="4.73633">
        <ele>173</ele>
        <time>2017-12-07T12:35:28Z</time>
      </trkpt>
      <trkpt lat="45.92619" lon="4.73628">
        <ele>173</ele>
        <time>2017-12-07T12:35:29Z</time>
      </trkpt>
      <trkpt lat="45.92615" lon="4.73623">
        <ele>173</ele>
        <time>2017-12-07T12:35:30Z</time>
      </trkpt>
      <trkpt lat="45.92608" lon="4.73622">
        <ele>173</ele>
        <time>2017-12-07T12:35:31Z</time>
      </trkpt>
      <trkpt lat="45.92604" lon="4.7362">
        <ele>173</ele>
        <time>2017-12-07T12:35:32Z</time>
      </trkpt>
      <trkpt lat="45.92595" lon="4.73617">
        <ele>173</ele>
        <time>2017-12-07T12:35:34Z</time>
      </trkpt>
      <trkpt lat="45.92591" lon="4.73615">
        <ele>173</ele>
        <time>2017-12-07T12:35:35Z</time>
      </trkpt>
      <trkpt lat="45.92583" lon="4.73617">
        <ele>173</ele>
        <time>2017-12-07T12:35:36Z</time>
      </trkpt>
      <trkpt lat="45.92578" lon="4.73619">
        <ele>173</ele>
        <time>2017-12-07T12:35:37Z</time>
      </trkpt>
      <trkpt lat="45.9257" lon="4.73624">
        <ele>173</ele>
        <time>2017-12-07T12:35:39Z</time>
      </trkpt>
      <trkpt lat="45.92566" lon="4.73624">
        <ele>173</ele>
        <time>2017-12-07T12:35:40Z</time>
      </trkpt>
      <trkpt lat="45.92557" lon="4.73627">
        <ele>173</ele>
        <time>2017-12-07T12:35:42Z</time>
      </trkpt>
      <trkpt lat="45.92554" lon="4.73628">
        <ele>173</ele>
        <time>2017-12-07T12:35:43Z</time>
      </trkpt>
      <trkpt lat="45.92549" lon="4.73629">
        <ele>173</ele>
        <time>2017-12-07T12:35:45Z</time>
      </trkpt>
      <trkpt lat="45.92543" lon="4.73632">
        <ele>173</ele>
        <time>2017-12-07T12:35:46Z</time>
      </trkpt>
      <trkpt lat="45.92538" lon="4.73634">
        <ele>173</ele>
        <time>2017-12-07T12:35:47Z</time>
      </trkpt>
      <trkpt lat="45.92534" lon="4.73635">
        <ele>173</ele>
        <time>2017-12-07T12:35:48Z</time>
      </trkpt>
      <trkpt lat="45.92527" lon="4.73635">
        <ele>173</ele>
        <time>2017-12-07T12:35:50Z</time>
      </trkpt>
      <trkpt lat="45.92523" lon="4.73635">
        <ele>173</ele>
        <time>2017-12-07T12:35:51Z</time>
      </trkpt>
      <trkpt lat="45.92515" lon="4.73635">
        <ele>173</ele>
        <time>2017-12-07T12:35:53Z</time>
      </trkpt>
      <trkpt lat="45.92512" lon="4.73635">
        <ele>173</ele>
        <time>2017-12-07T12:35:54Z</time>
      </trkpt>
      <trkpt lat="45.92503" lon="4.73636">
        <ele>174</ele>
        <time>2017-12-07T12:35:56Z</time>
      </trkpt>
      <trkpt lat="45.92498" lon="4.73636">
        <ele>174</ele>
        <time>2017-12-07T12:35:57Z</time>
      </trkpt>
      <trkpt lat="45.9249" lon="4.73636">
        <ele>174</ele>
        <time>2017-12-07T12:35:59Z</time>
      </trkpt>
      <trkpt lat="45.92487" lon="4.73635">
        <ele>174</ele>
        <time>2017-12-07T12:36:00Z</time>
      </trkpt>
      <trkpt lat="45.92479" lon="4.73638">
        <ele>174</ele>
        <time>2017-12-07T12:36:02Z</time>
      </trkpt>
      <trkpt lat="45.92475" lon="4.73642">
        <ele>174</ele>
        <time>2017-12-07T12:36:03Z</time>
      </trkpt>
      <trkpt lat="45.92471" lon="4.73653">
        <ele>174</ele>
        <time>2017-12-07T12:36:05Z</time>
      </trkpt>
      <trkpt lat="45.9247" lon="4.73659">
        <ele>174</ele>
        <time>2017-12-07T12:36:06Z</time>
      </trkpt>
      <trkpt lat="45.92469" lon="4.7367">
        <ele>174</ele>
        <time>2017-12-07T12:36:08Z</time>
      </trkpt>
      <trkpt lat="45.92469" lon="4.73675">
        <ele>174</ele>
        <time>2017-12-07T12:36:09Z</time>
      </trkpt>
      <trkpt lat="45.92469" lon="4.73685">
        <ele>174</ele>
        <time>2017-12-07T12:36:11Z</time>
      </trkpt>
      <trkpt lat="45.92469" lon="4.73689">
        <ele>174</ele>
        <time>2017-12-07T12:36:12Z</time>
      </trkpt>
      <trkpt lat="45.92468" lon="4.737">
        <ele>174</ele>
        <time>2017-12-07T12:36:15Z</time>
      </trkpt>
      <trkpt lat="45.92467" lon="4.73702">
        <ele>174</ele>
        <time>2017-12-07T12:36:16Z</time>
      </trkpt>
      <trkpt lat="45.92464" lon="4.73712">
        <ele>174</ele>
        <time>2017-12-07T12:37:02.197Z</time>
      </trkpt>
    </trkseg>
  </trk>
</gpx>